<?xml version="1.0" encoding="UTF-8" standalone="no" ?>
<gpx xmlns="http://www.topografix.com/GPX/1/1" xmlns:gpxtpx="http://www.garmin.com/xmlschemas/TrackPointExtension/v1" creator="OruxMaps v.7.4.22" version="1.1" xmlns:xsi="http://www.w3.org/2001/XMLSchema-instance" xsi:schemaLocation="http://www.topografix.com/GPX/1/1 http://www.topografix.com/GPX/1/1/gpx.xsd">
<metadata>
<name><![CDATA[2019-07-25 10:01]]></name>
<link href="https://www.oruxmaps.com">
<text>OruxMaps</text>
</link>
<time>2019-07-25T08:01:04Z</time><bounds maxlat="45.0156540" maxlon="5.4669791" minlat="44.8805776" minlon="5.3691337"/>
</metadata>
<wpt lat="45.0148620" lon="5.4669548">
<ele>1208.88</ele>
<time>2019-07-25T08:01:05Z</time>
<name><![CDATA[0000036]]></name>
<sym>Waypoint</sym>
<type>Point de départ</type>
<extensions>
<om:oruxmapsextensions xmlns:om="http://www.oruxmaps.com/oruxmapsextensions/1/0">
<om:ext type="ICON" subtype="0">38</om:ext>
</om:oruxmapsextensions>
</extensions>
</wpt>
<wpt lat="44.8805819" lon="5.3756536">
<ele>1082.27</ele>
<time>2019-07-25T14:16:51Z</time>
<name><![CDATA[0000037]]></name>
<desc><![CDATA[<p><br /><h3>Nom: Segment: 1</h3><br />Heure de départ: 10:01 25 juil. 2019<br/>Heure d'arrivée: 16:16 25 juil. 2019<br/>Distance: 33,5km (06:15)<br/>Temps déplacement: 02:36<br/>Vitesse moyenne: 5,35 km/h<br/>Vitesse moyenne mouv.: 12,83 km/h<br/>Vitesse Max.: 36,64 km/h<br/>Altitude minimale: 703 m<br/>Altitude maximale: 1208 m<br/>Vitesse de montée: 154,1 m/h<br/>Vitesse de descente: -418,8 m/h<br/>Gain d'altitude: 655 m<br/>Perte d'altitude: -781 m<br/>Temps de montée: 04:15<br/>Temps de descente: 01:52<br/></p>]]></desc>
<sym>Waypoint</sym>
<type>Point d'arrivée</type>
<extensions>
<om:oruxmapsextensions xmlns:om="http://www.oruxmaps.com/oruxmapsextensions/1/0">
<om:ext type="ICON" subtype="0">15</om:ext>
</om:oruxmapsextensions>
</extensions>
</wpt>
<trk>
<name><![CDATA[2019-07-25 10:01]]></name>
<desc><![CDATA[<p>Heure de départ: 10:01 25 juil. 2019<br/>Heure d'arrivée: 16:16 25 juil. 2019<br/>Distance: 33,5 km (06:15)<br/>Temps déplacement: 02:36<br/>Vitesse moyenne: 5,35 km/h<br/>Vitesse moyenne mouv.: 12,83 km/h<br/>Vitesse Max.: 36,64 km/h<br/>Altitude minimale: 703 m<br/>Altitude maximale: 1208 m<br/>Vitesse de montée: 147,9 m/h<br/>Vitesse de descente: -432,8 m/h<br/>Gain d'altitude: 647 m<br/>Perte d'altitude: -773 m<br/>Temps de montée: 04:22<br/>Temps de descente: 01:47<br/></p><hr align="center" width="480" style="height: 2px; width: 517px"/>]]></desc>
<type>Indéfini</type>
<extensions>
<om:oruxmapsextensions xmlns:om="http://www.oruxmaps.com/oruxmapsextensions/1/0">
<om:ext type="TYPE" subtype="0">0</om:ext>
<om:ext type="DIFFICULTY">0</om:ext>
</om:oruxmapsextensions>
</extensions>
<trkseg>
<trkpt lat="45.0148620" lon="5.4669548">
<ele>1208.88</ele>
<time>2019-07-25T08:01:04Z</time>
</trkpt>
<trkpt lat="45.0148619" lon="5.4669546">
<ele>1208.82</ele>
<time>2019-07-25T08:01:05Z</time>
</trkpt>
<trkpt lat="45.0148614" lon="5.4669547">
<ele>1208.76</ele>
<time>2019-07-25T08:01:06Z</time>
</trkpt>
<trkpt lat="45.0148613" lon="5.4669550">
<ele>1208.70</ele>
<time>2019-07-25T08:01:07Z</time>
</trkpt>
<trkpt lat="45.0148603" lon="5.4669558">
<ele>1208.64</ele>
<time>2019-07-25T08:01:08Z</time>
</trkpt>
<trkpt lat="45.0148597" lon="5.4669555">
<ele>1208.58</ele>
<time>2019-07-25T08:01:09Z</time>
</trkpt>
<trkpt lat="45.0148595" lon="5.4669561">
<ele>1208.52</ele>
<time>2019-07-25T08:01:10Z</time>
</trkpt>
<trkpt lat="45.0148592" lon="5.4669568">
<ele>1208.46</ele>
<time>2019-07-25T08:01:11Z</time>
</trkpt>
<trkpt lat="45.0148593" lon="5.4669577">
<ele>1208.39</ele>
<time>2019-07-25T08:01:12Z</time>
</trkpt>
<trkpt lat="45.0148596" lon="5.4669583">
<ele>1208.33</ele>
<time>2019-07-25T08:01:13Z</time>
</trkpt>
<trkpt lat="45.0148596" lon="5.4669590">
<ele>1208.26</ele>
<time>2019-07-25T08:01:14Z</time>
</trkpt>
<trkpt lat="45.0148599" lon="5.4669599">
<ele>1208.20</ele>
<time>2019-07-25T08:01:15Z</time>
</trkpt>
<trkpt lat="45.0148597" lon="5.4669600">
<ele>1208.13</ele>
<time>2019-07-25T08:01:16Z</time>
</trkpt>
<trkpt lat="45.0148597" lon="5.4669618">
<ele>1208.07</ele>
<time>2019-07-25T08:01:17Z</time>
</trkpt>
<trkpt lat="45.0148592" lon="5.4669632">
<ele>1208.01</ele>
<time>2019-07-25T08:01:18Z</time>
</trkpt>
<trkpt lat="45.0148594" lon="5.4669640">
<ele>1207.94</ele>
<time>2019-07-25T08:01:19Z</time>
</trkpt>
<trkpt lat="45.0148601" lon="5.4669656">
<ele>1207.88</ele>
<time>2019-07-25T08:01:20Z</time>
</trkpt>
<trkpt lat="45.0148605" lon="5.4669663">
<ele>1207.82</ele>
<time>2019-07-25T08:01:21Z</time>
</trkpt>
<trkpt lat="45.0148609" lon="5.4669683">
<ele>1207.75</ele>
<time>2019-07-25T08:01:22Z</time>
</trkpt>
<trkpt lat="45.0148608" lon="5.4669693">
<ele>1207.69</ele>
<time>2019-07-25T08:01:23Z</time>
</trkpt>
<trkpt lat="45.0148608" lon="5.4669698">
<ele>1207.62</ele>
<time>2019-07-25T08:01:24Z</time>
</trkpt>
<trkpt lat="45.0148607" lon="5.4669699">
<ele>1207.56</ele>
<time>2019-07-25T08:01:25Z</time>
</trkpt>
<trkpt lat="45.0148608" lon="5.4669696">
<ele>1207.50</ele>
<time>2019-07-25T08:01:26Z</time>
</trkpt>
<trkpt lat="45.0148611" lon="5.4669691">
<ele>1207.43</ele>
<time>2019-07-25T08:01:27Z</time>
</trkpt>
<trkpt lat="45.0148617" lon="5.4669693">
<ele>1207.37</ele>
<time>2019-07-25T08:01:28Z</time>
</trkpt>
<trkpt lat="45.0148618" lon="5.4669689">
<ele>1207.31</ele>
<time>2019-07-25T08:01:29Z</time>
</trkpt>
<trkpt lat="45.0148606" lon="5.4669708">
<ele>1207.24</ele>
<time>2019-07-25T08:01:30Z</time>
</trkpt>
<trkpt lat="45.0148705" lon="5.4669791">
<ele>1206.62</ele>
<time>2019-07-25T08:01:31Z</time>
</trkpt>
<trkpt lat="45.0148940" lon="5.4669673">
<ele>1206.00</ele>
<time>2019-07-25T08:01:32Z</time>
</trkpt>
<trkpt lat="45.0149179" lon="5.4669544">
<ele>1205.40</ele>
<time>2019-07-25T08:01:33Z</time>
</trkpt>
<trkpt lat="45.0149531" lon="5.4669408">
<ele>1204.81</ele>
<time>2019-07-25T08:01:34Z</time>
</trkpt>
<trkpt lat="45.0149764" lon="5.4669123">
<ele>1204.22</ele>
<time>2019-07-25T08:01:35Z</time>
</trkpt>
<trkpt lat="45.0150133" lon="5.4669051">
<ele>1203.65</ele>
<time>2019-07-25T08:01:36Z</time>
</trkpt>
<trkpt lat="45.0150481" lon="5.4668767">
<ele>1203.09</ele>
<time>2019-07-25T08:01:37Z</time>
</trkpt>
<trkpt lat="45.0150730" lon="5.4668526">
<ele>1202.54</ele>
<time>2019-07-25T08:01:38Z</time>
</trkpt>
<trkpt lat="45.0151140" lon="5.4668035">
<ele>1196.99</ele>
<time>2019-07-25T08:01:39Z</time>
</trkpt>
<trkpt lat="45.0151653" lon="5.4667719">
<ele>1192.43</ele>
<time>2019-07-25T08:01:40Z</time>
</trkpt>
<trkpt lat="45.0152159" lon="5.4667238">
<ele>1188.62</ele>
<time>2019-07-25T08:01:41Z</time>
</trkpt>
<trkpt lat="45.0152689" lon="5.4667398">
<ele>1188.31</ele>
<time>2019-07-25T08:01:42Z</time>
</trkpt>
<trkpt lat="45.0153143" lon="5.4667380">
<ele>1188.01</ele>
<time>2019-07-25T08:01:43Z</time>
</trkpt>
<trkpt lat="45.0153580" lon="5.4667297">
<ele>1187.70</ele>
<time>2019-07-25T08:01:44Z</time>
</trkpt>
<trkpt lat="45.0154095" lon="5.4667071">
<ele>1184.60</ele>
<time>2019-07-25T08:01:45Z</time>
</trkpt>
<trkpt lat="45.0154228" lon="5.4665933">
<ele>1181.95</ele>
<time>2019-07-25T08:01:46Z</time>
</trkpt>
<trkpt lat="45.0154889" lon="5.4665075">
<ele>1179.71</ele>
<time>2019-07-25T08:01:47Z</time>
</trkpt>
<trkpt lat="45.0154999" lon="5.4664294">
<ele>1177.80</ele>
<time>2019-07-25T08:01:48Z</time>
</trkpt>
<trkpt lat="45.0155413" lon="5.4663076">
<ele>1176.19</ele>
<time>2019-07-25T08:01:49Z</time>
</trkpt>
<trkpt lat="45.0155864" lon="5.4661760">
<ele>1174.89</ele>
<time>2019-07-25T08:01:50Z</time>
</trkpt>
<trkpt lat="45.0156070" lon="5.4660776">
<ele>1173.86</ele>
<time>2019-07-25T08:01:51Z</time>
</trkpt>
<trkpt lat="45.0155920" lon="5.4659713">
<ele>1173.04</ele>
<time>2019-07-25T08:01:52Z</time>
</trkpt>
<trkpt lat="45.0156282" lon="5.4659015">
<ele>1172.41</ele>
<time>2019-07-25T08:01:53Z</time>
</trkpt>
<trkpt lat="45.0156511" lon="5.4658591">
<ele>1171.92</ele>
<time>2019-07-25T08:01:54Z</time>
</trkpt>
<trkpt lat="45.0156540" lon="5.4657264">
<ele>1171.53</ele>
<time>2019-07-25T08:01:55Z</time>
</trkpt>
<trkpt lat="45.0156318" lon="5.4656255">
<ele>1171.48</ele>
<time>2019-07-25T08:01:56Z</time>
</trkpt>
<trkpt lat="45.0156278" lon="5.4655570">
<ele>1171.44</ele>
<time>2019-07-25T08:01:57Z</time>
</trkpt>
<trkpt lat="45.0156263" lon="5.4654785">
<ele>1171.39</ele>
<time>2019-07-25T08:01:58Z</time>
</trkpt>
<trkpt lat="45.0156216" lon="5.4654138">
<ele>1171.33</ele>
<time>2019-07-25T08:01:59Z</time>
</trkpt>
<trkpt lat="45.0155917" lon="5.4653791">
<ele>1171.26</ele>
<time>2019-07-25T08:02:00Z</time>
</trkpt>
<trkpt lat="45.0155794" lon="5.4653768">
<ele>1171.20</ele>
<time>2019-07-25T08:02:01Z</time>
</trkpt>
<trkpt lat="45.0155591" lon="5.4653872">
<ele>1170.53</ele>
<time>2019-07-25T08:02:02Z</time>
</trkpt>
<trkpt lat="45.0155212" lon="5.4654091">
<ele>1169.91</ele>
<time>2019-07-25T08:02:03Z</time>
</trkpt>
<trkpt lat="45.0154916" lon="5.4654284">
<ele>1169.37</ele>
<time>2019-07-25T08:02:04Z</time>
</trkpt>
<trkpt lat="45.0154440" lon="5.4654584">
<ele>1168.87</ele>
<time>2019-07-25T08:02:05Z</time>
</trkpt>
<trkpt lat="45.0153856" lon="5.4655109">
<ele>1168.48</ele>
<time>2019-07-25T08:02:06Z</time>
</trkpt>
<trkpt lat="45.0153373" lon="5.4655598">
<ele>1168.15</ele>
<time>2019-07-25T08:02:07Z</time>
</trkpt>
<trkpt lat="45.0152809" lon="5.4656322">
<ele>1167.75</ele>
<time>2019-07-25T08:02:08Z</time>
</trkpt>
<trkpt lat="45.0152312" lon="5.4656740">
<ele>1167.38</ele>
<time>2019-07-25T08:02:09Z</time>
</trkpt>
<trkpt lat="45.0151815" lon="5.4656999">
<ele>1167.02</ele>
<time>2019-07-25T08:02:10Z</time>
</trkpt>
<trkpt lat="45.0151487" lon="5.4657540">
<ele>1166.99</ele>
<time>2019-07-25T08:02:11Z</time>
</trkpt>
<trkpt lat="45.0151044" lon="5.4658111">
<ele>1166.43</ele>
<time>2019-07-25T08:02:12Z</time>
</trkpt>
<trkpt lat="45.0150646" lon="5.4658470">
<ele>1165.80</ele>
<time>2019-07-25T08:02:13Z</time>
</trkpt>
<trkpt lat="45.0150101" lon="5.4658884">
<ele>1165.20</ele>
<time>2019-07-25T08:02:14Z</time>
</trkpt>
<trkpt lat="45.0149479" lon="5.4659372">
<ele>1164.53</ele>
<time>2019-07-25T08:02:15Z</time>
</trkpt>
<trkpt lat="45.0148899" lon="5.4659780">
<ele>1163.74</ele>
<time>2019-07-25T08:02:16Z</time>
</trkpt>
<trkpt lat="45.0148411" lon="5.4660220">
<ele>1162.90</ele>
<time>2019-07-25T08:02:17Z</time>
</trkpt>
<trkpt lat="45.0148035" lon="5.4660364">
<ele>1162.81</ele>
<time>2019-07-25T08:02:18Z</time>
</trkpt>
<trkpt lat="45.0147649" lon="5.4660611">
<ele>1162.71</ele>
<time>2019-07-25T08:02:19Z</time>
</trkpt>
<trkpt lat="45.0147515" lon="5.4660936">
<ele>1162.60</ele>
<time>2019-07-25T08:02:20Z</time>
</trkpt>
<trkpt lat="45.0147316" lon="5.4661463">
<ele>1162.48</ele>
<time>2019-07-25T08:02:21Z</time>
</trkpt>
<trkpt lat="45.0147228" lon="5.4661673">
<ele>1162.35</ele>
<time>2019-07-25T08:02:22Z</time>
</trkpt>
<trkpt lat="45.0147131" lon="5.4661588">
<ele>1162.19</ele>
<time>2019-07-25T08:02:23Z</time>
</trkpt>
<trkpt lat="45.0147068" lon="5.4661275">
<ele>1162.02</ele>
<time>2019-07-25T08:02:24Z</time>
</trkpt>
<trkpt lat="45.0147034" lon="5.4660886">
<ele>1160.26</ele>
<time>2019-07-25T08:02:25Z</time>
</trkpt>
<trkpt lat="45.0147103" lon="5.4660230">
<ele>1158.74</ele>
<time>2019-07-25T08:02:26Z</time>
</trkpt>
<trkpt lat="45.0147190" lon="5.4659780">
<ele>1158.60</ele>
<time>2019-07-25T08:02:27Z</time>
</trkpt>
<trkpt lat="45.0147355" lon="5.4659255">
<ele>1158.46</ele>
<time>2019-07-25T08:02:28Z</time>
</trkpt>
<trkpt lat="45.0147328" lon="5.4658610">
<ele>1158.31</ele>
<time>2019-07-25T08:02:29Z</time>
</trkpt>
<trkpt lat="45.0146982" lon="5.4657827">
<ele>1158.14</ele>
<time>2019-07-25T08:02:30Z</time>
</trkpt>
<trkpt lat="45.0146767" lon="5.4656952">
<ele>1157.96</ele>
<time>2019-07-25T08:02:31Z</time>
</trkpt>
<trkpt lat="45.0146688" lon="5.4656237">
<ele>1157.77</ele>
<time>2019-07-25T08:02:32Z</time>
</trkpt>
<trkpt lat="45.0146495" lon="5.4655824">
<ele>1157.57</ele>
<time>2019-07-25T08:02:33Z</time>
</trkpt>
<trkpt lat="45.0146286" lon="5.4655604">
<ele>1157.38</ele>
<time>2019-07-25T08:02:34Z</time>
</trkpt>
<trkpt lat="45.0145999" lon="5.4654970">
<ele>1157.19</ele>
<time>2019-07-25T08:02:35Z</time>
</trkpt>
<trkpt lat="45.0146114" lon="5.4654869">
<ele>1157.00</ele>
<time>2019-07-25T08:02:36Z</time>
</trkpt>
<trkpt lat="45.0146096" lon="5.4654556">
<ele>1156.83</ele>
<time>2019-07-25T08:02:37Z</time>
</trkpt>
<trkpt lat="45.0146078" lon="5.4654166">
<ele>1156.65</ele>
<time>2019-07-25T08:02:38Z</time>
</trkpt>
<trkpt lat="45.0146039" lon="5.4653772">
<ele>1156.48</ele>
<time>2019-07-25T08:02:39Z</time>
</trkpt>
<trkpt lat="45.0145953" lon="5.4653454">
<ele>1156.30</ele>
<time>2019-07-25T08:02:40Z</time>
</trkpt>
<trkpt lat="45.0145864" lon="5.4653267">
<ele>1156.13</ele>
<time>2019-07-25T08:02:41Z</time>
</trkpt>
<trkpt lat="45.0145821" lon="5.4653216">
<ele>1155.96</ele>
<time>2019-07-25T08:02:42Z</time>
</trkpt>
<trkpt lat="45.0145823" lon="5.4653188">
<ele>1155.80</ele>
<time>2019-07-25T08:02:43Z</time>
</trkpt>
<trkpt lat="45.0145825" lon="5.4653147">
<ele>1155.64</ele>
<time>2019-07-25T08:02:44Z</time>
</trkpt>
<trkpt lat="45.0145795" lon="5.4653090">
<ele>1155.63</ele>
<time>2019-07-25T08:02:45Z</time>
</trkpt>
<trkpt lat="45.0145631" lon="5.4653042">
<ele>1155.61</ele>
<time>2019-07-25T08:02:46Z</time>
</trkpt>
<trkpt lat="45.0145643" lon="5.4653221">
<ele>1155.60</ele>
<time>2019-07-25T08:02:47Z</time>
</trkpt>
<trkpt lat="45.0145547" lon="5.4653478">
<ele>1155.58</ele>
<time>2019-07-25T08:02:48Z</time>
</trkpt>
<trkpt lat="45.0145427" lon="5.4653742">
<ele>1155.41</ele>
<time>2019-07-25T08:02:49Z</time>
</trkpt>
<trkpt lat="45.0145294" lon="5.4653930">
<ele>1155.39</ele>
<time>2019-07-25T08:02:50Z</time>
</trkpt>
<trkpt lat="45.0145300" lon="5.4653937">
<ele>1155.38</ele>
<time>2019-07-25T08:02:51Z</time>
</trkpt>
<trkpt lat="45.0145304" lon="5.4653956">
<ele>1155.36</ele>
<time>2019-07-25T08:02:52Z</time>
</trkpt>
<trkpt lat="45.0145318" lon="5.4653976">
<ele>1155.34</ele>
<time>2019-07-25T08:02:53Z</time>
</trkpt>
<trkpt lat="45.0145318" lon="5.4653996">
<ele>1155.32</ele>
<time>2019-07-25T08:02:54Z</time>
</trkpt>
<trkpt lat="45.0145318" lon="5.4654028">
<ele>1155.30</ele>
<time>2019-07-25T08:02:55Z</time>
</trkpt>
<trkpt lat="45.0145317" lon="5.4654047">
<ele>1155.28</ele>
<time>2019-07-25T08:02:56Z</time>
</trkpt>
<trkpt lat="45.0145321" lon="5.4654061">
<ele>1155.25</ele>
<time>2019-07-25T08:02:57Z</time>
</trkpt>
<trkpt lat="45.0145327" lon="5.4654082">
<ele>1155.23</ele>
<time>2019-07-25T08:02:58Z</time>
</trkpt>
<trkpt lat="45.0145338" lon="5.4654152">
<ele>1155.01</ele>
<time>2019-07-25T08:02:59Z</time>
</trkpt>
<trkpt lat="45.0145335" lon="5.4654253">
<ele>1154.78</ele>
<time>2019-07-25T08:03:00Z</time>
</trkpt>
<trkpt lat="45.0145345" lon="5.4654327">
<ele>1154.54</ele>
<time>2019-07-25T08:03:01Z</time>
</trkpt>
<trkpt lat="45.0145339" lon="5.4654309">
<ele>1154.52</ele>
<time>2019-07-25T08:03:02Z</time>
</trkpt>
<trkpt lat="45.0145338" lon="5.4654315">
<ele>1154.50</ele>
<time>2019-07-25T08:03:03Z</time>
</trkpt>
<trkpt lat="45.0145338" lon="5.4654320">
<ele>1154.47</ele>
<time>2019-07-25T08:03:04Z</time>
</trkpt>
<trkpt lat="45.0145338" lon="5.4654326">
<ele>1154.45</ele>
<time>2019-07-25T08:03:05Z</time>
</trkpt>
<trkpt lat="45.0145341" lon="5.4654325">
<ele>1154.42</ele>
<time>2019-07-25T08:03:06Z</time>
</trkpt>
<trkpt lat="45.0145341" lon="5.4654325">
<ele>1154.40</ele>
<time>2019-07-25T08:03:07Z</time>
</trkpt>
<trkpt lat="45.0145341" lon="5.4654329">
<ele>1154.37</ele>
<time>2019-07-25T08:03:08Z</time>
</trkpt>
<trkpt lat="45.0145342" lon="5.4654336">
<ele>1154.35</ele>
<time>2019-07-25T08:03:09Z</time>
</trkpt>
<trkpt lat="45.0145345" lon="5.4654334">
<ele>1154.33</ele>
<time>2019-07-25T08:03:10Z</time>
</trkpt>
<trkpt lat="45.0145345" lon="5.4654330">
<ele>1154.31</ele>
<time>2019-07-25T08:03:11Z</time>
</trkpt>
<trkpt lat="45.0145348" lon="5.4654329">
<ele>1154.29</ele>
<time>2019-07-25T08:03:12Z</time>
</trkpt>
<trkpt lat="45.0145350" lon="5.4654326">
<ele>1154.27</ele>
<time>2019-07-25T08:03:13Z</time>
</trkpt>
<trkpt lat="45.0145351" lon="5.4654322">
<ele>1154.25</ele>
<time>2019-07-25T08:03:14Z</time>
</trkpt>
<trkpt lat="45.0145352" lon="5.4654323">
<ele>1154.24</ele>
<time>2019-07-25T08:03:15Z</time>
</trkpt>
<trkpt lat="45.0145353" lon="5.4654324">
<ele>1154.22</ele>
<time>2019-07-25T08:03:16Z</time>
</trkpt>
<trkpt lat="45.0145354" lon="5.4654326">
<ele>1154.21</ele>
<time>2019-07-25T08:03:17Z</time>
</trkpt>
<trkpt lat="45.0145358" lon="5.4654326">
<ele>1154.20</ele>
<time>2019-07-25T08:03:18Z</time>
</trkpt>
<trkpt lat="45.0145358" lon="5.4654317">
<ele>1154.19</ele>
<time>2019-07-25T08:03:19Z</time>
</trkpt>
<trkpt lat="45.0145363" lon="5.4654285">
<ele>1154.18</ele>
<time>2019-07-25T08:03:20Z</time>
</trkpt>
<trkpt lat="45.0145479" lon="5.4654017">
<ele>1154.17</ele>
<time>2019-07-25T08:03:21Z</time>
</trkpt>
<trkpt lat="45.0145656" lon="5.4653600">
<ele>1154.10</ele>
<time>2019-07-25T08:03:22Z</time>
</trkpt>
<trkpt lat="45.0145973" lon="5.4653524">
<ele>1154.01</ele>
<time>2019-07-25T08:03:23Z</time>
</trkpt>
<trkpt lat="45.0145994" lon="5.4653513">
<ele>1154.01</ele>
<time>2019-07-25T08:03:24Z</time>
</trkpt>
<trkpt lat="45.0145998" lon="5.4653517">
<ele>1154.00</ele>
<time>2019-07-25T08:03:25Z</time>
</trkpt>
<trkpt lat="45.0146009" lon="5.4653516">
<ele>1153.99</ele>
<time>2019-07-25T08:03:26Z</time>
</trkpt>
<trkpt lat="45.0146014" lon="5.4653512">
<ele>1153.98</ele>
<time>2019-07-25T08:03:27Z</time>
</trkpt>
<trkpt lat="45.0146271" lon="5.4653418">
<ele>1153.87</ele>
<time>2019-07-25T08:03:28Z</time>
</trkpt>
<trkpt lat="45.0146417" lon="5.4653433">
<ele>1153.77</ele>
<time>2019-07-25T08:03:29Z</time>
</trkpt>
<trkpt lat="45.0146575" lon="5.4653634">
<ele>1153.75</ele>
<time>2019-07-25T08:03:30Z</time>
</trkpt>
<trkpt lat="45.0146700" lon="5.4653864">
<ele>1153.61</ele>
<time>2019-07-25T08:03:31Z</time>
</trkpt>
<trkpt lat="45.0146701" lon="5.4653869">
<ele>1153.59</ele>
<time>2019-07-25T08:03:32Z</time>
</trkpt>
<trkpt lat="45.0146706" lon="5.4653877">
<ele>1153.57</ele>
<time>2019-07-25T08:03:33Z</time>
</trkpt>
<trkpt lat="45.0146711" lon="5.4653888">
<ele>1153.55</ele>
<time>2019-07-25T08:03:34Z</time>
</trkpt>
<trkpt lat="45.0146719" lon="5.4653900">
<ele>1153.53</ele>
<time>2019-07-25T08:03:35Z</time>
</trkpt>
<trkpt lat="45.0146722" lon="5.4653899">
<ele>1153.51</ele>
<time>2019-07-25T08:03:36Z</time>
</trkpt>
<trkpt lat="45.0146722" lon="5.4653898">
<ele>1153.49</ele>
<time>2019-07-25T08:03:37Z</time>
</trkpt>
<trkpt lat="45.0146722" lon="5.4653892">
<ele>1153.47</ele>
<time>2019-07-25T08:03:38Z</time>
</trkpt>
<trkpt lat="45.0146726" lon="5.4653886">
<ele>1153.45</ele>
<time>2019-07-25T08:03:39Z</time>
</trkpt>
<trkpt lat="45.0146729" lon="5.4653884">
<ele>1153.43</ele>
<time>2019-07-25T08:03:40Z</time>
</trkpt>
<trkpt lat="45.0146730" lon="5.4653881">
<ele>1153.41</ele>
<time>2019-07-25T08:03:41Z</time>
</trkpt>
<trkpt lat="45.0146730" lon="5.4653881">
<ele>1153.39</ele>
<time>2019-07-25T08:03:42Z</time>
</trkpt>
<trkpt lat="45.0146732" lon="5.4653879">
<ele>1153.37</ele>
<time>2019-07-25T08:03:43Z</time>
</trkpt>
<trkpt lat="45.0146737" lon="5.4653896">
<ele>1153.35</ele>
<time>2019-07-25T08:03:44Z</time>
</trkpt>
<trkpt lat="45.0146718" lon="5.4653837">
<ele>1153.33</ele>
<time>2019-07-25T08:03:45Z</time>
</trkpt>
<trkpt lat="45.0146551" lon="5.4653450">
<ele>1153.31</ele>
<time>2019-07-25T08:03:46Z</time>
</trkpt>
<trkpt lat="45.0146370" lon="5.4652985">
<ele>1153.03</ele>
<time>2019-07-25T08:03:47Z</time>
</trkpt>
<trkpt lat="45.0146348" lon="5.4652929">
<ele>1152.99</ele>
<time>2019-07-25T08:03:48Z</time>
</trkpt>
<trkpt lat="45.0146328" lon="5.4652851">
<ele>1152.96</ele>
<time>2019-07-25T08:03:49Z</time>
</trkpt>
<trkpt lat="45.0146315" lon="5.4652784">
<ele>1152.93</ele>
<time>2019-07-25T08:03:50Z</time>
</trkpt>
<trkpt lat="45.0146226" lon="5.4652204">
<ele>1152.89</ele>
<time>2019-07-25T08:03:51Z</time>
</trkpt>
<trkpt lat="45.0146123" lon="5.4651508">
<ele>1152.85</ele>
<time>2019-07-25T08:03:52Z</time>
</trkpt>
<trkpt lat="45.0146250" lon="5.4651565">
<ele>1152.81</ele>
<time>2019-07-25T08:03:53Z</time>
</trkpt>
<trkpt lat="45.0146252" lon="5.4651566">
<ele>1152.77</ele>
<time>2019-07-25T08:03:54Z</time>
</trkpt>
<trkpt lat="45.0146255" lon="5.4651570">
<ele>1152.73</ele>
<time>2019-07-25T08:03:55Z</time>
</trkpt>
<trkpt lat="45.0146258" lon="5.4651575">
<ele>1152.70</ele>
<time>2019-07-25T08:03:56Z</time>
</trkpt>
<trkpt lat="45.0146258" lon="5.4651575">
<ele>1152.66</ele>
<time>2019-07-25T08:03:57Z</time>
</trkpt>
<trkpt lat="45.0146293" lon="5.4651676">
<ele>1152.27</ele>
<time>2019-07-25T08:03:58Z</time>
</trkpt>
<trkpt lat="45.0146286" lon="5.4651770">
<ele>1151.88</ele>
<time>2019-07-25T08:03:59Z</time>
</trkpt>
<trkpt lat="45.0146309" lon="5.4651918">
<ele>1151.84</ele>
<time>2019-07-25T08:04:00Z</time>
</trkpt>
<trkpt lat="45.0146314" lon="5.4651925">
<ele>1151.80</ele>
<time>2019-07-25T08:04:01Z</time>
</trkpt>
<trkpt lat="45.0146318" lon="5.4651941">
<ele>1151.76</ele>
<time>2019-07-25T08:04:02Z</time>
</trkpt>
<trkpt lat="45.0146309" lon="5.4651975">
<ele>1151.72</ele>
<time>2019-07-25T08:04:03Z</time>
</trkpt>
<trkpt lat="45.0146305" lon="5.4651993">
<ele>1151.68</ele>
<time>2019-07-25T08:04:04Z</time>
</trkpt>
<trkpt lat="45.0146296" lon="5.4652008">
<ele>1151.64</ele>
<time>2019-07-25T08:04:05Z</time>
</trkpt>
<trkpt lat="45.0146283" lon="5.4652024">
<ele>1151.59</ele>
<time>2019-07-25T08:04:06Z</time>
</trkpt>
<trkpt lat="45.0146267" lon="5.4652035">
<ele>1151.55</ele>
<time>2019-07-25T08:04:07Z</time>
</trkpt>
<trkpt lat="45.0146252" lon="5.4652045">
<ele>1151.51</ele>
<time>2019-07-25T08:04:08Z</time>
</trkpt>
<trkpt lat="45.0146237" lon="5.4652056">
<ele>1151.47</ele>
<time>2019-07-25T08:04:09Z</time>
</trkpt>
<trkpt lat="45.0146225" lon="5.4652066">
<ele>1151.42</ele>
<time>2019-07-25T08:04:10Z</time>
</trkpt>
<trkpt lat="45.0146201" lon="5.4652089">
<ele>1151.38</ele>
<time>2019-07-25T08:04:11Z</time>
</trkpt>
<trkpt lat="45.0146191" lon="5.4652097">
<ele>1151.34</ele>
<time>2019-07-25T08:04:12Z</time>
</trkpt>
<trkpt lat="45.0146172" lon="5.4652119">
<ele>1151.29</ele>
<time>2019-07-25T08:04:13Z</time>
</trkpt>
<trkpt lat="45.0146149" lon="5.4652138">
<ele>1151.25</ele>
<time>2019-07-25T08:04:14Z</time>
</trkpt>
<trkpt lat="45.0146125" lon="5.4652158">
<ele>1151.21</ele>
<time>2019-07-25T08:04:15Z</time>
</trkpt>
<trkpt lat="45.0146105" lon="5.4652173">
<ele>1151.17</ele>
<time>2019-07-25T08:04:16Z</time>
</trkpt>
<trkpt lat="45.0146088" lon="5.4652178">
<ele>1151.13</ele>
<time>2019-07-25T08:04:17Z</time>
</trkpt>
<trkpt lat="45.0146059" lon="5.4652186">
<ele>1151.09</ele>
<time>2019-07-25T08:04:18Z</time>
</trkpt>
<trkpt lat="45.0146053" lon="5.4652188">
<ele>1151.05</ele>
<time>2019-07-25T08:04:19Z</time>
</trkpt>
<trkpt lat="45.0146047" lon="5.4652189">
<ele>1151.01</ele>
<time>2019-07-25T08:04:20Z</time>
</trkpt>
<trkpt lat="45.0146044" lon="5.4652191">
<ele>1150.97</ele>
<time>2019-07-25T08:04:21Z</time>
</trkpt>
<trkpt lat="45.0146036" lon="5.4652191">
<ele>1150.93</ele>
<time>2019-07-25T08:04:22Z</time>
</trkpt>
<trkpt lat="45.0146028" lon="5.4652192">
<ele>1150.89</ele>
<time>2019-07-25T08:04:23Z</time>
</trkpt>
<trkpt lat="45.0146019" lon="5.4652194">
<ele>1150.86</ele>
<time>2019-07-25T08:04:24Z</time>
</trkpt>
<trkpt lat="45.0146006" lon="5.4652194">
<ele>1150.82</ele>
<time>2019-07-25T08:04:25Z</time>
</trkpt>
<trkpt lat="45.0145999" lon="5.4652198">
<ele>1150.78</ele>
<time>2019-07-25T08:04:26Z</time>
</trkpt>
<trkpt lat="45.0145992" lon="5.4652201">
<ele>1150.75</ele>
<time>2019-07-25T08:04:27Z</time>
</trkpt>
<trkpt lat="45.0145983" lon="5.4652206">
<ele>1150.71</ele>
<time>2019-07-25T08:04:28Z</time>
</trkpt>
<trkpt lat="45.0145975" lon="5.4652212">
<ele>1150.67</ele>
<time>2019-07-25T08:04:29Z</time>
</trkpt>
<trkpt lat="45.0145967" lon="5.4652218">
<ele>1150.63</ele>
<time>2019-07-25T08:04:30Z</time>
</trkpt>
<trkpt lat="45.0145960" lon="5.4652224">
<ele>1150.60</ele>
<time>2019-07-25T08:04:31Z</time>
</trkpt>
<trkpt lat="45.0145954" lon="5.4652230">
<ele>1150.56</ele>
<time>2019-07-25T08:04:32Z</time>
</trkpt>
<trkpt lat="45.0145947" lon="5.4652237">
<ele>1150.52</ele>
<time>2019-07-25T08:04:33Z</time>
</trkpt>
<trkpt lat="45.0145940" lon="5.4652244">
<ele>1150.49</ele>
<time>2019-07-25T08:04:34Z</time>
</trkpt>
<trkpt lat="45.0145935" lon="5.4652250">
<ele>1150.45</ele>
<time>2019-07-25T08:04:35Z</time>
</trkpt>
<trkpt lat="45.0145930" lon="5.4652256">
<ele>1150.41</ele>
<time>2019-07-25T08:04:36Z</time>
</trkpt>
<trkpt lat="45.0145925" lon="5.4652257">
<ele>1150.38</ele>
<time>2019-07-25T08:04:37Z</time>
</trkpt>
<trkpt lat="45.0145918" lon="5.4652257">
<ele>1150.34</ele>
<time>2019-07-25T08:04:38Z</time>
</trkpt>
<trkpt lat="45.0145914" lon="5.4652259">
<ele>1150.31</ele>
<time>2019-07-25T08:04:39Z</time>
</trkpt>
<trkpt lat="45.0145907" lon="5.4652260">
<ele>1150.27</ele>
<time>2019-07-25T08:04:40Z</time>
</trkpt>
<trkpt lat="45.0145899" lon="5.4652262">
<ele>1150.24</ele>
<time>2019-07-25T08:04:41Z</time>
</trkpt>
<trkpt lat="45.0145891" lon="5.4652262">
<ele>1150.21</ele>
<time>2019-07-25T08:04:42Z</time>
</trkpt>
<trkpt lat="45.0145890" lon="5.4652276">
<ele>1150.18</ele>
<time>2019-07-25T08:04:43Z</time>
</trkpt>
<trkpt lat="45.0145883" lon="5.4652278">
<ele>1150.15</ele>
<time>2019-07-25T08:04:44Z</time>
</trkpt>
<trkpt lat="45.0145878" lon="5.4652277">
<ele>1150.12</ele>
<time>2019-07-25T08:04:45Z</time>
</trkpt>
<trkpt lat="45.0145872" lon="5.4652276">
<ele>1150.09</ele>
<time>2019-07-25T08:04:46Z</time>
</trkpt>
<trkpt lat="45.0145866" lon="5.4652275">
<ele>1150.06</ele>
<time>2019-07-25T08:04:47Z</time>
</trkpt>
<trkpt lat="45.0145870" lon="5.4652253">
<ele>1150.03</ele>
<time>2019-07-25T08:04:48Z</time>
</trkpt>
<trkpt lat="45.0145872" lon="5.4652247">
<ele>1150.00</ele>
<time>2019-07-25T08:04:49Z</time>
</trkpt>
<trkpt lat="45.0146168" lon="5.4651960">
<ele>1149.70</ele>
<time>2019-07-25T08:04:50Z</time>
</trkpt>
<trkpt lat="45.0146614" lon="5.4652835">
<ele>1149.39</ele>
<time>2019-07-25T08:04:51Z</time>
</trkpt>
<trkpt lat="45.0146902" lon="5.4653214">
<ele>1149.07</ele>
<time>2019-07-25T08:04:52Z</time>
</trkpt>
<trkpt lat="45.0146915" lon="5.4653209">
<ele>1149.04</ele>
<time>2019-07-25T08:04:53Z</time>
</trkpt>
<trkpt lat="45.0146910" lon="5.4653219">
<ele>1149.00</ele>
<time>2019-07-25T08:04:54Z</time>
</trkpt>
<trkpt lat="45.0146904" lon="5.4653228">
<ele>1148.97</ele>
<time>2019-07-25T08:04:55Z</time>
</trkpt>
<trkpt lat="45.0146898" lon="5.4653239">
<ele>1148.93</ele>
<time>2019-07-25T08:04:56Z</time>
</trkpt>
<trkpt lat="45.0146889" lon="5.4653259">
<ele>1148.90</ele>
<time>2019-07-25T08:04:57Z</time>
</trkpt>
<trkpt lat="45.0146872" lon="5.4653310">
<ele>1148.86</ele>
<time>2019-07-25T08:04:58Z</time>
</trkpt>
<trkpt lat="45.0146865" lon="5.4653324">
<ele>1148.83</ele>
<time>2019-07-25T08:04:59Z</time>
</trkpt>
<trkpt lat="45.0146857" lon="5.4653339">
<ele>1148.79</ele>
<time>2019-07-25T08:05:00Z</time>
</trkpt>
<trkpt lat="45.0146845" lon="5.4653364">
<ele>1148.75</ele>
<time>2019-07-25T08:05:01Z</time>
</trkpt>
<trkpt lat="45.0146585" lon="5.4652796">
<ele>1148.38</ele>
<time>2019-07-25T08:05:02Z</time>
</trkpt>
<trkpt lat="45.0146384" lon="5.4652425">
<ele>1148.00</ele>
<time>2019-07-25T08:05:03Z</time>
</trkpt>
<trkpt lat="45.0146293" lon="5.4652369">
<ele>1147.61</ele>
<time>2019-07-25T08:05:04Z</time>
</trkpt>
<trkpt lat="45.0146207" lon="5.4652152">
<ele>1147.22</ele>
<time>2019-07-25T08:05:05Z</time>
</trkpt>
<trkpt lat="45.0146138" lon="5.4652160">
<ele>1146.83</ele>
<time>2019-07-25T08:05:06Z</time>
</trkpt>
<trkpt lat="45.0145904" lon="5.4651995">
<ele>1146.44</ele>
<time>2019-07-25T08:05:07Z</time>
</trkpt>
<trkpt lat="45.0145694" lon="5.4651722">
<ele>1146.04</ele>
<time>2019-07-25T08:05:08Z</time>
</trkpt>
<trkpt lat="45.0145466" lon="5.4651409">
<ele>1145.65</ele>
<time>2019-07-25T08:05:09Z</time>
</trkpt>
<trkpt lat="45.0145214" lon="5.4651300">
<ele>1145.25</ele>
<time>2019-07-25T08:05:10Z</time>
</trkpt>
<trkpt lat="45.0144908" lon="5.4651130">
<ele>1144.84</ele>
<time>2019-07-25T08:05:11Z</time>
</trkpt>
<trkpt lat="45.0144775" lon="5.4650956">
<ele>1144.43</ele>
<time>2019-07-25T08:05:12Z</time>
</trkpt>
<trkpt lat="45.0144809" lon="5.4650822">
<ele>1144.01</ele>
<time>2019-07-25T08:05:13Z</time>
</trkpt>
<trkpt lat="45.0144624" lon="5.4650545">
<ele>1143.59</ele>
<time>2019-07-25T08:05:14Z</time>
</trkpt>
<trkpt lat="45.0144406" lon="5.4650377">
<ele>1143.17</ele>
<time>2019-07-25T08:05:15Z</time>
</trkpt>
<trkpt lat="45.0144375" lon="5.4650685">
<ele>1142.74</ele>
<time>2019-07-25T08:05:16Z</time>
</trkpt>
<trkpt lat="45.0144278" lon="5.4650416">
<ele>1142.33</ele>
<time>2019-07-25T08:05:17Z</time>
</trkpt>
<trkpt lat="45.0144066" lon="5.4650239">
<ele>1141.91</ele>
<time>2019-07-25T08:05:18Z</time>
</trkpt>
<trkpt lat="45.0143950" lon="5.4650253">
<ele>1141.51</ele>
<time>2019-07-25T08:05:19Z</time>
</trkpt>
<trkpt lat="45.0143795" lon="5.4650332">
<ele>1141.10</ele>
<time>2019-07-25T08:05:20Z</time>
</trkpt>
<trkpt lat="45.0143384" lon="5.4650559">
<ele>1140.70</ele>
<time>2019-07-25T08:05:21Z</time>
</trkpt>
<trkpt lat="45.0143425" lon="5.4650616">
<ele>1140.29</ele>
<time>2019-07-25T08:05:22Z</time>
</trkpt>
<trkpt lat="45.0143146" lon="5.4650644">
<ele>1139.88</ele>
<time>2019-07-25T08:05:23Z</time>
</trkpt>
<trkpt lat="45.0142749" lon="5.4650818">
<ele>1139.48</ele>
<time>2019-07-25T08:05:24Z</time>
</trkpt>
<trkpt lat="45.0142380" lon="5.4651164">
<ele>1139.08</ele>
<time>2019-07-25T08:05:25Z</time>
</trkpt>
<trkpt lat="45.0142180" lon="5.4651488">
<ele>1138.67</ele>
<time>2019-07-25T08:05:26Z</time>
</trkpt>
<trkpt lat="45.0142068" lon="5.4652074">
<ele>1138.28</ele>
<time>2019-07-25T08:05:27Z</time>
</trkpt>
<trkpt lat="45.0141801" lon="5.4652387">
<ele>1137.89</ele>
<time>2019-07-25T08:05:28Z</time>
</trkpt>
<trkpt lat="45.0141510" lon="5.4652649">
<ele>1137.50</ele>
<time>2019-07-25T08:05:29Z</time>
</trkpt>
<trkpt lat="45.0141061" lon="5.4653055">
<ele>1137.12</ele>
<time>2019-07-25T08:05:30Z</time>
</trkpt>
<trkpt lat="45.0141081" lon="5.4653320">
<ele>1136.73</ele>
<time>2019-07-25T08:05:31Z</time>
</trkpt>
<trkpt lat="45.0140646" lon="5.4653183">
<ele>1136.35</ele>
<time>2019-07-25T08:05:32Z</time>
</trkpt>
<trkpt lat="45.0140473" lon="5.4653648">
<ele>1135.97</ele>
<time>2019-07-25T08:05:33Z</time>
</trkpt>
<trkpt lat="45.0140516" lon="5.4653589">
<ele>1135.57</ele>
<time>2019-07-25T08:05:34Z</time>
</trkpt>
<trkpt lat="45.0140428" lon="5.4653533">
<ele>1135.16</ele>
<time>2019-07-25T08:05:35Z</time>
</trkpt>
<trkpt lat="45.0140410" lon="5.4653969">
<ele>1134.75</ele>
<time>2019-07-25T08:05:36Z</time>
</trkpt>
<trkpt lat="45.0140296" lon="5.4653838">
<ele>1134.35</ele>
<time>2019-07-25T08:05:37Z</time>
</trkpt>
<trkpt lat="45.0140063" lon="5.4653917">
<ele>1133.95</ele>
<time>2019-07-25T08:05:38Z</time>
</trkpt>
<trkpt lat="45.0139830" lon="5.4653855">
<ele>1133.56</ele>
<time>2019-07-25T08:05:39Z</time>
</trkpt>
<trkpt lat="45.0139774" lon="5.4654102">
<ele>1133.16</ele>
<time>2019-07-25T08:05:40Z</time>
</trkpt>
<trkpt lat="45.0139783" lon="5.4653988">
<ele>1132.76</ele>
<time>2019-07-25T08:05:41Z</time>
</trkpt>
<trkpt lat="45.0139718" lon="5.4654049">
<ele>1132.36</ele>
<time>2019-07-25T08:05:42Z</time>
</trkpt>
<trkpt lat="45.0139669" lon="5.4654245">
<ele>1131.96</ele>
<time>2019-07-25T08:05:43Z</time>
</trkpt>
<trkpt lat="45.0139460" lon="5.4654567">
<ele>1131.58</ele>
<time>2019-07-25T08:05:44Z</time>
</trkpt>
<trkpt lat="45.0139308" lon="5.4654833">
<ele>1131.20</ele>
<time>2019-07-25T08:05:45Z</time>
</trkpt>
<trkpt lat="45.0139300" lon="5.4654949">
<ele>1130.81</ele>
<time>2019-07-25T08:05:46Z</time>
</trkpt>
<trkpt lat="45.0139296" lon="5.4655117">
<ele>1130.42</ele>
<time>2019-07-25T08:05:47Z</time>
</trkpt>
<trkpt lat="45.0139242" lon="5.4655242">
<ele>1130.04</ele>
<time>2019-07-25T08:05:48Z</time>
</trkpt>
<trkpt lat="45.0139132" lon="5.4655559">
<ele>1129.65</ele>
<time>2019-07-25T08:05:49Z</time>
</trkpt>
<trkpt lat="45.0138994" lon="5.4655633">
<ele>1129.61</ele>
<time>2019-07-25T08:05:50Z</time>
</trkpt>
<trkpt lat="45.0139171" lon="5.4655993">
<ele>1129.57</ele>
<time>2019-07-25T08:05:51Z</time>
</trkpt>
<trkpt lat="45.0138870" lon="5.4656268">
<ele>1129.53</ele>
<time>2019-07-25T08:05:52Z</time>
</trkpt>
<trkpt lat="45.0138793" lon="5.4656271">
<ele>1129.49</ele>
<time>2019-07-25T08:05:53Z</time>
</trkpt>
<trkpt lat="45.0138813" lon="5.4656254">
<ele>1129.45</ele>
<time>2019-07-25T08:05:54Z</time>
</trkpt>
<trkpt lat="45.0138824" lon="5.4656255">
<ele>1129.41</ele>
<time>2019-07-25T08:05:55Z</time>
</trkpt>
<trkpt lat="45.0138824" lon="5.4656256">
<ele>1129.36</ele>
<time>2019-07-25T08:05:56Z</time>
</trkpt>
<trkpt lat="45.0138825" lon="5.4656257">
<ele>1129.32</ele>
<time>2019-07-25T08:05:57Z</time>
</trkpt>
<trkpt lat="45.0138833" lon="5.4656259">
<ele>1129.28</ele>
<time>2019-07-25T08:05:58Z</time>
</trkpt>
<trkpt lat="45.0138840" lon="5.4656255">
<ele>1129.24</ele>
<time>2019-07-25T08:05:59Z</time>
</trkpt>
<trkpt lat="45.0138840" lon="5.4656254">
<ele>1129.19</ele>
<time>2019-07-25T08:06:00Z</time>
</trkpt>
<trkpt lat="45.0138753" lon="5.4656192">
<ele>1129.15</ele>
<time>2019-07-25T08:06:01Z</time>
</trkpt>
<trkpt lat="45.0138692" lon="5.4656176">
<ele>1129.10</ele>
<time>2019-07-25T08:06:02Z</time>
</trkpt>
<trkpt lat="45.0138622" lon="5.4656249">
<ele>1129.06</ele>
<time>2019-07-25T08:06:03Z</time>
</trkpt>
<trkpt lat="45.0138620" lon="5.4656253">
<ele>1129.02</ele>
<time>2019-07-25T08:06:04Z</time>
</trkpt>
<trkpt lat="45.0138612" lon="5.4656257">
<ele>1128.97</ele>
<time>2019-07-25T08:06:05Z</time>
</trkpt>
<trkpt lat="45.0138611" lon="5.4656259">
<ele>1128.93</ele>
<time>2019-07-25T08:06:06Z</time>
</trkpt>
<trkpt lat="45.0138595" lon="5.4656252">
<ele>1128.89</ele>
<time>2019-07-25T08:06:07Z</time>
</trkpt>
<trkpt lat="45.0138585" lon="5.4656244">
<ele>1128.84</ele>
<time>2019-07-25T08:06:08Z</time>
</trkpt>
<trkpt lat="45.0138579" lon="5.4656243">
<ele>1128.79</ele>
<time>2019-07-25T08:06:09Z</time>
</trkpt>
<trkpt lat="45.0138577" lon="5.4656246">
<ele>1128.74</ele>
<time>2019-07-25T08:06:10Z</time>
</trkpt>
<trkpt lat="45.0138577" lon="5.4656252">
<ele>1128.69</ele>
<time>2019-07-25T08:06:11Z</time>
</trkpt>
<trkpt lat="45.0138562" lon="5.4656239">
<ele>1128.64</ele>
<time>2019-07-25T08:06:12Z</time>
</trkpt>
<trkpt lat="45.0138553" lon="5.4656238">
<ele>1128.59</ele>
<time>2019-07-25T08:06:13Z</time>
</trkpt>
<trkpt lat="45.0138550" lon="5.4656237">
<ele>1128.54</ele>
<time>2019-07-25T08:06:14Z</time>
</trkpt>
<trkpt lat="45.0138542" lon="5.4656240">
<ele>1128.49</ele>
<time>2019-07-25T08:06:15Z</time>
</trkpt>
<trkpt lat="45.0138526" lon="5.4656248">
<ele>1128.44</ele>
<time>2019-07-25T08:06:16Z</time>
</trkpt>
<trkpt lat="45.0138518" lon="5.4656250">
<ele>1128.38</ele>
<time>2019-07-25T08:06:17Z</time>
</trkpt>
<trkpt lat="45.0138301" lon="5.4656293">
<ele>1127.85</ele>
<time>2019-07-25T08:06:18Z</time>
</trkpt>
<trkpt lat="45.0138022" lon="5.4656286">
<ele>1127.31</ele>
<time>2019-07-25T08:06:19Z</time>
</trkpt>
<trkpt lat="45.0138036" lon="5.4656268">
<ele>1127.26</ele>
<time>2019-07-25T08:06:20Z</time>
</trkpt>
<trkpt lat="45.0138031" lon="5.4656261">
<ele>1127.20</ele>
<time>2019-07-25T08:06:21Z</time>
</trkpt>
<trkpt lat="45.0138024" lon="5.4656256">
<ele>1127.15</ele>
<time>2019-07-25T08:06:22Z</time>
</trkpt>
<trkpt lat="45.0138015" lon="5.4656250">
<ele>1127.09</ele>
<time>2019-07-25T08:06:23Z</time>
</trkpt>
<trkpt lat="45.0138009" lon="5.4656244">
<ele>1127.04</ele>
<time>2019-07-25T08:06:24Z</time>
</trkpt>
<trkpt lat="45.0138004" lon="5.4656239">
<ele>1126.99</ele>
<time>2019-07-25T08:06:25Z</time>
</trkpt>
<trkpt lat="45.0137996" lon="5.4656233">
<ele>1126.93</ele>
<time>2019-07-25T08:06:26Z</time>
</trkpt>
<trkpt lat="45.0137989" lon="5.4656225">
<ele>1126.88</ele>
<time>2019-07-25T08:06:27Z</time>
</trkpt>
<trkpt lat="45.0137982" lon="5.4656218">
<ele>1126.83</ele>
<time>2019-07-25T08:06:28Z</time>
</trkpt>
<trkpt lat="45.0137974" lon="5.4656211">
<ele>1126.79</ele>
<time>2019-07-25T08:06:29Z</time>
</trkpt>
<trkpt lat="45.0137970" lon="5.4656208">
<ele>1126.74</ele>
<time>2019-07-25T08:06:30Z</time>
</trkpt>
<trkpt lat="45.0137967" lon="5.4656199">
<ele>1126.69</ele>
<time>2019-07-25T08:06:31Z</time>
</trkpt>
<trkpt lat="45.0137965" lon="5.4656186">
<ele>1126.64</ele>
<time>2019-07-25T08:06:32Z</time>
</trkpt>
<trkpt lat="45.0137962" lon="5.4656181">
<ele>1126.58</ele>
<time>2019-07-25T08:06:33Z</time>
</trkpt>
<trkpt lat="45.0137957" lon="5.4656173">
<ele>1126.53</ele>
<time>2019-07-25T08:06:34Z</time>
</trkpt>
<trkpt lat="45.0137951" lon="5.4656164">
<ele>1126.48</ele>
<time>2019-07-25T08:06:35Z</time>
</trkpt>
<trkpt lat="45.0137950" lon="5.4656162">
<ele>1126.42</ele>
<time>2019-07-25T08:06:36Z</time>
</trkpt>
<trkpt lat="45.0137946" lon="5.4656170">
<ele>1126.37</ele>
<time>2019-07-25T08:06:37Z</time>
</trkpt>
<trkpt lat="45.0137947" lon="5.4656173">
<ele>1126.31</ele>
<time>2019-07-25T08:06:38Z</time>
</trkpt>
<trkpt lat="45.0137949" lon="5.4656174">
<ele>1126.25</ele>
<time>2019-07-25T08:06:39Z</time>
</trkpt>
<trkpt lat="45.0137953" lon="5.4656169">
<ele>1126.18</ele>
<time>2019-07-25T08:06:40Z</time>
</trkpt>
<trkpt lat="45.0137954" lon="5.4656165">
<ele>1126.12</ele>
<time>2019-07-25T08:06:41Z</time>
</trkpt>
<trkpt lat="45.0137957" lon="5.4656162">
<ele>1126.05</ele>
<time>2019-07-25T08:06:42Z</time>
</trkpt>
<trkpt lat="45.0137958" lon="5.4656158">
<ele>1125.98</ele>
<time>2019-07-25T08:06:43Z</time>
</trkpt>
<trkpt lat="45.0137959" lon="5.4656154">
<ele>1125.92</ele>
<time>2019-07-25T08:06:44Z</time>
</trkpt>
<trkpt lat="45.0137961" lon="5.4656145">
<ele>1125.85</ele>
<time>2019-07-25T08:06:45Z</time>
</trkpt>
<trkpt lat="45.0137962" lon="5.4656143">
<ele>1125.78</ele>
<time>2019-07-25T08:06:46Z</time>
</trkpt>
<trkpt lat="45.0137962" lon="5.4656142">
<ele>1125.71</ele>
<time>2019-07-25T08:06:47Z</time>
</trkpt>
<trkpt lat="45.0137960" lon="5.4656147">
<ele>1125.64</ele>
<time>2019-07-25T08:06:48Z</time>
</trkpt>
<trkpt lat="45.0137960" lon="5.4656148">
<ele>1125.57</ele>
<time>2019-07-25T08:06:49Z</time>
</trkpt>
<trkpt lat="45.0137962" lon="5.4656141">
<ele>1125.50</ele>
<time>2019-07-25T08:06:50Z</time>
</trkpt>
<trkpt lat="45.0137961" lon="5.4656140">
<ele>1125.43</ele>
<time>2019-07-25T08:06:51Z</time>
</trkpt>
<trkpt lat="45.0137962" lon="5.4656137">
<ele>1125.37</ele>
<time>2019-07-25T08:06:52Z</time>
</trkpt>
<trkpt lat="45.0137962" lon="5.4656133">
<ele>1125.30</ele>
<time>2019-07-25T08:06:53Z</time>
</trkpt>
<trkpt lat="45.0137962" lon="5.4656130">
<ele>1125.24</ele>
<time>2019-07-25T08:06:54Z</time>
</trkpt>
<trkpt lat="45.0137962" lon="5.4656127">
<ele>1125.18</ele>
<time>2019-07-25T08:06:55Z</time>
</trkpt>
<trkpt lat="45.0137961" lon="5.4656121">
<ele>1125.12</ele>
<time>2019-07-25T08:06:56Z</time>
</trkpt>
<trkpt lat="45.0137960" lon="5.4656115">
<ele>1125.06</ele>
<time>2019-07-25T08:06:57Z</time>
</trkpt>
<trkpt lat="45.0137959" lon="5.4656108">
<ele>1125.01</ele>
<time>2019-07-25T08:06:58Z</time>
</trkpt>
<trkpt lat="45.0137955" lon="5.4656099">
<ele>1124.96</ele>
<time>2019-07-25T08:06:59Z</time>
</trkpt>
<trkpt lat="45.0137897" lon="5.4655858">
<ele>1124.90</ele>
<time>2019-07-25T08:07:00Z</time>
</trkpt>
<trkpt lat="45.0137789" lon="5.4655655">
<ele>1124.85</ele>
<time>2019-07-25T08:07:01Z</time>
</trkpt>
<trkpt lat="45.0137707" lon="5.4655492">
<ele>1124.80</ele>
<time>2019-07-25T08:07:02Z</time>
</trkpt>
<trkpt lat="45.0137699" lon="5.4655471">
<ele>1124.75</ele>
<time>2019-07-25T08:07:03Z</time>
</trkpt>
<trkpt lat="45.0137532" lon="5.4655229">
<ele>1124.70</ele>
<time>2019-07-25T08:07:04Z</time>
</trkpt>
<trkpt lat="45.0137578" lon="5.4654697">
<ele>1124.21</ele>
<time>2019-07-25T08:07:05Z</time>
</trkpt>
<trkpt lat="45.0137553" lon="5.4654310">
<ele>1123.73</ele>
<time>2019-07-25T08:07:06Z</time>
</trkpt>
<trkpt lat="45.0137487" lon="5.4653968">
<ele>1123.25</ele>
<time>2019-07-25T08:07:07Z</time>
</trkpt>
<trkpt lat="45.0137469" lon="5.4653752">
<ele>1122.79</ele>
<time>2019-07-25T08:07:08Z</time>
</trkpt>
<trkpt lat="45.0137270" lon="5.4654086">
<ele>1122.33</ele>
<time>2019-07-25T08:07:09Z</time>
</trkpt>
<trkpt lat="45.0137151" lon="5.4654331">
<ele>1121.88</ele>
<time>2019-07-25T08:07:10Z</time>
</trkpt>
<trkpt lat="45.0136989" lon="5.4654610">
<ele>1121.42</ele>
<time>2019-07-25T08:07:11Z</time>
</trkpt>
<trkpt lat="45.0136799" lon="5.4654432">
<ele>1120.97</ele>
<time>2019-07-25T08:07:12Z</time>
</trkpt>
<trkpt lat="45.0136250" lon="5.4655146">
<ele>1116.72</ele>
<time>2019-07-25T08:07:13Z</time>
</trkpt>
<trkpt lat="45.0135602" lon="5.4655613">
<ele>1113.43</ele>
<time>2019-07-25T08:07:14Z</time>
</trkpt>
<trkpt lat="45.0134951" lon="5.4656066">
<ele>1110.91</ele>
<time>2019-07-25T08:07:15Z</time>
</trkpt>
<trkpt lat="45.0134322" lon="5.4656657">
<ele>1108.88</ele>
<time>2019-07-25T08:07:16Z</time>
</trkpt>
<trkpt lat="45.0133266" lon="5.4657079">
<ele>1107.18</ele>
<time>2019-07-25T08:07:17Z</time>
</trkpt>
<trkpt lat="45.0132308" lon="5.4657389">
<ele>1105.77</ele>
<time>2019-07-25T08:07:18Z</time>
</trkpt>
<trkpt lat="45.0131470" lon="5.4657620">
<ele>1104.54</ele>
<time>2019-07-25T08:07:19Z</time>
</trkpt>
<trkpt lat="45.0130803" lon="5.4657757">
<ele>1103.41</ele>
<time>2019-07-25T08:07:20Z</time>
</trkpt>
<trkpt lat="45.0130276" lon="5.4657690">
<ele>1102.27</ele>
<time>2019-07-25T08:07:21Z</time>
</trkpt>
<trkpt lat="45.0129613" lon="5.4657770">
<ele>1101.09</ele>
<time>2019-07-25T08:07:22Z</time>
</trkpt>
<trkpt lat="45.0128788" lon="5.4658120">
<ele>1099.88</ele>
<time>2019-07-25T08:07:23Z</time>
</trkpt>
<trkpt lat="45.0127976" lon="5.4658443">
<ele>1098.82</ele>
<time>2019-07-25T08:07:24Z</time>
</trkpt>
<trkpt lat="45.0127249" lon="5.4658531">
<ele>1097.84</ele>
<time>2019-07-25T08:07:25Z</time>
</trkpt>
<trkpt lat="45.0126599" lon="5.4658636">
<ele>1096.94</ele>
<time>2019-07-25T08:07:26Z</time>
</trkpt>
<trkpt lat="45.0125869" lon="5.4658844">
<ele>1096.13</ele>
<time>2019-07-25T08:07:27Z</time>
</trkpt>
<trkpt lat="45.0125074" lon="5.4659138">
<ele>1095.31</ele>
<time>2019-07-25T08:07:28Z</time>
</trkpt>
<trkpt lat="45.0124313" lon="5.4659312">
<ele>1094.50</ele>
<time>2019-07-25T08:07:29Z</time>
</trkpt>
<trkpt lat="45.0123672" lon="5.4659449">
<ele>1093.77</ele>
<time>2019-07-25T08:07:30Z</time>
</trkpt>
<trkpt lat="45.0123101" lon="5.4659497">
<ele>1093.14</ele>
<time>2019-07-25T08:07:31Z</time>
</trkpt>
<trkpt lat="45.0122535" lon="5.4659402">
<ele>1092.54</ele>
<time>2019-07-25T08:07:32Z</time>
</trkpt>
<trkpt lat="45.0122015" lon="5.4659373">
<ele>1092.01</ele>
<time>2019-07-25T08:07:33Z</time>
</trkpt>
<trkpt lat="45.0121428" lon="5.4659500">
<ele>1091.50</ele>
<time>2019-07-25T08:07:34Z</time>
</trkpt>
<trkpt lat="45.0120797" lon="5.4659690">
<ele>1091.01</ele>
<time>2019-07-25T08:07:35Z</time>
</trkpt>
<trkpt lat="45.0120164" lon="5.4659821">
<ele>1090.52</ele>
<time>2019-07-25T08:07:36Z</time>
</trkpt>
<trkpt lat="45.0119560" lon="5.4659862">
<ele>1089.97</ele>
<time>2019-07-25T08:07:37Z</time>
</trkpt>
<trkpt lat="45.0118926" lon="5.4659847">
<ele>1089.37</ele>
<time>2019-07-25T08:07:38Z</time>
</trkpt>
<trkpt lat="45.0118356" lon="5.4660062">
<ele>1088.79</ele>
<time>2019-07-25T08:07:39Z</time>
</trkpt>
<trkpt lat="45.0117843" lon="5.4660393">
<ele>1088.13</ele>
<time>2019-07-25T08:07:40Z</time>
</trkpt>
<trkpt lat="45.0117235" lon="5.4660507">
<ele>1087.54</ele>
<time>2019-07-25T08:07:41Z</time>
</trkpt>
<trkpt lat="45.0116493" lon="5.4660637">
<ele>1086.93</ele>
<time>2019-07-25T08:07:42Z</time>
</trkpt>
<trkpt lat="45.0115769" lon="5.4660763">
<ele>1086.22</ele>
<time>2019-07-25T08:07:43Z</time>
</trkpt>
<trkpt lat="45.0115171" lon="5.4660924">
<ele>1085.41</ele>
<time>2019-07-25T08:07:44Z</time>
</trkpt>
<trkpt lat="45.0114689" lon="5.4660989">
<ele>1084.54</ele>
<time>2019-07-25T08:07:45Z</time>
</trkpt>
<trkpt lat="45.0114193" lon="5.4661044">
<ele>1083.65</ele>
<time>2019-07-25T08:07:46Z</time>
</trkpt>
<trkpt lat="45.0113631" lon="5.4661137">
<ele>1082.82</ele>
<time>2019-07-25T08:07:47Z</time>
</trkpt>
<trkpt lat="45.0113160" lon="5.4661202">
<ele>1082.75</ele>
<time>2019-07-25T08:07:48Z</time>
</trkpt>
<trkpt lat="45.0112859" lon="5.4661287">
<ele>1082.67</ele>
<time>2019-07-25T08:07:49Z</time>
</trkpt>
<trkpt lat="45.0112537" lon="5.4661343">
<ele>1082.58</ele>
<time>2019-07-25T08:07:50Z</time>
</trkpt>
<trkpt lat="45.0112080" lon="5.4661366">
<ele>1081.59</ele>
<time>2019-07-25T08:07:51Z</time>
</trkpt>
<trkpt lat="45.0111509" lon="5.4661389">
<ele>1080.62</ele>
<time>2019-07-25T08:07:52Z</time>
</trkpt>
<trkpt lat="45.0110858" lon="5.4661378">
<ele>1079.63</ele>
<time>2019-07-25T08:07:53Z</time>
</trkpt>
<trkpt lat="45.0110249" lon="5.4661330">
<ele>1078.65</ele>
<time>2019-07-25T08:07:54Z</time>
</trkpt>
<trkpt lat="45.0109703" lon="5.4661275">
<ele>1077.63</ele>
<time>2019-07-25T08:07:55Z</time>
</trkpt>
<trkpt lat="45.0109186" lon="5.4661250">
<ele>1076.52</ele>
<time>2019-07-25T08:07:56Z</time>
</trkpt>
<trkpt lat="45.0108715" lon="5.4661239">
<ele>1075.26</ele>
<time>2019-07-25T08:07:57Z</time>
</trkpt>
<trkpt lat="45.0108265" lon="5.4661193">
<ele>1073.90</ele>
<time>2019-07-25T08:07:58Z</time>
</trkpt>
<trkpt lat="45.0107861" lon="5.4661134">
<ele>1073.76</ele>
<time>2019-07-25T08:07:59Z</time>
</trkpt>
<trkpt lat="45.0107536" lon="5.4661122">
<ele>1073.62</ele>
<time>2019-07-25T08:08:00Z</time>
</trkpt>
<trkpt lat="45.0107177" lon="5.4661111">
<ele>1073.46</ele>
<time>2019-07-25T08:08:01Z</time>
</trkpt>
<trkpt lat="45.0106858" lon="5.4661110">
<ele>1073.29</ele>
<time>2019-07-25T08:08:02Z</time>
</trkpt>
<trkpt lat="45.0106597" lon="5.4661115">
<ele>1073.09</ele>
<time>2019-07-25T08:08:03Z</time>
</trkpt>
<trkpt lat="45.0106250" lon="5.4661105">
<ele>1072.88</ele>
<time>2019-07-25T08:08:04Z</time>
</trkpt>
<trkpt lat="45.0105867" lon="5.4661152">
<ele>1072.66</ele>
<time>2019-07-25T08:08:05Z</time>
</trkpt>
<trkpt lat="45.0105419" lon="5.4661112">
<ele>1070.31</ele>
<time>2019-07-25T08:08:06Z</time>
</trkpt>
<trkpt lat="45.0104859" lon="5.4661086">
<ele>1068.23</ele>
<time>2019-07-25T08:08:07Z</time>
</trkpt>
<trkpt lat="45.0104288" lon="5.4661080">
<ele>1066.34</ele>
<time>2019-07-25T08:08:08Z</time>
</trkpt>
<trkpt lat="45.0103743" lon="5.4661064">
<ele>1064.62</ele>
<time>2019-07-25T08:08:09Z</time>
</trkpt>
<trkpt lat="45.0103179" lon="5.4661088">
<ele>1063.00</ele>
<time>2019-07-25T08:08:10Z</time>
</trkpt>
<trkpt lat="45.0102546" lon="5.4661112">
<ele>1061.47</ele>
<time>2019-07-25T08:08:11Z</time>
</trkpt>
<trkpt lat="45.0102004" lon="5.4661085">
<ele>1060.05</ele>
<time>2019-07-25T08:08:12Z</time>
</trkpt>
<trkpt lat="45.0101706" lon="5.4661065">
<ele>1059.93</ele>
<time>2019-07-25T08:08:13Z</time>
</trkpt>
<trkpt lat="45.0101558" lon="5.4661063">
<ele>1059.82</ele>
<time>2019-07-25T08:08:14Z</time>
</trkpt>
<trkpt lat="45.0101549" lon="5.4661103">
<ele>1059.70</ele>
<time>2019-07-25T08:08:15Z</time>
</trkpt>
<trkpt lat="45.0101589" lon="5.4661148">
<ele>1059.59</ele>
<time>2019-07-25T08:08:16Z</time>
</trkpt>
<trkpt lat="45.0101699" lon="5.4661343">
<ele>1059.48</ele>
<time>2019-07-25T08:08:17Z</time>
</trkpt>
<trkpt lat="45.0101583" lon="5.4661502">
<ele>1059.37</ele>
<time>2019-07-25T08:08:18Z</time>
</trkpt>
<trkpt lat="45.0101575" lon="5.4661512">
<ele>1059.36</ele>
<time>2019-07-25T08:08:19Z</time>
</trkpt>
<trkpt lat="45.0101511" lon="5.4661605">
<ele>1059.24</ele>
<time>2019-07-25T08:08:20Z</time>
</trkpt>
<trkpt lat="45.0101346" lon="5.4661649">
<ele>1059.13</ele>
<time>2019-07-25T08:08:21Z</time>
</trkpt>
<trkpt lat="45.0101163" lon="5.4661627">
<ele>1059.02</ele>
<time>2019-07-25T08:08:22Z</time>
</trkpt>
<trkpt lat="45.0100767" lon="5.4661645">
<ele>1058.91</ele>
<time>2019-07-25T08:08:23Z</time>
</trkpt>
<trkpt lat="45.0100309" lon="5.4661631">
<ele>1057.83</ele>
<time>2019-07-25T08:08:24Z</time>
</trkpt>
<trkpt lat="45.0099941" lon="5.4661440">
<ele>1056.95</ele>
<time>2019-07-25T08:08:25Z</time>
</trkpt>
<trkpt lat="45.0099453" lon="5.4661355">
<ele>1056.22</ele>
<time>2019-07-25T08:08:26Z</time>
</trkpt>
<trkpt lat="45.0098793" lon="5.4661321">
<ele>1055.62</ele>
<time>2019-07-25T08:08:27Z</time>
</trkpt>
<trkpt lat="45.0098123" lon="5.4661432">
<ele>1055.13</ele>
<time>2019-07-25T08:08:28Z</time>
</trkpt>
<trkpt lat="45.0097482" lon="5.4661325">
<ele>1054.71</ele>
<time>2019-07-25T08:08:29Z</time>
</trkpt>
<trkpt lat="45.0096773" lon="5.4661201">
<ele>1054.33</ele>
<time>2019-07-25T08:08:30Z</time>
</trkpt>
<trkpt lat="45.0095920" lon="5.4661170">
<ele>1053.94</ele>
<time>2019-07-25T08:08:31Z</time>
</trkpt>
<trkpt lat="45.0094997" lon="5.4660790">
<ele>1053.47</ele>
<time>2019-07-25T08:08:32Z</time>
</trkpt>
<trkpt lat="45.0094483" lon="5.4660562">
<ele>1052.95</ele>
<time>2019-07-25T08:08:33Z</time>
</trkpt>
<trkpt lat="45.0093932" lon="5.4660430">
<ele>1052.38</ele>
<time>2019-07-25T08:08:34Z</time>
</trkpt>
<trkpt lat="45.0093237" lon="5.4660206">
<ele>1051.68</ele>
<time>2019-07-25T08:08:35Z</time>
</trkpt>
<trkpt lat="45.0092572" lon="5.4660032">
<ele>1050.89</ele>
<time>2019-07-25T08:08:36Z</time>
</trkpt>
<trkpt lat="45.0091834" lon="5.4660002">
<ele>1049.97</ele>
<time>2019-07-25T08:08:37Z</time>
</trkpt>
<trkpt lat="45.0091119" lon="5.4659892">
<ele>1049.04</ele>
<time>2019-07-25T08:08:38Z</time>
</trkpt>
<trkpt lat="45.0090346" lon="5.4659613">
<ele>1048.07</ele>
<time>2019-07-25T08:08:39Z</time>
</trkpt>
<trkpt lat="45.0089643" lon="5.4659362">
<ele>1047.06</ele>
<time>2019-07-25T08:08:40Z</time>
</trkpt>
<trkpt lat="45.0088988" lon="5.4659308">
<ele>1046.10</ele>
<time>2019-07-25T08:08:41Z</time>
</trkpt>
<trkpt lat="45.0088384" lon="5.4659180">
<ele>1045.15</ele>
<time>2019-07-25T08:08:42Z</time>
</trkpt>
<trkpt lat="45.0087726" lon="5.4659026">
<ele>1044.19</ele>
<time>2019-07-25T08:08:43Z</time>
</trkpt>
<trkpt lat="45.0087114" lon="5.4658699">
<ele>1043.28</ele>
<time>2019-07-25T08:08:44Z</time>
</trkpt>
<trkpt lat="45.0086515" lon="5.4658170">
<ele>1042.41</ele>
<time>2019-07-25T08:08:45Z</time>
</trkpt>
<trkpt lat="45.0085868" lon="5.4657642">
<ele>1041.56</ele>
<time>2019-07-25T08:08:46Z</time>
</trkpt>
<trkpt lat="45.0085222" lon="5.4657222">
<ele>1040.74</ele>
<time>2019-07-25T08:08:47Z</time>
</trkpt>
<trkpt lat="45.0084669" lon="5.4657010">
<ele>1040.12</ele>
<time>2019-07-25T08:08:48Z</time>
</trkpt>
<trkpt lat="45.0084152" lon="5.4656870">
<ele>1039.62</ele>
<time>2019-07-25T08:08:49Z</time>
</trkpt>
<trkpt lat="45.0083664" lon="5.4656711">
<ele>1039.27</ele>
<time>2019-07-25T08:08:50Z</time>
</trkpt>
<trkpt lat="45.0083176" lon="5.4656563">
<ele>1038.99</ele>
<time>2019-07-25T08:08:51Z</time>
</trkpt>
<trkpt lat="45.0082589" lon="5.4656480">
<ele>1038.81</ele>
<time>2019-07-25T08:08:52Z</time>
</trkpt>
<trkpt lat="45.0081981" lon="5.4656467">
<ele>1038.64</ele>
<time>2019-07-25T08:08:53Z</time>
</trkpt>
<trkpt lat="45.0081404" lon="5.4656266">
<ele>1038.46</ele>
<time>2019-07-25T08:08:54Z</time>
</trkpt>
<trkpt lat="45.0080927" lon="5.4656085">
<ele>1038.44</ele>
<time>2019-07-25T08:08:55Z</time>
</trkpt>
<trkpt lat="45.0080626" lon="5.4655739">
<ele>1038.41</ele>
<time>2019-07-25T08:08:56Z</time>
</trkpt>
<trkpt lat="45.0080630" lon="5.4655352">
<ele>1038.37</ele>
<time>2019-07-25T08:08:57Z</time>
</trkpt>
<trkpt lat="45.0080640" lon="5.4655049">
<ele>1038.31</ele>
<time>2019-07-25T08:08:58Z</time>
</trkpt>
<trkpt lat="45.0080904" lon="5.4655045">
<ele>1038.24</ele>
<time>2019-07-25T08:08:59Z</time>
</trkpt>
<trkpt lat="45.0081160" lon="5.4655237">
<ele>1038.17</ele>
<time>2019-07-25T08:09:00Z</time>
</trkpt>
<trkpt lat="45.0081415" lon="5.4655383">
<ele>1038.09</ele>
<time>2019-07-25T08:09:01Z</time>
</trkpt>
<trkpt lat="45.0081699" lon="5.4655451">
<ele>1037.41</ele>
<time>2019-07-25T08:09:02Z</time>
</trkpt>
<trkpt lat="45.0082046" lon="5.4655323">
<ele>1036.73</ele>
<time>2019-07-25T08:09:03Z</time>
</trkpt>
<trkpt lat="45.0082475" lon="5.4655250">
<ele>1036.02</ele>
<time>2019-07-25T08:09:04Z</time>
</trkpt>
<trkpt lat="45.0082921" lon="5.4655083">
<ele>1035.27</ele>
<time>2019-07-25T08:09:05Z</time>
</trkpt>
<trkpt lat="45.0083419" lon="5.4654985">
<ele>1034.39</ele>
<time>2019-07-25T08:09:06Z</time>
</trkpt>
<trkpt lat="45.0083975" lon="5.4654901">
<ele>1033.50</ele>
<time>2019-07-25T08:09:07Z</time>
</trkpt>
<trkpt lat="45.0084531" lon="5.4654966">
<ele>1032.61</ele>
<time>2019-07-25T08:09:08Z</time>
</trkpt>
<trkpt lat="45.0085178" lon="5.4655037">
<ele>1031.70</ele>
<time>2019-07-25T08:09:09Z</time>
</trkpt>
<trkpt lat="45.0085925" lon="5.4654944">
<ele>1030.72</ele>
<time>2019-07-25T08:09:10Z</time>
</trkpt>
<trkpt lat="45.0086697" lon="5.4654749">
<ele>1029.68</ele>
<time>2019-07-25T08:09:11Z</time>
</trkpt>
<trkpt lat="45.0087339" lon="5.4654766">
<ele>1028.67</ele>
<time>2019-07-25T08:09:12Z</time>
</trkpt>
<trkpt lat="45.0087941" lon="5.4654720">
<ele>1027.85</ele>
<time>2019-07-25T08:09:13Z</time>
</trkpt>
<trkpt lat="45.0088600" lon="5.4654548">
<ele>1027.11</ele>
<time>2019-07-25T08:09:14Z</time>
</trkpt>
<trkpt lat="45.0089339" lon="5.4654426">
<ele>1026.47</ele>
<time>2019-07-25T08:09:15Z</time>
</trkpt>
<trkpt lat="45.0090136" lon="5.4654270">
<ele>1025.91</ele>
<time>2019-07-25T08:09:16Z</time>
</trkpt>
<trkpt lat="45.0090888" lon="5.4654085">
<ele>1025.39</ele>
<time>2019-07-25T08:09:17Z</time>
</trkpt>
<trkpt lat="45.0091564" lon="5.4653984">
<ele>1024.91</ele>
<time>2019-07-25T08:09:18Z</time>
</trkpt>
<trkpt lat="45.0092160" lon="5.4653999">
<ele>1024.41</ele>
<time>2019-07-25T08:09:19Z</time>
</trkpt>
<trkpt lat="45.0092722" lon="5.4653939">
<ele>1023.88</ele>
<time>2019-07-25T08:09:20Z</time>
</trkpt>
<trkpt lat="45.0093394" lon="5.4653772">
<ele>1023.33</ele>
<time>2019-07-25T08:09:21Z</time>
</trkpt>
<trkpt lat="45.0094229" lon="5.4653701">
<ele>1022.78</ele>
<time>2019-07-25T08:09:22Z</time>
</trkpt>
<trkpt lat="45.0095011" lon="5.4653822">
<ele>1022.24</ele>
<time>2019-07-25T08:09:23Z</time>
</trkpt>
<trkpt lat="45.0095782" lon="5.4653809">
<ele>1021.63</ele>
<time>2019-07-25T08:09:24Z</time>
</trkpt>
<trkpt lat="45.0096529" lon="5.4653541">
<ele>1020.96</ele>
<time>2019-07-25T08:09:25Z</time>
</trkpt>
<trkpt lat="45.0097099" lon="5.4653320">
<ele>1020.25</ele>
<time>2019-07-25T08:09:26Z</time>
</trkpt>
<trkpt lat="45.0097582" lon="5.4653058">
<ele>1019.53</ele>
<time>2019-07-25T08:09:27Z</time>
</trkpt>
<trkpt lat="45.0098162" lon="5.4652721">
<ele>1018.79</ele>
<time>2019-07-25T08:09:28Z</time>
</trkpt>
<trkpt lat="45.0098785" lon="5.4652472">
<ele>1018.06</ele>
<time>2019-07-25T08:09:29Z</time>
</trkpt>
<trkpt lat="45.0099415" lon="5.4652257">
<ele>1017.30</ele>
<time>2019-07-25T08:09:30Z</time>
</trkpt>
<trkpt lat="45.0099960" lon="5.4652131">
<ele>1016.53</ele>
<time>2019-07-25T08:09:31Z</time>
</trkpt>
<trkpt lat="45.0100490" lon="5.4652021">
<ele>1015.71</ele>
<time>2019-07-25T08:09:32Z</time>
</trkpt>
<trkpt lat="45.0101047" lon="5.4651971">
<ele>1014.86</ele>
<time>2019-07-25T08:09:33Z</time>
</trkpt>
<trkpt lat="45.0101645" lon="5.4651831">
<ele>1014.04</ele>
<time>2019-07-25T08:09:34Z</time>
</trkpt>
<trkpt lat="45.0102240" lon="5.4651721">
<ele>1013.11</ele>
<time>2019-07-25T08:09:35Z</time>
</trkpt>
<trkpt lat="45.0102922" lon="5.4651611">
<ele>1012.11</ele>
<time>2019-07-25T08:09:36Z</time>
</trkpt>
<trkpt lat="45.0103629" lon="5.4651588">
<ele>1011.08</ele>
<time>2019-07-25T08:09:37Z</time>
</trkpt>
<trkpt lat="45.0104269" lon="5.4651548">
<ele>1010.10</ele>
<time>2019-07-25T08:09:38Z</time>
</trkpt>
<trkpt lat="45.0104843" lon="5.4651381">
<ele>1009.15</ele>
<time>2019-07-25T08:09:39Z</time>
</trkpt>
<trkpt lat="45.0105332" lon="5.4651232">
<ele>1008.20</ele>
<time>2019-07-25T08:09:40Z</time>
</trkpt>
<trkpt lat="45.0105888" lon="5.4650677">
<ele>1007.24</ele>
<time>2019-07-25T08:09:41Z</time>
</trkpt>
<trkpt lat="45.0106456" lon="5.4649904">
<ele>1006.19</ele>
<time>2019-07-25T08:09:42Z</time>
</trkpt>
<trkpt lat="45.0107094" lon="5.4649153">
<ele>1005.11</ele>
<time>2019-07-25T08:09:43Z</time>
</trkpt>
<trkpt lat="45.0107636" lon="5.4648427">
<ele>1003.99</ele>
<time>2019-07-25T08:09:44Z</time>
</trkpt>
<trkpt lat="45.0108037" lon="5.4647965">
<ele>1003.89</ele>
<time>2019-07-25T08:09:45Z</time>
</trkpt>
<trkpt lat="45.0108268" lon="5.4647631">
<ele>1003.80</ele>
<time>2019-07-25T08:09:46Z</time>
</trkpt>
<trkpt lat="45.0108372" lon="5.4647385">
<ele>1003.70</ele>
<time>2019-07-25T08:09:47Z</time>
</trkpt>
<trkpt lat="45.0108177" lon="5.4647283">
<ele>1003.59</ele>
<time>2019-07-25T08:09:48Z</time>
</trkpt>
<trkpt lat="45.0107982" lon="5.4647232">
<ele>1003.46</ele>
<time>2019-07-25T08:09:49Z</time>
</trkpt>
<trkpt lat="45.0107877" lon="5.4647413">
<ele>1003.32</ele>
<time>2019-07-25T08:09:50Z</time>
</trkpt>
<trkpt lat="45.0107635" lon="5.4647714">
<ele>1003.15</ele>
<time>2019-07-25T08:09:51Z</time>
</trkpt>
<trkpt lat="45.0107225" lon="5.4647872">
<ele>1001.41</ele>
<time>2019-07-25T08:09:52Z</time>
</trkpt>
<trkpt lat="45.0106756" lon="5.4647625">
<ele>1000.04</ele>
<time>2019-07-25T08:09:53Z</time>
</trkpt>
<trkpt lat="45.0106238" lon="5.4647763">
<ele>998.92</ele>
<time>2019-07-25T08:09:54Z</time>
</trkpt>
<trkpt lat="45.0105754" lon="5.4647873">
<ele>997.99</ele>
<time>2019-07-25T08:09:55Z</time>
</trkpt>
<trkpt lat="45.0105365" lon="5.4647678">
<ele>997.20</ele>
<time>2019-07-25T08:09:56Z</time>
</trkpt>
<trkpt lat="45.0104814" lon="5.4647397">
<ele>996.46</ele>
<time>2019-07-25T08:09:57Z</time>
</trkpt>
<trkpt lat="45.0104131" lon="5.4647151">
<ele>995.84</ele>
<time>2019-07-25T08:09:58Z</time>
</trkpt>
<trkpt lat="45.0103455" lon="5.4646757">
<ele>995.31</ele>
<time>2019-07-25T08:09:59Z</time>
</trkpt>
<trkpt lat="45.0102896" lon="5.4646253">
<ele>994.83</ele>
<time>2019-07-25T08:10:00Z</time>
</trkpt>
<trkpt lat="45.0102476" lon="5.4645765">
<ele>994.78</ele>
<time>2019-07-25T08:10:01Z</time>
</trkpt>
<trkpt lat="45.0102217" lon="5.4645488">
<ele>994.75</ele>
<time>2019-07-25T08:10:02Z</time>
</trkpt>
<trkpt lat="45.0101865" lon="5.4645242">
<ele>994.72</ele>
<time>2019-07-25T08:10:03Z</time>
</trkpt>
<trkpt lat="45.0101393" lon="5.4645015">
<ele>994.69</ele>
<time>2019-07-25T08:10:04Z</time>
</trkpt>
<trkpt lat="45.0100880" lon="5.4644794">
<ele>994.42</ele>
<time>2019-07-25T08:10:05Z</time>
</trkpt>
<trkpt lat="45.0100221" lon="5.4644513">
<ele>994.14</ele>
<time>2019-07-25T08:10:06Z</time>
</trkpt>
<trkpt lat="45.0099493" lon="5.4644225">
<ele>993.88</ele>
<time>2019-07-25T08:10:07Z</time>
</trkpt>
<trkpt lat="45.0098469" lon="5.4644077">
<ele>993.64</ele>
<time>2019-07-25T08:10:08Z</time>
</trkpt>
<trkpt lat="45.0097472" lon="5.4643851">
<ele>993.45</ele>
<time>2019-07-25T08:10:09Z</time>
</trkpt>
<trkpt lat="45.0096553" lon="5.4643641">
<ele>993.26</ele>
<time>2019-07-25T08:10:10Z</time>
</trkpt>
<trkpt lat="45.0095831" lon="5.4643588">
<ele>993.10</ele>
<time>2019-07-25T08:10:11Z</time>
</trkpt>
<trkpt lat="45.0095128" lon="5.4643355">
<ele>992.97</ele>
<time>2019-07-25T08:10:12Z</time>
</trkpt>
<trkpt lat="45.0094675" lon="5.4643143">
<ele>992.86</ele>
<time>2019-07-25T08:10:13Z</time>
</trkpt>
<trkpt lat="45.0093829" lon="5.4642749">
<ele>992.73</ele>
<time>2019-07-25T08:10:14Z</time>
</trkpt>
<trkpt lat="45.0093026" lon="5.4642883">
<ele>992.63</ele>
<time>2019-07-25T08:10:15Z</time>
</trkpt>
<trkpt lat="45.0092476" lon="5.4642770">
<ele>992.52</ele>
<time>2019-07-25T08:10:16Z</time>
</trkpt>
<trkpt lat="45.0091846" lon="5.4642663">
<ele>992.42</ele>
<time>2019-07-25T08:10:17Z</time>
</trkpt>
<trkpt lat="45.0091188" lon="5.4642333">
<ele>992.35</ele>
<time>2019-07-25T08:10:18Z</time>
</trkpt>
<trkpt lat="45.0090469" lon="5.4641959">
<ele>992.28</ele>
<time>2019-07-25T08:10:19Z</time>
</trkpt>
<trkpt lat="45.0089886" lon="5.4642174">
<ele>992.21</ele>
<time>2019-07-25T08:10:20Z</time>
</trkpt>
<trkpt lat="45.0089032" lon="5.4642227">
<ele>992.13</ele>
<time>2019-07-25T08:10:21Z</time>
</trkpt>
<trkpt lat="45.0088137" lon="5.4642185">
<ele>991.99</ele>
<time>2019-07-25T08:10:22Z</time>
</trkpt>
<trkpt lat="45.0087481" lon="5.4642079">
<ele>991.84</ele>
<time>2019-07-25T08:10:23Z</time>
</trkpt>
<trkpt lat="45.0086736" lon="5.4641989">
<ele>991.67</ele>
<time>2019-07-25T08:10:24Z</time>
</trkpt>
<trkpt lat="45.0086016" lon="5.4641793">
<ele>991.43</ele>
<time>2019-07-25T08:10:25Z</time>
</trkpt>
<trkpt lat="45.0085226" lon="5.4641452">
<ele>991.08</ele>
<time>2019-07-25T08:10:26Z</time>
</trkpt>
<trkpt lat="45.0084503" lon="5.4641103">
<ele>990.64</ele>
<time>2019-07-25T08:10:27Z</time>
</trkpt>
<trkpt lat="45.0083808" lon="5.4641037">
<ele>990.02</ele>
<time>2019-07-25T08:10:28Z</time>
</trkpt>
<trkpt lat="45.0083151" lon="5.4640751">
<ele>989.33</ele>
<time>2019-07-25T08:10:29Z</time>
</trkpt>
<trkpt lat="45.0082486" lon="5.4640120">
<ele>988.61</ele>
<time>2019-07-25T08:10:30Z</time>
</trkpt>
<trkpt lat="45.0081872" lon="5.4639585">
<ele>987.74</ele>
<time>2019-07-25T08:10:31Z</time>
</trkpt>
<trkpt lat="45.0081354" lon="5.4639241">
<ele>986.88</ele>
<time>2019-07-25T08:10:32Z</time>
</trkpt>
<trkpt lat="45.0080870" lon="5.4638882">
<ele>985.92</ele>
<time>2019-07-25T08:10:33Z</time>
</trkpt>
<trkpt lat="45.0080273" lon="5.4638433">
<ele>984.73</ele>
<time>2019-07-25T08:10:34Z</time>
</trkpt>
<trkpt lat="45.0079605" lon="5.4638105">
<ele>983.41</ele>
<time>2019-07-25T08:10:35Z</time>
</trkpt>
<trkpt lat="45.0078908" lon="5.4637948">
<ele>981.96</ele>
<time>2019-07-25T08:10:36Z</time>
</trkpt>
<trkpt lat="45.0078238" lon="5.4637925">
<ele>980.35</ele>
<time>2019-07-25T08:10:37Z</time>
</trkpt>
<trkpt lat="45.0077592" lon="5.4637885">
<ele>978.60</ele>
<time>2019-07-25T08:10:38Z</time>
</trkpt>
<trkpt lat="45.0077032" lon="5.4637916">
<ele>976.99</ele>
<time>2019-07-25T08:10:39Z</time>
</trkpt>
<trkpt lat="45.0076601" lon="5.4637901">
<ele>975.21</ele>
<time>2019-07-25T08:10:40Z</time>
</trkpt>
<trkpt lat="45.0076203" lon="5.4637913">
<ele>973.24</ele>
<time>2019-07-25T08:10:41Z</time>
</trkpt>
<trkpt lat="45.0075765" lon="5.4637835">
<ele>971.06</ele>
<time>2019-07-25T08:10:42Z</time>
</trkpt>
<trkpt lat="45.0075190" lon="5.4637817">
<ele>968.73</ele>
<time>2019-07-25T08:10:43Z</time>
</trkpt>
<trkpt lat="45.0074561" lon="5.4637718">
<ele>966.39</ele>
<time>2019-07-25T08:10:44Z</time>
</trkpt>
<trkpt lat="45.0073906" lon="5.4637564">
<ele>963.80</ele>
<time>2019-07-25T08:10:45Z</time>
</trkpt>
<trkpt lat="45.0073247" lon="5.4637527">
<ele>960.99</ele>
<time>2019-07-25T08:10:46Z</time>
</trkpt>
<trkpt lat="45.0072554" lon="5.4637706">
<ele>958.06</ele>
<time>2019-07-25T08:10:47Z</time>
</trkpt>
<trkpt lat="45.0071876" lon="5.4637819">
<ele>955.24</ele>
<time>2019-07-25T08:10:48Z</time>
</trkpt>
<trkpt lat="45.0071231" lon="5.4637902">
<ele>952.40</ele>
<time>2019-07-25T08:10:49Z</time>
</trkpt>
<trkpt lat="45.0070835" lon="5.4637983">
<ele>950.03</ele>
<time>2019-07-25T08:10:50Z</time>
</trkpt>
<trkpt lat="45.0070486" lon="5.4637922">
<ele>948.09</ele>
<time>2019-07-25T08:10:51Z</time>
</trkpt>
<trkpt lat="45.0070096" lon="5.4637907">
<ele>946.47</ele>
<time>2019-07-25T08:10:52Z</time>
</trkpt>
<trkpt lat="45.0069621" lon="5.4637711">
<ele>945.11</ele>
<time>2019-07-25T08:10:53Z</time>
</trkpt>
<trkpt lat="45.0069011" lon="5.4637202">
<ele>944.01</ele>
<time>2019-07-25T08:10:54Z</time>
</trkpt>
<trkpt lat="45.0068219" lon="5.4636943">
<ele>943.12</ele>
<time>2019-07-25T08:10:55Z</time>
</trkpt>
<trkpt lat="45.0067353" lon="5.4637006">
<ele>942.34</ele>
<time>2019-07-25T08:10:56Z</time>
</trkpt>
<trkpt lat="45.0066529" lon="5.4636880">
<ele>941.57</ele>
<time>2019-07-25T08:10:57Z</time>
</trkpt>
<trkpt lat="45.0065878" lon="5.4636728">
<ele>940.80</ele>
<time>2019-07-25T08:10:58Z</time>
</trkpt>
<trkpt lat="45.0065291" lon="5.4636497">
<ele>940.05</ele>
<time>2019-07-25T08:10:59Z</time>
</trkpt>
<trkpt lat="45.0064606" lon="5.4636027">
<ele>939.23</ele>
<time>2019-07-25T08:11:00Z</time>
</trkpt>
<trkpt lat="45.0063900" lon="5.4635560">
<ele>938.32</ele>
<time>2019-07-25T08:11:01Z</time>
</trkpt>
<trkpt lat="45.0063174" lon="5.4635250">
<ele>937.44</ele>
<time>2019-07-25T08:11:02Z</time>
</trkpt>
<trkpt lat="45.0062334" lon="5.4635219">
<ele>936.54</ele>
<time>2019-07-25T08:11:03Z</time>
</trkpt>
<trkpt lat="45.0061616" lon="5.4635033">
<ele>935.83</ele>
<time>2019-07-25T08:11:04Z</time>
</trkpt>
<trkpt lat="45.0060958" lon="5.4634776">
<ele>935.24</ele>
<time>2019-07-25T08:11:05Z</time>
</trkpt>
<trkpt lat="45.0060476" lon="5.4634623">
<ele>934.77</ele>
<time>2019-07-25T08:11:06Z</time>
</trkpt>
<trkpt lat="45.0060049" lon="5.4634328">
<ele>934.33</ele>
<time>2019-07-25T08:11:07Z</time>
</trkpt>
<trkpt lat="45.0059389" lon="5.4633986">
<ele>933.64</ele>
<time>2019-07-25T08:11:08Z</time>
</trkpt>
<trkpt lat="45.0058831" lon="5.4633655">
<ele>933.55</ele>
<time>2019-07-25T08:11:09Z</time>
</trkpt>
<trkpt lat="45.0058471" lon="5.4633490">
<ele>933.45</ele>
<time>2019-07-25T08:11:10Z</time>
</trkpt>
<trkpt lat="45.0058034" lon="5.4633219">
<ele>932.42</ele>
<time>2019-07-25T08:11:11Z</time>
</trkpt>
<trkpt lat="45.0057369" lon="5.4632865">
<ele>931.49</ele>
<time>2019-07-25T08:11:12Z</time>
</trkpt>
<trkpt lat="45.0056544" lon="5.4632443">
<ele>930.63</ele>
<time>2019-07-25T08:11:13Z</time>
</trkpt>
<trkpt lat="45.0055682" lon="5.4631950">
<ele>929.75</ele>
<time>2019-07-25T08:11:14Z</time>
</trkpt>
<trkpt lat="45.0054969" lon="5.4631510">
<ele>928.76</ele>
<time>2019-07-25T08:11:15Z</time>
</trkpt>
<trkpt lat="45.0054530" lon="5.4631316">
<ele>928.65</ele>
<time>2019-07-25T08:11:16Z</time>
</trkpt>
<trkpt lat="45.0054250" lon="5.4631344">
<ele>928.52</ele>
<time>2019-07-25T08:11:17Z</time>
</trkpt>
<trkpt lat="45.0054014" lon="5.4631333">
<ele>928.39</ele>
<time>2019-07-25T08:11:18Z</time>
</trkpt>
<trkpt lat="45.0054014" lon="5.4631333">
<ele>928.24</ele>
<time>2019-07-25T08:11:19Z</time>
</trkpt>
<trkpt lat="45.0054014" lon="5.4631333">
<ele>928.22</ele>
<time>2019-07-25T08:11:20Z</time>
</trkpt>
<trkpt lat="45.0054014" lon="5.4631333">
<ele>928.21</ele>
<time>2019-07-25T08:11:21Z</time>
</trkpt>
<trkpt lat="45.0054014" lon="5.4631333">
<ele>928.19</ele>
<time>2019-07-25T08:11:22Z</time>
</trkpt>
<trkpt lat="45.0054014" lon="5.4631333">
<ele>928.17</ele>
<time>2019-07-25T08:11:23Z</time>
</trkpt>
<trkpt lat="45.0054014" lon="5.4631333">
<ele>928.15</ele>
<time>2019-07-25T08:11:24Z</time>
</trkpt>
<trkpt lat="45.0054014" lon="5.4631333">
<ele>928.14</ele>
<time>2019-07-25T08:11:25Z</time>
</trkpt>
<trkpt lat="45.0054014" lon="5.4631333">
<ele>928.13</ele>
<time>2019-07-25T08:11:26Z</time>
</trkpt>
<trkpt lat="45.0054014" lon="5.4631333">
<ele>928.11</ele>
<time>2019-07-25T08:11:27Z</time>
</trkpt>
<trkpt lat="45.0054014" lon="5.4631333">
<ele>927.99</ele>
<time>2019-07-25T08:11:28Z</time>
</trkpt>
<trkpt lat="45.0054014" lon="5.4631333">
<ele>927.98</ele>
<time>2019-07-25T08:11:29Z</time>
</trkpt>
<trkpt lat="45.0053494" lon="5.4631048">
<ele>927.97</ele>
<time>2019-07-25T08:11:30Z</time>
</trkpt>
<trkpt lat="45.0053494" lon="5.4631048">
<ele>927.95</ele>
<time>2019-07-25T08:11:31Z</time>
</trkpt>
<trkpt lat="45.0053494" lon="5.4631048">
<ele>927.94</ele>
<time>2019-07-25T08:11:32Z</time>
</trkpt>
<trkpt lat="45.0053494" lon="5.4631048">
<ele>927.93</ele>
<time>2019-07-25T08:11:33Z</time>
</trkpt>
<trkpt lat="45.0053494" lon="5.4631048">
<ele>927.92</ele>
<time>2019-07-25T08:11:34Z</time>
</trkpt>
<trkpt lat="45.0053494" lon="5.4631048">
<ele>927.91</ele>
<time>2019-07-25T08:11:35Z</time>
</trkpt>
<trkpt lat="45.0053494" lon="5.4631048">
<ele>927.90</ele>
<time>2019-07-25T08:11:36Z</time>
</trkpt>
<trkpt lat="45.0053494" lon="5.4631048">
<ele>927.90</ele>
<time>2019-07-25T08:11:37Z</time>
</trkpt>
<trkpt lat="45.0053494" lon="5.4631048">
<ele>927.89</ele>
<time>2019-07-25T08:11:38Z</time>
</trkpt>
<trkpt lat="45.0053494" lon="5.4631048">
<ele>927.89</ele>
<time>2019-07-25T08:11:39Z</time>
</trkpt>
<trkpt lat="45.0053494" lon="5.4631048">
<ele>927.89</ele>
<time>2019-07-25T08:11:40Z</time>
</trkpt>
<trkpt lat="45.0053494" lon="5.4631048">
<ele>927.89</ele>
<time>2019-07-25T08:11:41Z</time>
</trkpt>
<trkpt lat="45.0053494" lon="5.4631048">
<ele>927.89</ele>
<time>2019-07-25T08:11:42Z</time>
</trkpt>
<trkpt lat="45.0053494" lon="5.4631048">
<ele>927.89</ele>
<time>2019-07-25T08:11:43Z</time>
</trkpt>
<trkpt lat="45.0053494" lon="5.4631048">
<ele>927.90</ele>
<time>2019-07-25T08:11:44Z</time>
</trkpt>
<trkpt lat="45.0053494" lon="5.4631048">
<ele>927.91</ele>
<time>2019-07-25T08:11:45Z</time>
</trkpt>
<trkpt lat="45.0053494" lon="5.4631048">
<ele>927.92</ele>
<time>2019-07-25T08:11:46Z</time>
</trkpt>
<trkpt lat="45.0053494" lon="5.4631048">
<ele>927.94</ele>
<time>2019-07-25T08:11:47Z</time>
</trkpt>
<trkpt lat="45.0053494" lon="5.4631048">
<ele>927.95</ele>
<time>2019-07-25T08:11:48Z</time>
</trkpt>
<trkpt lat="45.0053494" lon="5.4631048">
<ele>927.97</ele>
<time>2019-07-25T08:11:49Z</time>
</trkpt>
<trkpt lat="45.0053494" lon="5.4631048">
<ele>927.98</ele>
<time>2019-07-25T08:11:50Z</time>
</trkpt>
<trkpt lat="45.0053494" lon="5.4631048">
<ele>928.00</ele>
<time>2019-07-25T08:11:51Z</time>
</trkpt>
<trkpt lat="45.0053494" lon="5.4631048">
<ele>928.01</ele>
<time>2019-07-25T08:11:52Z</time>
</trkpt>
<trkpt lat="45.0053494" lon="5.4631048">
<ele>928.02</ele>
<time>2019-07-25T08:11:53Z</time>
</trkpt>
<trkpt lat="45.0053494" lon="5.4631048">
<ele>928.03</ele>
<time>2019-07-25T08:11:54Z</time>
</trkpt>
<trkpt lat="45.0053494" lon="5.4631048">
<ele>928.04</ele>
<time>2019-07-25T08:11:55Z</time>
</trkpt>
<trkpt lat="45.0053494" lon="5.4631048">
<ele>928.05</ele>
<time>2019-07-25T08:11:56Z</time>
</trkpt>
<trkpt lat="45.0053494" lon="5.4631048">
<ele>928.06</ele>
<time>2019-07-25T08:11:57Z</time>
</trkpt>
<trkpt lat="45.0053494" lon="5.4631048">
<ele>928.06</ele>
<time>2019-07-25T08:11:58Z</time>
</trkpt>
<trkpt lat="45.0053494" lon="5.4631048">
<ele>928.07</ele>
<time>2019-07-25T08:11:59Z</time>
</trkpt>
<trkpt lat="45.0053494" lon="5.4631048">
<ele>928.07</ele>
<time>2019-07-25T08:12:00Z</time>
</trkpt>
<trkpt lat="45.0053494" lon="5.4631048">
<ele>928.07</ele>
<time>2019-07-25T08:12:01Z</time>
</trkpt>
<trkpt lat="45.0053494" lon="5.4631048">
<ele>928.07</ele>
<time>2019-07-25T08:12:02Z</time>
</trkpt>
<trkpt lat="45.0053494" lon="5.4631048">
<ele>928.06</ele>
<time>2019-07-25T08:12:03Z</time>
</trkpt>
<trkpt lat="45.0053494" lon="5.4631048">
<ele>928.06</ele>
<time>2019-07-25T08:12:04Z</time>
</trkpt>
<trkpt lat="45.0053494" lon="5.4631048">
<ele>928.05</ele>
<time>2019-07-25T08:12:05Z</time>
</trkpt>
<trkpt lat="45.0053494" lon="5.4631048">
<ele>928.05</ele>
<time>2019-07-25T08:12:06Z</time>
</trkpt>
<trkpt lat="45.0053494" lon="5.4631048">
<ele>928.05</ele>
<time>2019-07-25T08:12:07Z</time>
</trkpt>
<trkpt lat="45.0053494" lon="5.4631048">
<ele>928.05</ele>
<time>2019-07-25T08:12:08Z</time>
</trkpt>
<trkpt lat="45.0053494" lon="5.4631048">
<ele>928.05</ele>
<time>2019-07-25T08:12:09Z</time>
</trkpt>
<trkpt lat="45.0053494" lon="5.4631048">
<ele>928.05</ele>
<time>2019-07-25T08:12:10Z</time>
</trkpt>
<trkpt lat="45.0053494" lon="5.4631048">
<ele>928.05</ele>
<time>2019-07-25T08:12:11Z</time>
</trkpt>
<trkpt lat="45.0053494" lon="5.4631048">
<ele>928.06</ele>
<time>2019-07-25T08:12:12Z</time>
</trkpt>
<trkpt lat="45.0053494" lon="5.4631048">
<ele>928.06</ele>
<time>2019-07-25T08:12:13Z</time>
</trkpt>
<trkpt lat="45.0053494" lon="5.4631048">
<ele>928.06</ele>
<time>2019-07-25T08:12:14Z</time>
</trkpt>
<trkpt lat="45.0053494" lon="5.4631048">
<ele>928.07</ele>
<time>2019-07-25T08:12:15Z</time>
</trkpt>
<trkpt lat="45.0053494" lon="5.4631048">
<ele>928.07</ele>
<time>2019-07-25T08:12:16Z</time>
</trkpt>
<trkpt lat="45.0053494" lon="5.4631048">
<ele>928.08</ele>
<time>2019-07-25T08:12:17Z</time>
</trkpt>
<trkpt lat="45.0053494" lon="5.4631048">
<ele>928.08</ele>
<time>2019-07-25T08:12:18Z</time>
</trkpt>
<trkpt lat="45.0053494" lon="5.4631048">
<ele>928.09</ele>
<time>2019-07-25T08:12:19Z</time>
</trkpt>
<trkpt lat="45.0053494" lon="5.4631048">
<ele>928.10</ele>
<time>2019-07-25T08:12:20Z</time>
</trkpt>
<trkpt lat="45.0053494" lon="5.4631048">
<ele>928.11</ele>
<time>2019-07-25T08:12:21Z</time>
</trkpt>
<trkpt lat="45.0053494" lon="5.4631048">
<ele>928.12</ele>
<time>2019-07-25T08:12:22Z</time>
</trkpt>
<trkpt lat="45.0053494" lon="5.4631048">
<ele>928.13</ele>
<time>2019-07-25T08:12:23Z</time>
</trkpt>
<trkpt lat="45.0053494" lon="5.4631048">
<ele>928.13</ele>
<time>2019-07-25T08:12:24Z</time>
</trkpt>
<trkpt lat="45.0053494" lon="5.4631048">
<ele>928.14</ele>
<time>2019-07-25T08:12:25Z</time>
</trkpt>
<trkpt lat="45.0053494" lon="5.4631048">
<ele>928.15</ele>
<time>2019-07-25T08:12:26Z</time>
</trkpt>
<trkpt lat="45.0053494" lon="5.4631048">
<ele>928.16</ele>
<time>2019-07-25T08:12:27Z</time>
</trkpt>
<trkpt lat="45.0053494" lon="5.4631048">
<ele>928.17</ele>
<time>2019-07-25T08:12:28Z</time>
</trkpt>
<trkpt lat="45.0053494" lon="5.4631048">
<ele>928.19</ele>
<time>2019-07-25T08:12:29Z</time>
</trkpt>
<trkpt lat="45.0053494" lon="5.4631048">
<ele>928.20</ele>
<time>2019-07-25T08:12:30Z</time>
</trkpt>
<trkpt lat="45.0053494" lon="5.4631048">
<ele>928.21</ele>
<time>2019-07-25T08:12:31Z</time>
</trkpt>
<trkpt lat="45.0053494" lon="5.4631048">
<ele>928.23</ele>
<time>2019-07-25T08:12:32Z</time>
</trkpt>
<trkpt lat="45.0053494" lon="5.4631048">
<ele>928.24</ele>
<time>2019-07-25T08:12:33Z</time>
</trkpt>
<trkpt lat="45.0053494" lon="5.4631048">
<ele>928.25</ele>
<time>2019-07-25T08:12:34Z</time>
</trkpt>
<trkpt lat="45.0053494" lon="5.4631048">
<ele>928.27</ele>
<time>2019-07-25T08:12:35Z</time>
</trkpt>
<trkpt lat="45.0053494" lon="5.4631048">
<ele>928.28</ele>
<time>2019-07-25T08:12:36Z</time>
</trkpt>
<trkpt lat="45.0053494" lon="5.4631048">
<ele>928.30</ele>
<time>2019-07-25T08:12:37Z</time>
</trkpt>
<trkpt lat="45.0053494" lon="5.4631048">
<ele>928.31</ele>
<time>2019-07-25T08:12:38Z</time>
</trkpt>
<trkpt lat="45.0053494" lon="5.4631048">
<ele>928.33</ele>
<time>2019-07-25T08:12:39Z</time>
</trkpt>
<trkpt lat="45.0053494" lon="5.4631048">
<ele>928.34</ele>
<time>2019-07-25T08:12:40Z</time>
</trkpt>
<trkpt lat="45.0053494" lon="5.4631048">
<ele>928.36</ele>
<time>2019-07-25T08:12:41Z</time>
</trkpt>
<trkpt lat="45.0053494" lon="5.4631048">
<ele>928.38</ele>
<time>2019-07-25T08:12:42Z</time>
</trkpt>
<trkpt lat="45.0053494" lon="5.4631048">
<ele>928.39</ele>
<time>2019-07-25T08:12:43Z</time>
</trkpt>
<trkpt lat="45.0053494" lon="5.4631048">
<ele>928.41</ele>
<time>2019-07-25T08:12:44Z</time>
</trkpt>
<trkpt lat="45.0053494" lon="5.4631048">
<ele>928.43</ele>
<time>2019-07-25T08:12:45Z</time>
</trkpt>
<trkpt lat="45.0053494" lon="5.4631048">
<ele>928.44</ele>
<time>2019-07-25T08:12:46Z</time>
</trkpt>
<trkpt lat="45.0053494" lon="5.4631048">
<ele>928.46</ele>
<time>2019-07-25T08:12:47Z</time>
</trkpt>
<trkpt lat="45.0053494" lon="5.4631048">
<ele>928.48</ele>
<time>2019-07-25T08:12:48Z</time>
</trkpt>
<trkpt lat="45.0053494" lon="5.4631048">
<ele>928.50</ele>
<time>2019-07-25T08:12:49Z</time>
</trkpt>
<trkpt lat="45.0053494" lon="5.4631048">
<ele>928.52</ele>
<time>2019-07-25T08:12:50Z</time>
</trkpt>
<trkpt lat="45.0053494" lon="5.4631048">
<ele>928.53</ele>
<time>2019-07-25T08:12:51Z</time>
</trkpt>
<trkpt lat="45.0053494" lon="5.4631048">
<ele>928.55</ele>
<time>2019-07-25T08:12:52Z</time>
</trkpt>
<trkpt lat="45.0053494" lon="5.4631048">
<ele>928.57</ele>
<time>2019-07-25T08:12:53Z</time>
</trkpt>
<trkpt lat="45.0053494" lon="5.4631048">
<ele>928.59</ele>
<time>2019-07-25T08:12:54Z</time>
</trkpt>
<trkpt lat="45.0053494" lon="5.4631048">
<ele>928.61</ele>
<time>2019-07-25T08:12:55Z</time>
</trkpt>
<trkpt lat="45.0053494" lon="5.4631048">
<ele>928.63</ele>
<time>2019-07-25T08:12:56Z</time>
</trkpt>
<trkpt lat="45.0053494" lon="5.4631048">
<ele>928.65</ele>
<time>2019-07-25T08:12:57Z</time>
</trkpt>
<trkpt lat="45.0053494" lon="5.4631048">
<ele>928.67</ele>
<time>2019-07-25T08:12:58Z</time>
</trkpt>
<trkpt lat="45.0053494" lon="5.4631048">
<ele>928.69</ele>
<time>2019-07-25T08:12:59Z</time>
</trkpt>
<trkpt lat="45.0053494" lon="5.4631048">
<ele>928.71</ele>
<time>2019-07-25T08:13:00Z</time>
</trkpt>
<trkpt lat="45.0053494" lon="5.4631048">
<ele>928.73</ele>
<time>2019-07-25T08:13:01Z</time>
</trkpt>
<trkpt lat="45.0053494" lon="5.4631048">
<ele>928.75</ele>
<time>2019-07-25T08:13:02Z</time>
</trkpt>
<trkpt lat="45.0053494" lon="5.4631048">
<ele>928.77</ele>
<time>2019-07-25T08:13:03Z</time>
</trkpt>
<trkpt lat="45.0053494" lon="5.4631048">
<ele>928.79</ele>
<time>2019-07-25T08:13:04Z</time>
</trkpt>
<trkpt lat="45.0053494" lon="5.4631048">
<ele>928.81</ele>
<time>2019-07-25T08:13:05Z</time>
</trkpt>
<trkpt lat="45.0053494" lon="5.4631048">
<ele>928.83</ele>
<time>2019-07-25T08:13:06Z</time>
</trkpt>
<trkpt lat="45.0053494" lon="5.4631048">
<ele>928.85</ele>
<time>2019-07-25T08:13:07Z</time>
</trkpt>
<trkpt lat="45.0053494" lon="5.4631048">
<ele>928.88</ele>
<time>2019-07-25T08:13:08Z</time>
</trkpt>
<trkpt lat="45.0053494" lon="5.4631048">
<ele>928.90</ele>
<time>2019-07-25T08:13:09Z</time>
</trkpt>
<trkpt lat="45.0053494" lon="5.4631048">
<ele>928.92</ele>
<time>2019-07-25T08:13:10Z</time>
</trkpt>
<trkpt lat="45.0053494" lon="5.4631048">
<ele>928.94</ele>
<time>2019-07-25T08:13:11Z</time>
</trkpt>
<trkpt lat="45.0053494" lon="5.4631048">
<ele>928.96</ele>
<time>2019-07-25T08:13:12Z</time>
</trkpt>
<trkpt lat="45.0053494" lon="5.4631048">
<ele>928.98</ele>
<time>2019-07-25T08:13:13Z</time>
</trkpt>
<trkpt lat="45.0053494" lon="5.4631048">
<ele>929.00</ele>
<time>2019-07-25T08:13:14Z</time>
</trkpt>
<trkpt lat="45.0053494" lon="5.4631048">
<ele>929.02</ele>
<time>2019-07-25T08:13:15Z</time>
</trkpt>
<trkpt lat="45.0053494" lon="5.4631048">
<ele>929.04</ele>
<time>2019-07-25T08:13:16Z</time>
</trkpt>
<trkpt lat="45.0053494" lon="5.4631048">
<ele>929.06</ele>
<time>2019-07-25T08:13:17Z</time>
</trkpt>
<trkpt lat="45.0053494" lon="5.4631048">
<ele>929.08</ele>
<time>2019-07-25T08:13:18Z</time>
</trkpt>
<trkpt lat="45.0053494" lon="5.4631048">
<ele>929.10</ele>
<time>2019-07-25T08:13:19Z</time>
</trkpt>
<trkpt lat="45.0053494" lon="5.4631048">
<ele>929.12</ele>
<time>2019-07-25T08:13:20Z</time>
</trkpt>
<trkpt lat="45.0053494" lon="5.4631048">
<ele>929.14</ele>
<time>2019-07-25T08:13:21Z</time>
</trkpt>
<trkpt lat="45.0053494" lon="5.4631048">
<ele>929.16</ele>
<time>2019-07-25T08:13:22Z</time>
</trkpt>
<trkpt lat="45.0053494" lon="5.4631048">
<ele>929.18</ele>
<time>2019-07-25T08:13:23Z</time>
</trkpt>
<trkpt lat="45.0053494" lon="5.4631048">
<ele>929.20</ele>
<time>2019-07-25T08:13:24Z</time>
</trkpt>
<trkpt lat="45.0053009" lon="5.4630277">
<ele>929.22</ele>
<time>2019-07-25T08:13:25Z</time>
</trkpt>
<trkpt lat="45.0053009" lon="5.4630277">
<ele>929.24</ele>
<time>2019-07-25T08:13:26Z</time>
</trkpt>
<trkpt lat="45.0053009" lon="5.4630277">
<ele>929.26</ele>
<time>2019-07-25T08:13:27Z</time>
</trkpt>
<trkpt lat="45.0053009" lon="5.4630277">
<ele>929.28</ele>
<time>2019-07-25T08:13:28Z</time>
</trkpt>
<trkpt lat="45.0053009" lon="5.4630277">
<ele>929.29</ele>
<time>2019-07-25T08:13:29Z</time>
</trkpt>
<trkpt lat="45.0053009" lon="5.4630277">
<ele>929.31</ele>
<time>2019-07-25T08:13:30Z</time>
</trkpt>
<trkpt lat="45.0053009" lon="5.4630277">
<ele>929.33</ele>
<time>2019-07-25T08:13:31Z</time>
</trkpt>
<trkpt lat="45.0053009" lon="5.4630277">
<ele>929.35</ele>
<time>2019-07-25T08:13:32Z</time>
</trkpt>
<trkpt lat="45.0053009" lon="5.4630277">
<ele>929.37</ele>
<time>2019-07-25T08:13:33Z</time>
</trkpt>
<trkpt lat="45.0053009" lon="5.4630277">
<ele>929.39</ele>
<time>2019-07-25T08:13:34Z</time>
</trkpt>
<trkpt lat="45.0053009" lon="5.4630277">
<ele>929.41</ele>
<time>2019-07-25T08:13:35Z</time>
</trkpt>
<trkpt lat="45.0053009" lon="5.4630277">
<ele>929.42</ele>
<time>2019-07-25T08:13:36Z</time>
</trkpt>
<trkpt lat="45.0053009" lon="5.4630277">
<ele>929.44</ele>
<time>2019-07-25T08:13:37Z</time>
</trkpt>
<trkpt lat="45.0053009" lon="5.4630277">
<ele>929.61</ele>
<time>2019-07-25T08:13:38Z</time>
</trkpt>
<trkpt lat="45.0053009" lon="5.4630277">
<ele>929.77</ele>
<time>2019-07-25T08:13:39Z</time>
</trkpt>
<trkpt lat="45.0053009" lon="5.4630277">
<ele>929.79</ele>
<time>2019-07-25T08:13:40Z</time>
</trkpt>
<trkpt lat="45.0053009" lon="5.4630277">
<ele>929.80</ele>
<time>2019-07-25T08:13:41Z</time>
</trkpt>
<trkpt lat="45.0053009" lon="5.4630277">
<ele>929.82</ele>
<time>2019-07-25T08:13:42Z</time>
</trkpt>
<trkpt lat="45.0053009" lon="5.4630277">
<ele>929.83</ele>
<time>2019-07-25T08:13:43Z</time>
</trkpt>
<trkpt lat="45.0053009" lon="5.4630277">
<ele>929.84</ele>
<time>2019-07-25T08:13:44Z</time>
</trkpt>
<trkpt lat="45.0053009" lon="5.4630277">
<ele>929.86</ele>
<time>2019-07-25T08:13:45Z</time>
</trkpt>
<trkpt lat="45.0053009" lon="5.4630277">
<ele>929.87</ele>
<time>2019-07-25T08:13:46Z</time>
</trkpt>
<trkpt lat="45.0053009" lon="5.4630277">
<ele>929.88</ele>
<time>2019-07-25T08:13:47Z</time>
</trkpt>
<trkpt lat="45.0053009" lon="5.4630277">
<ele>929.89</ele>
<time>2019-07-25T08:13:48Z</time>
</trkpt>
<trkpt lat="45.0053009" lon="5.4630277">
<ele>929.90</ele>
<time>2019-07-25T08:13:49Z</time>
</trkpt>
<trkpt lat="45.0053009" lon="5.4630277">
<ele>929.91</ele>
<time>2019-07-25T08:13:50Z</time>
</trkpt>
<trkpt lat="45.0053009" lon="5.4630277">
<ele>929.92</ele>
<time>2019-07-25T08:13:51Z</time>
</trkpt>
<trkpt lat="45.0053009" lon="5.4630277">
<ele>929.93</ele>
<time>2019-07-25T08:13:52Z</time>
</trkpt>
<trkpt lat="45.0053009" lon="5.4630277">
<ele>929.94</ele>
<time>2019-07-25T08:13:53Z</time>
</trkpt>
<trkpt lat="45.0053009" lon="5.4630277">
<ele>929.94</ele>
<time>2019-07-25T08:13:54Z</time>
</trkpt>
<trkpt lat="45.0053009" lon="5.4630277">
<ele>929.95</ele>
<time>2019-07-25T08:13:55Z</time>
</trkpt>
<trkpt lat="45.0053009" lon="5.4630277">
<ele>929.96</ele>
<time>2019-07-25T08:13:56Z</time>
</trkpt>
<trkpt lat="45.0053009" lon="5.4630277">
<ele>929.96</ele>
<time>2019-07-25T08:13:57Z</time>
</trkpt>
<trkpt lat="45.0053009" lon="5.4630277">
<ele>929.97</ele>
<time>2019-07-25T08:13:58Z</time>
</trkpt>
<trkpt lat="45.0053009" lon="5.4630277">
<ele>929.97</ele>
<time>2019-07-25T08:13:59Z</time>
</trkpt>
<trkpt lat="45.0053009" lon="5.4630277">
<ele>929.97</ele>
<time>2019-07-25T08:14:00Z</time>
</trkpt>
<trkpt lat="45.0053009" lon="5.4630277">
<ele>929.98</ele>
<time>2019-07-25T08:14:01Z</time>
</trkpt>
<trkpt lat="45.0053009" lon="5.4630277">
<ele>929.98</ele>
<time>2019-07-25T08:14:02Z</time>
</trkpt>
<trkpt lat="45.0053009" lon="5.4630277">
<ele>929.98</ele>
<time>2019-07-25T08:14:03Z</time>
</trkpt>
<trkpt lat="45.0053009" lon="5.4630277">
<ele>929.99</ele>
<time>2019-07-25T08:14:04Z</time>
</trkpt>
<trkpt lat="45.0053009" lon="5.4630277">
<ele>929.99</ele>
<time>2019-07-25T08:14:05Z</time>
</trkpt>
<trkpt lat="45.0053009" lon="5.4630277">
<ele>929.99</ele>
<time>2019-07-25T08:14:06Z</time>
</trkpt>
<trkpt lat="45.0053009" lon="5.4630277">
<ele>930.00</ele>
<time>2019-07-25T08:14:07Z</time>
</trkpt>
<trkpt lat="45.0053009" lon="5.4630277">
<ele>930.00</ele>
<time>2019-07-25T08:14:08Z</time>
</trkpt>
<trkpt lat="45.0053009" lon="5.4630277">
<ele>930.00</ele>
<time>2019-07-25T08:14:09Z</time>
</trkpt>
<trkpt lat="45.0053009" lon="5.4630277">
<ele>930.00</ele>
<time>2019-07-25T08:14:10Z</time>
</trkpt>
<trkpt lat="45.0053009" lon="5.4630277">
<ele>930.00</ele>
<time>2019-07-25T08:14:11Z</time>
</trkpt>
<trkpt lat="45.0053009" lon="5.4630277">
<ele>930.00</ele>
<time>2019-07-25T08:14:12Z</time>
</trkpt>
<trkpt lat="45.0053009" lon="5.4630277">
<ele>930.00</ele>
<time>2019-07-25T08:14:13Z</time>
</trkpt>
<trkpt lat="45.0053009" lon="5.4630277">
<ele>930.01</ele>
<time>2019-07-25T08:14:14Z</time>
</trkpt>
<trkpt lat="45.0053009" lon="5.4630277">
<ele>930.01</ele>
<time>2019-07-25T08:14:15Z</time>
</trkpt>
<trkpt lat="45.0053009" lon="5.4630277">
<ele>930.01</ele>
<time>2019-07-25T08:14:16Z</time>
</trkpt>
<trkpt lat="45.0053009" lon="5.4630277">
<ele>930.01</ele>
<time>2019-07-25T08:14:17Z</time>
</trkpt>
<trkpt lat="45.0053009" lon="5.4630277">
<ele>930.00</ele>
<time>2019-07-25T08:14:18Z</time>
</trkpt>
<trkpt lat="45.0053009" lon="5.4630277">
<ele>930.00</ele>
<time>2019-07-25T08:14:19Z</time>
</trkpt>
<trkpt lat="45.0053009" lon="5.4630277">
<ele>930.00</ele>
<time>2019-07-25T08:14:20Z</time>
</trkpt>
<trkpt lat="45.0053009" lon="5.4630277">
<ele>930.00</ele>
<time>2019-07-25T08:14:21Z</time>
</trkpt>
<trkpt lat="45.0053009" lon="5.4630277">
<ele>930.00</ele>
<time>2019-07-25T08:14:22Z</time>
</trkpt>
<trkpt lat="45.0053009" lon="5.4630277">
<ele>930.00</ele>
<time>2019-07-25T08:14:23Z</time>
</trkpt>
<trkpt lat="45.0053009" lon="5.4630277">
<ele>930.00</ele>
<time>2019-07-25T08:14:24Z</time>
</trkpt>
<trkpt lat="45.0053009" lon="5.4630277">
<ele>930.00</ele>
<time>2019-07-25T08:14:25Z</time>
</trkpt>
<trkpt lat="45.0053009" lon="5.4630277">
<ele>930.00</ele>
<time>2019-07-25T08:14:26Z</time>
</trkpt>
<trkpt lat="45.0053009" lon="5.4630277">
<ele>930.00</ele>
<time>2019-07-25T08:14:27Z</time>
</trkpt>
<trkpt lat="45.0053009" lon="5.4630277">
<ele>930.00</ele>
<time>2019-07-25T08:14:28Z</time>
</trkpt>
<trkpt lat="45.0053009" lon="5.4630277">
<ele>930.00</ele>
<time>2019-07-25T08:14:29Z</time>
</trkpt>
<trkpt lat="45.0053009" lon="5.4630277">
<ele>930.00</ele>
<time>2019-07-25T08:14:30Z</time>
</trkpt>
<trkpt lat="45.0053009" lon="5.4630277">
<ele>930.00</ele>
<time>2019-07-25T08:14:31Z</time>
</trkpt>
<trkpt lat="45.0053009" lon="5.4630277">
<ele>930.00</ele>
<time>2019-07-25T08:14:32Z</time>
</trkpt>
<trkpt lat="45.0053009" lon="5.4630277">
<ele>930.00</ele>
<time>2019-07-25T08:14:33Z</time>
</trkpt>
<trkpt lat="45.0053009" lon="5.4630277">
<ele>930.00</ele>
<time>2019-07-25T08:14:34Z</time>
</trkpt>
<trkpt lat="45.0053009" lon="5.4630277">
<ele>930.00</ele>
<time>2019-07-25T08:14:35Z</time>
</trkpt>
<trkpt lat="45.0053009" lon="5.4630277">
<ele>930.01</ele>
<time>2019-07-25T08:14:36Z</time>
</trkpt>
<trkpt lat="45.0053009" lon="5.4630277">
<ele>930.01</ele>
<time>2019-07-25T08:14:37Z</time>
</trkpt>
<trkpt lat="45.0053009" lon="5.4630277">
<ele>930.01</ele>
<time>2019-07-25T08:14:38Z</time>
</trkpt>
<trkpt lat="45.0052549" lon="5.4630745">
<ele>930.00</ele>
<time>2019-07-25T08:14:39Z</time>
</trkpt>
<trkpt lat="45.0052549" lon="5.4630745">
<ele>930.00</ele>
<time>2019-07-25T08:14:40Z</time>
</trkpt>
<trkpt lat="45.0052549" lon="5.4630745">
<ele>930.00</ele>
<time>2019-07-25T08:14:41Z</time>
</trkpt>
<trkpt lat="45.0052549" lon="5.4630745">
<ele>930.00</ele>
<time>2019-07-25T08:14:42Z</time>
</trkpt>
<trkpt lat="45.0052549" lon="5.4630745">
<ele>930.00</ele>
<time>2019-07-25T08:14:43Z</time>
</trkpt>
<trkpt lat="45.0052549" lon="5.4630745">
<ele>930.00</ele>
<time>2019-07-25T08:14:44Z</time>
</trkpt>
<trkpt lat="45.0052549" lon="5.4630745">
<ele>930.00</ele>
<time>2019-07-25T08:14:45Z</time>
</trkpt>
<trkpt lat="45.0052549" lon="5.4630745">
<ele>930.00</ele>
<time>2019-07-25T08:14:46Z</time>
</trkpt>
<trkpt lat="45.0052549" lon="5.4630745">
<ele>930.00</ele>
<time>2019-07-25T08:14:47Z</time>
</trkpt>
<trkpt lat="45.0052549" lon="5.4630745">
<ele>930.00</ele>
<time>2019-07-25T08:14:48Z</time>
</trkpt>
<trkpt lat="45.0052549" lon="5.4630745">
<ele>930.00</ele>
<time>2019-07-25T08:14:49Z</time>
</trkpt>
<trkpt lat="45.0052549" lon="5.4630745">
<ele>930.00</ele>
<time>2019-07-25T08:14:50Z</time>
</trkpt>
<trkpt lat="45.0052549" lon="5.4630745">
<ele>930.00</ele>
<time>2019-07-25T08:14:51Z</time>
</trkpt>
<trkpt lat="45.0052549" lon="5.4630745">
<ele>930.00</ele>
<time>2019-07-25T08:14:52Z</time>
</trkpt>
<trkpt lat="45.0052549" lon="5.4630745">
<ele>929.99</ele>
<time>2019-07-25T08:14:53Z</time>
</trkpt>
<trkpt lat="45.0052549" lon="5.4630745">
<ele>929.99</ele>
<time>2019-07-25T08:14:54Z</time>
</trkpt>
<trkpt lat="45.0052549" lon="5.4630745">
<ele>929.99</ele>
<time>2019-07-25T08:14:55Z</time>
</trkpt>
<trkpt lat="45.0052549" lon="5.4630745">
<ele>929.99</ele>
<time>2019-07-25T08:14:56Z</time>
</trkpt>
<trkpt lat="45.0052549" lon="5.4630745">
<ele>929.99</ele>
<time>2019-07-25T08:14:57Z</time>
</trkpt>
<trkpt lat="45.0052549" lon="5.4630745">
<ele>929.99</ele>
<time>2019-07-25T08:14:58Z</time>
</trkpt>
<trkpt lat="45.0052549" lon="5.4630745">
<ele>929.99</ele>
<time>2019-07-25T08:14:59Z</time>
</trkpt>
<trkpt lat="45.0052549" lon="5.4630745">
<ele>929.99</ele>
<time>2019-07-25T08:15:00Z</time>
</trkpt>
<trkpt lat="45.0052549" lon="5.4630745">
<ele>929.98</ele>
<time>2019-07-25T08:15:01Z</time>
</trkpt>
<trkpt lat="45.0052549" lon="5.4630745">
<ele>929.98</ele>
<time>2019-07-25T08:15:02Z</time>
</trkpt>
<trkpt lat="45.0052549" lon="5.4630745">
<ele>929.98</ele>
<time>2019-07-25T08:15:03Z</time>
</trkpt>
<trkpt lat="45.0052549" lon="5.4630745">
<ele>929.98</ele>
<time>2019-07-25T08:15:04Z</time>
</trkpt>
<trkpt lat="45.0052549" lon="5.4630745">
<ele>929.98</ele>
<time>2019-07-25T08:15:05Z</time>
</trkpt>
<trkpt lat="45.0052549" lon="5.4630745">
<ele>929.98</ele>
<time>2019-07-25T08:15:06Z</time>
</trkpt>
<trkpt lat="45.0052549" lon="5.4630745">
<ele>929.98</ele>
<time>2019-07-25T08:15:07Z</time>
</trkpt>
<trkpt lat="45.0052549" lon="5.4630745">
<ele>929.97</ele>
<time>2019-07-25T08:15:08Z</time>
</trkpt>
<trkpt lat="45.0052549" lon="5.4630745">
<ele>929.97</ele>
<time>2019-07-25T08:15:09Z</time>
</trkpt>
<trkpt lat="45.0052549" lon="5.4630745">
<ele>929.97</ele>
<time>2019-07-25T08:15:10Z</time>
</trkpt>
<trkpt lat="45.0052549" lon="5.4630745">
<ele>929.97</ele>
<time>2019-07-25T08:15:11Z</time>
</trkpt>
<trkpt lat="45.0052549" lon="5.4630745">
<ele>929.97</ele>
<time>2019-07-25T08:15:12Z</time>
</trkpt>
<trkpt lat="45.0052549" lon="5.4630745">
<ele>929.96</ele>
<time>2019-07-25T08:15:13Z</time>
</trkpt>
<trkpt lat="45.0052549" lon="5.4630745">
<ele>929.96</ele>
<time>2019-07-25T08:15:14Z</time>
</trkpt>
<trkpt lat="45.0052549" lon="5.4630745">
<ele>929.96</ele>
<time>2019-07-25T08:15:15Z</time>
</trkpt>
<trkpt lat="45.0052549" lon="5.4630745">
<ele>929.95</ele>
<time>2019-07-25T08:15:16Z</time>
</trkpt>
<trkpt lat="45.0052549" lon="5.4630745">
<ele>929.95</ele>
<time>2019-07-25T08:15:17Z</time>
</trkpt>
<trkpt lat="45.0052549" lon="5.4630745">
<ele>929.94</ele>
<time>2019-07-25T08:15:18Z</time>
</trkpt>
<trkpt lat="45.0052549" lon="5.4630745">
<ele>929.94</ele>
<time>2019-07-25T08:15:19Z</time>
</trkpt>
<trkpt lat="45.0052549" lon="5.4630745">
<ele>929.94</ele>
<time>2019-07-25T08:15:20Z</time>
</trkpt>
<trkpt lat="45.0052549" lon="5.4630745">
<ele>929.93</ele>
<time>2019-07-25T08:15:21Z</time>
</trkpt>
<trkpt lat="45.0052549" lon="5.4630745">
<ele>929.92</ele>
<time>2019-07-25T08:15:22Z</time>
</trkpt>
<trkpt lat="45.0052549" lon="5.4630745">
<ele>929.87</ele>
<time>2019-07-25T08:15:23Z</time>
</trkpt>
<trkpt lat="45.0052549" lon="5.4630745">
<ele>929.86</ele>
<time>2019-07-25T08:15:24Z</time>
</trkpt>
<trkpt lat="45.0052549" lon="5.4630745">
<ele>929.86</ele>
<time>2019-07-25T08:15:25Z</time>
</trkpt>
<trkpt lat="45.0052549" lon="5.4630745">
<ele>929.85</ele>
<time>2019-07-25T08:15:26Z</time>
</trkpt>
<trkpt lat="45.0052549" lon="5.4630745">
<ele>929.85</ele>
<time>2019-07-25T08:15:27Z</time>
</trkpt>
<trkpt lat="45.0052549" lon="5.4630745">
<ele>929.84</ele>
<time>2019-07-25T08:15:28Z</time>
</trkpt>
<trkpt lat="45.0052549" lon="5.4630745">
<ele>929.83</ele>
<time>2019-07-25T08:15:29Z</time>
</trkpt>
<trkpt lat="45.0052549" lon="5.4630745">
<ele>929.83</ele>
<time>2019-07-25T08:15:30Z</time>
</trkpt>
<trkpt lat="45.0052549" lon="5.4630745">
<ele>929.82</ele>
<time>2019-07-25T08:15:31Z</time>
</trkpt>
<trkpt lat="45.0052549" lon="5.4630745">
<ele>929.82</ele>
<time>2019-07-25T08:15:32Z</time>
</trkpt>
<trkpt lat="45.0052549" lon="5.4630745">
<ele>929.81</ele>
<time>2019-07-25T08:15:33Z</time>
</trkpt>
<trkpt lat="45.0052549" lon="5.4630745">
<ele>929.80</ele>
<time>2019-07-25T08:15:34Z</time>
</trkpt>
<trkpt lat="45.0052549" lon="5.4630745">
<ele>929.80</ele>
<time>2019-07-25T08:15:35Z</time>
</trkpt>
<trkpt lat="45.0052549" lon="5.4630745">
<ele>929.79</ele>
<time>2019-07-25T08:15:36Z</time>
</trkpt>
<trkpt lat="45.0052549" lon="5.4630745">
<ele>929.79</ele>
<time>2019-07-25T08:15:37Z</time>
</trkpt>
<trkpt lat="45.0052549" lon="5.4630745">
<ele>929.78</ele>
<time>2019-07-25T08:15:38Z</time>
</trkpt>
<trkpt lat="45.0052549" lon="5.4630745">
<ele>929.77</ele>
<time>2019-07-25T08:15:39Z</time>
</trkpt>
<trkpt lat="45.0052549" lon="5.4630745">
<ele>929.77</ele>
<time>2019-07-25T08:15:40Z</time>
</trkpt>
<trkpt lat="45.0052549" lon="5.4630745">
<ele>929.76</ele>
<time>2019-07-25T08:15:41Z</time>
</trkpt>
<trkpt lat="45.0052549" lon="5.4630745">
<ele>929.69</ele>
<time>2019-07-25T08:15:42Z</time>
</trkpt>
<trkpt lat="45.0052549" lon="5.4630745">
<ele>929.68</ele>
<time>2019-07-25T08:15:43Z</time>
</trkpt>
<trkpt lat="45.0052549" lon="5.4630745">
<ele>929.67</ele>
<time>2019-07-25T08:15:44Z</time>
</trkpt>
<trkpt lat="45.0052853" lon="5.4630705">
<ele>929.59</ele>
<time>2019-07-25T08:15:45Z</time>
</trkpt>
<trkpt lat="45.0052753" lon="5.4630523">
<ele>929.51</ele>
<time>2019-07-25T08:15:46Z</time>
</trkpt>
<trkpt lat="45.0052625" lon="5.4630389">
<ele>929.42</ele>
<time>2019-07-25T08:15:47Z</time>
</trkpt>
<trkpt lat="45.0052435" lon="5.4630328">
<ele>929.34</ele>
<time>2019-07-25T08:15:48Z</time>
</trkpt>
<trkpt lat="45.0052169" lon="5.4630155">
<ele>929.25</ele>
<time>2019-07-25T08:15:49Z</time>
</trkpt>
<trkpt lat="45.0051866" lon="5.4629897">
<ele>928.37</ele>
<time>2019-07-25T08:15:50Z</time>
</trkpt>
<trkpt lat="45.0051523" lon="5.4629496">
<ele>927.65</ele>
<time>2019-07-25T08:15:51Z</time>
</trkpt>
<trkpt lat="45.0051201" lon="5.4629074">
<ele>927.59</ele>
<time>2019-07-25T08:15:52Z</time>
</trkpt>
<trkpt lat="45.0050917" lon="5.4629037">
<ele>927.53</ele>
<time>2019-07-25T08:15:53Z</time>
</trkpt>
<trkpt lat="45.0050499" lon="5.4628777">
<ele>926.95</ele>
<time>2019-07-25T08:15:54Z</time>
</trkpt>
<trkpt lat="45.0050089" lon="5.4628417">
<ele>926.48</ele>
<time>2019-07-25T08:15:55Z</time>
</trkpt>
<trkpt lat="45.0049626" lon="5.4628059">
<ele>926.10</ele>
<time>2019-07-25T08:15:56Z</time>
</trkpt>
<trkpt lat="45.0049274" lon="5.4627649">
<ele>925.79</ele>
<time>2019-07-25T08:15:57Z</time>
</trkpt>
<trkpt lat="45.0048814" lon="5.4627582">
<ele>925.55</ele>
<time>2019-07-25T08:15:58Z</time>
</trkpt>
<trkpt lat="45.0048287" lon="5.4626834">
<ele>925.36</ele>
<time>2019-07-25T08:15:59Z</time>
</trkpt>
<trkpt lat="45.0047597" lon="5.4626266">
<ele>925.20</ele>
<time>2019-07-25T08:16:00Z</time>
</trkpt>
<trkpt lat="45.0046800" lon="5.4625471">
<ele>925.07</ele>
<time>2019-07-25T08:16:01Z</time>
</trkpt>
<trkpt lat="45.0046278" lon="5.4624619">
<ele>925.06</ele>
<time>2019-07-25T08:16:02Z</time>
</trkpt>
<trkpt lat="45.0045750" lon="5.4624256">
<ele>924.95</ele>
<time>2019-07-25T08:16:03Z</time>
</trkpt>
<trkpt lat="45.0044875" lon="5.4623906">
<ele>924.86</ele>
<time>2019-07-25T08:16:04Z</time>
</trkpt>
<trkpt lat="45.0044811" lon="5.4623402">
<ele>924.85</ele>
<time>2019-07-25T08:16:05Z</time>
</trkpt>
<trkpt lat="45.0044308" lon="5.4623077">
<ele>924.77</ele>
<time>2019-07-25T08:16:06Z</time>
</trkpt>
<trkpt lat="45.0043552" lon="5.4622824">
<ele>924.69</ele>
<time>2019-07-25T08:16:07Z</time>
</trkpt>
<trkpt lat="45.0043118" lon="5.4622488">
<ele>924.60</ele>
<time>2019-07-25T08:16:08Z</time>
</trkpt>
<trkpt lat="45.0042754" lon="5.4622015">
<ele>924.53</ele>
<time>2019-07-25T08:16:09Z</time>
</trkpt>
<trkpt lat="45.0042565" lon="5.4621491">
<ele>924.52</ele>
<time>2019-07-25T08:16:10Z</time>
</trkpt>
<trkpt lat="45.0042289" lon="5.4621170">
<ele>924.51</ele>
<time>2019-07-25T08:16:11Z</time>
</trkpt>
<trkpt lat="45.0041945" lon="5.4620756">
<ele>924.42</ele>
<time>2019-07-25T08:16:12Z</time>
</trkpt>
<trkpt lat="45.0041521" lon="5.4620442">
<ele>924.31</ele>
<time>2019-07-25T08:16:13Z</time>
</trkpt>
<trkpt lat="45.0040987" lon="5.4620176">
<ele>924.17</ele>
<time>2019-07-25T08:16:14Z</time>
</trkpt>
<trkpt lat="45.0040408" lon="5.4619790">
<ele>924.00</ele>
<time>2019-07-25T08:16:15Z</time>
</trkpt>
<trkpt lat="45.0039867" lon="5.4619386">
<ele>923.83</ele>
<time>2019-07-25T08:16:16Z</time>
</trkpt>
<trkpt lat="45.0039368" lon="5.4618948">
<ele>923.50</ele>
<time>2019-07-25T08:16:17Z</time>
</trkpt>
<trkpt lat="45.0038946" lon="5.4618618">
<ele>923.15</ele>
<time>2019-07-25T08:16:18Z</time>
</trkpt>
<trkpt lat="45.0038524" lon="5.4618321">
<ele>922.93</ele>
<time>2019-07-25T08:16:19Z</time>
</trkpt>
<trkpt lat="45.0038144" lon="5.4618041">
<ele>922.91</ele>
<time>2019-07-25T08:16:20Z</time>
</trkpt>
<trkpt lat="45.0037691" lon="5.4617715">
<ele>922.89</ele>
<time>2019-07-25T08:16:21Z</time>
</trkpt>
<trkpt lat="45.0037304" lon="5.4617463">
<ele>922.46</ele>
<time>2019-07-25T08:16:22Z</time>
</trkpt>
<trkpt lat="45.0036927" lon="5.4617099">
<ele>922.35</ele>
<time>2019-07-25T08:16:23Z</time>
</trkpt>
<trkpt lat="45.0036574" lon="5.4616680">
<ele>922.22</ele>
<time>2019-07-25T08:16:24Z</time>
</trkpt>
<trkpt lat="45.0036291" lon="5.4616171">
<ele>922.09</ele>
<time>2019-07-25T08:16:25Z</time>
</trkpt>
<trkpt lat="45.0035948" lon="5.4615962">
<ele>921.95</ele>
<time>2019-07-25T08:16:26Z</time>
</trkpt>
<trkpt lat="45.0035587" lon="5.4616028">
<ele>921.79</ele>
<time>2019-07-25T08:16:27Z</time>
</trkpt>
<trkpt lat="45.0035144" lon="5.4616123">
<ele>921.62</ele>
<time>2019-07-25T08:16:28Z</time>
</trkpt>
<trkpt lat="45.0034739" lon="5.4616055">
<ele>919.96</ele>
<time>2019-07-25T08:16:29Z</time>
</trkpt>
<trkpt lat="45.0034221" lon="5.4615800">
<ele>919.82</ele>
<time>2019-07-25T08:16:30Z</time>
</trkpt>
<trkpt lat="45.0033708" lon="5.4615698">
<ele>919.70</ele>
<time>2019-07-25T08:16:31Z</time>
</trkpt>
<trkpt lat="45.0033421" lon="5.4615673">
<ele>919.57</ele>
<time>2019-07-25T08:16:32Z</time>
</trkpt>
<trkpt lat="45.0033208" lon="5.4615343">
<ele>919.44</ele>
<time>2019-07-25T08:16:33Z</time>
</trkpt>
<trkpt lat="45.0032891" lon="5.4615052">
<ele>919.30</ele>
<time>2019-07-25T08:16:34Z</time>
</trkpt>
<trkpt lat="45.0032337" lon="5.4614780">
<ele>919.15</ele>
<time>2019-07-25T08:16:35Z</time>
</trkpt>
<trkpt lat="45.0031999" lon="5.4614439">
<ele>917.35</ele>
<time>2019-07-25T08:16:36Z</time>
</trkpt>
<trkpt lat="45.0031730" lon="5.4614173">
<ele>917.20</ele>
<time>2019-07-25T08:16:37Z</time>
</trkpt>
<trkpt lat="45.0031266" lon="5.4613769">
<ele>916.97</ele>
<time>2019-07-25T08:16:38Z</time>
</trkpt>
<trkpt lat="45.0030855" lon="5.4613294">
<ele>916.69</ele>
<time>2019-07-25T08:16:39Z</time>
</trkpt>
<trkpt lat="45.0030398" lon="5.4612738">
<ele>916.37</ele>
<time>2019-07-25T08:16:40Z</time>
</trkpt>
<trkpt lat="45.0029962" lon="5.4612393">
<ele>916.05</ele>
<time>2019-07-25T08:16:41Z</time>
</trkpt>
<trkpt lat="45.0029553" lon="5.4612130">
<ele>915.76</ele>
<time>2019-07-25T08:16:42Z</time>
</trkpt>
<trkpt lat="45.0029294" lon="5.4611702">
<ele>912.70</ele>
<time>2019-07-25T08:16:43Z</time>
</trkpt>
<trkpt lat="45.0029037" lon="5.4611166">
<ele>912.43</ele>
<time>2019-07-25T08:16:44Z</time>
</trkpt>
<trkpt lat="45.0028714" lon="5.4610810">
<ele>912.15</ele>
<time>2019-07-25T08:16:45Z</time>
</trkpt>
<trkpt lat="45.0028080" lon="5.4610461">
<ele>908.66</ele>
<time>2019-07-25T08:16:46Z</time>
</trkpt>
<trkpt lat="45.0027485" lon="5.4609736">
<ele>905.36</ele>
<time>2019-07-25T08:16:47Z</time>
</trkpt>
<trkpt lat="45.0026875" lon="5.4609242">
<ele>902.55</ele>
<time>2019-07-25T08:16:48Z</time>
</trkpt>
<trkpt lat="45.0026501" lon="5.4608939">
<ele>902.30</ele>
<time>2019-07-25T08:16:49Z</time>
</trkpt>
<trkpt lat="45.0026116" lon="5.4608567">
<ele>902.06</ele>
<time>2019-07-25T08:16:50Z</time>
</trkpt>
<trkpt lat="45.0025747" lon="5.4608420">
<ele>899.40</ele>
<time>2019-07-25T08:16:51Z</time>
</trkpt>
<trkpt lat="45.0025210" lon="5.4608245">
<ele>897.17</ele>
<time>2019-07-25T08:16:52Z</time>
</trkpt>
<trkpt lat="45.0024873" lon="5.4608066">
<ele>896.96</ele>
<time>2019-07-25T08:16:53Z</time>
</trkpt>
<trkpt lat="45.0024398" lon="5.4607995">
<ele>896.73</ele>
<time>2019-07-25T08:16:54Z</time>
</trkpt>
<trkpt lat="45.0024027" lon="5.4607949">
<ele>896.47</ele>
<time>2019-07-25T08:16:55Z</time>
</trkpt>
<trkpt lat="45.0023521" lon="5.4608004">
<ele>893.60</ele>
<time>2019-07-25T08:16:56Z</time>
</trkpt>
<trkpt lat="45.0023033" lon="5.4608058">
<ele>891.15</ele>
<time>2019-07-25T08:16:57Z</time>
</trkpt>
<trkpt lat="45.0022556" lon="5.4608183">
<ele>889.13</ele>
<time>2019-07-25T08:16:58Z</time>
</trkpt>
<trkpt lat="45.0022086" lon="5.4608464">
<ele>887.41</ele>
<time>2019-07-25T08:16:59Z</time>
</trkpt>
<trkpt lat="45.0021635" lon="5.4608545">
<ele>885.88</ele>
<time>2019-07-25T08:17:00Z</time>
</trkpt>
<trkpt lat="45.0021148" lon="5.4608472">
<ele>884.54</ele>
<time>2019-07-25T08:17:01Z</time>
</trkpt>
<trkpt lat="45.0020735" lon="5.4608319">
<ele>883.16</ele>
<time>2019-07-25T08:17:02Z</time>
</trkpt>
<trkpt lat="45.0020216" lon="5.4608200">
<ele>881.79</ele>
<time>2019-07-25T08:17:03Z</time>
</trkpt>
<trkpt lat="45.0019534" lon="5.4607956">
<ele>880.46</ele>
<time>2019-07-25T08:17:04Z</time>
</trkpt>
<trkpt lat="45.0018978" lon="5.4607773">
<ele>879.29</ele>
<time>2019-07-25T08:17:05Z</time>
</trkpt>
<trkpt lat="45.0018490" lon="5.4606914">
<ele>878.37</ele>
<time>2019-07-25T08:17:06Z</time>
</trkpt>
<trkpt lat="45.0018288" lon="5.4606129">
<ele>877.49</ele>
<time>2019-07-25T08:17:07Z</time>
</trkpt>
<trkpt lat="45.0017925" lon="5.4605499">
<ele>876.66</ele>
<time>2019-07-25T08:17:08Z</time>
</trkpt>
<trkpt lat="45.0017345" lon="5.4604802">
<ele>875.97</ele>
<time>2019-07-25T08:17:09Z</time>
</trkpt>
<trkpt lat="45.0017098" lon="5.4603954">
<ele>875.02</ele>
<time>2019-07-25T08:17:10Z</time>
</trkpt>
<trkpt lat="45.0016591" lon="5.4603172">
<ele>874.09</ele>
<time>2019-07-25T08:17:11Z</time>
</trkpt>
<trkpt lat="45.0016214" lon="5.4602395">
<ele>872.84</ele>
<time>2019-07-25T08:17:12Z</time>
</trkpt>
<trkpt lat="45.0015625" lon="5.4601690">
<ele>871.03</ele>
<time>2019-07-25T08:17:13Z</time>
</trkpt>
<trkpt lat="45.0015022" lon="5.4601031">
<ele>869.33</ele>
<time>2019-07-25T08:17:14Z</time>
</trkpt>
<trkpt lat="45.0014729" lon="5.4600342">
<ele>867.07</ele>
<time>2019-07-25T08:17:15Z</time>
</trkpt>
<trkpt lat="45.0014543" lon="5.4599692">
<ele>864.35</ele>
<time>2019-07-25T08:17:16Z</time>
</trkpt>
<trkpt lat="45.0014383" lon="5.4599115">
<ele>861.59</ele>
<time>2019-07-25T08:17:17Z</time>
</trkpt>
<trkpt lat="45.0014353" lon="5.4598338">
<ele>858.67</ele>
<time>2019-07-25T08:17:18Z</time>
</trkpt>
<trkpt lat="45.0014390" lon="5.4597440">
<ele>855.90</ele>
<time>2019-07-25T08:17:19Z</time>
</trkpt>
<trkpt lat="45.0014353" lon="5.4596485">
<ele>853.27</ele>
<time>2019-07-25T08:17:20Z</time>
</trkpt>
<trkpt lat="45.0014270" lon="5.4595654">
<ele>850.85</ele>
<time>2019-07-25T08:17:21Z</time>
</trkpt>
<trkpt lat="45.0014111" lon="5.4594971">
<ele>848.45</ele>
<time>2019-07-25T08:17:22Z</time>
</trkpt>
<trkpt lat="45.0013931" lon="5.4594250">
<ele>846.20</ele>
<time>2019-07-25T08:17:23Z</time>
</trkpt>
<trkpt lat="45.0013783" lon="5.4593671">
<ele>844.24</ele>
<time>2019-07-25T08:17:24Z</time>
</trkpt>
<trkpt lat="45.0013565" lon="5.4592913">
<ele>842.62</ele>
<time>2019-07-25T08:17:25Z</time>
</trkpt>
<trkpt lat="45.0013318" lon="5.4592028">
<ele>841.19</ele>
<time>2019-07-25T08:17:26Z</time>
</trkpt>
<trkpt lat="45.0013223" lon="5.4590979">
<ele>839.93</ele>
<time>2019-07-25T08:17:27Z</time>
</trkpt>
<trkpt lat="45.0013344" lon="5.4589807">
<ele>838.75</ele>
<time>2019-07-25T08:17:28Z</time>
</trkpt>
<trkpt lat="45.0013543" lon="5.4588609">
<ele>837.63</ele>
<time>2019-07-25T08:17:29Z</time>
</trkpt>
<trkpt lat="45.0013743" lon="5.4587452">
<ele>836.48</ele>
<time>2019-07-25T08:17:30Z</time>
</trkpt>
<trkpt lat="45.0013885" lon="5.4586482">
<ele>835.43</ele>
<time>2019-07-25T08:17:31Z</time>
</trkpt>
<trkpt lat="45.0013958" lon="5.4585807">
<ele>835.36</ele>
<time>2019-07-25T08:17:32Z</time>
</trkpt>
<trkpt lat="45.0013981" lon="5.4585282">
<ele>835.29</ele>
<time>2019-07-25T08:17:33Z</time>
</trkpt>
<trkpt lat="45.0014034" lon="5.4584807">
<ele>835.23</ele>
<time>2019-07-25T08:17:34Z</time>
</trkpt>
<trkpt lat="45.0014060" lon="5.4584440">
<ele>835.17</ele>
<time>2019-07-25T08:17:35Z</time>
</trkpt>
<trkpt lat="45.0014077" lon="5.4584078">
<ele>835.11</ele>
<time>2019-07-25T08:17:36Z</time>
</trkpt>
<trkpt lat="45.0014077" lon="5.4584078">
<ele>835.06</ele>
<time>2019-07-25T08:17:37Z</time>
</trkpt>
<trkpt lat="45.0014077" lon="5.4584078">
<ele>835.06</ele>
<time>2019-07-25T08:17:38Z</time>
</trkpt>
<trkpt lat="45.0014077" lon="5.4584078">
<ele>835.06</ele>
<time>2019-07-25T08:17:39Z</time>
</trkpt>
<trkpt lat="45.0014077" lon="5.4584078">
<ele>835.01</ele>
<time>2019-07-25T08:17:40Z</time>
</trkpt>
<trkpt lat="45.0014077" lon="5.4584078">
<ele>835.01</ele>
<time>2019-07-25T08:17:41Z</time>
</trkpt>
<trkpt lat="45.0014077" lon="5.4584078">
<ele>835.01</ele>
<time>2019-07-25T08:17:42Z</time>
</trkpt>
<trkpt lat="45.0014077" lon="5.4584078">
<ele>834.98</ele>
<time>2019-07-25T08:17:43Z</time>
</trkpt>
<trkpt lat="45.0013891" lon="5.4583347">
<ele>834.98</ele>
<time>2019-07-25T08:17:44Z</time>
</trkpt>
<trkpt lat="45.0013891" lon="5.4583347">
<ele>834.98</ele>
<time>2019-07-25T08:17:45Z</time>
</trkpt>
<trkpt lat="45.0013891" lon="5.4583347">
<ele>834.97</ele>
<time>2019-07-25T08:17:46Z</time>
</trkpt>
<trkpt lat="45.0013891" lon="5.4583347">
<ele>834.97</ele>
<time>2019-07-25T08:17:47Z</time>
</trkpt>
<trkpt lat="45.0013891" lon="5.4583347">
<ele>834.96</ele>
<time>2019-07-25T08:17:48Z</time>
</trkpt>
<trkpt lat="45.0013891" lon="5.4583347">
<ele>834.96</ele>
<time>2019-07-25T08:17:49Z</time>
</trkpt>
<trkpt lat="45.0013891" lon="5.4583347">
<ele>834.96</ele>
<time>2019-07-25T08:17:50Z</time>
</trkpt>
<trkpt lat="45.0013891" lon="5.4583347">
<ele>834.96</ele>
<time>2019-07-25T08:17:51Z</time>
</trkpt>
<trkpt lat="45.0013891" lon="5.4583347">
<ele>834.95</ele>
<time>2019-07-25T08:17:52Z</time>
</trkpt>
<trkpt lat="45.0013891" lon="5.4583347">
<ele>834.95</ele>
<time>2019-07-25T08:17:53Z</time>
</trkpt>
<trkpt lat="45.0013891" lon="5.4583347">
<ele>834.95</ele>
<time>2019-07-25T08:17:54Z</time>
</trkpt>
<trkpt lat="45.0013891" lon="5.4583347">
<ele>834.95</ele>
<time>2019-07-25T08:17:55Z</time>
</trkpt>
<trkpt lat="45.0013891" lon="5.4583347">
<ele>834.95</ele>
<time>2019-07-25T08:17:56Z</time>
</trkpt>
<trkpt lat="45.0013891" lon="5.4583347">
<ele>834.95</ele>
<time>2019-07-25T08:17:57Z</time>
</trkpt>
<trkpt lat="45.0013891" lon="5.4583347">
<ele>834.95</ele>
<time>2019-07-25T08:17:58Z</time>
</trkpt>
<trkpt lat="45.0013891" lon="5.4583347">
<ele>834.96</ele>
<time>2019-07-25T08:17:59Z</time>
</trkpt>
<trkpt lat="45.0013891" lon="5.4583347">
<ele>834.96</ele>
<time>2019-07-25T08:18:00Z</time>
</trkpt>
<trkpt lat="45.0013891" lon="5.4583347">
<ele>834.95</ele>
<time>2019-07-25T08:18:01Z</time>
</trkpt>
<trkpt lat="45.0013891" lon="5.4583347">
<ele>834.95</ele>
<time>2019-07-25T08:18:02Z</time>
</trkpt>
<trkpt lat="45.0013891" lon="5.4583347">
<ele>834.95</ele>
<time>2019-07-25T08:18:03Z</time>
</trkpt>
<trkpt lat="45.0013891" lon="5.4583347">
<ele>834.89</ele>
<time>2019-07-25T08:18:04Z</time>
</trkpt>
<trkpt lat="45.0013891" lon="5.4583347">
<ele>834.88</ele>
<time>2019-07-25T08:18:05Z</time>
</trkpt>
<trkpt lat="45.0013891" lon="5.4583347">
<ele>834.87</ele>
<time>2019-07-25T08:18:06Z</time>
</trkpt>
<trkpt lat="45.0013891" lon="5.4583347">
<ele>834.86</ele>
<time>2019-07-25T08:18:07Z</time>
</trkpt>
<trkpt lat="45.0013891" lon="5.4583347">
<ele>834.86</ele>
<time>2019-07-25T08:18:08Z</time>
</trkpt>
<trkpt lat="45.0013891" lon="5.4583347">
<ele>834.85</ele>
<time>2019-07-25T08:18:09Z</time>
</trkpt>
<trkpt lat="45.0013891" lon="5.4583347">
<ele>834.84</ele>
<time>2019-07-25T08:18:10Z</time>
</trkpt>
<trkpt lat="45.0013891" lon="5.4583347">
<ele>834.84</ele>
<time>2019-07-25T08:18:11Z</time>
</trkpt>
<trkpt lat="45.0013891" lon="5.4583347">
<ele>834.83</ele>
<time>2019-07-25T08:18:12Z</time>
</trkpt>
<trkpt lat="45.0013891" lon="5.4583347">
<ele>834.82</ele>
<time>2019-07-25T08:18:13Z</time>
</trkpt>
<trkpt lat="45.0013891" lon="5.4583347">
<ele>834.82</ele>
<time>2019-07-25T08:18:14Z</time>
</trkpt>
<trkpt lat="45.0013891" lon="5.4583347">
<ele>834.81</ele>
<time>2019-07-25T08:18:15Z</time>
</trkpt>
<trkpt lat="45.0013891" lon="5.4583347">
<ele>834.81</ele>
<time>2019-07-25T08:18:16Z</time>
</trkpt>
<trkpt lat="45.0013891" lon="5.4583347">
<ele>834.80</ele>
<time>2019-07-25T08:18:17Z</time>
</trkpt>
<trkpt lat="45.0013891" lon="5.4583347">
<ele>834.80</ele>
<time>2019-07-25T08:18:18Z</time>
</trkpt>
<trkpt lat="45.0013891" lon="5.4583347">
<ele>834.79</ele>
<time>2019-07-25T08:18:19Z</time>
</trkpt>
<trkpt lat="45.0013891" lon="5.4583347">
<ele>834.79</ele>
<time>2019-07-25T08:18:20Z</time>
</trkpt>
<trkpt lat="45.0013891" lon="5.4583347">
<ele>834.78</ele>
<time>2019-07-25T08:18:21Z</time>
</trkpt>
<trkpt lat="45.0013891" lon="5.4583347">
<ele>834.78</ele>
<time>2019-07-25T08:18:22Z</time>
</trkpt>
<trkpt lat="45.0013891" lon="5.4583347">
<ele>834.77</ele>
<time>2019-07-25T08:18:23Z</time>
</trkpt>
<trkpt lat="45.0013891" lon="5.4583347">
<ele>834.76</ele>
<time>2019-07-25T08:18:24Z</time>
</trkpt>
<trkpt lat="45.0013891" lon="5.4583347">
<ele>834.76</ele>
<time>2019-07-25T08:18:25Z</time>
</trkpt>
<trkpt lat="45.0013891" lon="5.4583347">
<ele>834.75</ele>
<time>2019-07-25T08:18:26Z</time>
</trkpt>
<trkpt lat="45.0013891" lon="5.4583347">
<ele>834.74</ele>
<time>2019-07-25T08:18:27Z</time>
</trkpt>
<trkpt lat="45.0013891" lon="5.4583347">
<ele>834.63</ele>
<time>2019-07-25T08:18:28Z</time>
</trkpt>
<trkpt lat="45.0013891" lon="5.4583347">
<ele>834.61</ele>
<time>2019-07-25T08:18:29Z</time>
</trkpt>
<trkpt lat="45.0013891" lon="5.4583347">
<ele>834.60</ele>
<time>2019-07-25T08:18:30Z</time>
</trkpt>
<trkpt lat="45.0013891" lon="5.4583347">
<ele>834.59</ele>
<time>2019-07-25T08:18:31Z</time>
</trkpt>
<trkpt lat="45.0013891" lon="5.4583347">
<ele>834.57</ele>
<time>2019-07-25T08:18:32Z</time>
</trkpt>
<trkpt lat="45.0013891" lon="5.4583347">
<ele>834.56</ele>
<time>2019-07-25T08:18:33Z</time>
</trkpt>
<trkpt lat="45.0014062" lon="5.4583215">
<ele>834.42</ele>
<time>2019-07-25T08:18:34Z</time>
</trkpt>
<trkpt lat="45.0014115" lon="5.4582968">
<ele>834.29</ele>
<time>2019-07-25T08:18:35Z</time>
</trkpt>
<trkpt lat="45.0014222" lon="5.4582792">
<ele>834.15</ele>
<time>2019-07-25T08:18:36Z</time>
</trkpt>
<trkpt lat="45.0014220" lon="5.4582448">
<ele>834.01</ele>
<time>2019-07-25T08:18:37Z</time>
</trkpt>
<trkpt lat="45.0014180" lon="5.4581958">
<ele>833.88</ele>
<time>2019-07-25T08:18:38Z</time>
</trkpt>
<trkpt lat="45.0014226" lon="5.4581326">
<ele>833.73</ele>
<time>2019-07-25T08:18:39Z</time>
</trkpt>
<trkpt lat="45.0014306" lon="5.4580550">
<ele>832.26</ele>
<time>2019-07-25T08:18:40Z</time>
</trkpt>
<trkpt lat="45.0014290" lon="5.4579560">
<ele>831.00</ele>
<time>2019-07-25T08:18:41Z</time>
</trkpt>
<trkpt lat="45.0014154" lon="5.4578856">
<ele>830.90</ele>
<time>2019-07-25T08:18:42Z</time>
</trkpt>
<trkpt lat="45.0014032" lon="5.4578332">
<ele>829.90</ele>
<time>2019-07-25T08:18:43Z</time>
</trkpt>
<trkpt lat="45.0013896" lon="5.4577585">
<ele>829.11</ele>
<time>2019-07-25T08:18:44Z</time>
</trkpt>
<trkpt lat="45.0013974" lon="5.4576513">
<ele>828.47</ele>
<time>2019-07-25T08:18:45Z</time>
</trkpt>
<trkpt lat="45.0013986" lon="5.4575506">
<ele>827.95</ele>
<time>2019-07-25T08:18:46Z</time>
</trkpt>
<trkpt lat="45.0014107" lon="5.4574774">
<ele>827.53</ele>
<time>2019-07-25T08:18:47Z</time>
</trkpt>
<trkpt lat="45.0014605" lon="5.4574059">
<ele>827.21</ele>
<time>2019-07-25T08:18:48Z</time>
</trkpt>
<trkpt lat="45.0014966" lon="5.4573648">
<ele>826.94</ele>
<time>2019-07-25T08:18:49Z</time>
</trkpt>
<trkpt lat="45.0015440" lon="5.4573157">
<ele>826.72</ele>
<time>2019-07-25T08:18:50Z</time>
</trkpt>
<trkpt lat="45.0015795" lon="5.4572728">
<ele>826.56</ele>
<time>2019-07-25T08:18:51Z</time>
</trkpt>
<trkpt lat="45.0016220" lon="5.4572312">
<ele>826.43</ele>
<time>2019-07-25T08:18:52Z</time>
</trkpt>
<trkpt lat="45.0016629" lon="5.4571951">
<ele>826.31</ele>
<time>2019-07-25T08:18:53Z</time>
</trkpt>
<trkpt lat="45.0017111" lon="5.4571159">
<ele>826.21</ele>
<time>2019-07-25T08:18:54Z</time>
</trkpt>
<trkpt lat="45.0017530" lon="5.4570295">
<ele>826.14</ele>
<time>2019-07-25T08:18:55Z</time>
</trkpt>
<trkpt lat="45.0018080" lon="5.4569506">
<ele>826.07</ele>
<time>2019-07-25T08:18:56Z</time>
</trkpt>
<trkpt lat="45.0018691" lon="5.4568810">
<ele>826.00</ele>
<time>2019-07-25T08:18:57Z</time>
</trkpt>
<trkpt lat="45.0019220" lon="5.4568090">
<ele>825.94</ele>
<time>2019-07-25T08:18:58Z</time>
</trkpt>
<trkpt lat="45.0019710" lon="5.4567447">
<ele>825.87</ele>
<time>2019-07-25T08:18:59Z</time>
</trkpt>
<trkpt lat="45.0020223" lon="5.4566663">
<ele>825.79</ele>
<time>2019-07-25T08:19:00Z</time>
</trkpt>
<trkpt lat="45.0020764" lon="5.4566120">
<ele>825.73</ele>
<time>2019-07-25T08:19:01Z</time>
</trkpt>
<trkpt lat="45.0021305" lon="5.4565549">
<ele>825.67</ele>
<time>2019-07-25T08:19:02Z</time>
</trkpt>
<trkpt lat="45.0021875" lon="5.4564900">
<ele>825.60</ele>
<time>2019-07-25T08:19:03Z</time>
</trkpt>
<trkpt lat="45.0022496" lon="5.4564387">
<ele>825.50</ele>
<time>2019-07-25T08:19:04Z</time>
</trkpt>
<trkpt lat="45.0023021" lon="5.4564001">
<ele>825.42</ele>
<time>2019-07-25T08:19:05Z</time>
</trkpt>
<trkpt lat="45.0023538" lon="5.4563412">
<ele>825.33</ele>
<time>2019-07-25T08:19:06Z</time>
</trkpt>
<trkpt lat="45.0024135" lon="5.4562484">
<ele>825.22</ele>
<time>2019-07-25T08:19:07Z</time>
</trkpt>
<trkpt lat="45.0024762" lon="5.4561622">
<ele>825.06</ele>
<time>2019-07-25T08:19:08Z</time>
</trkpt>
<trkpt lat="45.0025478" lon="5.4560780">
<ele>824.88</ele>
<time>2019-07-25T08:19:09Z</time>
</trkpt>
<trkpt lat="45.0026014" lon="5.4559813">
<ele>824.65</ele>
<time>2019-07-25T08:19:10Z</time>
</trkpt>
<trkpt lat="45.0026544" lon="5.4559016">
<ele>824.21</ele>
<time>2019-07-25T08:19:11Z</time>
</trkpt>
<trkpt lat="45.0026951" lon="5.4558249">
<ele>823.75</ele>
<time>2019-07-25T08:19:12Z</time>
</trkpt>
<trkpt lat="45.0027281" lon="5.4557467">
<ele>823.30</ele>
<time>2019-07-25T08:19:13Z</time>
</trkpt>
<trkpt lat="45.0027452" lon="5.4556627">
<ele>822.87</ele>
<time>2019-07-25T08:19:14Z</time>
</trkpt>
<trkpt lat="45.0027492" lon="5.4555707">
<ele>822.35</ele>
<time>2019-07-25T08:19:15Z</time>
</trkpt>
<trkpt lat="45.0027616" lon="5.4554761">
<ele>821.95</ele>
<time>2019-07-25T08:19:16Z</time>
</trkpt>
<trkpt lat="45.0027889" lon="5.4553756">
<ele>821.53</ele>
<time>2019-07-25T08:19:17Z</time>
</trkpt>
<trkpt lat="45.0028184" lon="5.4552664">
<ele>821.08</ele>
<time>2019-07-25T08:19:18Z</time>
</trkpt>
<trkpt lat="45.0028298" lon="5.4551624">
<ele>820.44</ele>
<time>2019-07-25T08:19:19Z</time>
</trkpt>
<trkpt lat="45.0028533" lon="5.4550500">
<ele>819.64</ele>
<time>2019-07-25T08:19:20Z</time>
</trkpt>
<trkpt lat="45.0028990" lon="5.4549249">
<ele>818.58</ele>
<time>2019-07-25T08:19:21Z</time>
</trkpt>
<trkpt lat="45.0029337" lon="5.4547921">
<ele>817.13</ele>
<time>2019-07-25T08:19:22Z</time>
</trkpt>
<trkpt lat="45.0029644" lon="5.4546506">
<ele>814.85</ele>
<time>2019-07-25T08:19:23Z</time>
</trkpt>
<trkpt lat="45.0029941" lon="5.4545095">
<ele>811.49</ele>
<time>2019-07-25T08:19:24Z</time>
</trkpt>
<trkpt lat="45.0030309" lon="5.4543792">
<ele>807.44</ele>
<time>2019-07-25T08:19:25Z</time>
</trkpt>
<trkpt lat="45.0030622" lon="5.4542576">
<ele>803.12</ele>
<time>2019-07-25T08:19:26Z</time>
</trkpt>
<trkpt lat="45.0030802" lon="5.4541294">
<ele>798.77</ele>
<time>2019-07-25T08:19:27Z</time>
</trkpt>
<trkpt lat="45.0030940" lon="5.4540002">
<ele>794.55</ele>
<time>2019-07-25T08:19:28Z</time>
</trkpt>
<trkpt lat="45.0031188" lon="5.4538804">
<ele>790.84</ele>
<time>2019-07-25T08:19:29Z</time>
</trkpt>
<trkpt lat="45.0031432" lon="5.4537686">
<ele>787.46</ele>
<time>2019-07-25T08:19:30Z</time>
</trkpt>
<trkpt lat="45.0031638" lon="5.4536650">
<ele>784.43</ele>
<time>2019-07-25T08:19:31Z</time>
</trkpt>
<trkpt lat="45.0031821" lon="5.4535608">
<ele>781.70</ele>
<time>2019-07-25T08:19:32Z</time>
</trkpt>
<trkpt lat="45.0032000" lon="5.4534533">
<ele>779.24</ele>
<time>2019-07-25T08:19:33Z</time>
</trkpt>
<trkpt lat="45.0032126" lon="5.4533346">
<ele>777.02</ele>
<time>2019-07-25T08:19:34Z</time>
</trkpt>
<trkpt lat="45.0032280" lon="5.4532285">
<ele>774.94</ele>
<time>2019-07-25T08:19:35Z</time>
</trkpt>
<trkpt lat="45.0032544" lon="5.4531272">
<ele>773.07</ele>
<time>2019-07-25T08:19:36Z</time>
</trkpt>
<trkpt lat="45.0032742" lon="5.4530144">
<ele>771.43</ele>
<time>2019-07-25T08:19:37Z</time>
</trkpt>
<trkpt lat="45.0032911" lon="5.4529008">
<ele>769.98</ele>
<time>2019-07-25T08:19:38Z</time>
</trkpt>
<trkpt lat="45.0033059" lon="5.4527867">
<ele>768.70</ele>
<time>2019-07-25T08:19:39Z</time>
</trkpt>
<trkpt lat="45.0033186" lon="5.4526680">
<ele>767.60</ele>
<time>2019-07-25T08:19:40Z</time>
</trkpt>
<trkpt lat="45.0033303" lon="5.4525507">
<ele>766.59</ele>
<time>2019-07-25T08:19:41Z</time>
</trkpt>
<trkpt lat="45.0033434" lon="5.4524352">
<ele>765.68</ele>
<time>2019-07-25T08:19:42Z</time>
</trkpt>
<trkpt lat="45.0033604" lon="5.4523297">
<ele>764.82</ele>
<time>2019-07-25T08:19:43Z</time>
</trkpt>
<trkpt lat="45.0033781" lon="5.4522371">
<ele>764.00</ele>
<time>2019-07-25T08:19:44Z</time>
</trkpt>
<trkpt lat="45.0033948" lon="5.4521445">
<ele>763.20</ele>
<time>2019-07-25T08:19:45Z</time>
</trkpt>
<trkpt lat="45.0034041" lon="5.4520621">
<ele>762.42</ele>
<time>2019-07-25T08:19:46Z</time>
</trkpt>
<trkpt lat="45.0034126" lon="5.4519952">
<ele>761.65</ele>
<time>2019-07-25T08:19:47Z</time>
</trkpt>
<trkpt lat="45.0034175" lon="5.4519470">
<ele>761.58</ele>
<time>2019-07-25T08:19:48Z</time>
</trkpt>
<trkpt lat="45.0034212" lon="5.4518970">
<ele>760.80</ele>
<time>2019-07-25T08:19:49Z</time>
</trkpt>
<trkpt lat="45.0034233" lon="5.4518349">
<ele>760.11</ele>
<time>2019-07-25T08:19:50Z</time>
</trkpt>
<trkpt lat="45.0034189" lon="5.4517739">
<ele>759.48</ele>
<time>2019-07-25T08:19:51Z</time>
</trkpt>
<trkpt lat="45.0033973" lon="5.4517156">
<ele>758.89</ele>
<time>2019-07-25T08:19:52Z</time>
</trkpt>
<trkpt lat="45.0033678" lon="5.4516527">
<ele>758.35</ele>
<time>2019-07-25T08:19:53Z</time>
</trkpt>
<trkpt lat="45.0033353" lon="5.4515785">
<ele>757.84</ele>
<time>2019-07-25T08:19:54Z</time>
</trkpt>
<trkpt lat="45.0033012" lon="5.4515067">
<ele>757.35</ele>
<time>2019-07-25T08:19:55Z</time>
</trkpt>
<trkpt lat="45.0032720" lon="5.4514369">
<ele>756.87</ele>
<time>2019-07-25T08:19:56Z</time>
</trkpt>
<trkpt lat="45.0032423" lon="5.4513687">
<ele>756.41</ele>
<time>2019-07-25T08:19:57Z</time>
</trkpt>
<trkpt lat="45.0032051" lon="5.4513024">
<ele>755.94</ele>
<time>2019-07-25T08:19:58Z</time>
</trkpt>
<trkpt lat="45.0031708" lon="5.4512407">
<ele>755.45</ele>
<time>2019-07-25T08:19:59Z</time>
</trkpt>
<trkpt lat="45.0031486" lon="5.4511914">
<ele>755.41</ele>
<time>2019-07-25T08:20:00Z</time>
</trkpt>
<trkpt lat="45.0031471" lon="5.4511515">
<ele>755.36</ele>
<time>2019-07-25T08:20:01Z</time>
</trkpt>
<trkpt lat="45.0031730" lon="5.4511366">
<ele>755.32</ele>
<time>2019-07-25T08:20:02Z</time>
</trkpt>
<trkpt lat="45.0032119" lon="5.4511362">
<ele>755.28</ele>
<time>2019-07-25T08:20:03Z</time>
</trkpt>
<trkpt lat="45.0032415" lon="5.4511638">
<ele>754.86</ele>
<time>2019-07-25T08:20:04Z</time>
</trkpt>
<trkpt lat="45.0032779" lon="5.4512070">
<ele>754.48</ele>
<time>2019-07-25T08:20:05Z</time>
</trkpt>
<trkpt lat="45.0033145" lon="5.4512491">
<ele>754.11</ele>
<time>2019-07-25T08:20:06Z</time>
</trkpt>
<trkpt lat="45.0033472" lon="5.4512949">
<ele>753.76</ele>
<time>2019-07-25T08:20:07Z</time>
</trkpt>
<trkpt lat="45.0033811" lon="5.4513335">
<ele>753.42</ele>
<time>2019-07-25T08:20:08Z</time>
</trkpt>
<trkpt lat="45.0034150" lon="5.4513717">
<ele>753.09</ele>
<time>2019-07-25T08:20:09Z</time>
</trkpt>
<trkpt lat="45.0034476" lon="5.4514063">
<ele>752.77</ele>
<time>2019-07-25T08:20:10Z</time>
</trkpt>
<trkpt lat="45.0034876" lon="5.4514422">
<ele>752.46</ele>
<time>2019-07-25T08:20:11Z</time>
</trkpt>
<trkpt lat="45.0035338" lon="5.4514839">
<ele>752.14</ele>
<time>2019-07-25T08:20:12Z</time>
</trkpt>
<trkpt lat="45.0035797" lon="5.4515250">
<ele>751.81</ele>
<time>2019-07-25T08:20:13Z</time>
</trkpt>
<trkpt lat="45.0036248" lon="5.4515719">
<ele>751.45</ele>
<time>2019-07-25T08:20:14Z</time>
</trkpt>
<trkpt lat="45.0036646" lon="5.4516204">
<ele>751.10</ele>
<time>2019-07-25T08:20:15Z</time>
</trkpt>
<trkpt lat="45.0037034" lon="5.4516698">
<ele>750.74</ele>
<time>2019-07-25T08:20:16Z</time>
</trkpt>
<trkpt lat="45.0037411" lon="5.4517096">
<ele>750.36</ele>
<time>2019-07-25T08:20:17Z</time>
</trkpt>
<trkpt lat="45.0037699" lon="5.4517412">
<ele>750.33</ele>
<time>2019-07-25T08:20:18Z</time>
</trkpt>
<trkpt lat="45.0037939" lon="5.4517645">
<ele>750.30</ele>
<time>2019-07-25T08:20:19Z</time>
</trkpt>
<trkpt lat="45.0038147" lon="5.4517808">
<ele>750.27</ele>
<time>2019-07-25T08:20:20Z</time>
</trkpt>
<trkpt lat="45.0038344" lon="5.4517948">
<ele>750.24</ele>
<time>2019-07-25T08:20:21Z</time>
</trkpt>
<trkpt lat="45.0038500" lon="5.4518064">
<ele>750.21</ele>
<time>2019-07-25T08:20:22Z</time>
</trkpt>
<trkpt lat="45.0038652" lon="5.4518199">
<ele>750.18</ele>
<time>2019-07-25T08:20:23Z</time>
</trkpt>
<trkpt lat="45.0038833" lon="5.4518468">
<ele>750.15</ele>
<time>2019-07-25T08:20:24Z</time>
</trkpt>
<trkpt lat="45.0039057" lon="5.4518851">
<ele>749.85</ele>
<time>2019-07-25T08:20:25Z</time>
</trkpt>
<trkpt lat="45.0039330" lon="5.4519360">
<ele>749.60</ele>
<time>2019-07-25T08:20:26Z</time>
</trkpt>
<trkpt lat="45.0039616" lon="5.4519923">
<ele>749.39</ele>
<time>2019-07-25T08:20:27Z</time>
</trkpt>
<trkpt lat="45.0039958" lon="5.4520557">
<ele>749.21</ele>
<time>2019-07-25T08:20:28Z</time>
</trkpt>
<trkpt lat="45.0040344" lon="5.4521187">
<ele>748.98</ele>
<time>2019-07-25T08:20:29Z</time>
</trkpt>
<trkpt lat="45.0040765" lon="5.4521870">
<ele>748.73</ele>
<time>2019-07-25T08:20:30Z</time>
</trkpt>
<trkpt lat="45.0041174" lon="5.4522528">
<ele>748.45</ele>
<time>2019-07-25T08:20:31Z</time>
</trkpt>
<trkpt lat="45.0041633" lon="5.4523260">
<ele>748.06</ele>
<time>2019-07-25T08:20:32Z</time>
</trkpt>
<trkpt lat="45.0042032" lon="5.4524014">
<ele>747.56</ele>
<time>2019-07-25T08:20:33Z</time>
</trkpt>
<trkpt lat="45.0042364" lon="5.4524827">
<ele>746.97</ele>
<time>2019-07-25T08:20:34Z</time>
</trkpt>
<trkpt lat="45.0042643" lon="5.4525644">
<ele>746.35</ele>
<time>2019-07-25T08:20:35Z</time>
</trkpt>
<trkpt lat="45.0042897" lon="5.4526442">
<ele>745.66</ele>
<time>2019-07-25T08:20:36Z</time>
</trkpt>
<trkpt lat="45.0043159" lon="5.4527216">
<ele>744.95</ele>
<time>2019-07-25T08:20:37Z</time>
</trkpt>
<trkpt lat="45.0043460" lon="5.4527855">
<ele>744.28</ele>
<time>2019-07-25T08:20:38Z</time>
</trkpt>
<trkpt lat="45.0043871" lon="5.4528461">
<ele>743.67</ele>
<time>2019-07-25T08:20:39Z</time>
</trkpt>
<trkpt lat="45.0044435" lon="5.4528999">
<ele>743.14</ele>
<time>2019-07-25T08:20:40Z</time>
</trkpt>
<trkpt lat="45.0044977" lon="5.4529360">
<ele>742.72</ele>
<time>2019-07-25T08:20:41Z</time>
</trkpt>
<trkpt lat="45.0045455" lon="5.4529653">
<ele>742.35</ele>
<time>2019-07-25T08:20:42Z</time>
</trkpt>
<trkpt lat="45.0045893" lon="5.4529799">
<ele>742.03</ele>
<time>2019-07-25T08:20:43Z</time>
</trkpt>
<trkpt lat="45.0046347" lon="5.4529702">
<ele>741.74</ele>
<time>2019-07-25T08:20:44Z</time>
</trkpt>
<trkpt lat="45.0046750" lon="5.4529351">
<ele>741.47</ele>
<time>2019-07-25T08:20:45Z</time>
</trkpt>
<trkpt lat="45.0047126" lon="5.4528779">
<ele>741.22</ele>
<time>2019-07-25T08:20:46Z</time>
</trkpt>
<trkpt lat="45.0047341" lon="5.4528060">
<ele>740.95</ele>
<time>2019-07-25T08:20:47Z</time>
</trkpt>
<trkpt lat="45.0047445" lon="5.4527295">
<ele>740.67</ele>
<time>2019-07-25T08:20:48Z</time>
</trkpt>
<trkpt lat="45.0047647" lon="5.4526519">
<ele>740.34</ele>
<time>2019-07-25T08:20:49Z</time>
</trkpt>
<trkpt lat="45.0047832" lon="5.4525723">
<ele>740.07</ele>
<time>2019-07-25T08:20:50Z</time>
</trkpt>
<trkpt lat="45.0047996" lon="5.4524983">
<ele>739.75</ele>
<time>2019-07-25T08:20:51Z</time>
</trkpt>
<trkpt lat="45.0048218" lon="5.4524237">
<ele>739.46</ele>
<time>2019-07-25T08:20:52Z</time>
</trkpt>
<trkpt lat="45.0048450" lon="5.4523514">
<ele>739.14</ele>
<time>2019-07-25T08:20:53Z</time>
</trkpt>
<trkpt lat="45.0048705" lon="5.4522867">
<ele>738.81</ele>
<time>2019-07-25T08:20:54Z</time>
</trkpt>
<trkpt lat="45.0048925" lon="5.4522299">
<ele>738.47</ele>
<time>2019-07-25T08:20:55Z</time>
</trkpt>
<trkpt lat="45.0049128" lon="5.4521907">
<ele>738.44</ele>
<time>2019-07-25T08:20:56Z</time>
</trkpt>
<trkpt lat="45.0049316" lon="5.4521515">
<ele>738.40</ele>
<time>2019-07-25T08:20:57Z</time>
</trkpt>
<trkpt lat="45.0049501" lon="5.4521085">
<ele>737.99</ele>
<time>2019-07-25T08:20:58Z</time>
</trkpt>
<trkpt lat="45.0049700" lon="5.4520601">
<ele>737.70</ele>
<time>2019-07-25T08:20:59Z</time>
</trkpt>
<trkpt lat="45.0049917" lon="5.4520072">
<ele>737.42</ele>
<time>2019-07-25T08:21:00Z</time>
</trkpt>
<trkpt lat="45.0050121" lon="5.4519533">
<ele>737.14</ele>
<time>2019-07-25T08:21:01Z</time>
</trkpt>
<trkpt lat="45.0050331" lon="5.4518976">
<ele>736.88</ele>
<time>2019-07-25T08:21:02Z</time>
</trkpt>
<trkpt lat="45.0050523" lon="5.4518366">
<ele>736.66</ele>
<time>2019-07-25T08:21:03Z</time>
</trkpt>
<trkpt lat="45.0050594" lon="5.4517643">
<ele>736.65</ele>
<time>2019-07-25T08:21:04Z</time>
</trkpt>
<trkpt lat="45.0050566" lon="5.4516941">
<ele>736.61</ele>
<time>2019-07-25T08:21:05Z</time>
</trkpt>
<trkpt lat="45.0050435" lon="5.4516172">
<ele>736.60</ele>
<time>2019-07-25T08:21:06Z</time>
</trkpt>
<trkpt lat="45.0050178" lon="5.4515448">
<ele>736.54</ele>
<time>2019-07-25T08:21:07Z</time>
</trkpt>
<trkpt lat="45.0049945" lon="5.4514767">
<ele>736.47</ele>
<time>2019-07-25T08:21:08Z</time>
</trkpt>
<trkpt lat="45.0049826" lon="5.4514159">
<ele>736.41</ele>
<time>2019-07-25T08:21:09Z</time>
</trkpt>
<trkpt lat="45.0049706" lon="5.4513631">
<ele>736.40</ele>
<time>2019-07-25T08:21:10Z</time>
</trkpt>
<trkpt lat="45.0049702" lon="5.4513213">
<ele>736.39</ele>
<time>2019-07-25T08:21:11Z</time>
</trkpt>
<trkpt lat="45.0049832" lon="5.4512811">
<ele>736.38</ele>
<time>2019-07-25T08:21:12Z</time>
</trkpt>
<trkpt lat="45.0049936" lon="5.4512356">
<ele>736.25</ele>
<time>2019-07-25T08:21:13Z</time>
</trkpt>
<trkpt lat="45.0050192" lon="5.4511765">
<ele>736.03</ele>
<time>2019-07-25T08:21:14Z</time>
</trkpt>
<trkpt lat="45.0050540" lon="5.4511133">
<ele>735.68</ele>
<time>2019-07-25T08:21:15Z</time>
</trkpt>
<trkpt lat="45.0050796" lon="5.4510536">
<ele>735.26</ele>
<time>2019-07-25T08:21:16Z</time>
</trkpt>
<trkpt lat="45.0050905" lon="5.4509995">
<ele>734.81</ele>
<time>2019-07-25T08:21:17Z</time>
</trkpt>
<trkpt lat="45.0050812" lon="5.4509474">
<ele>734.41</ele>
<time>2019-07-25T08:21:18Z</time>
</trkpt>
<trkpt lat="45.0050614" lon="5.4508943">
<ele>734.05</ele>
<time>2019-07-25T08:21:19Z</time>
</trkpt>
<trkpt lat="45.0050466" lon="5.4508299">
<ele>733.70</ele>
<time>2019-07-25T08:21:20Z</time>
</trkpt>
<trkpt lat="45.0050295" lon="5.4507680">
<ele>733.37</ele>
<time>2019-07-25T08:21:21Z</time>
</trkpt>
<trkpt lat="45.0050191" lon="5.4507138">
<ele>733.10</ele>
<time>2019-07-25T08:21:22Z</time>
</trkpt>
<trkpt lat="45.0050072" lon="5.4506662">
<ele>732.89</ele>
<time>2019-07-25T08:21:23Z</time>
</trkpt>
<trkpt lat="45.0049951" lon="5.4506174">
<ele>732.71</ele>
<time>2019-07-25T08:21:24Z</time>
</trkpt>
<trkpt lat="45.0049889" lon="5.4505616">
<ele>732.54</ele>
<time>2019-07-25T08:21:25Z</time>
</trkpt>
<trkpt lat="45.0049894" lon="5.4505048">
<ele>732.40</ele>
<time>2019-07-25T08:21:26Z</time>
</trkpt>
<trkpt lat="45.0049861" lon="5.4504454">
<ele>732.25</ele>
<time>2019-07-25T08:21:27Z</time>
</trkpt>
<trkpt lat="45.0049823" lon="5.4503903">
<ele>732.24</ele>
<time>2019-07-25T08:21:28Z</time>
</trkpt>
<trkpt lat="45.0049666" lon="5.4503493">
<ele>732.23</ele>
<time>2019-07-25T08:21:29Z</time>
</trkpt>
<trkpt lat="45.0049357" lon="5.4503133">
<ele>732.21</ele>
<time>2019-07-25T08:21:30Z</time>
</trkpt>
<trkpt lat="45.0049053" lon="5.4502818">
<ele>732.19</ele>
<time>2019-07-25T08:21:31Z</time>
</trkpt>
<trkpt lat="45.0048819" lon="5.4502409">
<ele>732.16</ele>
<time>2019-07-25T08:21:32Z</time>
</trkpt>
<trkpt lat="45.0048591" lon="5.4501929">
<ele>732.13</ele>
<time>2019-07-25T08:21:33Z</time>
</trkpt>
<trkpt lat="45.0048367" lon="5.4501502">
<ele>732.10</ele>
<time>2019-07-25T08:21:34Z</time>
</trkpt>
<trkpt lat="45.0048223" lon="5.4501138">
<ele>732.05</ele>
<time>2019-07-25T08:21:35Z</time>
</trkpt>
<trkpt lat="45.0048176" lon="5.4500732">
<ele>732.01</ele>
<time>2019-07-25T08:21:36Z</time>
</trkpt>
<trkpt lat="45.0048115" lon="5.4500299">
<ele>731.97</ele>
<time>2019-07-25T08:21:37Z</time>
</trkpt>
<trkpt lat="45.0048091" lon="5.4499823">
<ele>731.93</ele>
<time>2019-07-25T08:21:38Z</time>
</trkpt>
<trkpt lat="45.0048071" lon="5.4499395">
<ele>731.88</ele>
<time>2019-07-25T08:21:39Z</time>
</trkpt>
<trkpt lat="45.0048028" lon="5.4499014">
<ele>731.84</ele>
<time>2019-07-25T08:21:40Z</time>
</trkpt>
<trkpt lat="45.0047999" lon="5.4498697">
<ele>731.80</ele>
<time>2019-07-25T08:21:41Z</time>
</trkpt>
<trkpt lat="45.0047969" lon="5.4498396">
<ele>731.75</ele>
<time>2019-07-25T08:21:42Z</time>
</trkpt>
<trkpt lat="45.0047956" lon="5.4498025">
<ele>731.71</ele>
<time>2019-07-25T08:21:43Z</time>
</trkpt>
<trkpt lat="45.0047976" lon="5.4497659">
<ele>731.66</ele>
<time>2019-07-25T08:21:44Z</time>
</trkpt>
<trkpt lat="45.0047942" lon="5.4497238">
<ele>731.61</ele>
<time>2019-07-25T08:21:45Z</time>
</trkpt>
<trkpt lat="45.0047827" lon="5.4496821">
<ele>731.55</ele>
<time>2019-07-25T08:21:46Z</time>
</trkpt>
<trkpt lat="45.0047648" lon="5.4496379">
<ele>731.52</ele>
<time>2019-07-25T08:21:47Z</time>
</trkpt>
<trkpt lat="45.0047500" lon="5.4495962">
<ele>731.49</ele>
<time>2019-07-25T08:21:48Z</time>
</trkpt>
<trkpt lat="45.0047366" lon="5.4495565">
<ele>731.47</ele>
<time>2019-07-25T08:21:49Z</time>
</trkpt>
<trkpt lat="45.0047258" lon="5.4495154">
<ele>731.45</ele>
<time>2019-07-25T08:21:50Z</time>
</trkpt>
<trkpt lat="45.0047143" lon="5.4494734">
<ele>731.43</ele>
<time>2019-07-25T08:21:51Z</time>
</trkpt>
<trkpt lat="45.0047054" lon="5.4494371">
<ele>731.42</ele>
<time>2019-07-25T08:21:52Z</time>
</trkpt>
<trkpt lat="45.0046945" lon="5.4494019">
<ele>731.41</ele>
<time>2019-07-25T08:21:53Z</time>
</trkpt>
<trkpt lat="45.0046804" lon="5.4493600">
<ele>731.40</ele>
<time>2019-07-25T08:21:54Z</time>
</trkpt>
<trkpt lat="45.0046650" lon="5.4493149">
<ele>731.39</ele>
<time>2019-07-25T08:21:55Z</time>
</trkpt>
<trkpt lat="45.0046468" lon="5.4492692">
<ele>731.37</ele>
<time>2019-07-25T08:21:56Z</time>
</trkpt>
<trkpt lat="45.0046338" lon="5.4492206">
<ele>731.34</ele>
<time>2019-07-25T08:21:57Z</time>
</trkpt>
<trkpt lat="45.0046242" lon="5.4491724">
<ele>731.31</ele>
<time>2019-07-25T08:21:58Z</time>
</trkpt>
<trkpt lat="45.0046142" lon="5.4491252">
<ele>731.26</ele>
<time>2019-07-25T08:21:59Z</time>
</trkpt>
<trkpt lat="45.0045989" lon="5.4490808">
<ele>731.20</ele>
<time>2019-07-25T08:22:00Z</time>
</trkpt>
<trkpt lat="45.0045779" lon="5.4490392">
<ele>731.13</ele>
<time>2019-07-25T08:22:01Z</time>
</trkpt>
<trkpt lat="45.0045609" lon="5.4489975">
<ele>731.05</ele>
<time>2019-07-25T08:22:02Z</time>
</trkpt>
<trkpt lat="45.0045454" lon="5.4489525">
<ele>730.96</ele>
<time>2019-07-25T08:22:03Z</time>
</trkpt>
<trkpt lat="45.0045291" lon="5.4489062">
<ele>730.87</ele>
<time>2019-07-25T08:22:04Z</time>
</trkpt>
<trkpt lat="45.0045169" lon="5.4488559">
<ele>730.77</ele>
<time>2019-07-25T08:22:05Z</time>
</trkpt>
<trkpt lat="45.0045134" lon="5.4488079">
<ele>730.66</ele>
<time>2019-07-25T08:22:06Z</time>
</trkpt>
<trkpt lat="45.0045082" lon="5.4487635">
<ele>730.56</ele>
<time>2019-07-25T08:22:07Z</time>
</trkpt>
<trkpt lat="45.0044895" lon="5.4487189">
<ele>730.45</ele>
<time>2019-07-25T08:22:08Z</time>
</trkpt>
<trkpt lat="45.0044648" lon="5.4486748">
<ele>730.35</ele>
<time>2019-07-25T08:22:09Z</time>
</trkpt>
<trkpt lat="45.0044464" lon="5.4486284">
<ele>730.23</ele>
<time>2019-07-25T08:22:10Z</time>
</trkpt>
<trkpt lat="45.0044335" lon="5.4485833">
<ele>730.12</ele>
<time>2019-07-25T08:22:11Z</time>
</trkpt>
<trkpt lat="45.0044249" lon="5.4485420">
<ele>729.99</ele>
<time>2019-07-25T08:22:12Z</time>
</trkpt>
<trkpt lat="45.0044100" lon="5.4485008">
<ele>729.90</ele>
<time>2019-07-25T08:22:13Z</time>
</trkpt>
<trkpt lat="45.0043957" lon="5.4484616">
<ele>729.80</ele>
<time>2019-07-25T08:22:14Z</time>
</trkpt>
<trkpt lat="45.0043857" lon="5.4484289">
<ele>729.70</ele>
<time>2019-07-25T08:22:15Z</time>
</trkpt>
<trkpt lat="45.0043775" lon="5.4483956">
<ele>729.59</ele>
<time>2019-07-25T08:22:16Z</time>
</trkpt>
<trkpt lat="45.0043692" lon="5.4483590">
<ele>729.48</ele>
<time>2019-07-25T08:22:17Z</time>
</trkpt>
<trkpt lat="45.0043578" lon="5.4483239">
<ele>729.36</ele>
<time>2019-07-25T08:22:18Z</time>
</trkpt>
<trkpt lat="45.0043463" lon="5.4482934">
<ele>729.25</ele>
<time>2019-07-25T08:22:19Z</time>
</trkpt>
<trkpt lat="45.0043319" lon="5.4482643">
<ele>729.13</ele>
<time>2019-07-25T08:22:20Z</time>
</trkpt>
<trkpt lat="45.0043209" lon="5.4482369">
<ele>729.01</ele>
<time>2019-07-25T08:22:21Z</time>
</trkpt>
<trkpt lat="45.0043131" lon="5.4482171">
<ele>728.89</ele>
<time>2019-07-25T08:22:22Z</time>
</trkpt>
<trkpt lat="45.0043131" lon="5.4482171">
<ele>728.78</ele>
<time>2019-07-25T08:22:23Z</time>
</trkpt>
<trkpt lat="45.0042964" lon="5.4481909">
<ele>728.66</ele>
<time>2019-07-25T08:22:24Z</time>
</trkpt>
<trkpt lat="45.0042833" lon="5.4481785">
<ele>728.54</ele>
<time>2019-07-25T08:22:25Z</time>
</trkpt>
<trkpt lat="45.0042643" lon="5.4481572">
<ele>728.41</ele>
<time>2019-07-25T08:22:26Z</time>
</trkpt>
<trkpt lat="45.0042564" lon="5.4481376">
<ele>728.29</ele>
<time>2019-07-25T08:22:27Z</time>
</trkpt>
<trkpt lat="45.0042537" lon="5.4481112">
<ele>728.16</ele>
<time>2019-07-25T08:22:28Z</time>
</trkpt>
<trkpt lat="45.0042438" lon="5.4480877">
<ele>728.04</ele>
<time>2019-07-25T08:22:29Z</time>
</trkpt>
<trkpt lat="45.0042349" lon="5.4480667">
<ele>727.90</ele>
<time>2019-07-25T08:22:30Z</time>
</trkpt>
<trkpt lat="45.0042263" lon="5.4480494">
<ele>727.77</ele>
<time>2019-07-25T08:22:31Z</time>
</trkpt>
<trkpt lat="45.0042168" lon="5.4480290">
<ele>727.63</ele>
<time>2019-07-25T08:22:32Z</time>
</trkpt>
<trkpt lat="45.0042063" lon="5.4480021">
<ele>727.49</ele>
<time>2019-07-25T08:22:33Z</time>
</trkpt>
<trkpt lat="45.0041976" lon="5.4479752">
<ele>727.35</ele>
<time>2019-07-25T08:22:34Z</time>
</trkpt>
<trkpt lat="45.0041925" lon="5.4479480">
<ele>727.21</ele>
<time>2019-07-25T08:22:35Z</time>
</trkpt>
<trkpt lat="45.0041854" lon="5.4479185">
<ele>727.07</ele>
<time>2019-07-25T08:22:36Z</time>
</trkpt>
<trkpt lat="45.0041755" lon="5.4478951">
<ele>726.93</ele>
<time>2019-07-25T08:22:37Z</time>
</trkpt>
<trkpt lat="45.0041669" lon="5.4478755">
<ele>726.79</ele>
<time>2019-07-25T08:22:38Z</time>
</trkpt>
<trkpt lat="45.0041568" lon="5.4478557">
<ele>726.66</ele>
<time>2019-07-25T08:22:39Z</time>
</trkpt>
<trkpt lat="45.0041458" lon="5.4478340">
<ele>726.52</ele>
<time>2019-07-25T08:22:40Z</time>
</trkpt>
<trkpt lat="45.0041382" lon="5.4478087">
<ele>726.38</ele>
<time>2019-07-25T08:22:41Z</time>
</trkpt>
<trkpt lat="45.0041275" lon="5.4477903">
<ele>726.25</ele>
<time>2019-07-25T08:22:42Z</time>
</trkpt>
<trkpt lat="45.0041215" lon="5.4477705">
<ele>726.12</ele>
<time>2019-07-25T08:22:43Z</time>
</trkpt>
<trkpt lat="45.0041157" lon="5.4477494">
<ele>726.00</ele>
<time>2019-07-25T08:22:44Z</time>
</trkpt>
<trkpt lat="45.0041059" lon="5.4477213">
<ele>725.87</ele>
<time>2019-07-25T08:22:45Z</time>
</trkpt>
<trkpt lat="45.0040970" lon="5.4476962">
<ele>725.76</ele>
<time>2019-07-25T08:22:46Z</time>
</trkpt>
<trkpt lat="45.0040891" lon="5.4476750">
<ele>725.64</ele>
<time>2019-07-25T08:22:47Z</time>
</trkpt>
<trkpt lat="45.0040773" lon="5.4476542">
<ele>725.53</ele>
<time>2019-07-25T08:22:48Z</time>
</trkpt>
<trkpt lat="45.0040623" lon="5.4476307">
<ele>725.43</ele>
<time>2019-07-25T08:22:49Z</time>
</trkpt>
<trkpt lat="45.0040479" lon="5.4475999">
<ele>725.33</ele>
<time>2019-07-25T08:22:50Z</time>
</trkpt>
<trkpt lat="45.0040349" lon="5.4475680">
<ele>725.24</ele>
<time>2019-07-25T08:22:51Z</time>
</trkpt>
<trkpt lat="45.0040233" lon="5.4475384">
<ele>725.15</ele>
<time>2019-07-25T08:22:52Z</time>
</trkpt>
<trkpt lat="45.0040147" lon="5.4475181">
<ele>725.06</ele>
<time>2019-07-25T08:22:53Z</time>
</trkpt>
<trkpt lat="45.0040069" lon="5.4475094">
<ele>724.98</ele>
<time>2019-07-25T08:22:54Z</time>
</trkpt>
<trkpt lat="45.0039920" lon="5.4475111">
<ele>724.90</ele>
<time>2019-07-25T08:22:55Z</time>
</trkpt>
<trkpt lat="45.0039835" lon="5.4475210">
<ele>724.83</ele>
<time>2019-07-25T08:22:56Z</time>
</trkpt>
<trkpt lat="45.0039768" lon="5.4475300">
<ele>724.76</ele>
<time>2019-07-25T08:22:57Z</time>
</trkpt>
<trkpt lat="45.0039670" lon="5.4475389">
<ele>724.69</ele>
<time>2019-07-25T08:22:58Z</time>
</trkpt>
<trkpt lat="45.0039523" lon="5.4475430">
<ele>724.63</ele>
<time>2019-07-25T08:22:59Z</time>
</trkpt>
<trkpt lat="45.0039325" lon="5.4475553">
<ele>724.56</ele>
<time>2019-07-25T08:23:00Z</time>
</trkpt>
<trkpt lat="45.0039094" lon="5.4475539">
<ele>724.50</ele>
<time>2019-07-25T08:23:01Z</time>
</trkpt>
<trkpt lat="45.0038810" lon="5.4475621">
<ele>724.45</ele>
<time>2019-07-25T08:23:02Z</time>
</trkpt>
<trkpt lat="45.0038510" lon="5.4475612">
<ele>724.39</ele>
<time>2019-07-25T08:23:03Z</time>
</trkpt>
<trkpt lat="45.0038236" lon="5.4475521">
<ele>724.33</ele>
<time>2019-07-25T08:23:04Z</time>
</trkpt>
<trkpt lat="45.0037943" lon="5.4475479">
<ele>724.28</ele>
<time>2019-07-25T08:23:05Z</time>
</trkpt>
<trkpt lat="45.0037663" lon="5.4475409">
<ele>724.23</ele>
<time>2019-07-25T08:23:06Z</time>
</trkpt>
<trkpt lat="45.0037364" lon="5.4475245">
<ele>724.18</ele>
<time>2019-07-25T08:23:07Z</time>
</trkpt>
<trkpt lat="45.0037075" lon="5.4475080">
<ele>724.13</ele>
<time>2019-07-25T08:23:08Z</time>
</trkpt>
<trkpt lat="45.0036783" lon="5.4474985">
<ele>724.09</ele>
<time>2019-07-25T08:23:09Z</time>
</trkpt>
<trkpt lat="45.0036487" lon="5.4474978">
<ele>724.05</ele>
<time>2019-07-25T08:23:10Z</time>
</trkpt>
<trkpt lat="45.0036220" lon="5.4474986">
<ele>724.01</ele>
<time>2019-07-25T08:23:11Z</time>
</trkpt>
<trkpt lat="45.0035928" lon="5.4475089">
<ele>723.97</ele>
<time>2019-07-25T08:23:12Z</time>
</trkpt>
<trkpt lat="45.0035642" lon="5.4475220">
<ele>723.94</ele>
<time>2019-07-25T08:23:13Z</time>
</trkpt>
<trkpt lat="45.0035417" lon="5.4475361">
<ele>723.91</ele>
<time>2019-07-25T08:23:14Z</time>
</trkpt>
<trkpt lat="45.0035226" lon="5.4475508">
<ele>723.88</ele>
<time>2019-07-25T08:23:15Z</time>
</trkpt>
<trkpt lat="45.0035024" lon="5.4475659">
<ele>723.85</ele>
<time>2019-07-25T08:23:16Z</time>
</trkpt>
<trkpt lat="45.0034810" lon="5.4475786">
<ele>723.83</ele>
<time>2019-07-25T08:23:17Z</time>
</trkpt>
<trkpt lat="45.0034546" lon="5.4475874">
<ele>723.81</ele>
<time>2019-07-25T08:23:18Z</time>
</trkpt>
<trkpt lat="45.0034302" lon="5.4475974">
<ele>723.80</ele>
<time>2019-07-25T08:23:19Z</time>
</trkpt>
<trkpt lat="45.0034054" lon="5.4476096">
<ele>723.79</ele>
<time>2019-07-25T08:23:20Z</time>
</trkpt>
<trkpt lat="45.0033797" lon="5.4476215">
<ele>723.78</ele>
<time>2019-07-25T08:23:21Z</time>
</trkpt>
<trkpt lat="45.0033529" lon="5.4476312">
<ele>723.77</ele>
<time>2019-07-25T08:23:22Z</time>
</trkpt>
<trkpt lat="45.0033265" lon="5.4476408">
<ele>723.75</ele>
<time>2019-07-25T08:23:23Z</time>
</trkpt>
<trkpt lat="45.0033042" lon="5.4476529">
<ele>723.74</ele>
<time>2019-07-25T08:23:24Z</time>
</trkpt>
<trkpt lat="45.0032808" lon="5.4476619">
<ele>723.73</ele>
<time>2019-07-25T08:23:25Z</time>
</trkpt>
<trkpt lat="45.0032612" lon="5.4476605">
<ele>723.72</ele>
<time>2019-07-25T08:23:26Z</time>
</trkpt>
<trkpt lat="45.0032379" lon="5.4476594">
<ele>723.70</ele>
<time>2019-07-25T08:23:27Z</time>
</trkpt>
<trkpt lat="45.0032123" lon="5.4476525">
<ele>723.69</ele>
<time>2019-07-25T08:23:28Z</time>
</trkpt>
<trkpt lat="45.0031854" lon="5.4476466">
<ele>723.68</ele>
<time>2019-07-25T08:23:29Z</time>
</trkpt>
<trkpt lat="45.0031606" lon="5.4476420">
<ele>723.67</ele>
<time>2019-07-25T08:23:30Z</time>
</trkpt>
<trkpt lat="45.0031388" lon="5.4476359">
<ele>723.66</ele>
<time>2019-07-25T08:23:31Z</time>
</trkpt>
<trkpt lat="45.0031163" lon="5.4476268">
<ele>723.64</ele>
<time>2019-07-25T08:23:32Z</time>
</trkpt>
<trkpt lat="45.0030902" lon="5.4476236">
<ele>723.64</ele>
<time>2019-07-25T08:23:33Z</time>
</trkpt>
<trkpt lat="45.0030600" lon="5.4476132">
<ele>723.64</ele>
<time>2019-07-25T08:23:34Z</time>
</trkpt>
<trkpt lat="45.0030311" lon="5.4476014">
<ele>723.64</ele>
<time>2019-07-25T08:23:35Z</time>
</trkpt>
<trkpt lat="45.0030023" lon="5.4475838">
<ele>723.65</ele>
<time>2019-07-25T08:23:36Z</time>
</trkpt>
<trkpt lat="45.0029766" lon="5.4475820">
<ele>723.67</ele>
<time>2019-07-25T08:23:37Z</time>
</trkpt>
<trkpt lat="45.0029556" lon="5.4475821">
<ele>723.69</ele>
<time>2019-07-25T08:23:38Z</time>
</trkpt>
<trkpt lat="45.0029306" lon="5.4475767">
<ele>723.72</ele>
<time>2019-07-25T08:23:39Z</time>
</trkpt>
<trkpt lat="45.0028985" lon="5.4475668">
<ele>723.74</ele>
<time>2019-07-25T08:23:40Z</time>
</trkpt>
<trkpt lat="45.0028675" lon="5.4475574">
<ele>723.76</ele>
<time>2019-07-25T08:23:41Z</time>
</trkpt>
<trkpt lat="45.0028380" lon="5.4475411">
<ele>723.78</ele>
<time>2019-07-25T08:23:42Z</time>
</trkpt>
<trkpt lat="45.0028142" lon="5.4475309">
<ele>723.80</ele>
<time>2019-07-25T08:23:43Z</time>
</trkpt>
<trkpt lat="45.0027901" lon="5.4475368">
<ele>723.83</ele>
<time>2019-07-25T08:23:44Z</time>
</trkpt>
<trkpt lat="45.0027741" lon="5.4475417">
<ele>723.85</ele>
<time>2019-07-25T08:23:45Z</time>
</trkpt>
<trkpt lat="45.0027741" lon="5.4475417">
<ele>723.88</ele>
<time>2019-07-25T08:23:46Z</time>
</trkpt>
<trkpt lat="45.0027741" lon="5.4475417">
<ele>723.92</ele>
<time>2019-07-25T08:23:47Z</time>
</trkpt>
<trkpt lat="45.0027741" lon="5.4475417">
<ele>723.93</ele>
<time>2019-07-25T08:23:48Z</time>
</trkpt>
<trkpt lat="45.0027741" lon="5.4475417">
<ele>723.93</ele>
<time>2019-07-25T08:23:49Z</time>
</trkpt>
<trkpt lat="45.0027741" lon="5.4475417">
<ele>723.94</ele>
<time>2019-07-25T08:23:50Z</time>
</trkpt>
<trkpt lat="45.0027741" lon="5.4475417">
<ele>723.95</ele>
<time>2019-07-25T08:23:51Z</time>
</trkpt>
<trkpt lat="45.0027741" lon="5.4475417">
<ele>723.96</ele>
<time>2019-07-25T08:23:52Z</time>
</trkpt>
<trkpt lat="45.0027741" lon="5.4475417">
<ele>723.98</ele>
<time>2019-07-25T08:23:53Z</time>
</trkpt>
<trkpt lat="45.0027741" lon="5.4475417">
<ele>723.99</ele>
<time>2019-07-25T08:23:54Z</time>
</trkpt>
<trkpt lat="45.0027741" lon="5.4475417">
<ele>724.01</ele>
<time>2019-07-25T08:23:55Z</time>
</trkpt>
<trkpt lat="45.0027741" lon="5.4475417">
<ele>724.02</ele>
<time>2019-07-25T08:23:56Z</time>
</trkpt>
<trkpt lat="45.0027741" lon="5.4475417">
<ele>724.03</ele>
<time>2019-07-25T08:23:57Z</time>
</trkpt>
<trkpt lat="45.0027741" lon="5.4475417">
<ele>724.05</ele>
<time>2019-07-25T08:23:58Z</time>
</trkpt>
<trkpt lat="45.0027741" lon="5.4475417">
<ele>724.20</ele>
<time>2019-07-25T08:23:59Z</time>
</trkpt>
<trkpt lat="45.0027741" lon="5.4475417">
<ele>724.21</ele>
<time>2019-07-25T08:24:00Z</time>
</trkpt>
<trkpt lat="45.0027741" lon="5.4475417">
<ele>724.23</ele>
<time>2019-07-25T08:24:01Z</time>
</trkpt>
<trkpt lat="45.0027741" lon="5.4475417">
<ele>724.25</ele>
<time>2019-07-25T08:24:02Z</time>
</trkpt>
<trkpt lat="45.0027741" lon="5.4475417">
<ele>724.26</ele>
<time>2019-07-25T08:24:03Z</time>
</trkpt>
<trkpt lat="45.0027741" lon="5.4475417">
<ele>724.28</ele>
<time>2019-07-25T08:24:04Z</time>
</trkpt>
<trkpt lat="45.0027741" lon="5.4475417">
<ele>724.30</ele>
<time>2019-07-25T08:24:05Z</time>
</trkpt>
<trkpt lat="45.0027741" lon="5.4475417">
<ele>724.32</ele>
<time>2019-07-25T08:24:06Z</time>
</trkpt>
<trkpt lat="45.0027437" lon="5.4475276">
<ele>724.49</ele>
<time>2019-07-25T08:24:07Z</time>
</trkpt>
<trkpt lat="45.0027279" lon="5.4475318">
<ele>724.67</ele>
<time>2019-07-25T08:24:08Z</time>
</trkpt>
<trkpt lat="45.0027115" lon="5.4475315">
<ele>724.83</ele>
<time>2019-07-25T08:24:09Z</time>
</trkpt>
<trkpt lat="45.0027115" lon="5.4475315">
<ele>724.99</ele>
<time>2019-07-25T08:24:10Z</time>
</trkpt>
<trkpt lat="45.0027115" lon="5.4475315">
<ele>725.01</ele>
<time>2019-07-25T08:24:11Z</time>
</trkpt>
<trkpt lat="45.0027115" lon="5.4475315">
<ele>725.16</ele>
<time>2019-07-25T08:24:12Z</time>
</trkpt>
<trkpt lat="45.0027115" lon="5.4475315">
<ele>725.31</ele>
<time>2019-07-25T08:24:13Z</time>
</trkpt>
<trkpt lat="45.0027115" lon="5.4475315">
<ele>725.32</ele>
<time>2019-07-25T08:24:14Z</time>
</trkpt>
<trkpt lat="45.0027115" lon="5.4475315">
<ele>725.34</ele>
<time>2019-07-25T08:24:15Z</time>
</trkpt>
<trkpt lat="45.0027115" lon="5.4475315">
<ele>725.47</ele>
<time>2019-07-25T08:24:16Z</time>
</trkpt>
<trkpt lat="45.0027115" lon="5.4475315">
<ele>725.48</ele>
<time>2019-07-25T08:24:17Z</time>
</trkpt>
<trkpt lat="45.0027115" lon="5.4475315">
<ele>725.50</ele>
<time>2019-07-25T08:24:18Z</time>
</trkpt>
<trkpt lat="45.0027115" lon="5.4475315">
<ele>725.51</ele>
<time>2019-07-25T08:24:19Z</time>
</trkpt>
<trkpt lat="45.0027115" lon="5.4475315">
<ele>725.53</ele>
<time>2019-07-25T08:24:20Z</time>
</trkpt>
<trkpt lat="45.0027115" lon="5.4475315">
<ele>725.54</ele>
<time>2019-07-25T08:24:21Z</time>
</trkpt>
<trkpt lat="45.0027115" lon="5.4475315">
<ele>725.55</ele>
<time>2019-07-25T08:24:22Z</time>
</trkpt>
<trkpt lat="45.0027115" lon="5.4475315">
<ele>725.57</ele>
<time>2019-07-25T08:24:23Z</time>
</trkpt>
<trkpt lat="45.0027115" lon="5.4475315">
<ele>725.58</ele>
<time>2019-07-25T08:24:24Z</time>
</trkpt>
<trkpt lat="45.0027115" lon="5.4475315">
<ele>725.59</ele>
<time>2019-07-25T08:24:25Z</time>
</trkpt>
<trkpt lat="45.0027115" lon="5.4475315">
<ele>725.61</ele>
<time>2019-07-25T08:24:26Z</time>
</trkpt>
<trkpt lat="45.0027115" lon="5.4475315">
<ele>725.62</ele>
<time>2019-07-25T08:24:27Z</time>
</trkpt>
<trkpt lat="45.0027115" lon="5.4475315">
<ele>725.64</ele>
<time>2019-07-25T08:24:28Z</time>
</trkpt>
<trkpt lat="45.0027115" lon="5.4475315">
<ele>725.65</ele>
<time>2019-07-25T08:24:29Z</time>
</trkpt>
<trkpt lat="45.0027115" lon="5.4475315">
<ele>725.67</ele>
<time>2019-07-25T08:24:30Z</time>
</trkpt>
<trkpt lat="45.0027115" lon="5.4475315">
<ele>725.68</ele>
<time>2019-07-25T08:24:31Z</time>
</trkpt>
<trkpt lat="45.0027115" lon="5.4475315">
<ele>725.70</ele>
<time>2019-07-25T08:24:32Z</time>
</trkpt>
<trkpt lat="45.0027115" lon="5.4475315">
<ele>725.71</ele>
<time>2019-07-25T08:24:33Z</time>
</trkpt>
<trkpt lat="45.0027115" lon="5.4475315">
<ele>725.73</ele>
<time>2019-07-25T08:24:34Z</time>
</trkpt>
<trkpt lat="45.0027115" lon="5.4475315">
<ele>725.75</ele>
<time>2019-07-25T08:24:35Z</time>
</trkpt>
<trkpt lat="45.0027115" lon="5.4475315">
<ele>725.76</ele>
<time>2019-07-25T08:24:36Z</time>
</trkpt>
<trkpt lat="45.0027115" lon="5.4475315">
<ele>725.78</ele>
<time>2019-07-25T08:24:37Z</time>
</trkpt>
<trkpt lat="45.0027115" lon="5.4475315">
<ele>725.80</ele>
<time>2019-07-25T08:24:38Z</time>
</trkpt>
<trkpt lat="45.0027115" lon="5.4475315">
<ele>725.81</ele>
<time>2019-07-25T08:24:39Z</time>
</trkpt>
<trkpt lat="45.0027115" lon="5.4475315">
<ele>725.83</ele>
<time>2019-07-25T08:24:40Z</time>
</trkpt>
<trkpt lat="45.0027115" lon="5.4475315">
<ele>725.85</ele>
<time>2019-07-25T08:24:41Z</time>
</trkpt>
<trkpt lat="45.0027115" lon="5.4475315">
<ele>725.86</ele>
<time>2019-07-25T08:24:42Z</time>
</trkpt>
<trkpt lat="45.0027115" lon="5.4475315">
<ele>725.88</ele>
<time>2019-07-25T08:24:43Z</time>
</trkpt>
<trkpt lat="45.0027115" lon="5.4475315">
<ele>725.90</ele>
<time>2019-07-25T08:24:44Z</time>
</trkpt>
<trkpt lat="45.0027115" lon="5.4475315">
<ele>725.91</ele>
<time>2019-07-25T08:24:45Z</time>
</trkpt>
<trkpt lat="45.0027115" lon="5.4475315">
<ele>725.93</ele>
<time>2019-07-25T08:24:46Z</time>
</trkpt>
<trkpt lat="45.0027115" lon="5.4475315">
<ele>725.95</ele>
<time>2019-07-25T08:24:47Z</time>
</trkpt>
<trkpt lat="45.0027115" lon="5.4475315">
<ele>725.97</ele>
<time>2019-07-25T08:24:48Z</time>
</trkpt>
<trkpt lat="45.0027115" lon="5.4475315">
<ele>725.98</ele>
<time>2019-07-25T08:24:49Z</time>
</trkpt>
<trkpt lat="45.0027115" lon="5.4475315">
<ele>726.00</ele>
<time>2019-07-25T08:24:50Z</time>
</trkpt>
<trkpt lat="45.0027115" lon="5.4475315">
<ele>726.02</ele>
<time>2019-07-25T08:24:51Z</time>
</trkpt>
<trkpt lat="45.0027115" lon="5.4475315">
<ele>726.04</ele>
<time>2019-07-25T08:24:52Z</time>
</trkpt>
<trkpt lat="45.0027115" lon="5.4475315">
<ele>726.05</ele>
<time>2019-07-25T08:24:53Z</time>
</trkpt>
<trkpt lat="45.0027115" lon="5.4475315">
<ele>726.07</ele>
<time>2019-07-25T08:24:54Z</time>
</trkpt>
<trkpt lat="45.0027115" lon="5.4475315">
<ele>726.09</ele>
<time>2019-07-25T08:24:55Z</time>
</trkpt>
<trkpt lat="45.0027115" lon="5.4475315">
<ele>726.11</ele>
<time>2019-07-25T08:24:56Z</time>
</trkpt>
<trkpt lat="45.0027115" lon="5.4475315">
<ele>726.13</ele>
<time>2019-07-25T08:24:57Z</time>
</trkpt>
<trkpt lat="45.0027115" lon="5.4475315">
<ele>726.15</ele>
<time>2019-07-25T08:24:58Z</time>
</trkpt>
<trkpt lat="45.0027115" lon="5.4475315">
<ele>726.17</ele>
<time>2019-07-25T08:24:59Z</time>
</trkpt>
<trkpt lat="45.0027115" lon="5.4475315">
<ele>726.18</ele>
<time>2019-07-25T08:25:00Z</time>
</trkpt>
<trkpt lat="45.0027115" lon="5.4475315">
<ele>726.20</ele>
<time>2019-07-25T08:25:01Z</time>
</trkpt>
<trkpt lat="45.0027115" lon="5.4475315">
<ele>726.22</ele>
<time>2019-07-25T08:25:02Z</time>
</trkpt>
<trkpt lat="45.0027115" lon="5.4475315">
<ele>726.24</ele>
<time>2019-07-25T08:25:03Z</time>
</trkpt>
<trkpt lat="45.0027115" lon="5.4475315">
<ele>726.26</ele>
<time>2019-07-25T08:25:04Z</time>
</trkpt>
<trkpt lat="45.0027115" lon="5.4475315">
<ele>726.28</ele>
<time>2019-07-25T08:25:05Z</time>
</trkpt>
<trkpt lat="45.0027115" lon="5.4475315">
<ele>726.29</ele>
<time>2019-07-25T08:25:06Z</time>
</trkpt>
<trkpt lat="45.0027115" lon="5.4475315">
<ele>726.31</ele>
<time>2019-07-25T08:25:07Z</time>
</trkpt>
<trkpt lat="45.0027115" lon="5.4475315">
<ele>726.33</ele>
<time>2019-07-25T08:25:08Z</time>
</trkpt>
<trkpt lat="45.0027115" lon="5.4475315">
<ele>726.35</ele>
<time>2019-07-25T08:25:09Z</time>
</trkpt>
<trkpt lat="45.0027115" lon="5.4475315">
<ele>726.37</ele>
<time>2019-07-25T08:25:10Z</time>
</trkpt>
<trkpt lat="45.0027115" lon="5.4475315">
<ele>726.39</ele>
<time>2019-07-25T08:25:11Z</time>
</trkpt>
<trkpt lat="45.0027115" lon="5.4475315">
<ele>726.41</ele>
<time>2019-07-25T08:25:12Z</time>
</trkpt>
<trkpt lat="45.0027115" lon="5.4475315">
<ele>726.43</ele>
<time>2019-07-25T08:25:13Z</time>
</trkpt>
<trkpt lat="45.0027115" lon="5.4475315">
<ele>726.45</ele>
<time>2019-07-25T08:25:14Z</time>
</trkpt>
<trkpt lat="45.0027115" lon="5.4475315">
<ele>726.46</ele>
<time>2019-07-25T08:25:15Z</time>
</trkpt>
<trkpt lat="45.0027115" lon="5.4475315">
<ele>726.48</ele>
<time>2019-07-25T08:25:16Z</time>
</trkpt>
<trkpt lat="45.0027115" lon="5.4475315">
<ele>726.50</ele>
<time>2019-07-25T08:25:17Z</time>
</trkpt>
<trkpt lat="45.0027115" lon="5.4475315">
<ele>726.52</ele>
<time>2019-07-25T08:25:18Z</time>
</trkpt>
<trkpt lat="45.0027115" lon="5.4475315">
<ele>726.54</ele>
<time>2019-07-25T08:25:19Z</time>
</trkpt>
<trkpt lat="45.0027115" lon="5.4475315">
<ele>726.56</ele>
<time>2019-07-25T08:25:20Z</time>
</trkpt>
<trkpt lat="45.0027115" lon="5.4475315">
<ele>726.58</ele>
<time>2019-07-25T08:25:21Z</time>
</trkpt>
<trkpt lat="45.0027115" lon="5.4475315">
<ele>726.60</ele>
<time>2019-07-25T08:25:22Z</time>
</trkpt>
<trkpt lat="45.0027115" lon="5.4475315">
<ele>726.62</ele>
<time>2019-07-25T08:25:23Z</time>
</trkpt>
<trkpt lat="45.0027115" lon="5.4475315">
<ele>726.64</ele>
<time>2019-07-25T08:25:24Z</time>
</trkpt>
<trkpt lat="45.0027115" lon="5.4475315">
<ele>726.66</ele>
<time>2019-07-25T08:25:25Z</time>
</trkpt>
<trkpt lat="45.0027115" lon="5.4475315">
<ele>726.68</ele>
<time>2019-07-25T08:25:26Z</time>
</trkpt>
<trkpt lat="45.0027115" lon="5.4475315">
<ele>726.70</ele>
<time>2019-07-25T08:25:27Z</time>
</trkpt>
<trkpt lat="45.0027115" lon="5.4475315">
<ele>726.72</ele>
<time>2019-07-25T08:25:28Z</time>
</trkpt>
<trkpt lat="45.0027115" lon="5.4475315">
<ele>726.74</ele>
<time>2019-07-25T08:25:29Z</time>
</trkpt>
<trkpt lat="45.0027115" lon="5.4475315">
<ele>726.76</ele>
<time>2019-07-25T08:25:30Z</time>
</trkpt>
<trkpt lat="45.0027115" lon="5.4475315">
<ele>726.78</ele>
<time>2019-07-25T08:25:31Z</time>
</trkpt>
<trkpt lat="45.0027115" lon="5.4475315">
<ele>726.80</ele>
<time>2019-07-25T08:25:32Z</time>
</trkpt>
<trkpt lat="45.0027115" lon="5.4475315">
<ele>726.82</ele>
<time>2019-07-25T08:25:33Z</time>
</trkpt>
<trkpt lat="45.0027115" lon="5.4475315">
<ele>727.03</ele>
<time>2019-07-25T08:25:34Z</time>
</trkpt>
<trkpt lat="45.0026801" lon="5.4475067">
<ele>727.23</ele>
<time>2019-07-25T08:25:35Z</time>
</trkpt>
<trkpt lat="45.0026696" lon="5.4475008">
<ele>727.42</ele>
<time>2019-07-25T08:25:36Z</time>
</trkpt>
<trkpt lat="45.0026564" lon="5.4474976">
<ele>727.62</ele>
<time>2019-07-25T08:25:37Z</time>
</trkpt>
<trkpt lat="45.0026439" lon="5.4474960">
<ele>727.80</ele>
<time>2019-07-25T08:25:38Z</time>
</trkpt>
<trkpt lat="45.0026184" lon="5.4474912">
<ele>727.98</ele>
<time>2019-07-25T08:25:39Z</time>
</trkpt>
<trkpt lat="45.0025926" lon="5.4474851">
<ele>728.15</ele>
<time>2019-07-25T08:25:40Z</time>
</trkpt>
<trkpt lat="45.0025724" lon="5.4474828">
<ele>728.32</ele>
<time>2019-07-25T08:25:41Z</time>
</trkpt>
<trkpt lat="45.0025570" lon="5.4474818">
<ele>728.49</ele>
<time>2019-07-25T08:25:42Z</time>
</trkpt>
<trkpt lat="45.0025342" lon="5.4474807">
<ele>728.65</ele>
<time>2019-07-25T08:25:43Z</time>
</trkpt>
<trkpt lat="45.0025096" lon="5.4474777">
<ele>728.81</ele>
<time>2019-07-25T08:25:44Z</time>
</trkpt>
<trkpt lat="45.0024844" lon="5.4474753">
<ele>728.96</ele>
<time>2019-07-25T08:25:45Z</time>
</trkpt>
<trkpt lat="45.0024552" lon="5.4474789">
<ele>729.12</ele>
<time>2019-07-25T08:25:46Z</time>
</trkpt>
<trkpt lat="45.0024263" lon="5.4474807">
<ele>729.27</ele>
<time>2019-07-25T08:25:47Z</time>
</trkpt>
<trkpt lat="45.0023971" lon="5.4474836">
<ele>729.41</ele>
<time>2019-07-25T08:25:48Z</time>
</trkpt>
<trkpt lat="45.0023730" lon="5.4474828">
<ele>729.55</ele>
<time>2019-07-25T08:25:49Z</time>
</trkpt>
<trkpt lat="45.0023488" lon="5.4474856">
<ele>729.69</ele>
<time>2019-07-25T08:25:50Z</time>
</trkpt>
<trkpt lat="45.0023216" lon="5.4474861">
<ele>729.83</ele>
<time>2019-07-25T08:25:51Z</time>
</trkpt>
<trkpt lat="45.0022884" lon="5.4474819">
<ele>729.96</ele>
<time>2019-07-25T08:25:52Z</time>
</trkpt>
<trkpt lat="45.0022580" lon="5.4474800">
<ele>730.09</ele>
<time>2019-07-25T08:25:53Z</time>
</trkpt>
<trkpt lat="45.0022346" lon="5.4474783">
<ele>730.22</ele>
<time>2019-07-25T08:25:54Z</time>
</trkpt>
<trkpt lat="45.0022016" lon="5.4474737">
<ele>730.34</ele>
<time>2019-07-25T08:25:55Z</time>
</trkpt>
<trkpt lat="45.0021731" lon="5.4474666">
<ele>730.46</ele>
<time>2019-07-25T08:25:56Z</time>
</trkpt>
<trkpt lat="45.0021467" lon="5.4474607">
<ele>730.58</ele>
<time>2019-07-25T08:25:57Z</time>
</trkpt>
<trkpt lat="45.0021167" lon="5.4474492">
<ele>730.69</ele>
<time>2019-07-25T08:25:58Z</time>
</trkpt>
<trkpt lat="45.0020939" lon="5.4474412">
<ele>730.81</ele>
<time>2019-07-25T08:25:59Z</time>
</trkpt>
<trkpt lat="45.0020678" lon="5.4474273">
<ele>730.92</ele>
<time>2019-07-25T08:26:00Z</time>
</trkpt>
<trkpt lat="45.0020416" lon="5.4474059">
<ele>731.03</ele>
<time>2019-07-25T08:26:01Z</time>
</trkpt>
<trkpt lat="45.0020113" lon="5.4473789">
<ele>731.13</ele>
<time>2019-07-25T08:26:02Z</time>
</trkpt>
<trkpt lat="45.0019809" lon="5.4473492">
<ele>731.24</ele>
<time>2019-07-25T08:26:03Z</time>
</trkpt>
<trkpt lat="45.0019556" lon="5.4473236">
<ele>731.34</ele>
<time>2019-07-25T08:26:04Z</time>
</trkpt>
<trkpt lat="45.0019296" lon="5.4473068">
<ele>731.44</ele>
<time>2019-07-25T08:26:05Z</time>
</trkpt>
<trkpt lat="45.0019086" lon="5.4472889">
<ele>731.53</ele>
<time>2019-07-25T08:26:06Z</time>
</trkpt>
<trkpt lat="45.0018939" lon="5.4472684">
<ele>731.63</ele>
<time>2019-07-25T08:26:07Z</time>
</trkpt>
<trkpt lat="45.0018839" lon="5.4472575">
<ele>731.72</ele>
<time>2019-07-25T08:26:08Z</time>
</trkpt>
<trkpt lat="45.0018745" lon="5.4472441">
<ele>731.82</ele>
<time>2019-07-25T08:26:09Z</time>
</trkpt>
<trkpt lat="45.0018611" lon="5.4472242">
<ele>731.91</ele>
<time>2019-07-25T08:26:10Z</time>
</trkpt>
<trkpt lat="45.0018446" lon="5.4472051">
<ele>732.00</ele>
<time>2019-07-25T08:26:11Z</time>
</trkpt>
<trkpt lat="45.0018301" lon="5.4471891">
<ele>732.09</ele>
<time>2019-07-25T08:26:12Z</time>
</trkpt>
<trkpt lat="45.0018214" lon="5.4471783">
<ele>732.17</ele>
<time>2019-07-25T08:26:13Z</time>
</trkpt>
<trkpt lat="45.0018086" lon="5.4471627">
<ele>732.26</ele>
<time>2019-07-25T08:26:14Z</time>
</trkpt>
<trkpt lat="45.0017940" lon="5.4471472">
<ele>732.34</ele>
<time>2019-07-25T08:26:15Z</time>
</trkpt>
<trkpt lat="45.0017835" lon="5.4471365">
<ele>732.42</ele>
<time>2019-07-25T08:26:16Z</time>
</trkpt>
<trkpt lat="45.0017722" lon="5.4471231">
<ele>732.50</ele>
<time>2019-07-25T08:26:17Z</time>
</trkpt>
<trkpt lat="45.0017581" lon="5.4471063">
<ele>732.58</ele>
<time>2019-07-25T08:26:18Z</time>
</trkpt>
<trkpt lat="45.0017400" lon="5.4470908">
<ele>732.65</ele>
<time>2019-07-25T08:26:19Z</time>
</trkpt>
<trkpt lat="45.0017181" lon="5.4470726">
<ele>732.73</ele>
<time>2019-07-25T08:26:20Z</time>
</trkpt>
<trkpt lat="45.0016969" lon="5.4470555">
<ele>732.80</ele>
<time>2019-07-25T08:26:21Z</time>
</trkpt>
<trkpt lat="45.0016738" lon="5.4470400">
<ele>732.87</ele>
<time>2019-07-25T08:26:22Z</time>
</trkpt>
<trkpt lat="45.0016559" lon="5.4470268">
<ele>732.95</ele>
<time>2019-07-25T08:26:23Z</time>
</trkpt>
<trkpt lat="45.0016360" lon="5.4470165">
<ele>733.01</ele>
<time>2019-07-25T08:26:24Z</time>
</trkpt>
<trkpt lat="45.0016258" lon="5.4470104">
<ele>733.08</ele>
<time>2019-07-25T08:26:25Z</time>
</trkpt>
<trkpt lat="45.0016105" lon="5.4470006">
<ele>733.15</ele>
<time>2019-07-25T08:26:26Z</time>
</trkpt>
<trkpt lat="45.0015838" lon="5.4469903">
<ele>733.21</ele>
<time>2019-07-25T08:26:27Z</time>
</trkpt>
<trkpt lat="45.0015598" lon="5.4469780">
<ele>733.28</ele>
<time>2019-07-25T08:26:28Z</time>
</trkpt>
<trkpt lat="45.0015362" lon="5.4469673">
<ele>733.34</ele>
<time>2019-07-25T08:26:29Z</time>
</trkpt>
<trkpt lat="45.0015031" lon="5.4469514">
<ele>733.40</ele>
<time>2019-07-25T08:26:30Z</time>
</trkpt>
<trkpt lat="45.0014729" lon="5.4469438">
<ele>733.46</ele>
<time>2019-07-25T08:26:31Z</time>
</trkpt>
<trkpt lat="45.0014433" lon="5.4469417">
<ele>733.52</ele>
<time>2019-07-25T08:26:32Z</time>
</trkpt>
<trkpt lat="45.0014107" lon="5.4469415">
<ele>733.58</ele>
<time>2019-07-25T08:26:33Z</time>
</trkpt>
<trkpt lat="45.0013746" lon="5.4469388">
<ele>733.63</ele>
<time>2019-07-25T08:26:34Z</time>
</trkpt>
<trkpt lat="45.0013425" lon="5.4469400">
<ele>733.69</ele>
<time>2019-07-25T08:26:35Z</time>
</trkpt>
<trkpt lat="45.0013195" lon="5.4469445">
<ele>733.74</ele>
<time>2019-07-25T08:26:36Z</time>
</trkpt>
<trkpt lat="45.0012919" lon="5.4469474">
<ele>733.80</ele>
<time>2019-07-25T08:26:37Z</time>
</trkpt>
<trkpt lat="45.0012660" lon="5.4469517">
<ele>733.85</ele>
<time>2019-07-25T08:26:38Z</time>
</trkpt>
<trkpt lat="45.0012366" lon="5.4469613">
<ele>733.90</ele>
<time>2019-07-25T08:26:39Z</time>
</trkpt>
<trkpt lat="45.0012048" lon="5.4469664">
<ele>733.95</ele>
<time>2019-07-25T08:26:40Z</time>
</trkpt>
<trkpt lat="45.0011712" lon="5.4469705">
<ele>734.00</ele>
<time>2019-07-25T08:26:41Z</time>
</trkpt>
<trkpt lat="45.0011377" lon="5.4469786">
<ele>734.05</ele>
<time>2019-07-25T08:26:42Z</time>
</trkpt>
<trkpt lat="45.0011042" lon="5.4469840">
<ele>734.10</ele>
<time>2019-07-25T08:26:43Z</time>
</trkpt>
<trkpt lat="45.0010737" lon="5.4469896">
<ele>734.14</ele>
<time>2019-07-25T08:26:44Z</time>
</trkpt>
<trkpt lat="45.0010413" lon="5.4469953">
<ele>734.19</ele>
<time>2019-07-25T08:26:45Z</time>
</trkpt>
<trkpt lat="45.0010165" lon="5.4469988">
<ele>734.23</ele>
<time>2019-07-25T08:26:46Z</time>
</trkpt>
<trkpt lat="45.0009898" lon="5.4470016">
<ele>734.27</ele>
<time>2019-07-25T08:26:47Z</time>
</trkpt>
<trkpt lat="45.0009647" lon="5.4470058">
<ele>734.31</ele>
<time>2019-07-25T08:26:48Z</time>
</trkpt>
<trkpt lat="45.0009366" lon="5.4470067">
<ele>734.35</ele>
<time>2019-07-25T08:26:49Z</time>
</trkpt>
<trkpt lat="45.0009082" lon="5.4470089">
<ele>734.39</ele>
<time>2019-07-25T08:26:50Z</time>
</trkpt>
<trkpt lat="45.0008841" lon="5.4470118">
<ele>734.42</ele>
<time>2019-07-25T08:26:51Z</time>
</trkpt>
<trkpt lat="45.0008583" lon="5.4470184">
<ele>734.46</ele>
<time>2019-07-25T08:26:52Z</time>
</trkpt>
<trkpt lat="45.0008350" lon="5.4470245">
<ele>734.49</ele>
<time>2019-07-25T08:26:53Z</time>
</trkpt>
<trkpt lat="45.0008082" lon="5.4470315">
<ele>734.53</ele>
<time>2019-07-25T08:26:54Z</time>
</trkpt>
<trkpt lat="45.0007771" lon="5.4470378">
<ele>734.56</ele>
<time>2019-07-25T08:26:55Z</time>
</trkpt>
<trkpt lat="45.0007526" lon="5.4470417">
<ele>734.59</ele>
<time>2019-07-25T08:26:56Z</time>
</trkpt>
<trkpt lat="45.0007259" lon="5.4470449">
<ele>734.62</ele>
<time>2019-07-25T08:26:57Z</time>
</trkpt>
<trkpt lat="45.0007013" lon="5.4470476">
<ele>734.65</ele>
<time>2019-07-25T08:26:58Z</time>
</trkpt>
<trkpt lat="45.0006747" lon="5.4470485">
<ele>734.68</ele>
<time>2019-07-25T08:26:59Z</time>
</trkpt>
<trkpt lat="45.0006467" lon="5.4470481">
<ele>734.71</ele>
<time>2019-07-25T08:27:00Z</time>
</trkpt>
<trkpt lat="45.0006191" lon="5.4470498">
<ele>734.74</ele>
<time>2019-07-25T08:27:01Z</time>
</trkpt>
<trkpt lat="45.0005894" lon="5.4470567">
<ele>734.77</ele>
<time>2019-07-25T08:27:02Z</time>
</trkpt>
<trkpt lat="45.0005519" lon="5.4470571">
<ele>734.80</ele>
<time>2019-07-25T08:27:03Z</time>
</trkpt>
<trkpt lat="45.0005205" lon="5.4470498">
<ele>734.83</ele>
<time>2019-07-25T08:27:04Z</time>
</trkpt>
<trkpt lat="45.0004856" lon="5.4470361">
<ele>734.87</ele>
<time>2019-07-25T08:27:05Z</time>
</trkpt>
<trkpt lat="45.0004561" lon="5.4470148">
<ele>734.90</ele>
<time>2019-07-25T08:27:06Z</time>
</trkpt>
<trkpt lat="45.0004357" lon="5.4469835">
<ele>734.93</ele>
<time>2019-07-25T08:27:07Z</time>
</trkpt>
<trkpt lat="45.0004261" lon="5.4469463">
<ele>734.96</ele>
<time>2019-07-25T08:27:08Z</time>
</trkpt>
<trkpt lat="45.0004157" lon="5.4469074">
<ele>735.00</ele>
<time>2019-07-25T08:27:09Z</time>
</trkpt>
<trkpt lat="45.0004076" lon="5.4468702">
<ele>735.03</ele>
<time>2019-07-25T08:27:10Z</time>
</trkpt>
<trkpt lat="45.0004052" lon="5.4468308">
<ele>735.07</ele>
<time>2019-07-25T08:27:11Z</time>
</trkpt>
<trkpt lat="45.0004037" lon="5.4467949">
<ele>735.11</ele>
<time>2019-07-25T08:27:12Z</time>
</trkpt>
<trkpt lat="45.0004003" lon="5.4467606">
<ele>735.15</ele>
<time>2019-07-25T08:27:13Z</time>
</trkpt>
<trkpt lat="45.0003966" lon="5.4467245">
<ele>735.19</ele>
<time>2019-07-25T08:27:14Z</time>
</trkpt>
<trkpt lat="45.0003949" lon="5.4466859">
<ele>735.23</ele>
<time>2019-07-25T08:27:15Z</time>
</trkpt>
<trkpt lat="45.0003937" lon="5.4466462">
<ele>735.27</ele>
<time>2019-07-25T08:27:16Z</time>
</trkpt>
<trkpt lat="45.0003908" lon="5.4466032">
<ele>735.32</ele>
<time>2019-07-25T08:27:17Z</time>
</trkpt>
<trkpt lat="45.0003860" lon="5.4465604">
<ele>735.36</ele>
<time>2019-07-25T08:27:18Z</time>
</trkpt>
<trkpt lat="45.0003800" lon="5.4465190">
<ele>735.41</ele>
<time>2019-07-25T08:27:19Z</time>
</trkpt>
<trkpt lat="45.0003752" lon="5.4464809">
<ele>735.45</ele>
<time>2019-07-25T08:27:20Z</time>
</trkpt>
<trkpt lat="45.0003735" lon="5.4464468">
<ele>735.50</ele>
<time>2019-07-25T08:27:21Z</time>
</trkpt>
<trkpt lat="45.0003727" lon="5.4464128">
<ele>735.55</ele>
<time>2019-07-25T08:27:22Z</time>
</trkpt>
<trkpt lat="45.0003714" lon="5.4463795">
<ele>735.60</ele>
<time>2019-07-25T08:27:23Z</time>
</trkpt>
<trkpt lat="45.0003667" lon="5.4463455">
<ele>735.65</ele>
<time>2019-07-25T08:27:24Z</time>
</trkpt>
<trkpt lat="45.0003615" lon="5.4463159">
<ele>735.70</ele>
<time>2019-07-25T08:27:25Z</time>
</trkpt>
<trkpt lat="45.0003570" lon="5.4462862">
<ele>735.76</ele>
<time>2019-07-25T08:27:26Z</time>
</trkpt>
<trkpt lat="45.0003530" lon="5.4462535">
<ele>735.81</ele>
<time>2019-07-25T08:27:27Z</time>
</trkpt>
<trkpt lat="45.0003487" lon="5.4462211">
<ele>735.87</ele>
<time>2019-07-25T08:27:28Z</time>
</trkpt>
<trkpt lat="45.0003422" lon="5.4461900">
<ele>735.93</ele>
<time>2019-07-25T08:27:29Z</time>
</trkpt>
<trkpt lat="45.0003351" lon="5.4461654">
<ele>735.98</ele>
<time>2019-07-25T08:27:30Z</time>
</trkpt>
<trkpt lat="45.0003274" lon="5.4461375">
<ele>736.04</ele>
<time>2019-07-25T08:27:31Z</time>
</trkpt>
<trkpt lat="45.0003193" lon="5.4461031">
<ele>736.10</ele>
<time>2019-07-25T08:27:32Z</time>
</trkpt>
<trkpt lat="45.0003142" lon="5.4460718">
<ele>736.15</ele>
<time>2019-07-25T08:27:33Z</time>
</trkpt>
<trkpt lat="45.0003063" lon="5.4460450">
<ele>736.21</ele>
<time>2019-07-25T08:27:34Z</time>
</trkpt>
<trkpt lat="45.0003004" lon="5.4460230">
<ele>736.27</ele>
<time>2019-07-25T08:27:35Z</time>
</trkpt>
<trkpt lat="45.0002955" lon="5.4460082">
<ele>736.32</ele>
<time>2019-07-25T08:27:36Z</time>
</trkpt>
<trkpt lat="45.0002891" lon="5.4459951">
<ele>736.33</ele>
<time>2019-07-25T08:27:37Z</time>
</trkpt>
<trkpt lat="45.0002920" lon="5.4460020">
<ele>736.39</ele>
<time>2019-07-25T08:27:38Z</time>
</trkpt>
<trkpt lat="45.0002958" lon="5.4460097">
<ele>736.40</ele>
<time>2019-07-25T08:27:39Z</time>
</trkpt>
<trkpt lat="45.0002958" lon="5.4460094">
<ele>736.40</ele>
<time>2019-07-25T08:27:40Z</time>
</trkpt>
<trkpt lat="45.0002965" lon="5.4460114">
<ele>736.46</ele>
<time>2019-07-25T08:27:41Z</time>
</trkpt>
<trkpt lat="45.0002961" lon="5.4460120">
<ele>736.52</ele>
<time>2019-07-25T08:27:42Z</time>
</trkpt>
<trkpt lat="45.0002957" lon="5.4460117">
<ele>736.58</ele>
<time>2019-07-25T08:27:43Z</time>
</trkpt>
<trkpt lat="45.0002952" lon="5.4460117">
<ele>736.64</ele>
<time>2019-07-25T08:27:44Z</time>
</trkpt>
<trkpt lat="45.0002944" lon="5.4460079">
<ele>736.64</ele>
<time>2019-07-25T08:27:45Z</time>
</trkpt>
<trkpt lat="45.0002929" lon="5.4460103">
<ele>736.70</ele>
<time>2019-07-25T08:27:46Z</time>
</trkpt>
<trkpt lat="45.0002905" lon="5.4460070">
<ele>736.75</ele>
<time>2019-07-25T08:27:47Z</time>
</trkpt>
<trkpt lat="45.0002882" lon="5.4460052">
<ele>736.80</ele>
<time>2019-07-25T08:27:48Z</time>
</trkpt>
<trkpt lat="45.0002867" lon="5.4460033">
<ele>736.86</ele>
<time>2019-07-25T08:27:49Z</time>
</trkpt>
<trkpt lat="45.0002867" lon="5.4460038">
<ele>736.86</ele>
<time>2019-07-25T08:27:50Z</time>
</trkpt>
<trkpt lat="45.0002862" lon="5.4460031">
<ele>736.87</ele>
<time>2019-07-25T08:27:51Z</time>
</trkpt>
<trkpt lat="45.0002857" lon="5.4460025">
<ele>736.87</ele>
<time>2019-07-25T08:27:52Z</time>
</trkpt>
<trkpt lat="45.0002860" lon="5.4460026">
<ele>736.88</ele>
<time>2019-07-25T08:27:53Z</time>
</trkpt>
<trkpt lat="45.0002862" lon="5.4460026">
<ele>736.89</ele>
<time>2019-07-25T08:27:54Z</time>
</trkpt>
<trkpt lat="45.0002863" lon="5.4460025">
<ele>736.90</ele>
<time>2019-07-25T08:27:55Z</time>
</trkpt>
<trkpt lat="45.0002864" lon="5.4460026">
<ele>736.91</ele>
<time>2019-07-25T08:27:56Z</time>
</trkpt>
<trkpt lat="45.0002866" lon="5.4460026">
<ele>736.92</ele>
<time>2019-07-25T08:27:57Z</time>
</trkpt>
<trkpt lat="45.0002867" lon="5.4460026">
<ele>736.93</ele>
<time>2019-07-25T08:27:58Z</time>
</trkpt>
<trkpt lat="45.0002869" lon="5.4460027">
<ele>736.94</ele>
<time>2019-07-25T08:27:59Z</time>
</trkpt>
<trkpt lat="45.0002872" lon="5.4460028">
<ele>736.95</ele>
<time>2019-07-25T08:28:00Z</time>
</trkpt>
<trkpt lat="45.0002874" lon="5.4460029">
<ele>736.96</ele>
<time>2019-07-25T08:28:01Z</time>
</trkpt>
<trkpt lat="45.0002875" lon="5.4460029">
<ele>736.97</ele>
<time>2019-07-25T08:28:02Z</time>
</trkpt>
<trkpt lat="45.0002877" lon="5.4460028">
<ele>736.99</ele>
<time>2019-07-25T08:28:03Z</time>
</trkpt>
<trkpt lat="45.0002880" lon="5.4460030">
<ele>737.00</ele>
<time>2019-07-25T08:28:04Z</time>
</trkpt>
<trkpt lat="45.0002883" lon="5.4460032">
<ele>737.01</ele>
<time>2019-07-25T08:28:05Z</time>
</trkpt>
<trkpt lat="45.0002885" lon="5.4460033">
<ele>737.03</ele>
<time>2019-07-25T08:28:06Z</time>
</trkpt>
<trkpt lat="45.0002886" lon="5.4460033">
<ele>737.04</ele>
<time>2019-07-25T08:28:07Z</time>
</trkpt>
<trkpt lat="45.0002890" lon="5.4460036">
<ele>737.06</ele>
<time>2019-07-25T08:28:08Z</time>
</trkpt>
<trkpt lat="45.0002890" lon="5.4460036">
<ele>737.08</ele>
<time>2019-07-25T08:28:09Z</time>
</trkpt>
<trkpt lat="45.0002892" lon="5.4460037">
<ele>737.09</ele>
<time>2019-07-25T08:28:10Z</time>
</trkpt>
<trkpt lat="45.0002894" lon="5.4460039">
<ele>737.11</ele>
<time>2019-07-25T08:28:11Z</time>
</trkpt>
<trkpt lat="45.0002896" lon="5.4460041">
<ele>737.13</ele>
<time>2019-07-25T08:28:12Z</time>
</trkpt>
<trkpt lat="45.0002897" lon="5.4460041">
<ele>737.14</ele>
<time>2019-07-25T08:28:13Z</time>
</trkpt>
<trkpt lat="45.0002897" lon="5.4460041">
<ele>737.16</ele>
<time>2019-07-25T08:28:14Z</time>
</trkpt>
<trkpt lat="45.0002898" lon="5.4460042">
<ele>737.18</ele>
<time>2019-07-25T08:28:15Z</time>
</trkpt>
<trkpt lat="45.0002900" lon="5.4460041">
<ele>737.20</ele>
<time>2019-07-25T08:28:16Z</time>
</trkpt>
<trkpt lat="45.0002902" lon="5.4460042">
<ele>737.22</ele>
<time>2019-07-25T08:28:17Z</time>
</trkpt>
<trkpt lat="45.0002902" lon="5.4460042">
<ele>737.23</ele>
<time>2019-07-25T08:28:18Z</time>
</trkpt>
<trkpt lat="45.0002904" lon="5.4460049">
<ele>737.25</ele>
<time>2019-07-25T08:28:19Z</time>
</trkpt>
<trkpt lat="45.0002903" lon="5.4460050">
<ele>737.27</ele>
<time>2019-07-25T08:28:20Z</time>
</trkpt>
<trkpt lat="45.0002905" lon="5.4460049">
<ele>737.29</ele>
<time>2019-07-25T08:28:21Z</time>
</trkpt>
<trkpt lat="45.0002910" lon="5.4460054">
<ele>737.31</ele>
<time>2019-07-25T08:28:22Z</time>
</trkpt>
<trkpt lat="45.0002912" lon="5.4460055">
<ele>737.33</ele>
<time>2019-07-25T08:28:23Z</time>
</trkpt>
<trkpt lat="45.0002911" lon="5.4460054">
<ele>737.35</ele>
<time>2019-07-25T08:28:24Z</time>
</trkpt>
<trkpt lat="45.0002912" lon="5.4460054">
<ele>737.37</ele>
<time>2019-07-25T08:28:25Z</time>
</trkpt>
<trkpt lat="45.0002936" lon="5.4460071">
<ele>737.39</ele>
<time>2019-07-25T08:28:26Z</time>
</trkpt>
<trkpt lat="45.0002970" lon="5.4460099">
<ele>737.58</ele>
<time>2019-07-25T08:28:27Z</time>
</trkpt>
<trkpt lat="45.0003003" lon="5.4460109">
<ele>737.77</ele>
<time>2019-07-25T08:28:28Z</time>
</trkpt>
<trkpt lat="45.0003095" lon="5.4460023">
<ele>737.96</ele>
<time>2019-07-25T08:28:29Z</time>
</trkpt>
<trkpt lat="45.0003113" lon="5.4459958">
<ele>738.15</ele>
<time>2019-07-25T08:28:30Z</time>
</trkpt>
<trkpt lat="45.0003134" lon="5.4459940">
<ele>738.17</ele>
<time>2019-07-25T08:28:31Z</time>
</trkpt>
<trkpt lat="45.0003149" lon="5.4459911">
<ele>738.36</ele>
<time>2019-07-25T08:28:32Z</time>
</trkpt>
<trkpt lat="45.0003138" lon="5.4459914">
<ele>738.38</ele>
<time>2019-07-25T08:28:33Z</time>
</trkpt>
<trkpt lat="45.0003125" lon="5.4459911">
<ele>738.39</ele>
<time>2019-07-25T08:28:34Z</time>
</trkpt>
<trkpt lat="45.0003125" lon="5.4459908">
<ele>738.41</ele>
<time>2019-07-25T08:28:35Z</time>
</trkpt>
<trkpt lat="45.0003123" lon="5.4459912">
<ele>738.43</ele>
<time>2019-07-25T08:28:36Z</time>
</trkpt>
<trkpt lat="45.0003132" lon="5.4459902">
<ele>738.45</ele>
<time>2019-07-25T08:28:37Z</time>
</trkpt>
<trkpt lat="45.0003139" lon="5.4459916">
<ele>738.47</ele>
<time>2019-07-25T08:28:38Z</time>
</trkpt>
<trkpt lat="45.0003129" lon="5.4459951">
<ele>738.49</ele>
<time>2019-07-25T08:28:39Z</time>
</trkpt>
<trkpt lat="45.0003133" lon="5.4459957">
<ele>738.68</ele>
<time>2019-07-25T08:28:40Z</time>
</trkpt>
<trkpt lat="45.0003136" lon="5.4459951">
<ele>738.70</ele>
<time>2019-07-25T08:28:41Z</time>
</trkpt>
<trkpt lat="45.0003134" lon="5.4459953">
<ele>738.72</ele>
<time>2019-07-25T08:28:42Z</time>
</trkpt>
<trkpt lat="45.0003130" lon="5.4459955">
<ele>738.74</ele>
<time>2019-07-25T08:28:43Z</time>
</trkpt>
<trkpt lat="45.0003125" lon="5.4459964">
<ele>738.76</ele>
<time>2019-07-25T08:28:44Z</time>
</trkpt>
<trkpt lat="45.0003095" lon="5.4460002">
<ele>738.95</ele>
<time>2019-07-25T08:28:45Z</time>
</trkpt>
<trkpt lat="45.0003160" lon="5.4459967">
<ele>739.13</ele>
<time>2019-07-25T08:28:46Z</time>
</trkpt>
<trkpt lat="45.0003217" lon="5.4459940">
<ele>739.32</ele>
<time>2019-07-25T08:28:47Z</time>
</trkpt>
<trkpt lat="45.0003235" lon="5.4459895">
<ele>739.49</ele>
<time>2019-07-25T08:28:48Z</time>
</trkpt>
<trkpt lat="45.0003281" lon="5.4459847">
<ele>739.67</ele>
<time>2019-07-25T08:28:49Z</time>
</trkpt>
<trkpt lat="45.0003322" lon="5.4459801">
<ele>739.84</ele>
<time>2019-07-25T08:28:50Z</time>
</trkpt>
<trkpt lat="45.0003311" lon="5.4459788">
<ele>740.01</ele>
<time>2019-07-25T08:28:51Z</time>
</trkpt>
<trkpt lat="45.0003287" lon="5.4459792">
<ele>740.17</ele>
<time>2019-07-25T08:28:52Z</time>
</trkpt>
<trkpt lat="45.0003275" lon="5.4459803">
<ele>740.19</ele>
<time>2019-07-25T08:28:53Z</time>
</trkpt>
<trkpt lat="45.0003303" lon="5.4459819">
<ele>740.20</ele>
<time>2019-07-25T08:28:54Z</time>
</trkpt>
<trkpt lat="45.0003326" lon="5.4459836">
<ele>740.22</ele>
<time>2019-07-25T08:28:55Z</time>
</trkpt>
<trkpt lat="45.0003349" lon="5.4459854">
<ele>740.24</ele>
<time>2019-07-25T08:28:56Z</time>
</trkpt>
<trkpt lat="45.0003353" lon="5.4459853">
<ele>740.25</ele>
<time>2019-07-25T08:28:57Z</time>
</trkpt>
<trkpt lat="45.0003356" lon="5.4459871">
<ele>740.27</ele>
<time>2019-07-25T08:28:58Z</time>
</trkpt>
<trkpt lat="45.0003371" lon="5.4459875">
<ele>740.29</ele>
<time>2019-07-25T08:28:59Z</time>
</trkpt>
<trkpt lat="45.0003391" lon="5.4459871">
<ele>740.30</ele>
<time>2019-07-25T08:29:00Z</time>
</trkpt>
<trkpt lat="45.0003398" lon="5.4459868">
<ele>740.32</ele>
<time>2019-07-25T08:29:01Z</time>
</trkpt>
<trkpt lat="45.0003398" lon="5.4459869">
<ele>740.34</ele>
<time>2019-07-25T08:29:02Z</time>
</trkpt>
<trkpt lat="45.0003401" lon="5.4459870">
<ele>740.35</ele>
<time>2019-07-25T08:29:03Z</time>
</trkpt>
<trkpt lat="45.0003402" lon="5.4459870">
<ele>740.37</ele>
<time>2019-07-25T08:29:04Z</time>
</trkpt>
<trkpt lat="45.0003403" lon="5.4459870">
<ele>740.39</ele>
<time>2019-07-25T08:29:05Z</time>
</trkpt>
<trkpt lat="45.0003406" lon="5.4459871">
<ele>740.40</ele>
<time>2019-07-25T08:29:06Z</time>
</trkpt>
<trkpt lat="45.0003406" lon="5.4459872">
<ele>740.42</ele>
<time>2019-07-25T08:29:07Z</time>
</trkpt>
<trkpt lat="45.0003408" lon="5.4459874">
<ele>740.44</ele>
<time>2019-07-25T08:29:08Z</time>
</trkpt>
<trkpt lat="45.0003410" lon="5.4459875">
<ele>740.46</ele>
<time>2019-07-25T08:29:09Z</time>
</trkpt>
<trkpt lat="45.0003411" lon="5.4459876">
<ele>740.47</ele>
<time>2019-07-25T08:29:10Z</time>
</trkpt>
<trkpt lat="45.0003413" lon="5.4459877">
<ele>740.49</ele>
<time>2019-07-25T08:29:11Z</time>
</trkpt>
<trkpt lat="45.0003415" lon="5.4459878">
<ele>740.51</ele>
<time>2019-07-25T08:29:12Z</time>
</trkpt>
<trkpt lat="45.0003416" lon="5.4459879">
<ele>740.52</ele>
<time>2019-07-25T08:29:13Z</time>
</trkpt>
<trkpt lat="45.0003418" lon="5.4459881">
<ele>740.54</ele>
<time>2019-07-25T08:29:14Z</time>
</trkpt>
<trkpt lat="45.0003419" lon="5.4459881">
<ele>740.55</ele>
<time>2019-07-25T08:29:15Z</time>
</trkpt>
<trkpt lat="45.0003421" lon="5.4459881">
<ele>740.57</ele>
<time>2019-07-25T08:29:16Z</time>
</trkpt>
<trkpt lat="45.0003424" lon="5.4459878">
<ele>740.59</ele>
<time>2019-07-25T08:29:17Z</time>
</trkpt>
<trkpt lat="45.0003427" lon="5.4459879">
<ele>740.60</ele>
<time>2019-07-25T08:29:18Z</time>
</trkpt>
<trkpt lat="45.0003423" lon="5.4459892">
<ele>740.76</ele>
<time>2019-07-25T08:29:19Z</time>
</trkpt>
<trkpt lat="45.0003429" lon="5.4459874">
<ele>740.92</ele>
<time>2019-07-25T08:29:20Z</time>
</trkpt>
<trkpt lat="45.0003432" lon="5.4459867">
<ele>740.94</ele>
<time>2019-07-25T08:29:21Z</time>
</trkpt>
<trkpt lat="45.0003440" lon="5.4459925">
<ele>740.95</ele>
<time>2019-07-25T08:29:22Z</time>
</trkpt>
<trkpt lat="45.0003442" lon="5.4459930">
<ele>740.97</ele>
<time>2019-07-25T08:29:23Z</time>
</trkpt>
<trkpt lat="45.0003442" lon="5.4459934">
<ele>740.99</ele>
<time>2019-07-25T08:29:24Z</time>
</trkpt>
<trkpt lat="45.0003442" lon="5.4459937">
<ele>741.00</ele>
<time>2019-07-25T08:29:25Z</time>
</trkpt>
<trkpt lat="45.0003443" lon="5.4459938">
<ele>741.02</ele>
<time>2019-07-25T08:29:26Z</time>
</trkpt>
<trkpt lat="45.0003443" lon="5.4459945">
<ele>741.04</ele>
<time>2019-07-25T08:29:27Z</time>
</trkpt>
<trkpt lat="45.0003444" lon="5.4459957">
<ele>741.06</ele>
<time>2019-07-25T08:29:28Z</time>
</trkpt>
<trkpt lat="45.0003444" lon="5.4459971">
<ele>741.07</ele>
<time>2019-07-25T08:29:29Z</time>
</trkpt>
<trkpt lat="45.0003444" lon="5.4459974">
<ele>741.09</ele>
<time>2019-07-25T08:29:30Z</time>
</trkpt>
<trkpt lat="45.0003446" lon="5.4459978">
<ele>741.11</ele>
<time>2019-07-25T08:29:31Z</time>
</trkpt>
<trkpt lat="45.0003451" lon="5.4459979">
<ele>741.13</ele>
<time>2019-07-25T08:29:32Z</time>
</trkpt>
<trkpt lat="45.0003454" lon="5.4459979">
<ele>741.15</ele>
<time>2019-07-25T08:29:33Z</time>
</trkpt>
<trkpt lat="45.0003461" lon="5.4459985">
<ele>741.17</ele>
<time>2019-07-25T08:29:34Z</time>
</trkpt>
<trkpt lat="45.0003468" lon="5.4459991">
<ele>741.19</ele>
<time>2019-07-25T08:29:35Z</time>
</trkpt>
<trkpt lat="45.0003476" lon="5.4459988">
<ele>741.21</ele>
<time>2019-07-25T08:29:36Z</time>
</trkpt>
<trkpt lat="45.0003477" lon="5.4459984">
<ele>741.23</ele>
<time>2019-07-25T08:29:37Z</time>
</trkpt>
<trkpt lat="45.0003476" lon="5.4459979">
<ele>741.26</ele>
<time>2019-07-25T08:29:38Z</time>
</trkpt>
<trkpt lat="45.0003474" lon="5.4459977">
<ele>741.28</ele>
<time>2019-07-25T08:29:39Z</time>
</trkpt>
<trkpt lat="45.0003472" lon="5.4459978">
<ele>741.30</ele>
<time>2019-07-25T08:29:40Z</time>
</trkpt>
<trkpt lat="45.0003472" lon="5.4459976">
<ele>741.32</ele>
<time>2019-07-25T08:29:41Z</time>
</trkpt>
<trkpt lat="45.0003471" lon="5.4459980">
<ele>741.34</ele>
<time>2019-07-25T08:29:42Z</time>
</trkpt>
<trkpt lat="45.0003470" lon="5.4459985">
<ele>741.36</ele>
<time>2019-07-25T08:29:43Z</time>
</trkpt>
<trkpt lat="45.0003468" lon="5.4459988">
<ele>741.39</ele>
<time>2019-07-25T08:29:44Z</time>
</trkpt>
<trkpt lat="45.0003468" lon="5.4459988">
<ele>741.41</ele>
<time>2019-07-25T08:29:45Z</time>
</trkpt>
<trkpt lat="45.0003466" lon="5.4459987">
<ele>741.43</ele>
<time>2019-07-25T08:29:46Z</time>
</trkpt>
<trkpt lat="45.0003469" lon="5.4459975">
<ele>741.45</ele>
<time>2019-07-25T08:29:47Z</time>
</trkpt>
<trkpt lat="45.0003472" lon="5.4459896">
<ele>741.68</ele>
<time>2019-07-25T08:29:48Z</time>
</trkpt>
<trkpt lat="45.0003464" lon="5.4459845">
<ele>741.70</ele>
<time>2019-07-25T08:29:49Z</time>
</trkpt>
<trkpt lat="45.0003442" lon="5.4459848">
<ele>741.93</ele>
<time>2019-07-25T08:29:50Z</time>
</trkpt>
<trkpt lat="45.0003382" lon="5.4459916">
<ele>742.15</ele>
<time>2019-07-25T08:29:51Z</time>
</trkpt>
<trkpt lat="45.0003371" lon="5.4459939">
<ele>742.17</ele>
<time>2019-07-25T08:29:52Z</time>
</trkpt>
<trkpt lat="45.0003348" lon="5.4459960">
<ele>742.20</ele>
<time>2019-07-25T08:29:53Z</time>
</trkpt>
<trkpt lat="45.0003350" lon="5.4459955">
<ele>742.22</ele>
<time>2019-07-25T08:29:54Z</time>
</trkpt>
<trkpt lat="45.0003349" lon="5.4459957">
<ele>742.24</ele>
<time>2019-07-25T08:29:55Z</time>
</trkpt>
<trkpt lat="45.0003347" lon="5.4459958">
<ele>742.26</ele>
<time>2019-07-25T08:29:56Z</time>
</trkpt>
<trkpt lat="45.0003345" lon="5.4459957">
<ele>742.28</ele>
<time>2019-07-25T08:29:57Z</time>
</trkpt>
<trkpt lat="45.0003337" lon="5.4459971">
<ele>742.30</ele>
<time>2019-07-25T08:29:58Z</time>
</trkpt>
<trkpt lat="45.0003323" lon="5.4459938">
<ele>742.51</ele>
<time>2019-07-25T08:29:59Z</time>
</trkpt>
<trkpt lat="45.0003300" lon="5.4459927">
<ele>742.72</ele>
<time>2019-07-25T08:30:00Z</time>
</trkpt>
<trkpt lat="45.0003285" lon="5.4459875">
<ele>742.92</ele>
<time>2019-07-25T08:30:01Z</time>
</trkpt>
<trkpt lat="45.0003291" lon="5.4459851">
<ele>742.94</ele>
<time>2019-07-25T08:30:02Z</time>
</trkpt>
<trkpt lat="45.0003286" lon="5.4459843">
<ele>743.13</ele>
<time>2019-07-25T08:30:03Z</time>
</trkpt>
<trkpt lat="45.0003220" lon="5.4459823">
<ele>743.33</ele>
<time>2019-07-25T08:30:04Z</time>
</trkpt>
<trkpt lat="45.0003099" lon="5.4459765">
<ele>743.51</ele>
<time>2019-07-25T08:30:05Z</time>
</trkpt>
<trkpt lat="45.0003029" lon="5.4459750">
<ele>743.53</ele>
<time>2019-07-25T08:30:06Z</time>
</trkpt>
<trkpt lat="45.0003035" lon="5.4459767">
<ele>743.71</ele>
<time>2019-07-25T08:30:07Z</time>
</trkpt>
<trkpt lat="45.0003005" lon="5.4459802">
<ele>743.89</ele>
<time>2019-07-25T08:30:08Z</time>
</trkpt>
<trkpt lat="45.0002924" lon="5.4459801">
<ele>743.90</ele>
<time>2019-07-25T08:30:09Z</time>
</trkpt>
<trkpt lat="45.0002960" lon="5.4459831">
<ele>743.92</ele>
<time>2019-07-25T08:30:10Z</time>
</trkpt>
<trkpt lat="45.0002958" lon="5.4459838">
<ele>743.94</ele>
<time>2019-07-25T08:30:11Z</time>
</trkpt>
<trkpt lat="45.0002962" lon="5.4459836">
<ele>743.95</ele>
<time>2019-07-25T08:30:12Z</time>
</trkpt>
<trkpt lat="45.0002963" lon="5.4459837">
<ele>743.97</ele>
<time>2019-07-25T08:30:13Z</time>
</trkpt>
<trkpt lat="45.0002970" lon="5.4459840">
<ele>743.99</ele>
<time>2019-07-25T08:30:14Z</time>
</trkpt>
<trkpt lat="45.0002970" lon="5.4459837">
<ele>744.00</ele>
<time>2019-07-25T08:30:15Z</time>
</trkpt>
<trkpt lat="45.0002970" lon="5.4459837">
<ele>744.02</ele>
<time>2019-07-25T08:30:16Z</time>
</trkpt>
<trkpt lat="45.0002972" lon="5.4459835">
<ele>744.04</ele>
<time>2019-07-25T08:30:17Z</time>
</trkpt>
<trkpt lat="45.0002973" lon="5.4459833">
<ele>744.06</ele>
<time>2019-07-25T08:30:18Z</time>
</trkpt>
<trkpt lat="45.0002979" lon="5.4459830">
<ele>744.07</ele>
<time>2019-07-25T08:30:19Z</time>
</trkpt>
<trkpt lat="45.0002983" lon="5.4459830">
<ele>744.09</ele>
<time>2019-07-25T08:30:20Z</time>
</trkpt>
<trkpt lat="45.0002990" lon="5.4459829">
<ele>744.11</ele>
<time>2019-07-25T08:30:21Z</time>
</trkpt>
<trkpt lat="45.0002991" lon="5.4459827">
<ele>744.12</ele>
<time>2019-07-25T08:30:22Z</time>
</trkpt>
<trkpt lat="45.0002986" lon="5.4459834">
<ele>744.14</ele>
<time>2019-07-25T08:30:23Z</time>
</trkpt>
<trkpt lat="45.0002981" lon="5.4459837">
<ele>744.16</ele>
<time>2019-07-25T08:30:24Z</time>
</trkpt>
<trkpt lat="45.0002979" lon="5.4459843">
<ele>744.18</ele>
<time>2019-07-25T08:30:25Z</time>
</trkpt>
<trkpt lat="45.0002979" lon="5.4459845">
<ele>744.20</ele>
<time>2019-07-25T08:30:26Z</time>
</trkpt>
<trkpt lat="45.0002978" lon="5.4459849">
<ele>744.22</ele>
<time>2019-07-25T08:30:27Z</time>
</trkpt>
<trkpt lat="45.0002980" lon="5.4459860">
<ele>744.24</ele>
<time>2019-07-25T08:30:28Z</time>
</trkpt>
<trkpt lat="45.0002975" lon="5.4459870">
<ele>744.26</ele>
<time>2019-07-25T08:30:29Z</time>
</trkpt>
<trkpt lat="45.0002969" lon="5.4459872">
<ele>744.28</ele>
<time>2019-07-25T08:30:30Z</time>
</trkpt>
<trkpt lat="45.0002963" lon="5.4459877">
<ele>744.30</ele>
<time>2019-07-25T08:30:31Z</time>
</trkpt>
<trkpt lat="45.0002961" lon="5.4459876">
<ele>744.32</ele>
<time>2019-07-25T08:30:32Z</time>
</trkpt>
<trkpt lat="45.0002881" lon="5.4459910">
<ele>744.52</ele>
<time>2019-07-25T08:30:33Z</time>
</trkpt>
<trkpt lat="45.0002712" lon="5.4460048">
<ele>744.54</ele>
<time>2019-07-25T08:30:34Z</time>
</trkpt>
<trkpt lat="45.0002623" lon="5.4460093">
<ele>744.55</ele>
<time>2019-07-25T08:30:35Z</time>
</trkpt>
<trkpt lat="45.0002602" lon="5.4460143">
<ele>744.74</ele>
<time>2019-07-25T08:30:36Z</time>
</trkpt>
<trkpt lat="45.0002612" lon="5.4460171">
<ele>744.75</ele>
<time>2019-07-25T08:30:37Z</time>
</trkpt>
<trkpt lat="45.0002662" lon="5.4460190">
<ele>744.93</ele>
<time>2019-07-25T08:30:38Z</time>
</trkpt>
<trkpt lat="45.0002651" lon="5.4460191">
<ele>744.94</ele>
<time>2019-07-25T08:30:39Z</time>
</trkpt>
<trkpt lat="45.0002661" lon="5.4460197">
<ele>744.96</ele>
<time>2019-07-25T08:30:40Z</time>
</trkpt>
<trkpt lat="45.0002661" lon="5.4460198">
<ele>744.98</ele>
<time>2019-07-25T08:30:41Z</time>
</trkpt>
<trkpt lat="45.0002668" lon="5.4460202">
<ele>744.99</ele>
<time>2019-07-25T08:30:42Z</time>
</trkpt>
<trkpt lat="45.0002671" lon="5.4460203">
<ele>745.01</ele>
<time>2019-07-25T08:30:43Z</time>
</trkpt>
<trkpt lat="45.0002676" lon="5.4460207">
<ele>745.03</ele>
<time>2019-07-25T08:30:44Z</time>
</trkpt>
<trkpt lat="45.0002681" lon="5.4460210">
<ele>745.04</ele>
<time>2019-07-25T08:30:45Z</time>
</trkpt>
<trkpt lat="45.0002686" lon="5.4460214">
<ele>745.06</ele>
<time>2019-07-25T08:30:46Z</time>
</trkpt>
<trkpt lat="45.0002694" lon="5.4460219">
<ele>745.08</ele>
<time>2019-07-25T08:30:47Z</time>
</trkpt>
<trkpt lat="45.0002701" lon="5.4460221">
<ele>745.10</ele>
<time>2019-07-25T08:30:48Z</time>
</trkpt>
<trkpt lat="45.0002717" lon="5.4460221">
<ele>745.11</ele>
<time>2019-07-25T08:30:49Z</time>
</trkpt>
<trkpt lat="45.0002721" lon="5.4460223">
<ele>745.13</ele>
<time>2019-07-25T08:30:50Z</time>
</trkpt>
<trkpt lat="45.0002725" lon="5.4460223">
<ele>745.15</ele>
<time>2019-07-25T08:30:51Z</time>
</trkpt>
<trkpt lat="45.0002733" lon="5.4460224">
<ele>745.16</ele>
<time>2019-07-25T08:30:52Z</time>
</trkpt>
<trkpt lat="45.0002737" lon="5.4460223">
<ele>745.18</ele>
<time>2019-07-25T08:30:53Z</time>
</trkpt>
<trkpt lat="45.0002740" lon="5.4460224">
<ele>745.20</ele>
<time>2019-07-25T08:30:54Z</time>
</trkpt>
<trkpt lat="45.0002741" lon="5.4460224">
<ele>745.21</ele>
<time>2019-07-25T08:30:55Z</time>
</trkpt>
<trkpt lat="45.0002742" lon="5.4460224">
<ele>745.23</ele>
<time>2019-07-25T08:30:56Z</time>
</trkpt>
<trkpt lat="45.0002742" lon="5.4460224">
<ele>745.24</ele>
<time>2019-07-25T08:30:57Z</time>
</trkpt>
<trkpt lat="45.0002742" lon="5.4460224">
<ele>745.26</ele>
<time>2019-07-25T08:30:58Z</time>
</trkpt>
<trkpt lat="45.0002744" lon="5.4460225">
<ele>745.28</ele>
<time>2019-07-25T08:30:59Z</time>
</trkpt>
<trkpt lat="45.0002743" lon="5.4460225">
<ele>745.29</ele>
<time>2019-07-25T08:31:00Z</time>
</trkpt>
<trkpt lat="45.0002742" lon="5.4460225">
<ele>745.31</ele>
<time>2019-07-25T08:31:01Z</time>
</trkpt>
<trkpt lat="45.0002740" lon="5.4460225">
<ele>745.32</ele>
<time>2019-07-25T08:31:02Z</time>
</trkpt>
<trkpt lat="45.0002741" lon="5.4460223">
<ele>745.34</ele>
<time>2019-07-25T08:31:03Z</time>
</trkpt>
<trkpt lat="45.0002744" lon="5.4460205">
<ele>745.35</ele>
<time>2019-07-25T08:31:04Z</time>
</trkpt>
<trkpt lat="45.0002754" lon="5.4460132">
<ele>745.50</ele>
<time>2019-07-25T08:31:05Z</time>
</trkpt>
<trkpt lat="45.0002750" lon="5.4459989">
<ele>745.64</ele>
<time>2019-07-25T08:31:06Z</time>
</trkpt>
<trkpt lat="45.0002735" lon="5.4459861">
<ele>745.78</ele>
<time>2019-07-25T08:31:07Z</time>
</trkpt>
<trkpt lat="45.0002689" lon="5.4459656">
<ele>745.91</ele>
<time>2019-07-25T08:31:08Z</time>
</trkpt>
<trkpt lat="45.0002635" lon="5.4459394">
<ele>746.04</ele>
<time>2019-07-25T08:31:09Z</time>
</trkpt>
<trkpt lat="45.0002591" lon="5.4459019">
<ele>746.16</ele>
<time>2019-07-25T08:31:10Z</time>
</trkpt>
<trkpt lat="45.0002530" lon="5.4458651">
<ele>746.29</ele>
<time>2019-07-25T08:31:11Z</time>
</trkpt>
<trkpt lat="45.0002455" lon="5.4458286">
<ele>746.41</ele>
<time>2019-07-25T08:31:12Z</time>
</trkpt>
<trkpt lat="45.0002365" lon="5.4457907">
<ele>746.53</ele>
<time>2019-07-25T08:31:13Z</time>
</trkpt>
<trkpt lat="45.0002246" lon="5.4457497">
<ele>746.64</ele>
<time>2019-07-25T08:31:14Z</time>
</trkpt>
<trkpt lat="45.0002120" lon="5.4457084">
<ele>746.76</ele>
<time>2019-07-25T08:31:15Z</time>
</trkpt>
<trkpt lat="45.0001942" lon="5.4456727">
<ele>746.87</ele>
<time>2019-07-25T08:31:16Z</time>
</trkpt>
<trkpt lat="45.0001758" lon="5.4456294">
<ele>746.98</ele>
<time>2019-07-25T08:31:17Z</time>
</trkpt>
<trkpt lat="45.0001586" lon="5.4455799">
<ele>747.09</ele>
<time>2019-07-25T08:31:18Z</time>
</trkpt>
<trkpt lat="45.0001425" lon="5.4455333">
<ele>748.10</ele>
<time>2019-07-25T08:31:19Z</time>
</trkpt>
<trkpt lat="45.0001232" lon="5.4454826">
<ele>748.90</ele>
<time>2019-07-25T08:31:20Z</time>
</trkpt>
<trkpt lat="45.0001025" lon="5.4454304">
<ele>749.53</ele>
<time>2019-07-25T08:31:21Z</time>
</trkpt>
<trkpt lat="45.0000784" lon="5.4453758">
<ele>750.02</ele>
<time>2019-07-25T08:31:22Z</time>
</trkpt>
<trkpt lat="45.0000503" lon="5.4453284">
<ele>750.41</ele>
<time>2019-07-25T08:31:23Z</time>
</trkpt>
<trkpt lat="45.0000208" lon="5.4452794">
<ele>750.70</ele>
<time>2019-07-25T08:31:24Z</time>
</trkpt>
<trkpt lat="44.9999930" lon="5.4452300">
<ele>750.94</ele>
<time>2019-07-25T08:31:25Z</time>
</trkpt>
<trkpt lat="44.9999635" lon="5.4451742">
<ele>751.13</ele>
<time>2019-07-25T08:31:26Z</time>
</trkpt>
<trkpt lat="44.9999347" lon="5.4451168">
<ele>751.28</ele>
<time>2019-07-25T08:31:27Z</time>
</trkpt>
<trkpt lat="44.9999074" lon="5.4450607">
<ele>751.39</ele>
<time>2019-07-25T08:31:28Z</time>
</trkpt>
<trkpt lat="44.9998815" lon="5.4450017">
<ele>751.49</ele>
<time>2019-07-25T08:31:29Z</time>
</trkpt>
<trkpt lat="44.9998544" lon="5.4449410">
<ele>751.57</ele>
<time>2019-07-25T08:31:30Z</time>
</trkpt>
<trkpt lat="44.9998269" lon="5.4448798">
<ele>751.64</ele>
<time>2019-07-25T08:31:31Z</time>
</trkpt>
<trkpt lat="44.9998020" lon="5.4448159">
<ele>751.70</ele>
<time>2019-07-25T08:31:32Z</time>
</trkpt>
<trkpt lat="44.9997875" lon="5.4447486">
<ele>751.73</ele>
<time>2019-07-25T08:31:33Z</time>
</trkpt>
<trkpt lat="44.9997733" lon="5.4446792">
<ele>751.77</ele>
<time>2019-07-25T08:31:34Z</time>
</trkpt>
<trkpt lat="44.9997721" lon="5.4446068">
<ele>751.79</ele>
<time>2019-07-25T08:31:35Z</time>
</trkpt>
<trkpt lat="44.9997787" lon="5.4445435">
<ele>751.78</ele>
<time>2019-07-25T08:31:36Z</time>
</trkpt>
<trkpt lat="44.9997870" lon="5.4444846">
<ele>751.77</ele>
<time>2019-07-25T08:31:37Z</time>
</trkpt>
<trkpt lat="44.9997956" lon="5.4444234">
<ele>751.75</ele>
<time>2019-07-25T08:31:38Z</time>
</trkpt>
<trkpt lat="44.9998094" lon="5.4443633">
<ele>751.75</ele>
<time>2019-07-25T08:31:39Z</time>
</trkpt>
<trkpt lat="44.9998340" lon="5.4443196">
<ele>751.74</ele>
<time>2019-07-25T08:31:40Z</time>
</trkpt>
<trkpt lat="44.9998528" lon="5.4442838">
<ele>751.74</ele>
<time>2019-07-25T08:31:41Z</time>
</trkpt>
<trkpt lat="44.9998698" lon="5.4442506">
<ele>751.74</ele>
<time>2019-07-25T08:31:42Z</time>
</trkpt>
<trkpt lat="44.9998860" lon="5.4442234">
<ele>751.74</ele>
<time>2019-07-25T08:31:43Z</time>
</trkpt>
<trkpt lat="44.9998944" lon="5.4442117">
<ele>751.74</ele>
<time>2019-07-25T08:31:44Z</time>
</trkpt>
<trkpt lat="44.9999054" lon="5.4441996">
<ele>751.74</ele>
<time>2019-07-25T08:31:45Z</time>
</trkpt>
<trkpt lat="44.9999205" lon="5.4441824">
<ele>751.74</ele>
<time>2019-07-25T08:31:46Z</time>
</trkpt>
<trkpt lat="44.9999361" lon="5.4441622">
<ele>751.74</ele>
<time>2019-07-25T08:31:47Z</time>
</trkpt>
<trkpt lat="44.9999544" lon="5.4441417">
<ele>751.74</ele>
<time>2019-07-25T08:31:48Z</time>
</trkpt>
<trkpt lat="44.9999722" lon="5.4441221">
<ele>751.75</ele>
<time>2019-07-25T08:31:49Z</time>
</trkpt>
<trkpt lat="44.9999773" lon="5.4441205">
<ele>751.75</ele>
<time>2019-07-25T08:31:50Z</time>
</trkpt>
<trkpt lat="44.9999822" lon="5.4441173">
<ele>751.75</ele>
<time>2019-07-25T08:31:51Z</time>
</trkpt>
<trkpt lat="44.9999900" lon="5.4441098">
<ele>751.75</ele>
<time>2019-07-25T08:31:52Z</time>
</trkpt>
<trkpt lat="44.9999954" lon="5.4441068">
<ele>751.75</ele>
<time>2019-07-25T08:31:53Z</time>
</trkpt>
<trkpt lat="44.9999957" lon="5.4441068">
<ele>751.75</ele>
<time>2019-07-25T08:31:54Z</time>
</trkpt>
<trkpt lat="44.9999958" lon="5.4441068">
<ele>751.75</ele>
<time>2019-07-25T08:31:55Z</time>
</trkpt>
<trkpt lat="44.9999959" lon="5.4441069">
<ele>751.75</ele>
<time>2019-07-25T08:31:56Z</time>
</trkpt>
<trkpt lat="44.9999961" lon="5.4441070">
<ele>751.75</ele>
<time>2019-07-25T08:31:57Z</time>
</trkpt>
<trkpt lat="44.9999963" lon="5.4441071">
<ele>751.75</ele>
<time>2019-07-25T08:31:58Z</time>
</trkpt>
<trkpt lat="44.9999962" lon="5.4441093">
<ele>751.75</ele>
<time>2019-07-25T08:31:59Z</time>
</trkpt>
<trkpt lat="44.9999959" lon="5.4441104">
<ele>751.75</ele>
<time>2019-07-25T08:32:00Z</time>
</trkpt>
<trkpt lat="44.9999955" lon="5.4441123">
<ele>751.75</ele>
<time>2019-07-25T08:32:01Z</time>
</trkpt>
<trkpt lat="44.9999951" lon="5.4441131">
<ele>751.75</ele>
<time>2019-07-25T08:32:02Z</time>
</trkpt>
<trkpt lat="44.9999935" lon="5.4441191">
<ele>751.75</ele>
<time>2019-07-25T08:32:03Z</time>
</trkpt>
<trkpt lat="44.9999934" lon="5.4441201">
<ele>751.75</ele>
<time>2019-07-25T08:32:04Z</time>
</trkpt>
<trkpt lat="44.9999927" lon="5.4441214">
<ele>751.75</ele>
<time>2019-07-25T08:32:05Z</time>
</trkpt>
<trkpt lat="44.9999924" lon="5.4441229">
<ele>751.75</ele>
<time>2019-07-25T08:32:06Z</time>
</trkpt>
<trkpt lat="44.9999901" lon="5.4441305">
<ele>751.74</ele>
<time>2019-07-25T08:32:07Z</time>
</trkpt>
<trkpt lat="44.9999869" lon="5.4441371">
<ele>751.73</ele>
<time>2019-07-25T08:32:08Z</time>
</trkpt>
<trkpt lat="44.9999863" lon="5.4441422">
<ele>751.73</ele>
<time>2019-07-25T08:32:09Z</time>
</trkpt>
<trkpt lat="44.9999963" lon="5.4441406">
<ele>751.72</ele>
<time>2019-07-25T08:32:10Z</time>
</trkpt>
<trkpt lat="45.0000110" lon="5.4441423">
<ele>751.71</ele>
<time>2019-07-25T08:32:11Z</time>
</trkpt>
<trkpt lat="45.0000268" lon="5.4441461">
<ele>751.70</ele>
<time>2019-07-25T08:32:12Z</time>
</trkpt>
<trkpt lat="45.0000454" lon="5.4441517">
<ele>751.68</ele>
<time>2019-07-25T08:32:13Z</time>
</trkpt>
<trkpt lat="45.0000682" lon="5.4441532">
<ele>751.67</ele>
<time>2019-07-25T08:32:14Z</time>
</trkpt>
<trkpt lat="45.0000958" lon="5.4441506">
<ele>751.66</ele>
<time>2019-07-25T08:32:15Z</time>
</trkpt>
<trkpt lat="45.0001198" lon="5.4441455">
<ele>751.65</ele>
<time>2019-07-25T08:32:16Z</time>
</trkpt>
<trkpt lat="45.0001467" lon="5.4441436">
<ele>751.64</ele>
<time>2019-07-25T08:32:17Z</time>
</trkpt>
<trkpt lat="45.0001778" lon="5.4441440">
<ele>751.63</ele>
<time>2019-07-25T08:32:18Z</time>
</trkpt>
<trkpt lat="45.0002120" lon="5.4441479">
<ele>751.62</ele>
<time>2019-07-25T08:32:19Z</time>
</trkpt>
<trkpt lat="45.0002423" lon="5.4441506">
<ele>751.61</ele>
<time>2019-07-25T08:32:20Z</time>
</trkpt>
<trkpt lat="45.0002626" lon="5.4441537">
<ele>751.60</ele>
<time>2019-07-25T08:32:21Z</time>
</trkpt>
<trkpt lat="45.0002928" lon="5.4441559">
<ele>751.60</ele>
<time>2019-07-25T08:32:22Z</time>
</trkpt>
<trkpt lat="45.0003241" lon="5.4441622">
<ele>751.59</ele>
<time>2019-07-25T08:32:23Z</time>
</trkpt>
<trkpt lat="45.0003564" lon="5.4441681">
<ele>751.58</ele>
<time>2019-07-25T08:32:24Z</time>
</trkpt>
<trkpt lat="45.0003815" lon="5.4441716">
<ele>751.58</ele>
<time>2019-07-25T08:32:25Z</time>
</trkpt>
<trkpt lat="45.0004048" lon="5.4441765">
<ele>751.57</ele>
<time>2019-07-25T08:32:26Z</time>
</trkpt>
<trkpt lat="45.0004303" lon="5.4441823">
<ele>751.56</ele>
<time>2019-07-25T08:32:27Z</time>
</trkpt>
<trkpt lat="45.0004440" lon="5.4441859">
<ele>751.56</ele>
<time>2019-07-25T08:32:28Z</time>
</trkpt>
<trkpt lat="45.0004568" lon="5.4441909">
<ele>751.55</ele>
<time>2019-07-25T08:32:29Z</time>
</trkpt>
<trkpt lat="45.0004652" lon="5.4441978">
<ele>751.55</ele>
<time>2019-07-25T08:32:30Z</time>
</trkpt>
<trkpt lat="45.0004767" lon="5.4442074">
<ele>751.56</ele>
<time>2019-07-25T08:32:31Z</time>
</trkpt>
<trkpt lat="45.0004842" lon="5.4442160">
<ele>751.57</ele>
<time>2019-07-25T08:32:32Z</time>
</trkpt>
<trkpt lat="45.0004913" lon="5.4442215">
<ele>751.58</ele>
<time>2019-07-25T08:32:33Z</time>
</trkpt>
<trkpt lat="45.0004948" lon="5.4442317">
<ele>751.60</ele>
<time>2019-07-25T08:32:34Z</time>
</trkpt>
<trkpt lat="45.0004899" lon="5.4442470">
<ele>751.62</ele>
<time>2019-07-25T08:32:35Z</time>
</trkpt>
<trkpt lat="45.0004749" lon="5.4442543">
<ele>751.64</ele>
<time>2019-07-25T08:32:36Z</time>
</trkpt>
<trkpt lat="45.0004566" lon="5.4442528">
<ele>751.66</ele>
<time>2019-07-25T08:32:37Z</time>
</trkpt>
<trkpt lat="45.0004426" lon="5.4442462">
<ele>751.67</ele>
<time>2019-07-25T08:32:38Z</time>
</trkpt>
<trkpt lat="45.0004326" lon="5.4442321">
<ele>751.68</ele>
<time>2019-07-25T08:32:39Z</time>
</trkpt>
<trkpt lat="45.0004202" lon="5.4442176">
<ele>751.70</ele>
<time>2019-07-25T08:32:40Z</time>
</trkpt>
<trkpt lat="45.0004044" lon="5.4441928">
<ele>751.72</ele>
<time>2019-07-25T08:32:41Z</time>
</trkpt>
<trkpt lat="45.0003843" lon="5.4441683">
<ele>751.74</ele>
<time>2019-07-25T08:32:42Z</time>
</trkpt>
<trkpt lat="45.0003539" lon="5.4441464">
<ele>751.94</ele>
<time>2019-07-25T08:32:43Z</time>
</trkpt>
<trkpt lat="45.0003027" lon="5.4441335">
<ele>752.07</ele>
<time>2019-07-25T08:32:44Z</time>
</trkpt>
<trkpt lat="45.0002417" lon="5.4441317">
<ele>752.18</ele>
<time>2019-07-25T08:32:45Z</time>
</trkpt>
<trkpt lat="45.0001784" lon="5.4441388">
<ele>752.27</ele>
<time>2019-07-25T08:32:46Z</time>
</trkpt>
<trkpt lat="45.0001214" lon="5.4441472">
<ele>752.36</ele>
<time>2019-07-25T08:32:47Z</time>
</trkpt>
<trkpt lat="45.0000775" lon="5.4441542">
<ele>752.37</ele>
<time>2019-07-25T08:32:48Z</time>
</trkpt>
<trkpt lat="45.0000449" lon="5.4441555">
<ele>752.37</ele>
<time>2019-07-25T08:32:49Z</time>
</trkpt>
<trkpt lat="45.0000188" lon="5.4441405">
<ele>752.37</ele>
<time>2019-07-25T08:32:50Z</time>
</trkpt>
<trkpt lat="45.0000013" lon="5.4441158">
<ele>752.37</ele>
<time>2019-07-25T08:32:51Z</time>
</trkpt>
<trkpt lat="45.0000069" lon="5.4440817">
<ele>752.36</ele>
<time>2019-07-25T08:32:52Z</time>
</trkpt>
<trkpt lat="45.0000278" lon="5.4440538">
<ele>752.35</ele>
<time>2019-07-25T08:32:53Z</time>
</trkpt>
<trkpt lat="45.0000516" lon="5.4440232">
<ele>752.34</ele>
<time>2019-07-25T08:32:54Z</time>
</trkpt>
<trkpt lat="45.0000817" lon="5.4439974">
<ele>752.21</ele>
<time>2019-07-25T08:32:55Z</time>
</trkpt>
<trkpt lat="45.0001178" lon="5.4439640">
<ele>752.05</ele>
<time>2019-07-25T08:32:56Z</time>
</trkpt>
<trkpt lat="45.0001578" lon="5.4439356">
<ele>751.87</ele>
<time>2019-07-25T08:32:57Z</time>
</trkpt>
<trkpt lat="45.0002009" lon="5.4439159">
<ele>751.67</ele>
<time>2019-07-25T08:32:58Z</time>
</trkpt>
<trkpt lat="45.0002462" lon="5.4438882">
<ele>751.48</ele>
<time>2019-07-25T08:32:59Z</time>
</trkpt>
<trkpt lat="45.0002926" lon="5.4438485">
<ele>751.30</ele>
<time>2019-07-25T08:33:00Z</time>
</trkpt>
<trkpt lat="45.0003331" lon="5.4438180">
<ele>751.11</ele>
<time>2019-07-25T08:33:01Z</time>
</trkpt>
<trkpt lat="45.0003771" lon="5.4437932">
<ele>750.91</ele>
<time>2019-07-25T08:33:02Z</time>
</trkpt>
<trkpt lat="45.0004245" lon="5.4437646">
<ele>750.70</ele>
<time>2019-07-25T08:33:03Z</time>
</trkpt>
<trkpt lat="45.0004758" lon="5.4437300">
<ele>750.48</ele>
<time>2019-07-25T08:33:04Z</time>
</trkpt>
<trkpt lat="45.0005290" lon="5.4436926">
<ele>750.17</ele>
<time>2019-07-25T08:33:05Z</time>
</trkpt>
<trkpt lat="45.0005869" lon="5.4436518">
<ele>749.84</ele>
<time>2019-07-25T08:33:06Z</time>
</trkpt>
<trkpt lat="45.0006391" lon="5.4436166">
<ele>749.48</ele>
<time>2019-07-25T08:33:07Z</time>
</trkpt>
<trkpt lat="45.0006923" lon="5.4435789">
<ele>749.03</ele>
<time>2019-07-25T08:33:08Z</time>
</trkpt>
<trkpt lat="45.0007364" lon="5.4435481">
<ele>748.51</ele>
<time>2019-07-25T08:33:09Z</time>
</trkpt>
<trkpt lat="45.0007730" lon="5.4435200">
<ele>747.86</ele>
<time>2019-07-25T08:33:10Z</time>
</trkpt>
<trkpt lat="45.0008044" lon="5.4434917">
<ele>747.19</ele>
<time>2019-07-25T08:33:11Z</time>
</trkpt>
<trkpt lat="45.0008376" lon="5.4434422">
<ele>746.56</ele>
<time>2019-07-25T08:33:12Z</time>
</trkpt>
<trkpt lat="45.0008589" lon="5.4433921">
<ele>745.94</ele>
<time>2019-07-25T08:33:13Z</time>
</trkpt>
<trkpt lat="45.0008854" lon="5.4433418">
<ele>745.31</ele>
<time>2019-07-25T08:33:14Z</time>
</trkpt>
<trkpt lat="45.0009103" lon="5.4432871">
<ele>744.66</ele>
<time>2019-07-25T08:33:15Z</time>
</trkpt>
<trkpt lat="45.0009362" lon="5.4432350">
<ele>743.98</ele>
<time>2019-07-25T08:33:16Z</time>
</trkpt>
<trkpt lat="45.0009665" lon="5.4431847">
<ele>743.35</ele>
<time>2019-07-25T08:33:17Z</time>
</trkpt>
<trkpt lat="45.0010089" lon="5.4431335">
<ele>742.70</ele>
<time>2019-07-25T08:33:18Z</time>
</trkpt>
<trkpt lat="45.0010497" lon="5.4430643">
<ele>742.05</ele>
<time>2019-07-25T08:33:19Z</time>
</trkpt>
<trkpt lat="45.0010881" lon="5.4429932">
<ele>741.39</ele>
<time>2019-07-25T08:33:20Z</time>
</trkpt>
<trkpt lat="45.0011212" lon="5.4429086">
<ele>740.74</ele>
<time>2019-07-25T08:33:21Z</time>
</trkpt>
<trkpt lat="45.0011486" lon="5.4428153">
<ele>740.11</ele>
<time>2019-07-25T08:33:22Z</time>
</trkpt>
<trkpt lat="45.0011711" lon="5.4427253">
<ele>739.49</ele>
<time>2019-07-25T08:33:23Z</time>
</trkpt>
<trkpt lat="45.0011863" lon="5.4426315">
<ele>738.88</ele>
<time>2019-07-25T08:33:24Z</time>
</trkpt>
<trkpt lat="45.0011960" lon="5.4425473">
<ele>738.36</ele>
<time>2019-07-25T08:33:25Z</time>
</trkpt>
<trkpt lat="45.0012028" lon="5.4424715">
<ele>737.90</ele>
<time>2019-07-25T08:33:26Z</time>
</trkpt>
<trkpt lat="45.0012063" lon="5.4423931">
<ele>737.52</ele>
<time>2019-07-25T08:33:27Z</time>
</trkpt>
<trkpt lat="45.0012008" lon="5.4423055">
<ele>737.17</ele>
<time>2019-07-25T08:33:28Z</time>
</trkpt>
<trkpt lat="45.0011938" lon="5.4422307">
<ele>736.88</ele>
<time>2019-07-25T08:33:29Z</time>
</trkpt>
<trkpt lat="45.0011883" lon="5.4421654">
<ele>736.63</ele>
<time>2019-07-25T08:33:30Z</time>
</trkpt>
<trkpt lat="45.0011846" lon="5.4421090">
<ele>736.43</ele>
<time>2019-07-25T08:33:31Z</time>
</trkpt>
<trkpt lat="45.0011781" lon="5.4420598">
<ele>736.41</ele>
<time>2019-07-25T08:33:32Z</time>
</trkpt>
<trkpt lat="45.0011732" lon="5.4420128">
<ele>736.38</ele>
<time>2019-07-25T08:33:33Z</time>
</trkpt>
<trkpt lat="45.0011621" lon="5.4419637">
<ele>736.35</ele>
<time>2019-07-25T08:33:34Z</time>
</trkpt>
<trkpt lat="45.0011515" lon="5.4419169">
<ele>736.32</ele>
<time>2019-07-25T08:33:35Z</time>
</trkpt>
<trkpt lat="45.0011492" lon="5.4418742">
<ele>736.28</ele>
<time>2019-07-25T08:33:36Z</time>
</trkpt>
<trkpt lat="45.0011463" lon="5.4418412">
<ele>736.25</ele>
<time>2019-07-25T08:33:37Z</time>
</trkpt>
<trkpt lat="45.0011423" lon="5.4418151">
<ele>736.21</ele>
<time>2019-07-25T08:33:38Z</time>
</trkpt>
<trkpt lat="45.0011383" lon="5.4417924">
<ele>736.18</ele>
<time>2019-07-25T08:33:39Z</time>
</trkpt>
<trkpt lat="45.0011339" lon="5.4417722">
<ele>736.15</ele>
<time>2019-07-25T08:33:40Z</time>
</trkpt>
<trkpt lat="45.0011307" lon="5.4417398">
<ele>736.12</ele>
<time>2019-07-25T08:33:41Z</time>
</trkpt>
<trkpt lat="45.0011292" lon="5.4417082">
<ele>736.09</ele>
<time>2019-07-25T08:33:42Z</time>
</trkpt>
<trkpt lat="45.0011314" lon="5.4416753">
<ele>736.07</ele>
<time>2019-07-25T08:33:43Z</time>
</trkpt>
<trkpt lat="45.0011310" lon="5.4416482">
<ele>736.05</ele>
<time>2019-07-25T08:33:44Z</time>
</trkpt>
<trkpt lat="45.0011241" lon="5.4416332">
<ele>736.03</ele>
<time>2019-07-25T08:33:45Z</time>
</trkpt>
<trkpt lat="45.0011099" lon="5.4416235">
<ele>736.02</ele>
<time>2019-07-25T08:33:46Z</time>
</trkpt>
<trkpt lat="45.0010865" lon="5.4416221">
<ele>736.00</ele>
<time>2019-07-25T08:33:47Z</time>
</trkpt>
<trkpt lat="45.0010582" lon="5.4416198">
<ele>735.99</ele>
<time>2019-07-25T08:33:48Z</time>
</trkpt>
<trkpt lat="45.0010582" lon="5.4416198">
<ele>735.98</ele>
<time>2019-07-25T08:33:49Z</time>
</trkpt>
<trkpt lat="45.0010582" lon="5.4416198">
<ele>735.98</ele>
<time>2019-07-25T08:33:50Z</time>
</trkpt>
<trkpt lat="45.0010582" lon="5.4416198">
<ele>735.98</ele>
<time>2019-07-25T08:33:51Z</time>
</trkpt>
<trkpt lat="45.0010582" lon="5.4416198">
<ele>735.97</ele>
<time>2019-07-25T08:33:52Z</time>
</trkpt>
<trkpt lat="45.0010582" lon="5.4416198">
<ele>735.97</ele>
<time>2019-07-25T08:33:53Z</time>
</trkpt>
<trkpt lat="45.0010582" lon="5.4416198">
<ele>735.97</ele>
<time>2019-07-25T08:33:54Z</time>
</trkpt>
<trkpt lat="45.0010582" lon="5.4416198">
<ele>735.97</ele>
<time>2019-07-25T08:33:55Z</time>
</trkpt>
<trkpt lat="45.0010582" lon="5.4416198">
<ele>735.97</ele>
<time>2019-07-25T08:33:56Z</time>
</trkpt>
<trkpt lat="45.0010582" lon="5.4416198">
<ele>735.97</ele>
<time>2019-07-25T08:33:57Z</time>
</trkpt>
<trkpt lat="45.0010582" lon="5.4416198">
<ele>735.97</ele>
<time>2019-07-25T08:33:58Z</time>
</trkpt>
<trkpt lat="45.0010582" lon="5.4416198">
<ele>735.97</ele>
<time>2019-07-25T08:33:59Z</time>
</trkpt>
<trkpt lat="45.0010582" lon="5.4416198">
<ele>735.98</ele>
<time>2019-07-25T08:34:00Z</time>
</trkpt>
<trkpt lat="45.0010582" lon="5.4416198">
<ele>735.98</ele>
<time>2019-07-25T08:34:01Z</time>
</trkpt>
<trkpt lat="45.0010582" lon="5.4416198">
<ele>735.98</ele>
<time>2019-07-25T08:34:02Z</time>
</trkpt>
<trkpt lat="45.0010582" lon="5.4416198">
<ele>735.98</ele>
<time>2019-07-25T08:34:03Z</time>
</trkpt>
<trkpt lat="45.0010582" lon="5.4416198">
<ele>735.99</ele>
<time>2019-07-25T08:34:04Z</time>
</trkpt>
<trkpt lat="45.0010582" lon="5.4416198">
<ele>735.99</ele>
<time>2019-07-25T08:34:05Z</time>
</trkpt>
<trkpt lat="45.0010582" lon="5.4416198">
<ele>735.99</ele>
<time>2019-07-25T08:34:06Z</time>
</trkpt>
<trkpt lat="45.0010582" lon="5.4416198">
<ele>735.99</ele>
<time>2019-07-25T08:34:07Z</time>
</trkpt>
<trkpt lat="45.0010582" lon="5.4416198">
<ele>735.99</ele>
<time>2019-07-25T08:34:08Z</time>
</trkpt>
<trkpt lat="45.0010582" lon="5.4416198">
<ele>736.00</ele>
<time>2019-07-25T08:34:09Z</time>
</trkpt>
<trkpt lat="45.0010582" lon="5.4416198">
<ele>736.00</ele>
<time>2019-07-25T08:34:10Z</time>
</trkpt>
<trkpt lat="45.0010582" lon="5.4416198">
<ele>736.05</ele>
<time>2019-07-25T08:34:11Z</time>
</trkpt>
<trkpt lat="45.0010582" lon="5.4416198">
<ele>736.09</ele>
<time>2019-07-25T08:34:12Z</time>
</trkpt>
<trkpt lat="45.0010582" lon="5.4416198">
<ele>736.13</ele>
<time>2019-07-25T08:34:13Z</time>
</trkpt>
<trkpt lat="45.0010582" lon="5.4416198">
<ele>736.15</ele>
<time>2019-07-25T08:34:14Z</time>
</trkpt>
<trkpt lat="45.0010229" lon="5.4416148">
<ele>736.18</ele>
<time>2019-07-25T08:34:15Z</time>
</trkpt>
<trkpt lat="45.0010067" lon="5.4416153">
<ele>736.20</ele>
<time>2019-07-25T08:34:16Z</time>
</trkpt>
<trkpt lat="45.0009866" lon="5.4416174">
<ele>736.21</ele>
<time>2019-07-25T08:34:17Z</time>
</trkpt>
<trkpt lat="45.0009609" lon="5.4416244">
<ele>736.22</ele>
<time>2019-07-25T08:34:18Z</time>
</trkpt>
<trkpt lat="45.0009323" lon="5.4416281">
<ele>736.22</ele>
<time>2019-07-25T08:34:19Z</time>
</trkpt>
<trkpt lat="45.0009000" lon="5.4416307">
<ele>736.22</ele>
<time>2019-07-25T08:34:20Z</time>
</trkpt>
<trkpt lat="45.0008647" lon="5.4416272">
<ele>736.22</ele>
<time>2019-07-25T08:34:21Z</time>
</trkpt>
<trkpt lat="45.0008258" lon="5.4416317">
<ele>736.18</ele>
<time>2019-07-25T08:34:22Z</time>
</trkpt>
<trkpt lat="45.0007806" lon="5.4416441">
<ele>736.11</ele>
<time>2019-07-25T08:34:23Z</time>
</trkpt>
<trkpt lat="45.0007195" lon="5.4416481">
<ele>736.03</ele>
<time>2019-07-25T08:34:24Z</time>
</trkpt>
<trkpt lat="45.0006606" lon="5.4416436">
<ele>735.92</ele>
<time>2019-07-25T08:34:25Z</time>
</trkpt>
<trkpt lat="45.0006045" lon="5.4416341">
<ele>735.79</ele>
<time>2019-07-25T08:34:26Z</time>
</trkpt>
<trkpt lat="45.0005506" lon="5.4416251">
<ele>735.68</ele>
<time>2019-07-25T08:34:27Z</time>
</trkpt>
<trkpt lat="45.0004960" lon="5.4416173">
<ele>735.58</ele>
<time>2019-07-25T08:34:28Z</time>
</trkpt>
<trkpt lat="45.0004255" lon="5.4416274">
<ele>735.47</ele>
<time>2019-07-25T08:34:29Z</time>
</trkpt>
<trkpt lat="45.0003495" lon="5.4416468">
<ele>735.36</ele>
<time>2019-07-25T08:34:30Z</time>
</trkpt>
<trkpt lat="45.0002690" lon="5.4416668">
<ele>735.22</ele>
<time>2019-07-25T08:34:31Z</time>
</trkpt>
<trkpt lat="45.0001857" lon="5.4416933">
<ele>735.05</ele>
<time>2019-07-25T08:34:32Z</time>
</trkpt>
<trkpt lat="45.0001077" lon="5.4417186">
<ele>734.87</ele>
<time>2019-07-25T08:34:33Z</time>
</trkpt>
<trkpt lat="45.0000423" lon="5.4417381">
<ele>734.67</ele>
<time>2019-07-25T08:34:34Z</time>
</trkpt>
<trkpt lat="44.9999774" lon="5.4417783">
<ele>734.48</ele>
<time>2019-07-25T08:34:35Z</time>
</trkpt>
<trkpt lat="44.9999154" lon="5.4418207">
<ele>734.25</ele>
<time>2019-07-25T08:34:36Z</time>
</trkpt>
<trkpt lat="44.9998550" lon="5.4418681">
<ele>733.88</ele>
<time>2019-07-25T08:34:37Z</time>
</trkpt>
<trkpt lat="44.9997996" lon="5.4419117">
<ele>733.47</ele>
<time>2019-07-25T08:34:38Z</time>
</trkpt>
<trkpt lat="44.9997483" lon="5.4419310">
<ele>733.05</ele>
<time>2019-07-25T08:34:39Z</time>
</trkpt>
<trkpt lat="44.9996979" lon="5.4419268">
<ele>732.66</ele>
<time>2019-07-25T08:34:40Z</time>
</trkpt>
<trkpt lat="44.9996448" lon="5.4419087">
<ele>732.29</ele>
<time>2019-07-25T08:34:41Z</time>
</trkpt>
<trkpt lat="44.9995956" lon="5.4418861">
<ele>731.95</ele>
<time>2019-07-25T08:34:42Z</time>
</trkpt>
<trkpt lat="44.9995583" lon="5.4418741">
<ele>731.92</ele>
<time>2019-07-25T08:34:43Z</time>
</trkpt>
<trkpt lat="44.9995274" lon="5.4418694">
<ele>731.88</ele>
<time>2019-07-25T08:34:44Z</time>
</trkpt>
<trkpt lat="44.9994956" lon="5.4418652">
<ele>731.84</ele>
<time>2019-07-25T08:34:45Z</time>
</trkpt>
<trkpt lat="44.9994697" lon="5.4418526">
<ele>731.80</ele>
<time>2019-07-25T08:34:46Z</time>
</trkpt>
<trkpt lat="44.9994340" lon="5.4418453">
<ele>731.36</ele>
<time>2019-07-25T08:34:47Z</time>
</trkpt>
<trkpt lat="44.9993890" lon="5.4418443">
<ele>730.98</ele>
<time>2019-07-25T08:34:48Z</time>
</trkpt>
<trkpt lat="44.9993299" lon="5.4418451">
<ele>730.61</ele>
<time>2019-07-25T08:34:49Z</time>
</trkpt>
<trkpt lat="44.9992628" lon="5.4418455">
<ele>730.32</ele>
<time>2019-07-25T08:34:50Z</time>
</trkpt>
<trkpt lat="44.9991985" lon="5.4418519">
<ele>729.97</ele>
<time>2019-07-25T08:34:51Z</time>
</trkpt>
<trkpt lat="44.9991334" lon="5.4418722">
<ele>729.59</ele>
<time>2019-07-25T08:34:52Z</time>
</trkpt>
<trkpt lat="44.9990662" lon="5.4419067">
<ele>729.11</ele>
<time>2019-07-25T08:34:53Z</time>
</trkpt>
<trkpt lat="44.9989966" lon="5.4419610">
<ele>728.60</ele>
<time>2019-07-25T08:34:54Z</time>
</trkpt>
<trkpt lat="44.9989372" lon="5.4420345">
<ele>727.89</ele>
<time>2019-07-25T08:34:55Z</time>
</trkpt>
<trkpt lat="44.9989003" lon="5.4421121">
<ele>727.11</ele>
<time>2019-07-25T08:34:56Z</time>
</trkpt>
<trkpt lat="44.9988787" lon="5.4421762">
<ele>726.41</ele>
<time>2019-07-25T08:34:57Z</time>
</trkpt>
<trkpt lat="44.9988487" lon="5.4422060">
<ele>725.82</ele>
<time>2019-07-25T08:34:58Z</time>
</trkpt>
<trkpt lat="44.9988066" lon="5.4421800">
<ele>725.34</ele>
<time>2019-07-25T08:34:59Z</time>
</trkpt>
<trkpt lat="44.9987836" lon="5.4421111">
<ele>724.85</ele>
<time>2019-07-25T08:35:00Z</time>
</trkpt>
<trkpt lat="44.9987929" lon="5.4420280">
<ele>724.52</ele>
<time>2019-07-25T08:35:01Z</time>
</trkpt>
<trkpt lat="44.9988122" lon="5.4419359">
<ele>724.22</ele>
<time>2019-07-25T08:35:02Z</time>
</trkpt>
<trkpt lat="44.9988290" lon="5.4418313">
<ele>723.94</ele>
<time>2019-07-25T08:35:03Z</time>
</trkpt>
<trkpt lat="44.9988458" lon="5.4417220">
<ele>723.69</ele>
<time>2019-07-25T08:35:04Z</time>
</trkpt>
<trkpt lat="44.9988648" lon="5.4416045">
<ele>723.38</ele>
<time>2019-07-25T08:35:05Z</time>
</trkpt>
<trkpt lat="44.9988946" lon="5.4414869">
<ele>722.91</ele>
<time>2019-07-25T08:35:06Z</time>
</trkpt>
<trkpt lat="44.9989467" lon="5.4413894">
<ele>722.37</ele>
<time>2019-07-25T08:35:07Z</time>
</trkpt>
<trkpt lat="44.9990046" lon="5.4412935">
<ele>721.72</ele>
<time>2019-07-25T08:35:08Z</time>
</trkpt>
<trkpt lat="44.9990545" lon="5.4411807">
<ele>721.01</ele>
<time>2019-07-25T08:35:09Z</time>
</trkpt>
<trkpt lat="44.9991023" lon="5.4410668">
<ele>720.27</ele>
<time>2019-07-25T08:35:10Z</time>
</trkpt>
<trkpt lat="44.9991429" lon="5.4409768">
<ele>719.60</ele>
<time>2019-07-25T08:35:11Z</time>
</trkpt>
<trkpt lat="44.9991733" lon="5.4408974">
<ele>719.04</ele>
<time>2019-07-25T08:35:12Z</time>
</trkpt>
<trkpt lat="44.9991852" lon="5.4408175">
<ele>718.39</ele>
<time>2019-07-25T08:35:13Z</time>
</trkpt>
<trkpt lat="44.9991717" lon="5.4407342">
<ele>717.67</ele>
<time>2019-07-25T08:35:14Z</time>
</trkpt>
<trkpt lat="44.9991458" lon="5.4406657">
<ele>716.89</ele>
<time>2019-07-25T08:35:15Z</time>
</trkpt>
<trkpt lat="44.9991281" lon="5.4406125">
<ele>716.15</ele>
<time>2019-07-25T08:35:16Z</time>
</trkpt>
<trkpt lat="44.9991155" lon="5.4405710">
<ele>716.09</ele>
<time>2019-07-25T08:35:17Z</time>
</trkpt>
<trkpt lat="44.9991099" lon="5.4405366">
<ele>716.04</ele>
<time>2019-07-25T08:35:18Z</time>
</trkpt>
<trkpt lat="44.9991064" lon="5.4405031">
<ele>715.99</ele>
<time>2019-07-25T08:35:19Z</time>
</trkpt>
<trkpt lat="44.9991116" lon="5.4404822">
<ele>715.93</ele>
<time>2019-07-25T08:35:20Z</time>
</trkpt>
<trkpt lat="44.9991116" lon="5.4404822">
<ele>715.87</ele>
<time>2019-07-25T08:35:21Z</time>
</trkpt>
<trkpt lat="44.9991116" lon="5.4404822">
<ele>715.87</ele>
<time>2019-07-25T08:35:22Z</time>
</trkpt>
<trkpt lat="44.9991116" lon="5.4404822">
<ele>715.87</ele>
<time>2019-07-25T08:35:23Z</time>
</trkpt>
<trkpt lat="44.9991116" lon="5.4404822">
<ele>715.87</ele>
<time>2019-07-25T08:35:24Z</time>
</trkpt>
<trkpt lat="44.9991116" lon="5.4404822">
<ele>715.87</ele>
<time>2019-07-25T08:35:25Z</time>
</trkpt>
<trkpt lat="44.9991116" lon="5.4404822">
<ele>715.87</ele>
<time>2019-07-25T08:35:26Z</time>
</trkpt>
<trkpt lat="44.9991116" lon="5.4404822">
<ele>715.84</ele>
<time>2019-07-25T08:35:27Z</time>
</trkpt>
<trkpt lat="44.9991152" lon="5.4404660">
<ele>715.80</ele>
<time>2019-07-25T08:35:28Z</time>
</trkpt>
<trkpt lat="44.9991009" lon="5.4404511">
<ele>715.75</ele>
<time>2019-07-25T08:35:29Z</time>
</trkpt>
<trkpt lat="44.9990801" lon="5.4404413">
<ele>715.70</ele>
<time>2019-07-25T08:35:30Z</time>
</trkpt>
<trkpt lat="44.9990591" lon="5.4404342">
<ele>715.63</ele>
<time>2019-07-25T08:35:31Z</time>
</trkpt>
<trkpt lat="44.9990387" lon="5.4404384">
<ele>715.55</ele>
<time>2019-07-25T08:35:32Z</time>
</trkpt>
<trkpt lat="44.9990247" lon="5.4404459">
<ele>715.46</ele>
<time>2019-07-25T08:35:33Z</time>
</trkpt>
<trkpt lat="44.9990117" lon="5.4404512">
<ele>715.35</ele>
<time>2019-07-25T08:35:34Z</time>
</trkpt>
<trkpt lat="44.9989972" lon="5.4404493">
<ele>715.22</ele>
<time>2019-07-25T08:35:35Z</time>
</trkpt>
<trkpt lat="44.9989822" lon="5.4404475">
<ele>715.09</ele>
<time>2019-07-25T08:35:36Z</time>
</trkpt>
<trkpt lat="44.9989621" lon="5.4404489">
<ele>714.96</ele>
<time>2019-07-25T08:35:37Z</time>
</trkpt>
<trkpt lat="44.9989399" lon="5.4404515">
<ele>714.81</ele>
<time>2019-07-25T08:35:38Z</time>
</trkpt>
<trkpt lat="44.9989177" lon="5.4404526">
<ele>714.65</ele>
<time>2019-07-25T08:35:39Z</time>
</trkpt>
<trkpt lat="44.9989047" lon="5.4404353">
<ele>714.47</ele>
<time>2019-07-25T08:35:40Z</time>
</trkpt>
<trkpt lat="44.9989125" lon="5.4404074">
<ele>714.27</ele>
<time>2019-07-25T08:35:41Z</time>
</trkpt>
<trkpt lat="44.9989349" lon="5.4403907">
<ele>714.06</ele>
<time>2019-07-25T08:35:42Z</time>
</trkpt>
<trkpt lat="44.9989420" lon="5.4403734">
<ele>713.85</ele>
<time>2019-07-25T08:35:43Z</time>
</trkpt>
<trkpt lat="44.9989487" lon="5.4403478">
<ele>713.64</ele>
<time>2019-07-25T08:35:44Z</time>
</trkpt>
<trkpt lat="44.9989587" lon="5.4403113">
<ele>713.44</ele>
<time>2019-07-25T08:35:45Z</time>
</trkpt>
<trkpt lat="44.9989657" lon="5.4402855">
<ele>713.24</ele>
<time>2019-07-25T08:35:46Z</time>
</trkpt>
<trkpt lat="44.9989753" lon="5.4402599">
<ele>713.04</ele>
<time>2019-07-25T08:35:47Z</time>
</trkpt>
<trkpt lat="44.9989828" lon="5.4402320">
<ele>712.85</ele>
<time>2019-07-25T08:35:48Z</time>
</trkpt>
<trkpt lat="44.9989784" lon="5.4401897">
<ele>712.66</ele>
<time>2019-07-25T08:35:49Z</time>
</trkpt>
<trkpt lat="44.9989750" lon="5.4401249">
<ele>712.47</ele>
<time>2019-07-25T08:35:50Z</time>
</trkpt>
<trkpt lat="44.9989612" lon="5.4400664">
<ele>712.29</ele>
<time>2019-07-25T08:35:51Z</time>
</trkpt>
<trkpt lat="44.9989250" lon="5.4400309">
<ele>712.11</ele>
<time>2019-07-25T08:35:52Z</time>
</trkpt>
<trkpt lat="44.9988801" lon="5.4399919">
<ele>711.94</ele>
<time>2019-07-25T08:35:53Z</time>
</trkpt>
<trkpt lat="44.9988764" lon="5.4399468">
<ele>711.77</ele>
<time>2019-07-25T08:35:54Z</time>
</trkpt>
<trkpt lat="44.9988440" lon="5.4399397">
<ele>711.60</ele>
<time>2019-07-25T08:35:55Z</time>
</trkpt>
<trkpt lat="44.9988352" lon="5.4398887">
<ele>711.43</ele>
<time>2019-07-25T08:35:56Z</time>
</trkpt>
<trkpt lat="44.9988671" lon="5.4399210">
<ele>711.27</ele>
<time>2019-07-25T08:35:57Z</time>
</trkpt>
<trkpt lat="44.9988050" lon="5.4398391">
<ele>711.11</ele>
<time>2019-07-25T08:35:58Z</time>
</trkpt>
<trkpt lat="44.9987866" lon="5.4398696">
<ele>710.95</ele>
<time>2019-07-25T08:35:59Z</time>
</trkpt>
<trkpt lat="44.9988066" lon="5.4398627">
<ele>710.94</ele>
<time>2019-07-25T08:36:00Z</time>
</trkpt>
<trkpt lat="44.9987761" lon="5.4398253">
<ele>710.78</ele>
<time>2019-07-25T08:36:01Z</time>
</trkpt>
<trkpt lat="44.9987725" lon="5.4398178">
<ele>710.77</ele>
<time>2019-07-25T08:36:02Z</time>
</trkpt>
<trkpt lat="44.9987740" lon="5.4398256">
<ele>710.75</ele>
<time>2019-07-25T08:36:03Z</time>
</trkpt>
<trkpt lat="44.9987729" lon="5.4398157">
<ele>710.61</ele>
<time>2019-07-25T08:36:04Z</time>
</trkpt>
<trkpt lat="44.9988070" lon="5.4398342">
<ele>710.46</ele>
<time>2019-07-25T08:36:05Z</time>
</trkpt>
<trkpt lat="44.9987820" lon="5.4398216">
<ele>710.32</ele>
<time>2019-07-25T08:36:06Z</time>
</trkpt>
<trkpt lat="44.9987482" lon="5.4397638">
<ele>710.17</ele>
<time>2019-07-25T08:36:07Z</time>
</trkpt>
<trkpt lat="44.9987630" lon="5.4397810">
<ele>710.04</ele>
<time>2019-07-25T08:36:08Z</time>
</trkpt>
<trkpt lat="44.9987563" lon="5.4397416">
<ele>709.90</ele>
<time>2019-07-25T08:36:09Z</time>
</trkpt>
<trkpt lat="44.9987292" lon="5.4397406">
<ele>709.76</ele>
<time>2019-07-25T08:36:10Z</time>
</trkpt>
<trkpt lat="44.9987063" lon="5.4396791">
<ele>709.63</ele>
<time>2019-07-25T08:36:11Z</time>
</trkpt>
<trkpt lat="44.9986848" lon="5.4396596">
<ele>709.50</ele>
<time>2019-07-25T08:36:12Z</time>
</trkpt>
<trkpt lat="44.9986770" lon="5.4396501">
<ele>709.38</ele>
<time>2019-07-25T08:36:13Z</time>
</trkpt>
<trkpt lat="44.9986311" lon="5.4396198">
<ele>709.25</ele>
<time>2019-07-25T08:36:14Z</time>
</trkpt>
<trkpt lat="44.9986163" lon="5.4396035">
<ele>709.13</ele>
<time>2019-07-25T08:36:15Z</time>
</trkpt>
<trkpt lat="44.9985847" lon="5.4395612">
<ele>709.01</ele>
<time>2019-07-25T08:36:16Z</time>
</trkpt>
<trkpt lat="44.9985508" lon="5.4394388">
<ele>708.89</ele>
<time>2019-07-25T08:36:17Z</time>
</trkpt>
<trkpt lat="44.9985497" lon="5.4393923">
<ele>708.77</ele>
<time>2019-07-25T08:36:18Z</time>
</trkpt>
<trkpt lat="44.9985768" lon="5.4394141">
<ele>708.65</ele>
<time>2019-07-25T08:36:19Z</time>
</trkpt>
<trkpt lat="44.9986753" lon="5.4394841">
<ele>708.53</ele>
<time>2019-07-25T08:36:20Z</time>
</trkpt>
<trkpt lat="44.9988156" lon="5.4395151">
<ele>708.42</ele>
<time>2019-07-25T08:36:21Z</time>
</trkpt>
<trkpt lat="44.9988013" lon="5.4394634">
<ele>708.31</ele>
<time>2019-07-25T08:36:22Z</time>
</trkpt>
<trkpt lat="44.9988715" lon="5.4394273">
<ele>708.20</ele>
<time>2019-07-25T08:36:23Z</time>
</trkpt>
<trkpt lat="44.9988785" lon="5.4393940">
<ele>708.09</ele>
<time>2019-07-25T08:36:24Z</time>
</trkpt>
<trkpt lat="44.9989332" lon="5.4393773">
<ele>707.98</ele>
<time>2019-07-25T08:36:25Z</time>
</trkpt>
<trkpt lat="44.9989362" lon="5.4393463">
<ele>707.87</ele>
<time>2019-07-25T08:36:26Z</time>
</trkpt>
<trkpt lat="44.9989721" lon="5.4392998">
<ele>707.77</ele>
<time>2019-07-25T08:36:27Z</time>
</trkpt>
<trkpt lat="44.9990071" lon="5.4392851">
<ele>707.66</ele>
<time>2019-07-25T08:36:28Z</time>
</trkpt>
<trkpt lat="44.9990001" lon="5.4392610">
<ele>707.56</ele>
<time>2019-07-25T08:36:29Z</time>
</trkpt>
<trkpt lat="44.9990026" lon="5.4392490">
<ele>707.47</ele>
<time>2019-07-25T08:36:30Z</time>
</trkpt>
<trkpt lat="44.9989686" lon="5.4391983">
<ele>707.37</ele>
<time>2019-07-25T08:36:31Z</time>
</trkpt>
<trkpt lat="44.9989447" lon="5.4391655">
<ele>707.28</ele>
<time>2019-07-25T08:36:32Z</time>
</trkpt>
<trkpt lat="44.9989629" lon="5.4391462">
<ele>707.19</ele>
<time>2019-07-25T08:36:33Z</time>
</trkpt>
<trkpt lat="44.9989686" lon="5.4390901">
<ele>707.10</ele>
<time>2019-07-25T08:36:34Z</time>
</trkpt>
<trkpt lat="44.9989438" lon="5.4390968">
<ele>707.02</ele>
<time>2019-07-25T08:36:35Z</time>
</trkpt>
<trkpt lat="44.9989557" lon="5.4390370">
<ele>706.94</ele>
<time>2019-07-25T08:36:36Z</time>
</trkpt>
<trkpt lat="44.9989277" lon="5.4390119">
<ele>706.86</ele>
<time>2019-07-25T08:36:37Z</time>
</trkpt>
<trkpt lat="44.9989158" lon="5.4390088">
<ele>706.77</ele>
<time>2019-07-25T08:36:38Z</time>
</trkpt>
<trkpt lat="44.9989355" lon="5.4389545">
<ele>706.70</ele>
<time>2019-07-25T08:36:39Z</time>
</trkpt>
<trkpt lat="44.9989611" lon="5.4389218">
<ele>706.62</ele>
<time>2019-07-25T08:36:40Z</time>
</trkpt>
<trkpt lat="44.9989454" lon="5.4388968">
<ele>706.54</ele>
<time>2019-07-25T08:36:41Z</time>
</trkpt>
<trkpt lat="44.9989663" lon="5.4387782">
<ele>706.46</ele>
<time>2019-07-25T08:36:42Z</time>
</trkpt>
<trkpt lat="44.9989941" lon="5.4387704">
<ele>706.38</ele>
<time>2019-07-25T08:36:43Z</time>
</trkpt>
<trkpt lat="44.9989061" lon="5.4387549">
<ele>706.29</ele>
<time>2019-07-25T08:36:44Z</time>
</trkpt>
<trkpt lat="44.9989238" lon="5.4387551">
<ele>706.19</ele>
<time>2019-07-25T08:36:45Z</time>
</trkpt>
<trkpt lat="44.9989277" lon="5.4387044">
<ele>706.08</ele>
<time>2019-07-25T08:36:46Z</time>
</trkpt>
<trkpt lat="44.9989674" lon="5.4386863">
<ele>705.97</ele>
<time>2019-07-25T08:36:47Z</time>
</trkpt>
<trkpt lat="44.9989774" lon="5.4387086">
<ele>705.86</ele>
<time>2019-07-25T08:36:48Z</time>
</trkpt>
<trkpt lat="44.9990144" lon="5.4386828">
<ele>705.75</ele>
<time>2019-07-25T08:36:49Z</time>
</trkpt>
<trkpt lat="44.9990132" lon="5.4386270">
<ele>705.64</ele>
<time>2019-07-25T08:36:50Z</time>
</trkpt>
<trkpt lat="44.9990218" lon="5.4386101">
<ele>705.53</ele>
<time>2019-07-25T08:36:51Z</time>
</trkpt>
<trkpt lat="44.9990533" lon="5.4385831">
<ele>705.42</ele>
<time>2019-07-25T08:36:52Z</time>
</trkpt>
<trkpt lat="44.9990404" lon="5.4385447">
<ele>705.31</ele>
<time>2019-07-25T08:36:53Z</time>
</trkpt>
<trkpt lat="44.9990521" lon="5.4385293">
<ele>705.21</ele>
<time>2019-07-25T08:36:54Z</time>
</trkpt>
<trkpt lat="44.9990533" lon="5.4385364">
<ele>705.10</ele>
<time>2019-07-25T08:36:55Z</time>
</trkpt>
<trkpt lat="44.9990212" lon="5.4384700">
<ele>705.00</ele>
<time>2019-07-25T08:36:56Z</time>
</trkpt>
<trkpt lat="44.9990236" lon="5.4384212">
<ele>704.90</ele>
<time>2019-07-25T08:36:57Z</time>
</trkpt>
<trkpt lat="44.9990562" lon="5.4383789">
<ele>704.80</ele>
<time>2019-07-25T08:36:58Z</time>
</trkpt>
<trkpt lat="44.9990422" lon="5.4383516">
<ele>704.72</ele>
<time>2019-07-25T08:36:59Z</time>
</trkpt>
<trkpt lat="44.9990536" lon="5.4382993">
<ele>704.64</ele>
<time>2019-07-25T08:37:00Z</time>
</trkpt>
<trkpt lat="44.9990558" lon="5.4382857">
<ele>704.56</ele>
<time>2019-07-25T08:37:01Z</time>
</trkpt>
<trkpt lat="44.9990595" lon="5.4382605">
<ele>704.49</ele>
<time>2019-07-25T08:37:02Z</time>
</trkpt>
<trkpt lat="44.9990754" lon="5.4382432">
<ele>704.43</ele>
<time>2019-07-25T08:37:03Z</time>
</trkpt>
<trkpt lat="44.9990893" lon="5.4382271">
<ele>704.36</ele>
<time>2019-07-25T08:37:04Z</time>
</trkpt>
<trkpt lat="44.9990876" lon="5.4381744">
<ele>704.29</ele>
<time>2019-07-25T08:37:05Z</time>
</trkpt>
<trkpt lat="44.9990910" lon="5.4381486">
<ele>704.24</ele>
<time>2019-07-25T08:37:06Z</time>
</trkpt>
<trkpt lat="44.9990869" lon="5.4381166">
<ele>704.18</ele>
<time>2019-07-25T08:37:07Z</time>
</trkpt>
<trkpt lat="44.9990917" lon="5.4380984">
<ele>704.13</ele>
<time>2019-07-25T08:37:08Z</time>
</trkpt>
<trkpt lat="44.9991008" lon="5.4380640">
<ele>704.08</ele>
<time>2019-07-25T08:37:09Z</time>
</trkpt>
<trkpt lat="44.9991147" lon="5.4380269">
<ele>704.03</ele>
<time>2019-07-25T08:37:10Z</time>
</trkpt>
<trkpt lat="44.9991023" lon="5.4380112">
<ele>703.98</ele>
<time>2019-07-25T08:37:11Z</time>
</trkpt>
<trkpt lat="44.9991237" lon="5.4379596">
<ele>703.94</ele>
<time>2019-07-25T08:37:12Z</time>
</trkpt>
<trkpt lat="44.9991481" lon="5.4379120">
<ele>703.91</ele>
<time>2019-07-25T08:37:13Z</time>
</trkpt>
<trkpt lat="44.9991526" lon="5.4378633">
<ele>703.89</ele>
<time>2019-07-25T08:37:14Z</time>
</trkpt>
<trkpt lat="44.9991608" lon="5.4378199">
<ele>703.89</ele>
<time>2019-07-25T08:37:15Z</time>
</trkpt>
<trkpt lat="44.9991878" lon="5.4377883">
<ele>703.90</ele>
<time>2019-07-25T08:37:16Z</time>
</trkpt>
<trkpt lat="44.9992072" lon="5.4377312">
<ele>703.93</ele>
<time>2019-07-25T08:37:17Z</time>
</trkpt>
<trkpt lat="44.9992248" lon="5.4376898">
<ele>703.96</ele>
<time>2019-07-25T08:37:18Z</time>
</trkpt>
<trkpt lat="44.9992203" lon="5.4376827">
<ele>704.01</ele>
<time>2019-07-25T08:37:19Z</time>
</trkpt>
<trkpt lat="44.9992146" lon="5.4376760">
<ele>704.05</ele>
<time>2019-07-25T08:37:20Z</time>
</trkpt>
<trkpt lat="44.9992307" lon="5.4376530">
<ele>704.10</ele>
<time>2019-07-25T08:37:21Z</time>
</trkpt>
<trkpt lat="44.9992615" lon="5.4376027">
<ele>704.16</ele>
<time>2019-07-25T08:37:22Z</time>
</trkpt>
<trkpt lat="44.9993069" lon="5.4375896">
<ele>704.22</ele>
<time>2019-07-25T08:37:23Z</time>
</trkpt>
<trkpt lat="44.9993182" lon="5.4375664">
<ele>704.28</ele>
<time>2019-07-25T08:37:24Z</time>
</trkpt>
<trkpt lat="44.9993468" lon="5.4375528">
<ele>704.35</ele>
<time>2019-07-25T08:37:25Z</time>
</trkpt>
<trkpt lat="44.9993403" lon="5.4375089">
<ele>704.41</ele>
<time>2019-07-25T08:37:26Z</time>
</trkpt>
<trkpt lat="44.9993468" lon="5.4375048">
<ele>704.47</ele>
<time>2019-07-25T08:37:27Z</time>
</trkpt>
<trkpt lat="44.9993702" lon="5.4374865">
<ele>704.53</ele>
<time>2019-07-25T08:37:28Z</time>
</trkpt>
<trkpt lat="44.9993834" lon="5.4374604">
<ele>704.59</ele>
<time>2019-07-25T08:37:29Z</time>
</trkpt>
<trkpt lat="44.9994044" lon="5.4374409">
<ele>704.65</ele>
<time>2019-07-25T08:37:30Z</time>
</trkpt>
<trkpt lat="44.9994216" lon="5.4374256">
<ele>704.70</ele>
<time>2019-07-25T08:37:31Z</time>
</trkpt>
<trkpt lat="44.9994484" lon="5.4373717">
<ele>704.76</ele>
<time>2019-07-25T08:37:32Z</time>
</trkpt>
<trkpt lat="44.9994517" lon="5.4373250">
<ele>704.80</ele>
<time>2019-07-25T08:37:33Z</time>
</trkpt>
<trkpt lat="44.9994636" lon="5.4373109">
<ele>704.86</ele>
<time>2019-07-25T08:37:34Z</time>
</trkpt>
<trkpt lat="44.9994751" lon="5.4372896">
<ele>704.92</ele>
<time>2019-07-25T08:37:35Z</time>
</trkpt>
<trkpt lat="44.9994907" lon="5.4372658">
<ele>704.98</ele>
<time>2019-07-25T08:37:36Z</time>
</trkpt>
<trkpt lat="44.9995021" lon="5.4372441">
<ele>705.04</ele>
<time>2019-07-25T08:37:37Z</time>
</trkpt>
<trkpt lat="44.9995065" lon="5.4372119">
<ele>705.08</ele>
<time>2019-07-25T08:37:38Z</time>
</trkpt>
<trkpt lat="44.9995133" lon="5.4372072">
<ele>705.13</ele>
<time>2019-07-25T08:37:39Z</time>
</trkpt>
<trkpt lat="44.9995299" lon="5.4371914">
<ele>705.19</ele>
<time>2019-07-25T08:37:40Z</time>
</trkpt>
<trkpt lat="44.9995509" lon="5.4371774">
<ele>705.26</ele>
<time>2019-07-25T08:37:41Z</time>
</trkpt>
<trkpt lat="44.9995739" lon="5.4371787">
<ele>705.32</ele>
<time>2019-07-25T08:37:42Z</time>
</trkpt>
<trkpt lat="44.9995913" lon="5.4371766">
<ele>705.38</ele>
<time>2019-07-25T08:37:43Z</time>
</trkpt>
<trkpt lat="44.9996225" lon="5.4371721">
<ele>705.43</ele>
<time>2019-07-25T08:37:44Z</time>
</trkpt>
<trkpt lat="44.9996437" lon="5.4371587">
<ele>705.48</ele>
<time>2019-07-25T08:37:45Z</time>
</trkpt>
<trkpt lat="44.9996689" lon="5.4371455">
<ele>705.53</ele>
<time>2019-07-25T08:37:46Z</time>
</trkpt>
<trkpt lat="44.9997045" lon="5.4371462">
<ele>705.60</ele>
<time>2019-07-25T08:37:47Z</time>
</trkpt>
<trkpt lat="44.9997179" lon="5.4371261">
<ele>705.69</ele>
<time>2019-07-25T08:37:48Z</time>
</trkpt>
<trkpt lat="44.9997501" lon="5.4371068">
<ele>705.80</ele>
<time>2019-07-25T08:37:49Z</time>
</trkpt>
<trkpt lat="44.9997594" lon="5.4370948">
<ele>705.95</ele>
<time>2019-07-25T08:37:50Z</time>
</trkpt>
<trkpt lat="44.9997870" lon="5.4370849">
<ele>706.09</ele>
<time>2019-07-25T08:37:51Z</time>
</trkpt>
<trkpt lat="44.9998183" lon="5.4370780">
<ele>706.25</ele>
<time>2019-07-25T08:37:52Z</time>
</trkpt>
<trkpt lat="44.9998393" lon="5.4370742">
<ele>706.41</ele>
<time>2019-07-25T08:37:53Z</time>
</trkpt>
<trkpt lat="44.9998556" lon="5.4370709">
<ele>706.57</ele>
<time>2019-07-25T08:37:54Z</time>
</trkpt>
<trkpt lat="44.9998714" lon="5.4370733">
<ele>706.72</ele>
<time>2019-07-25T08:37:55Z</time>
</trkpt>
<trkpt lat="44.9998900" lon="5.4370632">
<ele>706.88</ele>
<time>2019-07-25T08:37:56Z</time>
</trkpt>
<trkpt lat="44.9999114" lon="5.4370416">
<ele>707.03</ele>
<time>2019-07-25T08:37:57Z</time>
</trkpt>
<trkpt lat="44.9999299" lon="5.4370276">
<ele>707.18</ele>
<time>2019-07-25T08:37:58Z</time>
</trkpt>
<trkpt lat="44.9999471" lon="5.4370189">
<ele>707.31</ele>
<time>2019-07-25T08:37:59Z</time>
</trkpt>
<trkpt lat="44.9999576" lon="5.4370133">
<ele>707.45</ele>
<time>2019-07-25T08:38:00Z</time>
</trkpt>
<trkpt lat="44.9999697" lon="5.4370023">
<ele>707.60</ele>
<time>2019-07-25T08:38:01Z</time>
</trkpt>
<trkpt lat="44.9999831" lon="5.4369827">
<ele>707.76</ele>
<time>2019-07-25T08:38:02Z</time>
</trkpt>
<trkpt lat="44.9999987" lon="5.4369692">
<ele>707.92</ele>
<time>2019-07-25T08:38:03Z</time>
</trkpt>
<trkpt lat="45.0000077" lon="5.4369574">
<ele>708.07</ele>
<time>2019-07-25T08:38:04Z</time>
</trkpt>
<trkpt lat="45.0000108" lon="5.4369329">
<ele>708.23</ele>
<time>2019-07-25T08:38:05Z</time>
</trkpt>
<trkpt lat="45.0000130" lon="5.4369036">
<ele>708.39</ele>
<time>2019-07-25T08:38:06Z</time>
</trkpt>
<trkpt lat="45.0000325" lon="5.4368737">
<ele>708.56</ele>
<time>2019-07-25T08:38:07Z</time>
</trkpt>
<trkpt lat="45.0000519" lon="5.4368300">
<ele>708.73</ele>
<time>2019-07-25T08:38:08Z</time>
</trkpt>
<trkpt lat="45.0000770" lon="5.4368016">
<ele>708.90</ele>
<time>2019-07-25T08:38:09Z</time>
</trkpt>
<trkpt lat="45.0000747" lon="5.4367955">
<ele>709.07</ele>
<time>2019-07-25T08:38:10Z</time>
</trkpt>
<trkpt lat="45.0000807" lon="5.4367629">
<ele>709.23</ele>
<time>2019-07-25T08:38:11Z</time>
</trkpt>
<trkpt lat="45.0000772" lon="5.4367274">
<ele>709.40</ele>
<time>2019-07-25T08:38:12Z</time>
</trkpt>
<trkpt lat="45.0000660" lon="5.4366813">
<ele>709.57</ele>
<time>2019-07-25T08:38:13Z</time>
</trkpt>
<trkpt lat="45.0000554" lon="5.4366592">
<ele>709.73</ele>
<time>2019-07-25T08:38:14Z</time>
</trkpt>
<trkpt lat="45.0000474" lon="5.4366362">
<ele>709.90</ele>
<time>2019-07-25T08:38:15Z</time>
</trkpt>
<trkpt lat="45.0000506" lon="5.4366354">
<ele>710.05</ele>
<time>2019-07-25T08:38:16Z</time>
</trkpt>
<trkpt lat="45.0000486" lon="5.4366153">
<ele>710.21</ele>
<time>2019-07-25T08:38:17Z</time>
</trkpt>
<trkpt lat="45.0000429" lon="5.4365883">
<ele>710.35</ele>
<time>2019-07-25T08:38:18Z</time>
</trkpt>
<trkpt lat="45.0000350" lon="5.4365611">
<ele>710.48</ele>
<time>2019-07-25T08:38:19Z</time>
</trkpt>
<trkpt lat="45.0000319" lon="5.4365339">
<ele>710.63</ele>
<time>2019-07-25T08:38:20Z</time>
</trkpt>
<trkpt lat="45.0000304" lon="5.4364926">
<ele>710.77</ele>
<time>2019-07-25T08:38:21Z</time>
</trkpt>
<trkpt lat="45.0000241" lon="5.4364530">
<ele>710.91</ele>
<time>2019-07-25T08:38:22Z</time>
</trkpt>
<trkpt lat="45.0000141" lon="5.4364240">
<ele>711.04</ele>
<time>2019-07-25T08:38:23Z</time>
</trkpt>
<trkpt lat="45.0000040" lon="5.4363965">
<ele>711.16</ele>
<time>2019-07-25T08:38:24Z</time>
</trkpt>
<trkpt lat="44.9999963" lon="5.4363739">
<ele>711.27</ele>
<time>2019-07-25T08:38:25Z</time>
</trkpt>
<trkpt lat="44.9999929" lon="5.4363459">
<ele>711.39</ele>
<time>2019-07-25T08:38:26Z</time>
</trkpt>
<trkpt lat="44.9999819" lon="5.4363300">
<ele>711.50</ele>
<time>2019-07-25T08:38:27Z</time>
</trkpt>
<trkpt lat="44.9999726" lon="5.4363078">
<ele>711.61</ele>
<time>2019-07-25T08:38:28Z</time>
</trkpt>
<trkpt lat="44.9999635" lon="5.4362808">
<ele>711.71</ele>
<time>2019-07-25T08:38:29Z</time>
</trkpt>
<trkpt lat="44.9999493" lon="5.4362601">
<ele>711.81</ele>
<time>2019-07-25T08:38:30Z</time>
</trkpt>
<trkpt lat="44.9999330" lon="5.4362487">
<ele>711.91</ele>
<time>2019-07-25T08:38:31Z</time>
</trkpt>
<trkpt lat="44.9999193" lon="5.4362348">
<ele>712.01</ele>
<time>2019-07-25T08:38:32Z</time>
</trkpt>
<trkpt lat="44.9999062" lon="5.4362213">
<ele>712.10</ele>
<time>2019-07-25T08:38:33Z</time>
</trkpt>
<trkpt lat="44.9998950" lon="5.4362131">
<ele>712.21</ele>
<time>2019-07-25T08:38:34Z</time>
</trkpt>
<trkpt lat="44.9998746" lon="5.4361970">
<ele>712.30</ele>
<time>2019-07-25T08:38:35Z</time>
</trkpt>
<trkpt lat="44.9998505" lon="5.4361722">
<ele>712.38</ele>
<time>2019-07-25T08:38:36Z</time>
</trkpt>
<trkpt lat="44.9998357" lon="5.4361616">
<ele>712.47</ele>
<time>2019-07-25T08:38:37Z</time>
</trkpt>
<trkpt lat="44.9998195" lon="5.4361494">
<ele>712.55</ele>
<time>2019-07-25T08:38:38Z</time>
</trkpt>
<trkpt lat="44.9998101" lon="5.4361480">
<ele>712.64</ele>
<time>2019-07-25T08:38:39Z</time>
</trkpt>
<trkpt lat="44.9997969" lon="5.4361286">
<ele>712.72</ele>
<time>2019-07-25T08:38:40Z</time>
</trkpt>
<trkpt lat="44.9997799" lon="5.4361201">
<ele>712.81</ele>
<time>2019-07-25T08:38:41Z</time>
</trkpt>
<trkpt lat="44.9997608" lon="5.4361142">
<ele>712.89</ele>
<time>2019-07-25T08:38:42Z</time>
</trkpt>
<trkpt lat="44.9997503" lon="5.4361005">
<ele>712.97</ele>
<time>2019-07-25T08:38:43Z</time>
</trkpt>
<trkpt lat="44.9997280" lon="5.4360925">
<ele>713.06</ele>
<time>2019-07-25T08:38:44Z</time>
</trkpt>
<trkpt lat="44.9997219" lon="5.4360884">
<ele>713.15</ele>
<time>2019-07-25T08:38:45Z</time>
</trkpt>
<trkpt lat="44.9997194" lon="5.4360762">
<ele>713.23</ele>
<time>2019-07-25T08:38:46Z</time>
</trkpt>
<trkpt lat="44.9997041" lon="5.4360735">
<ele>713.31</ele>
<time>2019-07-25T08:38:47Z</time>
</trkpt>
<trkpt lat="44.9996888" lon="5.4360596">
<ele>713.39</ele>
<time>2019-07-25T08:38:48Z</time>
</trkpt>
<trkpt lat="44.9996802" lon="5.4360483">
<ele>713.48</ele>
<time>2019-07-25T08:38:49Z</time>
</trkpt>
<trkpt lat="44.9996621" lon="5.4360327">
<ele>713.57</ele>
<time>2019-07-25T08:38:50Z</time>
</trkpt>
<trkpt lat="44.9996222" lon="5.4360320">
<ele>713.65</ele>
<time>2019-07-25T08:38:51Z</time>
</trkpt>
<trkpt lat="44.9995859" lon="5.4360256">
<ele>713.74</ele>
<time>2019-07-25T08:38:52Z</time>
</trkpt>
<trkpt lat="44.9995620" lon="5.4360146">
<ele>713.83</ele>
<time>2019-07-25T08:38:53Z</time>
</trkpt>
<trkpt lat="44.9995420" lon="5.4360018">
<ele>713.92</ele>
<time>2019-07-25T08:38:54Z</time>
</trkpt>
<trkpt lat="44.9995219" lon="5.4359866">
<ele>714.01</ele>
<time>2019-07-25T08:38:55Z</time>
</trkpt>
<trkpt lat="44.9995131" lon="5.4359742">
<ele>714.11</ele>
<time>2019-07-25T08:38:56Z</time>
</trkpt>
<trkpt lat="44.9994982" lon="5.4359610">
<ele>714.20</ele>
<time>2019-07-25T08:38:57Z</time>
</trkpt>
<trkpt lat="44.9994804" lon="5.4359522">
<ele>714.30</ele>
<time>2019-07-25T08:38:58Z</time>
</trkpt>
<trkpt lat="44.9994643" lon="5.4359238">
<ele>714.39</ele>
<time>2019-07-25T08:38:59Z</time>
</trkpt>
<trkpt lat="44.9994428" lon="5.4358988">
<ele>714.46</ele>
<time>2019-07-25T08:39:00Z</time>
</trkpt>
<trkpt lat="44.9994266" lon="5.4358787">
<ele>714.54</ele>
<time>2019-07-25T08:39:01Z</time>
</trkpt>
<trkpt lat="44.9994074" lon="5.4358600">
<ele>714.61</ele>
<time>2019-07-25T08:39:02Z</time>
</trkpt>
<trkpt lat="44.9993933" lon="5.4358427">
<ele>714.68</ele>
<time>2019-07-25T08:39:03Z</time>
</trkpt>
<trkpt lat="44.9993812" lon="5.4358251">
<ele>714.75</ele>
<time>2019-07-25T08:39:04Z</time>
</trkpt>
<trkpt lat="44.9993738" lon="5.4358128">
<ele>714.82</ele>
<time>2019-07-25T08:39:05Z</time>
</trkpt>
<trkpt lat="44.9993591" lon="5.4357912">
<ele>714.88</ele>
<time>2019-07-25T08:39:06Z</time>
</trkpt>
<trkpt lat="44.9993457" lon="5.4357707">
<ele>714.95</ele>
<time>2019-07-25T08:39:07Z</time>
</trkpt>
<trkpt lat="44.9993323" lon="5.4357502">
<ele>715.01</ele>
<time>2019-07-25T08:39:08Z</time>
</trkpt>
<trkpt lat="44.9993097" lon="5.4357346">
<ele>715.06</ele>
<time>2019-07-25T08:39:09Z</time>
</trkpt>
<trkpt lat="44.9993040" lon="5.4356979">
<ele>715.11</ele>
<time>2019-07-25T08:39:10Z</time>
</trkpt>
<trkpt lat="44.9992990" lon="5.4356802">
<ele>715.17</ele>
<time>2019-07-25T08:39:11Z</time>
</trkpt>
<trkpt lat="44.9992808" lon="5.4356828">
<ele>715.24</ele>
<time>2019-07-25T08:39:12Z</time>
</trkpt>
<trkpt lat="44.9992685" lon="5.4356796">
<ele>715.30</ele>
<time>2019-07-25T08:39:13Z</time>
</trkpt>
<trkpt lat="44.9992788" lon="5.4356745">
<ele>715.37</ele>
<time>2019-07-25T08:39:14Z</time>
</trkpt>
<trkpt lat="44.9992752" lon="5.4356780">
<ele>715.37</ele>
<time>2019-07-25T08:39:15Z</time>
</trkpt>
<trkpt lat="44.9992719" lon="5.4356881">
<ele>715.38</ele>
<time>2019-07-25T08:39:16Z</time>
</trkpt>
<trkpt lat="44.9992668" lon="5.4356773">
<ele>715.39</ele>
<time>2019-07-25T08:39:17Z</time>
</trkpt>
<trkpt lat="44.9992666" lon="5.4356764">
<ele>715.39</ele>
<time>2019-07-25T08:39:18Z</time>
</trkpt>
<trkpt lat="44.9992659" lon="5.4356753">
<ele>715.40</ele>
<time>2019-07-25T08:39:19Z</time>
</trkpt>
<trkpt lat="44.9992656" lon="5.4356742">
<ele>715.41</ele>
<time>2019-07-25T08:39:20Z</time>
</trkpt>
<trkpt lat="44.9992584" lon="5.4356775">
<ele>715.49</ele>
<time>2019-07-25T08:39:21Z</time>
</trkpt>
<trkpt lat="44.9992554" lon="5.4356796">
<ele>715.57</ele>
<time>2019-07-25T08:39:22Z</time>
</trkpt>
<trkpt lat="44.9992530" lon="5.4356843">
<ele>715.64</ele>
<time>2019-07-25T08:39:23Z</time>
</trkpt>
<trkpt lat="44.9992402" lon="5.4356649">
<ele>715.65</ele>
<time>2019-07-25T08:39:24Z</time>
</trkpt>
<trkpt lat="44.9992282" lon="5.4356552">
<ele>715.66</ele>
<time>2019-07-25T08:39:25Z</time>
</trkpt>
<trkpt lat="44.9992277" lon="5.4356554">
<ele>715.66</ele>
<time>2019-07-25T08:39:26Z</time>
</trkpt>
<trkpt lat="44.9992289" lon="5.4356608">
<ele>715.76</ele>
<time>2019-07-25T08:39:27Z</time>
</trkpt>
<trkpt lat="44.9992280" lon="5.4356573">
<ele>715.85</ele>
<time>2019-07-25T08:39:28Z</time>
</trkpt>
<trkpt lat="44.9992222" lon="5.4356342">
<ele>715.86</ele>
<time>2019-07-25T08:39:29Z</time>
</trkpt>
<trkpt lat="44.9992148" lon="5.4355914">
<ele>715.96</ele>
<time>2019-07-25T08:39:30Z</time>
</trkpt>
<trkpt lat="44.9992046" lon="5.4356118">
<ele>716.06</ele>
<time>2019-07-25T08:39:31Z</time>
</trkpt>
<trkpt lat="44.9991854" lon="5.4355959">
<ele>716.15</ele>
<time>2019-07-25T08:39:32Z</time>
</trkpt>
<trkpt lat="44.9991701" lon="5.4356125">
<ele>716.24</ele>
<time>2019-07-25T08:39:33Z</time>
</trkpt>
<trkpt lat="44.9991623" lon="5.4356115">
<ele>716.33</ele>
<time>2019-07-25T08:39:34Z</time>
</trkpt>
<trkpt lat="44.9991467" lon="5.4356160">
<ele>716.44</ele>
<time>2019-07-25T08:39:35Z</time>
</trkpt>
<trkpt lat="44.9991109" lon="5.4356560">
<ele>716.54</ele>
<time>2019-07-25T08:39:36Z</time>
</trkpt>
<trkpt lat="44.9990863" lon="5.4356773">
<ele>716.66</ele>
<time>2019-07-25T08:39:37Z</time>
</trkpt>
<trkpt lat="44.9990719" lon="5.4356930">
<ele>716.77</ele>
<time>2019-07-25T08:39:38Z</time>
</trkpt>
<trkpt lat="44.9990622" lon="5.4357025">
<ele>716.88</ele>
<time>2019-07-25T08:39:39Z</time>
</trkpt>
<trkpt lat="44.9990535" lon="5.4357093">
<ele>716.99</ele>
<time>2019-07-25T08:39:40Z</time>
</trkpt>
<trkpt lat="44.9990408" lon="5.4357047">
<ele>717.10</ele>
<time>2019-07-25T08:39:41Z</time>
</trkpt>
<trkpt lat="44.9990235" lon="5.4357138">
<ele>717.20</ele>
<time>2019-07-25T08:39:42Z</time>
</trkpt>
<trkpt lat="44.9990106" lon="5.4357278">
<ele>717.30</ele>
<time>2019-07-25T08:39:43Z</time>
</trkpt>
<trkpt lat="44.9989911" lon="5.4357322">
<ele>717.41</ele>
<time>2019-07-25T08:39:44Z</time>
</trkpt>
<trkpt lat="44.9989731" lon="5.4357348">
<ele>717.50</ele>
<time>2019-07-25T08:39:45Z</time>
</trkpt>
<trkpt lat="44.9989623" lon="5.4357390">
<ele>717.59</ele>
<time>2019-07-25T08:39:46Z</time>
</trkpt>
<trkpt lat="44.9989496" lon="5.4357403">
<ele>717.69</ele>
<time>2019-07-25T08:39:47Z</time>
</trkpt>
<trkpt lat="44.9989340" lon="5.4357307">
<ele>717.77</ele>
<time>2019-07-25T08:39:48Z</time>
</trkpt>
<trkpt lat="44.9989323" lon="5.4357252">
<ele>717.87</ele>
<time>2019-07-25T08:39:49Z</time>
</trkpt>
<trkpt lat="44.9989258" lon="5.4357270">
<ele>717.96</ele>
<time>2019-07-25T08:39:50Z</time>
</trkpt>
<trkpt lat="44.9989025" lon="5.4357227">
<ele>718.05</ele>
<time>2019-07-25T08:39:51Z</time>
</trkpt>
<trkpt lat="44.9988767" lon="5.4357137">
<ele>718.15</ele>
<time>2019-07-25T08:39:52Z</time>
</trkpt>
<trkpt lat="44.9988682" lon="5.4357073">
<ele>718.24</ele>
<time>2019-07-25T08:39:53Z</time>
</trkpt>
<trkpt lat="44.9988492" lon="5.4356920">
<ele>718.33</ele>
<time>2019-07-25T08:39:54Z</time>
</trkpt>
<trkpt lat="44.9988415" lon="5.4356838">
<ele>718.43</ele>
<time>2019-07-25T08:39:55Z</time>
</trkpt>
<trkpt lat="44.9988351" lon="5.4356850">
<ele>718.51</ele>
<time>2019-07-25T08:39:56Z</time>
</trkpt>
<trkpt lat="44.9988069" lon="5.4356739">
<ele>718.59</ele>
<time>2019-07-25T08:39:57Z</time>
</trkpt>
<trkpt lat="44.9987857" lon="5.4356156">
<ele>718.66</ele>
<time>2019-07-25T08:39:58Z</time>
</trkpt>
<trkpt lat="44.9987673" lon="5.4355920">
<ele>718.73</ele>
<time>2019-07-25T08:39:59Z</time>
</trkpt>
<trkpt lat="44.9987518" lon="5.4355708">
<ele>718.80</ele>
<time>2019-07-25T08:40:00Z</time>
</trkpt>
<trkpt lat="44.9987317" lon="5.4355579">
<ele>718.85</ele>
<time>2019-07-25T08:40:01Z</time>
</trkpt>
<trkpt lat="44.9987100" lon="5.4355532">
<ele>718.89</ele>
<time>2019-07-25T08:40:02Z</time>
</trkpt>
<trkpt lat="44.9986904" lon="5.4355600">
<ele>718.93</ele>
<time>2019-07-25T08:40:03Z</time>
</trkpt>
<trkpt lat="44.9986933" lon="5.4355868">
<ele>718.96</ele>
<time>2019-07-25T08:40:04Z</time>
</trkpt>
<trkpt lat="44.9986880" lon="5.4355810">
<ele>718.99</ele>
<time>2019-07-25T08:40:05Z</time>
</trkpt>
<trkpt lat="44.9986512" lon="5.4355701">
<ele>719.03</ele>
<time>2019-07-25T08:40:06Z</time>
</trkpt>
<trkpt lat="44.9986324" lon="5.4355582">
<ele>719.07</ele>
<time>2019-07-25T08:40:07Z</time>
</trkpt>
<trkpt lat="44.9986057" lon="5.4355340">
<ele>719.10</ele>
<time>2019-07-25T08:40:08Z</time>
</trkpt>
<trkpt lat="44.9986061" lon="5.4355281">
<ele>719.13</ele>
<time>2019-07-25T08:40:09Z</time>
</trkpt>
<trkpt lat="44.9985789" lon="5.4355210">
<ele>719.15</ele>
<time>2019-07-25T08:40:10Z</time>
</trkpt>
<trkpt lat="44.9985547" lon="5.4355266">
<ele>719.18</ele>
<time>2019-07-25T08:40:11Z</time>
</trkpt>
<trkpt lat="44.9985447" lon="5.4355324">
<ele>719.22</ele>
<time>2019-07-25T08:40:12Z</time>
</trkpt>
<trkpt lat="44.9985220" lon="5.4355417">
<ele>719.24</ele>
<time>2019-07-25T08:40:13Z</time>
</trkpt>
<trkpt lat="44.9985038" lon="5.4355404">
<ele>719.25</ele>
<time>2019-07-25T08:40:14Z</time>
</trkpt>
<trkpt lat="44.9984774" lon="5.4355470">
<ele>719.25</ele>
<time>2019-07-25T08:40:15Z</time>
</trkpt>
<trkpt lat="44.9984518" lon="5.4355575">
<ele>719.27</ele>
<time>2019-07-25T08:40:16Z</time>
</trkpt>
<trkpt lat="44.9984355" lon="5.4355553">
<ele>719.27</ele>
<time>2019-07-25T08:40:17Z</time>
</trkpt>
<trkpt lat="44.9983970" lon="5.4356111">
<ele>719.29</ele>
<time>2019-07-25T08:40:18Z</time>
</trkpt>
<trkpt lat="44.9983791" lon="5.4356087">
<ele>719.31</ele>
<time>2019-07-25T08:40:19Z</time>
</trkpt>
<trkpt lat="44.9983479" lon="5.4356279">
<ele>719.33</ele>
<time>2019-07-25T08:40:20Z</time>
</trkpt>
<trkpt lat="44.9983037" lon="5.4356376">
<ele>719.37</ele>
<time>2019-07-25T08:40:21Z</time>
</trkpt>
<trkpt lat="44.9982562" lon="5.4356587">
<ele>719.41</ele>
<time>2019-07-25T08:40:22Z</time>
</trkpt>
<trkpt lat="44.9982613" lon="5.4356242">
<ele>719.46</ele>
<time>2019-07-25T08:40:23Z</time>
</trkpt>
<trkpt lat="44.9982598" lon="5.4355771">
<ele>719.49</ele>
<time>2019-07-25T08:40:24Z</time>
</trkpt>
<trkpt lat="44.9982344" lon="5.4355526">
<ele>719.53</ele>
<time>2019-07-25T08:40:25Z</time>
</trkpt>
<trkpt lat="44.9982182" lon="5.4355352">
<ele>719.55</ele>
<time>2019-07-25T08:40:26Z</time>
</trkpt>
<trkpt lat="44.9981996" lon="5.4355136">
<ele>719.57</ele>
<time>2019-07-25T08:40:27Z</time>
</trkpt>
<trkpt lat="44.9981828" lon="5.4354984">
<ele>719.58</ele>
<time>2019-07-25T08:40:28Z</time>
</trkpt>
<trkpt lat="44.9981325" lon="5.4354565">
<ele>719.60</ele>
<time>2019-07-25T08:40:29Z</time>
</trkpt>
<trkpt lat="44.9981283" lon="5.4354200">
<ele>719.61</ele>
<time>2019-07-25T08:40:30Z</time>
</trkpt>
<trkpt lat="44.9981172" lon="5.4354202">
<ele>719.63</ele>
<time>2019-07-25T08:40:31Z</time>
</trkpt>
<trkpt lat="44.9981105" lon="5.4354206">
<ele>719.66</ele>
<time>2019-07-25T08:40:32Z</time>
</trkpt>
<trkpt lat="44.9980734" lon="5.4354007">
<ele>719.67</ele>
<time>2019-07-25T08:40:33Z</time>
</trkpt>
<trkpt lat="44.9980451" lon="5.4354224">
<ele>719.69</ele>
<time>2019-07-25T08:40:34Z</time>
</trkpt>
<trkpt lat="44.9980283" lon="5.4354290">
<ele>719.69</ele>
<time>2019-07-25T08:40:35Z</time>
</trkpt>
<trkpt lat="44.9980212" lon="5.4354371">
<ele>719.69</ele>
<time>2019-07-25T08:40:36Z</time>
</trkpt>
<trkpt lat="44.9980162" lon="5.4354346">
<ele>719.67</ele>
<time>2019-07-25T08:40:37Z</time>
</trkpt>
<trkpt lat="44.9980042" lon="5.4354519">
<ele>719.65</ele>
<time>2019-07-25T08:40:38Z</time>
</trkpt>
<trkpt lat="44.9979856" lon="5.4354822">
<ele>719.63</ele>
<time>2019-07-25T08:40:39Z</time>
</trkpt>
<trkpt lat="44.9979499" lon="5.4355138">
<ele>719.60</ele>
<time>2019-07-25T08:40:40Z</time>
</trkpt>
<trkpt lat="44.9979215" lon="5.4355488">
<ele>719.56</ele>
<time>2019-07-25T08:40:41Z</time>
</trkpt>
<trkpt lat="44.9978613" lon="5.4356099">
<ele>719.52</ele>
<time>2019-07-25T08:40:42Z</time>
</trkpt>
<trkpt lat="44.9978371" lon="5.4356185">
<ele>719.48</ele>
<time>2019-07-25T08:40:43Z</time>
</trkpt>
<trkpt lat="44.9978120" lon="5.4356425">
<ele>719.43</ele>
<time>2019-07-25T08:40:44Z</time>
</trkpt>
<trkpt lat="44.9977998" lon="5.4356471">
<ele>719.37</ele>
<time>2019-07-25T08:40:45Z</time>
</trkpt>
<trkpt lat="44.9977872" lon="5.4356591">
<ele>719.30</ele>
<time>2019-07-25T08:40:46Z</time>
</trkpt>
<trkpt lat="44.9977464" lon="5.4356937">
<ele>719.23</ele>
<time>2019-07-25T08:40:47Z</time>
</trkpt>
<trkpt lat="44.9976947" lon="5.4357131">
<ele>719.17</ele>
<time>2019-07-25T08:40:48Z</time>
</trkpt>
<trkpt lat="44.9976635" lon="5.4357127">
<ele>719.11</ele>
<time>2019-07-25T08:40:49Z</time>
</trkpt>
<trkpt lat="44.9976414" lon="5.4357141">
<ele>719.04</ele>
<time>2019-07-25T08:40:50Z</time>
</trkpt>
<trkpt lat="44.9976187" lon="5.4357072">
<ele>718.98</ele>
<time>2019-07-25T08:40:51Z</time>
</trkpt>
<trkpt lat="44.9975879" lon="5.4357265">
<ele>718.90</ele>
<time>2019-07-25T08:40:52Z</time>
</trkpt>
<trkpt lat="44.9975616" lon="5.4357298">
<ele>718.81</ele>
<time>2019-07-25T08:40:53Z</time>
</trkpt>
<trkpt lat="44.9975338" lon="5.4357535">
<ele>718.70</ele>
<time>2019-07-25T08:40:54Z</time>
</trkpt>
<trkpt lat="44.9975036" lon="5.4357536">
<ele>718.60</ele>
<time>2019-07-25T08:40:55Z</time>
</trkpt>
<trkpt lat="44.9974736" lon="5.4357597">
<ele>718.52</ele>
<time>2019-07-25T08:40:56Z</time>
</trkpt>
<trkpt lat="44.9974332" lon="5.4357559">
<ele>718.47</ele>
<time>2019-07-25T08:40:57Z</time>
</trkpt>
<trkpt lat="44.9974028" lon="5.4357428">
<ele>718.43</ele>
<time>2019-07-25T08:40:58Z</time>
</trkpt>
<trkpt lat="44.9973888" lon="5.4357540">
<ele>718.39</ele>
<time>2019-07-25T08:40:59Z</time>
</trkpt>
<trkpt lat="44.9973641" lon="5.4357536">
<ele>718.32</ele>
<time>2019-07-25T08:41:00Z</time>
</trkpt>
<trkpt lat="44.9973422" lon="5.4357636">
<ele>718.24</ele>
<time>2019-07-25T08:41:01Z</time>
</trkpt>
<trkpt lat="44.9973129" lon="5.4357772">
<ele>718.15</ele>
<time>2019-07-25T08:41:02Z</time>
</trkpt>
<trkpt lat="44.9972912" lon="5.4357911">
<ele>718.07</ele>
<time>2019-07-25T08:41:03Z</time>
</trkpt>
<trkpt lat="44.9972790" lon="5.4357950">
<ele>717.99</ele>
<time>2019-07-25T08:41:04Z</time>
</trkpt>
<trkpt lat="44.9972596" lon="5.4358030">
<ele>717.90</ele>
<time>2019-07-25T08:41:05Z</time>
</trkpt>
<trkpt lat="44.9972477" lon="5.4358170">
<ele>717.80</ele>
<time>2019-07-25T08:41:06Z</time>
</trkpt>
<trkpt lat="44.9972377" lon="5.4358008">
<ele>717.71</ele>
<time>2019-07-25T08:41:07Z</time>
</trkpt>
<trkpt lat="44.9971971" lon="5.4358118">
<ele>717.62</ele>
<time>2019-07-25T08:41:08Z</time>
</trkpt>
<trkpt lat="44.9971535" lon="5.4358627">
<ele>717.54</ele>
<time>2019-07-25T08:41:09Z</time>
</trkpt>
<trkpt lat="44.9970878" lon="5.4359016">
<ele>717.47</ele>
<time>2019-07-25T08:41:10Z</time>
</trkpt>
<trkpt lat="44.9970578" lon="5.4359363">
<ele>717.39</ele>
<time>2019-07-25T08:41:11Z</time>
</trkpt>
<trkpt lat="44.9970327" lon="5.4359247">
<ele>717.31</ele>
<time>2019-07-25T08:41:12Z</time>
</trkpt>
<trkpt lat="44.9970112" lon="5.4359397">
<ele>717.23</ele>
<time>2019-07-25T08:41:13Z</time>
</trkpt>
<trkpt lat="44.9969828" lon="5.4359458">
<ele>717.14</ele>
<time>2019-07-25T08:41:14Z</time>
</trkpt>
<trkpt lat="44.9969616" lon="5.4359312">
<ele>717.06</ele>
<time>2019-07-25T08:41:15Z</time>
</trkpt>
<trkpt lat="44.9969437" lon="5.4359335">
<ele>716.98</ele>
<time>2019-07-25T08:41:16Z</time>
</trkpt>
<trkpt lat="44.9969335" lon="5.4359384">
<ele>716.91</ele>
<time>2019-07-25T08:41:17Z</time>
</trkpt>
<trkpt lat="44.9969062" lon="5.4359365">
<ele>716.86</ele>
<time>2019-07-25T08:41:18Z</time>
</trkpt>
<trkpt lat="44.9968903" lon="5.4359292">
<ele>716.82</ele>
<time>2019-07-25T08:41:19Z</time>
</trkpt>
<trkpt lat="44.9968643" lon="5.4359302">
<ele>716.77</ele>
<time>2019-07-25T08:41:20Z</time>
</trkpt>
<trkpt lat="44.9968404" lon="5.4359332">
<ele>716.74</ele>
<time>2019-07-25T08:41:21Z</time>
</trkpt>
<trkpt lat="44.9968238" lon="5.4359331">
<ele>716.72</ele>
<time>2019-07-25T08:41:22Z</time>
</trkpt>
<trkpt lat="44.9968082" lon="5.4359310">
<ele>716.70</ele>
<time>2019-07-25T08:41:23Z</time>
</trkpt>
<trkpt lat="44.9967883" lon="5.4359362">
<ele>716.69</ele>
<time>2019-07-25T08:41:24Z</time>
</trkpt>
<trkpt lat="44.9967580" lon="5.4359340">
<ele>716.67</ele>
<time>2019-07-25T08:41:25Z</time>
</trkpt>
<trkpt lat="44.9967340" lon="5.4359313">
<ele>716.65</ele>
<time>2019-07-25T08:41:26Z</time>
</trkpt>
<trkpt lat="44.9967106" lon="5.4359427">
<ele>716.65</ele>
<time>2019-07-25T08:41:27Z</time>
</trkpt>
<trkpt lat="44.9966904" lon="5.4359563">
<ele>716.64</ele>
<time>2019-07-25T08:41:28Z</time>
</trkpt>
<trkpt lat="44.9966691" lon="5.4359721">
<ele>716.64</ele>
<time>2019-07-25T08:41:29Z</time>
</trkpt>
<trkpt lat="44.9966525" lon="5.4359794">
<ele>716.63</ele>
<time>2019-07-25T08:41:30Z</time>
</trkpt>
<trkpt lat="44.9966324" lon="5.4359914">
<ele>716.63</ele>
<time>2019-07-25T08:41:31Z</time>
</trkpt>
<trkpt lat="44.9966058" lon="5.4360040">
<ele>716.65</ele>
<time>2019-07-25T08:41:32Z</time>
</trkpt>
<trkpt lat="44.9965734" lon="5.4360102">
<ele>716.66</ele>
<time>2019-07-25T08:41:33Z</time>
</trkpt>
<trkpt lat="44.9965448" lon="5.4360179">
<ele>716.68</ele>
<time>2019-07-25T08:41:34Z</time>
</trkpt>
<trkpt lat="44.9965184" lon="5.4360282">
<ele>716.70</ele>
<time>2019-07-25T08:41:35Z</time>
</trkpt>
<trkpt lat="44.9964912" lon="5.4360361">
<ele>716.72</ele>
<time>2019-07-25T08:41:36Z</time>
</trkpt>
<trkpt lat="44.9964634" lon="5.4360423">
<ele>716.74</ele>
<time>2019-07-25T08:41:37Z</time>
</trkpt>
<trkpt lat="44.9964379" lon="5.4360465">
<ele>716.77</ele>
<time>2019-07-25T08:41:38Z</time>
</trkpt>
<trkpt lat="44.9964143" lon="5.4360458">
<ele>716.80</ele>
<time>2019-07-25T08:41:39Z</time>
</trkpt>
<trkpt lat="44.9963887" lon="5.4360436">
<ele>716.83</ele>
<time>2019-07-25T08:41:40Z</time>
</trkpt>
<trkpt lat="44.9963599" lon="5.4360397">
<ele>716.85</ele>
<time>2019-07-25T08:41:41Z</time>
</trkpt>
<trkpt lat="44.9963344" lon="5.4360359">
<ele>716.88</ele>
<time>2019-07-25T08:41:42Z</time>
</trkpt>
<trkpt lat="44.9963020" lon="5.4360338">
<ele>716.93</ele>
<time>2019-07-25T08:41:43Z</time>
</trkpt>
<trkpt lat="44.9962636" lon="5.4360260">
<ele>716.98</ele>
<time>2019-07-25T08:41:44Z</time>
</trkpt>
<trkpt lat="44.9962356" lon="5.4360217">
<ele>717.03</ele>
<time>2019-07-25T08:41:45Z</time>
</trkpt>
<trkpt lat="44.9962105" lon="5.4360341">
<ele>717.08</ele>
<time>2019-07-25T08:41:46Z</time>
</trkpt>
<trkpt lat="44.9961702" lon="5.4360586">
<ele>717.14</ele>
<time>2019-07-25T08:41:47Z</time>
</trkpt>
<trkpt lat="44.9961479" lon="5.4360573">
<ele>717.20</ele>
<time>2019-07-25T08:41:48Z</time>
</trkpt>
<trkpt lat="44.9961277" lon="5.4360572">
<ele>717.24</ele>
<time>2019-07-25T08:41:49Z</time>
</trkpt>
<trkpt lat="44.9961048" lon="5.4360581">
<ele>717.29</ele>
<time>2019-07-25T08:41:50Z</time>
</trkpt>
<trkpt lat="44.9960892" lon="5.4360589">
<ele>717.33</ele>
<time>2019-07-25T08:41:51Z</time>
</trkpt>
<trkpt lat="44.9960703" lon="5.4360623">
<ele>717.37</ele>
<time>2019-07-25T08:41:52Z</time>
</trkpt>
<trkpt lat="44.9960547" lon="5.4360702">
<ele>717.40</ele>
<time>2019-07-25T08:41:53Z</time>
</trkpt>
<trkpt lat="44.9960433" lon="5.4360905">
<ele>717.44</ele>
<time>2019-07-25T08:41:54Z</time>
</trkpt>
<trkpt lat="44.9960285" lon="5.4361046">
<ele>717.48</ele>
<time>2019-07-25T08:41:55Z</time>
</trkpt>
<trkpt lat="44.9959857" lon="5.4361013">
<ele>717.51</ele>
<time>2019-07-25T08:41:56Z</time>
</trkpt>
<trkpt lat="44.9959882" lon="5.4361026">
<ele>717.54</ele>
<time>2019-07-25T08:41:57Z</time>
</trkpt>
<trkpt lat="44.9959756" lon="5.4360917">
<ele>717.58</ele>
<time>2019-07-25T08:41:58Z</time>
</trkpt>
<trkpt lat="44.9959712" lon="5.4361035">
<ele>717.61</ele>
<time>2019-07-25T08:41:59Z</time>
</trkpt>
<trkpt lat="44.9959619" lon="5.4360990">
<ele>717.64</ele>
<time>2019-07-25T08:42:00Z</time>
</trkpt>
<trkpt lat="44.9959145" lon="5.4360888">
<ele>717.69</ele>
<time>2019-07-25T08:42:01Z</time>
</trkpt>
<trkpt lat="44.9958928" lon="5.4360710">
<ele>717.73</ele>
<time>2019-07-25T08:42:02Z</time>
</trkpt>
<trkpt lat="44.9958546" lon="5.4360522">
<ele>717.76</ele>
<time>2019-07-25T08:42:03Z</time>
</trkpt>
<trkpt lat="44.9958279" lon="5.4360179">
<ele>717.78</ele>
<time>2019-07-25T08:42:04Z</time>
</trkpt>
<trkpt lat="44.9958038" lon="5.4360098">
<ele>717.79</ele>
<time>2019-07-25T08:42:05Z</time>
</trkpt>
<trkpt lat="44.9957885" lon="5.4359980">
<ele>717.81</ele>
<time>2019-07-25T08:42:06Z</time>
</trkpt>
<trkpt lat="44.9957440" lon="5.4359928">
<ele>717.84</ele>
<time>2019-07-25T08:42:07Z</time>
</trkpt>
<trkpt lat="44.9957158" lon="5.4359766">
<ele>717.86</ele>
<time>2019-07-25T08:42:08Z</time>
</trkpt>
<trkpt lat="44.9956938" lon="5.4359673">
<ele>717.87</ele>
<time>2019-07-25T08:42:09Z</time>
</trkpt>
<trkpt lat="44.9956747" lon="5.4359528">
<ele>717.87</ele>
<time>2019-07-25T08:42:10Z</time>
</trkpt>
<trkpt lat="44.9956521" lon="5.4359389">
<ele>717.88</ele>
<time>2019-07-25T08:42:11Z</time>
</trkpt>
<trkpt lat="44.9956333" lon="5.4359298">
<ele>717.87</ele>
<time>2019-07-25T08:42:12Z</time>
</trkpt>
<trkpt lat="44.9956144" lon="5.4359103">
<ele>717.87</ele>
<time>2019-07-25T08:42:13Z</time>
</trkpt>
<trkpt lat="44.9955961" lon="5.4358922">
<ele>717.87</ele>
<time>2019-07-25T08:42:14Z</time>
</trkpt>
<trkpt lat="44.9955791" lon="5.4358793">
<ele>717.86</ele>
<time>2019-07-25T08:42:15Z</time>
</trkpt>
<trkpt lat="44.9955606" lon="5.4358649">
<ele>717.84</ele>
<time>2019-07-25T08:42:16Z</time>
</trkpt>
<trkpt lat="44.9955431" lon="5.4358579">
<ele>717.81</ele>
<time>2019-07-25T08:42:17Z</time>
</trkpt>
<trkpt lat="44.9955239" lon="5.4358483">
<ele>717.78</ele>
<time>2019-07-25T08:42:18Z</time>
</trkpt>
<trkpt lat="44.9955075" lon="5.4358335">
<ele>717.74</ele>
<time>2019-07-25T08:42:19Z</time>
</trkpt>
<trkpt lat="44.9954867" lon="5.4358160">
<ele>717.71</ele>
<time>2019-07-25T08:42:20Z</time>
</trkpt>
<trkpt lat="44.9954762" lon="5.4358085">
<ele>717.68</ele>
<time>2019-07-25T08:42:21Z</time>
</trkpt>
<trkpt lat="44.9954611" lon="5.4358016">
<ele>717.66</ele>
<time>2019-07-25T08:42:22Z</time>
</trkpt>
<trkpt lat="44.9954457" lon="5.4357992">
<ele>717.63</ele>
<time>2019-07-25T08:42:23Z</time>
</trkpt>
<trkpt lat="44.9954308" lon="5.4358002">
<ele>717.60</ele>
<time>2019-07-25T08:42:24Z</time>
</trkpt>
<trkpt lat="44.9954179" lon="5.4358010">
<ele>717.59</ele>
<time>2019-07-25T08:42:25Z</time>
</trkpt>
<trkpt lat="44.9954041" lon="5.4358019">
<ele>717.59</ele>
<time>2019-07-25T08:42:26Z</time>
</trkpt>
<trkpt lat="44.9953832" lon="5.4358031">
<ele>717.59</ele>
<time>2019-07-25T08:42:27Z</time>
</trkpt>
<trkpt lat="44.9953556" lon="5.4357980">
<ele>717.59</ele>
<time>2019-07-25T08:42:28Z</time>
</trkpt>
<trkpt lat="44.9953343" lon="5.4357945">
<ele>717.59</ele>
<time>2019-07-25T08:42:29Z</time>
</trkpt>
<trkpt lat="44.9953030" lon="5.4357931">
<ele>717.60</ele>
<time>2019-07-25T08:42:30Z</time>
</trkpt>
<trkpt lat="44.9952864" lon="5.4357660">
<ele>717.60</ele>
<time>2019-07-25T08:42:31Z</time>
</trkpt>
<trkpt lat="44.9952473" lon="5.4357631">
<ele>717.60</ele>
<time>2019-07-25T08:42:32Z</time>
</trkpt>
<trkpt lat="44.9952233" lon="5.4357609">
<ele>717.59</ele>
<time>2019-07-25T08:42:33Z</time>
</trkpt>
<trkpt lat="44.9951953" lon="5.4357584">
<ele>717.59</ele>
<time>2019-07-25T08:42:34Z</time>
</trkpt>
<trkpt lat="44.9951744" lon="5.4357602">
<ele>717.58</ele>
<time>2019-07-25T08:42:35Z</time>
</trkpt>
<trkpt lat="44.9951571" lon="5.4357665">
<ele>717.57</ele>
<time>2019-07-25T08:42:36Z</time>
</trkpt>
<trkpt lat="44.9951394" lon="5.4357631">
<ele>717.57</ele>
<time>2019-07-25T08:42:37Z</time>
</trkpt>
<trkpt lat="44.9951209" lon="5.4357682">
<ele>717.56</ele>
<time>2019-07-25T08:42:38Z</time>
</trkpt>
<trkpt lat="44.9951001" lon="5.4357662">
<ele>717.56</ele>
<time>2019-07-25T08:42:39Z</time>
</trkpt>
<trkpt lat="44.9950753" lon="5.4357680">
<ele>717.55</ele>
<time>2019-07-25T08:42:40Z</time>
</trkpt>
<trkpt lat="44.9950554" lon="5.4357656">
<ele>717.56</ele>
<time>2019-07-25T08:42:41Z</time>
</trkpt>
<trkpt lat="44.9950423" lon="5.4357586">
<ele>717.56</ele>
<time>2019-07-25T08:42:42Z</time>
</trkpt>
<trkpt lat="44.9950266" lon="5.4357588">
<ele>717.56</ele>
<time>2019-07-25T08:42:43Z</time>
</trkpt>
<trkpt lat="44.9950039" lon="5.4357616">
<ele>717.57</ele>
<time>2019-07-25T08:42:44Z</time>
</trkpt>
<trkpt lat="44.9949860" lon="5.4357695">
<ele>717.57</ele>
<time>2019-07-25T08:42:45Z</time>
</trkpt>
<trkpt lat="44.9949581" lon="5.4357729">
<ele>717.58</ele>
<time>2019-07-25T08:42:46Z</time>
</trkpt>
<trkpt lat="44.9949304" lon="5.4357809">
<ele>717.59</ele>
<time>2019-07-25T08:42:47Z</time>
</trkpt>
<trkpt lat="44.9949073" lon="5.4357824">
<ele>717.60</ele>
<time>2019-07-25T08:42:48Z</time>
</trkpt>
<trkpt lat="44.9948834" lon="5.4357842">
<ele>717.61</ele>
<time>2019-07-25T08:42:49Z</time>
</trkpt>
<trkpt lat="44.9948654" lon="5.4357818">
<ele>717.61</ele>
<time>2019-07-25T08:42:50Z</time>
</trkpt>
<trkpt lat="44.9948523" lon="5.4357756">
<ele>717.62</ele>
<time>2019-07-25T08:42:51Z</time>
</trkpt>
<trkpt lat="44.9948315" lon="5.4357682">
<ele>717.63</ele>
<time>2019-07-25T08:42:52Z</time>
</trkpt>
<trkpt lat="44.9948093" lon="5.4357633">
<ele>717.64</ele>
<time>2019-07-25T08:42:53Z</time>
</trkpt>
<trkpt lat="44.9947980" lon="5.4357580">
<ele>717.65</ele>
<time>2019-07-25T08:42:54Z</time>
</trkpt>
<trkpt lat="44.9947939" lon="5.4357616">
<ele>717.65</ele>
<time>2019-07-25T08:42:55Z</time>
</trkpt>
<trkpt lat="44.9947984" lon="5.4357613">
<ele>717.66</ele>
<time>2019-07-25T08:42:56Z</time>
</trkpt>
<trkpt lat="44.9947968" lon="5.4357600">
<ele>717.66</ele>
<time>2019-07-25T08:42:57Z</time>
</trkpt>
<trkpt lat="44.9947978" lon="5.4357598">
<ele>717.67</ele>
<time>2019-07-25T08:42:58Z</time>
</trkpt>
<trkpt lat="44.9947986" lon="5.4357602">
<ele>717.67</ele>
<time>2019-07-25T08:42:59Z</time>
</trkpt>
<trkpt lat="44.9947962" lon="5.4357653">
<ele>717.67</ele>
<time>2019-07-25T08:43:00Z</time>
</trkpt>
<trkpt lat="44.9947889" lon="5.4357675">
<ele>717.71</ele>
<time>2019-07-25T08:43:01Z</time>
</trkpt>
<trkpt lat="44.9947739" lon="5.4357698">
<ele>717.75</ele>
<time>2019-07-25T08:43:02Z</time>
</trkpt>
<trkpt lat="44.9947581" lon="5.4357687">
<ele>717.81</ele>
<time>2019-07-25T08:43:03Z</time>
</trkpt>
<trkpt lat="44.9947449" lon="5.4357683">
<ele>717.87</ele>
<time>2019-07-25T08:43:04Z</time>
</trkpt>
<trkpt lat="44.9947361" lon="5.4357724">
<ele>717.94</ele>
<time>2019-07-25T08:43:05Z</time>
</trkpt>
<trkpt lat="44.9947236" lon="5.4357734">
<ele>718.01</ele>
<time>2019-07-25T08:43:06Z</time>
</trkpt>
<trkpt lat="44.9947094" lon="5.4357724">
<ele>718.09</ele>
<time>2019-07-25T08:43:07Z</time>
</trkpt>
<trkpt lat="44.9946987" lon="5.4357703">
<ele>718.17</ele>
<time>2019-07-25T08:43:08Z</time>
</trkpt>
<trkpt lat="44.9946900" lon="5.4357678">
<ele>718.24</ele>
<time>2019-07-25T08:43:09Z</time>
</trkpt>
<trkpt lat="44.9946807" lon="5.4357689">
<ele>718.32</ele>
<time>2019-07-25T08:43:10Z</time>
</trkpt>
<trkpt lat="44.9946595" lon="5.4357730">
<ele>718.39</ele>
<time>2019-07-25T08:43:11Z</time>
</trkpt>
<trkpt lat="44.9946315" lon="5.4357817">
<ele>718.46</ele>
<time>2019-07-25T08:43:12Z</time>
</trkpt>
<trkpt lat="44.9946266" lon="5.4357887">
<ele>718.53</ele>
<time>2019-07-25T08:43:13Z</time>
</trkpt>
<trkpt lat="44.9946433" lon="5.4357594">
<ele>718.61</ele>
<time>2019-07-25T08:43:14Z</time>
</trkpt>
<trkpt lat="44.9946600" lon="5.4357444">
<ele>718.68</ele>
<time>2019-07-25T08:43:15Z</time>
</trkpt>
<trkpt lat="44.9946645" lon="5.4357305">
<ele>718.69</ele>
<time>2019-07-25T08:43:16Z</time>
</trkpt>
<trkpt lat="44.9946696" lon="5.4357298">
<ele>718.78</ele>
<time>2019-07-25T08:43:17Z</time>
</trkpt>
<trkpt lat="44.9946681" lon="5.4357277">
<ele>718.79</ele>
<time>2019-07-25T08:43:18Z</time>
</trkpt>
<trkpt lat="44.9946686" lon="5.4357283">
<ele>718.80</ele>
<time>2019-07-25T08:43:19Z</time>
</trkpt>
<trkpt lat="44.9946691" lon="5.4357291">
<ele>718.81</ele>
<time>2019-07-25T08:43:20Z</time>
</trkpt>
<trkpt lat="44.9946703" lon="5.4357305">
<ele>718.82</ele>
<time>2019-07-25T08:43:21Z</time>
</trkpt>
<trkpt lat="44.9946702" lon="5.4357321">
<ele>718.83</ele>
<time>2019-07-25T08:43:22Z</time>
</trkpt>
<trkpt lat="44.9946690" lon="5.4357322">
<ele>718.84</ele>
<time>2019-07-25T08:43:23Z</time>
</trkpt>
<trkpt lat="44.9946684" lon="5.4357316">
<ele>718.85</ele>
<time>2019-07-25T08:43:24Z</time>
</trkpt>
<trkpt lat="44.9946686" lon="5.4357302">
<ele>718.86</ele>
<time>2019-07-25T08:43:25Z</time>
</trkpt>
<trkpt lat="44.9946677" lon="5.4357280">
<ele>718.88</ele>
<time>2019-07-25T08:43:26Z</time>
</trkpt>
<trkpt lat="44.9946681" lon="5.4357264">
<ele>718.89</ele>
<time>2019-07-25T08:43:27Z</time>
</trkpt>
<trkpt lat="44.9946690" lon="5.4357260">
<ele>718.90</ele>
<time>2019-07-25T08:43:28Z</time>
</trkpt>
<trkpt lat="44.9946694" lon="5.4357252">
<ele>718.91</ele>
<time>2019-07-25T08:43:29Z</time>
</trkpt>
<trkpt lat="44.9946691" lon="5.4357235">
<ele>718.93</ele>
<time>2019-07-25T08:43:30Z</time>
</trkpt>
<trkpt lat="44.9946689" lon="5.4357221">
<ele>718.94</ele>
<time>2019-07-25T08:43:31Z</time>
</trkpt>
<trkpt lat="44.9946692" lon="5.4357213">
<ele>718.96</ele>
<time>2019-07-25T08:43:32Z</time>
</trkpt>
<trkpt lat="44.9946691" lon="5.4357211">
<ele>718.97</ele>
<time>2019-07-25T08:43:33Z</time>
</trkpt>
<trkpt lat="44.9946715" lon="5.4357244">
<ele>718.99</ele>
<time>2019-07-25T08:43:34Z</time>
</trkpt>
<trkpt lat="44.9946695" lon="5.4357222">
<ele>719.13</ele>
<time>2019-07-25T08:43:35Z</time>
</trkpt>
<trkpt lat="44.9946551" lon="5.4357121">
<ele>719.27</ele>
<time>2019-07-25T08:43:36Z</time>
</trkpt>
<trkpt lat="44.9946505" lon="5.4356927">
<ele>719.41</ele>
<time>2019-07-25T08:43:37Z</time>
</trkpt>
<trkpt lat="44.9946351" lon="5.4357112">
<ele>719.54</ele>
<time>2019-07-25T08:43:38Z</time>
</trkpt>
<trkpt lat="44.9946439" lon="5.4357272">
<ele>719.66</ele>
<time>2019-07-25T08:43:39Z</time>
</trkpt>
<trkpt lat="44.9946210" lon="5.4356874">
<ele>719.78</ele>
<time>2019-07-25T08:43:40Z</time>
</trkpt>
<trkpt lat="44.9946110" lon="5.4356700">
<ele>719.90</ele>
<time>2019-07-25T08:43:41Z</time>
</trkpt>
<trkpt lat="44.9946005" lon="5.4356430">
<ele>720.02</ele>
<time>2019-07-25T08:43:42Z</time>
</trkpt>
<trkpt lat="44.9946061" lon="5.4356398">
<ele>720.13</ele>
<time>2019-07-25T08:43:43Z</time>
</trkpt>
<trkpt lat="44.9946081" lon="5.4356392">
<ele>720.24</ele>
<time>2019-07-25T08:43:44Z</time>
</trkpt>
<trkpt lat="44.9945916" lon="5.4356231">
<ele>720.35</ele>
<time>2019-07-25T08:43:45Z</time>
</trkpt>
<trkpt lat="44.9945659" lon="5.4356072">
<ele>720.45</ele>
<time>2019-07-25T08:43:46Z</time>
</trkpt>
<trkpt lat="44.9945509" lon="5.4355972">
<ele>720.55</ele>
<time>2019-07-25T08:43:47Z</time>
</trkpt>
<trkpt lat="44.9945102" lon="5.4355865">
<ele>720.64</ele>
<time>2019-07-25T08:43:48Z</time>
</trkpt>
<trkpt lat="44.9944881" lon="5.4355751">
<ele>720.72</ele>
<time>2019-07-25T08:43:49Z</time>
</trkpt>
<trkpt lat="44.9944662" lon="5.4355574">
<ele>720.80</ele>
<time>2019-07-25T08:43:50Z</time>
</trkpt>
<trkpt lat="44.9944526" lon="5.4355447">
<ele>720.87</ele>
<time>2019-07-25T08:43:51Z</time>
</trkpt>
<trkpt lat="44.9944388" lon="5.4355316">
<ele>720.93</ele>
<time>2019-07-25T08:43:52Z</time>
</trkpt>
<trkpt lat="44.9944248" lon="5.4355189">
<ele>720.98</ele>
<time>2019-07-25T08:43:53Z</time>
</trkpt>
<trkpt lat="44.9944092" lon="5.4354960">
<ele>721.03</ele>
<time>2019-07-25T08:43:54Z</time>
</trkpt>
<trkpt lat="44.9943941" lon="5.4354803">
<ele>721.05</ele>
<time>2019-07-25T08:43:55Z</time>
</trkpt>
<trkpt lat="44.9943823" lon="5.4354645">
<ele>721.08</ele>
<time>2019-07-25T08:43:56Z</time>
</trkpt>
<trkpt lat="44.9943687" lon="5.4354536">
<ele>721.09</ele>
<time>2019-07-25T08:43:57Z</time>
</trkpt>
<trkpt lat="44.9943479" lon="5.4354360">
<ele>721.07</ele>
<time>2019-07-25T08:43:58Z</time>
</trkpt>
<trkpt lat="44.9943447" lon="5.4354215">
<ele>721.04</ele>
<time>2019-07-25T08:43:59Z</time>
</trkpt>
<trkpt lat="44.9943302" lon="5.4353889">
<ele>721.01</ele>
<time>2019-07-25T08:44:00Z</time>
</trkpt>
<trkpt lat="44.9943150" lon="5.4354084">
<ele>721.01</ele>
<time>2019-07-25T08:44:01Z</time>
</trkpt>
<trkpt lat="44.9943135" lon="5.4354155">
<ele>720.99</ele>
<time>2019-07-25T08:44:02Z</time>
</trkpt>
<trkpt lat="44.9943201" lon="5.4354238">
<ele>720.98</ele>
<time>2019-07-25T08:44:03Z</time>
</trkpt>
<trkpt lat="44.9943212" lon="5.4354208">
<ele>720.98</ele>
<time>2019-07-25T08:44:04Z</time>
</trkpt>
<trkpt lat="44.9943138" lon="5.4354321">
<ele>720.97</ele>
<time>2019-07-25T08:44:05Z</time>
</trkpt>
<trkpt lat="44.9943040" lon="5.4354641">
<ele>720.97</ele>
<time>2019-07-25T08:44:06Z</time>
</trkpt>
<trkpt lat="44.9943041" lon="5.4354648">
<ele>720.97</ele>
<time>2019-07-25T08:44:07Z</time>
</trkpt>
<trkpt lat="44.9943060" lon="5.4354642">
<ele>720.97</ele>
<time>2019-07-25T08:44:08Z</time>
</trkpt>
<trkpt lat="44.9943076" lon="5.4354641">
<ele>720.96</ele>
<time>2019-07-25T08:44:09Z</time>
</trkpt>
<trkpt lat="44.9943087" lon="5.4354634">
<ele>720.96</ele>
<time>2019-07-25T08:44:10Z</time>
</trkpt>
<trkpt lat="44.9943219" lon="5.4354578">
<ele>720.96</ele>
<time>2019-07-25T08:44:11Z</time>
</trkpt>
<trkpt lat="44.9943344" lon="5.4354497">
<ele>720.95</ele>
<time>2019-07-25T08:44:12Z</time>
</trkpt>
<trkpt lat="44.9943414" lon="5.4354336">
<ele>720.95</ele>
<time>2019-07-25T08:44:13Z</time>
</trkpt>
<trkpt lat="44.9943416" lon="5.4354336">
<ele>720.95</ele>
<time>2019-07-25T08:44:14Z</time>
</trkpt>
<trkpt lat="44.9943411" lon="5.4354324">
<ele>720.95</ele>
<time>2019-07-25T08:44:15Z</time>
</trkpt>
<trkpt lat="44.9943410" lon="5.4354320">
<ele>720.95</ele>
<time>2019-07-25T08:44:16Z</time>
</trkpt>
<trkpt lat="44.9943405" lon="5.4354322">
<ele>720.96</ele>
<time>2019-07-25T08:44:17Z</time>
</trkpt>
<trkpt lat="44.9943402" lon="5.4354304">
<ele>720.96</ele>
<time>2019-07-25T08:44:18Z</time>
</trkpt>
<trkpt lat="44.9943400" lon="5.4354301">
<ele>720.96</ele>
<time>2019-07-25T08:44:19Z</time>
</trkpt>
<trkpt lat="44.9943393" lon="5.4354292">
<ele>720.97</ele>
<time>2019-07-25T08:44:20Z</time>
</trkpt>
<trkpt lat="44.9943400" lon="5.4354309">
<ele>720.97</ele>
<time>2019-07-25T08:44:21Z</time>
</trkpt>
<trkpt lat="44.9943401" lon="5.4354319">
<ele>720.97</ele>
<time>2019-07-25T08:44:22Z</time>
</trkpt>
<trkpt lat="44.9943411" lon="5.4354314">
<ele>720.98</ele>
<time>2019-07-25T08:44:23Z</time>
</trkpt>
<trkpt lat="44.9943428" lon="5.4354302">
<ele>720.98</ele>
<time>2019-07-25T08:44:24Z</time>
</trkpt>
<trkpt lat="44.9943444" lon="5.4354273">
<ele>720.99</ele>
<time>2019-07-25T08:44:25Z</time>
</trkpt>
<trkpt lat="44.9943451" lon="5.4354271">
<ele>721.00</ele>
<time>2019-07-25T08:44:26Z</time>
</trkpt>
<trkpt lat="44.9943382" lon="5.4354348">
<ele>721.00</ele>
<time>2019-07-25T08:44:27Z</time>
</trkpt>
<trkpt lat="44.9943389" lon="5.4354363">
<ele>721.01</ele>
<time>2019-07-25T08:44:28Z</time>
</trkpt>
<trkpt lat="44.9943404" lon="5.4354294">
<ele>721.02</ele>
<time>2019-07-25T08:44:29Z</time>
</trkpt>
<trkpt lat="44.9943287" lon="5.4353809">
<ele>721.08</ele>
<time>2019-07-25T08:44:30Z</time>
</trkpt>
<trkpt lat="44.9942942" lon="5.4353564">
<ele>721.14</ele>
<time>2019-07-25T08:44:31Z</time>
</trkpt>
<trkpt lat="44.9942474" lon="5.4353393">
<ele>721.23</ele>
<time>2019-07-25T08:44:32Z</time>
</trkpt>
<trkpt lat="44.9942048" lon="5.4353176">
<ele>721.30</ele>
<time>2019-07-25T08:44:33Z</time>
</trkpt>
<trkpt lat="44.9941720" lon="5.4353164">
<ele>721.37</ele>
<time>2019-07-25T08:44:34Z</time>
</trkpt>
<trkpt lat="44.9941278" lon="5.4353510">
<ele>721.43</ele>
<time>2019-07-25T08:44:35Z</time>
</trkpt>
<trkpt lat="44.9940818" lon="5.4352864">
<ele>721.48</ele>
<time>2019-07-25T08:44:36Z</time>
</trkpt>
<trkpt lat="44.9940578" lon="5.4352365">
<ele>721.54</ele>
<time>2019-07-25T08:44:37Z</time>
</trkpt>
<trkpt lat="44.9940555" lon="5.4352158">
<ele>721.60</ele>
<time>2019-07-25T08:44:38Z</time>
</trkpt>
<trkpt lat="44.9940197" lon="5.4352607">
<ele>721.63</ele>
<time>2019-07-25T08:44:39Z</time>
</trkpt>
<trkpt lat="44.9940027" lon="5.4352334">
<ele>721.65</ele>
<time>2019-07-25T08:44:40Z</time>
</trkpt>
<trkpt lat="44.9940081" lon="5.4352158">
<ele>721.62</ele>
<time>2019-07-25T08:44:41Z</time>
</trkpt>
<trkpt lat="44.9939870" lon="5.4352281">
<ele>721.61</ele>
<time>2019-07-25T08:44:42Z</time>
</trkpt>
<trkpt lat="44.9940248" lon="5.4352188">
<ele>721.60</ele>
<time>2019-07-25T08:44:43Z</time>
</trkpt>
<trkpt lat="44.9940173" lon="5.4352250">
<ele>721.61</ele>
<time>2019-07-25T08:44:44Z</time>
</trkpt>
<trkpt lat="44.9940322" lon="5.4351917">
<ele>721.63</ele>
<time>2019-07-25T08:44:45Z</time>
</trkpt>
<trkpt lat="44.9940198" lon="5.4352217">
<ele>721.63</ele>
<time>2019-07-25T08:44:46Z</time>
</trkpt>
<trkpt lat="44.9940215" lon="5.4352393">
<ele>721.63</ele>
<time>2019-07-25T08:44:47Z</time>
</trkpt>
<trkpt lat="44.9940034" lon="5.4352382">
<ele>721.65</ele>
<time>2019-07-25T08:44:48Z</time>
</trkpt>
<trkpt lat="44.9939942" lon="5.4352363">
<ele>721.64</ele>
<time>2019-07-25T08:44:49Z</time>
</trkpt>
<trkpt lat="44.9939732" lon="5.4352608">
<ele>721.65</ele>
<time>2019-07-25T08:44:50Z</time>
</trkpt>
<trkpt lat="44.9939636" lon="5.4351962">
<ele>721.63</ele>
<time>2019-07-25T08:44:51Z</time>
</trkpt>
<trkpt lat="44.9939518" lon="5.4351556">
<ele>721.63</ele>
<time>2019-07-25T08:44:52Z</time>
</trkpt>
<trkpt lat="44.9939205" lon="5.4351528">
<ele>721.60</ele>
<time>2019-07-25T08:44:53Z</time>
</trkpt>
<trkpt lat="44.9939033" lon="5.4351579">
<ele>721.59</ele>
<time>2019-07-25T08:44:54Z</time>
</trkpt>
<trkpt lat="44.9938818" lon="5.4351486">
<ele>721.62</ele>
<time>2019-07-25T08:44:55Z</time>
</trkpt>
<trkpt lat="44.9938586" lon="5.4351182">
<ele>721.66</ele>
<time>2019-07-25T08:44:56Z</time>
</trkpt>
<trkpt lat="44.9938536" lon="5.4351049">
<ele>721.69</ele>
<time>2019-07-25T08:44:57Z</time>
</trkpt>
<trkpt lat="44.9938302" lon="5.4350877">
<ele>721.70</ele>
<time>2019-07-25T08:44:58Z</time>
</trkpt>
<trkpt lat="44.9938261" lon="5.4351114">
<ele>721.69</ele>
<time>2019-07-25T08:44:59Z</time>
</trkpt>
<trkpt lat="44.9937995" lon="5.4350921">
<ele>721.70</ele>
<time>2019-07-25T08:45:00Z</time>
</trkpt>
<trkpt lat="44.9937834" lon="5.4350762">
<ele>721.69</ele>
<time>2019-07-25T08:45:01Z</time>
</trkpt>
<trkpt lat="44.9937501" lon="5.4350539">
<ele>721.69</ele>
<time>2019-07-25T08:45:02Z</time>
</trkpt>
<trkpt lat="44.9937403" lon="5.4349990">
<ele>721.66</ele>
<time>2019-07-25T08:45:03Z</time>
</trkpt>
<trkpt lat="44.9937039" lon="5.4350123">
<ele>721.67</ele>
<time>2019-07-25T08:45:04Z</time>
</trkpt>
<trkpt lat="44.9936736" lon="5.4350269">
<ele>721.69</ele>
<time>2019-07-25T08:45:05Z</time>
</trkpt>
<trkpt lat="44.9936661" lon="5.4349477">
<ele>721.72</ele>
<time>2019-07-25T08:45:06Z</time>
</trkpt>
<trkpt lat="44.9936436" lon="5.4349015">
<ele>721.76</ele>
<time>2019-07-25T08:45:07Z</time>
</trkpt>
<trkpt lat="44.9936293" lon="5.4349162">
<ele>721.84</ele>
<time>2019-07-25T08:45:08Z</time>
</trkpt>
<trkpt lat="44.9936086" lon="5.4348802">
<ele>721.96</ele>
<time>2019-07-25T08:45:09Z</time>
</trkpt>
<trkpt lat="44.9935716" lon="5.4349053">
<ele>722.09</ele>
<time>2019-07-25T08:45:10Z</time>
</trkpt>
<trkpt lat="44.9935608" lon="5.4348619">
<ele>722.25</ele>
<time>2019-07-25T08:45:11Z</time>
</trkpt>
<trkpt lat="44.9935649" lon="5.4348313">
<ele>722.41</ele>
<time>2019-07-25T08:45:12Z</time>
</trkpt>
<trkpt lat="44.9935428" lon="5.4348294">
<ele>722.54</ele>
<time>2019-07-25T08:45:13Z</time>
</trkpt>
<trkpt lat="44.9935250" lon="5.4348610">
<ele>722.68</ele>
<time>2019-07-25T08:45:14Z</time>
</trkpt>
<trkpt lat="44.9935039" lon="5.4348800">
<ele>722.82</ele>
<time>2019-07-25T08:45:15Z</time>
</trkpt>
<trkpt lat="44.9934803" lon="5.4348729">
<ele>722.96</ele>
<time>2019-07-25T08:45:16Z</time>
</trkpt>
<trkpt lat="44.9934775" lon="5.4348749">
<ele>723.09</ele>
<time>2019-07-25T08:45:17Z</time>
</trkpt>
<trkpt lat="44.9934783" lon="5.4348639">
<ele>723.25</ele>
<time>2019-07-25T08:45:18Z</time>
</trkpt>
<trkpt lat="44.9934417" lon="5.4348788">
<ele>723.42</ele>
<time>2019-07-25T08:45:19Z</time>
</trkpt>
<trkpt lat="44.9933871" lon="5.4348881">
<ele>723.60</ele>
<time>2019-07-25T08:45:20Z</time>
</trkpt>
<trkpt lat="44.9933261" lon="5.4348641">
<ele>723.80</ele>
<time>2019-07-25T08:45:21Z</time>
</trkpt>
<trkpt lat="44.9933008" lon="5.4348906">
<ele>724.05</ele>
<time>2019-07-25T08:45:22Z</time>
</trkpt>
<trkpt lat="44.9932775" lon="5.4349139">
<ele>724.30</ele>
<time>2019-07-25T08:45:23Z</time>
</trkpt>
<trkpt lat="44.9932731" lon="5.4349133">
<ele>724.57</ele>
<time>2019-07-25T08:45:24Z</time>
</trkpt>
<trkpt lat="44.9932641" lon="5.4349121">
<ele>724.83</ele>
<time>2019-07-25T08:45:25Z</time>
</trkpt>
<trkpt lat="44.9932226" lon="5.4348941">
<ele>725.09</ele>
<time>2019-07-25T08:45:26Z</time>
</trkpt>
<trkpt lat="44.9931865" lon="5.4348971">
<ele>725.34</ele>
<time>2019-07-25T08:45:27Z</time>
</trkpt>
<trkpt lat="44.9931770" lon="5.4349076">
<ele>725.60</ele>
<time>2019-07-25T08:45:28Z</time>
</trkpt>
<trkpt lat="44.9931701" lon="5.4349129">
<ele>725.88</ele>
<time>2019-07-25T08:45:29Z</time>
</trkpt>
<trkpt lat="44.9931528" lon="5.4349285">
<ele>726.16</ele>
<time>2019-07-25T08:45:30Z</time>
</trkpt>
<trkpt lat="44.9931385" lon="5.4349307">
<ele>726.44</ele>
<time>2019-07-25T08:45:31Z</time>
</trkpt>
<trkpt lat="44.9931310" lon="5.4349148">
<ele>726.73</ele>
<time>2019-07-25T08:45:32Z</time>
</trkpt>
<trkpt lat="44.9931195" lon="5.4349114">
<ele>727.04</ele>
<time>2019-07-25T08:45:33Z</time>
</trkpt>
<trkpt lat="44.9931068" lon="5.4349198">
<ele>727.34</ele>
<time>2019-07-25T08:45:34Z</time>
</trkpt>
<trkpt lat="44.9930942" lon="5.4349355">
<ele>727.65</ele>
<time>2019-07-25T08:45:35Z</time>
</trkpt>
<trkpt lat="44.9930788" lon="5.4349408">
<ele>727.97</ele>
<time>2019-07-25T08:45:36Z</time>
</trkpt>
<trkpt lat="44.9930525" lon="5.4349394">
<ele>728.29</ele>
<time>2019-07-25T08:45:37Z</time>
</trkpt>
<trkpt lat="44.9930182" lon="5.4349147">
<ele>728.60</ele>
<time>2019-07-25T08:45:38Z</time>
</trkpt>
<trkpt lat="44.9929812" lon="5.4349077">
<ele>728.91</ele>
<time>2019-07-25T08:45:39Z</time>
</trkpt>
<trkpt lat="44.9929794" lon="5.4349038">
<ele>729.24</ele>
<time>2019-07-25T08:45:40Z</time>
</trkpt>
<trkpt lat="44.9929601" lon="5.4349121">
<ele>729.56</ele>
<time>2019-07-25T08:45:41Z</time>
</trkpt>
<trkpt lat="44.9929427" lon="5.4349014">
<ele>729.89</ele>
<time>2019-07-25T08:45:42Z</time>
</trkpt>
<trkpt lat="44.9929140" lon="5.4349124">
<ele>730.21</ele>
<time>2019-07-25T08:45:43Z</time>
</trkpt>
<trkpt lat="44.9928904" lon="5.4349231">
<ele>730.53</ele>
<time>2019-07-25T08:45:44Z</time>
</trkpt>
<trkpt lat="44.9928724" lon="5.4349553">
<ele>730.85</ele>
<time>2019-07-25T08:45:45Z</time>
</trkpt>
<trkpt lat="44.9928619" lon="5.4349522">
<ele>731.15</ele>
<time>2019-07-25T08:45:46Z</time>
</trkpt>
<trkpt lat="44.9928387" lon="5.4349515">
<ele>731.45</ele>
<time>2019-07-25T08:45:47Z</time>
</trkpt>
<trkpt lat="44.9928134" lon="5.4349247">
<ele>731.76</ele>
<time>2019-07-25T08:45:48Z</time>
</trkpt>
<trkpt lat="44.9928049" lon="5.4349439">
<ele>732.06</ele>
<time>2019-07-25T08:45:49Z</time>
</trkpt>
<trkpt lat="44.9927961" lon="5.4349390">
<ele>732.38</ele>
<time>2019-07-25T08:45:50Z</time>
</trkpt>
<trkpt lat="44.9927670" lon="5.4349368">
<ele>732.70</ele>
<time>2019-07-25T08:45:51Z</time>
</trkpt>
<trkpt lat="44.9927499" lon="5.4349255">
<ele>733.02</ele>
<time>2019-07-25T08:45:52Z</time>
</trkpt>
<trkpt lat="44.9927285" lon="5.4349238">
<ele>733.33</ele>
<time>2019-07-25T08:45:53Z</time>
</trkpt>
<trkpt lat="44.9927149" lon="5.4349279">
<ele>733.64</ele>
<time>2019-07-25T08:45:54Z</time>
</trkpt>
<trkpt lat="44.9926976" lon="5.4349262">
<ele>733.97</ele>
<time>2019-07-25T08:45:55Z</time>
</trkpt>
<trkpt lat="44.9926886" lon="5.4349116">
<ele>734.28</ele>
<time>2019-07-25T08:45:56Z</time>
</trkpt>
<trkpt lat="44.9926859" lon="5.4349040">
<ele>734.58</ele>
<time>2019-07-25T08:45:57Z</time>
</trkpt>
<trkpt lat="44.9926724" lon="5.4348978">
<ele>734.87</ele>
<time>2019-07-25T08:45:58Z</time>
</trkpt>
<trkpt lat="44.9926562" lon="5.4348878">
<ele>735.16</ele>
<time>2019-07-25T08:45:59Z</time>
</trkpt>
<trkpt lat="44.9926377" lon="5.4348773">
<ele>735.45</ele>
<time>2019-07-25T08:46:00Z</time>
</trkpt>
<trkpt lat="44.9926210" lon="5.4348633">
<ele>735.76</ele>
<time>2019-07-25T08:46:01Z</time>
</trkpt>
<trkpt lat="44.9926153" lon="5.4348539">
<ele>736.12</ele>
<time>2019-07-25T08:46:02Z</time>
</trkpt>
<trkpt lat="44.9926034" lon="5.4348490">
<ele>736.46</ele>
<time>2019-07-25T08:46:03Z</time>
</trkpt>
<trkpt lat="44.9925963" lon="5.4348493">
<ele>736.79</ele>
<time>2019-07-25T08:46:04Z</time>
</trkpt>
<trkpt lat="44.9925919" lon="5.4348448">
<ele>737.10</ele>
<time>2019-07-25T08:46:05Z</time>
</trkpt>
<trkpt lat="44.9925728" lon="5.4348300">
<ele>737.40</ele>
<time>2019-07-25T08:46:06Z</time>
</trkpt>
<trkpt lat="44.9925525" lon="5.4348100">
<ele>737.69</ele>
<time>2019-07-25T08:46:07Z</time>
</trkpt>
<trkpt lat="44.9925385" lon="5.4347880">
<ele>737.97</ele>
<time>2019-07-25T08:46:08Z</time>
</trkpt>
<trkpt lat="44.9925252" lon="5.4347720">
<ele>738.25</ele>
<time>2019-07-25T08:46:09Z</time>
</trkpt>
<trkpt lat="44.9925183" lon="5.4347637">
<ele>738.54</ele>
<time>2019-07-25T08:46:10Z</time>
</trkpt>
<trkpt lat="44.9925077" lon="5.4347709">
<ele>738.80</ele>
<time>2019-07-25T08:46:11Z</time>
</trkpt>
<trkpt lat="44.9925060" lon="5.4347671">
<ele>739.06</ele>
<time>2019-07-25T08:46:12Z</time>
</trkpt>
<trkpt lat="44.9925091" lon="5.4347673">
<ele>739.31</ele>
<time>2019-07-25T08:46:13Z</time>
</trkpt>
<trkpt lat="44.9925156" lon="5.4347638">
<ele>739.56</ele>
<time>2019-07-25T08:46:14Z</time>
</trkpt>
<trkpt lat="44.9925185" lon="5.4347529">
<ele>739.81</ele>
<time>2019-07-25T08:46:15Z</time>
</trkpt>
<trkpt lat="44.9925277" lon="5.4347484">
<ele>740.04</ele>
<time>2019-07-25T08:46:16Z</time>
</trkpt>
<trkpt lat="44.9925410" lon="5.4347456">
<ele>740.06</ele>
<time>2019-07-25T08:46:17Z</time>
</trkpt>
<trkpt lat="44.9925543" lon="5.4347433">
<ele>740.08</ele>
<time>2019-07-25T08:46:18Z</time>
</trkpt>
<trkpt lat="44.9925547" lon="5.4347433">
<ele>740.11</ele>
<time>2019-07-25T08:46:19Z</time>
</trkpt>
<trkpt lat="44.9925536" lon="5.4347435">
<ele>740.13</ele>
<time>2019-07-25T08:46:20Z</time>
</trkpt>
<trkpt lat="44.9925544" lon="5.4347439">
<ele>740.15</ele>
<time>2019-07-25T08:46:21Z</time>
</trkpt>
<trkpt lat="44.9925540" lon="5.4347390">
<ele>740.36</ele>
<time>2019-07-25T08:46:22Z</time>
</trkpt>
<trkpt lat="44.9925559" lon="5.4347384">
<ele>740.58</ele>
<time>2019-07-25T08:46:23Z</time>
</trkpt>
<trkpt lat="44.9925523" lon="5.4347390">
<ele>740.82</ele>
<time>2019-07-25T08:46:24Z</time>
</trkpt>
<trkpt lat="44.9925499" lon="5.4347339">
<ele>741.06</ele>
<time>2019-07-25T08:46:25Z</time>
</trkpt>
<trkpt lat="44.9925468" lon="5.4347279">
<ele>741.30</ele>
<time>2019-07-25T08:46:26Z</time>
</trkpt>
<trkpt lat="44.9925446" lon="5.4347281">
<ele>741.33</ele>
<time>2019-07-25T08:46:27Z</time>
</trkpt>
<trkpt lat="44.9925414" lon="5.4347313">
<ele>741.56</ele>
<time>2019-07-25T08:46:28Z</time>
</trkpt>
<trkpt lat="44.9925385" lon="5.4347317">
<ele>741.81</ele>
<time>2019-07-25T08:46:29Z</time>
</trkpt>
<trkpt lat="44.9925406" lon="5.4347244">
<ele>742.07</ele>
<time>2019-07-25T08:46:30Z</time>
</trkpt>
<trkpt lat="44.9925432" lon="5.4347228">
<ele>742.32</ele>
<time>2019-07-25T08:46:31Z</time>
</trkpt>
<trkpt lat="44.9925448" lon="5.4347285">
<ele>742.35</ele>
<time>2019-07-25T08:46:32Z</time>
</trkpt>
<trkpt lat="44.9925326" lon="5.4347336">
<ele>742.61</ele>
<time>2019-07-25T08:46:33Z</time>
</trkpt>
<trkpt lat="44.9925420" lon="5.4347322">
<ele>742.90</ele>
<time>2019-07-25T08:46:34Z</time>
</trkpt>
<trkpt lat="44.9925484" lon="5.4347291">
<ele>742.93</ele>
<time>2019-07-25T08:46:35Z</time>
</trkpt>
<trkpt lat="44.9925467" lon="5.4347278">
<ele>742.96</ele>
<time>2019-07-25T08:46:36Z</time>
</trkpt>
<trkpt lat="44.9925469" lon="5.4347264">
<ele>742.99</ele>
<time>2019-07-25T08:46:37Z</time>
</trkpt>
<trkpt lat="44.9925468" lon="5.4347263">
<ele>743.02</ele>
<time>2019-07-25T08:46:38Z</time>
</trkpt>
<trkpt lat="44.9925467" lon="5.4347263">
<ele>743.05</ele>
<time>2019-07-25T08:46:39Z</time>
</trkpt>
<trkpt lat="44.9925466" lon="5.4347263">
<ele>743.08</ele>
<time>2019-07-25T08:46:40Z</time>
</trkpt>
<trkpt lat="44.9925465" lon="5.4347263">
<ele>743.11</ele>
<time>2019-07-25T08:46:41Z</time>
</trkpt>
<trkpt lat="44.9925464" lon="5.4347261">
<ele>743.14</ele>
<time>2019-07-25T08:46:42Z</time>
</trkpt>
<trkpt lat="44.9925464" lon="5.4347260">
<ele>743.17</ele>
<time>2019-07-25T08:46:43Z</time>
</trkpt>
<trkpt lat="44.9925463" lon="5.4347259">
<ele>743.20</ele>
<time>2019-07-25T08:46:44Z</time>
</trkpt>
<trkpt lat="44.9925458" lon="5.4347251">
<ele>743.23</ele>
<time>2019-07-25T08:46:45Z</time>
</trkpt>
<trkpt lat="44.9925453" lon="5.4347243">
<ele>743.26</ele>
<time>2019-07-25T08:46:46Z</time>
</trkpt>
<trkpt lat="44.9925435" lon="5.4347211">
<ele>743.29</ele>
<time>2019-07-25T08:46:47Z</time>
</trkpt>
<trkpt lat="44.9925408" lon="5.4347269">
<ele>743.32</ele>
<time>2019-07-25T08:46:48Z</time>
</trkpt>
<trkpt lat="44.9925402" lon="5.4347275">
<ele>743.35</ele>
<time>2019-07-25T08:46:49Z</time>
</trkpt>
<trkpt lat="44.9925154" lon="5.4347486">
<ele>743.68</ele>
<time>2019-07-25T08:46:50Z</time>
</trkpt>
<trkpt lat="44.9924625" lon="5.4347501">
<ele>743.72</ele>
<time>2019-07-25T08:46:51Z</time>
</trkpt>
<trkpt lat="44.9924503" lon="5.4347860">
<ele>743.75</ele>
<time>2019-07-25T08:46:52Z</time>
</trkpt>
<trkpt lat="44.9924469" lon="5.4347819">
<ele>743.79</ele>
<time>2019-07-25T08:46:53Z</time>
</trkpt>
<trkpt lat="44.9924570" lon="5.4347911">
<ele>744.14</ele>
<time>2019-07-25T08:46:54Z</time>
</trkpt>
<trkpt lat="44.9924652" lon="5.4348000">
<ele>744.48</ele>
<time>2019-07-25T08:46:55Z</time>
</trkpt>
<trkpt lat="44.9924631" lon="5.4347899">
<ele>744.52</ele>
<time>2019-07-25T08:46:56Z</time>
</trkpt>
<trkpt lat="44.9924626" lon="5.4348092">
<ele>744.87</ele>
<time>2019-07-25T08:46:57Z</time>
</trkpt>
<trkpt lat="44.9924615" lon="5.4348090">
<ele>744.90</ele>
<time>2019-07-25T08:46:58Z</time>
</trkpt>
<trkpt lat="44.9924628" lon="5.4348064">
<ele>744.94</ele>
<time>2019-07-25T08:46:59Z</time>
</trkpt>
<trkpt lat="44.9924424" lon="5.4347652">
<ele>745.30</ele>
<time>2019-07-25T08:47:00Z</time>
</trkpt>
<trkpt lat="44.9924167" lon="5.4347458">
<ele>745.65</ele>
<time>2019-07-25T08:47:01Z</time>
</trkpt>
<trkpt lat="44.9923751" lon="5.4347474">
<ele>746.01</ele>
<time>2019-07-25T08:47:02Z</time>
</trkpt>
<trkpt lat="44.9923424" lon="5.4347243">
<ele>746.35</ele>
<time>2019-07-25T08:47:03Z</time>
</trkpt>
<trkpt lat="44.9923073" lon="5.4347202">
<ele>746.68</ele>
<time>2019-07-25T08:47:04Z</time>
</trkpt>
<trkpt lat="44.9922982" lon="5.4347103">
<ele>747.01</ele>
<time>2019-07-25T08:47:05Z</time>
</trkpt>
<trkpt lat="44.9923075" lon="5.4347150">
<ele>747.34</ele>
<time>2019-07-25T08:47:06Z</time>
</trkpt>
<trkpt lat="44.9922980" lon="5.4347006">
<ele>747.64</ele>
<time>2019-07-25T08:47:07Z</time>
</trkpt>
<trkpt lat="44.9922630" lon="5.4346824">
<ele>747.93</ele>
<time>2019-07-25T08:47:08Z</time>
</trkpt>
<trkpt lat="44.9922210" lon="5.4346663">
<ele>748.23</ele>
<time>2019-07-25T08:47:09Z</time>
</trkpt>
<trkpt lat="44.9922023" lon="5.4346713">
<ele>748.54</ele>
<time>2019-07-25T08:47:10Z</time>
</trkpt>
<trkpt lat="44.9921883" lon="5.4346697">
<ele>748.84</ele>
<time>2019-07-25T08:47:11Z</time>
</trkpt>
<trkpt lat="44.9921776" lon="5.4346727">
<ele>749.14</ele>
<time>2019-07-25T08:47:12Z</time>
</trkpt>
<trkpt lat="44.9921585" lon="5.4346785">
<ele>749.43</ele>
<time>2019-07-25T08:47:13Z</time>
</trkpt>
<trkpt lat="44.9921419" lon="5.4346752">
<ele>749.72</ele>
<time>2019-07-25T08:47:14Z</time>
</trkpt>
<trkpt lat="44.9921222" lon="5.4346799">
<ele>750.00</ele>
<time>2019-07-25T08:47:15Z</time>
</trkpt>
<trkpt lat="44.9921011" lon="5.4346714">
<ele>750.27</ele>
<time>2019-07-25T08:47:16Z</time>
</trkpt>
<trkpt lat="44.9920923" lon="5.4346660">
<ele>750.54</ele>
<time>2019-07-25T08:47:17Z</time>
</trkpt>
<trkpt lat="44.9920769" lon="5.4346491">
<ele>750.80</ele>
<time>2019-07-25T08:47:18Z</time>
</trkpt>
<trkpt lat="44.9920636" lon="5.4346388">
<ele>751.06</ele>
<time>2019-07-25T08:47:19Z</time>
</trkpt>
<trkpt lat="44.9920385" lon="5.4346230">
<ele>751.31</ele>
<time>2019-07-25T08:47:20Z</time>
</trkpt>
<trkpt lat="44.9920344" lon="5.4346186">
<ele>751.55</ele>
<time>2019-07-25T08:47:21Z</time>
</trkpt>
<trkpt lat="44.9920221" lon="5.4345997">
<ele>751.79</ele>
<time>2019-07-25T08:47:22Z</time>
</trkpt>
<trkpt lat="44.9919989" lon="5.4346005">
<ele>752.02</ele>
<time>2019-07-25T08:47:23Z</time>
</trkpt>
<trkpt lat="44.9919929" lon="5.4345998">
<ele>752.25</ele>
<time>2019-07-25T08:47:24Z</time>
</trkpt>
<trkpt lat="44.9919683" lon="5.4345973">
<ele>752.49</ele>
<time>2019-07-25T08:47:25Z</time>
</trkpt>
<trkpt lat="44.9919433" lon="5.4345874">
<ele>752.72</ele>
<time>2019-07-25T08:47:26Z</time>
</trkpt>
<trkpt lat="44.9919327" lon="5.4345757">
<ele>752.95</ele>
<time>2019-07-25T08:47:27Z</time>
</trkpt>
<trkpt lat="44.9919197" lon="5.4345656">
<ele>753.19</ele>
<time>2019-07-25T08:47:28Z</time>
</trkpt>
<trkpt lat="44.9919039" lon="5.4345656">
<ele>753.42</ele>
<time>2019-07-25T08:47:29Z</time>
</trkpt>
<trkpt lat="44.9918813" lon="5.4345699">
<ele>753.65</ele>
<time>2019-07-25T08:47:30Z</time>
</trkpt>
<trkpt lat="44.9918508" lon="5.4345770">
<ele>753.87</ele>
<time>2019-07-25T08:47:31Z</time>
</trkpt>
<trkpt lat="44.9918289" lon="5.4345710">
<ele>754.09</ele>
<time>2019-07-25T08:47:32Z</time>
</trkpt>
<trkpt lat="44.9918126" lon="5.4345611">
<ele>754.30</ele>
<time>2019-07-25T08:47:33Z</time>
</trkpt>
<trkpt lat="44.9917955" lon="5.4345448">
<ele>754.54</ele>
<time>2019-07-25T08:47:34Z</time>
</trkpt>
<trkpt lat="44.9917812" lon="5.4345389">
<ele>754.78</ele>
<time>2019-07-25T08:47:35Z</time>
</trkpt>
<trkpt lat="44.9917596" lon="5.4345395">
<ele>754.98</ele>
<time>2019-07-25T08:47:36Z</time>
</trkpt>
<trkpt lat="44.9917430" lon="5.4345267">
<ele>755.21</ele>
<time>2019-07-25T08:47:37Z</time>
</trkpt>
<trkpt lat="44.9917284" lon="5.4345122">
<ele>755.43</ele>
<time>2019-07-25T08:47:38Z</time>
</trkpt>
<trkpt lat="44.9917062" lon="5.4345132">
<ele>755.66</ele>
<time>2019-07-25T08:47:39Z</time>
</trkpt>
<trkpt lat="44.9916844" lon="5.4345051">
<ele>755.91</ele>
<time>2019-07-25T08:47:40Z</time>
</trkpt>
<trkpt lat="44.9916685" lon="5.4344959">
<ele>756.20</ele>
<time>2019-07-25T08:47:41Z</time>
</trkpt>
<trkpt lat="44.9916542" lon="5.4344851">
<ele>756.47</ele>
<time>2019-07-25T08:47:42Z</time>
</trkpt>
<trkpt lat="44.9916334" lon="5.4344872">
<ele>756.71</ele>
<time>2019-07-25T08:47:43Z</time>
</trkpt>
<trkpt lat="44.9916151" lon="5.4344827">
<ele>756.98</ele>
<time>2019-07-25T08:47:44Z</time>
</trkpt>
<trkpt lat="44.9916010" lon="5.4345023">
<ele>757.24</ele>
<time>2019-07-25T08:47:45Z</time>
</trkpt>
<trkpt lat="44.9915761" lon="5.4344982">
<ele>757.50</ele>
<time>2019-07-25T08:47:46Z</time>
</trkpt>
<trkpt lat="44.9915547" lon="5.4344823">
<ele>757.75</ele>
<time>2019-07-25T08:47:47Z</time>
</trkpt>
<trkpt lat="44.9915445" lon="5.4344758">
<ele>758.01</ele>
<time>2019-07-25T08:47:48Z</time>
</trkpt>
<trkpt lat="44.9915259" lon="5.4344797">
<ele>758.26</ele>
<time>2019-07-25T08:47:49Z</time>
</trkpt>
<trkpt lat="44.9915088" lon="5.4344784">
<ele>758.53</ele>
<time>2019-07-25T08:47:50Z</time>
</trkpt>
<trkpt lat="44.9914835" lon="5.4344759">
<ele>758.79</ele>
<time>2019-07-25T08:47:51Z</time>
</trkpt>
<trkpt lat="44.9914705" lon="5.4344736">
<ele>759.03</ele>
<time>2019-07-25T08:47:52Z</time>
</trkpt>
<trkpt lat="44.9914437" lon="5.4344797">
<ele>759.26</ele>
<time>2019-07-25T08:47:53Z</time>
</trkpt>
<trkpt lat="44.9914229" lon="5.4344877">
<ele>759.51</ele>
<time>2019-07-25T08:47:54Z</time>
</trkpt>
<trkpt lat="44.9914049" lon="5.4344874">
<ele>759.78</ele>
<time>2019-07-25T08:47:55Z</time>
</trkpt>
<trkpt lat="44.9913829" lon="5.4344840">
<ele>760.06</ele>
<time>2019-07-25T08:47:56Z</time>
</trkpt>
<trkpt lat="44.9913601" lon="5.4344904">
<ele>760.32</ele>
<time>2019-07-25T08:47:57Z</time>
</trkpt>
<trkpt lat="44.9913379" lon="5.4344846">
<ele>760.59</ele>
<time>2019-07-25T08:47:58Z</time>
</trkpt>
<trkpt lat="44.9913162" lon="5.4344835">
<ele>760.85</ele>
<time>2019-07-25T08:47:59Z</time>
</trkpt>
<trkpt lat="44.9912873" lon="5.4344839">
<ele>761.13</ele>
<time>2019-07-25T08:48:00Z</time>
</trkpt>
<trkpt lat="44.9912626" lon="5.4344777">
<ele>761.41</ele>
<time>2019-07-25T08:48:01Z</time>
</trkpt>
<trkpt lat="44.9912395" lon="5.4344875">
<ele>761.70</ele>
<time>2019-07-25T08:48:02Z</time>
</trkpt>
<trkpt lat="44.9912139" lon="5.4344888">
<ele>761.99</ele>
<time>2019-07-25T08:48:03Z</time>
</trkpt>
<trkpt lat="44.9911938" lon="5.4344924">
<ele>762.28</ele>
<time>2019-07-25T08:48:04Z</time>
</trkpt>
<trkpt lat="44.9911724" lon="5.4345054">
<ele>762.56</ele>
<time>2019-07-25T08:48:05Z</time>
</trkpt>
<trkpt lat="44.9911499" lon="5.4345067">
<ele>762.84</ele>
<time>2019-07-25T08:48:06Z</time>
</trkpt>
<trkpt lat="44.9911229" lon="5.4345066">
<ele>763.11</ele>
<time>2019-07-25T08:48:07Z</time>
</trkpt>
<trkpt lat="44.9910989" lon="5.4345060">
<ele>763.39</ele>
<time>2019-07-25T08:48:08Z</time>
</trkpt>
<trkpt lat="44.9910824" lon="5.4345176">
<ele>763.67</ele>
<time>2019-07-25T08:48:09Z</time>
</trkpt>
<trkpt lat="44.9910654" lon="5.4345220">
<ele>763.97</ele>
<time>2019-07-25T08:48:10Z</time>
</trkpt>
<trkpt lat="44.9910294" lon="5.4345291">
<ele>764.27</ele>
<time>2019-07-25T08:48:11Z</time>
</trkpt>
<trkpt lat="44.9909989" lon="5.4345398">
<ele>764.58</ele>
<time>2019-07-25T08:48:12Z</time>
</trkpt>
<trkpt lat="44.9909735" lon="5.4345365">
<ele>764.90</ele>
<time>2019-07-25T08:48:13Z</time>
</trkpt>
<trkpt lat="44.9909425" lon="5.4345399">
<ele>765.23</ele>
<time>2019-07-25T08:48:14Z</time>
</trkpt>
<trkpt lat="44.9909212" lon="5.4345457">
<ele>765.56</ele>
<time>2019-07-25T08:48:15Z</time>
</trkpt>
<trkpt lat="44.9908943" lon="5.4345431">
<ele>765.90</ele>
<time>2019-07-25T08:48:16Z</time>
</trkpt>
<trkpt lat="44.9908683" lon="5.4345470">
<ele>766.22</ele>
<time>2019-07-25T08:48:17Z</time>
</trkpt>
<trkpt lat="44.9908467" lon="5.4345432">
<ele>766.54</ele>
<time>2019-07-25T08:48:18Z</time>
</trkpt>
<trkpt lat="44.9908326" lon="5.4345434">
<ele>766.84</ele>
<time>2019-07-25T08:48:19Z</time>
</trkpt>
<trkpt lat="44.9908255" lon="5.4345424">
<ele>767.13</ele>
<time>2019-07-25T08:48:20Z</time>
</trkpt>
<trkpt lat="44.9908116" lon="5.4345542">
<ele>767.41</ele>
<time>2019-07-25T08:48:21Z</time>
</trkpt>
<trkpt lat="44.9907839" lon="5.4345598">
<ele>767.69</ele>
<time>2019-07-25T08:48:22Z</time>
</trkpt>
<trkpt lat="44.9907553" lon="5.4345585">
<ele>767.99</ele>
<time>2019-07-25T08:48:23Z</time>
</trkpt>
<trkpt lat="44.9907257" lon="5.4345628">
<ele>768.31</ele>
<time>2019-07-25T08:48:24Z</time>
</trkpt>
<trkpt lat="44.9907031" lon="5.4345633">
<ele>768.61</ele>
<time>2019-07-25T08:48:25Z</time>
</trkpt>
<trkpt lat="44.9906832" lon="5.4345604">
<ele>768.91</ele>
<time>2019-07-25T08:48:26Z</time>
</trkpt>
<trkpt lat="44.9906683" lon="5.4345597">
<ele>769.26</ele>
<time>2019-07-25T08:48:27Z</time>
</trkpt>
<trkpt lat="44.9906551" lon="5.4345633">
<ele>769.59</ele>
<time>2019-07-25T08:48:28Z</time>
</trkpt>
<trkpt lat="44.9906318" lon="5.4345619">
<ele>769.90</ele>
<time>2019-07-25T08:48:29Z</time>
</trkpt>
<trkpt lat="44.9906214" lon="5.4345610">
<ele>770.20</ele>
<time>2019-07-25T08:48:30Z</time>
</trkpt>
<trkpt lat="44.9906166" lon="5.4345594">
<ele>770.46</ele>
<time>2019-07-25T08:48:31Z</time>
</trkpt>
<trkpt lat="44.9906107" lon="5.4345598">
<ele>770.49</ele>
<time>2019-07-25T08:48:32Z</time>
</trkpt>
<trkpt lat="44.9906060" lon="5.4345610">
<ele>770.78</ele>
<time>2019-07-25T08:48:33Z</time>
</trkpt>
<trkpt lat="44.9905965" lon="5.4345628">
<ele>770.81</ele>
<time>2019-07-25T08:48:34Z</time>
</trkpt>
<trkpt lat="44.9905996" lon="5.4345622">
<ele>770.83</ele>
<time>2019-07-25T08:48:35Z</time>
</trkpt>
<trkpt lat="44.9906011" lon="5.4345664">
<ele>770.87</ele>
<time>2019-07-25T08:48:36Z</time>
</trkpt>
<trkpt lat="44.9906254" lon="5.4345772">
<ele>771.17</ele>
<time>2019-07-25T08:48:37Z</time>
</trkpt>
<trkpt lat="44.9906261" lon="5.4345695">
<ele>771.51</ele>
<time>2019-07-25T08:48:38Z</time>
</trkpt>
<trkpt lat="44.9906039" lon="5.4345961">
<ele>771.85</ele>
<time>2019-07-25T08:48:39Z</time>
</trkpt>
<trkpt lat="44.9905945" lon="5.4346001">
<ele>772.18</ele>
<time>2019-07-25T08:48:40Z</time>
</trkpt>
<trkpt lat="44.9905939" lon="5.4346003">
<ele>772.21</ele>
<time>2019-07-25T08:48:41Z</time>
</trkpt>
<trkpt lat="44.9905939" lon="5.4346004">
<ele>772.24</ele>
<time>2019-07-25T08:48:42Z</time>
</trkpt>
<trkpt lat="44.9905934" lon="5.4346006">
<ele>772.28</ele>
<time>2019-07-25T08:48:43Z</time>
</trkpt>
<trkpt lat="44.9905938" lon="5.4346045">
<ele>772.61</ele>
<time>2019-07-25T08:48:44Z</time>
</trkpt>
<trkpt lat="44.9905927" lon="5.4346047">
<ele>772.64</ele>
<time>2019-07-25T08:48:45Z</time>
</trkpt>
<trkpt lat="44.9905932" lon="5.4346046">
<ele>772.67</ele>
<time>2019-07-25T08:48:46Z</time>
</trkpt>
<trkpt lat="44.9905936" lon="5.4346046">
<ele>772.70</ele>
<time>2019-07-25T08:48:47Z</time>
</trkpt>
<trkpt lat="44.9905936" lon="5.4346044">
<ele>772.74</ele>
<time>2019-07-25T08:48:48Z</time>
</trkpt>
<trkpt lat="44.9905936" lon="5.4346043">
<ele>772.77</ele>
<time>2019-07-25T08:48:49Z</time>
</trkpt>
<trkpt lat="44.9905950" lon="5.4346043">
<ele>772.81</ele>
<time>2019-07-25T08:48:50Z</time>
</trkpt>
<trkpt lat="44.9905952" lon="5.4346042">
<ele>772.84</ele>
<time>2019-07-25T08:48:51Z</time>
</trkpt>
<trkpt lat="44.9905943" lon="5.4346042">
<ele>772.88</ele>
<time>2019-07-25T08:48:52Z</time>
</trkpt>
<trkpt lat="44.9905940" lon="5.4346042">
<ele>772.93</ele>
<time>2019-07-25T08:48:53Z</time>
</trkpt>
<trkpt lat="44.9905942" lon="5.4346040">
<ele>772.97</ele>
<time>2019-07-25T08:48:54Z</time>
</trkpt>
<trkpt lat="44.9905946" lon="5.4346039">
<ele>773.02</ele>
<time>2019-07-25T08:48:55Z</time>
</trkpt>
<trkpt lat="44.9905949" lon="5.4346037">
<ele>773.07</ele>
<time>2019-07-25T08:48:56Z</time>
</trkpt>
<trkpt lat="44.9905954" lon="5.4346037">
<ele>773.12</ele>
<time>2019-07-25T08:48:57Z</time>
</trkpt>
<trkpt lat="44.9905957" lon="5.4346035">
<ele>773.17</ele>
<time>2019-07-25T08:48:58Z</time>
</trkpt>
<trkpt lat="44.9905961" lon="5.4346035">
<ele>773.22</ele>
<time>2019-07-25T08:48:59Z</time>
</trkpt>
<trkpt lat="44.9905966" lon="5.4346032">
<ele>773.27</ele>
<time>2019-07-25T08:49:00Z</time>
</trkpt>
<trkpt lat="44.9905970" lon="5.4346028">
<ele>773.32</ele>
<time>2019-07-25T08:49:01Z</time>
</trkpt>
<trkpt lat="44.9905971" lon="5.4346026">
<ele>773.37</ele>
<time>2019-07-25T08:49:02Z</time>
</trkpt>
<trkpt lat="44.9905976" lon="5.4346023">
<ele>773.42</ele>
<time>2019-07-25T08:49:03Z</time>
</trkpt>
<trkpt lat="44.9905984" lon="5.4346017">
<ele>773.48</ele>
<time>2019-07-25T08:49:04Z</time>
</trkpt>
<trkpt lat="44.9905991" lon="5.4346008">
<ele>773.53</ele>
<time>2019-07-25T08:49:05Z</time>
</trkpt>
<trkpt lat="44.9905996" lon="5.4346000">
<ele>773.58</ele>
<time>2019-07-25T08:49:06Z</time>
</trkpt>
<trkpt lat="44.9905998" lon="5.4345996">
<ele>773.64</ele>
<time>2019-07-25T08:49:07Z</time>
</trkpt>
<trkpt lat="44.9906005" lon="5.4345989">
<ele>773.69</ele>
<time>2019-07-25T08:49:08Z</time>
</trkpt>
<trkpt lat="44.9906009" lon="5.4345983">
<ele>773.75</ele>
<time>2019-07-25T08:49:09Z</time>
</trkpt>
<trkpt lat="44.9906015" lon="5.4345978">
<ele>773.81</ele>
<time>2019-07-25T08:49:10Z</time>
</trkpt>
<trkpt lat="44.9906016" lon="5.4345974">
<ele>773.86</ele>
<time>2019-07-25T08:49:11Z</time>
</trkpt>
<trkpt lat="44.9906014" lon="5.4345971">
<ele>773.92</ele>
<time>2019-07-25T08:49:12Z</time>
</trkpt>
<trkpt lat="44.9906011" lon="5.4345969">
<ele>773.98</ele>
<time>2019-07-25T08:49:13Z</time>
</trkpt>
<trkpt lat="44.9906015" lon="5.4345966">
<ele>774.04</ele>
<time>2019-07-25T08:49:14Z</time>
</trkpt>
<trkpt lat="44.9906015" lon="5.4345965">
<ele>774.09</ele>
<time>2019-07-25T08:49:15Z</time>
</trkpt>
<trkpt lat="44.9906018" lon="5.4345963">
<ele>774.15</ele>
<time>2019-07-25T08:49:16Z</time>
</trkpt>
<trkpt lat="44.9906017" lon="5.4345963">
<ele>774.21</ele>
<time>2019-07-25T08:49:17Z</time>
</trkpt>
<trkpt lat="44.9906014" lon="5.4345963">
<ele>774.27</ele>
<time>2019-07-25T08:49:18Z</time>
</trkpt>
<trkpt lat="44.9906011" lon="5.4345964">
<ele>774.33</ele>
<time>2019-07-25T08:49:19Z</time>
</trkpt>
<trkpt lat="44.9906009" lon="5.4345971">
<ele>774.39</ele>
<time>2019-07-25T08:49:20Z</time>
</trkpt>
<trkpt lat="44.9906011" lon="5.4345976">
<ele>774.46</ele>
<time>2019-07-25T08:49:21Z</time>
</trkpt>
<trkpt lat="44.9906014" lon="5.4345977">
<ele>774.53</ele>
<time>2019-07-25T08:49:22Z</time>
</trkpt>
<trkpt lat="44.9906016" lon="5.4345979">
<ele>774.59</ele>
<time>2019-07-25T08:49:23Z</time>
</trkpt>
<trkpt lat="44.9906021" lon="5.4345980">
<ele>774.67</ele>
<time>2019-07-25T08:49:24Z</time>
</trkpt>
<trkpt lat="44.9906020" lon="5.4345983">
<ele>774.74</ele>
<time>2019-07-25T08:49:25Z</time>
</trkpt>
<trkpt lat="44.9906015" lon="5.4345993">
<ele>774.81</ele>
<time>2019-07-25T08:49:26Z</time>
</trkpt>
<trkpt lat="44.9906010" lon="5.4346000">
<ele>774.89</ele>
<time>2019-07-25T08:49:27Z</time>
</trkpt>
<trkpt lat="44.9906013" lon="5.4345999">
<ele>774.96</ele>
<time>2019-07-25T08:49:28Z</time>
</trkpt>
<trkpt lat="44.9906020" lon="5.4345996">
<ele>775.04</ele>
<time>2019-07-25T08:49:29Z</time>
</trkpt>
<trkpt lat="44.9906023" lon="5.4345996">
<ele>775.12</ele>
<time>2019-07-25T08:49:30Z</time>
</trkpt>
<trkpt lat="44.9906026" lon="5.4345996">
<ele>775.20</ele>
<time>2019-07-25T08:49:31Z</time>
</trkpt>
<trkpt lat="44.9906026" lon="5.4345998">
<ele>775.29</ele>
<time>2019-07-25T08:49:32Z</time>
</trkpt>
<trkpt lat="44.9906020" lon="5.4346004">
<ele>775.37</ele>
<time>2019-07-25T08:49:33Z</time>
</trkpt>
<trkpt lat="44.9906020" lon="5.4346010">
<ele>775.46</ele>
<time>2019-07-25T08:49:34Z</time>
</trkpt>
<trkpt lat="44.9906018" lon="5.4346017">
<ele>775.56</ele>
<time>2019-07-25T08:49:35Z</time>
</trkpt>
<trkpt lat="44.9906017" lon="5.4346026">
<ele>775.65</ele>
<time>2019-07-25T08:49:36Z</time>
</trkpt>
<trkpt lat="44.9906021" lon="5.4346029">
<ele>775.75</ele>
<time>2019-07-25T08:49:37Z</time>
</trkpt>
<trkpt lat="44.9906027" lon="5.4346029">
<ele>775.84</ele>
<time>2019-07-25T08:49:38Z</time>
</trkpt>
<trkpt lat="44.9906029" lon="5.4346033">
<ele>775.94</ele>
<time>2019-07-25T08:49:39Z</time>
</trkpt>
<trkpt lat="44.9906034" lon="5.4346034">
<ele>776.05</ele>
<time>2019-07-25T08:49:40Z</time>
</trkpt>
<trkpt lat="44.9906040" lon="5.4346034">
<ele>776.15</ele>
<time>2019-07-25T08:49:41Z</time>
</trkpt>
<trkpt lat="44.9906046" lon="5.4346034">
<ele>776.26</ele>
<time>2019-07-25T08:49:42Z</time>
</trkpt>
<trkpt lat="44.9906046" lon="5.4346039">
<ele>776.37</ele>
<time>2019-07-25T08:49:43Z</time>
</trkpt>
<trkpt lat="44.9906040" lon="5.4346044">
<ele>776.48</ele>
<time>2019-07-25T08:49:44Z</time>
</trkpt>
<trkpt lat="44.9906044" lon="5.4346038">
<ele>776.59</ele>
<time>2019-07-25T08:49:45Z</time>
</trkpt>
<trkpt lat="44.9906047" lon="5.4346036">
<ele>776.71</ele>
<time>2019-07-25T08:49:46Z</time>
</trkpt>
<trkpt lat="44.9906056" lon="5.4346028">
<ele>776.82</ele>
<time>2019-07-25T08:49:47Z</time>
</trkpt>
<trkpt lat="44.9906056" lon="5.4346028">
<ele>776.94</ele>
<time>2019-07-25T08:49:48Z</time>
</trkpt>
<trkpt lat="44.9906052" lon="5.4346032">
<ele>777.05</ele>
<time>2019-07-25T08:49:49Z</time>
</trkpt>
<trkpt lat="44.9906054" lon="5.4346030">
<ele>777.17</ele>
<time>2019-07-25T08:49:50Z</time>
</trkpt>
<trkpt lat="44.9906059" lon="5.4346027">
<ele>777.28</ele>
<time>2019-07-25T08:49:51Z</time>
</trkpt>
<trkpt lat="44.9906063" lon="5.4346023">
<ele>777.39</ele>
<time>2019-07-25T08:49:52Z</time>
</trkpt>
<trkpt lat="44.9906095" lon="5.4346015">
<ele>777.51</ele>
<time>2019-07-25T08:49:53Z</time>
</trkpt>
<trkpt lat="44.9906126" lon="5.4346007">
<ele>777.62</ele>
<time>2019-07-25T08:49:54Z</time>
</trkpt>
<trkpt lat="44.9906138" lon="5.4345996">
<ele>777.73</ele>
<time>2019-07-25T08:49:55Z</time>
</trkpt>
<trkpt lat="44.9906135" lon="5.4345993">
<ele>777.85</ele>
<time>2019-07-25T08:49:56Z</time>
</trkpt>
<trkpt lat="44.9906127" lon="5.4345993">
<ele>777.96</ele>
<time>2019-07-25T08:49:57Z</time>
</trkpt>
<trkpt lat="44.9906112" lon="5.4345996">
<ele>778.07</ele>
<time>2019-07-25T08:49:58Z</time>
</trkpt>
<trkpt lat="44.9906114" lon="5.4345997">
<ele>778.18</ele>
<time>2019-07-25T08:49:59Z</time>
</trkpt>
<trkpt lat="44.9906118" lon="5.4345995">
<ele>778.30</ele>
<time>2019-07-25T08:50:00Z</time>
</trkpt>
<trkpt lat="44.9906128" lon="5.4345992">
<ele>778.41</ele>
<time>2019-07-25T08:50:01Z</time>
</trkpt>
<trkpt lat="44.9906146" lon="5.4345984">
<ele>778.52</ele>
<time>2019-07-25T08:50:02Z</time>
</trkpt>
<trkpt lat="44.9906144" lon="5.4345985">
<ele>778.63</ele>
<time>2019-07-25T08:50:03Z</time>
</trkpt>
<trkpt lat="44.9906140" lon="5.4345985">
<ele>778.74</ele>
<time>2019-07-25T08:50:04Z</time>
</trkpt>
<trkpt lat="44.9906128" lon="5.4345990">
<ele>778.86</ele>
<time>2019-07-25T08:50:05Z</time>
</trkpt>
<trkpt lat="44.9906129" lon="5.4345990">
<ele>778.97</ele>
<time>2019-07-25T08:50:06Z</time>
</trkpt>
<trkpt lat="44.9906126" lon="5.4345987">
<ele>779.08</ele>
<time>2019-07-25T08:50:07Z</time>
</trkpt>
<trkpt lat="44.9906128" lon="5.4345983">
<ele>779.18</ele>
<time>2019-07-25T08:50:08Z</time>
</trkpt>
<trkpt lat="44.9906123" lon="5.4345985">
<ele>779.29</ele>
<time>2019-07-25T08:50:09Z</time>
</trkpt>
<trkpt lat="44.9906115" lon="5.4345992">
<ele>779.40</ele>
<time>2019-07-25T08:50:10Z</time>
</trkpt>
<trkpt lat="44.9906111" lon="5.4345994">
<ele>779.50</ele>
<time>2019-07-25T08:50:11Z</time>
</trkpt>
<trkpt lat="44.9906102" lon="5.4346000">
<ele>779.61</ele>
<time>2019-07-25T08:50:12Z</time>
</trkpt>
<trkpt lat="44.9906101" lon="5.4346001">
<ele>779.71</ele>
<time>2019-07-25T08:50:13Z</time>
</trkpt>
<trkpt lat="44.9906098" lon="5.4346003">
<ele>779.82</ele>
<time>2019-07-25T08:50:14Z</time>
</trkpt>
<trkpt lat="44.9906099" lon="5.4346004">
<ele>779.92</ele>
<time>2019-07-25T08:50:15Z</time>
</trkpt>
<trkpt lat="44.9906093" lon="5.4346008">
<ele>780.02</ele>
<time>2019-07-25T08:50:16Z</time>
</trkpt>
<trkpt lat="44.9906089" lon="5.4346013">
<ele>780.12</ele>
<time>2019-07-25T08:50:17Z</time>
</trkpt>
<trkpt lat="44.9906087" lon="5.4346017">
<ele>780.22</ele>
<time>2019-07-25T08:50:18Z</time>
</trkpt>
<trkpt lat="44.9906083" lon="5.4346022">
<ele>780.33</ele>
<time>2019-07-25T08:50:19Z</time>
</trkpt>
<trkpt lat="44.9906073" lon="5.4346042">
<ele>780.43</ele>
<time>2019-07-25T08:50:20Z</time>
</trkpt>
<trkpt lat="44.9906072" lon="5.4346045">
<ele>780.53</ele>
<time>2019-07-25T08:50:21Z</time>
</trkpt>
<trkpt lat="44.9906072" lon="5.4346047">
<ele>780.63</ele>
<time>2019-07-25T08:50:22Z</time>
</trkpt>
<trkpt lat="44.9906076" lon="5.4346042">
<ele>780.73</ele>
<time>2019-07-25T08:50:23Z</time>
</trkpt>
<trkpt lat="44.9906085" lon="5.4346027">
<ele>780.82</ele>
<time>2019-07-25T08:50:24Z</time>
</trkpt>
<trkpt lat="44.9906084" lon="5.4346029">
<ele>780.92</ele>
<time>2019-07-25T08:50:25Z</time>
</trkpt>
<trkpt lat="44.9906086" lon="5.4346027">
<ele>781.02</ele>
<time>2019-07-25T08:50:26Z</time>
</trkpt>
<trkpt lat="44.9906087" lon="5.4346025">
<ele>781.12</ele>
<time>2019-07-25T08:50:27Z</time>
</trkpt>
<trkpt lat="44.9906089" lon="5.4346023">
<ele>781.22</ele>
<time>2019-07-25T08:50:28Z</time>
</trkpt>
<trkpt lat="44.9906088" lon="5.4346025">
<ele>781.31</ele>
<time>2019-07-25T08:50:29Z</time>
</trkpt>
<trkpt lat="44.9906062" lon="5.4346067">
<ele>781.41</ele>
<time>2019-07-25T08:50:30Z</time>
</trkpt>
<trkpt lat="44.9906064" lon="5.4346065">
<ele>781.50</ele>
<time>2019-07-25T08:50:31Z</time>
</trkpt>
<trkpt lat="44.9906064" lon="5.4346067">
<ele>781.60</ele>
<time>2019-07-25T08:50:32Z</time>
</trkpt>
<trkpt lat="44.9906054" lon="5.4346086">
<ele>781.70</ele>
<time>2019-07-25T08:50:33Z</time>
</trkpt>
<trkpt lat="44.9906056" lon="5.4346080">
<ele>781.79</ele>
<time>2019-07-25T08:50:34Z</time>
</trkpt>
<trkpt lat="44.9906057" lon="5.4346079">
<ele>781.89</ele>
<time>2019-07-25T08:50:35Z</time>
</trkpt>
<trkpt lat="44.9906056" lon="5.4346085">
<ele>781.98</ele>
<time>2019-07-25T08:50:36Z</time>
</trkpt>
<trkpt lat="44.9906055" lon="5.4346088">
<ele>782.08</ele>
<time>2019-07-25T08:50:37Z</time>
</trkpt>
<trkpt lat="44.9906056" lon="5.4346083">
<ele>782.17</ele>
<time>2019-07-25T08:50:38Z</time>
</trkpt>
<trkpt lat="44.9906056" lon="5.4346082">
<ele>782.26</ele>
<time>2019-07-25T08:50:39Z</time>
</trkpt>
<trkpt lat="44.9906061" lon="5.4346077">
<ele>782.36</ele>
<time>2019-07-25T08:50:40Z</time>
</trkpt>
<trkpt lat="44.9906272" lon="5.4346018">
<ele>782.45</ele>
<time>2019-07-25T08:50:41Z</time>
</trkpt>
<trkpt lat="44.9906281" lon="5.4346024">
<ele>782.54</ele>
<time>2019-07-25T08:50:42Z</time>
</trkpt>
<trkpt lat="44.9906293" lon="5.4346011">
<ele>782.63</ele>
<time>2019-07-25T08:50:43Z</time>
</trkpt>
<trkpt lat="44.9906367" lon="5.4346001">
<ele>782.72</ele>
<time>2019-07-25T08:50:44Z</time>
</trkpt>
<trkpt lat="44.9906401" lon="5.4345993">
<ele>782.81</ele>
<time>2019-07-25T08:50:45Z</time>
</trkpt>
<trkpt lat="44.9906423" lon="5.4345998">
<ele>782.90</ele>
<time>2019-07-25T08:50:46Z</time>
</trkpt>
<trkpt lat="44.9906439" lon="5.4345998">
<ele>782.99</ele>
<time>2019-07-25T08:50:47Z</time>
</trkpt>
<trkpt lat="44.9906439" lon="5.4346029">
<ele>783.08</ele>
<time>2019-07-25T08:50:48Z</time>
</trkpt>
<trkpt lat="44.9906638" lon="5.4345961">
<ele>783.17</ele>
<time>2019-07-25T08:50:49Z</time>
</trkpt>
<trkpt lat="44.9906801" lon="5.4345839">
<ele>783.26</ele>
<time>2019-07-25T08:50:50Z</time>
</trkpt>
<trkpt lat="44.9906882" lon="5.4345811">
<ele>783.34</ele>
<time>2019-07-25T08:50:51Z</time>
</trkpt>
<trkpt lat="44.9906891" lon="5.4345812">
<ele>783.43</ele>
<time>2019-07-25T08:50:52Z</time>
</trkpt>
<trkpt lat="44.9906908" lon="5.4345799">
<ele>783.51</ele>
<time>2019-07-25T08:50:53Z</time>
</trkpt>
<trkpt lat="44.9906938" lon="5.4345788">
<ele>783.60</ele>
<time>2019-07-25T08:50:54Z</time>
</trkpt>
<trkpt lat="44.9906948" lon="5.4345783">
<ele>783.68</ele>
<time>2019-07-25T08:50:55Z</time>
</trkpt>
<trkpt lat="44.9906977" lon="5.4345771">
<ele>783.77</ele>
<time>2019-07-25T08:50:56Z</time>
</trkpt>
<trkpt lat="44.9906992" lon="5.4345763">
<ele>783.85</ele>
<time>2019-07-25T08:50:57Z</time>
</trkpt>
<trkpt lat="44.9907008" lon="5.4345778">
<ele>783.94</ele>
<time>2019-07-25T08:50:58Z</time>
</trkpt>
<trkpt lat="44.9907017" lon="5.4345781">
<ele>784.02</ele>
<time>2019-07-25T08:50:59Z</time>
</trkpt>
<trkpt lat="44.9907017" lon="5.4345782">
<ele>784.11</ele>
<time>2019-07-25T08:51:00Z</time>
</trkpt>
<trkpt lat="44.9907014" lon="5.4345780">
<ele>784.19</ele>
<time>2019-07-25T08:51:01Z</time>
</trkpt>
<trkpt lat="44.9907013" lon="5.4345777">
<ele>784.27</ele>
<time>2019-07-25T08:51:02Z</time>
</trkpt>
<trkpt lat="44.9907016" lon="5.4345774">
<ele>784.36</ele>
<time>2019-07-25T08:51:03Z</time>
</trkpt>
<trkpt lat="44.9907013" lon="5.4345781">
<ele>784.44</ele>
<time>2019-07-25T08:51:04Z</time>
</trkpt>
<trkpt lat="44.9907000" lon="5.4345803">
<ele>784.52</ele>
<time>2019-07-25T08:51:05Z</time>
</trkpt>
<trkpt lat="44.9906981" lon="5.4345872">
<ele>784.60</ele>
<time>2019-07-25T08:51:06Z</time>
</trkpt>
<trkpt lat="44.9907024" lon="5.4345816">
<ele>784.69</ele>
<time>2019-07-25T08:51:07Z</time>
</trkpt>
<trkpt lat="44.9907097" lon="5.4345710">
<ele>784.77</ele>
<time>2019-07-25T08:51:08Z</time>
</trkpt>
<trkpt lat="44.9907132" lon="5.4345637">
<ele>785.59</ele>
<time>2019-07-25T08:51:09Z</time>
</trkpt>
<trkpt lat="44.9907364" lon="5.4345406">
<ele>786.39</ele>
<time>2019-07-25T08:51:10Z</time>
</trkpt>
<trkpt lat="44.9907714" lon="5.4345262">
<ele>787.18</ele>
<time>2019-07-25T08:51:11Z</time>
</trkpt>
<trkpt lat="44.9907730" lon="5.4345242">
<ele>787.26</ele>
<time>2019-07-25T08:51:12Z</time>
</trkpt>
<trkpt lat="44.9907721" lon="5.4345250">
<ele>787.34</ele>
<time>2019-07-25T08:51:13Z</time>
</trkpt>
<trkpt lat="44.9907726" lon="5.4345246">
<ele>787.41</ele>
<time>2019-07-25T08:51:14Z</time>
</trkpt>
<trkpt lat="44.9907730" lon="5.4345242">
<ele>787.49</ele>
<time>2019-07-25T08:51:15Z</time>
</trkpt>
<trkpt lat="44.9907728" lon="5.4345243">
<ele>787.56</ele>
<time>2019-07-25T08:51:16Z</time>
</trkpt>
<trkpt lat="44.9907709" lon="5.4345255">
<ele>787.64</ele>
<time>2019-07-25T08:51:17Z</time>
</trkpt>
<trkpt lat="44.9907692" lon="5.4345267">
<ele>787.71</ele>
<time>2019-07-25T08:51:18Z</time>
</trkpt>
<trkpt lat="44.9907647" lon="5.4345293">
<ele>787.79</ele>
<time>2019-07-25T08:51:19Z</time>
</trkpt>
<trkpt lat="44.9907646" lon="5.4345296">
<ele>787.86</ele>
<time>2019-07-25T08:51:20Z</time>
</trkpt>
<trkpt lat="44.9907633" lon="5.4345305">
<ele>787.94</ele>
<time>2019-07-25T08:51:21Z</time>
</trkpt>
<trkpt lat="44.9907634" lon="5.4345306">
<ele>788.01</ele>
<time>2019-07-25T08:51:22Z</time>
</trkpt>
<trkpt lat="44.9907643" lon="5.4345301">
<ele>788.09</ele>
<time>2019-07-25T08:51:23Z</time>
</trkpt>
<trkpt lat="44.9907647" lon="5.4345298">
<ele>788.16</ele>
<time>2019-07-25T08:51:24Z</time>
</trkpt>
<trkpt lat="44.9907667" lon="5.4345284">
<ele>788.24</ele>
<time>2019-07-25T08:51:25Z</time>
</trkpt>
<trkpt lat="44.9907665" lon="5.4345286">
<ele>788.31</ele>
<time>2019-07-25T08:51:26Z</time>
</trkpt>
<trkpt lat="44.9907662" lon="5.4345288">
<ele>788.38</ele>
<time>2019-07-25T08:51:27Z</time>
</trkpt>
<trkpt lat="44.9907666" lon="5.4345286">
<ele>788.46</ele>
<time>2019-07-25T08:51:28Z</time>
</trkpt>
<trkpt lat="44.9907671" lon="5.4345282">
<ele>788.53</ele>
<time>2019-07-25T08:51:29Z</time>
</trkpt>
<trkpt lat="44.9907669" lon="5.4345283">
<ele>788.61</ele>
<time>2019-07-25T08:51:30Z</time>
</trkpt>
<trkpt lat="44.9907671" lon="5.4345282">
<ele>788.68</ele>
<time>2019-07-25T08:51:31Z</time>
</trkpt>
<trkpt lat="44.9907686" lon="5.4345266">
<ele>788.76</ele>
<time>2019-07-25T08:51:32Z</time>
</trkpt>
<trkpt lat="44.9907685" lon="5.4345268">
<ele>788.83</ele>
<time>2019-07-25T08:51:33Z</time>
</trkpt>
<trkpt lat="44.9907676" lon="5.4345277">
<ele>788.91</ele>
<time>2019-07-25T08:51:34Z</time>
</trkpt>
<trkpt lat="44.9907662" lon="5.4345291">
<ele>788.98</ele>
<time>2019-07-25T08:51:35Z</time>
</trkpt>
<trkpt lat="44.9907656" lon="5.4345297">
<ele>789.06</ele>
<time>2019-07-25T08:51:36Z</time>
</trkpt>
<trkpt lat="44.9907655" lon="5.4345298">
<ele>789.13</ele>
<time>2019-07-25T08:51:37Z</time>
</trkpt>
<trkpt lat="44.9907655" lon="5.4345298">
<ele>789.21</ele>
<time>2019-07-25T08:51:38Z</time>
</trkpt>
<trkpt lat="44.9907655" lon="5.4345298">
<ele>789.28</ele>
<time>2019-07-25T08:51:39Z</time>
</trkpt>
<trkpt lat="44.9907653" lon="5.4345299">
<ele>789.36</ele>
<time>2019-07-25T08:51:40Z</time>
</trkpt>
<trkpt lat="44.9907648" lon="5.4345302">
<ele>789.44</ele>
<time>2019-07-25T08:51:41Z</time>
</trkpt>
<trkpt lat="44.9907641" lon="5.4345310">
<ele>789.52</ele>
<time>2019-07-25T08:51:42Z</time>
</trkpt>
<trkpt lat="44.9907641" lon="5.4345311">
<ele>789.59</ele>
<time>2019-07-25T08:51:43Z</time>
</trkpt>
<trkpt lat="44.9907635" lon="5.4345318">
<ele>789.67</ele>
<time>2019-07-25T08:51:44Z</time>
</trkpt>
<trkpt lat="44.9907643" lon="5.4345307">
<ele>789.75</ele>
<time>2019-07-25T08:51:45Z</time>
</trkpt>
<trkpt lat="44.9907647" lon="5.4345301">
<ele>789.83</ele>
<time>2019-07-25T08:51:46Z</time>
</trkpt>
<trkpt lat="44.9907646" lon="5.4345303">
<ele>789.91</ele>
<time>2019-07-25T08:51:47Z</time>
</trkpt>
<trkpt lat="44.9907648" lon="5.4345300">
<ele>789.99</ele>
<time>2019-07-25T08:51:48Z</time>
</trkpt>
<trkpt lat="44.9907651" lon="5.4345296">
<ele>790.07</ele>
<time>2019-07-25T08:51:49Z</time>
</trkpt>
<trkpt lat="44.9907651" lon="5.4345297">
<ele>790.15</ele>
<time>2019-07-25T08:51:50Z</time>
</trkpt>
<trkpt lat="44.9907646" lon="5.4345303">
<ele>790.23</ele>
<time>2019-07-25T08:51:51Z</time>
</trkpt>
<trkpt lat="44.9907642" lon="5.4345309">
<ele>790.31</ele>
<time>2019-07-25T08:51:52Z</time>
</trkpt>
<trkpt lat="44.9907639" lon="5.4345313">
<ele>790.39</ele>
<time>2019-07-25T08:51:53Z</time>
</trkpt>
<trkpt lat="44.9907633" lon="5.4345323">
<ele>790.47</ele>
<time>2019-07-25T08:51:54Z</time>
</trkpt>
<trkpt lat="44.9907633" lon="5.4345323">
<ele>790.55</ele>
<time>2019-07-25T08:51:55Z</time>
</trkpt>
<trkpt lat="44.9907631" lon="5.4345325">
<ele>790.64</ele>
<time>2019-07-25T08:51:56Z</time>
</trkpt>
<trkpt lat="44.9907630" lon="5.4345326">
<ele>790.72</ele>
<time>2019-07-25T08:51:57Z</time>
</trkpt>
<trkpt lat="44.9907627" lon="5.4345330">
<ele>790.80</ele>
<time>2019-07-25T08:51:58Z</time>
</trkpt>
<trkpt lat="44.9907622" lon="5.4345339">
<ele>790.88</ele>
<time>2019-07-25T08:51:59Z</time>
</trkpt>
<trkpt lat="44.9907624" lon="5.4345334">
<ele>790.97</ele>
<time>2019-07-25T08:52:00Z</time>
</trkpt>
<trkpt lat="44.9907628" lon="5.4345329">
<ele>791.05</ele>
<time>2019-07-25T08:52:01Z</time>
</trkpt>
<trkpt lat="44.9907644" lon="5.4345306">
<ele>791.14</ele>
<time>2019-07-25T08:52:02Z</time>
</trkpt>
<trkpt lat="44.9907662" lon="5.4345278">
<ele>791.22</ele>
<time>2019-07-25T08:52:03Z</time>
</trkpt>
<trkpt lat="44.9907666" lon="5.4345261">
<ele>791.30</ele>
<time>2019-07-25T08:52:04Z</time>
</trkpt>
<trkpt lat="44.9907671" lon="5.4345238">
<ele>791.39</ele>
<time>2019-07-25T08:52:05Z</time>
</trkpt>
<trkpt lat="44.9907682" lon="5.4345199">
<ele>791.48</ele>
<time>2019-07-25T08:52:06Z</time>
</trkpt>
<trkpt lat="44.9907680" lon="5.4345204">
<ele>791.56</ele>
<time>2019-07-25T08:52:07Z</time>
</trkpt>
<trkpt lat="44.9907679" lon="5.4345211">
<ele>791.65</ele>
<time>2019-07-25T08:52:08Z</time>
</trkpt>
<trkpt lat="44.9907677" lon="5.4345221">
<ele>791.73</ele>
<time>2019-07-25T08:52:09Z</time>
</trkpt>
<trkpt lat="44.9907677" lon="5.4345222">
<ele>791.82</ele>
<time>2019-07-25T08:52:10Z</time>
</trkpt>
<trkpt lat="44.9907676" lon="5.4345224">
<ele>791.91</ele>
<time>2019-07-25T08:52:11Z</time>
</trkpt>
<trkpt lat="44.9907675" lon="5.4345224">
<ele>791.99</ele>
<time>2019-07-25T08:52:12Z</time>
</trkpt>
<trkpt lat="44.9907674" lon="5.4345228">
<ele>792.08</ele>
<time>2019-07-25T08:52:13Z</time>
</trkpt>
<trkpt lat="44.9907674" lon="5.4345225">
<ele>792.17</ele>
<time>2019-07-25T08:52:14Z</time>
</trkpt>
<trkpt lat="44.9907674" lon="5.4345222">
<ele>792.26</ele>
<time>2019-07-25T08:52:15Z</time>
</trkpt>
<trkpt lat="44.9907676" lon="5.4345214">
<ele>792.34</ele>
<time>2019-07-25T08:52:16Z</time>
</trkpt>
<trkpt lat="44.9907676" lon="5.4345209">
<ele>792.43</ele>
<time>2019-07-25T08:52:17Z</time>
</trkpt>
<trkpt lat="44.9907678" lon="5.4345199">
<ele>792.52</ele>
<time>2019-07-25T08:52:18Z</time>
</trkpt>
<trkpt lat="44.9907677" lon="5.4345196">
<ele>792.60</ele>
<time>2019-07-25T08:52:19Z</time>
</trkpt>
<trkpt lat="44.9907675" lon="5.4345196">
<ele>792.69</ele>
<time>2019-07-25T08:52:20Z</time>
</trkpt>
<trkpt lat="44.9907672" lon="5.4345204">
<ele>792.77</ele>
<time>2019-07-25T08:52:21Z</time>
</trkpt>
<trkpt lat="44.9907671" lon="5.4345211">
<ele>792.85</ele>
<time>2019-07-25T08:52:22Z</time>
</trkpt>
<trkpt lat="44.9907670" lon="5.4345218">
<ele>792.94</ele>
<time>2019-07-25T08:52:23Z</time>
</trkpt>
<trkpt lat="44.9907670" lon="5.4345229">
<ele>793.02</ele>
<time>2019-07-25T08:52:24Z</time>
</trkpt>
<trkpt lat="44.9907669" lon="5.4345239">
<ele>793.10</ele>
<time>2019-07-25T08:52:25Z</time>
</trkpt>
<trkpt lat="44.9907668" lon="5.4345244">
<ele>793.18</ele>
<time>2019-07-25T08:52:26Z</time>
</trkpt>
<trkpt lat="44.9907666" lon="5.4345249">
<ele>793.26</ele>
<time>2019-07-25T08:52:27Z</time>
</trkpt>
<trkpt lat="44.9907665" lon="5.4345252">
<ele>793.33</ele>
<time>2019-07-25T08:52:28Z</time>
</trkpt>
<trkpt lat="44.9907665" lon="5.4345253">
<ele>793.41</ele>
<time>2019-07-25T08:52:29Z</time>
</trkpt>
<trkpt lat="44.9907665" lon="5.4345254">
<ele>793.49</ele>
<time>2019-07-25T08:52:30Z</time>
</trkpt>
<trkpt lat="44.9907664" lon="5.4345258">
<ele>793.56</ele>
<time>2019-07-25T08:52:31Z</time>
</trkpt>
<trkpt lat="44.9907666" lon="5.4345253">
<ele>793.64</ele>
<time>2019-07-25T08:52:32Z</time>
</trkpt>
<trkpt lat="44.9907668" lon="5.4345248">
<ele>793.71</ele>
<time>2019-07-25T08:52:33Z</time>
</trkpt>
<trkpt lat="44.9907667" lon="5.4345251">
<ele>793.78</ele>
<time>2019-07-25T08:52:34Z</time>
</trkpt>
<trkpt lat="44.9907673" lon="5.4345246">
<ele>793.86</ele>
<time>2019-07-25T08:52:35Z</time>
</trkpt>
<trkpt lat="44.9907676" lon="5.4345246">
<ele>793.93</ele>
<time>2019-07-25T08:52:36Z</time>
</trkpt>
<trkpt lat="44.9907683" lon="5.4345238">
<ele>794.00</ele>
<time>2019-07-25T08:52:37Z</time>
</trkpt>
<trkpt lat="44.9907681" lon="5.4345240">
<ele>794.07</ele>
<time>2019-07-25T08:52:38Z</time>
</trkpt>
<trkpt lat="44.9907681" lon="5.4345242">
<ele>794.14</ele>
<time>2019-07-25T08:52:39Z</time>
</trkpt>
<trkpt lat="44.9907675" lon="5.4345253">
<ele>794.21</ele>
<time>2019-07-25T08:52:40Z</time>
</trkpt>
<trkpt lat="44.9907674" lon="5.4345253">
<ele>794.28</ele>
<time>2019-07-25T08:52:41Z</time>
</trkpt>
<trkpt lat="44.9907676" lon="5.4345253">
<ele>794.34</ele>
<time>2019-07-25T08:52:42Z</time>
</trkpt>
<trkpt lat="44.9907679" lon="5.4345250">
<ele>794.41</ele>
<time>2019-07-25T08:52:43Z</time>
</trkpt>
<trkpt lat="44.9907680" lon="5.4345252">
<ele>794.47</ele>
<time>2019-07-25T08:52:44Z</time>
</trkpt>
<trkpt lat="44.9907684" lon="5.4345250">
<ele>794.54</ele>
<time>2019-07-25T08:52:45Z</time>
</trkpt>
<trkpt lat="44.9907685" lon="5.4345253">
<ele>794.60</ele>
<time>2019-07-25T08:52:46Z</time>
</trkpt>
<trkpt lat="44.9907675" lon="5.4345270">
<ele>794.67</ele>
<time>2019-07-25T08:52:47Z</time>
</trkpt>
<trkpt lat="44.9907677" lon="5.4345271">
<ele>794.73</ele>
<time>2019-07-25T08:52:48Z</time>
</trkpt>
<trkpt lat="44.9907676" lon="5.4345278">
<ele>794.80</ele>
<time>2019-07-25T08:52:49Z</time>
</trkpt>
<trkpt lat="44.9907670" lon="5.4345289">
<ele>794.86</ele>
<time>2019-07-25T08:52:50Z</time>
</trkpt>
<trkpt lat="44.9907662" lon="5.4345304">
<ele>794.93</ele>
<time>2019-07-25T08:52:51Z</time>
</trkpt>
<trkpt lat="44.9907666" lon="5.4345304">
<ele>794.99</ele>
<time>2019-07-25T08:52:52Z</time>
</trkpt>
<trkpt lat="44.9907673" lon="5.4345303">
<ele>795.06</ele>
<time>2019-07-25T08:52:53Z</time>
</trkpt>
<trkpt lat="44.9907679" lon="5.4345306">
<ele>795.12</ele>
<time>2019-07-25T08:52:54Z</time>
</trkpt>
<trkpt lat="44.9907685" lon="5.4345308">
<ele>795.19</ele>
<time>2019-07-25T08:52:55Z</time>
</trkpt>
<trkpt lat="44.9907688" lon="5.4345313">
<ele>795.25</ele>
<time>2019-07-25T08:52:56Z</time>
</trkpt>
<trkpt lat="44.9907688" lon="5.4345321">
<ele>795.32</ele>
<time>2019-07-25T08:52:57Z</time>
</trkpt>
<trkpt lat="44.9907692" lon="5.4345320">
<ele>795.38</ele>
<time>2019-07-25T08:52:58Z</time>
</trkpt>
<trkpt lat="44.9907699" lon="5.4345314">
<ele>795.44</ele>
<time>2019-07-25T08:52:59Z</time>
</trkpt>
<trkpt lat="44.9907725" lon="5.4345310">
<ele>795.51</ele>
<time>2019-07-25T08:53:00Z</time>
</trkpt>
<trkpt lat="44.9907749" lon="5.4345312">
<ele>795.57</ele>
<time>2019-07-25T08:53:01Z</time>
</trkpt>
<trkpt lat="44.9907749" lon="5.4345314">
<ele>795.63</ele>
<time>2019-07-25T08:53:02Z</time>
</trkpt>
<trkpt lat="44.9907765" lon="5.4345316">
<ele>795.69</ele>
<time>2019-07-25T08:53:03Z</time>
</trkpt>
<trkpt lat="44.9907760" lon="5.4345320">
<ele>795.74</ele>
<time>2019-07-25T08:53:04Z</time>
</trkpt>
<trkpt lat="44.9907759" lon="5.4345321">
<ele>795.80</ele>
<time>2019-07-25T08:53:05Z</time>
</trkpt>
<trkpt lat="44.9907760" lon="5.4345323">
<ele>795.86</ele>
<time>2019-07-25T08:53:06Z</time>
</trkpt>
<trkpt lat="44.9907766" lon="5.4345326">
<ele>795.91</ele>
<time>2019-07-25T08:53:07Z</time>
</trkpt>
<trkpt lat="44.9907775" lon="5.4345330">
<ele>795.96</ele>
<time>2019-07-25T08:53:08Z</time>
</trkpt>
<trkpt lat="44.9907777" lon="5.4345334">
<ele>796.01</ele>
<time>2019-07-25T08:53:09Z</time>
</trkpt>
<trkpt lat="44.9907782" lon="5.4345335">
<ele>796.06</ele>
<time>2019-07-25T08:53:10Z</time>
</trkpt>
<trkpt lat="44.9907784" lon="5.4345338">
<ele>796.11</ele>
<time>2019-07-25T08:53:11Z</time>
</trkpt>
<trkpt lat="44.9907784" lon="5.4345339">
<ele>796.15</ele>
<time>2019-07-25T08:53:12Z</time>
</trkpt>
<trkpt lat="44.9907776" lon="5.4345348">
<ele>796.20</ele>
<time>2019-07-25T08:53:13Z</time>
</trkpt>
<trkpt lat="44.9907771" lon="5.4345354">
<ele>796.24</ele>
<time>2019-07-25T08:53:14Z</time>
</trkpt>
<trkpt lat="44.9907764" lon="5.4345355">
<ele>796.28</ele>
<time>2019-07-25T08:53:15Z</time>
</trkpt>
<trkpt lat="44.9907765" lon="5.4345355">
<ele>796.32</ele>
<time>2019-07-25T08:53:16Z</time>
</trkpt>
<trkpt lat="44.9907759" lon="5.4345350">
<ele>796.36</ele>
<time>2019-07-25T08:53:17Z</time>
</trkpt>
<trkpt lat="44.9907752" lon="5.4345353">
<ele>796.40</ele>
<time>2019-07-25T08:53:18Z</time>
</trkpt>
<trkpt lat="44.9907758" lon="5.4345348">
<ele>796.44</ele>
<time>2019-07-25T08:53:19Z</time>
</trkpt>
<trkpt lat="44.9907756" lon="5.4345343">
<ele>796.48</ele>
<time>2019-07-25T08:53:20Z</time>
</trkpt>
<trkpt lat="44.9907754" lon="5.4345340">
<ele>796.52</ele>
<time>2019-07-25T08:53:21Z</time>
</trkpt>
<trkpt lat="44.9907751" lon="5.4345340">
<ele>796.55</ele>
<time>2019-07-25T08:53:22Z</time>
</trkpt>
<trkpt lat="44.9907737" lon="5.4345338">
<ele>796.59</ele>
<time>2019-07-25T08:53:23Z</time>
</trkpt>
<trkpt lat="44.9907739" lon="5.4345331">
<ele>796.63</ele>
<time>2019-07-25T08:53:24Z</time>
</trkpt>
<trkpt lat="44.9907734" lon="5.4345326">
<ele>796.66</ele>
<time>2019-07-25T08:53:25Z</time>
</trkpt>
<trkpt lat="44.9907742" lon="5.4345324">
<ele>796.70</ele>
<time>2019-07-25T08:53:26Z</time>
</trkpt>
<trkpt lat="44.9907739" lon="5.4345328">
<ele>796.74</ele>
<time>2019-07-25T08:53:27Z</time>
</trkpt>
<trkpt lat="44.9907733" lon="5.4345339">
<ele>796.77</ele>
<time>2019-07-25T08:53:28Z</time>
</trkpt>
<trkpt lat="44.9907726" lon="5.4345345">
<ele>796.81</ele>
<time>2019-07-25T08:53:29Z</time>
</trkpt>
<trkpt lat="44.9907706" lon="5.4345356">
<ele>796.84</ele>
<time>2019-07-25T08:53:30Z</time>
</trkpt>
<trkpt lat="44.9907680" lon="5.4345365">
<ele>796.88</ele>
<time>2019-07-25T08:53:31Z</time>
</trkpt>
<trkpt lat="44.9907678" lon="5.4345368">
<ele>796.91</ele>
<time>2019-07-25T08:53:32Z</time>
</trkpt>
<trkpt lat="44.9907661" lon="5.4345380">
<ele>796.95</ele>
<time>2019-07-25T08:53:33Z</time>
</trkpt>
<trkpt lat="44.9907644" lon="5.4345386">
<ele>796.98</ele>
<time>2019-07-25T08:53:34Z</time>
</trkpt>
<trkpt lat="44.9907602" lon="5.4345415">
<ele>797.01</ele>
<time>2019-07-25T08:53:35Z</time>
</trkpt>
<trkpt lat="44.9907588" lon="5.4345420">
<ele>797.05</ele>
<time>2019-07-25T08:53:36Z</time>
</trkpt>
<trkpt lat="44.9907358" lon="5.4345477">
<ele>797.36</ele>
<time>2019-07-25T08:53:37Z</time>
</trkpt>
<trkpt lat="44.9907193" lon="5.4345512">
<ele>797.67</ele>
<time>2019-07-25T08:53:38Z</time>
</trkpt>
<trkpt lat="44.9907216" lon="5.4345508">
<ele>797.70</ele>
<time>2019-07-25T08:53:39Z</time>
</trkpt>
<trkpt lat="44.9907224" lon="5.4345510">
<ele>797.72</ele>
<time>2019-07-25T08:53:40Z</time>
</trkpt>
<trkpt lat="44.9907223" lon="5.4345512">
<ele>797.75</ele>
<time>2019-07-25T08:53:41Z</time>
</trkpt>
<trkpt lat="44.9907229" lon="5.4345509">
<ele>797.78</ele>
<time>2019-07-25T08:53:42Z</time>
</trkpt>
<trkpt lat="44.9907228" lon="5.4345509">
<ele>797.81</ele>
<time>2019-07-25T08:53:43Z</time>
</trkpt>
<trkpt lat="44.9907226" lon="5.4345509">
<ele>797.84</ele>
<time>2019-07-25T08:53:44Z</time>
</trkpt>
<trkpt lat="44.9907222" lon="5.4345509">
<ele>797.87</ele>
<time>2019-07-25T08:53:45Z</time>
</trkpt>
<trkpt lat="44.9907227" lon="5.4345507">
<ele>797.90</ele>
<time>2019-07-25T08:53:46Z</time>
</trkpt>
<trkpt lat="44.9907228" lon="5.4345506">
<ele>797.92</ele>
<time>2019-07-25T08:53:47Z</time>
</trkpt>
<trkpt lat="44.9907232" lon="5.4345503">
<ele>797.95</ele>
<time>2019-07-25T08:53:48Z</time>
</trkpt>
<trkpt lat="44.9907232" lon="5.4345502">
<ele>797.98</ele>
<time>2019-07-25T08:53:49Z</time>
</trkpt>
<trkpt lat="44.9907226" lon="5.4345501">
<ele>798.01</ele>
<time>2019-07-25T08:53:50Z</time>
</trkpt>
<trkpt lat="44.9907218" lon="5.4345502">
<ele>798.04</ele>
<time>2019-07-25T08:53:51Z</time>
</trkpt>
<trkpt lat="44.9907221" lon="5.4345501">
<ele>798.06</ele>
<time>2019-07-25T08:53:52Z</time>
</trkpt>
<trkpt lat="44.9907248" lon="5.4345506">
<ele>798.09</ele>
<time>2019-07-25T08:53:53Z</time>
</trkpt>
<trkpt lat="44.9907261" lon="5.4345506">
<ele>798.12</ele>
<time>2019-07-25T08:53:54Z</time>
</trkpt>
<trkpt lat="44.9907276" lon="5.4345508">
<ele>798.15</ele>
<time>2019-07-25T08:53:55Z</time>
</trkpt>
<trkpt lat="44.9907274" lon="5.4345507">
<ele>798.17</ele>
<time>2019-07-25T08:53:56Z</time>
</trkpt>
<trkpt lat="44.9907269" lon="5.4345507">
<ele>798.20</ele>
<time>2019-07-25T08:53:57Z</time>
</trkpt>
<trkpt lat="44.9907269" lon="5.4345507">
<ele>798.23</ele>
<time>2019-07-25T08:53:58Z</time>
</trkpt>
<trkpt lat="44.9907270" lon="5.4345507">
<ele>798.26</ele>
<time>2019-07-25T08:53:59Z</time>
</trkpt>
<trkpt lat="44.9907268" lon="5.4345508">
<ele>798.29</ele>
<time>2019-07-25T08:54:00Z</time>
</trkpt>
<trkpt lat="44.9907264" lon="5.4345508">
<ele>798.31</ele>
<time>2019-07-25T08:54:01Z</time>
</trkpt>
<trkpt lat="44.9907265" lon="5.4345510">
<ele>798.34</ele>
<time>2019-07-25T08:54:02Z</time>
</trkpt>
<trkpt lat="44.9907234" lon="5.4345500">
<ele>798.37</ele>
<time>2019-07-25T08:54:03Z</time>
</trkpt>
<trkpt lat="44.9907221" lon="5.4345494">
<ele>798.40</ele>
<time>2019-07-25T08:54:04Z</time>
</trkpt>
<trkpt lat="44.9907216" lon="5.4345491">
<ele>798.43</ele>
<time>2019-07-25T08:54:05Z</time>
</trkpt>
<trkpt lat="44.9907204" lon="5.4345484">
<ele>798.46</ele>
<time>2019-07-25T08:54:06Z</time>
</trkpt>
<trkpt lat="44.9907208" lon="5.4345486">
<ele>798.48</ele>
<time>2019-07-25T08:54:07Z</time>
</trkpt>
<trkpt lat="44.9907220" lon="5.4345492">
<ele>798.51</ele>
<time>2019-07-25T08:54:08Z</time>
</trkpt>
<trkpt lat="44.9907231" lon="5.4345499">
<ele>798.54</ele>
<time>2019-07-25T08:54:09Z</time>
</trkpt>
<trkpt lat="44.9907241" lon="5.4345505">
<ele>798.57</ele>
<time>2019-07-25T08:54:10Z</time>
</trkpt>
<trkpt lat="44.9907256" lon="5.4345508">
<ele>798.60</ele>
<time>2019-07-25T08:54:11Z</time>
</trkpt>
<trkpt lat="44.9907263" lon="5.4345511">
<ele>798.63</ele>
<time>2019-07-25T08:54:12Z</time>
</trkpt>
<trkpt lat="44.9907268" lon="5.4345511">
<ele>798.66</ele>
<time>2019-07-25T08:54:13Z</time>
</trkpt>
<trkpt lat="44.9907275" lon="5.4345511">
<ele>798.69</ele>
<time>2019-07-25T08:54:14Z</time>
</trkpt>
<trkpt lat="44.9907277" lon="5.4345513">
<ele>798.72</ele>
<time>2019-07-25T08:54:15Z</time>
</trkpt>
<trkpt lat="44.9907280" lon="5.4345512">
<ele>798.74</ele>
<time>2019-07-25T08:54:16Z</time>
</trkpt>
<trkpt lat="44.9907281" lon="5.4345520">
<ele>798.77</ele>
<time>2019-07-25T08:54:17Z</time>
</trkpt>
<trkpt lat="44.9907274" lon="5.4345517">
<ele>798.80</ele>
<time>2019-07-25T08:54:18Z</time>
</trkpt>
<trkpt lat="44.9907270" lon="5.4345512">
<ele>798.83</ele>
<time>2019-07-25T08:54:19Z</time>
</trkpt>
<trkpt lat="44.9907273" lon="5.4345513">
<ele>798.85</ele>
<time>2019-07-25T08:54:20Z</time>
</trkpt>
<trkpt lat="44.9907274" lon="5.4345514">
<ele>798.88</ele>
<time>2019-07-25T08:54:21Z</time>
</trkpt>
<trkpt lat="44.9907273" lon="5.4345513">
<ele>798.91</ele>
<time>2019-07-25T08:54:22Z</time>
</trkpt>
<trkpt lat="44.9907276" lon="5.4345515">
<ele>798.94</ele>
<time>2019-07-25T08:54:23Z</time>
</trkpt>
<trkpt lat="44.9907275" lon="5.4345514">
<ele>798.97</ele>
<time>2019-07-25T08:54:24Z</time>
</trkpt>
<trkpt lat="44.9907272" lon="5.4345512">
<ele>798.99</ele>
<time>2019-07-25T08:54:25Z</time>
</trkpt>
<trkpt lat="44.9907271" lon="5.4345512">
<ele>799.02</ele>
<time>2019-07-25T08:54:26Z</time>
</trkpt>
<trkpt lat="44.9907274" lon="5.4345513">
<ele>799.05</ele>
<time>2019-07-25T08:54:27Z</time>
</trkpt>
<trkpt lat="44.9907275" lon="5.4345512">
<ele>799.08</ele>
<time>2019-07-25T08:54:28Z</time>
</trkpt>
<trkpt lat="44.9907276" lon="5.4345510">
<ele>799.11</ele>
<time>2019-07-25T08:54:29Z</time>
</trkpt>
<trkpt lat="44.9907276" lon="5.4345509">
<ele>799.13</ele>
<time>2019-07-25T08:54:30Z</time>
</trkpt>
<trkpt lat="44.9907279" lon="5.4345510">
<ele>799.16</ele>
<time>2019-07-25T08:54:31Z</time>
</trkpt>
<trkpt lat="44.9907283" lon="5.4345513">
<ele>799.19</ele>
<time>2019-07-25T08:54:32Z</time>
</trkpt>
<trkpt lat="44.9907280" lon="5.4345508">
<ele>799.22</ele>
<time>2019-07-25T08:54:33Z</time>
</trkpt>
<trkpt lat="44.9907270" lon="5.4345496">
<ele>799.25</ele>
<time>2019-07-25T08:54:34Z</time>
</trkpt>
<trkpt lat="44.9907264" lon="5.4345484">
<ele>799.27</ele>
<time>2019-07-25T08:54:35Z</time>
</trkpt>
<trkpt lat="44.9907268" lon="5.4345488">
<ele>799.30</ele>
<time>2019-07-25T08:54:36Z</time>
</trkpt>
<trkpt lat="44.9907285" lon="5.4345506">
<ele>799.33</ele>
<time>2019-07-25T08:54:37Z</time>
</trkpt>
<trkpt lat="44.9907295" lon="5.4345512">
<ele>799.36</ele>
<time>2019-07-25T08:54:38Z</time>
</trkpt>
<trkpt lat="44.9907302" lon="5.4345513">
<ele>799.39</ele>
<time>2019-07-25T08:54:39Z</time>
</trkpt>
<trkpt lat="44.9907310" lon="5.4345515">
<ele>799.42</ele>
<time>2019-07-25T08:54:40Z</time>
</trkpt>
<trkpt lat="44.9907321" lon="5.4345521">
<ele>799.45</ele>
<time>2019-07-25T08:54:41Z</time>
</trkpt>
<trkpt lat="44.9907334" lon="5.4345527">
<ele>799.47</ele>
<time>2019-07-25T08:54:42Z</time>
</trkpt>
<trkpt lat="44.9907337" lon="5.4345527">
<ele>799.50</ele>
<time>2019-07-25T08:54:43Z</time>
</trkpt>
<trkpt lat="44.9907341" lon="5.4345525">
<ele>799.53</ele>
<time>2019-07-25T08:54:44Z</time>
</trkpt>
<trkpt lat="44.9907361" lon="5.4345541">
<ele>799.56</ele>
<time>2019-07-25T08:54:45Z</time>
</trkpt>
<trkpt lat="44.9907366" lon="5.4345538">
<ele>799.59</ele>
<time>2019-07-25T08:54:46Z</time>
</trkpt>
<trkpt lat="44.9907380" lon="5.4345531">
<ele>799.62</ele>
<time>2019-07-25T08:54:47Z</time>
</trkpt>
<trkpt lat="44.9907366" lon="5.4345511">
<ele>799.65</ele>
<time>2019-07-25T08:54:48Z</time>
</trkpt>
<trkpt lat="44.9907362" lon="5.4345501">
<ele>799.68</ele>
<time>2019-07-25T08:54:49Z</time>
</trkpt>
<trkpt lat="44.9907361" lon="5.4345495">
<ele>799.71</ele>
<time>2019-07-25T08:54:50Z</time>
</trkpt>
<trkpt lat="44.9907360" lon="5.4345486">
<ele>799.74</ele>
<time>2019-07-25T08:54:51Z</time>
</trkpt>
<trkpt lat="44.9907364" lon="5.4345486">
<ele>799.76</ele>
<time>2019-07-25T08:54:52Z</time>
</trkpt>
<trkpt lat="44.9907369" lon="5.4345485">
<ele>799.79</ele>
<time>2019-07-25T08:54:53Z</time>
</trkpt>
<trkpt lat="44.9907375" lon="5.4345487">
<ele>799.82</ele>
<time>2019-07-25T08:54:54Z</time>
</trkpt>
<trkpt lat="44.9907378" lon="5.4345486">
<ele>799.85</ele>
<time>2019-07-25T08:54:55Z</time>
</trkpt>
<trkpt lat="44.9907379" lon="5.4345484">
<ele>799.88</ele>
<time>2019-07-25T08:54:56Z</time>
</trkpt>
<trkpt lat="44.9907381" lon="5.4345480">
<ele>799.91</ele>
<time>2019-07-25T08:54:57Z</time>
</trkpt>
<trkpt lat="44.9907382" lon="5.4345478">
<ele>799.93</ele>
<time>2019-07-25T08:54:58Z</time>
</trkpt>
<trkpt lat="44.9907386" lon="5.4345473">
<ele>799.96</ele>
<time>2019-07-25T08:54:59Z</time>
</trkpt>
<trkpt lat="44.9907385" lon="5.4345473">
<ele>799.99</ele>
<time>2019-07-25T08:55:00Z</time>
</trkpt>
<trkpt lat="44.9907385" lon="5.4345470">
<ele>800.01</ele>
<time>2019-07-25T08:55:01Z</time>
</trkpt>
<trkpt lat="44.9907383" lon="5.4345472">
<ele>800.04</ele>
<time>2019-07-25T08:55:02Z</time>
</trkpt>
<trkpt lat="44.9907376" lon="5.4345469">
<ele>800.06</ele>
<time>2019-07-25T08:55:03Z</time>
</trkpt>
<trkpt lat="44.9907367" lon="5.4345467">
<ele>800.09</ele>
<time>2019-07-25T08:55:04Z</time>
</trkpt>
<trkpt lat="44.9907365" lon="5.4345466">
<ele>800.11</ele>
<time>2019-07-25T08:55:05Z</time>
</trkpt>
<trkpt lat="44.9907365" lon="5.4345467">
<ele>800.13</ele>
<time>2019-07-25T08:55:06Z</time>
</trkpt>
<trkpt lat="44.9907367" lon="5.4345470">
<ele>800.16</ele>
<time>2019-07-25T08:55:07Z</time>
</trkpt>
<trkpt lat="44.9907366" lon="5.4345471">
<ele>800.18</ele>
<time>2019-07-25T08:55:08Z</time>
</trkpt>
<trkpt lat="44.9907367" lon="5.4345473">
<ele>800.20</ele>
<time>2019-07-25T08:55:09Z</time>
</trkpt>
<trkpt lat="44.9907365" lon="5.4345476">
<ele>800.22</ele>
<time>2019-07-25T08:55:10Z</time>
</trkpt>
<trkpt lat="44.9907364" lon="5.4345477">
<ele>800.24</ele>
<time>2019-07-25T08:55:11Z</time>
</trkpt>
<trkpt lat="44.9907364" lon="5.4345481">
<ele>800.26</ele>
<time>2019-07-25T08:55:12Z</time>
</trkpt>
<trkpt lat="44.9907366" lon="5.4345485">
<ele>800.29</ele>
<time>2019-07-25T08:55:13Z</time>
</trkpt>
<trkpt lat="44.9907365" lon="5.4345489">
<ele>800.31</ele>
<time>2019-07-25T08:55:14Z</time>
</trkpt>
<trkpt lat="44.9907362" lon="5.4345491">
<ele>800.33</ele>
<time>2019-07-25T08:55:15Z</time>
</trkpt>
<trkpt lat="44.9907362" lon="5.4345492">
<ele>800.36</ele>
<time>2019-07-25T08:55:16Z</time>
</trkpt>
<trkpt lat="44.9907363" lon="5.4345495">
<ele>800.38</ele>
<time>2019-07-25T08:55:17Z</time>
</trkpt>
<trkpt lat="44.9907361" lon="5.4345495">
<ele>800.41</ele>
<time>2019-07-25T08:55:18Z</time>
</trkpt>
<trkpt lat="44.9907361" lon="5.4345495">
<ele>800.43</ele>
<time>2019-07-25T08:55:19Z</time>
</trkpt>
<trkpt lat="44.9907367" lon="5.4345499">
<ele>800.45</ele>
<time>2019-07-25T08:55:20Z</time>
</trkpt>
<trkpt lat="44.9907373" lon="5.4345505">
<ele>800.48</ele>
<time>2019-07-25T08:55:21Z</time>
</trkpt>
<trkpt lat="44.9907378" lon="5.4345510">
<ele>800.50</ele>
<time>2019-07-25T08:55:22Z</time>
</trkpt>
<trkpt lat="44.9907388" lon="5.4345518">
<ele>800.52</ele>
<time>2019-07-25T08:55:23Z</time>
</trkpt>
<trkpt lat="44.9907394" lon="5.4345521">
<ele>800.55</ele>
<time>2019-07-25T08:55:24Z</time>
</trkpt>
<trkpt lat="44.9907399" lon="5.4345525">
<ele>800.57</ele>
<time>2019-07-25T08:55:25Z</time>
</trkpt>
<trkpt lat="44.9907400" lon="5.4345527">
<ele>800.60</ele>
<time>2019-07-25T08:55:26Z</time>
</trkpt>
<trkpt lat="44.9907400" lon="5.4345529">
<ele>800.62</ele>
<time>2019-07-25T08:55:27Z</time>
</trkpt>
<trkpt lat="44.9907404" lon="5.4345531">
<ele>800.64</ele>
<time>2019-07-25T08:55:28Z</time>
</trkpt>
<trkpt lat="44.9907404" lon="5.4345532">
<ele>800.67</ele>
<time>2019-07-25T08:55:29Z</time>
</trkpt>
<trkpt lat="44.9907402" lon="5.4345531">
<ele>800.69</ele>
<time>2019-07-25T08:55:30Z</time>
</trkpt>
<trkpt lat="44.9907401" lon="5.4345533">
<ele>800.72</ele>
<time>2019-07-25T08:55:31Z</time>
</trkpt>
<trkpt lat="44.9907396" lon="5.4345531">
<ele>800.75</ele>
<time>2019-07-25T08:55:32Z</time>
</trkpt>
<trkpt lat="44.9907393" lon="5.4345530">
<ele>800.78</ele>
<time>2019-07-25T08:55:33Z</time>
</trkpt>
<trkpt lat="44.9907392" lon="5.4345528">
<ele>800.80</ele>
<time>2019-07-25T08:55:34Z</time>
</trkpt>
<trkpt lat="44.9907391" lon="5.4345526">
<ele>800.83</ele>
<time>2019-07-25T08:55:35Z</time>
</trkpt>
<trkpt lat="44.9907386" lon="5.4345522">
<ele>800.86</ele>
<time>2019-07-25T08:55:36Z</time>
</trkpt>
<trkpt lat="44.9907393" lon="5.4345525">
<ele>800.89</ele>
<time>2019-07-25T08:55:37Z</time>
</trkpt>
<trkpt lat="44.9907407" lon="5.4345548">
<ele>800.92</ele>
<time>2019-07-25T08:55:38Z</time>
</trkpt>
<trkpt lat="44.9907408" lon="5.4345553">
<ele>800.95</ele>
<time>2019-07-25T08:55:39Z</time>
</trkpt>
<trkpt lat="44.9907409" lon="5.4345484">
<ele>800.98</ele>
<time>2019-07-25T08:55:40Z</time>
</trkpt>
<trkpt lat="44.9907356" lon="5.4345401">
<ele>801.28</ele>
<time>2019-07-25T08:55:41Z</time>
</trkpt>
<trkpt lat="44.9907358" lon="5.4345308">
<ele>801.31</ele>
<time>2019-07-25T08:55:42Z</time>
</trkpt>
<trkpt lat="44.9907320" lon="5.4345216">
<ele>801.34</ele>
<time>2019-07-25T08:55:43Z</time>
</trkpt>
<trkpt lat="44.9907307" lon="5.4345162">
<ele>801.37</ele>
<time>2019-07-25T08:55:44Z</time>
</trkpt>
<trkpt lat="44.9907305" lon="5.4345145">
<ele>801.40</ele>
<time>2019-07-25T08:55:45Z</time>
</trkpt>
<trkpt lat="44.9907303" lon="5.4345121">
<ele>801.43</ele>
<time>2019-07-25T08:55:46Z</time>
</trkpt>
<trkpt lat="44.9907306" lon="5.4345109">
<ele>801.46</ele>
<time>2019-07-25T08:55:47Z</time>
</trkpt>
<trkpt lat="44.9907315" lon="5.4345084">
<ele>801.49</ele>
<time>2019-07-25T08:55:48Z</time>
</trkpt>
<trkpt lat="44.9907313" lon="5.4345053">
<ele>801.51</ele>
<time>2019-07-25T08:55:49Z</time>
</trkpt>
<trkpt lat="44.9907331" lon="5.4344858">
<ele>801.54</ele>
<time>2019-07-25T08:55:50Z</time>
</trkpt>
<trkpt lat="44.9907299" lon="5.4344839">
<ele>801.84</ele>
<time>2019-07-25T08:55:51Z</time>
</trkpt>
<trkpt lat="44.9907330" lon="5.4344728">
<ele>802.12</ele>
<time>2019-07-25T08:55:52Z</time>
</trkpt>
<trkpt lat="44.9907322" lon="5.4344695">
<ele>802.15</ele>
<time>2019-07-25T08:55:53Z</time>
</trkpt>
<trkpt lat="44.9907297" lon="5.4344734">
<ele>802.18</ele>
<time>2019-07-25T08:55:54Z</time>
</trkpt>
<trkpt lat="44.9907255" lon="5.4344756">
<ele>802.20</ele>
<time>2019-07-25T08:55:55Z</time>
</trkpt>
<trkpt lat="44.9907241" lon="5.4344793">
<ele>802.23</ele>
<time>2019-07-25T08:55:56Z</time>
</trkpt>
<trkpt lat="44.9907237" lon="5.4344802">
<ele>802.26</ele>
<time>2019-07-25T08:55:57Z</time>
</trkpt>
<trkpt lat="44.9907230" lon="5.4344812">
<ele>802.28</ele>
<time>2019-07-25T08:55:58Z</time>
</trkpt>
<trkpt lat="44.9907220" lon="5.4344819">
<ele>802.31</ele>
<time>2019-07-25T08:55:59Z</time>
</trkpt>
<trkpt lat="44.9907223" lon="5.4344820">
<ele>802.33</ele>
<time>2019-07-25T08:56:00Z</time>
</trkpt>
<trkpt lat="44.9907218" lon="5.4344829">
<ele>802.36</ele>
<time>2019-07-25T08:56:01Z</time>
</trkpt>
<trkpt lat="44.9907212" lon="5.4344831">
<ele>802.38</ele>
<time>2019-07-25T08:56:02Z</time>
</trkpt>
<trkpt lat="44.9907211" lon="5.4344834">
<ele>802.40</ele>
<time>2019-07-25T08:56:03Z</time>
</trkpt>
<trkpt lat="44.9907209" lon="5.4344848">
<ele>802.42</ele>
<time>2019-07-25T08:56:04Z</time>
</trkpt>
<trkpt lat="44.9907205" lon="5.4344860">
<ele>802.45</ele>
<time>2019-07-25T08:56:05Z</time>
</trkpt>
<trkpt lat="44.9907208" lon="5.4344869">
<ele>802.47</ele>
<time>2019-07-25T08:56:06Z</time>
</trkpt>
<trkpt lat="44.9907219" lon="5.4344883">
<ele>802.49</ele>
<time>2019-07-25T08:56:07Z</time>
</trkpt>
<trkpt lat="44.9907230" lon="5.4344896">
<ele>802.51</ele>
<time>2019-07-25T08:56:08Z</time>
</trkpt>
<trkpt lat="44.9907234" lon="5.4344893">
<ele>802.53</ele>
<time>2019-07-25T08:56:09Z</time>
</trkpt>
<trkpt lat="44.9907239" lon="5.4344888">
<ele>802.55</ele>
<time>2019-07-25T08:56:10Z</time>
</trkpt>
<trkpt lat="44.9907242" lon="5.4344890">
<ele>802.57</ele>
<time>2019-07-25T08:56:11Z</time>
</trkpt>
<trkpt lat="44.9907244" lon="5.4344877">
<ele>802.59</ele>
<time>2019-07-25T08:56:12Z</time>
</trkpt>
<trkpt lat="44.9907249" lon="5.4344866">
<ele>802.61</ele>
<time>2019-07-25T08:56:13Z</time>
</trkpt>
<trkpt lat="44.9907253" lon="5.4344854">
<ele>802.63</ele>
<time>2019-07-25T08:56:14Z</time>
</trkpt>
<trkpt lat="44.9907254" lon="5.4344855">
<ele>802.65</ele>
<time>2019-07-25T08:56:15Z</time>
</trkpt>
<trkpt lat="44.9907258" lon="5.4344855">
<ele>802.67</ele>
<time>2019-07-25T08:56:16Z</time>
</trkpt>
<trkpt lat="44.9907221" lon="5.4344793">
<ele>802.88</ele>
<time>2019-07-25T08:56:17Z</time>
</trkpt>
<trkpt lat="44.9907206" lon="5.4344769">
<ele>803.08</ele>
<time>2019-07-25T08:56:18Z</time>
</trkpt>
<trkpt lat="44.9907203" lon="5.4344733">
<ele>803.10</ele>
<time>2019-07-25T08:56:19Z</time>
</trkpt>
<trkpt lat="44.9907199" lon="5.4344722">
<ele>803.12</ele>
<time>2019-07-25T08:56:20Z</time>
</trkpt>
<trkpt lat="44.9907193" lon="5.4344693">
<ele>803.32</ele>
<time>2019-07-25T08:56:21Z</time>
</trkpt>
<trkpt lat="44.9907201" lon="5.4344678">
<ele>803.51</ele>
<time>2019-07-25T08:56:22Z</time>
</trkpt>
<trkpt lat="44.9907207" lon="5.4344659">
<ele>803.70</ele>
<time>2019-07-25T08:56:23Z</time>
</trkpt>
<trkpt lat="44.9907200" lon="5.4344639">
<ele>803.72</ele>
<time>2019-07-25T08:56:24Z</time>
</trkpt>
<trkpt lat="44.9907201" lon="5.4344631">
<ele>803.74</ele>
<time>2019-07-25T08:56:25Z</time>
</trkpt>
<trkpt lat="44.9907201" lon="5.4344628">
<ele>803.76</ele>
<time>2019-07-25T08:56:26Z</time>
</trkpt>
<trkpt lat="44.9907198" lon="5.4344624">
<ele>803.77</ele>
<time>2019-07-25T08:56:27Z</time>
</trkpt>
<trkpt lat="44.9907195" lon="5.4344605">
<ele>803.79</ele>
<time>2019-07-25T08:56:28Z</time>
</trkpt>
<trkpt lat="44.9907197" lon="5.4344541">
<ele>803.81</ele>
<time>2019-07-25T08:56:29Z</time>
</trkpt>
<trkpt lat="44.9907159" lon="5.4344523">
<ele>803.83</ele>
<time>2019-07-25T08:56:30Z</time>
</trkpt>
<trkpt lat="44.9907136" lon="5.4344453">
<ele>803.99</ele>
<time>2019-07-25T08:56:31Z</time>
</trkpt>
<trkpt lat="44.9907138" lon="5.4344467">
<ele>804.01</ele>
<time>2019-07-25T08:56:32Z</time>
</trkpt>
<trkpt lat="44.9907170" lon="5.4344475">
<ele>804.03</ele>
<time>2019-07-25T08:56:33Z</time>
</trkpt>
<trkpt lat="44.9907090" lon="5.4344633">
<ele>804.04</ele>
<time>2019-07-25T08:56:34Z</time>
</trkpt>
<trkpt lat="44.9907046" lon="5.4344605">
<ele>804.06</ele>
<time>2019-07-25T08:56:35Z</time>
</trkpt>
<trkpt lat="44.9907152" lon="5.4344391">
<ele>804.22</ele>
<time>2019-07-25T08:56:36Z</time>
</trkpt>
<trkpt lat="44.9907114" lon="5.4344349">
<ele>804.38</ele>
<time>2019-07-25T08:56:37Z</time>
</trkpt>
<trkpt lat="44.9907120" lon="5.4344337">
<ele>804.39</ele>
<time>2019-07-25T08:56:38Z</time>
</trkpt>
<trkpt lat="44.9907138" lon="5.4344350">
<ele>804.41</ele>
<time>2019-07-25T08:56:39Z</time>
</trkpt>
<trkpt lat="44.9907148" lon="5.4344355">
<ele>804.42</ele>
<time>2019-07-25T08:56:40Z</time>
</trkpt>
<trkpt lat="44.9907161" lon="5.4344365">
<ele>804.44</ele>
<time>2019-07-25T08:56:41Z</time>
</trkpt>
<trkpt lat="44.9907166" lon="5.4344364">
<ele>804.46</ele>
<time>2019-07-25T08:56:42Z</time>
</trkpt>
<trkpt lat="44.9907164" lon="5.4344367">
<ele>804.47</ele>
<time>2019-07-25T08:56:43Z</time>
</trkpt>
<trkpt lat="44.9907165" lon="5.4344367">
<ele>804.49</ele>
<time>2019-07-25T08:56:44Z</time>
</trkpt>
<trkpt lat="44.9907165" lon="5.4344368">
<ele>804.50</ele>
<time>2019-07-25T08:56:45Z</time>
</trkpt>
<trkpt lat="44.9907166" lon="5.4344369">
<ele>804.52</ele>
<time>2019-07-25T08:56:46Z</time>
</trkpt>
<trkpt lat="44.9907170" lon="5.4344379">
<ele>804.53</ele>
<time>2019-07-25T08:56:47Z</time>
</trkpt>
<trkpt lat="44.9907161" lon="5.4344379">
<ele>804.55</ele>
<time>2019-07-25T08:56:48Z</time>
</trkpt>
<trkpt lat="44.9907152" lon="5.4344375">
<ele>804.57</ele>
<time>2019-07-25T08:56:49Z</time>
</trkpt>
<trkpt lat="44.9907144" lon="5.4344364">
<ele>804.58</ele>
<time>2019-07-25T08:56:50Z</time>
</trkpt>
<trkpt lat="44.9907148" lon="5.4344367">
<ele>804.60</ele>
<time>2019-07-25T08:56:51Z</time>
</trkpt>
<trkpt lat="44.9907152" lon="5.4344370">
<ele>804.61</ele>
<time>2019-07-25T08:56:52Z</time>
</trkpt>
<trkpt lat="44.9907158" lon="5.4344378">
<ele>804.63</ele>
<time>2019-07-25T08:56:53Z</time>
</trkpt>
<trkpt lat="44.9907163" lon="5.4344381">
<ele>804.64</ele>
<time>2019-07-25T08:56:54Z</time>
</trkpt>
<trkpt lat="44.9907172" lon="5.4344390">
<ele>804.66</ele>
<time>2019-07-25T08:56:55Z</time>
</trkpt>
<trkpt lat="44.9907174" lon="5.4344389">
<ele>804.67</ele>
<time>2019-07-25T08:56:56Z</time>
</trkpt>
<trkpt lat="44.9907175" lon="5.4344389">
<ele>804.69</ele>
<time>2019-07-25T08:56:57Z</time>
</trkpt>
<trkpt lat="44.9907180" lon="5.4344393">
<ele>804.70</ele>
<time>2019-07-25T08:56:58Z</time>
</trkpt>
<trkpt lat="44.9907181" lon="5.4344394">
<ele>804.71</ele>
<time>2019-07-25T08:56:59Z</time>
</trkpt>
<trkpt lat="44.9907182" lon="5.4344396">
<ele>804.73</ele>
<time>2019-07-25T08:57:00Z</time>
</trkpt>
<trkpt lat="44.9907184" lon="5.4344398">
<ele>804.74</ele>
<time>2019-07-25T08:57:01Z</time>
</trkpt>
<trkpt lat="44.9907186" lon="5.4344402">
<ele>804.76</ele>
<time>2019-07-25T08:57:02Z</time>
</trkpt>
<trkpt lat="44.9907184" lon="5.4344403">
<ele>804.77</ele>
<time>2019-07-25T08:57:03Z</time>
</trkpt>
<trkpt lat="44.9907184" lon="5.4344406">
<ele>804.79</ele>
<time>2019-07-25T08:57:04Z</time>
</trkpt>
<trkpt lat="44.9907186" lon="5.4344410">
<ele>804.80</ele>
<time>2019-07-25T08:57:05Z</time>
</trkpt>
<trkpt lat="44.9907190" lon="5.4344412">
<ele>804.82</ele>
<time>2019-07-25T08:57:06Z</time>
</trkpt>
<trkpt lat="44.9907193" lon="5.4344415">
<ele>804.83</ele>
<time>2019-07-25T08:57:07Z</time>
</trkpt>
<trkpt lat="44.9907197" lon="5.4344420">
<ele>804.85</ele>
<time>2019-07-25T08:57:08Z</time>
</trkpt>
<trkpt lat="44.9907199" lon="5.4344425">
<ele>804.87</ele>
<time>2019-07-25T08:57:09Z</time>
</trkpt>
<trkpt lat="44.9907201" lon="5.4344429">
<ele>804.88</ele>
<time>2019-07-25T08:57:10Z</time>
</trkpt>
<trkpt lat="44.9907200" lon="5.4344430">
<ele>804.90</ele>
<time>2019-07-25T08:57:11Z</time>
</trkpt>
<trkpt lat="44.9907199" lon="5.4344430">
<ele>804.92</ele>
<time>2019-07-25T08:57:12Z</time>
</trkpt>
<trkpt lat="44.9907199" lon="5.4344432">
<ele>804.93</ele>
<time>2019-07-25T08:57:13Z</time>
</trkpt>
<trkpt lat="44.9907202" lon="5.4344436">
<ele>804.95</ele>
<time>2019-07-25T08:57:14Z</time>
</trkpt>
<trkpt lat="44.9907203" lon="5.4344435">
<ele>804.96</ele>
<time>2019-07-25T08:57:15Z</time>
</trkpt>
<trkpt lat="44.9907201" lon="5.4344437">
<ele>804.98</ele>
<time>2019-07-25T08:57:16Z</time>
</trkpt>
<trkpt lat="44.9907201" lon="5.4344439">
<ele>804.99</ele>
<time>2019-07-25T08:57:17Z</time>
</trkpt>
<trkpt lat="44.9907200" lon="5.4344440">
<ele>805.00</ele>
<time>2019-07-25T08:57:18Z</time>
</trkpt>
<trkpt lat="44.9907201" lon="5.4344443">
<ele>805.02</ele>
<time>2019-07-25T08:57:19Z</time>
</trkpt>
<trkpt lat="44.9907207" lon="5.4344452">
<ele>805.03</ele>
<time>2019-07-25T08:57:20Z</time>
</trkpt>
<trkpt lat="44.9907203" lon="5.4344455">
<ele>805.04</ele>
<time>2019-07-25T08:57:21Z</time>
</trkpt>
<trkpt lat="44.9907203" lon="5.4344456">
<ele>805.06</ele>
<time>2019-07-25T08:57:22Z</time>
</trkpt>
<trkpt lat="44.9907204" lon="5.4344460">
<ele>805.07</ele>
<time>2019-07-25T08:57:23Z</time>
</trkpt>
<trkpt lat="44.9907205" lon="5.4344463">
<ele>805.09</ele>
<time>2019-07-25T08:57:24Z</time>
</trkpt>
<trkpt lat="44.9907206" lon="5.4344468">
<ele>805.11</ele>
<time>2019-07-25T08:57:25Z</time>
</trkpt>
<trkpt lat="44.9907209" lon="5.4344474">
<ele>805.13</ele>
<time>2019-07-25T08:57:26Z</time>
</trkpt>
<trkpt lat="44.9907210" lon="5.4344478">
<ele>805.14</ele>
<time>2019-07-25T08:57:27Z</time>
</trkpt>
<trkpt lat="44.9907208" lon="5.4344479">
<ele>805.16</ele>
<time>2019-07-25T08:57:28Z</time>
</trkpt>
<trkpt lat="44.9907211" lon="5.4344481">
<ele>805.18</ele>
<time>2019-07-25T08:57:29Z</time>
</trkpt>
<trkpt lat="44.9907211" lon="5.4344485">
<ele>805.20</ele>
<time>2019-07-25T08:57:30Z</time>
</trkpt>
<trkpt lat="44.9907212" lon="5.4344487">
<ele>805.22</ele>
<time>2019-07-25T08:57:31Z</time>
</trkpt>
<trkpt lat="44.9907208" lon="5.4344485">
<ele>805.25</ele>
<time>2019-07-25T08:57:32Z</time>
</trkpt>
<trkpt lat="44.9907200" lon="5.4344472">
<ele>805.27</ele>
<time>2019-07-25T08:57:33Z</time>
</trkpt>
<trkpt lat="44.9907193" lon="5.4344465">
<ele>805.29</ele>
<time>2019-07-25T08:57:34Z</time>
</trkpt>
<trkpt lat="44.9907194" lon="5.4344466">
<ele>805.31</ele>
<time>2019-07-25T08:57:35Z</time>
</trkpt>
<trkpt lat="44.9907196" lon="5.4344469">
<ele>805.33</ele>
<time>2019-07-25T08:57:36Z</time>
</trkpt>
<trkpt lat="44.9907200" lon="5.4344475">
<ele>805.35</ele>
<time>2019-07-25T08:57:37Z</time>
</trkpt>
<trkpt lat="44.9907204" lon="5.4344482">
<ele>805.37</ele>
<time>2019-07-25T08:57:38Z</time>
</trkpt>
<trkpt lat="44.9907203" lon="5.4344485">
<ele>805.39</ele>
<time>2019-07-25T08:57:39Z</time>
</trkpt>
<trkpt lat="44.9907202" lon="5.4344487">
<ele>805.41</ele>
<time>2019-07-25T08:57:40Z</time>
</trkpt>
<trkpt lat="44.9907203" lon="5.4344490">
<ele>805.43</ele>
<time>2019-07-25T08:57:41Z</time>
</trkpt>
<trkpt lat="44.9907207" lon="5.4344494">
<ele>805.45</ele>
<time>2019-07-25T08:57:42Z</time>
</trkpt>
<trkpt lat="44.9907209" lon="5.4344497">
<ele>805.47</ele>
<time>2019-07-25T08:57:43Z</time>
</trkpt>
<trkpt lat="44.9907211" lon="5.4344495">
<ele>805.49</ele>
<time>2019-07-25T08:57:44Z</time>
</trkpt>
<trkpt lat="44.9907209" lon="5.4344493">
<ele>805.52</ele>
<time>2019-07-25T08:57:45Z</time>
</trkpt>
<trkpt lat="44.9907211" lon="5.4344495">
<ele>805.54</ele>
<time>2019-07-25T08:57:46Z</time>
</trkpt>
<trkpt lat="44.9907214" lon="5.4344496">
<ele>805.56</ele>
<time>2019-07-25T08:57:47Z</time>
</trkpt>
<trkpt lat="44.9907213" lon="5.4344494">
<ele>805.58</ele>
<time>2019-07-25T08:57:48Z</time>
</trkpt>
<trkpt lat="44.9907211" lon="5.4344489">
<ele>805.60</ele>
<time>2019-07-25T08:57:49Z</time>
</trkpt>
<trkpt lat="44.9907211" lon="5.4344490">
<ele>805.62</ele>
<time>2019-07-25T08:57:50Z</time>
</trkpt>
<trkpt lat="44.9907213" lon="5.4344491">
<ele>805.65</ele>
<time>2019-07-25T08:57:51Z</time>
</trkpt>
<trkpt lat="44.9907218" lon="5.4344495">
<ele>805.67</ele>
<time>2019-07-25T08:57:52Z</time>
</trkpt>
<trkpt lat="44.9907220" lon="5.4344498">
<ele>805.69</ele>
<time>2019-07-25T08:57:53Z</time>
</trkpt>
<trkpt lat="44.9907220" lon="5.4344499">
<ele>805.71</ele>
<time>2019-07-25T08:57:54Z</time>
</trkpt>
<trkpt lat="44.9907221" lon="5.4344504">
<ele>805.73</ele>
<time>2019-07-25T08:57:55Z</time>
</trkpt>
<trkpt lat="44.9907220" lon="5.4344503">
<ele>805.76</ele>
<time>2019-07-25T08:57:56Z</time>
</trkpt>
<trkpt lat="44.9907219" lon="5.4344503">
<ele>805.78</ele>
<time>2019-07-25T08:57:57Z</time>
</trkpt>
<trkpt lat="44.9907220" lon="5.4344506">
<ele>805.80</ele>
<time>2019-07-25T08:57:58Z</time>
</trkpt>
<trkpt lat="44.9907222" lon="5.4344512">
<ele>805.82</ele>
<time>2019-07-25T08:57:59Z</time>
</trkpt>
<trkpt lat="44.9907219" lon="5.4344516">
<ele>805.84</ele>
<time>2019-07-25T08:58:00Z</time>
</trkpt>
<trkpt lat="44.9907226" lon="5.4344521">
<ele>805.86</ele>
<time>2019-07-25T08:58:01Z</time>
</trkpt>
<trkpt lat="44.9907228" lon="5.4344523">
<ele>805.88</ele>
<time>2019-07-25T08:58:02Z</time>
</trkpt>
<trkpt lat="44.9907221" lon="5.4344523">
<ele>805.90</ele>
<time>2019-07-25T08:58:03Z</time>
</trkpt>
<trkpt lat="44.9907220" lon="5.4344524">
<ele>805.92</ele>
<time>2019-07-25T08:58:04Z</time>
</trkpt>
<trkpt lat="44.9907213" lon="5.4344523">
<ele>805.94</ele>
<time>2019-07-25T08:58:05Z</time>
</trkpt>
<trkpt lat="44.9907203" lon="5.4344523">
<ele>805.96</ele>
<time>2019-07-25T08:58:06Z</time>
</trkpt>
<trkpt lat="44.9907205" lon="5.4344527">
<ele>805.98</ele>
<time>2019-07-25T08:58:07Z</time>
</trkpt>
<trkpt lat="44.9907205" lon="5.4344530">
<ele>806.00</ele>
<time>2019-07-25T08:58:08Z</time>
</trkpt>
<trkpt lat="44.9907216" lon="5.4344541">
<ele>806.02</ele>
<time>2019-07-25T08:58:09Z</time>
</trkpt>
<trkpt lat="44.9907219" lon="5.4344545">
<ele>806.04</ele>
<time>2019-07-25T08:58:10Z</time>
</trkpt>
<trkpt lat="44.9907223" lon="5.4344552">
<ele>806.06</ele>
<time>2019-07-25T08:58:11Z</time>
</trkpt>
<trkpt lat="44.9907222" lon="5.4344552">
<ele>806.08</ele>
<time>2019-07-25T08:58:12Z</time>
</trkpt>
<trkpt lat="44.9907223" lon="5.4344553">
<ele>806.10</ele>
<time>2019-07-25T08:58:13Z</time>
</trkpt>
<trkpt lat="44.9907224" lon="5.4344554">
<ele>806.12</ele>
<time>2019-07-25T08:58:14Z</time>
</trkpt>
<trkpt lat="44.9907225" lon="5.4344556">
<ele>806.14</ele>
<time>2019-07-25T08:58:15Z</time>
</trkpt>
<trkpt lat="44.9907229" lon="5.4344558">
<ele>806.16</ele>
<time>2019-07-25T08:58:16Z</time>
</trkpt>
<trkpt lat="44.9907233" lon="5.4344562">
<ele>806.18</ele>
<time>2019-07-25T08:58:17Z</time>
</trkpt>
<trkpt lat="44.9907236" lon="5.4344567">
<ele>806.20</ele>
<time>2019-07-25T08:58:18Z</time>
</trkpt>
<trkpt lat="44.9907239" lon="5.4344571">
<ele>806.23</ele>
<time>2019-07-25T08:58:19Z</time>
</trkpt>
<trkpt lat="44.9907241" lon="5.4344575">
<ele>806.25</ele>
<time>2019-07-25T08:58:20Z</time>
</trkpt>
<trkpt lat="44.9907244" lon="5.4344579">
<ele>806.28</ele>
<time>2019-07-25T08:58:21Z</time>
</trkpt>
<trkpt lat="44.9907246" lon="5.4344583">
<ele>806.30</ele>
<time>2019-07-25T08:58:22Z</time>
</trkpt>
<trkpt lat="44.9907252" lon="5.4344586">
<ele>806.33</ele>
<time>2019-07-25T08:58:23Z</time>
</trkpt>
<trkpt lat="44.9907256" lon="5.4344588">
<ele>806.36</ele>
<time>2019-07-25T08:58:24Z</time>
</trkpt>
<trkpt lat="44.9907254" lon="5.4344592">
<ele>806.39</ele>
<time>2019-07-25T08:58:25Z</time>
</trkpt>
<trkpt lat="44.9907246" lon="5.4344594">
<ele>806.41</ele>
<time>2019-07-25T08:58:26Z</time>
</trkpt>
<trkpt lat="44.9907249" lon="5.4344593">
<ele>806.44</ele>
<time>2019-07-25T08:58:27Z</time>
</trkpt>
<trkpt lat="44.9907250" lon="5.4344595">
<ele>806.47</ele>
<time>2019-07-25T08:58:28Z</time>
</trkpt>
<trkpt lat="44.9907264" lon="5.4344593">
<ele>806.50</ele>
<time>2019-07-25T08:58:29Z</time>
</trkpt>
<trkpt lat="44.9907293" lon="5.4344590">
<ele>806.52</ele>
<time>2019-07-25T08:58:30Z</time>
</trkpt>
<trkpt lat="44.9907306" lon="5.4344588">
<ele>806.55</ele>
<time>2019-07-25T08:58:31Z</time>
</trkpt>
<trkpt lat="44.9907317" lon="5.4344587">
<ele>806.58</ele>
<time>2019-07-25T08:58:32Z</time>
</trkpt>
<trkpt lat="44.9907346" lon="5.4344583">
<ele>806.60</ele>
<time>2019-07-25T08:58:33Z</time>
</trkpt>
<trkpt lat="44.9907370" lon="5.4344579">
<ele>806.63</ele>
<time>2019-07-25T08:58:34Z</time>
</trkpt>
<trkpt lat="44.9907363" lon="5.4344583">
<ele>806.65</ele>
<time>2019-07-25T08:58:35Z</time>
</trkpt>
<trkpt lat="44.9907350" lon="5.4344579">
<ele>806.68</ele>
<time>2019-07-25T08:58:36Z</time>
</trkpt>
<trkpt lat="44.9907352" lon="5.4344584">
<ele>806.70</ele>
<time>2019-07-25T08:58:37Z</time>
</trkpt>
<trkpt lat="44.9907342" lon="5.4344586">
<ele>806.73</ele>
<time>2019-07-25T08:58:38Z</time>
</trkpt>
<trkpt lat="44.9907056" lon="5.4345050">
<ele>806.97</ele>
<time>2019-07-25T08:58:39Z</time>
</trkpt>
<trkpt lat="44.9906797" lon="5.4345469">
<ele>807.20</ele>
<time>2019-07-25T08:58:40Z</time>
</trkpt>
<trkpt lat="44.9906776" lon="5.4345473">
<ele>807.22</ele>
<time>2019-07-25T08:58:41Z</time>
</trkpt>
<trkpt lat="44.9906777" lon="5.4345476">
<ele>807.25</ele>
<time>2019-07-25T08:58:42Z</time>
</trkpt>
<trkpt lat="44.9906780" lon="5.4345476">
<ele>807.27</ele>
<time>2019-07-25T08:58:43Z</time>
</trkpt>
<trkpt lat="44.9906783" lon="5.4345478">
<ele>807.29</ele>
<time>2019-07-25T08:58:44Z</time>
</trkpt>
<trkpt lat="44.9906797" lon="5.4345473">
<ele>807.31</ele>
<time>2019-07-25T08:58:45Z</time>
</trkpt>
<trkpt lat="44.9906799" lon="5.4345478">
<ele>807.34</ele>
<time>2019-07-25T08:58:46Z</time>
</trkpt>
<trkpt lat="44.9906802" lon="5.4345480">
<ele>807.36</ele>
<time>2019-07-25T08:58:47Z</time>
</trkpt>
<trkpt lat="44.9906812" lon="5.4345475">
<ele>807.38</ele>
<time>2019-07-25T08:58:48Z</time>
</trkpt>
<trkpt lat="44.9906811" lon="5.4345479">
<ele>807.40</ele>
<time>2019-07-25T08:58:49Z</time>
</trkpt>
<trkpt lat="44.9906813" lon="5.4345480">
<ele>807.42</ele>
<time>2019-07-25T08:58:50Z</time>
</trkpt>
<trkpt lat="44.9906816" lon="5.4345482">
<ele>807.44</ele>
<time>2019-07-25T08:58:51Z</time>
</trkpt>
<trkpt lat="44.9906820" lon="5.4345481">
<ele>807.46</ele>
<time>2019-07-25T08:58:52Z</time>
</trkpt>
<trkpt lat="44.9906820" lon="5.4345483">
<ele>807.48</ele>
<time>2019-07-25T08:58:53Z</time>
</trkpt>
<trkpt lat="44.9906817" lon="5.4345485">
<ele>807.50</ele>
<time>2019-07-25T08:58:54Z</time>
</trkpt>
<trkpt lat="44.9906807" lon="5.4345516">
<ele>807.52</ele>
<time>2019-07-25T08:58:55Z</time>
</trkpt>
<trkpt lat="44.9906801" lon="5.4345536">
<ele>807.54</ele>
<time>2019-07-25T08:58:56Z</time>
</trkpt>
<trkpt lat="44.9906816" lon="5.4345532">
<ele>807.56</ele>
<time>2019-07-25T08:58:57Z</time>
</trkpt>
<trkpt lat="44.9906814" lon="5.4345525">
<ele>807.58</ele>
<time>2019-07-25T08:58:58Z</time>
</trkpt>
<trkpt lat="44.9906797" lon="5.4345536">
<ele>807.60</ele>
<time>2019-07-25T08:58:59Z</time>
</trkpt>
<trkpt lat="44.9906729" lon="5.4345677">
<ele>807.62</ele>
<time>2019-07-25T08:59:00Z</time>
</trkpt>
<trkpt lat="44.9906598" lon="5.4345916">
<ele>807.82</ele>
<time>2019-07-25T08:59:01Z</time>
</trkpt>
<trkpt lat="44.9906398" lon="5.4346153">
<ele>808.02</ele>
<time>2019-07-25T08:59:02Z</time>
</trkpt>
<trkpt lat="44.9906318" lon="5.4345957">
<ele>808.23</ele>
<time>2019-07-25T08:59:03Z</time>
</trkpt>
<trkpt lat="44.9906218" lon="5.4346081">
<ele>808.43</ele>
<time>2019-07-25T08:59:04Z</time>
</trkpt>
<trkpt lat="44.9906259" lon="5.4346123">
<ele>808.65</ele>
<time>2019-07-25T08:59:05Z</time>
</trkpt>
<trkpt lat="44.9906735" lon="5.4346004">
<ele>808.86</ele>
<time>2019-07-25T08:59:06Z</time>
</trkpt>
<trkpt lat="44.9906763" lon="5.4345993">
<ele>808.88</ele>
<time>2019-07-25T08:59:07Z</time>
</trkpt>
<trkpt lat="44.9906729" lon="5.4346020">
<ele>808.90</ele>
<time>2019-07-25T08:59:08Z</time>
</trkpt>
<trkpt lat="44.9906721" lon="5.4346013">
<ele>808.93</ele>
<time>2019-07-25T08:59:09Z</time>
</trkpt>
<trkpt lat="44.9906723" lon="5.4346035">
<ele>808.95</ele>
<time>2019-07-25T08:59:10Z</time>
</trkpt>
<trkpt lat="44.9906654" lon="5.4346088">
<ele>809.16</ele>
<time>2019-07-25T08:59:11Z</time>
</trkpt>
<trkpt lat="44.9906614" lon="5.4345987">
<ele>809.38</ele>
<time>2019-07-25T08:59:12Z</time>
</trkpt>
<trkpt lat="44.9906506" lon="5.4345919">
<ele>809.59</ele>
<time>2019-07-25T08:59:13Z</time>
</trkpt>
<trkpt lat="44.9906499" lon="5.4345906">
<ele>809.62</ele>
<time>2019-07-25T08:59:14Z</time>
</trkpt>
<trkpt lat="44.9906560" lon="5.4345808">
<ele>809.83</ele>
<time>2019-07-25T08:59:15Z</time>
</trkpt>
<trkpt lat="44.9906623" lon="5.4345751">
<ele>810.03</ele>
<time>2019-07-25T08:59:16Z</time>
</trkpt>
<trkpt lat="44.9906704" lon="5.4345654">
<ele>810.24</ele>
<time>2019-07-25T08:59:17Z</time>
</trkpt>
<trkpt lat="44.9906930" lon="5.4345366">
<ele>810.44</ele>
<time>2019-07-25T08:59:18Z</time>
</trkpt>
<trkpt lat="44.9906947" lon="5.4345358">
<ele>810.46</ele>
<time>2019-07-25T08:59:19Z</time>
</trkpt>
<trkpt lat="44.9907008" lon="5.4345312">
<ele>810.64</ele>
<time>2019-07-25T08:59:20Z</time>
</trkpt>
<trkpt lat="44.9906939" lon="5.4345456">
<ele>810.83</ele>
<time>2019-07-25T08:59:21Z</time>
</trkpt>
<trkpt lat="44.9907001" lon="5.4345372">
<ele>811.01</ele>
<time>2019-07-25T08:59:22Z</time>
</trkpt>
<trkpt lat="44.9907020" lon="5.4345366">
<ele>811.19</ele>
<time>2019-07-25T08:59:23Z</time>
</trkpt>
<trkpt lat="44.9907016" lon="5.4345370">
<ele>811.21</ele>
<time>2019-07-25T08:59:24Z</time>
</trkpt>
<trkpt lat="44.9906993" lon="5.4345412">
<ele>811.22</ele>
<time>2019-07-25T08:59:25Z</time>
</trkpt>
<trkpt lat="44.9906935" lon="5.4345451">
<ele>811.40</ele>
<time>2019-07-25T08:59:26Z</time>
</trkpt>
<trkpt lat="44.9906676" lon="5.4345603">
<ele>811.41</ele>
<time>2019-07-25T08:59:27Z</time>
</trkpt>
<trkpt lat="44.9906455" lon="5.4345808">
<ele>811.43</ele>
<time>2019-07-25T08:59:28Z</time>
</trkpt>
<trkpt lat="44.9906674" lon="5.4345486">
<ele>811.61</ele>
<time>2019-07-25T08:59:29Z</time>
</trkpt>
<trkpt lat="44.9906667" lon="5.4345513">
<ele>811.62</ele>
<time>2019-07-25T08:59:30Z</time>
</trkpt>
<trkpt lat="44.9906669" lon="5.4345514">
<ele>811.64</ele>
<time>2019-07-25T08:59:31Z</time>
</trkpt>
<trkpt lat="44.9906662" lon="5.4345522">
<ele>811.66</ele>
<time>2019-07-25T08:59:32Z</time>
</trkpt>
<trkpt lat="44.9906603" lon="5.4345624">
<ele>811.68</ele>
<time>2019-07-25T08:59:33Z</time>
</trkpt>
<trkpt lat="44.9906635" lon="5.4345638">
<ele>811.69</ele>
<time>2019-07-25T08:59:34Z</time>
</trkpt>
<trkpt lat="44.9906663" lon="5.4345467">
<ele>811.71</ele>
<time>2019-07-25T08:59:35Z</time>
</trkpt>
<trkpt lat="44.9906611" lon="5.4345290">
<ele>811.73</ele>
<time>2019-07-25T08:59:36Z</time>
</trkpt>
<trkpt lat="44.9906685" lon="5.4345094">
<ele>811.75</ele>
<time>2019-07-25T08:59:37Z</time>
</trkpt>
<trkpt lat="44.9906703" lon="5.4345029">
<ele>811.77</ele>
<time>2019-07-25T08:59:38Z</time>
</trkpt>
<trkpt lat="44.9906708" lon="5.4345007">
<ele>811.78</ele>
<time>2019-07-25T08:59:39Z</time>
</trkpt>
<trkpt lat="44.9906553" lon="5.4345155">
<ele>811.80</ele>
<time>2019-07-25T08:59:40Z</time>
</trkpt>
<trkpt lat="44.9906556" lon="5.4345157">
<ele>811.82</ele>
<time>2019-07-25T08:59:41Z</time>
</trkpt>
<trkpt lat="44.9906556" lon="5.4345159">
<ele>811.84</ele>
<time>2019-07-25T08:59:42Z</time>
</trkpt>
<trkpt lat="44.9906549" lon="5.4345160">
<ele>811.86</ele>
<time>2019-07-25T08:59:43Z</time>
</trkpt>
<trkpt lat="44.9906345" lon="5.4345258">
<ele>812.07</ele>
<time>2019-07-25T08:59:44Z</time>
</trkpt>
<trkpt lat="44.9906227" lon="5.4345375">
<ele>812.09</ele>
<time>2019-07-25T08:59:45Z</time>
</trkpt>
<trkpt lat="44.9906150" lon="5.4345373">
<ele>812.11</ele>
<time>2019-07-25T08:59:46Z</time>
</trkpt>
<trkpt lat="44.9906053" lon="5.4345402">
<ele>812.13</ele>
<time>2019-07-25T08:59:47Z</time>
</trkpt>
<trkpt lat="44.9906049" lon="5.4345408">
<ele>812.15</ele>
<time>2019-07-25T08:59:48Z</time>
</trkpt>
<trkpt lat="44.9906042" lon="5.4345419">
<ele>812.17</ele>
<time>2019-07-25T08:59:49Z</time>
</trkpt>
<trkpt lat="44.9906036" lon="5.4345428">
<ele>812.19</ele>
<time>2019-07-25T08:59:50Z</time>
</trkpt>
<trkpt lat="44.9906042" lon="5.4345407">
<ele>812.21</ele>
<time>2019-07-25T08:59:51Z</time>
</trkpt>
<trkpt lat="44.9905905" lon="5.4345579">
<ele>812.23</ele>
<time>2019-07-25T08:59:52Z</time>
</trkpt>
<trkpt lat="44.9905720" lon="5.4345796">
<ele>812.25</ele>
<time>2019-07-25T08:59:53Z</time>
</trkpt>
<trkpt lat="44.9905719" lon="5.4345754">
<ele>812.27</ele>
<time>2019-07-25T08:59:54Z</time>
</trkpt>
<trkpt lat="44.9905625" lon="5.4345869">
<ele>812.49</ele>
<time>2019-07-25T08:59:55Z</time>
</trkpt>
<trkpt lat="44.9905572" lon="5.4345908">
<ele>812.51</ele>
<time>2019-07-25T08:59:56Z</time>
</trkpt>
<trkpt lat="44.9905538" lon="5.4345941">
<ele>812.53</ele>
<time>2019-07-25T08:59:57Z</time>
</trkpt>
<trkpt lat="44.9905523" lon="5.4345956">
<ele>812.56</ele>
<time>2019-07-25T08:59:58Z</time>
</trkpt>
<trkpt lat="44.9905580" lon="5.4345867">
<ele>812.78</ele>
<time>2019-07-25T08:59:59Z</time>
</trkpt>
<trkpt lat="44.9905581" lon="5.4345864">
<ele>812.81</ele>
<time>2019-07-25T09:00:00Z</time>
</trkpt>
<trkpt lat="44.9905576" lon="5.4345873">
<ele>812.83</ele>
<time>2019-07-25T09:00:01Z</time>
</trkpt>
<trkpt lat="44.9905566" lon="5.4345893">
<ele>812.86</ele>
<time>2019-07-25T09:00:02Z</time>
</trkpt>
<trkpt lat="44.9905498" lon="5.4345964">
<ele>812.88</ele>
<time>2019-07-25T09:00:03Z</time>
</trkpt>
<trkpt lat="44.9905525" lon="5.4345824">
<ele>813.12</ele>
<time>2019-07-25T09:00:04Z</time>
</trkpt>
<trkpt lat="44.9905575" lon="5.4345931">
<ele>813.36</ele>
<time>2019-07-25T09:00:05Z</time>
</trkpt>
<trkpt lat="44.9905742" lon="5.4346120">
<ele>813.58</ele>
<time>2019-07-25T09:00:06Z</time>
</trkpt>
<trkpt lat="44.9905958" lon="5.4346041">
<ele>813.80</ele>
<time>2019-07-25T09:00:07Z</time>
</trkpt>
<trkpt lat="44.9905877" lon="5.4346064">
<ele>814.01</ele>
<time>2019-07-25T09:00:08Z</time>
</trkpt>
<trkpt lat="44.9905701" lon="5.4345818">
<ele>814.22</ele>
<time>2019-07-25T09:00:09Z</time>
</trkpt>
<trkpt lat="44.9905862" lon="5.4345811">
<ele>814.42</ele>
<time>2019-07-25T09:00:10Z</time>
</trkpt>
<trkpt lat="44.9905903" lon="5.4345937">
<ele>814.62</ele>
<time>2019-07-25T09:00:11Z</time>
</trkpt>
<trkpt lat="44.9905903" lon="5.4345919">
<ele>814.64</ele>
<time>2019-07-25T09:00:12Z</time>
</trkpt>
<trkpt lat="44.9905810" lon="5.4345881">
<ele>814.66</ele>
<time>2019-07-25T09:00:13Z</time>
</trkpt>
<trkpt lat="44.9905841" lon="5.4345970">
<ele>814.86</ele>
<time>2019-07-25T09:00:14Z</time>
</trkpt>
<trkpt lat="44.9905827" lon="5.4345951">
<ele>815.05</ele>
<time>2019-07-25T09:00:15Z</time>
</trkpt>
<trkpt lat="44.9906040" lon="5.4346085">
<ele>815.07</ele>
<time>2019-07-25T09:00:16Z</time>
</trkpt>
<trkpt lat="44.9906052" lon="5.4346095">
<ele>815.09</ele>
<time>2019-07-25T09:00:17Z</time>
</trkpt>
<trkpt lat="44.9906132" lon="5.4345904">
<ele>815.10</ele>
<time>2019-07-25T09:00:18Z</time>
</trkpt>
<trkpt lat="44.9906088" lon="5.4345790">
<ele>815.29</ele>
<time>2019-07-25T09:00:19Z</time>
</trkpt>
<trkpt lat="44.9906107" lon="5.4345749">
<ele>815.31</ele>
<time>2019-07-25T09:00:20Z</time>
</trkpt>
<trkpt lat="44.9906107" lon="5.4345740">
<ele>815.33</ele>
<time>2019-07-25T09:00:21Z</time>
</trkpt>
<trkpt lat="44.9906110" lon="5.4345732">
<ele>815.35</ele>
<time>2019-07-25T09:00:22Z</time>
</trkpt>
<trkpt lat="44.9906107" lon="5.4345730">
<ele>815.37</ele>
<time>2019-07-25T09:00:23Z</time>
</trkpt>
<trkpt lat="44.9906111" lon="5.4345733">
<ele>815.39</ele>
<time>2019-07-25T09:00:24Z</time>
</trkpt>
<trkpt lat="44.9906120" lon="5.4345734">
<ele>815.40</ele>
<time>2019-07-25T09:00:25Z</time>
</trkpt>
<trkpt lat="44.9906112" lon="5.4345738">
<ele>815.42</ele>
<time>2019-07-25T09:00:26Z</time>
</trkpt>
<trkpt lat="44.9906104" lon="5.4345744">
<ele>815.44</ele>
<time>2019-07-25T09:00:27Z</time>
</trkpt>
<trkpt lat="44.9906103" lon="5.4345722">
<ele>815.46</ele>
<time>2019-07-25T09:00:28Z</time>
</trkpt>
<trkpt lat="44.9906113" lon="5.4345731">
<ele>815.47</ele>
<time>2019-07-25T09:00:29Z</time>
</trkpt>
<trkpt lat="44.9906150" lon="5.4345762">
<ele>815.63</ele>
<time>2019-07-25T09:00:30Z</time>
</trkpt>
<trkpt lat="44.9906195" lon="5.4345734">
<ele>815.64</ele>
<time>2019-07-25T09:00:31Z</time>
</trkpt>
<trkpt lat="44.9906180" lon="5.4345807">
<ele>815.79</ele>
<time>2019-07-25T09:00:32Z</time>
</trkpt>
<trkpt lat="44.9906052" lon="5.4345792">
<ele>815.93</ele>
<time>2019-07-25T09:00:33Z</time>
</trkpt>
<trkpt lat="44.9905747" lon="5.4345928">
<ele>816.07</ele>
<time>2019-07-25T09:00:34Z</time>
</trkpt>
<trkpt lat="44.9905677" lon="5.4346014">
<ele>816.21</ele>
<time>2019-07-25T09:00:35Z</time>
</trkpt>
<trkpt lat="44.9905480" lon="5.4346054">
<ele>816.33</ele>
<time>2019-07-25T09:00:36Z</time>
</trkpt>
<trkpt lat="44.9905304" lon="5.4346078">
<ele>816.45</ele>
<time>2019-07-25T09:00:37Z</time>
</trkpt>
<trkpt lat="44.9905071" lon="5.4346105">
<ele>816.57</ele>
<time>2019-07-25T09:00:38Z</time>
</trkpt>
<trkpt lat="44.9904874" lon="5.4345845">
<ele>816.68</ele>
<time>2019-07-25T09:00:39Z</time>
</trkpt>
<trkpt lat="44.9904894" lon="5.4345906">
<ele>816.77</ele>
<time>2019-07-25T09:00:40Z</time>
</trkpt>
<trkpt lat="44.9904669" lon="5.4346008">
<ele>816.86</ele>
<time>2019-07-25T09:00:41Z</time>
</trkpt>
<trkpt lat="44.9904466" lon="5.4346068">
<ele>816.95</ele>
<time>2019-07-25T09:00:42Z</time>
</trkpt>
<trkpt lat="44.9904287" lon="5.4346106">
<ele>817.03</ele>
<time>2019-07-25T09:00:43Z</time>
</trkpt>
<trkpt lat="44.9904088" lon="5.4346369">
<ele>817.12</ele>
<time>2019-07-25T09:00:44Z</time>
</trkpt>
<trkpt lat="44.9903825" lon="5.4346462">
<ele>817.20</ele>
<time>2019-07-25T09:00:45Z</time>
</trkpt>
<trkpt lat="44.9903361" lon="5.4346322">
<ele>817.27</ele>
<time>2019-07-25T09:00:46Z</time>
</trkpt>
<trkpt lat="44.9902972" lon="5.4346299">
<ele>817.35</ele>
<time>2019-07-25T09:00:47Z</time>
</trkpt>
<trkpt lat="44.9902676" lon="5.4346417">
<ele>817.43</ele>
<time>2019-07-25T09:00:48Z</time>
</trkpt>
<trkpt lat="44.9902486" lon="5.4346626">
<ele>817.50</ele>
<time>2019-07-25T09:00:49Z</time>
</trkpt>
<trkpt lat="44.9902116" lon="5.4346663">
<ele>817.58</ele>
<time>2019-07-25T09:00:50Z</time>
</trkpt>
<trkpt lat="44.9901934" lon="5.4346715">
<ele>817.64</ele>
<time>2019-07-25T09:00:51Z</time>
</trkpt>
<trkpt lat="44.9901689" lon="5.4346699">
<ele>817.70</ele>
<time>2019-07-25T09:00:52Z</time>
</trkpt>
<trkpt lat="44.9901591" lon="5.4346635">
<ele>817.75</ele>
<time>2019-07-25T09:00:53Z</time>
</trkpt>
<trkpt lat="44.9901370" lon="5.4346648">
<ele>817.79</ele>
<time>2019-07-25T09:00:54Z</time>
</trkpt>
<trkpt lat="44.9901069" lon="5.4346679">
<ele>817.82</ele>
<time>2019-07-25T09:00:55Z</time>
</trkpt>
<trkpt lat="44.9900770" lon="5.4346635">
<ele>817.85</ele>
<time>2019-07-25T09:00:56Z</time>
</trkpt>
<trkpt lat="44.9900635" lon="5.4346668">
<ele>817.87</ele>
<time>2019-07-25T09:00:57Z</time>
</trkpt>
<trkpt lat="44.9900388" lon="5.4346693">
<ele>817.89</ele>
<time>2019-07-25T09:00:58Z</time>
</trkpt>
<trkpt lat="44.9900196" lon="5.4346661">
<ele>817.90</ele>
<time>2019-07-25T09:00:59Z</time>
</trkpt>
<trkpt lat="44.9899913" lon="5.4346628">
<ele>817.91</ele>
<time>2019-07-25T09:01:00Z</time>
</trkpt>
<trkpt lat="44.9899519" lon="5.4346557">
<ele>817.91</ele>
<time>2019-07-25T09:01:01Z</time>
</trkpt>
<trkpt lat="44.9899135" lon="5.4346475">
<ele>817.90</ele>
<time>2019-07-25T09:01:02Z</time>
</trkpt>
<trkpt lat="44.9898999" lon="5.4346443">
<ele>817.88</ele>
<time>2019-07-25T09:01:03Z</time>
</trkpt>
<trkpt lat="44.9898776" lon="5.4346443">
<ele>817.86</ele>
<time>2019-07-25T09:01:04Z</time>
</trkpt>
<trkpt lat="44.9898493" lon="5.4346162">
<ele>817.83</ele>
<time>2019-07-25T09:01:05Z</time>
</trkpt>
<trkpt lat="44.9898190" lon="5.4345693">
<ele>817.81</ele>
<time>2019-07-25T09:01:06Z</time>
</trkpt>
<trkpt lat="44.9898058" lon="5.4345450">
<ele>817.77</ele>
<time>2019-07-25T09:01:07Z</time>
</trkpt>
<trkpt lat="44.9897903" lon="5.4345464">
<ele>817.74</ele>
<time>2019-07-25T09:01:08Z</time>
</trkpt>
<trkpt lat="44.9897598" lon="5.4345406">
<ele>817.70</ele>
<time>2019-07-25T09:01:09Z</time>
</trkpt>
<trkpt lat="44.9897237" lon="5.4345438">
<ele>817.68</ele>
<time>2019-07-25T09:01:10Z</time>
</trkpt>
<trkpt lat="44.9896941" lon="5.4345377">
<ele>817.64</ele>
<time>2019-07-25T09:01:11Z</time>
</trkpt>
<trkpt lat="44.9896647" lon="5.4345269">
<ele>817.60</ele>
<time>2019-07-25T09:01:12Z</time>
</trkpt>
<trkpt lat="44.9896472" lon="5.4345193">
<ele>817.56</ele>
<time>2019-07-25T09:01:13Z</time>
</trkpt>
<trkpt lat="44.9896290" lon="5.4345144">
<ele>817.52</ele>
<time>2019-07-25T09:01:14Z</time>
</trkpt>
<trkpt lat="44.9895967" lon="5.4344976">
<ele>817.47</ele>
<time>2019-07-25T09:01:15Z</time>
</trkpt>
<trkpt lat="44.9895829" lon="5.4344898">
<ele>817.42</ele>
<time>2019-07-25T09:01:16Z</time>
</trkpt>
<trkpt lat="44.9895591" lon="5.4344742">
<ele>817.37</ele>
<time>2019-07-25T09:01:17Z</time>
</trkpt>
<trkpt lat="44.9895363" lon="5.4344631">
<ele>817.32</ele>
<time>2019-07-25T09:01:18Z</time>
</trkpt>
<trkpt lat="44.9895212" lon="5.4344719">
<ele>817.28</ele>
<time>2019-07-25T09:01:19Z</time>
</trkpt>
<trkpt lat="44.9894800" lon="5.4344507">
<ele>817.23</ele>
<time>2019-07-25T09:01:20Z</time>
</trkpt>
<trkpt lat="44.9894590" lon="5.4344642">
<ele>817.19</ele>
<time>2019-07-25T09:01:21Z</time>
</trkpt>
<trkpt lat="44.9894538" lon="5.4344820">
<ele>817.15</ele>
<time>2019-07-25T09:01:22Z</time>
</trkpt>
<trkpt lat="44.9894337" lon="5.4345079">
<ele>817.11</ele>
<time>2019-07-25T09:01:23Z</time>
</trkpt>
<trkpt lat="44.9894239" lon="5.4344820">
<ele>817.08</ele>
<time>2019-07-25T09:01:24Z</time>
</trkpt>
<trkpt lat="44.9894018" lon="5.4344546">
<ele>817.04</ele>
<time>2019-07-25T09:01:25Z</time>
</trkpt>
<trkpt lat="44.9893614" lon="5.4344574">
<ele>817.00</ele>
<time>2019-07-25T09:01:26Z</time>
</trkpt>
<trkpt lat="44.9893324" lon="5.4344695">
<ele>816.97</ele>
<time>2019-07-25T09:01:27Z</time>
</trkpt>
<trkpt lat="44.9893238" lon="5.4345186">
<ele>816.95</ele>
<time>2019-07-25T09:01:28Z</time>
</trkpt>
<trkpt lat="44.9892953" lon="5.4345235">
<ele>816.93</ele>
<time>2019-07-25T09:01:29Z</time>
</trkpt>
<trkpt lat="44.9892788" lon="5.4345310">
<ele>816.92</ele>
<time>2019-07-25T09:01:30Z</time>
</trkpt>
<trkpt lat="44.9892607" lon="5.4345381">
<ele>816.92</ele>
<time>2019-07-25T09:01:31Z</time>
</trkpt>
<trkpt lat="44.9892334" lon="5.4345414">
<ele>816.91</ele>
<time>2019-07-25T09:01:32Z</time>
</trkpt>
<trkpt lat="44.9892080" lon="5.4345210">
<ele>816.89</ele>
<time>2019-07-25T09:01:33Z</time>
</trkpt>
<trkpt lat="44.9891731" lon="5.4345182">
<ele>816.88</ele>
<time>2019-07-25T09:01:34Z</time>
</trkpt>
<trkpt lat="44.9891381" lon="5.4345131">
<ele>816.88</ele>
<time>2019-07-25T09:01:35Z</time>
</trkpt>
<trkpt lat="44.9891088" lon="5.4344992">
<ele>816.90</ele>
<time>2019-07-25T09:01:36Z</time>
</trkpt>
<trkpt lat="44.9890962" lon="5.4345071">
<ele>816.93</ele>
<time>2019-07-25T09:01:37Z</time>
</trkpt>
<trkpt lat="44.9890852" lon="5.4345029">
<ele>816.97</ele>
<time>2019-07-25T09:01:38Z</time>
</trkpt>
<trkpt lat="44.9890703" lon="5.4345091">
<ele>817.01</ele>
<time>2019-07-25T09:01:39Z</time>
</trkpt>
<trkpt lat="44.9890397" lon="5.4345172">
<ele>817.05</ele>
<time>2019-07-25T09:01:40Z</time>
</trkpt>
<trkpt lat="44.9890133" lon="5.4345153">
<ele>817.09</ele>
<time>2019-07-25T09:01:41Z</time>
</trkpt>
<trkpt lat="44.9889835" lon="5.4344976">
<ele>817.13</ele>
<time>2019-07-25T09:01:42Z</time>
</trkpt>
<trkpt lat="44.9889536" lon="5.4344879">
<ele>817.17</ele>
<time>2019-07-25T09:01:43Z</time>
</trkpt>
<trkpt lat="44.9889311" lon="5.4344757">
<ele>817.21</ele>
<time>2019-07-25T09:01:44Z</time>
</trkpt>
<trkpt lat="44.9889130" lon="5.4344741">
<ele>817.24</ele>
<time>2019-07-25T09:01:45Z</time>
</trkpt>
<trkpt lat="44.9888868" lon="5.4344760">
<ele>817.27</ele>
<time>2019-07-25T09:01:46Z</time>
</trkpt>
<trkpt lat="44.9888584" lon="5.4344764">
<ele>817.31</ele>
<time>2019-07-25T09:01:47Z</time>
</trkpt>
<trkpt lat="44.9888304" lon="5.4344739">
<ele>817.35</ele>
<time>2019-07-25T09:01:48Z</time>
</trkpt>
<trkpt lat="44.9888080" lon="5.4344579">
<ele>817.38</ele>
<time>2019-07-25T09:01:49Z</time>
</trkpt>
<trkpt lat="44.9887908" lon="5.4344500">
<ele>817.40</ele>
<time>2019-07-25T09:01:50Z</time>
</trkpt>
<trkpt lat="44.9887802" lon="5.4344561">
<ele>817.43</ele>
<time>2019-07-25T09:01:51Z</time>
</trkpt>
<trkpt lat="44.9887543" lon="5.4344611">
<ele>817.45</ele>
<time>2019-07-25T09:01:52Z</time>
</trkpt>
<trkpt lat="44.9887299" lon="5.4344460">
<ele>817.46</ele>
<time>2019-07-25T09:01:53Z</time>
</trkpt>
<trkpt lat="44.9886835" lon="5.4344759">
<ele>817.47</ele>
<time>2019-07-25T09:01:54Z</time>
</trkpt>
<trkpt lat="44.9886446" lon="5.4344532">
<ele>817.50</ele>
<time>2019-07-25T09:01:55Z</time>
</trkpt>
<trkpt lat="44.9885823" lon="5.4344304">
<ele>817.55</ele>
<time>2019-07-25T09:01:56Z</time>
</trkpt>
<trkpt lat="44.9885160" lon="5.4344097">
<ele>817.59</ele>
<time>2019-07-25T09:01:57Z</time>
</trkpt>
<trkpt lat="44.9884998" lon="5.4343917">
<ele>817.64</ele>
<time>2019-07-25T09:01:58Z</time>
</trkpt>
<trkpt lat="44.9884710" lon="5.4344063">
<ele>817.69</ele>
<time>2019-07-25T09:01:59Z</time>
</trkpt>
<trkpt lat="44.9884624" lon="5.4343799">
<ele>817.73</ele>
<time>2019-07-25T09:02:00Z</time>
</trkpt>
<trkpt lat="44.9884473" lon="5.4343638">
<ele>817.76</ele>
<time>2019-07-25T09:02:01Z</time>
</trkpt>
<trkpt lat="44.9884159" lon="5.4343449">
<ele>817.78</ele>
<time>2019-07-25T09:02:02Z</time>
</trkpt>
<trkpt lat="44.9883971" lon="5.4343437">
<ele>817.80</ele>
<time>2019-07-25T09:02:03Z</time>
</trkpt>
<trkpt lat="44.9883767" lon="5.4343393">
<ele>817.83</ele>
<time>2019-07-25T09:02:04Z</time>
</trkpt>
<trkpt lat="44.9883632" lon="5.4343279">
<ele>817.86</ele>
<time>2019-07-25T09:02:05Z</time>
</trkpt>
<trkpt lat="44.9883407" lon="5.4343215">
<ele>817.91</ele>
<time>2019-07-25T09:02:06Z</time>
</trkpt>
<trkpt lat="44.9883162" lon="5.4343141">
<ele>817.97</ele>
<time>2019-07-25T09:02:07Z</time>
</trkpt>
<trkpt lat="44.9882863" lon="5.4343063">
<ele>818.04</ele>
<time>2019-07-25T09:02:08Z</time>
</trkpt>
<trkpt lat="44.9882703" lon="5.4343007">
<ele>818.09</ele>
<time>2019-07-25T09:02:09Z</time>
</trkpt>
<trkpt lat="44.9882548" lon="5.4342899">
<ele>818.14</ele>
<time>2019-07-25T09:02:10Z</time>
</trkpt>
<trkpt lat="44.9882304" lon="5.4342750">
<ele>818.18</ele>
<time>2019-07-25T09:02:11Z</time>
</trkpt>
<trkpt lat="44.9882113" lon="5.4342668">
<ele>818.23</ele>
<time>2019-07-25T09:02:12Z</time>
</trkpt>
<trkpt lat="44.9881867" lon="5.4342547">
<ele>818.29</ele>
<time>2019-07-25T09:02:13Z</time>
</trkpt>
<trkpt lat="44.9881592" lon="5.4342465">
<ele>818.36</ele>
<time>2019-07-25T09:02:14Z</time>
</trkpt>
<trkpt lat="44.9881306" lon="5.4342428">
<ele>818.43</ele>
<time>2019-07-25T09:02:15Z</time>
</trkpt>
<trkpt lat="44.9880998" lon="5.4342451">
<ele>818.48</ele>
<time>2019-07-25T09:02:16Z</time>
</trkpt>
<trkpt lat="44.9880713" lon="5.4342455">
<ele>818.53</ele>
<time>2019-07-25T09:02:17Z</time>
</trkpt>
<trkpt lat="44.9880519" lon="5.4342393">
<ele>818.56</ele>
<time>2019-07-25T09:02:18Z</time>
</trkpt>
<trkpt lat="44.9880199" lon="5.4342210">
<ele>818.58</ele>
<time>2019-07-25T09:02:19Z</time>
</trkpt>
<trkpt lat="44.9879922" lon="5.4342179">
<ele>818.58</ele>
<time>2019-07-25T09:02:20Z</time>
</trkpt>
<trkpt lat="44.9879695" lon="5.4342154">
<ele>818.57</ele>
<time>2019-07-25T09:02:21Z</time>
</trkpt>
<trkpt lat="44.9879530" lon="5.4342184">
<ele>818.55</ele>
<time>2019-07-25T09:02:22Z</time>
</trkpt>
<trkpt lat="44.9879268" lon="5.4342103">
<ele>818.53</ele>
<time>2019-07-25T09:02:23Z</time>
</trkpt>
<trkpt lat="44.9878987" lon="5.4342024">
<ele>818.52</ele>
<time>2019-07-25T09:02:24Z</time>
</trkpt>
<trkpt lat="44.9878729" lon="5.4341948">
<ele>818.53</ele>
<time>2019-07-25T09:02:25Z</time>
</trkpt>
<trkpt lat="44.9878507" lon="5.4341899">
<ele>818.54</ele>
<time>2019-07-25T09:02:26Z</time>
</trkpt>
<trkpt lat="44.9878264" lon="5.4341836">
<ele>818.57</ele>
<time>2019-07-25T09:02:27Z</time>
</trkpt>
<trkpt lat="44.9877976" lon="5.4341734">
<ele>818.60</ele>
<time>2019-07-25T09:02:28Z</time>
</trkpt>
<trkpt lat="44.9877843" lon="5.4341618">
<ele>818.63</ele>
<time>2019-07-25T09:02:29Z</time>
</trkpt>
<trkpt lat="44.9877593" lon="5.4341526">
<ele>818.65</ele>
<time>2019-07-25T09:02:30Z</time>
</trkpt>
<trkpt lat="44.9877531" lon="5.4341426">
<ele>818.68</ele>
<time>2019-07-25T09:02:31Z</time>
</trkpt>
<trkpt lat="44.9877327" lon="5.4341482">
<ele>818.70</ele>
<time>2019-07-25T09:02:32Z</time>
</trkpt>
<trkpt lat="44.9877221" lon="5.4341512">
<ele>818.72</ele>
<time>2019-07-25T09:02:33Z</time>
</trkpt>
<trkpt lat="44.9877016" lon="5.4341488">
<ele>818.74</ele>
<time>2019-07-25T09:02:34Z</time>
</trkpt>
<trkpt lat="44.9876909" lon="5.4341626">
<ele>818.74</ele>
<time>2019-07-25T09:02:35Z</time>
</trkpt>
<trkpt lat="44.9876640" lon="5.4341541">
<ele>818.74</ele>
<time>2019-07-25T09:02:36Z</time>
</trkpt>
<trkpt lat="44.9876300" lon="5.4341594">
<ele>818.74</ele>
<time>2019-07-25T09:02:37Z</time>
</trkpt>
<trkpt lat="44.9875827" lon="5.4341428">
<ele>818.75</ele>
<time>2019-07-25T09:02:38Z</time>
</trkpt>
<trkpt lat="44.9875738" lon="5.4341294">
<ele>818.76</ele>
<time>2019-07-25T09:02:39Z</time>
</trkpt>
<trkpt lat="44.9875500" lon="5.4340745">
<ele>818.78</ele>
<time>2019-07-25T09:02:40Z</time>
</trkpt>
<trkpt lat="44.9875171" lon="5.4340882">
<ele>818.80</ele>
<time>2019-07-25T09:02:41Z</time>
</trkpt>
<trkpt lat="44.9874920" lon="5.4340976">
<ele>818.82</ele>
<time>2019-07-25T09:02:42Z</time>
</trkpt>
<trkpt lat="44.9874616" lon="5.4340772">
<ele>818.84</ele>
<time>2019-07-25T09:02:43Z</time>
</trkpt>
<trkpt lat="44.9874436" lon="5.4340442">
<ele>818.87</ele>
<time>2019-07-25T09:02:44Z</time>
</trkpt>
<trkpt lat="44.9874211" lon="5.4340388">
<ele>818.91</ele>
<time>2019-07-25T09:02:45Z</time>
</trkpt>
<trkpt lat="44.9874311" lon="5.4340249">
<ele>818.96</ele>
<time>2019-07-25T09:02:46Z</time>
</trkpt>
<trkpt lat="44.9874221" lon="5.4340144">
<ele>819.00</ele>
<time>2019-07-25T09:02:47Z</time>
</trkpt>
<trkpt lat="44.9874135" lon="5.4340166">
<ele>819.04</ele>
<time>2019-07-25T09:02:48Z</time>
</trkpt>
<trkpt lat="44.9873769" lon="5.4340265">
<ele>819.10</ele>
<time>2019-07-25T09:02:49Z</time>
</trkpt>
<trkpt lat="44.9873519" lon="5.4340324">
<ele>819.17</ele>
<time>2019-07-25T09:02:50Z</time>
</trkpt>
<trkpt lat="44.9873125" lon="5.4340352">
<ele>819.24</ele>
<time>2019-07-25T09:02:51Z</time>
</trkpt>
<trkpt lat="44.9872617" lon="5.4340343">
<ele>819.33</ele>
<time>2019-07-25T09:02:52Z</time>
</trkpt>
<trkpt lat="44.9872410" lon="5.4340319">
<ele>819.42</ele>
<time>2019-07-25T09:02:53Z</time>
</trkpt>
<trkpt lat="44.9872011" lon="5.4340319">
<ele>819.52</ele>
<time>2019-07-25T09:02:54Z</time>
</trkpt>
<trkpt lat="44.9872101" lon="5.4340507">
<ele>819.62</ele>
<time>2019-07-25T09:02:55Z</time>
</trkpt>
<trkpt lat="44.9871749" lon="5.4340344">
<ele>819.73</ele>
<time>2019-07-25T09:02:56Z</time>
</trkpt>
<trkpt lat="44.9871519" lon="5.4340385">
<ele>819.84</ele>
<time>2019-07-25T09:02:57Z</time>
</trkpt>
<trkpt lat="44.9871335" lon="5.4340481">
<ele>819.96</ele>
<time>2019-07-25T09:02:58Z</time>
</trkpt>
<trkpt lat="44.9871029" lon="5.4340313">
<ele>820.05</ele>
<time>2019-07-25T09:02:59Z</time>
</trkpt>
<trkpt lat="44.9870771" lon="5.4340292">
<ele>820.18</ele>
<time>2019-07-25T09:03:00Z</time>
</trkpt>
<trkpt lat="44.9870496" lon="5.4340200">
<ele>820.33</ele>
<time>2019-07-25T09:03:01Z</time>
</trkpt>
<trkpt lat="44.9870311" lon="5.4340309">
<ele>820.47</ele>
<time>2019-07-25T09:03:02Z</time>
</trkpt>
<trkpt lat="44.9870113" lon="5.4340247">
<ele>820.61</ele>
<time>2019-07-25T09:03:03Z</time>
</trkpt>
<trkpt lat="44.9869936" lon="5.4340243">
<ele>820.75</ele>
<time>2019-07-25T09:03:04Z</time>
</trkpt>
<trkpt lat="44.9869721" lon="5.4340211">
<ele>820.89</ele>
<time>2019-07-25T09:03:05Z</time>
</trkpt>
<trkpt lat="44.9869449" lon="5.4340184">
<ele>821.03</ele>
<time>2019-07-25T09:03:06Z</time>
</trkpt>
<trkpt lat="44.9869309" lon="5.4340109">
<ele>821.14</ele>
<time>2019-07-25T09:03:07Z</time>
</trkpt>
<trkpt lat="44.9869188" lon="5.4340026">
<ele>821.24</ele>
<time>2019-07-25T09:03:08Z</time>
</trkpt>
<trkpt lat="44.9868927" lon="5.4340101">
<ele>821.35</ele>
<time>2019-07-25T09:03:09Z</time>
</trkpt>
<trkpt lat="44.9868718" lon="5.4340169">
<ele>821.48</ele>
<time>2019-07-25T09:03:10Z</time>
</trkpt>
<trkpt lat="44.9868512" lon="5.4340106">
<ele>821.59</ele>
<time>2019-07-25T09:03:11Z</time>
</trkpt>
<trkpt lat="44.9868247" lon="5.4340058">
<ele>821.70</ele>
<time>2019-07-25T09:03:12Z</time>
</trkpt>
<trkpt lat="44.9868002" lon="5.4339984">
<ele>821.80</ele>
<time>2019-07-25T09:03:13Z</time>
</trkpt>
<trkpt lat="44.9867800" lon="5.4340010">
<ele>821.92</ele>
<time>2019-07-25T09:03:14Z</time>
</trkpt>
<trkpt lat="44.9867624" lon="5.4340006">
<ele>822.04</ele>
<time>2019-07-25T09:03:15Z</time>
</trkpt>
<trkpt lat="44.9867365" lon="5.4339905">
<ele>822.18</ele>
<time>2019-07-25T09:03:16Z</time>
</trkpt>
<trkpt lat="44.9867083" lon="5.4339821">
<ele>822.30</ele>
<time>2019-07-25T09:03:17Z</time>
</trkpt>
<trkpt lat="44.9866705" lon="5.4339769">
<ele>822.45</ele>
<time>2019-07-25T09:03:18Z</time>
</trkpt>
<trkpt lat="44.9866363" lon="5.4339772">
<ele>822.60</ele>
<time>2019-07-25T09:03:19Z</time>
</trkpt>
<trkpt lat="44.9865975" lon="5.4339779">
<ele>822.78</ele>
<time>2019-07-25T09:03:20Z</time>
</trkpt>
<trkpt lat="44.9865557" lon="5.4339786">
<ele>822.97</ele>
<time>2019-07-25T09:03:21Z</time>
</trkpt>
<trkpt lat="44.9865265" lon="5.4339793">
<ele>823.15</ele>
<time>2019-07-25T09:03:22Z</time>
</trkpt>
<trkpt lat="44.9865016" lon="5.4339719">
<ele>823.32</ele>
<time>2019-07-25T09:03:23Z</time>
</trkpt>
<trkpt lat="44.9864662" lon="5.4339621">
<ele>823.48</ele>
<time>2019-07-25T09:03:24Z</time>
</trkpt>
<trkpt lat="44.9864518" lon="5.4339608">
<ele>823.64</ele>
<time>2019-07-25T09:03:25Z</time>
</trkpt>
<trkpt lat="44.9864335" lon="5.4339711">
<ele>823.79</ele>
<time>2019-07-25T09:03:26Z</time>
</trkpt>
<trkpt lat="44.9864144" lon="5.4339620">
<ele>823.94</ele>
<time>2019-07-25T09:03:27Z</time>
</trkpt>
<trkpt lat="44.9863640" lon="5.4339523">
<ele>824.09</ele>
<time>2019-07-25T09:03:28Z</time>
</trkpt>
<trkpt lat="44.9863347" lon="5.4339042">
<ele>824.24</ele>
<time>2019-07-25T09:03:29Z</time>
</trkpt>
<trkpt lat="44.9863098" lon="5.4339068">
<ele>824.39</ele>
<time>2019-07-25T09:03:30Z</time>
</trkpt>
<trkpt lat="44.9863164" lon="5.4338821">
<ele>824.50</ele>
<time>2019-07-25T09:03:31Z</time>
</trkpt>
<trkpt lat="44.9863078" lon="5.4338697">
<ele>824.59</ele>
<time>2019-07-25T09:03:32Z</time>
</trkpt>
<trkpt lat="44.9862842" lon="5.4338703">
<ele>824.66</ele>
<time>2019-07-25T09:03:33Z</time>
</trkpt>
<trkpt lat="44.9862623" lon="5.4338711">
<ele>824.71</ele>
<time>2019-07-25T09:03:34Z</time>
</trkpt>
<trkpt lat="44.9862461" lon="5.4338674">
<ele>824.75</ele>
<time>2019-07-25T09:03:35Z</time>
</trkpt>
<trkpt lat="44.9862220" lon="5.4338705">
<ele>824.82</ele>
<time>2019-07-25T09:03:36Z</time>
</trkpt>
<trkpt lat="44.9861987" lon="5.4338784">
<ele>824.90</ele>
<time>2019-07-25T09:03:37Z</time>
</trkpt>
<trkpt lat="44.9861860" lon="5.4338721">
<ele>824.97</ele>
<time>2019-07-25T09:03:38Z</time>
</trkpt>
<trkpt lat="44.9861698" lon="5.4338720">
<ele>825.04</ele>
<time>2019-07-25T09:03:39Z</time>
</trkpt>
<trkpt lat="44.9861492" lon="5.4338688">
<ele>825.12</ele>
<time>2019-07-25T09:03:40Z</time>
</trkpt>
<trkpt lat="44.9861288" lon="5.4338712">
<ele>825.19</ele>
<time>2019-07-25T09:03:41Z</time>
</trkpt>
<trkpt lat="44.9861118" lon="5.4338671">
<ele>825.28</ele>
<time>2019-07-25T09:03:42Z</time>
</trkpt>
<trkpt lat="44.9860921" lon="5.4338579">
<ele>825.36</ele>
<time>2019-07-25T09:03:43Z</time>
</trkpt>
<trkpt lat="44.9860634" lon="5.4338461">
<ele>825.43</ele>
<time>2019-07-25T09:03:44Z</time>
</trkpt>
<trkpt lat="44.9860428" lon="5.4338427">
<ele>825.50</ele>
<time>2019-07-25T09:03:45Z</time>
</trkpt>
<trkpt lat="44.9860206" lon="5.4338371">
<ele>825.58</ele>
<time>2019-07-25T09:03:46Z</time>
</trkpt>
<trkpt lat="44.9860076" lon="5.4338279">
<ele>825.65</ele>
<time>2019-07-25T09:03:47Z</time>
</trkpt>
<trkpt lat="44.9859910" lon="5.4338192">
<ele>825.72</ele>
<time>2019-07-25T09:03:48Z</time>
</trkpt>
<trkpt lat="44.9859723" lon="5.4338133">
<ele>825.77</ele>
<time>2019-07-25T09:03:49Z</time>
</trkpt>
<trkpt lat="44.9859607" lon="5.4338075">
<ele>825.84</ele>
<time>2019-07-25T09:03:50Z</time>
</trkpt>
<trkpt lat="44.9859508" lon="5.4338004">
<ele>825.91</ele>
<time>2019-07-25T09:03:51Z</time>
</trkpt>
<trkpt lat="44.9859322" lon="5.4338064">
<ele>825.96</ele>
<time>2019-07-25T09:03:52Z</time>
</trkpt>
<trkpt lat="44.9859135" lon="5.4338035">
<ele>825.99</ele>
<time>2019-07-25T09:03:53Z</time>
</trkpt>
<trkpt lat="44.9858955" lon="5.4338113">
<ele>826.01</ele>
<time>2019-07-25T09:03:54Z</time>
</trkpt>
<trkpt lat="44.9858851" lon="5.4338110">
<ele>826.02</ele>
<time>2019-07-25T09:03:55Z</time>
</trkpt>
<trkpt lat="44.9858661" lon="5.4338052">
<ele>826.04</ele>
<time>2019-07-25T09:03:56Z</time>
</trkpt>
<trkpt lat="44.9858452" lon="5.4338079">
<ele>826.06</ele>
<time>2019-07-25T09:03:57Z</time>
</trkpt>
<trkpt lat="44.9858416" lon="5.4338068">
<ele>826.08</ele>
<time>2019-07-25T09:03:58Z</time>
</trkpt>
<trkpt lat="44.9858333" lon="5.4338169">
<ele>826.10</ele>
<time>2019-07-25T09:03:59Z</time>
</trkpt>
<trkpt lat="44.9858167" lon="5.4338183">
<ele>826.12</ele>
<time>2019-07-25T09:04:00Z</time>
</trkpt>
<trkpt lat="44.9858028" lon="5.4338236">
<ele>826.14</ele>
<time>2019-07-25T09:04:01Z</time>
</trkpt>
<trkpt lat="44.9857860" lon="5.4338236">
<ele>826.17</ele>
<time>2019-07-25T09:04:02Z</time>
</trkpt>
<trkpt lat="44.9857700" lon="5.4338113">
<ele>826.21</ele>
<time>2019-07-25T09:04:03Z</time>
</trkpt>
<trkpt lat="44.9857540" lon="5.4338071">
<ele>826.31</ele>
<time>2019-07-25T09:04:04Z</time>
</trkpt>
<trkpt lat="44.9857382" lon="5.4338070">
<ele>826.42</ele>
<time>2019-07-25T09:04:05Z</time>
</trkpt>
<trkpt lat="44.9857296" lon="5.4337989">
<ele>826.52</ele>
<time>2019-07-25T09:04:06Z</time>
</trkpt>
<trkpt lat="44.9857075" lon="5.4337938">
<ele>826.61</ele>
<time>2019-07-25T09:04:07Z</time>
</trkpt>
<trkpt lat="44.9856832" lon="5.4337858">
<ele>826.69</ele>
<time>2019-07-25T09:04:08Z</time>
</trkpt>
<trkpt lat="44.9856713" lon="5.4337814">
<ele>826.76</ele>
<time>2019-07-25T09:04:09Z</time>
</trkpt>
<trkpt lat="44.9856602" lon="5.4337817">
<ele>826.85</ele>
<time>2019-07-25T09:04:10Z</time>
</trkpt>
<trkpt lat="44.9856456" lon="5.4337825">
<ele>826.95</ele>
<time>2019-07-25T09:04:11Z</time>
</trkpt>
<trkpt lat="44.9856381" lon="5.4337922">
<ele>827.06</ele>
<time>2019-07-25T09:04:12Z</time>
</trkpt>
<trkpt lat="44.9856170" lon="5.4337804">
<ele>827.14</ele>
<time>2019-07-25T09:04:13Z</time>
</trkpt>
<trkpt lat="44.9855959" lon="5.4337900">
<ele>827.23</ele>
<time>2019-07-25T09:04:14Z</time>
</trkpt>
<trkpt lat="44.9855743" lon="5.4338042">
<ele>827.31</ele>
<time>2019-07-25T09:04:15Z</time>
</trkpt>
<trkpt lat="44.9855429" lon="5.4338055">
<ele>827.41</ele>
<time>2019-07-25T09:04:16Z</time>
</trkpt>
<trkpt lat="44.9854873" lon="5.4338087">
<ele>827.53</ele>
<time>2019-07-25T09:04:17Z</time>
</trkpt>
<trkpt lat="44.9854527" lon="5.4338002">
<ele>827.67</ele>
<time>2019-07-25T09:04:18Z</time>
</trkpt>
<trkpt lat="44.9854214" lon="5.4338202">
<ele>827.80</ele>
<time>2019-07-25T09:04:19Z</time>
</trkpt>
<trkpt lat="44.9853704" lon="5.4338278">
<ele>827.95</ele>
<time>2019-07-25T09:04:20Z</time>
</trkpt>
<trkpt lat="44.9853722" lon="5.4338214">
<ele>828.08</ele>
<time>2019-07-25T09:04:21Z</time>
</trkpt>
<trkpt lat="44.9853727" lon="5.4338326">
<ele>828.20</ele>
<time>2019-07-25T09:04:22Z</time>
</trkpt>
<trkpt lat="44.9853508" lon="5.4338490">
<ele>828.31</ele>
<time>2019-07-25T09:04:23Z</time>
</trkpt>
<trkpt lat="44.9853394" lon="5.4338463">
<ele>828.44</ele>
<time>2019-07-25T09:04:24Z</time>
</trkpt>
<trkpt lat="44.9853169" lon="5.4338556">
<ele>828.57</ele>
<time>2019-07-25T09:04:25Z</time>
</trkpt>
<trkpt lat="44.9853149" lon="5.4338591">
<ele>828.69</ele>
<time>2019-07-25T09:04:26Z</time>
</trkpt>
<trkpt lat="44.9853087" lon="5.4338537">
<ele>828.80</ele>
<time>2019-07-25T09:04:27Z</time>
</trkpt>
<trkpt lat="44.9852903" lon="5.4338563">
<ele>828.91</ele>
<time>2019-07-25T09:04:28Z</time>
</trkpt>
<trkpt lat="44.9852733" lon="5.4338585">
<ele>829.02</ele>
<time>2019-07-25T09:04:29Z</time>
</trkpt>
<trkpt lat="44.9852462" lon="5.4338453">
<ele>829.11</ele>
<time>2019-07-25T09:04:30Z</time>
</trkpt>
<trkpt lat="44.9852374" lon="5.4338442">
<ele>829.20</ele>
<time>2019-07-25T09:04:31Z</time>
</trkpt>
<trkpt lat="44.9852285" lon="5.4338444">
<ele>829.30</ele>
<time>2019-07-25T09:04:32Z</time>
</trkpt>
<trkpt lat="44.9852259" lon="5.4338422">
<ele>829.40</ele>
<time>2019-07-25T09:04:33Z</time>
</trkpt>
<trkpt lat="44.9852124" lon="5.4338364">
<ele>829.49</ele>
<time>2019-07-25T09:04:34Z</time>
</trkpt>
<trkpt lat="44.9852136" lon="5.4338377">
<ele>829.59</ele>
<time>2019-07-25T09:04:35Z</time>
</trkpt>
<trkpt lat="44.9852094" lon="5.4338356">
<ele>829.60</ele>
<time>2019-07-25T09:04:36Z</time>
</trkpt>
<trkpt lat="44.9852107" lon="5.4338348">
<ele>829.73</ele>
<time>2019-07-25T09:04:37Z</time>
</trkpt>
<trkpt lat="44.9852225" lon="5.4338429">
<ele>829.74</ele>
<time>2019-07-25T09:04:38Z</time>
</trkpt>
<trkpt lat="44.9852349" lon="5.4338488">
<ele>829.75</ele>
<time>2019-07-25T09:04:39Z</time>
</trkpt>
<trkpt lat="44.9852372" lon="5.4338503">
<ele>829.77</ele>
<time>2019-07-25T09:04:40Z</time>
</trkpt>
<trkpt lat="44.9852360" lon="5.4338447">
<ele>829.78</ele>
<time>2019-07-25T09:04:41Z</time>
</trkpt>
<trkpt lat="44.9852245" lon="5.4338422">
<ele>829.93</ele>
<time>2019-07-25T09:04:42Z</time>
</trkpt>
<trkpt lat="44.9852249" lon="5.4338433">
<ele>830.08</ele>
<time>2019-07-25T09:04:43Z</time>
</trkpt>
<trkpt lat="44.9852265" lon="5.4338433">
<ele>830.10</ele>
<time>2019-07-25T09:04:44Z</time>
</trkpt>
<trkpt lat="44.9852339" lon="5.4338487">
<ele>830.11</ele>
<time>2019-07-25T09:04:45Z</time>
</trkpt>
<trkpt lat="44.9852414" lon="5.4338472">
<ele>830.12</ele>
<time>2019-07-25T09:04:46Z</time>
</trkpt>
<trkpt lat="44.9852325" lon="5.4338502">
<ele>830.14</ele>
<time>2019-07-25T09:04:47Z</time>
</trkpt>
<trkpt lat="44.9852220" lon="5.4338436">
<ele>830.15</ele>
<time>2019-07-25T09:04:48Z</time>
</trkpt>
<trkpt lat="44.9852170" lon="5.4338229">
<ele>830.16</ele>
<time>2019-07-25T09:04:49Z</time>
</trkpt>
<trkpt lat="44.9852146" lon="5.4338193">
<ele>830.18</ele>
<time>2019-07-25T09:04:50Z</time>
</trkpt>
<trkpt lat="44.9852136" lon="5.4338181">
<ele>830.20</ele>
<time>2019-07-25T09:04:51Z</time>
</trkpt>
<trkpt lat="44.9852113" lon="5.4338164">
<ele>830.22</ele>
<time>2019-07-25T09:04:52Z</time>
</trkpt>
<trkpt lat="44.9851927" lon="5.4338080">
<ele>830.24</ele>
<time>2019-07-25T09:04:53Z</time>
</trkpt>
<trkpt lat="44.9851793" lon="5.4337965">
<ele>830.27</ele>
<time>2019-07-25T09:04:54Z</time>
</trkpt>
<trkpt lat="44.9851688" lon="5.4337856">
<ele>830.30</ele>
<time>2019-07-25T09:04:55Z</time>
</trkpt>
<trkpt lat="44.9851675" lon="5.4337843">
<ele>830.33</ele>
<time>2019-07-25T09:04:56Z</time>
</trkpt>
<trkpt lat="44.9851659" lon="5.4337817">
<ele>830.36</ele>
<time>2019-07-25T09:04:57Z</time>
</trkpt>
<trkpt lat="44.9851661" lon="5.4337772">
<ele>830.39</ele>
<time>2019-07-25T09:04:58Z</time>
</trkpt>
<trkpt lat="44.9851656" lon="5.4337747">
<ele>830.43</ele>
<time>2019-07-25T09:04:59Z</time>
</trkpt>
<trkpt lat="44.9851654" lon="5.4337728">
<ele>830.46</ele>
<time>2019-07-25T09:05:00Z</time>
</trkpt>
<trkpt lat="44.9851650" lon="5.4337715">
<ele>830.49</ele>
<time>2019-07-25T09:05:01Z</time>
</trkpt>
<trkpt lat="44.9851539" lon="5.4337720">
<ele>830.77</ele>
<time>2019-07-25T09:05:02Z</time>
</trkpt>
<trkpt lat="44.9851554" lon="5.4337668">
<ele>831.05</ele>
<time>2019-07-25T09:05:03Z</time>
</trkpt>
<trkpt lat="44.9851600" lon="5.4337679">
<ele>831.32</ele>
<time>2019-07-25T09:05:04Z</time>
</trkpt>
<trkpt lat="44.9851596" lon="5.4337715">
<ele>831.35</ele>
<time>2019-07-25T09:05:05Z</time>
</trkpt>
<trkpt lat="44.9851849" lon="5.4337841">
<ele>831.37</ele>
<time>2019-07-25T09:05:06Z</time>
</trkpt>
<trkpt lat="44.9852319" lon="5.4337993">
<ele>831.40</ele>
<time>2019-07-25T09:05:07Z</time>
</trkpt>
<trkpt lat="44.9852335" lon="5.4338000">
<ele>831.43</ele>
<time>2019-07-25T09:05:08Z</time>
</trkpt>
<trkpt lat="44.9852342" lon="5.4338011">
<ele>831.46</ele>
<time>2019-07-25T09:05:09Z</time>
</trkpt>
<trkpt lat="44.9852367" lon="5.4338027">
<ele>831.49</ele>
<time>2019-07-25T09:05:10Z</time>
</trkpt>
<trkpt lat="44.9852371" lon="5.4338024">
<ele>831.52</ele>
<time>2019-07-25T09:05:11Z</time>
</trkpt>
<trkpt lat="44.9852398" lon="5.4338006">
<ele>831.56</ele>
<time>2019-07-25T09:05:12Z</time>
</trkpt>
<trkpt lat="44.9852284" lon="5.4338077">
<ele>831.92</ele>
<time>2019-07-25T09:05:13Z</time>
</trkpt>
<trkpt lat="44.9852170" lon="5.4338215">
<ele>831.96</ele>
<time>2019-07-25T09:05:14Z</time>
</trkpt>
<trkpt lat="44.9852199" lon="5.4338333">
<ele>832.00</ele>
<time>2019-07-25T09:05:15Z</time>
</trkpt>
<trkpt lat="44.9852173" lon="5.4338327">
<ele>832.04</ele>
<time>2019-07-25T09:05:16Z</time>
</trkpt>
<trkpt lat="44.9851897" lon="5.4338109">
<ele>832.48</ele>
<time>2019-07-25T09:05:17Z</time>
</trkpt>
<trkpt lat="44.9851742" lon="5.4337876">
<ele>832.92</ele>
<time>2019-07-25T09:05:18Z</time>
</trkpt>
<trkpt lat="44.9851739" lon="5.4337706">
<ele>832.96</ele>
<time>2019-07-25T09:05:19Z</time>
</trkpt>
<trkpt lat="44.9851739" lon="5.4337704">
<ele>833.01</ele>
<time>2019-07-25T09:05:20Z</time>
</trkpt>
<trkpt lat="44.9851633" lon="5.4337722">
<ele>833.47</ele>
<time>2019-07-25T09:05:21Z</time>
</trkpt>
<trkpt lat="44.9851531" lon="5.4337715">
<ele>833.92</ele>
<time>2019-07-25T09:05:22Z</time>
</trkpt>
<trkpt lat="44.9851491" lon="5.4337784">
<ele>834.36</ele>
<time>2019-07-25T09:05:23Z</time>
</trkpt>
<trkpt lat="44.9851391" lon="5.4337758">
<ele>834.79</ele>
<time>2019-07-25T09:05:24Z</time>
</trkpt>
<trkpt lat="44.9851335" lon="5.4337826">
<ele>835.22</ele>
<time>2019-07-25T09:05:25Z</time>
</trkpt>
<trkpt lat="44.9851212" lon="5.4337757">
<ele>835.65</ele>
<time>2019-07-25T09:05:26Z</time>
</trkpt>
<trkpt lat="44.9851134" lon="5.4337701">
<ele>836.07</ele>
<time>2019-07-25T09:05:27Z</time>
</trkpt>
<trkpt lat="44.9851031" lon="5.4337617">
<ele>836.48</ele>
<time>2019-07-25T09:05:28Z</time>
</trkpt>
<trkpt lat="44.9850859" lon="5.4337578">
<ele>836.89</ele>
<time>2019-07-25T09:05:29Z</time>
</trkpt>
<trkpt lat="44.9850696" lon="5.4337724">
<ele>837.28</ele>
<time>2019-07-25T09:05:30Z</time>
</trkpt>
<trkpt lat="44.9850469" lon="5.4337798">
<ele>837.67</ele>
<time>2019-07-25T09:05:31Z</time>
</trkpt>
<trkpt lat="44.9850317" lon="5.4338079">
<ele>838.05</ele>
<time>2019-07-25T09:05:32Z</time>
</trkpt>
<trkpt lat="44.9849818" lon="5.4337978">
<ele>838.42</ele>
<time>2019-07-25T09:05:33Z</time>
</trkpt>
<trkpt lat="44.9849452" lon="5.4337629">
<ele>838.78</ele>
<time>2019-07-25T09:05:34Z</time>
</trkpt>
<trkpt lat="44.9848936" lon="5.4337004">
<ele>839.13</ele>
<time>2019-07-25T09:05:35Z</time>
</trkpt>
<trkpt lat="44.9848578" lon="5.4336880">
<ele>839.48</ele>
<time>2019-07-25T09:05:36Z</time>
</trkpt>
<trkpt lat="44.9848579" lon="5.4336580">
<ele>839.82</ele>
<time>2019-07-25T09:05:37Z</time>
</trkpt>
<trkpt lat="44.9848418" lon="5.4336356">
<ele>840.15</ele>
<time>2019-07-25T09:05:38Z</time>
</trkpt>
<trkpt lat="44.9848058" lon="5.4336205">
<ele>840.47</ele>
<time>2019-07-25T09:05:39Z</time>
</trkpt>
<trkpt lat="44.9847379" lon="5.4336042">
<ele>840.79</ele>
<time>2019-07-25T09:05:40Z</time>
</trkpt>
<trkpt lat="44.9847270" lon="5.4335551">
<ele>841.09</ele>
<time>2019-07-25T09:05:41Z</time>
</trkpt>
<trkpt lat="44.9847319" lon="5.4335288">
<ele>841.39</ele>
<time>2019-07-25T09:05:42Z</time>
</trkpt>
<trkpt lat="44.9847080" lon="5.4335281">
<ele>841.68</ele>
<time>2019-07-25T09:05:43Z</time>
</trkpt>
<trkpt lat="44.9846824" lon="5.4335150">
<ele>841.95</ele>
<time>2019-07-25T09:05:44Z</time>
</trkpt>
<trkpt lat="44.9846666" lon="5.4335000">
<ele>842.21</ele>
<time>2019-07-25T09:05:45Z</time>
</trkpt>
<trkpt lat="44.9846454" lon="5.4334842">
<ele>842.46</ele>
<time>2019-07-25T09:05:46Z</time>
</trkpt>
<trkpt lat="44.9846362" lon="5.4334729">
<ele>842.70</ele>
<time>2019-07-25T09:05:47Z</time>
</trkpt>
<trkpt lat="44.9846290" lon="5.4334609">
<ele>842.93</ele>
<time>2019-07-25T09:05:48Z</time>
</trkpt>
<trkpt lat="44.9845919" lon="5.4334669">
<ele>843.17</ele>
<time>2019-07-25T09:05:49Z</time>
</trkpt>
<trkpt lat="44.9845543" lon="5.4334698">
<ele>843.40</ele>
<time>2019-07-25T09:05:50Z</time>
</trkpt>
<trkpt lat="44.9845107" lon="5.4334502">
<ele>843.63</ele>
<time>2019-07-25T09:05:51Z</time>
</trkpt>
<trkpt lat="44.9844749" lon="5.4334591">
<ele>843.85</ele>
<time>2019-07-25T09:05:52Z</time>
</trkpt>
<trkpt lat="44.9844308" lon="5.4335021">
<ele>844.07</ele>
<time>2019-07-25T09:05:53Z</time>
</trkpt>
<trkpt lat="44.9843683" lon="5.4335825">
<ele>844.28</ele>
<time>2019-07-25T09:05:54Z</time>
</trkpt>
<trkpt lat="44.9843025" lon="5.4336248">
<ele>844.49</ele>
<time>2019-07-25T09:05:55Z</time>
</trkpt>
<trkpt lat="44.9842485" lon="5.4336481">
<ele>844.70</ele>
<time>2019-07-25T09:05:56Z</time>
</trkpt>
<trkpt lat="44.9841906" lon="5.4336561">
<ele>846.64</ele>
<time>2019-07-25T09:05:57Z</time>
</trkpt>
<trkpt lat="44.9841454" lon="5.4336623">
<ele>848.18</ele>
<time>2019-07-25T09:05:58Z</time>
</trkpt>
<trkpt lat="44.9840973" lon="5.4336731">
<ele>848.30</ele>
<time>2019-07-25T09:05:59Z</time>
</trkpt>
<trkpt lat="44.9840554" lon="5.4336730">
<ele>848.42</ele>
<time>2019-07-25T09:06:00Z</time>
</trkpt>
<trkpt lat="44.9840135" lon="5.4336642">
<ele>848.54</ele>
<time>2019-07-25T09:06:01Z</time>
</trkpt>
<trkpt lat="44.9839785" lon="5.4336594">
<ele>848.64</ele>
<time>2019-07-25T09:06:02Z</time>
</trkpt>
<trkpt lat="44.9839321" lon="5.4336669">
<ele>849.66</ele>
<time>2019-07-25T09:06:03Z</time>
</trkpt>
<trkpt lat="44.9838786" lon="5.4336591">
<ele>849.74</ele>
<time>2019-07-25T09:06:04Z</time>
</trkpt>
<trkpt lat="44.9838347" lon="5.4336327">
<ele>849.81</ele>
<time>2019-07-25T09:06:05Z</time>
</trkpt>
<trkpt lat="44.9838059" lon="5.4336301">
<ele>849.88</ele>
<time>2019-07-25T09:06:06Z</time>
</trkpt>
<trkpt lat="44.9837735" lon="5.4336267">
<ele>849.94</ele>
<time>2019-07-25T09:06:07Z</time>
</trkpt>
<trkpt lat="44.9837308" lon="5.4336503">
<ele>850.00</ele>
<time>2019-07-25T09:06:08Z</time>
</trkpt>
<trkpt lat="44.9837044" lon="5.4336785">
<ele>850.06</ele>
<time>2019-07-25T09:06:09Z</time>
</trkpt>
<trkpt lat="44.9836684" lon="5.4336862">
<ele>850.13</ele>
<time>2019-07-25T09:06:10Z</time>
</trkpt>
<trkpt lat="44.9836149" lon="5.4336804">
<ele>850.18</ele>
<time>2019-07-25T09:06:11Z</time>
</trkpt>
<trkpt lat="44.9835820" lon="5.4336886">
<ele>850.24</ele>
<time>2019-07-25T09:06:12Z</time>
</trkpt>
<trkpt lat="44.9835451" lon="5.4336927">
<ele>850.29</ele>
<time>2019-07-25T09:06:13Z</time>
</trkpt>
<trkpt lat="44.9835132" lon="5.4336899">
<ele>850.35</ele>
<time>2019-07-25T09:06:14Z</time>
</trkpt>
<trkpt lat="44.9834659" lon="5.4337054">
<ele>850.40</ele>
<time>2019-07-25T09:06:15Z</time>
</trkpt>
<trkpt lat="44.9834288" lon="5.4337136">
<ele>850.46</ele>
<time>2019-07-25T09:06:16Z</time>
</trkpt>
<trkpt lat="44.9834009" lon="5.4337092">
<ele>850.52</ele>
<time>2019-07-25T09:06:17Z</time>
</trkpt>
<trkpt lat="44.9833755" lon="5.4337160">
<ele>850.58</ele>
<time>2019-07-25T09:06:18Z</time>
</trkpt>
<trkpt lat="44.9833489" lon="5.4337151">
<ele>850.64</ele>
<time>2019-07-25T09:06:19Z</time>
</trkpt>
<trkpt lat="44.9833216" lon="5.4337111">
<ele>850.69</ele>
<time>2019-07-25T09:06:20Z</time>
</trkpt>
<trkpt lat="44.9832847" lon="5.4337029">
<ele>850.73</ele>
<time>2019-07-25T09:06:21Z</time>
</trkpt>
<trkpt lat="44.9832522" lon="5.4336939">
<ele>850.76</ele>
<time>2019-07-25T09:06:22Z</time>
</trkpt>
<trkpt lat="44.9832252" lon="5.4336843">
<ele>850.77</ele>
<time>2019-07-25T09:06:23Z</time>
</trkpt>
<trkpt lat="44.9831884" lon="5.4336748">
<ele>850.79</ele>
<time>2019-07-25T09:06:24Z</time>
</trkpt>
<trkpt lat="44.9831466" lon="5.4336804">
<ele>850.79</ele>
<time>2019-07-25T09:06:25Z</time>
</trkpt>
<trkpt lat="44.9831270" lon="5.4336683">
<ele>850.79</ele>
<time>2019-07-25T09:06:26Z</time>
</trkpt>
<trkpt lat="44.9831062" lon="5.4336793">
<ele>850.80</ele>
<time>2019-07-25T09:06:27Z</time>
</trkpt>
<trkpt lat="44.9830779" lon="5.4336786">
<ele>850.80</ele>
<time>2019-07-25T09:06:28Z</time>
</trkpt>
<trkpt lat="44.9830390" lon="5.4336792">
<ele>850.79</ele>
<time>2019-07-25T09:06:29Z</time>
</trkpt>
<trkpt lat="44.9829990" lon="5.4336872">
<ele>850.77</ele>
<time>2019-07-25T09:06:30Z</time>
</trkpt>
<trkpt lat="44.9829618" lon="5.4336948">
<ele>850.74</ele>
<time>2019-07-25T09:06:31Z</time>
</trkpt>
<trkpt lat="44.9829367" lon="5.4337025">
<ele>850.71</ele>
<time>2019-07-25T09:06:32Z</time>
</trkpt>
<trkpt lat="44.9829058" lon="5.4337121">
<ele>850.67</ele>
<time>2019-07-25T09:06:33Z</time>
</trkpt>
<trkpt lat="44.9828699" lon="5.4337158">
<ele>850.64</ele>
<time>2019-07-25T09:06:34Z</time>
</trkpt>
<trkpt lat="44.9828283" lon="5.4337167">
<ele>850.61</ele>
<time>2019-07-25T09:06:35Z</time>
</trkpt>
<trkpt lat="44.9827807" lon="5.4337184">
<ele>850.55</ele>
<time>2019-07-25T09:06:36Z</time>
</trkpt>
<trkpt lat="44.9827408" lon="5.4337192">
<ele>850.50</ele>
<time>2019-07-25T09:06:37Z</time>
</trkpt>
<trkpt lat="44.9827095" lon="5.4337104">
<ele>850.45</ele>
<time>2019-07-25T09:06:38Z</time>
</trkpt>
<trkpt lat="44.9826876" lon="5.4337025">
<ele>850.39</ele>
<time>2019-07-25T09:06:39Z</time>
</trkpt>
<trkpt lat="44.9826629" lon="5.4336929">
<ele>850.33</ele>
<time>2019-07-25T09:06:40Z</time>
</trkpt>
<trkpt lat="44.9826270" lon="5.4336794">
<ele>850.26</ele>
<time>2019-07-25T09:06:41Z</time>
</trkpt>
<trkpt lat="44.9825918" lon="5.4336644">
<ele>850.19</ele>
<time>2019-07-25T09:06:42Z</time>
</trkpt>
<trkpt lat="44.9825554" lon="5.4336539">
<ele>850.12</ele>
<time>2019-07-25T09:06:43Z</time>
</trkpt>
<trkpt lat="44.9825009" lon="5.4336299">
<ele>850.04</ele>
<time>2019-07-25T09:06:44Z</time>
</trkpt>
<trkpt lat="44.9824415" lon="5.4335970">
<ele>849.28</ele>
<time>2019-07-25T09:06:45Z</time>
</trkpt>
<trkpt lat="44.9823611" lon="5.4335450">
<ele>848.60</ele>
<time>2019-07-25T09:06:46Z</time>
</trkpt>
<trkpt lat="44.9822858" lon="5.4335214">
<ele>847.98</ele>
<time>2019-07-25T09:06:47Z</time>
</trkpt>
<trkpt lat="44.9822211" lon="5.4335101">
<ele>847.44</ele>
<time>2019-07-25T09:06:48Z</time>
</trkpt>
<trkpt lat="44.9821622" lon="5.4334891">
<ele>846.99</ele>
<time>2019-07-25T09:06:49Z</time>
</trkpt>
<trkpt lat="44.9821052" lon="5.4334606">
<ele>846.62</ele>
<time>2019-07-25T09:06:50Z</time>
</trkpt>
<trkpt lat="44.9820514" lon="5.4334340">
<ele>846.25</ele>
<time>2019-07-25T09:06:51Z</time>
</trkpt>
<trkpt lat="44.9820081" lon="5.4334257">
<ele>845.91</ele>
<time>2019-07-25T09:06:52Z</time>
</trkpt>
<trkpt lat="44.9819579" lon="5.4334305">
<ele>845.88</ele>
<time>2019-07-25T09:06:53Z</time>
</trkpt>
<trkpt lat="44.9819138" lon="5.4334402">
<ele>845.66</ele>
<time>2019-07-25T09:06:54Z</time>
</trkpt>
<trkpt lat="44.9818670" lon="5.4334359">
<ele>845.53</ele>
<time>2019-07-25T09:06:55Z</time>
</trkpt>
<trkpt lat="44.9818192" lon="5.4334299">
<ele>845.51</ele>
<time>2019-07-25T09:06:56Z</time>
</trkpt>
<trkpt lat="44.9817635" lon="5.4334205">
<ele>845.48</ele>
<time>2019-07-25T09:06:57Z</time>
</trkpt>
<trkpt lat="44.9817139" lon="5.4334162">
<ele>845.52</ele>
<time>2019-07-25T09:06:58Z</time>
</trkpt>
<trkpt lat="44.9816632" lon="5.4334109">
<ele>845.53</ele>
<time>2019-07-25T09:06:59Z</time>
</trkpt>
<trkpt lat="44.9816106" lon="5.4333852">
<ele>845.58</ele>
<time>2019-07-25T09:07:00Z</time>
</trkpt>
<trkpt lat="44.9815389" lon="5.4333824">
<ele>845.60</ele>
<time>2019-07-25T09:07:01Z</time>
</trkpt>
<trkpt lat="44.9814809" lon="5.4333892">
<ele>845.76</ele>
<time>2019-07-25T09:07:02Z</time>
</trkpt>
<trkpt lat="44.9814199" lon="5.4333563">
<ele>845.84</ele>
<time>2019-07-25T09:07:03Z</time>
</trkpt>
<trkpt lat="44.9813489" lon="5.4333485">
<ele>845.84</ele>
<time>2019-07-25T09:07:04Z</time>
</trkpt>
<trkpt lat="44.9813086" lon="5.4333127">
<ele>845.86</ele>
<time>2019-07-25T09:07:05Z</time>
</trkpt>
<trkpt lat="44.9812541" lon="5.4333054">
<ele>846.31</ele>
<time>2019-07-25T09:07:06Z</time>
</trkpt>
<trkpt lat="44.9811999" lon="5.4333024">
<ele>846.42</ele>
<time>2019-07-25T09:07:07Z</time>
</trkpt>
<trkpt lat="44.9811404" lon="5.4333210">
<ele>846.41</ele>
<time>2019-07-25T09:07:08Z</time>
</trkpt>
<trkpt lat="44.9811065" lon="5.4333308">
<ele>846.40</ele>
<time>2019-07-25T09:07:09Z</time>
</trkpt>
<trkpt lat="44.9810790" lon="5.4333162">
<ele>846.38</ele>
<time>2019-07-25T09:07:10Z</time>
</trkpt>
<trkpt lat="44.9810554" lon="5.4332828">
<ele>846.37</ele>
<time>2019-07-25T09:07:11Z</time>
</trkpt>
<trkpt lat="44.9810114" lon="5.4332597">
<ele>846.37</ele>
<time>2019-07-25T09:07:12Z</time>
</trkpt>
<trkpt lat="44.9809785" lon="5.4332613">
<ele>846.36</ele>
<time>2019-07-25T09:07:13Z</time>
</trkpt>
<trkpt lat="44.9809525" lon="5.4332652">
<ele>846.36</ele>
<time>2019-07-25T09:07:14Z</time>
</trkpt>
<trkpt lat="44.9809301" lon="5.4332725">
<ele>846.34</ele>
<time>2019-07-25T09:07:15Z</time>
</trkpt>
<trkpt lat="44.9809136" lon="5.4332676">
<ele>846.33</ele>
<time>2019-07-25T09:07:16Z</time>
</trkpt>
<trkpt lat="44.9808792" lon="5.4332510">
<ele>846.32</ele>
<time>2019-07-25T09:07:17Z</time>
</trkpt>
<trkpt lat="44.9808585" lon="5.4332332">
<ele>846.31</ele>
<time>2019-07-25T09:07:18Z</time>
</trkpt>
<trkpt lat="44.9808202" lon="5.4331973">
<ele>846.31</ele>
<time>2019-07-25T09:07:19Z</time>
</trkpt>
<trkpt lat="44.9807624" lon="5.4331899">
<ele>846.31</ele>
<time>2019-07-25T09:07:20Z</time>
</trkpt>
<trkpt lat="44.9807421" lon="5.4331658">
<ele>846.32</ele>
<time>2019-07-25T09:07:21Z</time>
</trkpt>
<trkpt lat="44.9806804" lon="5.4331530">
<ele>846.32</ele>
<time>2019-07-25T09:07:22Z</time>
</trkpt>
<trkpt lat="44.9806535" lon="5.4331439">
<ele>846.32</ele>
<time>2019-07-25T09:07:23Z</time>
</trkpt>
<trkpt lat="44.9806175" lon="5.4331238">
<ele>846.32</ele>
<time>2019-07-25T09:07:24Z</time>
</trkpt>
<trkpt lat="44.9805835" lon="5.4331203">
<ele>846.33</ele>
<time>2019-07-25T09:07:25Z</time>
</trkpt>
<trkpt lat="44.9805703" lon="5.4330763">
<ele>846.33</ele>
<time>2019-07-25T09:07:26Z</time>
</trkpt>
<trkpt lat="44.9805589" lon="5.4330927">
<ele>846.34</ele>
<time>2019-07-25T09:07:27Z</time>
</trkpt>
<trkpt lat="44.9805647" lon="5.4330735">
<ele>846.34</ele>
<time>2019-07-25T09:07:28Z</time>
</trkpt>
<trkpt lat="44.9805383" lon="5.4330360">
<ele>846.33</ele>
<time>2019-07-25T09:07:29Z</time>
</trkpt>
<trkpt lat="44.9804984" lon="5.4330170">
<ele>846.33</ele>
<time>2019-07-25T09:07:30Z</time>
</trkpt>
<trkpt lat="44.9804801" lon="5.4329881">
<ele>846.32</ele>
<time>2019-07-25T09:07:31Z</time>
</trkpt>
<trkpt lat="44.9804551" lon="5.4329721">
<ele>846.31</ele>
<time>2019-07-25T09:07:32Z</time>
</trkpt>
<trkpt lat="44.9804407" lon="5.4329631">
<ele>846.31</ele>
<time>2019-07-25T09:07:33Z</time>
</trkpt>
<trkpt lat="44.9804041" lon="5.4329653">
<ele>846.33</ele>
<time>2019-07-25T09:07:34Z</time>
</trkpt>
<trkpt lat="44.9803725" lon="5.4329702">
<ele>846.37</ele>
<time>2019-07-25T09:07:35Z</time>
</trkpt>
<trkpt lat="44.9803350" lon="5.4329705">
<ele>846.42</ele>
<time>2019-07-25T09:07:36Z</time>
</trkpt>
<trkpt lat="44.9803096" lon="5.4329754">
<ele>846.47</ele>
<time>2019-07-25T09:07:37Z</time>
</trkpt>
<trkpt lat="44.9802739" lon="5.4329743">
<ele>846.53</ele>
<time>2019-07-25T09:07:38Z</time>
</trkpt>
<trkpt lat="44.9802507" lon="5.4329831">
<ele>846.60</ele>
<time>2019-07-25T09:07:39Z</time>
</trkpt>
<trkpt lat="44.9802268" lon="5.4329856">
<ele>846.67</ele>
<time>2019-07-25T09:07:40Z</time>
</trkpt>
<trkpt lat="44.9801899" lon="5.4329976">
<ele>846.74</ele>
<time>2019-07-25T09:07:41Z</time>
</trkpt>
<trkpt lat="44.9801682" lon="5.4329852">
<ele>846.82</ele>
<time>2019-07-25T09:07:42Z</time>
</trkpt>
<trkpt lat="44.9801358" lon="5.4329834">
<ele>846.89</ele>
<time>2019-07-25T09:07:43Z</time>
</trkpt>
<trkpt lat="44.9801192" lon="5.4329549">
<ele>846.96</ele>
<time>2019-07-25T09:07:44Z</time>
</trkpt>
<trkpt lat="44.9800966" lon="5.4329603">
<ele>847.03</ele>
<time>2019-07-25T09:07:45Z</time>
</trkpt>
<trkpt lat="44.9800697" lon="5.4329698">
<ele>847.10</ele>
<time>2019-07-25T09:07:46Z</time>
</trkpt>
<trkpt lat="44.9800373" lon="5.4329683">
<ele>847.18</ele>
<time>2019-07-25T09:07:47Z</time>
</trkpt>
<trkpt lat="44.9800019" lon="5.4329673">
<ele>847.27</ele>
<time>2019-07-25T09:07:48Z</time>
</trkpt>
<trkpt lat="44.9799888" lon="5.4329423">
<ele>847.36</ele>
<time>2019-07-25T09:07:49Z</time>
</trkpt>
<trkpt lat="44.9799706" lon="5.4329381">
<ele>847.44</ele>
<time>2019-07-25T09:07:50Z</time>
</trkpt>
<trkpt lat="44.9799356" lon="5.4329423">
<ele>847.52</ele>
<time>2019-07-25T09:07:51Z</time>
</trkpt>
<trkpt lat="44.9799083" lon="5.4329311">
<ele>847.59</ele>
<time>2019-07-25T09:07:52Z</time>
</trkpt>
<trkpt lat="44.9798859" lon="5.4329243">
<ele>847.67</ele>
<time>2019-07-25T09:07:53Z</time>
</trkpt>
<trkpt lat="44.9798657" lon="5.4329176">
<ele>847.75</ele>
<time>2019-07-25T09:07:54Z</time>
</trkpt>
<trkpt lat="44.9798459" lon="5.4329175">
<ele>847.84</ele>
<time>2019-07-25T09:07:55Z</time>
</trkpt>
<trkpt lat="44.9798224" lon="5.4329043">
<ele>847.93</ele>
<time>2019-07-25T09:07:56Z</time>
</trkpt>
<trkpt lat="44.9797985" lon="5.4328915">
<ele>848.02</ele>
<time>2019-07-25T09:07:57Z</time>
</trkpt>
<trkpt lat="44.9797728" lon="5.4328869">
<ele>848.11</ele>
<time>2019-07-25T09:07:58Z</time>
</trkpt>
<trkpt lat="44.9797587" lon="5.4328788">
<ele>848.21</ele>
<time>2019-07-25T09:07:59Z</time>
</trkpt>
<trkpt lat="44.9797281" lon="5.4328743">
<ele>848.31</ele>
<time>2019-07-25T09:08:00Z</time>
</trkpt>
<trkpt lat="44.9797049" lon="5.4328649">
<ele>848.40</ele>
<time>2019-07-25T09:08:01Z</time>
</trkpt>
<trkpt lat="44.9796833" lon="5.4328549">
<ele>848.51</ele>
<time>2019-07-25T09:08:02Z</time>
</trkpt>
<trkpt lat="44.9796666" lon="5.4328476">
<ele>848.62</ele>
<time>2019-07-25T09:08:03Z</time>
</trkpt>
<trkpt lat="44.9796430" lon="5.4328432">
<ele>848.74</ele>
<time>2019-07-25T09:08:04Z</time>
</trkpt>
<trkpt lat="44.9796140" lon="5.4328365">
<ele>848.86</ele>
<time>2019-07-25T09:08:05Z</time>
</trkpt>
<trkpt lat="44.9795840" lon="5.4328245">
<ele>848.98</ele>
<time>2019-07-25T09:08:06Z</time>
</trkpt>
<trkpt lat="44.9795631" lon="5.4328180">
<ele>849.10</ele>
<time>2019-07-25T09:08:07Z</time>
</trkpt>
<trkpt lat="44.9795468" lon="5.4328032">
<ele>849.21</ele>
<time>2019-07-25T09:08:08Z</time>
</trkpt>
<trkpt lat="44.9795196" lon="5.4328010">
<ele>849.32</ele>
<time>2019-07-25T09:08:09Z</time>
</trkpt>
<trkpt lat="44.9795022" lon="5.4327936">
<ele>849.42</ele>
<time>2019-07-25T09:08:10Z</time>
</trkpt>
<trkpt lat="44.9794735" lon="5.4327884">
<ele>849.53</ele>
<time>2019-07-25T09:08:11Z</time>
</trkpt>
<trkpt lat="44.9794470" lon="5.4327816">
<ele>849.63</ele>
<time>2019-07-25T09:08:12Z</time>
</trkpt>
<trkpt lat="44.9794275" lon="5.4327670">
<ele>849.72</ele>
<time>2019-07-25T09:08:13Z</time>
</trkpt>
<trkpt lat="44.9794115" lon="5.4327682">
<ele>849.82</ele>
<time>2019-07-25T09:08:14Z</time>
</trkpt>
<trkpt lat="44.9793874" lon="5.4327658">
<ele>849.92</ele>
<time>2019-07-25T09:08:15Z</time>
</trkpt>
<trkpt lat="44.9793726" lon="5.4327588">
<ele>850.02</ele>
<time>2019-07-25T09:08:16Z</time>
</trkpt>
<trkpt lat="44.9793613" lon="5.4327518">
<ele>850.13</ele>
<time>2019-07-25T09:08:17Z</time>
</trkpt>
<trkpt lat="44.9793360" lon="5.4327474">
<ele>850.23</ele>
<time>2019-07-25T09:08:18Z</time>
</trkpt>
<trkpt lat="44.9793132" lon="5.4327470">
<ele>850.34</ele>
<time>2019-07-25T09:08:19Z</time>
</trkpt>
<trkpt lat="44.9792972" lon="5.4327416">
<ele>850.44</ele>
<time>2019-07-25T09:08:20Z</time>
</trkpt>
<trkpt lat="44.9792709" lon="5.4327290">
<ele>850.54</ele>
<time>2019-07-25T09:08:21Z</time>
</trkpt>
<trkpt lat="44.9792401" lon="5.4327218">
<ele>850.66</ele>
<time>2019-07-25T09:08:22Z</time>
</trkpt>
<trkpt lat="44.9792110" lon="5.4327078">
<ele>850.77</ele>
<time>2019-07-25T09:08:23Z</time>
</trkpt>
<trkpt lat="44.9791882" lon="5.4326966">
<ele>850.89</ele>
<time>2019-07-25T09:08:24Z</time>
</trkpt>
<trkpt lat="44.9791661" lon="5.4326809">
<ele>851.01</ele>
<time>2019-07-25T09:08:25Z</time>
</trkpt>
<trkpt lat="44.9791488" lon="5.4326748">
<ele>851.14</ele>
<time>2019-07-25T09:08:26Z</time>
</trkpt>
<trkpt lat="44.9791227" lon="5.4326570">
<ele>851.27</ele>
<time>2019-07-25T09:08:27Z</time>
</trkpt>
<trkpt lat="44.9791081" lon="5.4326530">
<ele>851.41</ele>
<time>2019-07-25T09:08:28Z</time>
</trkpt>
<trkpt lat="44.9790828" lon="5.4326500">
<ele>851.54</ele>
<time>2019-07-25T09:08:29Z</time>
</trkpt>
<trkpt lat="44.9790635" lon="5.4326470">
<ele>851.68</ele>
<time>2019-07-25T09:08:30Z</time>
</trkpt>
<trkpt lat="44.9790417" lon="5.4326377">
<ele>851.81</ele>
<time>2019-07-25T09:08:31Z</time>
</trkpt>
<trkpt lat="44.9790219" lon="5.4326263">
<ele>851.93</ele>
<time>2019-07-25T09:08:32Z</time>
</trkpt>
<trkpt lat="44.9789947" lon="5.4326121">
<ele>852.05</ele>
<time>2019-07-25T09:08:33Z</time>
</trkpt>
<trkpt lat="44.9789670" lon="5.4326067">
<ele>852.16</ele>
<time>2019-07-25T09:08:34Z</time>
</trkpt>
<trkpt lat="44.9789400" lon="5.4325964">
<ele>852.26</ele>
<time>2019-07-25T09:08:35Z</time>
</trkpt>
<trkpt lat="44.9789167" lon="5.4326039">
<ele>852.37</ele>
<time>2019-07-25T09:08:36Z</time>
</trkpt>
<trkpt lat="44.9788871" lon="5.4326092">
<ele>852.47</ele>
<time>2019-07-25T09:08:37Z</time>
</trkpt>
<trkpt lat="44.9788558" lon="5.4325929">
<ele>852.57</ele>
<time>2019-07-25T09:08:38Z</time>
</trkpt>
<trkpt lat="44.9788250" lon="5.4325731">
<ele>852.66</ele>
<time>2019-07-25T09:08:39Z</time>
</trkpt>
<trkpt lat="44.9788031" lon="5.4325714">
<ele>852.76</ele>
<time>2019-07-25T09:08:40Z</time>
</trkpt>
<trkpt lat="44.9787878" lon="5.4325701">
<ele>852.86</ele>
<time>2019-07-25T09:08:41Z</time>
</trkpt>
<trkpt lat="44.9787560" lon="5.4325669">
<ele>852.96</ele>
<time>2019-07-25T09:08:42Z</time>
</trkpt>
<trkpt lat="44.9787352" lon="5.4325657">
<ele>853.08</ele>
<time>2019-07-25T09:08:43Z</time>
</trkpt>
<trkpt lat="44.9787080" lon="5.4325548">
<ele>853.20</ele>
<time>2019-07-25T09:08:44Z</time>
</trkpt>
<trkpt lat="44.9786674" lon="5.4325488">
<ele>853.32</ele>
<time>2019-07-25T09:08:45Z</time>
</trkpt>
<trkpt lat="44.9786422" lon="5.4325340">
<ele>853.45</ele>
<time>2019-07-25T09:08:46Z</time>
</trkpt>
<trkpt lat="44.9786039" lon="5.4325257">
<ele>853.58</ele>
<time>2019-07-25T09:08:47Z</time>
</trkpt>
<trkpt lat="44.9785595" lon="5.4325032">
<ele>853.70</ele>
<time>2019-07-25T09:08:48Z</time>
</trkpt>
<trkpt lat="44.9785205" lon="5.4324956">
<ele>853.80</ele>
<time>2019-07-25T09:08:49Z</time>
</trkpt>
<trkpt lat="44.9784836" lon="5.4324894">
<ele>853.90</ele>
<time>2019-07-25T09:08:50Z</time>
</trkpt>
<trkpt lat="44.9784657" lon="5.4324787">
<ele>854.01</ele>
<time>2019-07-25T09:08:51Z</time>
</trkpt>
<trkpt lat="44.9784286" lon="5.4324828">
<ele>854.11</ele>
<time>2019-07-25T09:08:52Z</time>
</trkpt>
<trkpt lat="44.9784115" lon="5.4324732">
<ele>854.21</ele>
<time>2019-07-25T09:08:53Z</time>
</trkpt>
<trkpt lat="44.9783893" lon="5.4324682">
<ele>854.31</ele>
<time>2019-07-25T09:08:54Z</time>
</trkpt>
<trkpt lat="44.9783672" lon="5.4324659">
<ele>854.42</ele>
<time>2019-07-25T09:08:55Z</time>
</trkpt>
<trkpt lat="44.9783430" lon="5.4324580">
<ele>854.53</ele>
<time>2019-07-25T09:08:56Z</time>
</trkpt>
<trkpt lat="44.9783172" lon="5.4324548">
<ele>854.64</ele>
<time>2019-07-25T09:08:57Z</time>
</trkpt>
<trkpt lat="44.9782891" lon="5.4324410">
<ele>854.74</ele>
<time>2019-07-25T09:08:58Z</time>
</trkpt>
<trkpt lat="44.9782655" lon="5.4324516">
<ele>854.85</ele>
<time>2019-07-25T09:08:59Z</time>
</trkpt>
<trkpt lat="44.9782420" lon="5.4324556">
<ele>854.96</ele>
<time>2019-07-25T09:09:00Z</time>
</trkpt>
<trkpt lat="44.9782162" lon="5.4324536">
<ele>855.07</ele>
<time>2019-07-25T09:09:01Z</time>
</trkpt>
<trkpt lat="44.9781715" lon="5.4324470">
<ele>855.19</ele>
<time>2019-07-25T09:09:02Z</time>
</trkpt>
<trkpt lat="44.9781373" lon="5.4324337">
<ele>855.31</ele>
<time>2019-07-25T09:09:03Z</time>
</trkpt>
<trkpt lat="44.9781035" lon="5.4324127">
<ele>855.43</ele>
<time>2019-07-25T09:09:04Z</time>
</trkpt>
<trkpt lat="44.9780646" lon="5.4324072">
<ele>855.56</ele>
<time>2019-07-25T09:09:05Z</time>
</trkpt>
<trkpt lat="44.9780251" lon="5.4324081">
<ele>855.70</ele>
<time>2019-07-25T09:09:06Z</time>
</trkpt>
<trkpt lat="44.9779792" lon="5.4324053">
<ele>855.84</ele>
<time>2019-07-25T09:09:07Z</time>
</trkpt>
<trkpt lat="44.9779423" lon="5.4323835">
<ele>855.97</ele>
<time>2019-07-25T09:09:08Z</time>
</trkpt>
<trkpt lat="44.9779054" lon="5.4323711">
<ele>856.09</ele>
<time>2019-07-25T09:09:09Z</time>
</trkpt>
<trkpt lat="44.9778710" lon="5.4323595">
<ele>856.22</ele>
<time>2019-07-25T09:09:10Z</time>
</trkpt>
<trkpt lat="44.9778402" lon="5.4323575">
<ele>856.35</ele>
<time>2019-07-25T09:09:11Z</time>
</trkpt>
<trkpt lat="44.9778100" lon="5.4323488">
<ele>856.48</ele>
<time>2019-07-25T09:09:12Z</time>
</trkpt>
<trkpt lat="44.9777862" lon="5.4323392">
<ele>856.62</ele>
<time>2019-07-25T09:09:13Z</time>
</trkpt>
<trkpt lat="44.9777620" lon="5.4323277">
<ele>856.76</ele>
<time>2019-07-25T09:09:14Z</time>
</trkpt>
<trkpt lat="44.9777327" lon="5.4323075">
<ele>856.91</ele>
<time>2019-07-25T09:09:15Z</time>
</trkpt>
<trkpt lat="44.9776973" lon="5.4322920">
<ele>857.05</ele>
<time>2019-07-25T09:09:16Z</time>
</trkpt>
<trkpt lat="44.9776728" lon="5.4322878">
<ele>857.21</ele>
<time>2019-07-25T09:09:17Z</time>
</trkpt>
<trkpt lat="44.9776706" lon="5.4322785">
<ele>857.36</ele>
<time>2019-07-25T09:09:18Z</time>
</trkpt>
<trkpt lat="44.9776461" lon="5.4322733">
<ele>857.52</ele>
<time>2019-07-25T09:09:19Z</time>
</trkpt>
<trkpt lat="44.9776199" lon="5.4322560">
<ele>857.67</ele>
<time>2019-07-25T09:09:20Z</time>
</trkpt>
<trkpt lat="44.9775946" lon="5.4322494">
<ele>857.82</ele>
<time>2019-07-25T09:09:21Z</time>
</trkpt>
<trkpt lat="44.9775587" lon="5.4322137">
<ele>857.97</ele>
<time>2019-07-25T09:09:22Z</time>
</trkpt>
<trkpt lat="44.9775129" lon="5.4321972">
<ele>858.11</ele>
<time>2019-07-25T09:09:23Z</time>
</trkpt>
<trkpt lat="44.9774854" lon="5.4321754">
<ele>858.25</ele>
<time>2019-07-25T09:09:24Z</time>
</trkpt>
<trkpt lat="44.9774648" lon="5.4321709">
<ele>858.38</ele>
<time>2019-07-25T09:09:25Z</time>
</trkpt>
<trkpt lat="44.9774423" lon="5.4321479">
<ele>858.50</ele>
<time>2019-07-25T09:09:26Z</time>
</trkpt>
<trkpt lat="44.9774244" lon="5.4321346">
<ele>858.62</ele>
<time>2019-07-25T09:09:27Z</time>
</trkpt>
<trkpt lat="44.9774065" lon="5.4321053">
<ele>858.73</ele>
<time>2019-07-25T09:09:28Z</time>
</trkpt>
<trkpt lat="44.9773900" lon="5.4320915">
<ele>858.83</ele>
<time>2019-07-25T09:09:29Z</time>
</trkpt>
<trkpt lat="44.9773643" lon="5.4320713">
<ele>858.93</ele>
<time>2019-07-25T09:09:30Z</time>
</trkpt>
<trkpt lat="44.9773445" lon="5.4320583">
<ele>859.03</ele>
<time>2019-07-25T09:09:31Z</time>
</trkpt>
<trkpt lat="44.9773168" lon="5.4320316">
<ele>859.15</ele>
<time>2019-07-25T09:09:32Z</time>
</trkpt>
<trkpt lat="44.9773005" lon="5.4320115">
<ele>859.25</ele>
<time>2019-07-25T09:09:33Z</time>
</trkpt>
<trkpt lat="44.9772514" lon="5.4319757">
<ele>859.35</ele>
<time>2019-07-25T09:09:34Z</time>
</trkpt>
<trkpt lat="44.9772001" lon="5.4319649">
<ele>859.45</ele>
<time>2019-07-25T09:09:35Z</time>
</trkpt>
<trkpt lat="44.9771436" lon="5.4319671">
<ele>859.55</ele>
<time>2019-07-25T09:09:36Z</time>
</trkpt>
<trkpt lat="44.9771040" lon="5.4319384">
<ele>859.65</ele>
<time>2019-07-25T09:09:37Z</time>
</trkpt>
<trkpt lat="44.9770857" lon="5.4319202">
<ele>859.75</ele>
<time>2019-07-25T09:09:38Z</time>
</trkpt>
<trkpt lat="44.9770714" lon="5.4319025">
<ele>859.84</ele>
<time>2019-07-25T09:09:39Z</time>
</trkpt>
<trkpt lat="44.9770402" lon="5.4318802">
<ele>859.94</ele>
<time>2019-07-25T09:09:40Z</time>
</trkpt>
<trkpt lat="44.9770093" lon="5.4318621">
<ele>860.02</ele>
<time>2019-07-25T09:09:41Z</time>
</trkpt>
<trkpt lat="44.9769824" lon="5.4318457">
<ele>860.12</ele>
<time>2019-07-25T09:09:42Z</time>
</trkpt>
<trkpt lat="44.9769548" lon="5.4318415">
<ele>860.22</ele>
<time>2019-07-25T09:09:43Z</time>
</trkpt>
<trkpt lat="44.9769148" lon="5.4318410">
<ele>860.33</ele>
<time>2019-07-25T09:09:44Z</time>
</trkpt>
<trkpt lat="44.9768800" lon="5.4318296">
<ele>860.43</ele>
<time>2019-07-25T09:09:45Z</time>
</trkpt>
<trkpt lat="44.9768490" lon="5.4318031">
<ele>860.54</ele>
<time>2019-07-25T09:09:46Z</time>
</trkpt>
<trkpt lat="44.9768230" lon="5.4317980">
<ele>860.64</ele>
<time>2019-07-25T09:09:47Z</time>
</trkpt>
<trkpt lat="44.9767953" lon="5.4317784">
<ele>860.75</ele>
<time>2019-07-25T09:09:48Z</time>
</trkpt>
<trkpt lat="44.9767687" lon="5.4317706">
<ele>860.85</ele>
<time>2019-07-25T09:09:49Z</time>
</trkpt>
<trkpt lat="44.9767385" lon="5.4317683">
<ele>860.96</ele>
<time>2019-07-25T09:09:50Z</time>
</trkpt>
<trkpt lat="44.9767094" lon="5.4317529">
<ele>861.09</ele>
<time>2019-07-25T09:09:51Z</time>
</trkpt>
<trkpt lat="44.9766648" lon="5.4317361">
<ele>861.21</ele>
<time>2019-07-25T09:09:52Z</time>
</trkpt>
<trkpt lat="44.9766054" lon="5.4317317">
<ele>861.33</ele>
<time>2019-07-25T09:09:53Z</time>
</trkpt>
<trkpt lat="44.9765512" lon="5.4317183">
<ele>861.46</ele>
<time>2019-07-25T09:09:54Z</time>
</trkpt>
<trkpt lat="44.9765103" lon="5.4317150">
<ele>861.58</ele>
<time>2019-07-25T09:09:55Z</time>
</trkpt>
<trkpt lat="44.9764731" lon="5.4316984">
<ele>861.71</ele>
<time>2019-07-25T09:09:56Z</time>
</trkpt>
<trkpt lat="44.9764341" lon="5.4316824">
<ele>862.97</ele>
<time>2019-07-25T09:09:57Z</time>
</trkpt>
<trkpt lat="44.9764006" lon="5.4316594">
<ele>863.07</ele>
<time>2019-07-25T09:09:58Z</time>
</trkpt>
<trkpt lat="44.9763605" lon="5.4316483">
<ele>863.17</ele>
<time>2019-07-25T09:09:59Z</time>
</trkpt>
<trkpt lat="44.9763173" lon="5.4316425">
<ele>863.27</ele>
<time>2019-07-25T09:10:00Z</time>
</trkpt>
<trkpt lat="44.9762811" lon="5.4316269">
<ele>863.36</ele>
<time>2019-07-25T09:10:01Z</time>
</trkpt>
<trkpt lat="44.9762490" lon="5.4316075">
<ele>863.46</ele>
<time>2019-07-25T09:10:02Z</time>
</trkpt>
<trkpt lat="44.9762077" lon="5.4316033">
<ele>863.55</ele>
<time>2019-07-25T09:10:03Z</time>
</trkpt>
<trkpt lat="44.9761775" lon="5.4315963">
<ele>863.65</ele>
<time>2019-07-25T09:10:04Z</time>
</trkpt>
<trkpt lat="44.9761479" lon="5.4315845">
<ele>863.74</ele>
<time>2019-07-25T09:10:05Z</time>
</trkpt>
<trkpt lat="44.9761161" lon="5.4315651">
<ele>863.83</ele>
<time>2019-07-25T09:10:06Z</time>
</trkpt>
<trkpt lat="44.9760860" lon="5.4315545">
<ele>863.92</ele>
<time>2019-07-25T09:10:07Z</time>
</trkpt>
<trkpt lat="44.9760537" lon="5.4315412">
<ele>864.01</ele>
<time>2019-07-25T09:10:08Z</time>
</trkpt>
<trkpt lat="44.9760255" lon="5.4315199">
<ele>864.09</ele>
<time>2019-07-25T09:10:09Z</time>
</trkpt>
<trkpt lat="44.9759948" lon="5.4315025">
<ele>864.17</ele>
<time>2019-07-25T09:10:10Z</time>
</trkpt>
<trkpt lat="44.9759713" lon="5.4314903">
<ele>864.24</ele>
<time>2019-07-25T09:10:11Z</time>
</trkpt>
<trkpt lat="44.9759516" lon="5.4314799">
<ele>864.31</ele>
<time>2019-07-25T09:10:12Z</time>
</trkpt>
<trkpt lat="44.9759277" lon="5.4314662">
<ele>864.38</ele>
<time>2019-07-25T09:10:13Z</time>
</trkpt>
<trkpt lat="44.9759075" lon="5.4314553">
<ele>864.45</ele>
<time>2019-07-25T09:10:14Z</time>
</trkpt>
<trkpt lat="44.9758871" lon="5.4314470">
<ele>864.52</ele>
<time>2019-07-25T09:10:15Z</time>
</trkpt>
<trkpt lat="44.9758701" lon="5.4314364">
<ele>864.59</ele>
<time>2019-07-25T09:10:16Z</time>
</trkpt>
<trkpt lat="44.9758515" lon="5.4314286">
<ele>864.65</ele>
<time>2019-07-25T09:10:17Z</time>
</trkpt>
<trkpt lat="44.9758346" lon="5.4314232">
<ele>864.71</ele>
<time>2019-07-25T09:10:18Z</time>
</trkpt>
<trkpt lat="44.9758146" lon="5.4314211">
<ele>864.78</ele>
<time>2019-07-25T09:10:19Z</time>
</trkpt>
<trkpt lat="44.9758041" lon="5.4314148">
<ele>864.85</ele>
<time>2019-07-25T09:10:20Z</time>
</trkpt>
<trkpt lat="44.9757751" lon="5.4314090">
<ele>864.91</ele>
<time>2019-07-25T09:10:21Z</time>
</trkpt>
<trkpt lat="44.9757413" lon="5.4314027">
<ele>864.98</ele>
<time>2019-07-25T09:10:22Z</time>
</trkpt>
<trkpt lat="44.9757109" lon="5.4313984">
<ele>865.04</ele>
<time>2019-07-25T09:10:23Z</time>
</trkpt>
<trkpt lat="44.9756781" lon="5.4313906">
<ele>865.10</ele>
<time>2019-07-25T09:10:24Z</time>
</trkpt>
<trkpt lat="44.9756468" lon="5.4313834">
<ele>865.17</ele>
<time>2019-07-25T09:10:25Z</time>
</trkpt>
<trkpt lat="44.9756186" lon="5.4313784">
<ele>865.23</ele>
<time>2019-07-25T09:10:26Z</time>
</trkpt>
<trkpt lat="44.9755835" lon="5.4313866">
<ele>865.31</ele>
<time>2019-07-25T09:10:27Z</time>
</trkpt>
<trkpt lat="44.9755550" lon="5.4313977">
<ele>865.38</ele>
<time>2019-07-25T09:10:28Z</time>
</trkpt>
<trkpt lat="44.9755360" lon="5.4314079">
<ele>865.45</ele>
<time>2019-07-25T09:10:29Z</time>
</trkpt>
<trkpt lat="44.9755173" lon="5.4314156">
<ele>865.53</ele>
<time>2019-07-25T09:10:30Z</time>
</trkpt>
<trkpt lat="44.9754874" lon="5.4314224">
<ele>865.61</ele>
<time>2019-07-25T09:10:31Z</time>
</trkpt>
<trkpt lat="44.9754578" lon="5.4314086">
<ele>865.69</ele>
<time>2019-07-25T09:10:32Z</time>
</trkpt>
<trkpt lat="44.9754401" lon="5.4313794">
<ele>865.78</ele>
<time>2019-07-25T09:10:33Z</time>
</trkpt>
<trkpt lat="44.9754263" lon="5.4313473">
<ele>865.87</ele>
<time>2019-07-25T09:10:34Z</time>
</trkpt>
<trkpt lat="44.9754145" lon="5.4313208">
<ele>865.96</ele>
<time>2019-07-25T09:10:35Z</time>
</trkpt>
<trkpt lat="44.9754044" lon="5.4312939">
<ele>866.04</ele>
<time>2019-07-25T09:10:36Z</time>
</trkpt>
<trkpt lat="44.9753765" lon="5.4312609">
<ele>866.12</ele>
<time>2019-07-25T09:10:37Z</time>
</trkpt>
<trkpt lat="44.9753337" lon="5.4312280">
<ele>866.90</ele>
<time>2019-07-25T09:10:38Z</time>
</trkpt>
<trkpt lat="44.9752762" lon="5.4311935">
<ele>867.54</ele>
<time>2019-07-25T09:10:39Z</time>
</trkpt>
<trkpt lat="44.9752246" lon="5.4311534">
<ele>868.11</ele>
<time>2019-07-25T09:10:40Z</time>
</trkpt>
<trkpt lat="44.9751763" lon="5.4311085">
<ele>868.62</ele>
<time>2019-07-25T09:10:41Z</time>
</trkpt>
<trkpt lat="44.9751294" lon="5.4310682">
<ele>869.11</ele>
<time>2019-07-25T09:10:42Z</time>
</trkpt>
<trkpt lat="44.9750919" lon="5.4310328">
<ele>869.51</ele>
<time>2019-07-25T09:10:43Z</time>
</trkpt>
<trkpt lat="44.9750623" lon="5.4309955">
<ele>869.54</ele>
<time>2019-07-25T09:10:44Z</time>
</trkpt>
<trkpt lat="44.9750341" lon="5.4309675">
<ele>869.57</ele>
<time>2019-07-25T09:10:45Z</time>
</trkpt>
<trkpt lat="44.9749961" lon="5.4309452">
<ele>869.92</ele>
<time>2019-07-25T09:10:46Z</time>
</trkpt>
<trkpt lat="44.9749532" lon="5.4309206">
<ele>870.28</ele>
<time>2019-07-25T09:10:47Z</time>
</trkpt>
<trkpt lat="44.9749143" lon="5.4308961">
<ele>870.30</ele>
<time>2019-07-25T09:10:48Z</time>
</trkpt>
<trkpt lat="44.9748801" lon="5.4308667">
<ele>870.33</ele>
<time>2019-07-25T09:10:49Z</time>
</trkpt>
<trkpt lat="44.9748469" lon="5.4308422">
<ele>870.36</ele>
<time>2019-07-25T09:10:50Z</time>
</trkpt>
<trkpt lat="44.9748166" lon="5.4308240">
<ele>870.40</ele>
<time>2019-07-25T09:10:51Z</time>
</trkpt>
<trkpt lat="44.9747846" lon="5.4308020">
<ele>870.43</ele>
<time>2019-07-25T09:10:52Z</time>
</trkpt>
<trkpt lat="44.9747544" lon="5.4307753">
<ele>870.46</ele>
<time>2019-07-25T09:10:53Z</time>
</trkpt>
<trkpt lat="44.9747251" lon="5.4307479">
<ele>870.49</ele>
<time>2019-07-25T09:10:54Z</time>
</trkpt>
<trkpt lat="44.9746910" lon="5.4307296">
<ele>870.51</ele>
<time>2019-07-25T09:10:55Z</time>
</trkpt>
<trkpt lat="44.9746535" lon="5.4307110">
<ele>870.52</ele>
<time>2019-07-25T09:10:56Z</time>
</trkpt>
<trkpt lat="44.9746158" lon="5.4306905">
<ele>870.70</ele>
<time>2019-07-25T09:10:57Z</time>
</trkpt>
<trkpt lat="44.9745790" lon="5.4306696">
<ele>870.72</ele>
<time>2019-07-25T09:10:58Z</time>
</trkpt>
<trkpt lat="44.9745402" lon="5.4306514">
<ele>870.74</ele>
<time>2019-07-25T09:10:59Z</time>
</trkpt>
<trkpt lat="44.9745073" lon="5.4306326">
<ele>870.77</ele>
<time>2019-07-25T09:11:00Z</time>
</trkpt>
<trkpt lat="44.9744714" lon="5.4306141">
<ele>870.81</ele>
<time>2019-07-25T09:11:01Z</time>
</trkpt>
<trkpt lat="44.9744338" lon="5.4305936">
<ele>871.30</ele>
<time>2019-07-25T09:11:02Z</time>
</trkpt>
<trkpt lat="44.9743946" lon="5.4305712">
<ele>871.34</ele>
<time>2019-07-25T09:11:03Z</time>
</trkpt>
<trkpt lat="44.9743608" lon="5.4305500">
<ele>871.39</ele>
<time>2019-07-25T09:11:04Z</time>
</trkpt>
<trkpt lat="44.9743276" lon="5.4305238">
<ele>871.80</ele>
<time>2019-07-25T09:11:05Z</time>
</trkpt>
<trkpt lat="44.9742887" lon="5.4304987">
<ele>871.82</ele>
<time>2019-07-25T09:11:06Z</time>
</trkpt>
<trkpt lat="44.9742575" lon="5.4304806">
<ele>871.85</ele>
<time>2019-07-25T09:11:07Z</time>
</trkpt>
<trkpt lat="44.9742408" lon="5.4304792">
<ele>871.88</ele>
<time>2019-07-25T09:11:08Z</time>
</trkpt>
<trkpt lat="44.9742106" lon="5.4304467">
<ele>871.92</ele>
<time>2019-07-25T09:11:09Z</time>
</trkpt>
<trkpt lat="44.9741768" lon="5.4304084">
<ele>872.23</ele>
<time>2019-07-25T09:11:10Z</time>
</trkpt>
<trkpt lat="44.9741346" lon="5.4303622">
<ele>872.26</ele>
<time>2019-07-25T09:11:11Z</time>
</trkpt>
<trkpt lat="44.9741140" lon="5.4303231">
<ele>872.28</ele>
<time>2019-07-25T09:11:12Z</time>
</trkpt>
<trkpt lat="44.9741027" lon="5.4303074">
<ele>872.30</ele>
<time>2019-07-25T09:11:13Z</time>
</trkpt>
<trkpt lat="44.9740854" lon="5.4302976">
<ele>872.32</ele>
<time>2019-07-25T09:11:14Z</time>
</trkpt>
<trkpt lat="44.9740657" lon="5.4302759">
<ele>872.33</ele>
<time>2019-07-25T09:11:15Z</time>
</trkpt>
<trkpt lat="44.9740366" lon="5.4302480">
<ele>872.34</ele>
<time>2019-07-25T09:11:16Z</time>
</trkpt>
<trkpt lat="44.9740109" lon="5.4302203">
<ele>872.36</ele>
<time>2019-07-25T09:11:17Z</time>
</trkpt>
<trkpt lat="44.9739860" lon="5.4302030">
<ele>872.37</ele>
<time>2019-07-25T09:11:18Z</time>
</trkpt>
<trkpt lat="44.9739577" lon="5.4301877">
<ele>872.39</ele>
<time>2019-07-25T09:11:19Z</time>
</trkpt>
<trkpt lat="44.9739274" lon="5.4301741">
<ele>872.40</ele>
<time>2019-07-25T09:11:20Z</time>
</trkpt>
<trkpt lat="44.9738922" lon="5.4301654">
<ele>872.42</ele>
<time>2019-07-25T09:11:21Z</time>
</trkpt>
<trkpt lat="44.9738568" lon="5.4301627">
<ele>872.43</ele>
<time>2019-07-25T09:11:22Z</time>
</trkpt>
<trkpt lat="44.9738265" lon="5.4301655">
<ele>872.44</ele>
<time>2019-07-25T09:11:23Z</time>
</trkpt>
<trkpt lat="44.9737994" lon="5.4301676">
<ele>872.45</ele>
<time>2019-07-25T09:11:24Z</time>
</trkpt>
<trkpt lat="44.9737645" lon="5.4301692">
<ele>872.46</ele>
<time>2019-07-25T09:11:25Z</time>
</trkpt>
<trkpt lat="44.9737340" lon="5.4301659">
<ele>872.46</ele>
<time>2019-07-25T09:11:26Z</time>
</trkpt>
<trkpt lat="44.9737003" lon="5.4301619">
<ele>872.47</ele>
<time>2019-07-25T09:11:27Z</time>
</trkpt>
<trkpt lat="44.9736696" lon="5.4301564">
<ele>872.48</ele>
<time>2019-07-25T09:11:28Z</time>
</trkpt>
<trkpt lat="44.9736348" lon="5.4301546">
<ele>872.49</ele>
<time>2019-07-25T09:11:29Z</time>
</trkpt>
<trkpt lat="44.9735988" lon="5.4301550">
<ele>872.50</ele>
<time>2019-07-25T09:11:30Z</time>
</trkpt>
<trkpt lat="44.9735588" lon="5.4301536">
<ele>872.50</ele>
<time>2019-07-25T09:11:31Z</time>
</trkpt>
<trkpt lat="44.9735198" lon="5.4301546">
<ele>872.50</ele>
<time>2019-07-25T09:11:32Z</time>
</trkpt>
<trkpt lat="44.9734860" lon="5.4301492">
<ele>872.51</ele>
<time>2019-07-25T09:11:33Z</time>
</trkpt>
<trkpt lat="44.9734531" lon="5.4301481">
<ele>872.51</ele>
<time>2019-07-25T09:11:34Z</time>
</trkpt>
<trkpt lat="44.9734120" lon="5.4301497">
<ele>872.52</ele>
<time>2019-07-25T09:11:35Z</time>
</trkpt>
<trkpt lat="44.9733750" lon="5.4301444">
<ele>872.53</ele>
<time>2019-07-25T09:11:36Z</time>
</trkpt>
<trkpt lat="44.9733365" lon="5.4301418">
<ele>872.54</ele>
<time>2019-07-25T09:11:37Z</time>
</trkpt>
<trkpt lat="44.9732990" lon="5.4301395">
<ele>872.57</ele>
<time>2019-07-25T09:11:38Z</time>
</trkpt>
<trkpt lat="44.9732647" lon="5.4301331">
<ele>872.82</ele>
<time>2019-07-25T09:11:39Z</time>
</trkpt>
<trkpt lat="44.9732201" lon="5.4301258">
<ele>872.85</ele>
<time>2019-07-25T09:11:40Z</time>
</trkpt>
<trkpt lat="44.9731841" lon="5.4301184">
<ele>872.90</ele>
<time>2019-07-25T09:11:41Z</time>
</trkpt>
<trkpt lat="44.9731520" lon="5.4301084">
<ele>872.94</ele>
<time>2019-07-25T09:11:42Z</time>
</trkpt>
<trkpt lat="44.9731181" lon="5.4300988">
<ele>872.98</ele>
<time>2019-07-25T09:11:43Z</time>
</trkpt>
<trkpt lat="44.9730821" lon="5.4300873">
<ele>873.03</ele>
<time>2019-07-25T09:11:44Z</time>
</trkpt>
<trkpt lat="44.9730501" lon="5.4300763">
<ele>873.07</ele>
<time>2019-07-25T09:11:45Z</time>
</trkpt>
<trkpt lat="44.9730216" lon="5.4300637">
<ele>873.12</ele>
<time>2019-07-25T09:11:46Z</time>
</trkpt>
<trkpt lat="44.9729908" lon="5.4300527">
<ele>873.16</ele>
<time>2019-07-25T09:11:47Z</time>
</trkpt>
<trkpt lat="44.9729603" lon="5.4300332">
<ele>873.21</ele>
<time>2019-07-25T09:11:48Z</time>
</trkpt>
<trkpt lat="44.9729374" lon="5.4300131">
<ele>873.25</ele>
<time>2019-07-25T09:11:49Z</time>
</trkpt>
<trkpt lat="44.9729036" lon="5.4300053">
<ele>873.30</ele>
<time>2019-07-25T09:11:50Z</time>
</trkpt>
<trkpt lat="44.9728743" lon="5.4299933">
<ele>873.35</ele>
<time>2019-07-25T09:11:51Z</time>
</trkpt>
<trkpt lat="44.9728444" lon="5.4299727">
<ele>873.40</ele>
<time>2019-07-25T09:11:52Z</time>
</trkpt>
<trkpt lat="44.9728115" lon="5.4299527">
<ele>873.45</ele>
<time>2019-07-25T09:11:53Z</time>
</trkpt>
<trkpt lat="44.9727787" lon="5.4299356">
<ele>873.50</ele>
<time>2019-07-25T09:11:54Z</time>
</trkpt>
<trkpt lat="44.9727489" lon="5.4299204">
<ele>873.55</ele>
<time>2019-07-25T09:11:55Z</time>
</trkpt>
<trkpt lat="44.9727172" lon="5.4299041">
<ele>873.61</ele>
<time>2019-07-25T09:11:56Z</time>
</trkpt>
<trkpt lat="44.9726863" lon="5.4298902">
<ele>873.66</ele>
<time>2019-07-25T09:11:57Z</time>
</trkpt>
<trkpt lat="44.9726517" lon="5.4298780">
<ele>873.71</ele>
<time>2019-07-25T09:11:58Z</time>
</trkpt>
<trkpt lat="44.9726217" lon="5.4298612">
<ele>873.77</ele>
<time>2019-07-25T09:11:59Z</time>
</trkpt>
<trkpt lat="44.9725916" lon="5.4298461">
<ele>873.82</ele>
<time>2019-07-25T09:12:00Z</time>
</trkpt>
<trkpt lat="44.9725647" lon="5.4298279">
<ele>873.88</ele>
<time>2019-07-25T09:12:01Z</time>
</trkpt>
<trkpt lat="44.9725384" lon="5.4298130">
<ele>873.93</ele>
<time>2019-07-25T09:12:02Z</time>
</trkpt>
<trkpt lat="44.9725172" lon="5.4298079">
<ele>873.99</ele>
<time>2019-07-25T09:12:03Z</time>
</trkpt>
<trkpt lat="44.9724967" lon="5.4298038">
<ele>874.04</ele>
<time>2019-07-25T09:12:04Z</time>
</trkpt>
<trkpt lat="44.9724753" lon="5.4297987">
<ele>874.09</ele>
<time>2019-07-25T09:12:05Z</time>
</trkpt>
<trkpt lat="44.9724546" lon="5.4297912">
<ele>874.14</ele>
<time>2019-07-25T09:12:06Z</time>
</trkpt>
<trkpt lat="44.9724285" lon="5.4297878">
<ele>874.19</ele>
<time>2019-07-25T09:12:07Z</time>
</trkpt>
<trkpt lat="44.9724041" lon="5.4297858">
<ele>874.23</ele>
<time>2019-07-25T09:12:08Z</time>
</trkpt>
<trkpt lat="44.9723788" lon="5.4297827">
<ele>874.27</ele>
<time>2019-07-25T09:12:09Z</time>
</trkpt>
<trkpt lat="44.9723580" lon="5.4297775">
<ele>874.31</ele>
<time>2019-07-25T09:12:10Z</time>
</trkpt>
<trkpt lat="44.9723377" lon="5.4297711">
<ele>874.35</ele>
<time>2019-07-25T09:12:11Z</time>
</trkpt>
<trkpt lat="44.9723117" lon="5.4297670">
<ele>874.39</ele>
<time>2019-07-25T09:12:12Z</time>
</trkpt>
<trkpt lat="44.9722885" lon="5.4297641">
<ele>874.42</ele>
<time>2019-07-25T09:12:13Z</time>
</trkpt>
<trkpt lat="44.9722653" lon="5.4297591">
<ele>874.47</ele>
<time>2019-07-25T09:12:14Z</time>
</trkpt>
<trkpt lat="44.9722351" lon="5.4297530">
<ele>874.51</ele>
<time>2019-07-25T09:12:15Z</time>
</trkpt>
<trkpt lat="44.9722055" lon="5.4297432">
<ele>874.56</ele>
<time>2019-07-25T09:12:16Z</time>
</trkpt>
<trkpt lat="44.9721712" lon="5.4297319">
<ele>874.60</ele>
<time>2019-07-25T09:12:17Z</time>
</trkpt>
<trkpt lat="44.9721336" lon="5.4297207">
<ele>874.65</ele>
<time>2019-07-25T09:12:18Z</time>
</trkpt>
<trkpt lat="44.9720909" lon="5.4297079">
<ele>875.21</ele>
<time>2019-07-25T09:12:19Z</time>
</trkpt>
<trkpt lat="44.9720486" lon="5.4296948">
<ele>875.67</ele>
<time>2019-07-25T09:12:20Z</time>
</trkpt>
<trkpt lat="44.9719991" lon="5.4296725">
<ele>876.12</ele>
<time>2019-07-25T09:12:21Z</time>
</trkpt>
<trkpt lat="44.9719514" lon="5.4296496">
<ele>876.49</ele>
<time>2019-07-25T09:12:22Z</time>
</trkpt>
<trkpt lat="44.9719028" lon="5.4296229">
<ele>876.80</ele>
<time>2019-07-25T09:12:23Z</time>
</trkpt>
<trkpt lat="44.9718493" lon="5.4295995">
<ele>877.05</ele>
<time>2019-07-25T09:12:24Z</time>
</trkpt>
<trkpt lat="44.9718007" lon="5.4295759">
<ele>877.26</ele>
<time>2019-07-25T09:12:25Z</time>
</trkpt>
<trkpt lat="44.9717467" lon="5.4295489">
<ele>877.42</ele>
<time>2019-07-25T09:12:26Z</time>
</trkpt>
<trkpt lat="44.9716918" lon="5.4295257">
<ele>877.57</ele>
<time>2019-07-25T09:12:27Z</time>
</trkpt>
<trkpt lat="44.9716371" lon="5.4294981">
<ele>877.64</ele>
<time>2019-07-25T09:12:28Z</time>
</trkpt>
<trkpt lat="44.9715862" lon="5.4294686">
<ele>877.71</ele>
<time>2019-07-25T09:12:29Z</time>
</trkpt>
<trkpt lat="44.9715369" lon="5.4294337">
<ele>877.81</ele>
<time>2019-07-25T09:12:30Z</time>
</trkpt>
<trkpt lat="44.9714864" lon="5.4293947">
<ele>877.94</ele>
<time>2019-07-25T09:12:31Z</time>
</trkpt>
<trkpt lat="44.9714321" lon="5.4293501">
<ele>878.02</ele>
<time>2019-07-25T09:12:32Z</time>
</trkpt>
<trkpt lat="44.9713740" lon="5.4293080">
<ele>878.15</ele>
<time>2019-07-25T09:12:33Z</time>
</trkpt>
<trkpt lat="44.9713202" lon="5.4292649">
<ele>878.32</ele>
<time>2019-07-25T09:12:34Z</time>
</trkpt>
<trkpt lat="44.9712693" lon="5.4292271">
<ele>878.52</ele>
<time>2019-07-25T09:12:35Z</time>
</trkpt>
<trkpt lat="44.9712172" lon="5.4291961">
<ele>878.78</ele>
<time>2019-07-25T09:12:36Z</time>
</trkpt>
<trkpt lat="44.9711658" lon="5.4291674">
<ele>879.08</ele>
<time>2019-07-25T09:12:37Z</time>
</trkpt>
<trkpt lat="44.9711186" lon="5.4291380">
<ele>879.34</ele>
<time>2019-07-25T09:12:38Z</time>
</trkpt>
<trkpt lat="44.9710728" lon="5.4291150">
<ele>879.55</ele>
<time>2019-07-25T09:12:39Z</time>
</trkpt>
<trkpt lat="44.9710256" lon="5.4290927">
<ele>879.76</ele>
<time>2019-07-25T09:12:40Z</time>
</trkpt>
<trkpt lat="44.9709747" lon="5.4290722">
<ele>879.89</ele>
<time>2019-07-25T09:12:41Z</time>
</trkpt>
<trkpt lat="44.9709250" lon="5.4290528">
<ele>879.98</ele>
<time>2019-07-25T09:12:42Z</time>
</trkpt>
<trkpt lat="44.9708756" lon="5.4290334">
<ele>880.01</ele>
<time>2019-07-25T09:12:43Z</time>
</trkpt>
<trkpt lat="44.9708294" lon="5.4290155">
<ele>879.97</ele>
<time>2019-07-25T09:12:44Z</time>
</trkpt>
<trkpt lat="44.9707826" lon="5.4289979">
<ele>879.89</ele>
<time>2019-07-25T09:12:45Z</time>
</trkpt>
<trkpt lat="44.9707306" lon="5.4289773">
<ele>879.77</ele>
<time>2019-07-25T09:12:46Z</time>
</trkpt>
<trkpt lat="44.9706789" lon="5.4289606">
<ele>879.66</ele>
<time>2019-07-25T09:12:47Z</time>
</trkpt>
<trkpt lat="44.9706239" lon="5.4289444">
<ele>879.60</ele>
<time>2019-07-25T09:12:48Z</time>
</trkpt>
<trkpt lat="44.9705720" lon="5.4289317">
<ele>879.53</ele>
<time>2019-07-25T09:12:49Z</time>
</trkpt>
<trkpt lat="44.9705188" lon="5.4289226">
<ele>879.38</ele>
<time>2019-07-25T09:12:50Z</time>
</trkpt>
<trkpt lat="44.9704619" lon="5.4289227">
<ele>879.24</ele>
<time>2019-07-25T09:12:51Z</time>
</trkpt>
<trkpt lat="44.9704060" lon="5.4289246">
<ele>879.07</ele>
<time>2019-07-25T09:12:52Z</time>
</trkpt>
<trkpt lat="44.9703565" lon="5.4289214">
<ele>878.87</ele>
<time>2019-07-25T09:12:53Z</time>
</trkpt>
<trkpt lat="44.9703078" lon="5.4289215">
<ele>878.71</ele>
<time>2019-07-25T09:12:54Z</time>
</trkpt>
<trkpt lat="44.9702516" lon="5.4289275">
<ele>878.64</ele>
<time>2019-07-25T09:12:55Z</time>
</trkpt>
<trkpt lat="44.9702011" lon="5.4289272">
<ele>878.67</ele>
<time>2019-07-25T09:12:56Z</time>
</trkpt>
<trkpt lat="44.9701498" lon="5.4289265">
<ele>878.65</ele>
<time>2019-07-25T09:12:57Z</time>
</trkpt>
<trkpt lat="44.9700983" lon="5.4289297">
<ele>878.66</ele>
<time>2019-07-25T09:12:58Z</time>
</trkpt>
<trkpt lat="44.9700513" lon="5.4289273">
<ele>878.69</ele>
<time>2019-07-25T09:12:59Z</time>
</trkpt>
<trkpt lat="44.9700040" lon="5.4289201">
<ele>878.58</ele>
<time>2019-07-25T09:13:00Z</time>
</trkpt>
<trkpt lat="44.9699524" lon="5.4289179">
<ele>878.46</ele>
<time>2019-07-25T09:13:01Z</time>
</trkpt>
<trkpt lat="44.9698980" lon="5.4289308">
<ele>878.43</ele>
<time>2019-07-25T09:13:02Z</time>
</trkpt>
<trkpt lat="44.9698430" lon="5.4289422">
<ele>878.44</ele>
<time>2019-07-25T09:13:03Z</time>
</trkpt>
<trkpt lat="44.9697932" lon="5.4289336">
<ele>878.44</ele>
<time>2019-07-25T09:13:04Z</time>
</trkpt>
<trkpt lat="44.9697386" lon="5.4289384">
<ele>878.42</ele>
<time>2019-07-25T09:13:05Z</time>
</trkpt>
<trkpt lat="44.9696858" lon="5.4289412">
<ele>878.39</ele>
<time>2019-07-25T09:13:06Z</time>
</trkpt>
<trkpt lat="44.9696354" lon="5.4289439">
<ele>878.35</ele>
<time>2019-07-25T09:13:07Z</time>
</trkpt>
<trkpt lat="44.9695840" lon="5.4289461">
<ele>878.28</ele>
<time>2019-07-25T09:13:08Z</time>
</trkpt>
<trkpt lat="44.9695325" lon="5.4289570">
<ele>878.21</ele>
<time>2019-07-25T09:13:09Z</time>
</trkpt>
<trkpt lat="44.9694824" lon="5.4289593">
<ele>878.09</ele>
<time>2019-07-25T09:13:10Z</time>
</trkpt>
<trkpt lat="44.9694301" lon="5.4289625">
<ele>877.99</ele>
<time>2019-07-25T09:13:11Z</time>
</trkpt>
<trkpt lat="44.9693838" lon="5.4289643">
<ele>877.89</ele>
<time>2019-07-25T09:13:12Z</time>
</trkpt>
<trkpt lat="44.9693392" lon="5.4289758">
<ele>877.80</ele>
<time>2019-07-25T09:13:13Z</time>
</trkpt>
<trkpt lat="44.9693011" lon="5.4289807">
<ele>877.79</ele>
<time>2019-07-25T09:13:14Z</time>
</trkpt>
<trkpt lat="44.9692740" lon="5.4289912">
<ele>877.79</ele>
<time>2019-07-25T09:13:15Z</time>
</trkpt>
<trkpt lat="44.9692489" lon="5.4290044">
<ele>877.79</ele>
<time>2019-07-25T09:13:16Z</time>
</trkpt>
<trkpt lat="44.9692250" lon="5.4290147">
<ele>877.79</ele>
<time>2019-07-25T09:13:17Z</time>
</trkpt>
<trkpt lat="44.9691956" lon="5.4290263">
<ele>877.80</ele>
<time>2019-07-25T09:13:18Z</time>
</trkpt>
<trkpt lat="44.9691642" lon="5.4290376">
<ele>877.81</ele>
<time>2019-07-25T09:13:19Z</time>
</trkpt>
<trkpt lat="44.9691307" lon="5.4290455">
<ele>877.83</ele>
<time>2019-07-25T09:13:20Z</time>
</trkpt>
<trkpt lat="44.9690974" lon="5.4290466">
<ele>877.84</ele>
<time>2019-07-25T09:13:21Z</time>
</trkpt>
<trkpt lat="44.9690602" lon="5.4290486">
<ele>877.86</ele>
<time>2019-07-25T09:13:22Z</time>
</trkpt>
<trkpt lat="44.9690314" lon="5.4290487">
<ele>877.87</ele>
<time>2019-07-25T09:13:23Z</time>
</trkpt>
<trkpt lat="44.9690079" lon="5.4290430">
<ele>877.89</ele>
<time>2019-07-25T09:13:24Z</time>
</trkpt>
<trkpt lat="44.9689924" lon="5.4290324">
<ele>877.91</ele>
<time>2019-07-25T09:13:25Z</time>
</trkpt>
<trkpt lat="44.9689739" lon="5.4290212">
<ele>877.93</ele>
<time>2019-07-25T09:13:26Z</time>
</trkpt>
<trkpt lat="44.9689553" lon="5.4290134">
<ele>877.94</ele>
<time>2019-07-25T09:13:27Z</time>
</trkpt>
<trkpt lat="44.9689371" lon="5.4290075">
<ele>877.96</ele>
<time>2019-07-25T09:13:28Z</time>
</trkpt>
<trkpt lat="44.9689142" lon="5.4290027">
<ele>877.97</ele>
<time>2019-07-25T09:13:29Z</time>
</trkpt>
<trkpt lat="44.9688948" lon="5.4289884">
<ele>877.99</ele>
<time>2019-07-25T09:13:30Z</time>
</trkpt>
<trkpt lat="44.9688730" lon="5.4289736">
<ele>878.01</ele>
<time>2019-07-25T09:13:31Z</time>
</trkpt>
<trkpt lat="44.9688477" lon="5.4289570">
<ele>878.02</ele>
<time>2019-07-25T09:13:32Z</time>
</trkpt>
<trkpt lat="44.9688284" lon="5.4289533">
<ele>878.04</ele>
<time>2019-07-25T09:13:33Z</time>
</trkpt>
<trkpt lat="44.9688122" lon="5.4289494">
<ele>878.06</ele>
<time>2019-07-25T09:13:34Z</time>
</trkpt>
<trkpt lat="44.9688028" lon="5.4289355">
<ele>878.08</ele>
<time>2019-07-25T09:13:35Z</time>
</trkpt>
<trkpt lat="44.9687967" lon="5.4289199">
<ele>878.09</ele>
<time>2019-07-25T09:13:36Z</time>
</trkpt>
<trkpt lat="44.9687824" lon="5.4289043">
<ele>878.11</ele>
<time>2019-07-25T09:13:37Z</time>
</trkpt>
<trkpt lat="44.9687663" lon="5.4288942">
<ele>878.12</ele>
<time>2019-07-25T09:13:38Z</time>
</trkpt>
<trkpt lat="44.9687576" lon="5.4288903">
<ele>878.13</ele>
<time>2019-07-25T09:13:39Z</time>
</trkpt>
<trkpt lat="44.9687592" lon="5.4288961">
<ele>878.13</ele>
<time>2019-07-25T09:13:40Z</time>
</trkpt>
<trkpt lat="44.9687610" lon="5.4288998">
<ele>878.13</ele>
<time>2019-07-25T09:13:41Z</time>
</trkpt>
<trkpt lat="44.9687626" lon="5.4289026">
<ele>878.13</ele>
<time>2019-07-25T09:13:42Z</time>
</trkpt>
<trkpt lat="44.9687608" lon="5.4289004">
<ele>878.13</ele>
<time>2019-07-25T09:13:43Z</time>
</trkpt>
<trkpt lat="44.9687612" lon="5.4289011">
<ele>878.13</ele>
<time>2019-07-25T09:13:44Z</time>
</trkpt>
<trkpt lat="44.9687611" lon="5.4289015">
<ele>878.14</ele>
<time>2019-07-25T09:13:45Z</time>
</trkpt>
<trkpt lat="44.9687617" lon="5.4289006">
<ele>878.14</ele>
<time>2019-07-25T09:13:46Z</time>
</trkpt>
<trkpt lat="44.9687618" lon="5.4289005">
<ele>878.14</ele>
<time>2019-07-25T09:13:47Z</time>
</trkpt>
<trkpt lat="44.9687623" lon="5.4288989">
<ele>878.14</ele>
<time>2019-07-25T09:13:48Z</time>
</trkpt>
<trkpt lat="44.9687629" lon="5.4288981">
<ele>878.14</ele>
<time>2019-07-25T09:13:49Z</time>
</trkpt>
<trkpt lat="44.9687634" lon="5.4288971">
<ele>878.14</ele>
<time>2019-07-25T09:13:50Z</time>
</trkpt>
<trkpt lat="44.9687630" lon="5.4288973">
<ele>878.14</ele>
<time>2019-07-25T09:13:51Z</time>
</trkpt>
<trkpt lat="44.9687630" lon="5.4288976">
<ele>878.14</ele>
<time>2019-07-25T09:13:52Z</time>
</trkpt>
<trkpt lat="44.9687622" lon="5.4288984">
<ele>878.14</ele>
<time>2019-07-25T09:13:53Z</time>
</trkpt>
<trkpt lat="44.9687619" lon="5.4288985">
<ele>878.14</ele>
<time>2019-07-25T09:13:54Z</time>
</trkpt>
<trkpt lat="44.9687618" lon="5.4288983">
<ele>878.14</ele>
<time>2019-07-25T09:13:55Z</time>
</trkpt>
<trkpt lat="44.9687611" lon="5.4288991">
<ele>878.14</ele>
<time>2019-07-25T09:13:56Z</time>
</trkpt>
<trkpt lat="44.9687610" lon="5.4288994">
<ele>878.14</ele>
<time>2019-07-25T09:13:57Z</time>
</trkpt>
<trkpt lat="44.9687612" lon="5.4288988">
<ele>878.14</ele>
<time>2019-07-25T09:13:58Z</time>
</trkpt>
<trkpt lat="44.9687612" lon="5.4288985">
<ele>878.14</ele>
<time>2019-07-25T09:13:59Z</time>
</trkpt>
<trkpt lat="44.9687614" lon="5.4288990">
<ele>878.14</ele>
<time>2019-07-25T09:14:00Z</time>
</trkpt>
<trkpt lat="44.9687612" lon="5.4288987">
<ele>878.13</ele>
<time>2019-07-25T09:14:01Z</time>
</trkpt>
<trkpt lat="44.9687617" lon="5.4288976">
<ele>878.13</ele>
<time>2019-07-25T09:14:02Z</time>
</trkpt>
<trkpt lat="44.9687619" lon="5.4288967">
<ele>878.13</ele>
<time>2019-07-25T09:14:03Z</time>
</trkpt>
<trkpt lat="44.9687616" lon="5.4288972">
<ele>878.13</ele>
<time>2019-07-25T09:14:04Z</time>
</trkpt>
<trkpt lat="44.9687630" lon="5.4288955">
<ele>878.13</ele>
<time>2019-07-25T09:14:05Z</time>
</trkpt>
<trkpt lat="44.9687631" lon="5.4288953">
<ele>878.13</ele>
<time>2019-07-25T09:14:06Z</time>
</trkpt>
<trkpt lat="44.9687638" lon="5.4288944">
<ele>878.14</ele>
<time>2019-07-25T09:14:07Z</time>
</trkpt>
<trkpt lat="44.9687641" lon="5.4288937">
<ele>878.14</ele>
<time>2019-07-25T09:14:08Z</time>
</trkpt>
<trkpt lat="44.9687642" lon="5.4288936">
<ele>878.14</ele>
<time>2019-07-25T09:14:09Z</time>
</trkpt>
<trkpt lat="44.9687643" lon="5.4288935">
<ele>878.14</ele>
<time>2019-07-25T09:14:10Z</time>
</trkpt>
<trkpt lat="44.9687658" lon="5.4288913">
<ele>878.14</ele>
<time>2019-07-25T09:14:11Z</time>
</trkpt>
<trkpt lat="44.9687657" lon="5.4288919">
<ele>878.14</ele>
<time>2019-07-25T09:14:12Z</time>
</trkpt>
<trkpt lat="44.9687658" lon="5.4288915">
<ele>878.14</ele>
<time>2019-07-25T09:14:13Z</time>
</trkpt>
<trkpt lat="44.9687658" lon="5.4288914">
<ele>878.15</ele>
<time>2019-07-25T09:14:14Z</time>
</trkpt>
<trkpt lat="44.9687655" lon="5.4288917">
<ele>878.15</ele>
<time>2019-07-25T09:14:15Z</time>
</trkpt>
<trkpt lat="44.9687654" lon="5.4288916">
<ele>878.15</ele>
<time>2019-07-25T09:14:16Z</time>
</trkpt>
<trkpt lat="44.9687654" lon="5.4288913">
<ele>878.15</ele>
<time>2019-07-25T09:14:17Z</time>
</trkpt>
<trkpt lat="44.9687654" lon="5.4288909">
<ele>878.15</ele>
<time>2019-07-25T09:14:18Z</time>
</trkpt>
<trkpt lat="44.9687657" lon="5.4288903">
<ele>878.15</ele>
<time>2019-07-25T09:14:19Z</time>
</trkpt>
<trkpt lat="44.9687654" lon="5.4288903">
<ele>878.15</ele>
<time>2019-07-25T09:14:20Z</time>
</trkpt>
<trkpt lat="44.9687656" lon="5.4288891">
<ele>878.15</ele>
<time>2019-07-25T09:14:21Z</time>
</trkpt>
<trkpt lat="44.9687648" lon="5.4288889">
<ele>878.15</ele>
<time>2019-07-25T09:14:22Z</time>
</trkpt>
<trkpt lat="44.9687625" lon="5.4288836">
<ele>878.13</ele>
<time>2019-07-25T09:14:23Z</time>
</trkpt>
<trkpt lat="44.9687570" lon="5.4288771">
<ele>878.12</ele>
<time>2019-07-25T09:14:24Z</time>
</trkpt>
<trkpt lat="44.9687254" lon="5.4288443">
<ele>878.11</ele>
<time>2019-07-25T09:14:25Z</time>
</trkpt>
<trkpt lat="44.9686847" lon="5.4288214">
<ele>878.10</ele>
<time>2019-07-25T09:14:26Z</time>
</trkpt>
<trkpt lat="44.9686514" lon="5.4287920">
<ele>878.09</ele>
<time>2019-07-25T09:14:27Z</time>
</trkpt>
<trkpt lat="44.9686075" lon="5.4287814">
<ele>877.98</ele>
<time>2019-07-25T09:14:28Z</time>
</trkpt>
<trkpt lat="44.9685730" lon="5.4287432">
<ele>877.90</ele>
<time>2019-07-25T09:14:29Z</time>
</trkpt>
<trkpt lat="44.9685377" lon="5.4286977">
<ele>877.80</ele>
<time>2019-07-25T09:14:30Z</time>
</trkpt>
<trkpt lat="44.9685115" lon="5.4286404">
<ele>877.70</ele>
<time>2019-07-25T09:14:31Z</time>
</trkpt>
<trkpt lat="44.9684804" lon="5.4285817">
<ele>877.60</ele>
<time>2019-07-25T09:14:32Z</time>
</trkpt>
<trkpt lat="44.9684534" lon="5.4285155">
<ele>877.52</ele>
<time>2019-07-25T09:14:33Z</time>
</trkpt>
<trkpt lat="44.9684164" lon="5.4284463">
<ele>877.46</ele>
<time>2019-07-25T09:14:34Z</time>
</trkpt>
<trkpt lat="44.9683823" lon="5.4283766">
<ele>877.42</ele>
<time>2019-07-25T09:14:35Z</time>
</trkpt>
<trkpt lat="44.9683503" lon="5.4283052">
<ele>877.38</ele>
<time>2019-07-25T09:14:36Z</time>
</trkpt>
<trkpt lat="44.9683163" lon="5.4282269">
<ele>877.32</ele>
<time>2019-07-25T09:14:37Z</time>
</trkpt>
<trkpt lat="44.9682823" lon="5.4281445">
<ele>877.26</ele>
<time>2019-07-25T09:14:38Z</time>
</trkpt>
<trkpt lat="44.9682480" lon="5.4280593">
<ele>877.17</ele>
<time>2019-07-25T09:14:39Z</time>
</trkpt>
<trkpt lat="44.9682161" lon="5.4279814">
<ele>877.05</ele>
<time>2019-07-25T09:14:40Z</time>
</trkpt>
<trkpt lat="44.9681819" lon="5.4279013">
<ele>876.92</ele>
<time>2019-07-25T09:14:41Z</time>
</trkpt>
<trkpt lat="44.9681470" lon="5.4278209">
<ele>876.76</ele>
<time>2019-07-25T09:14:42Z</time>
</trkpt>
<trkpt lat="44.9681152" lon="5.4277491">
<ele>876.61</ele>
<time>2019-07-25T09:14:43Z</time>
</trkpt>
<trkpt lat="44.9680762" lon="5.4276726">
<ele>876.46</ele>
<time>2019-07-25T09:14:44Z</time>
</trkpt>
<trkpt lat="44.9680416" lon="5.4276018">
<ele>876.23</ele>
<time>2019-07-25T09:14:45Z</time>
</trkpt>
<trkpt lat="44.9679925" lon="5.4275314">
<ele>876.06</ele>
<time>2019-07-25T09:14:46Z</time>
</trkpt>
<trkpt lat="44.9679398" lon="5.4274668">
<ele>875.89</ele>
<time>2019-07-25T09:14:47Z</time>
</trkpt>
<trkpt lat="44.9678863" lon="5.4274054">
<ele>875.68</ele>
<time>2019-07-25T09:14:48Z</time>
</trkpt>
<trkpt lat="44.9678275" lon="5.4273538">
<ele>875.49</ele>
<time>2019-07-25T09:14:49Z</time>
</trkpt>
<trkpt lat="44.9677662" lon="5.4273162">
<ele>875.33</ele>
<time>2019-07-25T09:14:50Z</time>
</trkpt>
<trkpt lat="44.9677027" lon="5.4272872">
<ele>875.13</ele>
<time>2019-07-25T09:14:51Z</time>
</trkpt>
<trkpt lat="44.9676515" lon="5.4272652">
<ele>875.00</ele>
<time>2019-07-25T09:14:52Z</time>
</trkpt>
<trkpt lat="44.9675906" lon="5.4272309">
<ele>874.89</ele>
<time>2019-07-25T09:14:53Z</time>
</trkpt>
<trkpt lat="44.9675406" lon="5.4272037">
<ele>874.80</ele>
<time>2019-07-25T09:14:54Z</time>
</trkpt>
<trkpt lat="44.9674888" lon="5.4271748">
<ele>874.71</ele>
<time>2019-07-25T09:14:55Z</time>
</trkpt>
<trkpt lat="44.9674301" lon="5.4271416">
<ele>874.65</ele>
<time>2019-07-25T09:14:56Z</time>
</trkpt>
<trkpt lat="44.9673771" lon="5.4271151">
<ele>874.70</ele>
<time>2019-07-25T09:14:57Z</time>
</trkpt>
<trkpt lat="44.9673242" lon="5.4270884">
<ele>874.77</ele>
<time>2019-07-25T09:14:58Z</time>
</trkpt>
<trkpt lat="44.9672673" lon="5.4270558">
<ele>874.84</ele>
<time>2019-07-25T09:14:59Z</time>
</trkpt>
<trkpt lat="44.9672160" lon="5.4270248">
<ele>874.92</ele>
<time>2019-07-25T09:15:00Z</time>
</trkpt>
<trkpt lat="44.9671656" lon="5.4269905">
<ele>875.00</ele>
<time>2019-07-25T09:15:01Z</time>
</trkpt>
<trkpt lat="44.9671163" lon="5.4269525">
<ele>875.08</ele>
<time>2019-07-25T09:15:02Z</time>
</trkpt>
<trkpt lat="44.9670689" lon="5.4269108">
<ele>875.17</ele>
<time>2019-07-25T09:15:03Z</time>
</trkpt>
<trkpt lat="44.9670226" lon="5.4268696">
<ele>875.25</ele>
<time>2019-07-25T09:15:04Z</time>
</trkpt>
<trkpt lat="44.9669852" lon="5.4268205">
<ele>875.28</ele>
<time>2019-07-25T09:15:05Z</time>
</trkpt>
<trkpt lat="44.9669513" lon="5.4267679">
<ele>875.27</ele>
<time>2019-07-25T09:15:06Z</time>
</trkpt>
<trkpt lat="44.9669133" lon="5.4267228">
<ele>875.25</ele>
<time>2019-07-25T09:15:07Z</time>
</trkpt>
<trkpt lat="44.9668779" lon="5.4266727">
<ele>875.26</ele>
<time>2019-07-25T09:15:08Z</time>
</trkpt>
<trkpt lat="44.9668487" lon="5.4266154">
<ele>875.20</ele>
<time>2019-07-25T09:15:09Z</time>
</trkpt>
<trkpt lat="44.9668194" lon="5.4265575">
<ele>875.17</ele>
<time>2019-07-25T09:15:10Z</time>
</trkpt>
<trkpt lat="44.9667929" lon="5.4264998">
<ele>875.14</ele>
<time>2019-07-25T09:15:11Z</time>
</trkpt>
<trkpt lat="44.9667655" lon="5.4264425">
<ele>875.15</ele>
<time>2019-07-25T09:15:12Z</time>
</trkpt>
<trkpt lat="44.9667386" lon="5.4263837">
<ele>875.18</ele>
<time>2019-07-25T09:15:13Z</time>
</trkpt>
<trkpt lat="44.9667123" lon="5.4263223">
<ele>875.22</ele>
<time>2019-07-25T09:15:14Z</time>
</trkpt>
<trkpt lat="44.9666857" lon="5.4262624">
<ele>875.25</ele>
<time>2019-07-25T09:15:15Z</time>
</trkpt>
<trkpt lat="44.9666543" lon="5.4262033">
<ele>875.28</ele>
<time>2019-07-25T09:15:16Z</time>
</trkpt>
<trkpt lat="44.9666233" lon="5.4261411">
<ele>875.29</ele>
<time>2019-07-25T09:15:17Z</time>
</trkpt>
<trkpt lat="44.9665938" lon="5.4260805">
<ele>875.29</ele>
<time>2019-07-25T09:15:18Z</time>
</trkpt>
<trkpt lat="44.9665580" lon="5.4260297">
<ele>875.28</ele>
<time>2019-07-25T09:15:19Z</time>
</trkpt>
<trkpt lat="44.9665212" lon="5.4259779">
<ele>875.21</ele>
<time>2019-07-25T09:15:20Z</time>
</trkpt>
<trkpt lat="44.9664830" lon="5.4259246">
<ele>875.09</ele>
<time>2019-07-25T09:15:21Z</time>
</trkpt>
<trkpt lat="44.9664457" lon="5.4258724">
<ele>875.04</ele>
<time>2019-07-25T09:15:22Z</time>
</trkpt>
<trkpt lat="44.9664071" lon="5.4258261">
<ele>875.00</ele>
<time>2019-07-25T09:15:23Z</time>
</trkpt>
<trkpt lat="44.9663607" lon="5.4257901">
<ele>874.99</ele>
<time>2019-07-25T09:15:24Z</time>
</trkpt>
<trkpt lat="44.9663155" lon="5.4257568">
<ele>874.99</ele>
<time>2019-07-25T09:15:25Z</time>
</trkpt>
<trkpt lat="44.9662711" lon="5.4257235">
<ele>875.02</ele>
<time>2019-07-25T09:15:26Z</time>
</trkpt>
<trkpt lat="44.9662296" lon="5.4256888">
<ele>875.05</ele>
<time>2019-07-25T09:15:27Z</time>
</trkpt>
<trkpt lat="44.9661909" lon="5.4256512">
<ele>875.08</ele>
<time>2019-07-25T09:15:28Z</time>
</trkpt>
<trkpt lat="44.9661531" lon="5.4256107">
<ele>875.10</ele>
<time>2019-07-25T09:15:29Z</time>
</trkpt>
<trkpt lat="44.9661185" lon="5.4255672">
<ele>875.15</ele>
<time>2019-07-25T09:15:30Z</time>
</trkpt>
<trkpt lat="44.9660868" lon="5.4255198">
<ele>875.20</ele>
<time>2019-07-25T09:15:31Z</time>
</trkpt>
<trkpt lat="44.9660570" lon="5.4254735">
<ele>875.22</ele>
<time>2019-07-25T09:15:32Z</time>
</trkpt>
<trkpt lat="44.9660282" lon="5.4254306">
<ele>875.27</ele>
<time>2019-07-25T09:15:34Z</time>
</trkpt>
<trkpt lat="44.9660008" lon="5.4253884">
<ele>875.31</ele>
<time>2019-07-25T09:15:35Z</time>
</trkpt>
<trkpt lat="44.9659740" lon="5.4253414">
<ele>875.37</ele>
<time>2019-07-25T09:15:36Z</time>
</trkpt>
<trkpt lat="44.9659456" lon="5.4252965">
<ele>875.42</ele>
<time>2019-07-25T09:15:37Z</time>
</trkpt>
<trkpt lat="44.9659168" lon="5.4252498">
<ele>875.50</ele>
<time>2019-07-25T09:15:38Z</time>
</trkpt>
<trkpt lat="44.9658910" lon="5.4252030">
<ele>875.59</ele>
<time>2019-07-25T09:15:39Z</time>
</trkpt>
<trkpt lat="44.9658650" lon="5.4251532">
<ele>875.71</ele>
<time>2019-07-25T09:15:40Z</time>
</trkpt>
<trkpt lat="44.9658382" lon="5.4251030">
<ele>875.85</ele>
<time>2019-07-25T09:15:41Z</time>
</trkpt>
<trkpt lat="44.9658107" lon="5.4250521">
<ele>876.00</ele>
<time>2019-07-25T09:15:42Z</time>
</trkpt>
<trkpt lat="44.9657829" lon="5.4249971">
<ele>876.13</ele>
<time>2019-07-25T09:15:43Z</time>
</trkpt>
<trkpt lat="44.9657583" lon="5.4249450">
<ele>876.29</ele>
<time>2019-07-25T09:15:44Z</time>
</trkpt>
<trkpt lat="44.9657340" lon="5.4248890">
<ele>876.48</ele>
<time>2019-07-25T09:15:45Z</time>
</trkpt>
<trkpt lat="44.9657108" lon="5.4248310">
<ele>876.64</ele>
<time>2019-07-25T09:15:46Z</time>
</trkpt>
<trkpt lat="44.9656890" lon="5.4247753">
<ele>876.76</ele>
<time>2019-07-25T09:15:47Z</time>
</trkpt>
<trkpt lat="44.9656659" lon="5.4247192">
<ele>876.85</ele>
<time>2019-07-25T09:15:48Z</time>
</trkpt>
<trkpt lat="44.9656429" lon="5.4246690">
<ele>876.93</ele>
<time>2019-07-25T09:15:49Z</time>
</trkpt>
<trkpt lat="44.9656253" lon="5.4246174">
<ele>876.99</ele>
<time>2019-07-25T09:15:50Z</time>
</trkpt>
<trkpt lat="44.9656062" lon="5.4245702">
<ele>877.05</ele>
<time>2019-07-25T09:15:51Z</time>
</trkpt>
<trkpt lat="44.9655887" lon="5.4245228">
<ele>877.11</ele>
<time>2019-07-25T09:15:52Z</time>
</trkpt>
<trkpt lat="44.9655754" lon="5.4244740">
<ele>877.11</ele>
<time>2019-07-25T09:15:53Z</time>
</trkpt>
<trkpt lat="44.9655616" lon="5.4244280">
<ele>877.12</ele>
<time>2019-07-25T09:15:54Z</time>
</trkpt>
<trkpt lat="44.9655492" lon="5.4243795">
<ele>877.12</ele>
<time>2019-07-25T09:15:55Z</time>
</trkpt>
<trkpt lat="44.9655402" lon="5.4243294">
<ele>877.12</ele>
<time>2019-07-25T09:15:56Z</time>
</trkpt>
<trkpt lat="44.9655282" lon="5.4242847">
<ele>877.12</ele>
<time>2019-07-25T09:15:57Z</time>
</trkpt>
<trkpt lat="44.9655159" lon="5.4242354">
<ele>877.14</ele>
<time>2019-07-25T09:15:58Z</time>
</trkpt>
<trkpt lat="44.9655043" lon="5.4241770">
<ele>877.15</ele>
<time>2019-07-25T09:15:59Z</time>
</trkpt>
<trkpt lat="44.9654948" lon="5.4241199">
<ele>877.14</ele>
<time>2019-07-25T09:16:00Z</time>
</trkpt>
<trkpt lat="44.9654884" lon="5.4240585">
<ele>877.11</ele>
<time>2019-07-25T09:16:01Z</time>
</trkpt>
<trkpt lat="44.9654812" lon="5.4240049">
<ele>877.11</ele>
<time>2019-07-25T09:16:02Z</time>
</trkpt>
<trkpt lat="44.9654700" lon="5.4239510">
<ele>877.12</ele>
<time>2019-07-25T09:16:03Z</time>
</trkpt>
<trkpt lat="44.9654584" lon="5.4238971">
<ele>877.15</ele>
<time>2019-07-25T09:16:04Z</time>
</trkpt>
<trkpt lat="44.9654479" lon="5.4238575">
<ele>877.28</ele>
<time>2019-07-25T09:16:05Z</time>
</trkpt>
<trkpt lat="44.9654354" lon="5.4238164">
<ele>877.30</ele>
<time>2019-07-25T09:16:06Z</time>
</trkpt>
<trkpt lat="44.9654185" lon="5.4237877">
<ele>877.32</ele>
<time>2019-07-25T09:16:07Z</time>
</trkpt>
<trkpt lat="44.9654049" lon="5.4237664">
<ele>877.36</ele>
<time>2019-07-25T09:16:08Z</time>
</trkpt>
<trkpt lat="44.9653948" lon="5.4237464">
<ele>877.40</ele>
<time>2019-07-25T09:16:09Z</time>
</trkpt>
<trkpt lat="44.9653884" lon="5.4237299">
<ele>877.45</ele>
<time>2019-07-25T09:16:10Z</time>
</trkpt>
<trkpt lat="44.9653884" lon="5.4237299">
<ele>877.49</ele>
<time>2019-07-25T09:16:11Z</time>
</trkpt>
<trkpt lat="44.9653884" lon="5.4237299">
<ele>877.50</ele>
<time>2019-07-25T09:16:12Z</time>
</trkpt>
<trkpt lat="44.9653884" lon="5.4237299">
<ele>877.56</ele>
<time>2019-07-25T09:16:13Z</time>
</trkpt>
<trkpt lat="44.9653813" lon="5.4237082">
<ele>877.62</ele>
<time>2019-07-25T09:16:14Z</time>
</trkpt>
<trkpt lat="44.9653813" lon="5.4237082">
<ele>877.68</ele>
<time>2019-07-25T09:16:15Z</time>
</trkpt>
<trkpt lat="44.9653813" lon="5.4237082">
<ele>877.75</ele>
<time>2019-07-25T09:16:16Z</time>
</trkpt>
<trkpt lat="44.9653747" lon="5.4237159">
<ele>877.81</ele>
<time>2019-07-25T09:16:17Z</time>
</trkpt>
<trkpt lat="44.9653763" lon="5.4237372">
<ele>877.88</ele>
<time>2019-07-25T09:16:18Z</time>
</trkpt>
<trkpt lat="44.9653902" lon="5.4237642">
<ele>877.94</ele>
<time>2019-07-25T09:16:19Z</time>
</trkpt>
<trkpt lat="44.9654051" lon="5.4237981">
<ele>878.00</ele>
<time>2019-07-25T09:16:20Z</time>
</trkpt>
<trkpt lat="44.9654196" lon="5.4238310">
<ele>878.06</ele>
<time>2019-07-25T09:16:21Z</time>
</trkpt>
<trkpt lat="44.9654292" lon="5.4238572">
<ele>878.12</ele>
<time>2019-07-25T09:16:22Z</time>
</trkpt>
<trkpt lat="44.9654354" lon="5.4238735">
<ele>878.17</ele>
<time>2019-07-25T09:16:23Z</time>
</trkpt>
<trkpt lat="44.9654450" lon="5.4238857">
<ele>878.22</ele>
<time>2019-07-25T09:16:24Z</time>
</trkpt>
<trkpt lat="44.9654450" lon="5.4238857">
<ele>878.26</ele>
<time>2019-07-25T09:16:25Z</time>
</trkpt>
<trkpt lat="44.9654450" lon="5.4238857">
<ele>878.30</ele>
<time>2019-07-25T09:16:26Z</time>
</trkpt>
<trkpt lat="44.9654554" lon="5.4238820">
<ele>878.34</ele>
<time>2019-07-25T09:16:27Z</time>
</trkpt>
<trkpt lat="44.9654493" lon="5.4238472">
<ele>878.38</ele>
<time>2019-07-25T09:16:28Z</time>
</trkpt>
<trkpt lat="44.9654382" lon="5.4238160">
<ele>878.42</ele>
<time>2019-07-25T09:16:29Z</time>
</trkpt>
<trkpt lat="44.9654290" lon="5.4237847">
<ele>878.46</ele>
<time>2019-07-25T09:16:30Z</time>
</trkpt>
<trkpt lat="44.9654232" lon="5.4237511">
<ele>878.50</ele>
<time>2019-07-25T09:16:31Z</time>
</trkpt>
<trkpt lat="44.9654202" lon="5.4237163">
<ele>878.54</ele>
<time>2019-07-25T09:16:32Z</time>
</trkpt>
<trkpt lat="44.9654097" lon="5.4236855">
<ele>878.59</ele>
<time>2019-07-25T09:16:33Z</time>
</trkpt>
<trkpt lat="44.9653982" lon="5.4236551">
<ele>878.63</ele>
<time>2019-07-25T09:16:34Z</time>
</trkpt>
<trkpt lat="44.9653943" lon="5.4236228">
<ele>878.67</ele>
<time>2019-07-25T09:16:35Z</time>
</trkpt>
<trkpt lat="44.9653911" lon="5.4235938">
<ele>878.72</ele>
<time>2019-07-25T09:16:36Z</time>
</trkpt>
<trkpt lat="44.9653864" lon="5.4235613">
<ele>878.77</ele>
<time>2019-07-25T09:16:37Z</time>
</trkpt>
<trkpt lat="44.9653772" lon="5.4235245">
<ele>878.82</ele>
<time>2019-07-25T09:16:38Z</time>
</trkpt>
<trkpt lat="44.9653677" lon="5.4234892">
<ele>878.88</ele>
<time>2019-07-25T09:16:39Z</time>
</trkpt>
<trkpt lat="44.9653595" lon="5.4234569">
<ele>878.93</ele>
<time>2019-07-25T09:16:40Z</time>
</trkpt>
<trkpt lat="44.9653524" lon="5.4234243">
<ele>878.99</ele>
<time>2019-07-25T09:16:41Z</time>
</trkpt>
<trkpt lat="44.9653430" lon="5.4233921">
<ele>879.05</ele>
<time>2019-07-25T09:16:42Z</time>
</trkpt>
<trkpt lat="44.9653281" lon="5.4233626">
<ele>879.11</ele>
<time>2019-07-25T09:16:43Z</time>
</trkpt>
<trkpt lat="44.9653153" lon="5.4233397">
<ele>879.17</ele>
<time>2019-07-25T09:16:44Z</time>
</trkpt>
<trkpt lat="44.9653038" lon="5.4233118">
<ele>879.24</ele>
<time>2019-07-25T09:16:45Z</time>
</trkpt>
<trkpt lat="44.9652965" lon="5.4232806">
<ele>879.30</ele>
<time>2019-07-25T09:16:46Z</time>
</trkpt>
<trkpt lat="44.9652888" lon="5.4232549">
<ele>879.36</ele>
<time>2019-07-25T09:16:47Z</time>
</trkpt>
<trkpt lat="44.9652844" lon="5.4232298">
<ele>879.42</ele>
<time>2019-07-25T09:16:48Z</time>
</trkpt>
<trkpt lat="44.9652791" lon="5.4232008">
<ele>879.48</ele>
<time>2019-07-25T09:16:49Z</time>
</trkpt>
<trkpt lat="44.9652726" lon="5.4231715">
<ele>879.54</ele>
<time>2019-07-25T09:16:50Z</time>
</trkpt>
<trkpt lat="44.9652606" lon="5.4231466">
<ele>879.60</ele>
<time>2019-07-25T09:16:51Z</time>
</trkpt>
<trkpt lat="44.9652377" lon="5.4231176">
<ele>879.66</ele>
<time>2019-07-25T09:16:52Z</time>
</trkpt>
<trkpt lat="44.9652201" lon="5.4230937">
<ele>879.72</ele>
<time>2019-07-25T09:16:53Z</time>
</trkpt>
<trkpt lat="44.9652027" lon="5.4230707">
<ele>879.77</ele>
<time>2019-07-25T09:16:54Z</time>
</trkpt>
<trkpt lat="44.9651810" lon="5.4230453">
<ele>879.83</ele>
<time>2019-07-25T09:16:55Z</time>
</trkpt>
<trkpt lat="44.9651667" lon="5.4230239">
<ele>879.89</ele>
<time>2019-07-25T09:16:56Z</time>
</trkpt>
<trkpt lat="44.9651563" lon="5.4230080">
<ele>879.96</ele>
<time>2019-07-25T09:16:57Z</time>
</trkpt>
<trkpt lat="44.9651432" lon="5.4229822">
<ele>880.02</ele>
<time>2019-07-25T09:16:58Z</time>
</trkpt>
<trkpt lat="44.9651433" lon="5.4229566">
<ele>880.09</ele>
<time>2019-07-25T09:16:59Z</time>
</trkpt>
<trkpt lat="44.9651539" lon="5.4229218">
<ele>880.15</ele>
<time>2019-07-25T09:17:00Z</time>
</trkpt>
<trkpt lat="44.9651636" lon="5.4228819">
<ele>880.22</ele>
<time>2019-07-25T09:17:01Z</time>
</trkpt>
<trkpt lat="44.9651761" lon="5.4228429">
<ele>880.28</ele>
<time>2019-07-25T09:17:02Z</time>
</trkpt>
<trkpt lat="44.9651889" lon="5.4228091">
<ele>880.34</ele>
<time>2019-07-25T09:17:03Z</time>
</trkpt>
<trkpt lat="44.9652023" lon="5.4227788">
<ele>880.41</ele>
<time>2019-07-25T09:17:04Z</time>
</trkpt>
<trkpt lat="44.9652145" lon="5.4227475">
<ele>880.47</ele>
<time>2019-07-25T09:17:05Z</time>
</trkpt>
<trkpt lat="44.9652230" lon="5.4227196">
<ele>880.53</ele>
<time>2019-07-25T09:17:06Z</time>
</trkpt>
<trkpt lat="44.9652230" lon="5.4226917">
<ele>880.60</ele>
<time>2019-07-25T09:17:07Z</time>
</trkpt>
<trkpt lat="44.9652236" lon="5.4226619">
<ele>880.66</ele>
<time>2019-07-25T09:17:08Z</time>
</trkpt>
<trkpt lat="44.9652267" lon="5.4226393">
<ele>880.73</ele>
<time>2019-07-25T09:17:09Z</time>
</trkpt>
<trkpt lat="44.9652269" lon="5.4226125">
<ele>880.79</ele>
<time>2019-07-25T09:17:10Z</time>
</trkpt>
<trkpt lat="44.9652221" lon="5.4225899">
<ele>880.86</ele>
<time>2019-07-25T09:17:11Z</time>
</trkpt>
<trkpt lat="44.9652185" lon="5.4225507">
<ele>880.93</ele>
<time>2019-07-25T09:17:12Z</time>
</trkpt>
<trkpt lat="44.9652215" lon="5.4225210">
<ele>881.00</ele>
<time>2019-07-25T09:17:13Z</time>
</trkpt>
<trkpt lat="44.9652205" lon="5.4225004">
<ele>881.06</ele>
<time>2019-07-25T09:17:14Z</time>
</trkpt>
<trkpt lat="44.9652208" lon="5.4224728">
<ele>881.13</ele>
<time>2019-07-25T09:17:15Z</time>
</trkpt>
<trkpt lat="44.9652180" lon="5.4224416">
<ele>881.20</ele>
<time>2019-07-25T09:17:16Z</time>
</trkpt>
<trkpt lat="44.9652108" lon="5.4224051">
<ele>881.27</ele>
<time>2019-07-25T09:17:17Z</time>
</trkpt>
<trkpt lat="44.9652050" lon="5.4223841">
<ele>881.34</ele>
<time>2019-07-25T09:17:18Z</time>
</trkpt>
<trkpt lat="44.9651902" lon="5.4223690">
<ele>881.41</ele>
<time>2019-07-25T09:17:19Z</time>
</trkpt>
<trkpt lat="44.9651803" lon="5.4223537">
<ele>881.48</ele>
<time>2019-07-25T09:17:20Z</time>
</trkpt>
<trkpt lat="44.9651710" lon="5.4223375">
<ele>881.55</ele>
<time>2019-07-25T09:17:21Z</time>
</trkpt>
<trkpt lat="44.9651569" lon="5.4223319">
<ele>881.62</ele>
<time>2019-07-25T09:17:22Z</time>
</trkpt>
<trkpt lat="44.9651414" lon="5.4223287">
<ele>881.69</ele>
<time>2019-07-25T09:17:23Z</time>
</trkpt>
<trkpt lat="44.9651286" lon="5.4223151">
<ele>881.75</ele>
<time>2019-07-25T09:17:24Z</time>
</trkpt>
<trkpt lat="44.9651176" lon="5.4223028">
<ele>881.82</ele>
<time>2019-07-25T09:17:25Z</time>
</trkpt>
<trkpt lat="44.9651109" lon="5.4222872">
<ele>881.88</ele>
<time>2019-07-25T09:17:26Z</time>
</trkpt>
<trkpt lat="44.9651065" lon="5.4222792">
<ele>881.95</ele>
<time>2019-07-25T09:17:27Z</time>
</trkpt>
<trkpt lat="44.9651086" lon="5.4222681">
<ele>882.02</ele>
<time>2019-07-25T09:17:28Z</time>
</trkpt>
<trkpt lat="44.9651128" lon="5.4222544">
<ele>882.09</ele>
<time>2019-07-25T09:17:29Z</time>
</trkpt>
<trkpt lat="44.9651156" lon="5.4222417">
<ele>882.17</ele>
<time>2019-07-25T09:17:30Z</time>
</trkpt>
<trkpt lat="44.9651150" lon="5.4222312">
<ele>882.25</ele>
<time>2019-07-25T09:17:31Z</time>
</trkpt>
<trkpt lat="44.9651182" lon="5.4222227">
<ele>882.34</ele>
<time>2019-07-25T09:17:32Z</time>
</trkpt>
<trkpt lat="44.9651220" lon="5.4222270">
<ele>882.42</ele>
<time>2019-07-25T09:17:33Z</time>
</trkpt>
<trkpt lat="44.9651235" lon="5.4222297">
<ele>882.50</ele>
<time>2019-07-25T09:17:34Z</time>
</trkpt>
<trkpt lat="44.9651276" lon="5.4222304">
<ele>882.59</ele>
<time>2019-07-25T09:17:35Z</time>
</trkpt>
<trkpt lat="44.9651280" lon="5.4222263">
<ele>882.59</ele>
<time>2019-07-25T09:17:36Z</time>
</trkpt>
<trkpt lat="44.9651209" lon="5.4222238">
<ele>882.60</ele>
<time>2019-07-25T09:17:37Z</time>
</trkpt>
<trkpt lat="44.9651210" lon="5.4222238">
<ele>882.61</ele>
<time>2019-07-25T09:17:38Z</time>
</trkpt>
<trkpt lat="44.9651272" lon="5.4222222">
<ele>882.71</ele>
<time>2019-07-25T09:17:39Z</time>
</trkpt>
<trkpt lat="44.9651238" lon="5.4222256">
<ele>882.72</ele>
<time>2019-07-25T09:17:40Z</time>
</trkpt>
<trkpt lat="44.9651186" lon="5.4222222">
<ele>882.83</ele>
<time>2019-07-25T09:17:41Z</time>
</trkpt>
<trkpt lat="44.9651110" lon="5.4222236">
<ele>882.93</ele>
<time>2019-07-25T09:17:42Z</time>
</trkpt>
<trkpt lat="44.9651042" lon="5.4222227">
<ele>883.03</ele>
<time>2019-07-25T09:17:43Z</time>
</trkpt>
<trkpt lat="44.9651105" lon="5.4222202">
<ele>883.13</ele>
<time>2019-07-25T09:17:44Z</time>
</trkpt>
<trkpt lat="44.9651144" lon="5.4222187">
<ele>883.14</ele>
<time>2019-07-25T09:17:45Z</time>
</trkpt>
<trkpt lat="44.9651133" lon="5.4222170">
<ele>883.25</ele>
<time>2019-07-25T09:17:46Z</time>
</trkpt>
<trkpt lat="44.9651177" lon="5.4222177">
<ele>883.35</ele>
<time>2019-07-25T09:17:47Z</time>
</trkpt>
<trkpt lat="44.9651175" lon="5.4222190">
<ele>883.46</ele>
<time>2019-07-25T09:17:48Z</time>
</trkpt>
<trkpt lat="44.9651146" lon="5.4222156">
<ele>883.57</ele>
<time>2019-07-25T09:17:49Z</time>
</trkpt>
<trkpt lat="44.9651196" lon="5.4222112">
<ele>883.68</ele>
<time>2019-07-25T09:17:50Z</time>
</trkpt>
<trkpt lat="44.9651324" lon="5.4222008">
<ele>883.80</ele>
<time>2019-07-25T09:17:51Z</time>
</trkpt>
<trkpt lat="44.9651468" lon="5.4221898">
<ele>883.91</ele>
<time>2019-07-25T09:17:52Z</time>
</trkpt>
<trkpt lat="44.9651611" lon="5.4221818">
<ele>884.04</ele>
<time>2019-07-25T09:17:53Z</time>
</trkpt>
<trkpt lat="44.9651769" lon="5.4221752">
<ele>884.16</ele>
<time>2019-07-25T09:17:54Z</time>
</trkpt>
<trkpt lat="44.9651998" lon="5.4221577">
<ele>884.29</ele>
<time>2019-07-25T09:17:55Z</time>
</trkpt>
<trkpt lat="44.9652266" lon="5.4221311">
<ele>884.42</ele>
<time>2019-07-25T09:17:56Z</time>
</trkpt>
<trkpt lat="44.9652469" lon="5.4221077">
<ele>884.56</ele>
<time>2019-07-25T09:17:57Z</time>
</trkpt>
<trkpt lat="44.9652685" lon="5.4220855">
<ele>884.70</ele>
<time>2019-07-25T09:17:58Z</time>
</trkpt>
<trkpt lat="44.9652843" lon="5.4220547">
<ele>884.83</ele>
<time>2019-07-25T09:17:59Z</time>
</trkpt>
<trkpt lat="44.9652943" lon="5.4220197">
<ele>884.97</ele>
<time>2019-07-25T09:18:00Z</time>
</trkpt>
<trkpt lat="44.9653062" lon="5.4219903">
<ele>885.12</ele>
<time>2019-07-25T09:18:01Z</time>
</trkpt>
<trkpt lat="44.9653120" lon="5.4219543">
<ele>885.26</ele>
<time>2019-07-25T09:18:02Z</time>
</trkpt>
<trkpt lat="44.9653238" lon="5.4219203">
<ele>885.40</ele>
<time>2019-07-25T09:18:03Z</time>
</trkpt>
<trkpt lat="44.9653335" lon="5.4218867">
<ele>885.54</ele>
<time>2019-07-25T09:18:04Z</time>
</trkpt>
<trkpt lat="44.9653408" lon="5.4218520">
<ele>885.69</ele>
<time>2019-07-25T09:18:05Z</time>
</trkpt>
<trkpt lat="44.9653486" lon="5.4218228">
<ele>885.83</ele>
<time>2019-07-25T09:18:06Z</time>
</trkpt>
<trkpt lat="44.9653557" lon="5.4217967">
<ele>885.98</ele>
<time>2019-07-25T09:18:07Z</time>
</trkpt>
<trkpt lat="44.9653632" lon="5.4217734">
<ele>886.13</ele>
<time>2019-07-25T09:18:08Z</time>
</trkpt>
<trkpt lat="44.9653739" lon="5.4217488">
<ele>886.29</ele>
<time>2019-07-25T09:18:09Z</time>
</trkpt>
<trkpt lat="44.9653806" lon="5.4217247">
<ele>886.44</ele>
<time>2019-07-25T09:18:10Z</time>
</trkpt>
<trkpt lat="44.9653841" lon="5.4216954">
<ele>886.60</ele>
<time>2019-07-25T09:18:11Z</time>
</trkpt>
<trkpt lat="44.9653844" lon="5.4216662">
<ele>886.76</ele>
<time>2019-07-25T09:18:12Z</time>
</trkpt>
<trkpt lat="44.9653881" lon="5.4216336">
<ele>886.93</ele>
<time>2019-07-25T09:18:13Z</time>
</trkpt>
<trkpt lat="44.9653910" lon="5.4216010">
<ele>887.09</ele>
<time>2019-07-25T09:18:14Z</time>
</trkpt>
<trkpt lat="44.9653904" lon="5.4215637">
<ele>887.25</ele>
<time>2019-07-25T09:18:15Z</time>
</trkpt>
<trkpt lat="44.9653896" lon="5.4215233">
<ele>887.42</ele>
<time>2019-07-25T09:18:16Z</time>
</trkpt>
<trkpt lat="44.9653880" lon="5.4214853">
<ele>887.58</ele>
<time>2019-07-25T09:18:17Z</time>
</trkpt>
<trkpt lat="44.9653927" lon="5.4214456">
<ele>887.74</ele>
<time>2019-07-25T09:18:18Z</time>
</trkpt>
<trkpt lat="44.9654034" lon="5.4214017">
<ele>887.89</ele>
<time>2019-07-25T09:18:19Z</time>
</trkpt>
<trkpt lat="44.9654180" lon="5.4213542">
<ele>888.05</ele>
<time>2019-07-25T09:18:20Z</time>
</trkpt>
<trkpt lat="44.9654233" lon="5.4213093">
<ele>888.20</ele>
<time>2019-07-25T09:18:21Z</time>
</trkpt>
<trkpt lat="44.9654267" lon="5.4212665">
<ele>888.36</ele>
<time>2019-07-25T09:18:22Z</time>
</trkpt>
<trkpt lat="44.9654307" lon="5.4212393">
<ele>888.51</ele>
<time>2019-07-25T09:18:23Z</time>
</trkpt>
<trkpt lat="44.9654402" lon="5.4211889">
<ele>888.67</ele>
<time>2019-07-25T09:18:24Z</time>
</trkpt>
<trkpt lat="44.9654464" lon="5.4211394">
<ele>888.82</ele>
<time>2019-07-25T09:18:25Z</time>
</trkpt>
<trkpt lat="44.9654534" lon="5.4210977">
<ele>888.98</ele>
<time>2019-07-25T09:18:26Z</time>
</trkpt>
<trkpt lat="44.9654620" lon="5.4210462">
<ele>889.13</ele>
<time>2019-07-25T09:18:27Z</time>
</trkpt>
<trkpt lat="44.9654718" lon="5.4209994">
<ele>889.28</ele>
<time>2019-07-25T09:18:28Z</time>
</trkpt>
<trkpt lat="44.9654862" lon="5.4209577">
<ele>889.43</ele>
<time>2019-07-25T09:18:29Z</time>
</trkpt>
<trkpt lat="44.9654953" lon="5.4209236">
<ele>889.58</ele>
<time>2019-07-25T09:18:30Z</time>
</trkpt>
<trkpt lat="44.9655187" lon="5.4208910">
<ele>891.09</ele>
<time>2019-07-25T09:18:31Z</time>
</trkpt>
<trkpt lat="44.9655475" lon="5.4208442">
<ele>892.34</ele>
<time>2019-07-25T09:18:32Z</time>
</trkpt>
<trkpt lat="44.9655700" lon="5.4207963">
<ele>892.44</ele>
<time>2019-07-25T09:18:33Z</time>
</trkpt>
<trkpt lat="44.9655820" lon="5.4207425">
<ele>892.55</ele>
<time>2019-07-25T09:18:34Z</time>
</trkpt>
<trkpt lat="44.9655961" lon="5.4206930">
<ele>892.65</ele>
<time>2019-07-25T09:18:35Z</time>
</trkpt>
<trkpt lat="44.9656235" lon="5.4206514">
<ele>893.66</ele>
<time>2019-07-25T09:18:36Z</time>
</trkpt>
<trkpt lat="44.9656420" lon="5.4205977">
<ele>893.74</ele>
<time>2019-07-25T09:18:37Z</time>
</trkpt>
<trkpt lat="44.9656530" lon="5.4205477">
<ele>893.82</ele>
<time>2019-07-25T09:18:38Z</time>
</trkpt>
<trkpt lat="44.9656609" lon="5.4205136">
<ele>893.90</ele>
<time>2019-07-25T09:18:39Z</time>
</trkpt>
<trkpt lat="44.9656759" lon="5.4204778">
<ele>893.98</ele>
<time>2019-07-25T09:18:40Z</time>
</trkpt>
<trkpt lat="44.9656925" lon="5.4204451">
<ele>894.05</ele>
<time>2019-07-25T09:18:41Z</time>
</trkpt>
<trkpt lat="44.9657128" lon="5.4203997">
<ele>894.12</ele>
<time>2019-07-25T09:18:42Z</time>
</trkpt>
<trkpt lat="44.9657326" lon="5.4203431">
<ele>894.76</ele>
<time>2019-07-25T09:18:43Z</time>
</trkpt>
<trkpt lat="44.9657532" lon="5.4202859">
<ele>895.21</ele>
<time>2019-07-25T09:18:44Z</time>
</trkpt>
<trkpt lat="44.9657725" lon="5.4202266">
<ele>895.54</ele>
<time>2019-07-25T09:18:45Z</time>
</trkpt>
<trkpt lat="44.9657935" lon="5.4201640">
<ele>895.77</ele>
<time>2019-07-25T09:18:46Z</time>
</trkpt>
<trkpt lat="44.9658170" lon="5.4200972">
<ele>895.98</ele>
<time>2019-07-25T09:18:47Z</time>
</trkpt>
<trkpt lat="44.9658508" lon="5.4200285">
<ele>896.10</ele>
<time>2019-07-25T09:18:48Z</time>
</trkpt>
<trkpt lat="44.9658810" lon="5.4199629">
<ele>896.15</ele>
<time>2019-07-25T09:18:49Z</time>
</trkpt>
<trkpt lat="44.9659045" lon="5.4198992">
<ele>896.19</ele>
<time>2019-07-25T09:18:50Z</time>
</trkpt>
<trkpt lat="44.9659328" lon="5.4198300">
<ele>896.20</ele>
<time>2019-07-25T09:18:51Z</time>
</trkpt>
<trkpt lat="44.9659588" lon="5.4197584">
<ele>896.20</ele>
<time>2019-07-25T09:18:52Z</time>
</trkpt>
<trkpt lat="44.9659847" lon="5.4196905">
<ele>896.20</ele>
<time>2019-07-25T09:18:53Z</time>
</trkpt>
<trkpt lat="44.9660166" lon="5.4196179">
<ele>896.19</ele>
<time>2019-07-25T09:18:54Z</time>
</trkpt>
<trkpt lat="44.9660501" lon="5.4195498">
<ele>896.16</ele>
<time>2019-07-25T09:18:55Z</time>
</trkpt>
<trkpt lat="44.9660777" lon="5.4194809">
<ele>896.07</ele>
<time>2019-07-25T09:18:56Z</time>
</trkpt>
<trkpt lat="44.9661129" lon="5.4194159">
<ele>895.99</ele>
<time>2019-07-25T09:18:57Z</time>
</trkpt>
<trkpt lat="44.9661455" lon="5.4193580">
<ele>895.92</ele>
<time>2019-07-25T09:18:58Z</time>
</trkpt>
<trkpt lat="44.9661783" lon="5.4192943">
<ele>895.86</ele>
<time>2019-07-25T09:18:59Z</time>
</trkpt>
<trkpt lat="44.9662146" lon="5.4192343">
<ele>895.81</ele>
<time>2019-07-25T09:19:00Z</time>
</trkpt>
<trkpt lat="44.9662538" lon="5.4191718">
<ele>895.74</ele>
<time>2019-07-25T09:19:01Z</time>
</trkpt>
<trkpt lat="44.9662906" lon="5.4191162">
<ele>895.62</ele>
<time>2019-07-25T09:19:02Z</time>
</trkpt>
<trkpt lat="44.9663217" lon="5.4190685">
<ele>895.48</ele>
<time>2019-07-25T09:19:03Z</time>
</trkpt>
<trkpt lat="44.9663546" lon="5.4190116">
<ele>895.33</ele>
<time>2019-07-25T09:19:04Z</time>
</trkpt>
<trkpt lat="44.9663886" lon="5.4189601">
<ele>895.19</ele>
<time>2019-07-25T09:19:05Z</time>
</trkpt>
<trkpt lat="44.9664213" lon="5.4189084">
<ele>895.00</ele>
<time>2019-07-25T09:19:06Z</time>
</trkpt>
<trkpt lat="44.9664481" lon="5.4188664">
<ele>894.98</ele>
<time>2019-07-25T09:19:07Z</time>
</trkpt>
<trkpt lat="44.9664705" lon="5.4188311">
<ele>894.97</ele>
<time>2019-07-25T09:19:08Z</time>
</trkpt>
<trkpt lat="44.9664710" lon="5.4187906">
<ele>894.95</ele>
<time>2019-07-25T09:19:09Z</time>
</trkpt>
<trkpt lat="44.9664784" lon="5.4187379">
<ele>894.94</ele>
<time>2019-07-25T09:19:10Z</time>
</trkpt>
<trkpt lat="44.9664887" lon="5.4186950">
<ele>894.76</ele>
<time>2019-07-25T09:19:11Z</time>
</trkpt>
<trkpt lat="44.9665162" lon="5.4186602">
<ele>894.63</ele>
<time>2019-07-25T09:19:12Z</time>
</trkpt>
<trkpt lat="44.9665373" lon="5.4186260">
<ele>894.57</ele>
<time>2019-07-25T09:19:13Z</time>
</trkpt>
<trkpt lat="44.9665573" lon="5.4185819">
<ele>894.55</ele>
<time>2019-07-25T09:19:14Z</time>
</trkpt>
<trkpt lat="44.9665769" lon="5.4185302">
<ele>894.56</ele>
<time>2019-07-25T09:19:15Z</time>
</trkpt>
<trkpt lat="44.9665919" lon="5.4184805">
<ele>894.58</ele>
<time>2019-07-25T09:19:16Z</time>
</trkpt>
<trkpt lat="44.9666084" lon="5.4184299">
<ele>894.65</ele>
<time>2019-07-25T09:19:17Z</time>
</trkpt>
<trkpt lat="44.9666245" lon="5.4183753">
<ele>894.67</ele>
<time>2019-07-25T09:19:18Z</time>
</trkpt>
<trkpt lat="44.9666373" lon="5.4183211">
<ele>894.65</ele>
<time>2019-07-25T09:19:19Z</time>
</trkpt>
<trkpt lat="44.9666487" lon="5.4182583">
<ele>894.63</ele>
<time>2019-07-25T09:19:20Z</time>
</trkpt>
<trkpt lat="44.9666650" lon="5.4182056">
<ele>894.62</ele>
<time>2019-07-25T09:19:21Z</time>
</trkpt>
<trkpt lat="44.9666817" lon="5.4181595">
<ele>894.62</ele>
<time>2019-07-25T09:19:22Z</time>
</trkpt>
<trkpt lat="44.9667007" lon="5.4181189">
<ele>894.63</ele>
<time>2019-07-25T09:19:23Z</time>
</trkpt>
<trkpt lat="44.9667187" lon="5.4180724">
<ele>894.63</ele>
<time>2019-07-25T09:19:24Z</time>
</trkpt>
<trkpt lat="44.9667333" lon="5.4180235">
<ele>894.63</ele>
<time>2019-07-25T09:19:25Z</time>
</trkpt>
<trkpt lat="44.9667453" lon="5.4179731">
<ele>894.64</ele>
<time>2019-07-25T09:19:26Z</time>
</trkpt>
<trkpt lat="44.9667591" lon="5.4179201">
<ele>894.64</ele>
<time>2019-07-25T09:19:27Z</time>
</trkpt>
<trkpt lat="44.9667700" lon="5.4178742">
<ele>894.64</ele>
<time>2019-07-25T09:19:28Z</time>
</trkpt>
<trkpt lat="44.9667826" lon="5.4178276">
<ele>894.64</ele>
<time>2019-07-25T09:19:29Z</time>
</trkpt>
<trkpt lat="44.9667957" lon="5.4177743">
<ele>894.64</ele>
<time>2019-07-25T09:19:30Z</time>
</trkpt>
<trkpt lat="44.9668094" lon="5.4177213">
<ele>894.63</ele>
<time>2019-07-25T09:19:31Z</time>
</trkpt>
<trkpt lat="44.9668206" lon="5.4176789">
<ele>894.62</ele>
<time>2019-07-25T09:19:32Z</time>
</trkpt>
<trkpt lat="44.9668306" lon="5.4176447">
<ele>894.62</ele>
<time>2019-07-25T09:19:33Z</time>
</trkpt>
<trkpt lat="44.9668409" lon="5.4176123">
<ele>894.61</ele>
<time>2019-07-25T09:19:34Z</time>
</trkpt>
<trkpt lat="44.9668467" lon="5.4176011">
<ele>894.60</ele>
<time>2019-07-25T09:19:35Z</time>
</trkpt>
<trkpt lat="44.9668490" lon="5.4175951">
<ele>894.60</ele>
<time>2019-07-25T09:19:36Z</time>
</trkpt>
<trkpt lat="44.9668500" lon="5.4175966">
<ele>894.60</ele>
<time>2019-07-25T09:19:37Z</time>
</trkpt>
<trkpt lat="44.9668501" lon="5.4175958">
<ele>894.60</ele>
<time>2019-07-25T09:19:38Z</time>
</trkpt>
<trkpt lat="44.9668498" lon="5.4175976">
<ele>894.60</ele>
<time>2019-07-25T09:19:39Z</time>
</trkpt>
<trkpt lat="44.9668516" lon="5.4175953">
<ele>894.60</ele>
<time>2019-07-25T09:19:40Z</time>
</trkpt>
<trkpt lat="44.9668503" lon="5.4175980">
<ele>894.60</ele>
<time>2019-07-25T09:19:41Z</time>
</trkpt>
<trkpt lat="44.9668501" lon="5.4175978">
<ele>894.60</ele>
<time>2019-07-25T09:19:42Z</time>
</trkpt>
<trkpt lat="44.9668502" lon="5.4175977">
<ele>894.61</ele>
<time>2019-07-25T09:19:43Z</time>
</trkpt>
<trkpt lat="44.9668501" lon="5.4175978">
<ele>894.61</ele>
<time>2019-07-25T09:19:44Z</time>
</trkpt>
<trkpt lat="44.9668501" lon="5.4175971">
<ele>894.61</ele>
<time>2019-07-25T09:19:45Z</time>
</trkpt>
<trkpt lat="44.9668499" lon="5.4175971">
<ele>894.61</ele>
<time>2019-07-25T09:19:46Z</time>
</trkpt>
<trkpt lat="44.9668499" lon="5.4175972">
<ele>894.61</ele>
<time>2019-07-25T09:19:47Z</time>
</trkpt>
<trkpt lat="44.9668491" lon="5.4175975">
<ele>894.61</ele>
<time>2019-07-25T09:19:48Z</time>
</trkpt>
<trkpt lat="44.9668486" lon="5.4175973">
<ele>894.61</ele>
<time>2019-07-25T09:19:49Z</time>
</trkpt>
<trkpt lat="44.9668485" lon="5.4175972">
<ele>894.62</ele>
<time>2019-07-25T09:19:50Z</time>
</trkpt>
<trkpt lat="44.9668490" lon="5.4175953">
<ele>894.62</ele>
<time>2019-07-25T09:19:51Z</time>
</trkpt>
<trkpt lat="44.9668486" lon="5.4175948">
<ele>894.62</ele>
<time>2019-07-25T09:19:52Z</time>
</trkpt>
<trkpt lat="44.9668315" lon="5.4175845">
<ele>894.63</ele>
<time>2019-07-25T09:19:53Z</time>
</trkpt>
<trkpt lat="44.9668385" lon="5.4175710">
<ele>894.63</ele>
<time>2019-07-25T09:19:54Z</time>
</trkpt>
<trkpt lat="44.9668369" lon="5.4175592">
<ele>894.64</ele>
<time>2019-07-25T09:19:55Z</time>
</trkpt>
<trkpt lat="44.9668348" lon="5.4175557">
<ele>894.64</ele>
<time>2019-07-25T09:19:56Z</time>
</trkpt>
<trkpt lat="44.9668400" lon="5.4175404">
<ele>894.64</ele>
<time>2019-07-25T09:19:57Z</time>
</trkpt>
<trkpt lat="44.9668482" lon="5.4175165">
<ele>894.64</ele>
<time>2019-07-25T09:19:58Z</time>
</trkpt>
<trkpt lat="44.9668581" lon="5.4175026">
<ele>894.63</ele>
<time>2019-07-25T09:19:59Z</time>
</trkpt>
<trkpt lat="44.9668708" lon="5.4174722">
<ele>894.62</ele>
<time>2019-07-25T09:20:00Z</time>
</trkpt>
<trkpt lat="44.9668809" lon="5.4174384">
<ele>894.60</ele>
<time>2019-07-25T09:20:01Z</time>
</trkpt>
<trkpt lat="44.9668893" lon="5.4174076">
<ele>894.58</ele>
<time>2019-07-25T09:20:02Z</time>
</trkpt>
<trkpt lat="44.9668990" lon="5.4173737">
<ele>894.56</ele>
<time>2019-07-25T09:20:03Z</time>
</trkpt>
<trkpt lat="44.9669143" lon="5.4173372">
<ele>894.54</ele>
<time>2019-07-25T09:20:04Z</time>
</trkpt>
<trkpt lat="44.9669276" lon="5.4172970">
<ele>894.52</ele>
<time>2019-07-25T09:20:05Z</time>
</trkpt>
<trkpt lat="44.9669560" lon="5.4172559">
<ele>894.50</ele>
<time>2019-07-25T09:20:06Z</time>
</trkpt>
<trkpt lat="44.9669761" lon="5.4172024">
<ele>894.48</ele>
<time>2019-07-25T09:20:07Z</time>
</trkpt>
<trkpt lat="44.9669903" lon="5.4171602">
<ele>894.47</ele>
<time>2019-07-25T09:20:08Z</time>
</trkpt>
<trkpt lat="44.9670057" lon="5.4171146">
<ele>894.46</ele>
<time>2019-07-25T09:20:09Z</time>
</trkpt>
<trkpt lat="44.9670196" lon="5.4170737">
<ele>894.46</ele>
<time>2019-07-25T09:20:10Z</time>
</trkpt>
<trkpt lat="44.9670324" lon="5.4170504">
<ele>894.45</ele>
<time>2019-07-25T09:20:11Z</time>
</trkpt>
<trkpt lat="44.9670314" lon="5.4170489">
<ele>894.45</ele>
<time>2019-07-25T09:20:12Z</time>
</trkpt>
<trkpt lat="44.9670302" lon="5.4170580">
<ele>894.45</ele>
<time>2019-07-25T09:20:13Z</time>
</trkpt>
<trkpt lat="44.9670291" lon="5.4170601">
<ele>894.45</ele>
<time>2019-07-25T09:20:14Z</time>
</trkpt>
<trkpt lat="44.9670311" lon="5.4170562">
<ele>894.45</ele>
<time>2019-07-25T09:20:15Z</time>
</trkpt>
<trkpt lat="44.9670271" lon="5.4170758">
<ele>894.45</ele>
<time>2019-07-25T09:20:16Z</time>
</trkpt>
<trkpt lat="44.9670282" lon="5.4170759">
<ele>894.45</ele>
<time>2019-07-25T09:20:17Z</time>
</trkpt>
<trkpt lat="44.9670288" lon="5.4170765">
<ele>894.45</ele>
<time>2019-07-25T09:20:18Z</time>
</trkpt>
<trkpt lat="44.9670403" lon="5.4170568">
<ele>894.45</ele>
<time>2019-07-25T09:20:19Z</time>
</trkpt>
<trkpt lat="44.9670552" lon="5.4170259">
<ele>894.43</ele>
<time>2019-07-25T09:20:20Z</time>
</trkpt>
<trkpt lat="44.9670576" lon="5.4170151">
<ele>894.41</ele>
<time>2019-07-25T09:20:21Z</time>
</trkpt>
<trkpt lat="44.9670579" lon="5.4170119">
<ele>894.41</ele>
<time>2019-07-25T09:20:22Z</time>
</trkpt>
<trkpt lat="44.9670591" lon="5.4170093">
<ele>894.39</ele>
<time>2019-07-25T09:20:23Z</time>
</trkpt>
<trkpt lat="44.9670596" lon="5.4170027">
<ele>894.37</ele>
<time>2019-07-25T09:20:24Z</time>
</trkpt>
<trkpt lat="44.9670504" lon="5.4169875">
<ele>894.36</ele>
<time>2019-07-25T09:20:25Z</time>
</trkpt>
<trkpt lat="44.9670473" lon="5.4169862">
<ele>894.34</ele>
<time>2019-07-25T09:20:26Z</time>
</trkpt>
<trkpt lat="44.9670465" lon="5.4169859">
<ele>894.34</ele>
<time>2019-07-25T09:20:27Z</time>
</trkpt>
<trkpt lat="44.9670466" lon="5.4169853">
<ele>894.34</ele>
<time>2019-07-25T09:20:28Z</time>
</trkpt>
<trkpt lat="44.9670492" lon="5.4169970">
<ele>894.34</ele>
<time>2019-07-25T09:20:29Z</time>
</trkpt>
<trkpt lat="44.9670482" lon="5.4170077">
<ele>894.33</ele>
<time>2019-07-25T09:20:30Z</time>
</trkpt>
<trkpt lat="44.9670507" lon="5.4170085">
<ele>894.33</ele>
<time>2019-07-25T09:20:31Z</time>
</trkpt>
<trkpt lat="44.9670505" lon="5.4170085">
<ele>894.33</ele>
<time>2019-07-25T09:20:32Z</time>
</trkpt>
<trkpt lat="44.9670505" lon="5.4170077">
<ele>894.33</ele>
<time>2019-07-25T09:20:33Z</time>
</trkpt>
<trkpt lat="44.9670504" lon="5.4170068">
<ele>894.32</ele>
<time>2019-07-25T09:20:34Z</time>
</trkpt>
<trkpt lat="44.9670502" lon="5.4170064">
<ele>894.32</ele>
<time>2019-07-25T09:20:35Z</time>
</trkpt>
<trkpt lat="44.9670504" lon="5.4170055">
<ele>894.32</ele>
<time>2019-07-25T09:20:36Z</time>
</trkpt>
<trkpt lat="44.9670504" lon="5.4170058">
<ele>894.32</ele>
<time>2019-07-25T09:20:37Z</time>
</trkpt>
<trkpt lat="44.9670509" lon="5.4170054">
<ele>894.32</ele>
<time>2019-07-25T09:20:38Z</time>
</trkpt>
<trkpt lat="44.9670513" lon="5.4170046">
<ele>894.32</ele>
<time>2019-07-25T09:20:39Z</time>
</trkpt>
<trkpt lat="44.9670511" lon="5.4170045">
<ele>894.32</ele>
<time>2019-07-25T09:20:40Z</time>
</trkpt>
<trkpt lat="44.9670507" lon="5.4170049">
<ele>894.32</ele>
<time>2019-07-25T09:20:41Z</time>
</trkpt>
<trkpt lat="44.9670508" lon="5.4170038">
<ele>894.32</ele>
<time>2019-07-25T09:20:42Z</time>
</trkpt>
<trkpt lat="44.9670513" lon="5.4170021">
<ele>894.32</ele>
<time>2019-07-25T09:20:43Z</time>
</trkpt>
<trkpt lat="44.9670540" lon="5.4169968">
<ele>894.33</ele>
<time>2019-07-25T09:20:44Z</time>
</trkpt>
<trkpt lat="44.9670543" lon="5.4169904">
<ele>894.35</ele>
<time>2019-07-25T09:20:45Z</time>
</trkpt>
<trkpt lat="44.9670567" lon="5.4169895">
<ele>894.36</ele>
<time>2019-07-25T09:20:46Z</time>
</trkpt>
<trkpt lat="44.9670558" lon="5.4169839">
<ele>894.39</ele>
<time>2019-07-25T09:20:47Z</time>
</trkpt>
<trkpt lat="44.9670569" lon="5.4169763">
<ele>894.42</ele>
<time>2019-07-25T09:20:48Z</time>
</trkpt>
<trkpt lat="44.9670579" lon="5.4169742">
<ele>894.45</ele>
<time>2019-07-25T09:20:49Z</time>
</trkpt>
<trkpt lat="44.9670590" lon="5.4169702">
<ele>894.45</ele>
<time>2019-07-25T09:20:50Z</time>
</trkpt>
<trkpt lat="44.9670592" lon="5.4169702">
<ele>894.45</ele>
<time>2019-07-25T09:20:51Z</time>
</trkpt>
<trkpt lat="44.9670596" lon="5.4169713">
<ele>894.46</ele>
<time>2019-07-25T09:20:52Z</time>
</trkpt>
<trkpt lat="44.9670597" lon="5.4169715">
<ele>894.46</ele>
<time>2019-07-25T09:20:53Z</time>
</trkpt>
<trkpt lat="44.9670598" lon="5.4169712">
<ele>894.46</ele>
<time>2019-07-25T09:20:54Z</time>
</trkpt>
<trkpt lat="44.9670598" lon="5.4169699">
<ele>894.47</ele>
<time>2019-07-25T09:20:55Z</time>
</trkpt>
<trkpt lat="44.9670602" lon="5.4169717">
<ele>894.47</ele>
<time>2019-07-25T09:20:56Z</time>
</trkpt>
<trkpt lat="44.9670605" lon="5.4169729">
<ele>894.48</ele>
<time>2019-07-25T09:20:57Z</time>
</trkpt>
<trkpt lat="44.9670607" lon="5.4169723">
<ele>894.48</ele>
<time>2019-07-25T09:20:58Z</time>
</trkpt>
<trkpt lat="44.9670667" lon="5.4169796">
<ele>894.49</ele>
<time>2019-07-25T09:20:59Z</time>
</trkpt>
<trkpt lat="44.9670688" lon="5.4169916">
<ele>894.53</ele>
<time>2019-07-25T09:21:00Z</time>
</trkpt>
<trkpt lat="44.9670695" lon="5.4169924">
<ele>894.53</ele>
<time>2019-07-25T09:21:01Z</time>
</trkpt>
<trkpt lat="44.9670714" lon="5.4169955">
<ele>894.58</ele>
<time>2019-07-25T09:21:02Z</time>
</trkpt>
<trkpt lat="44.9670712" lon="5.4169995">
<ele>894.58</ele>
<time>2019-07-25T09:21:03Z</time>
</trkpt>
<trkpt lat="44.9670713" lon="5.4170053">
<ele>894.62</ele>
<time>2019-07-25T09:21:04Z</time>
</trkpt>
<trkpt lat="44.9670699" lon="5.4170042">
<ele>894.66</ele>
<time>2019-07-25T09:21:05Z</time>
</trkpt>
<trkpt lat="44.9670650" lon="5.4170092">
<ele>894.69</ele>
<time>2019-07-25T09:21:06Z</time>
</trkpt>
<trkpt lat="44.9670638" lon="5.4170079">
<ele>894.72</ele>
<time>2019-07-25T09:21:07Z</time>
</trkpt>
<trkpt lat="44.9670590" lon="5.4170081">
<ele>894.76</ele>
<time>2019-07-25T09:21:08Z</time>
</trkpt>
<trkpt lat="44.9670558" lon="5.4170092">
<ele>894.79</ele>
<time>2019-07-25T09:21:09Z</time>
</trkpt>
<trkpt lat="44.9670453" lon="5.4170106">
<ele>894.82</ele>
<time>2019-07-25T09:21:10Z</time>
</trkpt>
<trkpt lat="44.9670278" lon="5.4170199">
<ele>894.85</ele>
<time>2019-07-25T09:21:11Z</time>
</trkpt>
<trkpt lat="44.9670005" lon="5.4170297">
<ele>894.88</ele>
<time>2019-07-25T09:21:12Z</time>
</trkpt>
<trkpt lat="44.9669846" lon="5.4170308">
<ele>894.90</ele>
<time>2019-07-25T09:21:13Z</time>
</trkpt>
<trkpt lat="44.9669672" lon="5.4170323">
<ele>894.91</ele>
<time>2019-07-25T09:21:14Z</time>
</trkpt>
<trkpt lat="44.9669456" lon="5.4170363">
<ele>894.93</ele>
<time>2019-07-25T09:21:15Z</time>
</trkpt>
<trkpt lat="44.9669366" lon="5.4170469">
<ele>894.94</ele>
<time>2019-07-25T09:21:16Z</time>
</trkpt>
<trkpt lat="44.9669265" lon="5.4170553">
<ele>894.96</ele>
<time>2019-07-25T09:21:17Z</time>
</trkpt>
<trkpt lat="44.9669166" lon="5.4170645">
<ele>894.98</ele>
<time>2019-07-25T09:21:18Z</time>
</trkpt>
<trkpt lat="44.9669026" lon="5.4170735">
<ele>894.99</ele>
<time>2019-07-25T09:21:19Z</time>
</trkpt>
<trkpt lat="44.9668892" lon="5.4170792">
<ele>895.01</ele>
<time>2019-07-25T09:21:20Z</time>
</trkpt>
<trkpt lat="44.9668757" lon="5.4170800">
<ele>895.02</ele>
<time>2019-07-25T09:21:21Z</time>
</trkpt>
<trkpt lat="44.9668644" lon="5.4170797">
<ele>895.03</ele>
<time>2019-07-25T09:21:22Z</time>
</trkpt>
<trkpt lat="44.9668591" lon="5.4170800">
<ele>895.04</ele>
<time>2019-07-25T09:21:23Z</time>
</trkpt>
<trkpt lat="44.9668621" lon="5.4170822">
<ele>895.04</ele>
<time>2019-07-25T09:21:24Z</time>
</trkpt>
<trkpt lat="44.9668622" lon="5.4170823">
<ele>895.04</ele>
<time>2019-07-25T09:21:25Z</time>
</trkpt>
<trkpt lat="44.9668622" lon="5.4170826">
<ele>895.04</ele>
<time>2019-07-25T09:21:26Z</time>
</trkpt>
<trkpt lat="44.9668619" lon="5.4170826">
<ele>895.04</ele>
<time>2019-07-25T09:21:27Z</time>
</trkpt>
<trkpt lat="44.9668589" lon="5.4170815">
<ele>895.04</ele>
<time>2019-07-25T09:21:28Z</time>
</trkpt>
<trkpt lat="44.9668529" lon="5.4170807">
<ele>895.04</ele>
<time>2019-07-25T09:21:29Z</time>
</trkpt>
<trkpt lat="44.9668489" lon="5.4170797">
<ele>895.03</ele>
<time>2019-07-25T09:21:30Z</time>
</trkpt>
<trkpt lat="44.9668479" lon="5.4170792">
<ele>895.03</ele>
<time>2019-07-25T09:21:31Z</time>
</trkpt>
<trkpt lat="44.9668472" lon="5.4170792">
<ele>895.03</ele>
<time>2019-07-25T09:21:32Z</time>
</trkpt>
<trkpt lat="44.9668465" lon="5.4170787">
<ele>895.03</ele>
<time>2019-07-25T09:21:33Z</time>
</trkpt>
<trkpt lat="44.9668461" lon="5.4170793">
<ele>895.03</ele>
<time>2019-07-25T09:21:34Z</time>
</trkpt>
<trkpt lat="44.9668461" lon="5.4170794">
<ele>895.03</ele>
<time>2019-07-25T09:21:35Z</time>
</trkpt>
<trkpt lat="44.9668458" lon="5.4170795">
<ele>895.03</ele>
<time>2019-07-25T09:21:36Z</time>
</trkpt>
<trkpt lat="44.9668458" lon="5.4170795">
<ele>895.03</ele>
<time>2019-07-25T09:21:37Z</time>
</trkpt>
<trkpt lat="44.9668455" lon="5.4170796">
<ele>895.03</ele>
<time>2019-07-25T09:21:38Z</time>
</trkpt>
<trkpt lat="44.9668455" lon="5.4170796">
<ele>895.03</ele>
<time>2019-07-25T09:21:39Z</time>
</trkpt>
<trkpt lat="44.9668429" lon="5.4170807">
<ele>895.02</ele>
<time>2019-07-25T09:21:40Z</time>
</trkpt>
<trkpt lat="44.9668355" lon="5.4170876">
<ele>895.01</ele>
<time>2019-07-25T09:21:41Z</time>
</trkpt>
<trkpt lat="44.9668275" lon="5.4170753">
<ele>895.01</ele>
<time>2019-07-25T09:21:42Z</time>
</trkpt>
<trkpt lat="44.9668251" lon="5.4170776">
<ele>895.01</ele>
<time>2019-07-25T09:21:43Z</time>
</trkpt>
<trkpt lat="44.9668245" lon="5.4170825">
<ele>894.99</ele>
<time>2019-07-25T09:21:44Z</time>
</trkpt>
<trkpt lat="44.9668196" lon="5.4170842">
<ele>894.99</ele>
<time>2019-07-25T09:21:45Z</time>
</trkpt>
<trkpt lat="44.9668188" lon="5.4170957">
<ele>894.96</ele>
<time>2019-07-25T09:21:46Z</time>
</trkpt>
<trkpt lat="44.9668164" lon="5.4171063">
<ele>894.96</ele>
<time>2019-07-25T09:21:47Z</time>
</trkpt>
<trkpt lat="44.9668163" lon="5.4171082">
<ele>894.96</ele>
<time>2019-07-25T09:21:48Z</time>
</trkpt>
<trkpt lat="44.9668160" lon="5.4171095">
<ele>894.95</ele>
<time>2019-07-25T09:21:49Z</time>
</trkpt>
<trkpt lat="44.9668151" lon="5.4171120">
<ele>894.95</ele>
<time>2019-07-25T09:21:50Z</time>
</trkpt>
<trkpt lat="44.9668150" lon="5.4171122">
<ele>894.95</ele>
<time>2019-07-25T09:21:51Z</time>
</trkpt>
<trkpt lat="44.9668147" lon="5.4171125">
<ele>894.95</ele>
<time>2019-07-25T09:21:52Z</time>
</trkpt>
<trkpt lat="44.9668143" lon="5.4171127">
<ele>894.94</ele>
<time>2019-07-25T09:21:53Z</time>
</trkpt>
<trkpt lat="44.9668143" lon="5.4171128">
<ele>894.94</ele>
<time>2019-07-25T09:21:54Z</time>
</trkpt>
<trkpt lat="44.9668138" lon="5.4171131">
<ele>894.94</ele>
<time>2019-07-25T09:21:55Z</time>
</trkpt>
<trkpt lat="44.9668136" lon="5.4171134">
<ele>894.94</ele>
<time>2019-07-25T09:21:56Z</time>
</trkpt>
<trkpt lat="44.9668136" lon="5.4171136">
<ele>894.94</ele>
<time>2019-07-25T09:21:57Z</time>
</trkpt>
<trkpt lat="44.9668149" lon="5.4171129">
<ele>894.94</ele>
<time>2019-07-25T09:21:58Z</time>
</trkpt>
<trkpt lat="44.9668091" lon="5.4171191">
<ele>894.94</ele>
<time>2019-07-25T09:21:59Z</time>
</trkpt>
<trkpt lat="44.9668034" lon="5.4171237">
<ele>894.94</ele>
<time>2019-07-25T09:22:00Z</time>
</trkpt>
<trkpt lat="44.9668032" lon="5.4171249">
<ele>894.94</ele>
<time>2019-07-25T09:22:01Z</time>
</trkpt>
<trkpt lat="44.9668014" lon="5.4171250">
<ele>894.94</ele>
<time>2019-07-25T09:22:02Z</time>
</trkpt>
<trkpt lat="44.9667897" lon="5.4171186">
<ele>894.95</ele>
<time>2019-07-25T09:22:03Z</time>
</trkpt>
<trkpt lat="44.9667810" lon="5.4171160">
<ele>894.95</ele>
<time>2019-07-25T09:22:04Z</time>
</trkpt>
<trkpt lat="44.9667637" lon="5.4171117">
<ele>894.97</ele>
<time>2019-07-25T09:22:05Z</time>
</trkpt>
<trkpt lat="44.9667445" lon="5.4171206">
<ele>894.97</ele>
<time>2019-07-25T09:22:06Z</time>
</trkpt>
<trkpt lat="44.9667328" lon="5.4171271">
<ele>894.97</ele>
<time>2019-07-25T09:22:07Z</time>
</trkpt>
<trkpt lat="44.9667265" lon="5.4171312">
<ele>894.98</ele>
<time>2019-07-25T09:22:08Z</time>
</trkpt>
<trkpt lat="44.9667225" lon="5.4171281">
<ele>894.98</ele>
<time>2019-07-25T09:22:09Z</time>
</trkpt>
<trkpt lat="44.9667076" lon="5.4171357">
<ele>894.99</ele>
<time>2019-07-25T09:22:10Z</time>
</trkpt>
<trkpt lat="44.9667030" lon="5.4171407">
<ele>895.00</ele>
<time>2019-07-25T09:22:11Z</time>
</trkpt>
<trkpt lat="44.9667020" lon="5.4171410">
<ele>895.00</ele>
<time>2019-07-25T09:22:12Z</time>
</trkpt>
<trkpt lat="44.9667057" lon="5.4171410">
<ele>895.01</ele>
<time>2019-07-25T09:22:13Z</time>
</trkpt>
<trkpt lat="44.9667081" lon="5.4171395">
<ele>895.01</ele>
<time>2019-07-25T09:22:14Z</time>
</trkpt>
<trkpt lat="44.9667097" lon="5.4171390">
<ele>895.02</ele>
<time>2019-07-25T09:22:15Z</time>
</trkpt>
<trkpt lat="44.9667101" lon="5.4171343">
<ele>895.03</ele>
<time>2019-07-25T09:22:16Z</time>
</trkpt>
<trkpt lat="44.9667121" lon="5.4171273">
<ele>895.03</ele>
<time>2019-07-25T09:22:17Z</time>
</trkpt>
<trkpt lat="44.9667111" lon="5.4171258">
<ele>895.03</ele>
<time>2019-07-25T09:22:18Z</time>
</trkpt>
<trkpt lat="44.9666920" lon="5.4171052">
<ele>895.04</ele>
<time>2019-07-25T09:22:19Z</time>
</trkpt>
<trkpt lat="44.9666908" lon="5.4171040">
<ele>895.04</ele>
<time>2019-07-25T09:22:20Z</time>
</trkpt>
<trkpt lat="44.9666898" lon="5.4171006">
<ele>895.05</ele>
<time>2019-07-25T09:22:21Z</time>
</trkpt>
<trkpt lat="44.9666805" lon="5.4170933">
<ele>895.07</ele>
<time>2019-07-25T09:22:22Z</time>
</trkpt>
<trkpt lat="44.9666720" lon="5.4170883">
<ele>895.09</ele>
<time>2019-07-25T09:22:23Z</time>
</trkpt>
<trkpt lat="44.9666458" lon="5.4170775">
<ele>895.11</ele>
<time>2019-07-25T09:22:24Z</time>
</trkpt>
<trkpt lat="44.9666390" lon="5.4170759">
<ele>895.11</ele>
<time>2019-07-25T09:22:25Z</time>
</trkpt>
<trkpt lat="44.9666434" lon="5.4170631">
<ele>895.12</ele>
<time>2019-07-25T09:22:26Z</time>
</trkpt>
<trkpt lat="44.9666458" lon="5.4170577">
<ele>895.13</ele>
<time>2019-07-25T09:22:27Z</time>
</trkpt>
<trkpt lat="44.9666458" lon="5.4170539">
<ele>895.14</ele>
<time>2019-07-25T09:22:28Z</time>
</trkpt>
<trkpt lat="44.9666492" lon="5.4170566">
<ele>895.15</ele>
<time>2019-07-25T09:22:29Z</time>
</trkpt>
<trkpt lat="44.9666541" lon="5.4170575">
<ele>895.16</ele>
<time>2019-07-25T09:22:30Z</time>
</trkpt>
<trkpt lat="44.9666603" lon="5.4170586">
<ele>895.17</ele>
<time>2019-07-25T09:22:31Z</time>
</trkpt>
<trkpt lat="44.9666598" lon="5.4170661">
<ele>895.17</ele>
<time>2019-07-25T09:22:32Z</time>
</trkpt>
<trkpt lat="44.9666694" lon="5.4170714">
<ele>895.19</ele>
<time>2019-07-25T09:22:33Z</time>
</trkpt>
<trkpt lat="44.9666714" lon="5.4170703">
<ele>895.20</ele>
<time>2019-07-25T09:22:34Z</time>
</trkpt>
<trkpt lat="44.9666713" lon="5.4170703">
<ele>895.20</ele>
<time>2019-07-25T09:22:35Z</time>
</trkpt>
<trkpt lat="44.9666714" lon="5.4170702">
<ele>895.20</ele>
<time>2019-07-25T09:22:36Z</time>
</trkpt>
<trkpt lat="44.9666721" lon="5.4170689">
<ele>895.21</ele>
<time>2019-07-25T09:22:37Z</time>
</trkpt>
<trkpt lat="44.9666722" lon="5.4170688">
<ele>895.21</ele>
<time>2019-07-25T09:22:38Z</time>
</trkpt>
<trkpt lat="44.9666736" lon="5.4170685">
<ele>895.22</ele>
<time>2019-07-25T09:22:39Z</time>
</trkpt>
<trkpt lat="44.9666739" lon="5.4170683">
<ele>895.23</ele>
<time>2019-07-25T09:22:40Z</time>
</trkpt>
<trkpt lat="44.9666749" lon="5.4170663">
<ele>895.23</ele>
<time>2019-07-25T09:22:41Z</time>
</trkpt>
<trkpt lat="44.9666751" lon="5.4170652">
<ele>895.24</ele>
<time>2019-07-25T09:22:42Z</time>
</trkpt>
<trkpt lat="44.9666760" lon="5.4170608">
<ele>895.25</ele>
<time>2019-07-25T09:22:43Z</time>
</trkpt>
<trkpt lat="44.9666722" lon="5.4170483">
<ele>895.31</ele>
<time>2019-07-25T09:22:44Z</time>
</trkpt>
<trkpt lat="44.9666698" lon="5.4170324">
<ele>895.37</ele>
<time>2019-07-25T09:22:45Z</time>
</trkpt>
<trkpt lat="44.9666683" lon="5.4170173">
<ele>895.43</ele>
<time>2019-07-25T09:22:46Z</time>
</trkpt>
<trkpt lat="44.9666623" lon="5.4170054">
<ele>895.49</ele>
<time>2019-07-25T09:22:47Z</time>
</trkpt>
<trkpt lat="44.9666624" lon="5.4170014">
<ele>895.49</ele>
<time>2019-07-25T09:22:48Z</time>
</trkpt>
<trkpt lat="44.9666619" lon="5.4170038">
<ele>895.50</ele>
<time>2019-07-25T09:22:49Z</time>
</trkpt>
<trkpt lat="44.9666615" lon="5.4170033">
<ele>895.50</ele>
<time>2019-07-25T09:22:50Z</time>
</trkpt>
<trkpt lat="44.9666611" lon="5.4170039">
<ele>895.51</ele>
<time>2019-07-25T09:22:51Z</time>
</trkpt>
<trkpt lat="44.9666616" lon="5.4170030">
<ele>895.52</ele>
<time>2019-07-25T09:22:52Z</time>
</trkpt>
<trkpt lat="44.9666618" lon="5.4170032">
<ele>895.52</ele>
<time>2019-07-25T09:22:53Z</time>
</trkpt>
<trkpt lat="44.9666617" lon="5.4170028">
<ele>895.53</ele>
<time>2019-07-25T09:22:54Z</time>
</trkpt>
<trkpt lat="44.9666617" lon="5.4170024">
<ele>895.53</ele>
<time>2019-07-25T09:22:55Z</time>
</trkpt>
<trkpt lat="44.9666622" lon="5.4170013">
<ele>895.54</ele>
<time>2019-07-25T09:22:56Z</time>
</trkpt>
<trkpt lat="44.9666621" lon="5.4170017">
<ele>895.55</ele>
<time>2019-07-25T09:22:57Z</time>
</trkpt>
<trkpt lat="44.9666620" lon="5.4170023">
<ele>895.55</ele>
<time>2019-07-25T09:22:58Z</time>
</trkpt>
<trkpt lat="44.9666665" lon="5.4170121">
<ele>895.61</ele>
<time>2019-07-25T09:22:59Z</time>
</trkpt>
<trkpt lat="44.9666698" lon="5.4170246">
<ele>895.67</ele>
<time>2019-07-25T09:23:00Z</time>
</trkpt>
<trkpt lat="44.9666861" lon="5.4170588">
<ele>895.68</ele>
<time>2019-07-25T09:23:01Z</time>
</trkpt>
<trkpt lat="44.9666747" lon="5.4170658">
<ele>895.74</ele>
<time>2019-07-25T09:23:02Z</time>
</trkpt>
<trkpt lat="44.9666768" lon="5.4170647">
<ele>895.75</ele>
<time>2019-07-25T09:23:03Z</time>
</trkpt>
<trkpt lat="44.9666776" lon="5.4170656">
<ele>895.75</ele>
<time>2019-07-25T09:23:04Z</time>
</trkpt>
<trkpt lat="44.9666790" lon="5.4170676">
<ele>895.76</ele>
<time>2019-07-25T09:23:05Z</time>
</trkpt>
<trkpt lat="44.9666792" lon="5.4170681">
<ele>895.77</ele>
<time>2019-07-25T09:23:06Z</time>
</trkpt>
<trkpt lat="44.9666796" lon="5.4170679">
<ele>895.77</ele>
<time>2019-07-25T09:23:07Z</time>
</trkpt>
<trkpt lat="44.9666801" lon="5.4170651">
<ele>895.78</ele>
<time>2019-07-25T09:23:08Z</time>
</trkpt>
<trkpt lat="44.9666797" lon="5.4170656">
<ele>895.79</ele>
<time>2019-07-25T09:23:09Z</time>
</trkpt>
<trkpt lat="44.9666796" lon="5.4170666">
<ele>895.79</ele>
<time>2019-07-25T09:23:10Z</time>
</trkpt>
<trkpt lat="44.9666795" lon="5.4170671">
<ele>895.80</ele>
<time>2019-07-25T09:23:11Z</time>
</trkpt>
<trkpt lat="44.9666793" lon="5.4170668">
<ele>895.81</ele>
<time>2019-07-25T09:23:12Z</time>
</trkpt>
<trkpt lat="44.9666789" lon="5.4170675">
<ele>895.82</ele>
<time>2019-07-25T09:23:13Z</time>
</trkpt>
<trkpt lat="44.9666789" lon="5.4170688">
<ele>895.83</ele>
<time>2019-07-25T09:23:14Z</time>
</trkpt>
<trkpt lat="44.9666790" lon="5.4170689">
<ele>895.84</ele>
<time>2019-07-25T09:23:15Z</time>
</trkpt>
<trkpt lat="44.9666823" lon="5.4170731">
<ele>895.92</ele>
<time>2019-07-25T09:23:16Z</time>
</trkpt>
<trkpt lat="44.9666851" lon="5.4170766">
<ele>895.93</ele>
<time>2019-07-25T09:23:17Z</time>
</trkpt>
<trkpt lat="44.9666832" lon="5.4170717">
<ele>895.94</ele>
<time>2019-07-25T09:23:18Z</time>
</trkpt>
<trkpt lat="44.9666831" lon="5.4170718">
<ele>895.95</ele>
<time>2019-07-25T09:23:19Z</time>
</trkpt>
<trkpt lat="44.9666827" lon="5.4170729">
<ele>895.96</ele>
<time>2019-07-25T09:23:20Z</time>
</trkpt>
<trkpt lat="44.9666779" lon="5.4170941">
<ele>895.96</ele>
<time>2019-07-25T09:23:21Z</time>
</trkpt>
<trkpt lat="44.9666752" lon="5.4170958">
<ele>896.06</ele>
<time>2019-07-25T09:23:22Z</time>
</trkpt>
<trkpt lat="44.9666794" lon="5.4171014">
<ele>896.07</ele>
<time>2019-07-25T09:23:23Z</time>
</trkpt>
<trkpt lat="44.9666805" lon="5.4171009">
<ele>896.07</ele>
<time>2019-07-25T09:23:24Z</time>
</trkpt>
<trkpt lat="44.9666805" lon="5.4171008">
<ele>896.08</ele>
<time>2019-07-25T09:23:25Z</time>
</trkpt>
<trkpt lat="44.9666900" lon="5.4170976">
<ele>896.09</ele>
<time>2019-07-25T09:23:26Z</time>
</trkpt>
<trkpt lat="44.9666858" lon="5.4170929">
<ele>896.16</ele>
<time>2019-07-25T09:23:27Z</time>
</trkpt>
<trkpt lat="44.9666837" lon="5.4171065">
<ele>896.22</ele>
<time>2019-07-25T09:23:28Z</time>
</trkpt>
<trkpt lat="44.9666885" lon="5.4171008">
<ele>896.23</ele>
<time>2019-07-25T09:23:29Z</time>
</trkpt>
<trkpt lat="44.9666880" lon="5.4171039">
<ele>896.23</ele>
<time>2019-07-25T09:23:30Z</time>
</trkpt>
<trkpt lat="44.9666901" lon="5.4171068">
<ele>896.24</ele>
<time>2019-07-25T09:23:31Z</time>
</trkpt>
<trkpt lat="44.9666905" lon="5.4171116">
<ele>896.25</ele>
<time>2019-07-25T09:23:32Z</time>
</trkpt>
<trkpt lat="44.9666928" lon="5.4171090">
<ele>896.25</ele>
<time>2019-07-25T09:23:33Z</time>
</trkpt>
<trkpt lat="44.9666950" lon="5.4171145">
<ele>896.32</ele>
<time>2019-07-25T09:23:34Z</time>
</trkpt>
<trkpt lat="44.9666966" lon="5.4171129">
<ele>896.33</ele>
<time>2019-07-25T09:23:35Z</time>
</trkpt>
<trkpt lat="44.9666963" lon="5.4171131">
<ele>896.34</ele>
<time>2019-07-25T09:23:36Z</time>
</trkpt>
<trkpt lat="44.9666964" lon="5.4171131">
<ele>896.34</ele>
<time>2019-07-25T09:23:37Z</time>
</trkpt>
<trkpt lat="44.9666970" lon="5.4171125">
<ele>896.35</ele>
<time>2019-07-25T09:23:38Z</time>
</trkpt>
<trkpt lat="44.9666974" lon="5.4171132">
<ele>896.36</ele>
<time>2019-07-25T09:23:39Z</time>
</trkpt>
<trkpt lat="44.9666983" lon="5.4171138">
<ele>896.37</ele>
<time>2019-07-25T09:23:40Z</time>
</trkpt>
<trkpt lat="44.9666989" lon="5.4171145">
<ele>896.37</ele>
<time>2019-07-25T09:23:41Z</time>
</trkpt>
<trkpt lat="44.9666989" lon="5.4171164">
<ele>896.38</ele>
<time>2019-07-25T09:23:42Z</time>
</trkpt>
<trkpt lat="44.9667022" lon="5.4171185">
<ele>896.38</ele>
<time>2019-07-25T09:23:43Z</time>
</trkpt>
<trkpt lat="44.9667025" lon="5.4171183">
<ele>896.39</ele>
<time>2019-07-25T09:23:44Z</time>
</trkpt>
<trkpt lat="44.9667043" lon="5.4171196">
<ele>896.40</ele>
<time>2019-07-25T09:23:45Z</time>
</trkpt>
<trkpt lat="44.9667067" lon="5.4171202">
<ele>896.40</ele>
<time>2019-07-25T09:23:46Z</time>
</trkpt>
<trkpt lat="44.9667073" lon="5.4171212">
<ele>896.41</ele>
<time>2019-07-25T09:23:47Z</time>
</trkpt>
<trkpt lat="44.9667162" lon="5.4171308">
<ele>896.41</ele>
<time>2019-07-25T09:23:48Z</time>
</trkpt>
<trkpt lat="44.9667252" lon="5.4171303">
<ele>896.41</ele>
<time>2019-07-25T09:23:49Z</time>
</trkpt>
<trkpt lat="44.9667235" lon="5.4171236">
<ele>896.43</ele>
<time>2019-07-25T09:23:50Z</time>
</trkpt>
<trkpt lat="44.9667235" lon="5.4171259">
<ele>896.45</ele>
<time>2019-07-25T09:23:51Z</time>
</trkpt>
<trkpt lat="44.9667225" lon="5.4171285">
<ele>896.47</ele>
<time>2019-07-25T09:23:52Z</time>
</trkpt>
<trkpt lat="44.9667209" lon="5.4171305">
<ele>896.49</ele>
<time>2019-07-25T09:23:53Z</time>
</trkpt>
<trkpt lat="44.9667202" lon="5.4171312">
<ele>896.50</ele>
<time>2019-07-25T09:23:54Z</time>
</trkpt>
<trkpt lat="44.9667222" lon="5.4171285">
<ele>896.50</ele>
<time>2019-07-25T09:23:55Z</time>
</trkpt>
<trkpt lat="44.9667225" lon="5.4171260">
<ele>896.50</ele>
<time>2019-07-25T09:23:56Z</time>
</trkpt>
<trkpt lat="44.9667220" lon="5.4171259">
<ele>896.50</ele>
<time>2019-07-25T09:23:57Z</time>
</trkpt>
<trkpt lat="44.9667287" lon="5.4171218">
<ele>896.52</ele>
<time>2019-07-25T09:23:58Z</time>
</trkpt>
<trkpt lat="44.9667291" lon="5.4171119">
<ele>896.52</ele>
<time>2019-07-25T09:23:59Z</time>
</trkpt>
<trkpt lat="44.9667211" lon="5.4171089">
<ele>896.53</ele>
<time>2019-07-25T09:24:00Z</time>
</trkpt>
<trkpt lat="44.9667180" lon="5.4171104">
<ele>896.53</ele>
<time>2019-07-25T09:24:01Z</time>
</trkpt>
<trkpt lat="44.9667166" lon="5.4171092">
<ele>896.53</ele>
<time>2019-07-25T09:24:02Z</time>
</trkpt>
<trkpt lat="44.9667131" lon="5.4171086">
<ele>896.54</ele>
<time>2019-07-25T09:24:03Z</time>
</trkpt>
<trkpt lat="44.9667119" lon="5.4171078">
<ele>896.55</ele>
<time>2019-07-25T09:24:04Z</time>
</trkpt>
<trkpt lat="44.9667130" lon="5.4171050">
<ele>896.55</ele>
<time>2019-07-25T09:24:05Z</time>
</trkpt>
<trkpt lat="44.9667139" lon="5.4171016">
<ele>896.55</ele>
<time>2019-07-25T09:24:06Z</time>
</trkpt>
<trkpt lat="44.9667168" lon="5.4170993">
<ele>896.55</ele>
<time>2019-07-25T09:24:07Z</time>
</trkpt>
<trkpt lat="44.9667167" lon="5.4171030">
<ele>896.56</ele>
<time>2019-07-25T09:24:08Z</time>
</trkpt>
<trkpt lat="44.9667149" lon="5.4171089">
<ele>896.56</ele>
<time>2019-07-25T09:24:09Z</time>
</trkpt>
<trkpt lat="44.9667130" lon="5.4171090">
<ele>896.56</ele>
<time>2019-07-25T09:24:10Z</time>
</trkpt>
<trkpt lat="44.9667103" lon="5.4171029">
<ele>896.57</ele>
<time>2019-07-25T09:24:11Z</time>
</trkpt>
<trkpt lat="44.9667080" lon="5.4170968">
<ele>896.58</ele>
<time>2019-07-25T09:24:12Z</time>
</trkpt>
<trkpt lat="44.9667041" lon="5.4170904">
<ele>896.58</ele>
<time>2019-07-25T09:24:13Z</time>
</trkpt>
<trkpt lat="44.9667012" lon="5.4170771">
<ele>896.58</ele>
<time>2019-07-25T09:24:14Z</time>
</trkpt>
<trkpt lat="44.9667007" lon="5.4170770">
<ele>896.58</ele>
<time>2019-07-25T09:24:15Z</time>
</trkpt>
<trkpt lat="44.9667003" lon="5.4170755">
<ele>896.58</ele>
<time>2019-07-25T09:24:16Z</time>
</trkpt>
<trkpt lat="44.9666989" lon="5.4170723">
<ele>896.58</ele>
<time>2019-07-25T09:24:17Z</time>
</trkpt>
<trkpt lat="44.9666986" lon="5.4170713">
<ele>896.57</ele>
<time>2019-07-25T09:24:18Z</time>
</trkpt>
<trkpt lat="44.9666984" lon="5.4170681">
<ele>896.57</ele>
<time>2019-07-25T09:24:19Z</time>
</trkpt>
<trkpt lat="44.9666968" lon="5.4170648">
<ele>896.57</ele>
<time>2019-07-25T09:24:20Z</time>
</trkpt>
<trkpt lat="44.9666946" lon="5.4170597">
<ele>896.56</ele>
<time>2019-07-25T09:24:21Z</time>
</trkpt>
<trkpt lat="44.9666931" lon="5.4170587">
<ele>896.56</ele>
<time>2019-07-25T09:24:22Z</time>
</trkpt>
<trkpt lat="44.9666921" lon="5.4170578">
<ele>896.55</ele>
<time>2019-07-25T09:24:23Z</time>
</trkpt>
<trkpt lat="44.9666923" lon="5.4170586">
<ele>896.55</ele>
<time>2019-07-25T09:24:24Z</time>
</trkpt>
<trkpt lat="44.9666923" lon="5.4170577">
<ele>896.55</ele>
<time>2019-07-25T09:24:25Z</time>
</trkpt>
<trkpt lat="44.9666918" lon="5.4170570">
<ele>896.54</ele>
<time>2019-07-25T09:24:26Z</time>
</trkpt>
<trkpt lat="44.9666914" lon="5.4170562">
<ele>896.54</ele>
<time>2019-07-25T09:24:27Z</time>
</trkpt>
<trkpt lat="44.9666914" lon="5.4170556">
<ele>896.54</ele>
<time>2019-07-25T09:24:28Z</time>
</trkpt>
<trkpt lat="44.9666908" lon="5.4170550">
<ele>896.54</ele>
<time>2019-07-25T09:24:29Z</time>
</trkpt>
<trkpt lat="44.9666905" lon="5.4170543">
<ele>896.54</ele>
<time>2019-07-25T09:24:30Z</time>
</trkpt>
<trkpt lat="44.9666903" lon="5.4170541">
<ele>896.54</ele>
<time>2019-07-25T09:24:31Z</time>
</trkpt>
<trkpt lat="44.9666877" lon="5.4170473">
<ele>896.55</ele>
<time>2019-07-25T09:24:32Z</time>
</trkpt>
<trkpt lat="44.9666865" lon="5.4170379">
<ele>896.55</ele>
<time>2019-07-25T09:24:33Z</time>
</trkpt>
<trkpt lat="44.9666849" lon="5.4170273">
<ele>896.55</ele>
<time>2019-07-25T09:24:34Z</time>
</trkpt>
<trkpt lat="44.9666822" lon="5.4170202">
<ele>896.56</ele>
<time>2019-07-25T09:24:35Z</time>
</trkpt>
<trkpt lat="44.9666816" lon="5.4170081">
<ele>896.56</ele>
<time>2019-07-25T09:24:36Z</time>
</trkpt>
<trkpt lat="44.9666800" lon="5.4170134">
<ele>896.57</ele>
<time>2019-07-25T09:24:37Z</time>
</trkpt>
<trkpt lat="44.9666785" lon="5.4170197">
<ele>896.58</ele>
<time>2019-07-25T09:24:38Z</time>
</trkpt>
<trkpt lat="44.9666751" lon="5.4170242">
<ele>896.59</ele>
<time>2019-07-25T09:24:39Z</time>
</trkpt>
<trkpt lat="44.9666746" lon="5.4170161">
<ele>896.61</ele>
<time>2019-07-25T09:24:40Z</time>
</trkpt>
<trkpt lat="44.9666744" lon="5.4170019">
<ele>896.62</ele>
<time>2019-07-25T09:24:41Z</time>
</trkpt>
<trkpt lat="44.9666730" lon="5.4169919">
<ele>896.64</ele>
<time>2019-07-25T09:24:42Z</time>
</trkpt>
<trkpt lat="44.9666700" lon="5.4169861">
<ele>896.66</ele>
<time>2019-07-25T09:24:43Z</time>
</trkpt>
<trkpt lat="44.9666579" lon="5.4169738">
<ele>896.66</ele>
<time>2019-07-25T09:24:44Z</time>
</trkpt>
<trkpt lat="44.9666535" lon="5.4169642">
<ele>896.67</ele>
<time>2019-07-25T09:24:45Z</time>
</trkpt>
<trkpt lat="44.9666535" lon="5.4169634">
<ele>896.67</ele>
<time>2019-07-25T09:24:46Z</time>
</trkpt>
<trkpt lat="44.9666543" lon="5.4169645">
<ele>896.68</ele>
<time>2019-07-25T09:24:47Z</time>
</trkpt>
<trkpt lat="44.9666632" lon="5.4169470">
<ele>896.69</ele>
<time>2019-07-25T09:24:48Z</time>
</trkpt>
<trkpt lat="44.9666803" lon="5.4169544">
<ele>896.71</ele>
<time>2019-07-25T09:24:49Z</time>
</trkpt>
<trkpt lat="44.9666965" lon="5.4169533">
<ele>896.73</ele>
<time>2019-07-25T09:24:50Z</time>
</trkpt>
<trkpt lat="44.9667025" lon="5.4169597">
<ele>896.75</ele>
<time>2019-07-25T09:24:51Z</time>
</trkpt>
<trkpt lat="44.9667087" lon="5.4169634">
<ele>896.77</ele>
<time>2019-07-25T09:24:52Z</time>
</trkpt>
<trkpt lat="44.9667207" lon="5.4169710">
<ele>896.79</ele>
<time>2019-07-25T09:24:53Z</time>
</trkpt>
<trkpt lat="44.9667281" lon="5.4169667">
<ele>896.79</ele>
<time>2019-07-25T09:24:54Z</time>
</trkpt>
<trkpt lat="44.9667293" lon="5.4169675">
<ele>896.82</ele>
<time>2019-07-25T09:24:55Z</time>
</trkpt>
<trkpt lat="44.9667289" lon="5.4169730">
<ele>896.86</ele>
<time>2019-07-25T09:24:56Z</time>
</trkpt>
<trkpt lat="44.9667355" lon="5.4169838">
<ele>896.88</ele>
<time>2019-07-25T09:24:57Z</time>
</trkpt>
<trkpt lat="44.9667458" lon="5.4169898">
<ele>896.90</ele>
<time>2019-07-25T09:24:58Z</time>
</trkpt>
<trkpt lat="44.9667544" lon="5.4169869">
<ele>896.92</ele>
<time>2019-07-25T09:24:59Z</time>
</trkpt>
<trkpt lat="44.9667579" lon="5.4170020">
<ele>896.92</ele>
<time>2019-07-25T09:25:00Z</time>
</trkpt>
<trkpt lat="44.9667713" lon="5.4170137">
<ele>896.93</ele>
<time>2019-07-25T09:25:01Z</time>
</trkpt>
<trkpt lat="44.9667629" lon="5.4170481">
<ele>896.92</ele>
<time>2019-07-25T09:25:02Z</time>
</trkpt>
<trkpt lat="44.9667633" lon="5.4170571">
<ele>896.90</ele>
<time>2019-07-25T09:25:03Z</time>
</trkpt>
<trkpt lat="44.9667701" lon="5.4170558">
<ele>896.90</ele>
<time>2019-07-25T09:25:04Z</time>
</trkpt>
<trkpt lat="44.9667728" lon="5.4170620">
<ele>896.89</ele>
<time>2019-07-25T09:25:05Z</time>
</trkpt>
<trkpt lat="44.9667780" lon="5.4170656">
<ele>896.88</ele>
<time>2019-07-25T09:25:06Z</time>
</trkpt>
<trkpt lat="44.9667773" lon="5.4170657">
<ele>896.88</ele>
<time>2019-07-25T09:25:07Z</time>
</trkpt>
<trkpt lat="44.9667775" lon="5.4170661">
<ele>896.88</ele>
<time>2019-07-25T09:25:08Z</time>
</trkpt>
<trkpt lat="44.9667848" lon="5.4170738">
<ele>896.86</ele>
<time>2019-07-25T09:25:09Z</time>
</trkpt>
<trkpt lat="44.9667870" lon="5.4170829">
<ele>896.83</ele>
<time>2019-07-25T09:25:10Z</time>
</trkpt>
<trkpt lat="44.9667964" lon="5.4170794">
<ele>896.80</ele>
<time>2019-07-25T09:25:11Z</time>
</trkpt>
<trkpt lat="44.9668005" lon="5.4170791">
<ele>896.77</ele>
<time>2019-07-25T09:25:12Z</time>
</trkpt>
<trkpt lat="44.9668003" lon="5.4170817">
<ele>896.74</ele>
<time>2019-07-25T09:25:13Z</time>
</trkpt>
<trkpt lat="44.9667980" lon="5.4170844">
<ele>896.70</ele>
<time>2019-07-25T09:25:14Z</time>
</trkpt>
<trkpt lat="44.9667959" lon="5.4170860">
<ele>896.69</ele>
<time>2019-07-25T09:25:15Z</time>
</trkpt>
<trkpt lat="44.9667966" lon="5.4170858">
<ele>896.69</ele>
<time>2019-07-25T09:25:16Z</time>
</trkpt>
<trkpt lat="44.9667963" lon="5.4170858">
<ele>896.69</ele>
<time>2019-07-25T09:25:17Z</time>
</trkpt>
<trkpt lat="44.9667958" lon="5.4170861">
<ele>896.68</ele>
<time>2019-07-25T09:25:18Z</time>
</trkpt>
<trkpt lat="44.9667956" lon="5.4170865">
<ele>896.68</ele>
<time>2019-07-25T09:25:19Z</time>
</trkpt>
<trkpt lat="44.9667959" lon="5.4170858">
<ele>896.67</ele>
<time>2019-07-25T09:25:20Z</time>
</trkpt>
<trkpt lat="44.9667946" lon="5.4170870">
<ele>896.67</ele>
<time>2019-07-25T09:25:21Z</time>
</trkpt>
<trkpt lat="44.9667939" lon="5.4170869">
<ele>896.66</ele>
<time>2019-07-25T09:25:22Z</time>
</trkpt>
<trkpt lat="44.9667937" lon="5.4170864">
<ele>896.66</ele>
<time>2019-07-25T09:25:23Z</time>
</trkpt>
<trkpt lat="44.9667934" lon="5.4170864">
<ele>896.65</ele>
<time>2019-07-25T09:25:24Z</time>
</trkpt>
<trkpt lat="44.9667926" lon="5.4170870">
<ele>896.64</ele>
<time>2019-07-25T09:25:25Z</time>
</trkpt>
<trkpt lat="44.9667920" lon="5.4170869">
<ele>896.64</ele>
<time>2019-07-25T09:25:26Z</time>
</trkpt>
<trkpt lat="44.9667921" lon="5.4170865">
<ele>896.63</ele>
<time>2019-07-25T09:25:27Z</time>
</trkpt>
<trkpt lat="44.9667917" lon="5.4170861">
<ele>896.62</ele>
<time>2019-07-25T09:25:28Z</time>
</trkpt>
<trkpt lat="44.9667909" lon="5.4170869">
<ele>896.62</ele>
<time>2019-07-25T09:25:29Z</time>
</trkpt>
<trkpt lat="44.9667905" lon="5.4170872">
<ele>896.61</ele>
<time>2019-07-25T09:25:30Z</time>
</trkpt>
<trkpt lat="44.9667892" lon="5.4170885">
<ele>896.60</ele>
<time>2019-07-25T09:25:31Z</time>
</trkpt>
<trkpt lat="44.9667888" lon="5.4170885">
<ele>896.59</ele>
<time>2019-07-25T09:25:32Z</time>
</trkpt>
<trkpt lat="44.9667893" lon="5.4170879">
<ele>896.59</ele>
<time>2019-07-25T09:25:33Z</time>
</trkpt>
<trkpt lat="44.9667902" lon="5.4170871">
<ele>896.58</ele>
<time>2019-07-25T09:25:34Z</time>
</trkpt>
<trkpt lat="44.9667911" lon="5.4170860">
<ele>896.57</ele>
<time>2019-07-25T09:25:35Z</time>
</trkpt>
<trkpt lat="44.9667908" lon="5.4170852">
<ele>896.56</ele>
<time>2019-07-25T09:25:36Z</time>
</trkpt>
<trkpt lat="44.9667904" lon="5.4170841">
<ele>896.55</ele>
<time>2019-07-25T09:25:37Z</time>
</trkpt>
<trkpt lat="44.9667903" lon="5.4170835">
<ele>896.54</ele>
<time>2019-07-25T09:25:38Z</time>
</trkpt>
<trkpt lat="44.9667895" lon="5.4170833">
<ele>896.53</ele>
<time>2019-07-25T09:25:39Z</time>
</trkpt>
<trkpt lat="44.9667888" lon="5.4170829">
<ele>896.52</ele>
<time>2019-07-25T09:25:40Z</time>
</trkpt>
<trkpt lat="44.9667871" lon="5.4170839">
<ele>896.51</ele>
<time>2019-07-25T09:25:41Z</time>
</trkpt>
<trkpt lat="44.9667865" lon="5.4170830">
<ele>896.50</ele>
<time>2019-07-25T09:25:42Z</time>
</trkpt>
<trkpt lat="44.9667864" lon="5.4170825">
<ele>896.50</ele>
<time>2019-07-25T09:25:43Z</time>
</trkpt>
<trkpt lat="44.9667863" lon="5.4170823">
<ele>896.49</ele>
<time>2019-07-25T09:25:44Z</time>
</trkpt>
<trkpt lat="44.9667863" lon="5.4170819">
<ele>896.48</ele>
<time>2019-07-25T09:25:45Z</time>
</trkpt>
<trkpt lat="44.9667862" lon="5.4170814">
<ele>896.47</ele>
<time>2019-07-25T09:25:46Z</time>
</trkpt>
<trkpt lat="44.9667866" lon="5.4170808">
<ele>896.46</ele>
<time>2019-07-25T09:25:47Z</time>
</trkpt>
<trkpt lat="44.9667868" lon="5.4170801">
<ele>896.46</ele>
<time>2019-07-25T09:25:48Z</time>
</trkpt>
<trkpt lat="44.9667868" lon="5.4170794">
<ele>896.45</ele>
<time>2019-07-25T09:25:49Z</time>
</trkpt>
<trkpt lat="44.9667871" lon="5.4170786">
<ele>896.44</ele>
<time>2019-07-25T09:25:50Z</time>
</trkpt>
<trkpt lat="44.9667868" lon="5.4170778">
<ele>896.44</ele>
<time>2019-07-25T09:25:51Z</time>
</trkpt>
<trkpt lat="44.9667871" lon="5.4170773">
<ele>896.43</ele>
<time>2019-07-25T09:25:52Z</time>
</trkpt>
<trkpt lat="44.9667875" lon="5.4170768">
<ele>896.43</ele>
<time>2019-07-25T09:25:53Z</time>
</trkpt>
<trkpt lat="44.9667880" lon="5.4170756">
<ele>896.42</ele>
<time>2019-07-25T09:25:54Z</time>
</trkpt>
<trkpt lat="44.9667883" lon="5.4170753">
<ele>896.42</ele>
<time>2019-07-25T09:25:55Z</time>
</trkpt>
<trkpt lat="44.9667890" lon="5.4170746">
<ele>896.41</ele>
<time>2019-07-25T09:25:56Z</time>
</trkpt>
<trkpt lat="44.9667888" lon="5.4170735">
<ele>896.41</ele>
<time>2019-07-25T09:25:57Z</time>
</trkpt>
<trkpt lat="44.9667887" lon="5.4170733">
<ele>896.40</ele>
<time>2019-07-25T09:25:58Z</time>
</trkpt>
<trkpt lat="44.9667892" lon="5.4170724">
<ele>896.40</ele>
<time>2019-07-25T09:25:59Z</time>
</trkpt>
<trkpt lat="44.9667935" lon="5.4170677">
<ele>896.35</ele>
<time>2019-07-25T09:26:00Z</time>
</trkpt>
<trkpt lat="44.9667931" lon="5.4170650">
<ele>896.31</ele>
<time>2019-07-25T09:26:01Z</time>
</trkpt>
<trkpt lat="44.9667986" lon="5.4170450">
<ele>896.31</ele>
<time>2019-07-25T09:26:02Z</time>
</trkpt>
<trkpt lat="44.9667916" lon="5.4170384">
<ele>896.30</ele>
<time>2019-07-25T09:26:03Z</time>
</trkpt>
<trkpt lat="44.9667908" lon="5.4170377">
<ele>896.30</ele>
<time>2019-07-25T09:26:04Z</time>
</trkpt>
<trkpt lat="44.9667920" lon="5.4170361">
<ele>896.30</ele>
<time>2019-07-25T09:26:05Z</time>
</trkpt>
<trkpt lat="44.9667916" lon="5.4170346">
<ele>896.29</ele>
<time>2019-07-25T09:26:06Z</time>
</trkpt>
<trkpt lat="44.9667914" lon="5.4170343">
<ele>896.29</ele>
<time>2019-07-25T09:26:07Z</time>
</trkpt>
<trkpt lat="44.9667910" lon="5.4170344">
<ele>896.29</ele>
<time>2019-07-25T09:26:08Z</time>
</trkpt>
<trkpt lat="44.9667908" lon="5.4170336">
<ele>896.29</ele>
<time>2019-07-25T09:26:09Z</time>
</trkpt>
<trkpt lat="44.9667899" lon="5.4170330">
<ele>896.28</ele>
<time>2019-07-25T09:26:10Z</time>
</trkpt>
<trkpt lat="44.9667897" lon="5.4170325">
<ele>896.28</ele>
<time>2019-07-25T09:26:11Z</time>
</trkpt>
<trkpt lat="44.9667906" lon="5.4170315">
<ele>896.28</ele>
<time>2019-07-25T09:26:12Z</time>
</trkpt>
<trkpt lat="44.9667909" lon="5.4170301">
<ele>896.28</ele>
<time>2019-07-25T09:26:13Z</time>
</trkpt>
<trkpt lat="44.9667916" lon="5.4170288">
<ele>896.27</ele>
<time>2019-07-25T09:26:14Z</time>
</trkpt>
<trkpt lat="44.9667919" lon="5.4170288">
<ele>896.27</ele>
<time>2019-07-25T09:26:15Z</time>
</trkpt>
<trkpt lat="44.9667930" lon="5.4170278">
<ele>896.27</ele>
<time>2019-07-25T09:26:16Z</time>
</trkpt>
<trkpt lat="44.9667942" lon="5.4170280">
<ele>896.27</ele>
<time>2019-07-25T09:26:17Z</time>
</trkpt>
<trkpt lat="44.9667944" lon="5.4170281">
<ele>896.26</ele>
<time>2019-07-25T09:26:18Z</time>
</trkpt>
<trkpt lat="44.9667942" lon="5.4170275">
<ele>896.26</ele>
<time>2019-07-25T09:26:19Z</time>
</trkpt>
<trkpt lat="44.9667948" lon="5.4170271">
<ele>896.26</ele>
<time>2019-07-25T09:26:20Z</time>
</trkpt>
<trkpt lat="44.9667945" lon="5.4170284">
<ele>896.26</ele>
<time>2019-07-25T09:26:21Z</time>
</trkpt>
<trkpt lat="44.9667943" lon="5.4170288">
<ele>896.25</ele>
<time>2019-07-25T09:26:22Z</time>
</trkpt>
<trkpt lat="44.9667946" lon="5.4170289">
<ele>896.25</ele>
<time>2019-07-25T09:26:23Z</time>
</trkpt>
<trkpt lat="44.9667943" lon="5.4170293">
<ele>896.25</ele>
<time>2019-07-25T09:26:24Z</time>
</trkpt>
<trkpt lat="44.9667947" lon="5.4170290">
<ele>896.25</ele>
<time>2019-07-25T09:26:25Z</time>
</trkpt>
<trkpt lat="44.9667933" lon="5.4170307">
<ele>896.25</ele>
<time>2019-07-25T09:26:26Z</time>
</trkpt>
<trkpt lat="44.9667932" lon="5.4170315">
<ele>896.24</ele>
<time>2019-07-25T09:26:27Z</time>
</trkpt>
<trkpt lat="44.9667936" lon="5.4170332">
<ele>896.24</ele>
<time>2019-07-25T09:26:28Z</time>
</trkpt>
<trkpt lat="44.9667935" lon="5.4170336">
<ele>896.24</ele>
<time>2019-07-25T09:26:29Z</time>
</trkpt>
<trkpt lat="44.9667925" lon="5.4170348">
<ele>896.24</ele>
<time>2019-07-25T09:26:30Z</time>
</trkpt>
<trkpt lat="44.9667919" lon="5.4170366">
<ele>896.23</ele>
<time>2019-07-25T09:26:31Z</time>
</trkpt>
<trkpt lat="44.9667919" lon="5.4170375">
<ele>896.23</ele>
<time>2019-07-25T09:26:32Z</time>
</trkpt>
<trkpt lat="44.9667889" lon="5.4170445">
<ele>896.23</ele>
<time>2019-07-25T09:26:33Z</time>
</trkpt>
<trkpt lat="44.9667860" lon="5.4170494">
<ele>896.22</ele>
<time>2019-07-25T09:26:34Z</time>
</trkpt>
<trkpt lat="44.9667856" lon="5.4170498">
<ele>896.21</ele>
<time>2019-07-25T09:26:35Z</time>
</trkpt>
<trkpt lat="44.9667858" lon="5.4170497">
<ele>896.21</ele>
<time>2019-07-25T09:26:36Z</time>
</trkpt>
<trkpt lat="44.9667857" lon="5.4170498">
<ele>896.20</ele>
<time>2019-07-25T09:26:37Z</time>
</trkpt>
<trkpt lat="44.9667858" lon="5.4170498">
<ele>896.19</ele>
<time>2019-07-25T09:26:38Z</time>
</trkpt>
<trkpt lat="44.9667857" lon="5.4170502">
<ele>896.19</ele>
<time>2019-07-25T09:26:39Z</time>
</trkpt>
<trkpt lat="44.9667855" lon="5.4170505">
<ele>896.18</ele>
<time>2019-07-25T09:26:40Z</time>
</trkpt>
<trkpt lat="44.9667854" lon="5.4170509">
<ele>896.17</ele>
<time>2019-07-25T09:26:41Z</time>
</trkpt>
<trkpt lat="44.9667854" lon="5.4170512">
<ele>896.17</ele>
<time>2019-07-25T09:26:42Z</time>
</trkpt>
<trkpt lat="44.9667854" lon="5.4170514">
<ele>896.16</ele>
<time>2019-07-25T09:26:43Z</time>
</trkpt>
<trkpt lat="44.9667856" lon="5.4170516">
<ele>896.15</ele>
<time>2019-07-25T09:26:44Z</time>
</trkpt>
<trkpt lat="44.9667855" lon="5.4170518">
<ele>896.15</ele>
<time>2019-07-25T09:26:45Z</time>
</trkpt>
<trkpt lat="44.9667862" lon="5.4170517">
<ele>896.14</ele>
<time>2019-07-25T09:26:46Z</time>
</trkpt>
<trkpt lat="44.9667868" lon="5.4170515">
<ele>896.14</ele>
<time>2019-07-25T09:26:47Z</time>
</trkpt>
<trkpt lat="44.9667868" lon="5.4170518">
<ele>896.13</ele>
<time>2019-07-25T09:26:48Z</time>
</trkpt>
<trkpt lat="44.9667864" lon="5.4170523">
<ele>896.13</ele>
<time>2019-07-25T09:26:49Z</time>
</trkpt>
<trkpt lat="44.9667855" lon="5.4170530">
<ele>896.12</ele>
<time>2019-07-25T09:26:50Z</time>
</trkpt>
<trkpt lat="44.9667850" lon="5.4170535">
<ele>896.11</ele>
<time>2019-07-25T09:26:51Z</time>
</trkpt>
<trkpt lat="44.9667848" lon="5.4170539">
<ele>896.11</ele>
<time>2019-07-25T09:26:52Z</time>
</trkpt>
<trkpt lat="44.9667845" lon="5.4170542">
<ele>896.10</ele>
<time>2019-07-25T09:26:53Z</time>
</trkpt>
<trkpt lat="44.9667844" lon="5.4170545">
<ele>896.10</ele>
<time>2019-07-25T09:26:54Z</time>
</trkpt>
<trkpt lat="44.9667843" lon="5.4170548">
<ele>896.09</ele>
<time>2019-07-25T09:26:55Z</time>
</trkpt>
<trkpt lat="44.9667845" lon="5.4170549">
<ele>896.08</ele>
<time>2019-07-25T09:26:56Z</time>
</trkpt>
<trkpt lat="44.9667847" lon="5.4170551">
<ele>896.08</ele>
<time>2019-07-25T09:26:57Z</time>
</trkpt>
<trkpt lat="44.9667846" lon="5.4170556">
<ele>896.07</ele>
<time>2019-07-25T09:26:58Z</time>
</trkpt>
<trkpt lat="44.9667844" lon="5.4170562">
<ele>896.07</ele>
<time>2019-07-25T09:26:59Z</time>
</trkpt>
<trkpt lat="44.9667844" lon="5.4170567">
<ele>896.07</ele>
<time>2019-07-25T09:27:00Z</time>
</trkpt>
<trkpt lat="44.9667843" lon="5.4170572">
<ele>896.06</ele>
<time>2019-07-25T09:27:01Z</time>
</trkpt>
<trkpt lat="44.9667845" lon="5.4170575">
<ele>896.06</ele>
<time>2019-07-25T09:27:02Z</time>
</trkpt>
<trkpt lat="44.9667846" lon="5.4170578">
<ele>896.05</ele>
<time>2019-07-25T09:27:03Z</time>
</trkpt>
<trkpt lat="44.9667844" lon="5.4170583">
<ele>896.05</ele>
<time>2019-07-25T09:27:04Z</time>
</trkpt>
<trkpt lat="44.9667842" lon="5.4170588">
<ele>896.04</ele>
<time>2019-07-25T09:27:05Z</time>
</trkpt>
<trkpt lat="44.9667845" lon="5.4170588">
<ele>896.04</ele>
<time>2019-07-25T09:27:06Z</time>
</trkpt>
<trkpt lat="44.9667843" lon="5.4170594">
<ele>896.03</ele>
<time>2019-07-25T09:27:07Z</time>
</trkpt>
<trkpt lat="44.9667842" lon="5.4170597">
<ele>896.03</ele>
<time>2019-07-25T09:27:08Z</time>
</trkpt>
<trkpt lat="44.9667842" lon="5.4170600">
<ele>896.03</ele>
<time>2019-07-25T09:27:09Z</time>
</trkpt>
<trkpt lat="44.9667841" lon="5.4170603">
<ele>896.02</ele>
<time>2019-07-25T09:27:10Z</time>
</trkpt>
<trkpt lat="44.9667840" lon="5.4170605">
<ele>896.02</ele>
<time>2019-07-25T09:27:11Z</time>
</trkpt>
<trkpt lat="44.9667839" lon="5.4170608">
<ele>896.02</ele>
<time>2019-07-25T09:27:12Z</time>
</trkpt>
<trkpt lat="44.9667840" lon="5.4170609">
<ele>896.01</ele>
<time>2019-07-25T09:27:13Z</time>
</trkpt>
<trkpt lat="44.9667839" lon="5.4170611">
<ele>896.01</ele>
<time>2019-07-25T09:27:14Z</time>
</trkpt>
<trkpt lat="44.9667838" lon="5.4170614">
<ele>896.01</ele>
<time>2019-07-25T09:27:15Z</time>
</trkpt>
<trkpt lat="44.9667837" lon="5.4170616">
<ele>896.00</ele>
<time>2019-07-25T09:27:16Z</time>
</trkpt>
<trkpt lat="44.9667833" lon="5.4170622">
<ele>896.00</ele>
<time>2019-07-25T09:27:17Z</time>
</trkpt>
<trkpt lat="44.9667831" lon="5.4170626">
<ele>896.00</ele>
<time>2019-07-25T09:27:18Z</time>
</trkpt>
<trkpt lat="44.9667830" lon="5.4170628">
<ele>895.99</ele>
<time>2019-07-25T09:27:19Z</time>
</trkpt>
<trkpt lat="44.9667829" lon="5.4170628">
<ele>895.99</ele>
<time>2019-07-25T09:27:20Z</time>
</trkpt>
<trkpt lat="44.9667828" lon="5.4170632">
<ele>895.98</ele>
<time>2019-07-25T09:27:21Z</time>
</trkpt>
<trkpt lat="44.9667825" lon="5.4170636">
<ele>895.98</ele>
<time>2019-07-25T09:27:22Z</time>
</trkpt>
<trkpt lat="44.9667823" lon="5.4170639">
<ele>895.97</ele>
<time>2019-07-25T09:27:23Z</time>
</trkpt>
<trkpt lat="44.9667820" lon="5.4170643">
<ele>895.97</ele>
<time>2019-07-25T09:27:24Z</time>
</trkpt>
<trkpt lat="44.9667820" lon="5.4170643">
<ele>895.96</ele>
<time>2019-07-25T09:27:25Z</time>
</trkpt>
<trkpt lat="44.9667821" lon="5.4170643">
<ele>895.96</ele>
<time>2019-07-25T09:27:26Z</time>
</trkpt>
<trkpt lat="44.9667819" lon="5.4170646">
<ele>895.95</ele>
<time>2019-07-25T09:27:27Z</time>
</trkpt>
<trkpt lat="44.9667815" lon="5.4170652">
<ele>895.95</ele>
<time>2019-07-25T09:27:28Z</time>
</trkpt>
<trkpt lat="44.9667813" lon="5.4170655">
<ele>895.94</ele>
<time>2019-07-25T09:27:29Z</time>
</trkpt>
<trkpt lat="44.9667813" lon="5.4170656">
<ele>895.93</ele>
<time>2019-07-25T09:27:30Z</time>
</trkpt>
<trkpt lat="44.9667811" lon="5.4170659">
<ele>895.93</ele>
<time>2019-07-25T09:27:31Z</time>
</trkpt>
<trkpt lat="44.9667808" lon="5.4170663">
<ele>895.92</ele>
<time>2019-07-25T09:27:32Z</time>
</trkpt>
<trkpt lat="44.9667805" lon="5.4170669">
<ele>895.91</ele>
<time>2019-07-25T09:27:33Z</time>
</trkpt>
<trkpt lat="44.9667806" lon="5.4170669">
<ele>895.90</ele>
<time>2019-07-25T09:27:34Z</time>
</trkpt>
<trkpt lat="44.9667805" lon="5.4170670">
<ele>895.89</ele>
<time>2019-07-25T09:27:35Z</time>
</trkpt>
<trkpt lat="44.9667806" lon="5.4170669">
<ele>895.88</ele>
<time>2019-07-25T09:27:36Z</time>
</trkpt>
<trkpt lat="44.9667805" lon="5.4170670">
<ele>895.87</ele>
<time>2019-07-25T09:27:37Z</time>
</trkpt>
<trkpt lat="44.9667803" lon="5.4170674">
<ele>895.86</ele>
<time>2019-07-25T09:27:38Z</time>
</trkpt>
<trkpt lat="44.9667802" lon="5.4170676">
<ele>895.85</ele>
<time>2019-07-25T09:27:39Z</time>
</trkpt>
<trkpt lat="44.9667802" lon="5.4170677">
<ele>895.84</ele>
<time>2019-07-25T09:27:40Z</time>
</trkpt>
<trkpt lat="44.9667801" lon="5.4170679">
<ele>895.83</ele>
<time>2019-07-25T09:27:41Z</time>
</trkpt>
<trkpt lat="44.9667802" lon="5.4170678">
<ele>895.82</ele>
<time>2019-07-25T09:27:42Z</time>
</trkpt>
<trkpt lat="44.9667806" lon="5.4170676">
<ele>895.81</ele>
<time>2019-07-25T09:27:43Z</time>
</trkpt>
<trkpt lat="44.9667813" lon="5.4170669">
<ele>895.79</ele>
<time>2019-07-25T09:27:44Z</time>
</trkpt>
<trkpt lat="44.9667812" lon="5.4170670">
<ele>895.78</ele>
<time>2019-07-25T09:27:45Z</time>
</trkpt>
<trkpt lat="44.9667817" lon="5.4170665">
<ele>895.77</ele>
<time>2019-07-25T09:27:46Z</time>
</trkpt>
<trkpt lat="44.9667817" lon="5.4170666">
<ele>895.76</ele>
<time>2019-07-25T09:27:47Z</time>
</trkpt>
<trkpt lat="44.9667816" lon="5.4170669">
<ele>895.74</ele>
<time>2019-07-25T09:27:48Z</time>
</trkpt>
<trkpt lat="44.9667817" lon="5.4170669">
<ele>895.73</ele>
<time>2019-07-25T09:27:49Z</time>
</trkpt>
<trkpt lat="44.9667815" lon="5.4170672">
<ele>895.72</ele>
<time>2019-07-25T09:27:50Z</time>
</trkpt>
<trkpt lat="44.9667816" lon="5.4170672">
<ele>895.71</ele>
<time>2019-07-25T09:27:51Z</time>
</trkpt>
<trkpt lat="44.9667816" lon="5.4170674">
<ele>895.69</ele>
<time>2019-07-25T09:27:52Z</time>
</trkpt>
<trkpt lat="44.9667815" lon="5.4170677">
<ele>895.68</ele>
<time>2019-07-25T09:27:53Z</time>
</trkpt>
<trkpt lat="44.9667814" lon="5.4170681">
<ele>895.67</ele>
<time>2019-07-25T09:27:54Z</time>
</trkpt>
<trkpt lat="44.9667807" lon="5.4170692">
<ele>895.65</ele>
<time>2019-07-25T09:27:55Z</time>
</trkpt>
<trkpt lat="44.9667808" lon="5.4170694">
<ele>895.64</ele>
<time>2019-07-25T09:27:56Z</time>
</trkpt>
<trkpt lat="44.9667808" lon="5.4170697">
<ele>895.63</ele>
<time>2019-07-25T09:27:57Z</time>
</trkpt>
<trkpt lat="44.9667806" lon="5.4170703">
<ele>895.61</ele>
<time>2019-07-25T09:27:58Z</time>
</trkpt>
<trkpt lat="44.9667805" lon="5.4170707">
<ele>895.60</ele>
<time>2019-07-25T09:27:59Z</time>
</trkpt>
<trkpt lat="44.9667805" lon="5.4170711">
<ele>895.58</ele>
<time>2019-07-25T09:28:00Z</time>
</trkpt>
<trkpt lat="44.9667805" lon="5.4170716">
<ele>895.57</ele>
<time>2019-07-25T09:28:01Z</time>
</trkpt>
<trkpt lat="44.9667801" lon="5.4170725">
<ele>895.56</ele>
<time>2019-07-25T09:28:02Z</time>
</trkpt>
<trkpt lat="44.9667796" lon="5.4170739">
<ele>895.54</ele>
<time>2019-07-25T09:28:03Z</time>
</trkpt>
<trkpt lat="44.9667796" lon="5.4170742">
<ele>895.53</ele>
<time>2019-07-25T09:28:04Z</time>
</trkpt>
<trkpt lat="44.9667790" lon="5.4170758">
<ele>895.51</ele>
<time>2019-07-25T09:28:05Z</time>
</trkpt>
<trkpt lat="44.9667785" lon="5.4170769">
<ele>895.50</ele>
<time>2019-07-25T09:28:06Z</time>
</trkpt>
<trkpt lat="44.9667782" lon="5.4170778">
<ele>895.49</ele>
<time>2019-07-25T09:28:07Z</time>
</trkpt>
<trkpt lat="44.9667781" lon="5.4170785">
<ele>895.47</ele>
<time>2019-07-25T09:28:08Z</time>
</trkpt>
<trkpt lat="44.9667780" lon="5.4170790">
<ele>895.46</ele>
<time>2019-07-25T09:28:09Z</time>
</trkpt>
<trkpt lat="44.9667777" lon="5.4170798">
<ele>895.44</ele>
<time>2019-07-25T09:28:10Z</time>
</trkpt>
<trkpt lat="44.9667773" lon="5.4170809">
<ele>895.43</ele>
<time>2019-07-25T09:28:11Z</time>
</trkpt>
<trkpt lat="44.9667767" lon="5.4170821">
<ele>895.41</ele>
<time>2019-07-25T09:28:12Z</time>
</trkpt>
<trkpt lat="44.9667763" lon="5.4170832">
<ele>895.40</ele>
<time>2019-07-25T09:28:13Z</time>
</trkpt>
<trkpt lat="44.9667765" lon="5.4170833">
<ele>895.39</ele>
<time>2019-07-25T09:28:14Z</time>
</trkpt>
<trkpt lat="44.9667769" lon="5.4170836">
<ele>895.37</ele>
<time>2019-07-25T09:28:15Z</time>
</trkpt>
<trkpt lat="44.9667769" lon="5.4170837">
<ele>895.36</ele>
<time>2019-07-25T09:28:16Z</time>
</trkpt>
<trkpt lat="44.9667768" lon="5.4170837">
<ele>895.34</ele>
<time>2019-07-25T09:28:17Z</time>
</trkpt>
<trkpt lat="44.9667767" lon="5.4170837">
<ele>895.33</ele>
<time>2019-07-25T09:28:18Z</time>
</trkpt>
<trkpt lat="44.9667766" lon="5.4170839">
<ele>895.31</ele>
<time>2019-07-25T09:28:19Z</time>
</trkpt>
<trkpt lat="44.9667772" lon="5.4170836">
<ele>895.30</ele>
<time>2019-07-25T09:28:20Z</time>
</trkpt>
<trkpt lat="44.9667775" lon="5.4170836">
<ele>895.29</ele>
<time>2019-07-25T09:28:21Z</time>
</trkpt>
<trkpt lat="44.9667776" lon="5.4170836">
<ele>895.27</ele>
<time>2019-07-25T09:28:22Z</time>
</trkpt>
<trkpt lat="44.9667779" lon="5.4170830">
<ele>895.26</ele>
<time>2019-07-25T09:28:23Z</time>
</trkpt>
<trkpt lat="44.9667780" lon="5.4170833">
<ele>895.24</ele>
<time>2019-07-25T09:28:24Z</time>
</trkpt>
<trkpt lat="44.9667778" lon="5.4170829">
<ele>895.23</ele>
<time>2019-07-25T09:28:25Z</time>
</trkpt>
<trkpt lat="44.9667776" lon="5.4170829">
<ele>895.22</ele>
<time>2019-07-25T09:28:26Z</time>
</trkpt>
<trkpt lat="44.9667771" lon="5.4170833">
<ele>895.20</ele>
<time>2019-07-25T09:28:27Z</time>
</trkpt>
<trkpt lat="44.9667770" lon="5.4170839">
<ele>895.19</ele>
<time>2019-07-25T09:28:28Z</time>
</trkpt>
<trkpt lat="44.9667769" lon="5.4170853">
<ele>895.18</ele>
<time>2019-07-25T09:28:29Z</time>
</trkpt>
<trkpt lat="44.9667761" lon="5.4170876">
<ele>895.16</ele>
<time>2019-07-25T09:28:30Z</time>
</trkpt>
<trkpt lat="44.9667751" lon="5.4170930">
<ele>895.15</ele>
<time>2019-07-25T09:28:31Z</time>
</trkpt>
<trkpt lat="44.9667755" lon="5.4170938">
<ele>895.13</ele>
<time>2019-07-25T09:28:32Z</time>
</trkpt>
<trkpt lat="44.9667752" lon="5.4170951">
<ele>895.12</ele>
<time>2019-07-25T09:28:33Z</time>
</trkpt>
<trkpt lat="44.9667744" lon="5.4170955">
<ele>895.10</ele>
<time>2019-07-25T09:28:34Z</time>
</trkpt>
<trkpt lat="44.9667731" lon="5.4170969">
<ele>895.09</ele>
<time>2019-07-25T09:28:35Z</time>
</trkpt>
<trkpt lat="44.9667721" lon="5.4170980">
<ele>895.07</ele>
<time>2019-07-25T09:28:36Z</time>
</trkpt>
<trkpt lat="44.9667708" lon="5.4170996">
<ele>895.06</ele>
<time>2019-07-25T09:28:37Z</time>
</trkpt>
<trkpt lat="44.9667709" lon="5.4170998">
<ele>895.04</ele>
<time>2019-07-25T09:28:38Z</time>
</trkpt>
<trkpt lat="44.9667715" lon="5.4170991">
<ele>895.03</ele>
<time>2019-07-25T09:28:39Z</time>
</trkpt>
<trkpt lat="44.9667720" lon="5.4170987">
<ele>895.01</ele>
<time>2019-07-25T09:28:40Z</time>
</trkpt>
<trkpt lat="44.9667725" lon="5.4170982">
<ele>895.00</ele>
<time>2019-07-25T09:28:41Z</time>
</trkpt>
<trkpt lat="44.9667729" lon="5.4170982">
<ele>894.98</ele>
<time>2019-07-25T09:28:42Z</time>
</trkpt>
<trkpt lat="44.9667726" lon="5.4170982">
<ele>894.97</ele>
<time>2019-07-25T09:28:43Z</time>
</trkpt>
<trkpt lat="44.9667724" lon="5.4170980">
<ele>894.96</ele>
<time>2019-07-25T09:28:44Z</time>
</trkpt>
<trkpt lat="44.9667724" lon="5.4170977">
<ele>894.94</ele>
<time>2019-07-25T09:28:45Z</time>
</trkpt>
<trkpt lat="44.9667725" lon="5.4170973">
<ele>894.93</ele>
<time>2019-07-25T09:28:46Z</time>
</trkpt>
<trkpt lat="44.9667729" lon="5.4170968">
<ele>894.92</ele>
<time>2019-07-25T09:28:47Z</time>
</trkpt>
<trkpt lat="44.9667726" lon="5.4170972">
<ele>894.91</ele>
<time>2019-07-25T09:28:48Z</time>
</trkpt>
<trkpt lat="44.9667728" lon="5.4170970">
<ele>894.90</ele>
<time>2019-07-25T09:28:49Z</time>
</trkpt>
<trkpt lat="44.9667729" lon="5.4170968">
<ele>894.88</ele>
<time>2019-07-25T09:28:50Z</time>
</trkpt>
<trkpt lat="44.9667739" lon="5.4170957">
<ele>894.87</ele>
<time>2019-07-25T09:28:51Z</time>
</trkpt>
<trkpt lat="44.9667749" lon="5.4170941">
<ele>894.86</ele>
<time>2019-07-25T09:28:52Z</time>
</trkpt>
<trkpt lat="44.9667748" lon="5.4170931">
<ele>894.85</ele>
<time>2019-07-25T09:28:53Z</time>
</trkpt>
<trkpt lat="44.9667752" lon="5.4170921">
<ele>894.84</ele>
<time>2019-07-25T09:28:54Z</time>
</trkpt>
<trkpt lat="44.9667755" lon="5.4170914">
<ele>894.83</ele>
<time>2019-07-25T09:28:55Z</time>
</trkpt>
<trkpt lat="44.9667759" lon="5.4170908">
<ele>894.82</ele>
<time>2019-07-25T09:28:56Z</time>
</trkpt>
<trkpt lat="44.9667757" lon="5.4170908">
<ele>894.81</ele>
<time>2019-07-25T09:28:57Z</time>
</trkpt>
<trkpt lat="44.9667758" lon="5.4170906">
<ele>894.79</ele>
<time>2019-07-25T09:28:58Z</time>
</trkpt>
<trkpt lat="44.9667757" lon="5.4170906">
<ele>894.78</ele>
<time>2019-07-25T09:28:59Z</time>
</trkpt>
<trkpt lat="44.9667759" lon="5.4170903">
<ele>894.77</ele>
<time>2019-07-25T09:29:00Z</time>
</trkpt>
<trkpt lat="44.9667759" lon="5.4170899">
<ele>894.76</ele>
<time>2019-07-25T09:29:01Z</time>
</trkpt>
<trkpt lat="44.9667751" lon="5.4170906">
<ele>894.75</ele>
<time>2019-07-25T09:29:02Z</time>
</trkpt>
<trkpt lat="44.9667752" lon="5.4170900">
<ele>894.74</ele>
<time>2019-07-25T09:29:03Z</time>
</trkpt>
<trkpt lat="44.9667755" lon="5.4170893">
<ele>894.73</ele>
<time>2019-07-25T09:29:04Z</time>
</trkpt>
<trkpt lat="44.9667755" lon="5.4170890">
<ele>894.72</ele>
<time>2019-07-25T09:29:05Z</time>
</trkpt>
<trkpt lat="44.9667755" lon="5.4170889">
<ele>894.71</ele>
<time>2019-07-25T09:29:06Z</time>
</trkpt>
<trkpt lat="44.9667755" lon="5.4170888">
<ele>894.70</ele>
<time>2019-07-25T09:29:07Z</time>
</trkpt>
<trkpt lat="44.9667751" lon="5.4170891">
<ele>894.69</ele>
<time>2019-07-25T09:29:08Z</time>
</trkpt>
<trkpt lat="44.9667745" lon="5.4170900">
<ele>894.68</ele>
<time>2019-07-25T09:29:09Z</time>
</trkpt>
<trkpt lat="44.9667742" lon="5.4170903">
<ele>894.67</ele>
<time>2019-07-25T09:29:10Z</time>
</trkpt>
<trkpt lat="44.9667736" lon="5.4170913">
<ele>894.66</ele>
<time>2019-07-25T09:29:11Z</time>
</trkpt>
<trkpt lat="44.9667733" lon="5.4170921">
<ele>894.66</ele>
<time>2019-07-25T09:29:12Z</time>
</trkpt>
<trkpt lat="44.9667730" lon="5.4170926">
<ele>894.65</ele>
<time>2019-07-25T09:29:13Z</time>
</trkpt>
<trkpt lat="44.9667728" lon="5.4170927">
<ele>894.64</ele>
<time>2019-07-25T09:29:14Z</time>
</trkpt>
<trkpt lat="44.9667724" lon="5.4170928">
<ele>894.63</ele>
<time>2019-07-25T09:29:15Z</time>
</trkpt>
<trkpt lat="44.9667722" lon="5.4170929">
<ele>894.62</ele>
<time>2019-07-25T09:29:16Z</time>
</trkpt>
<trkpt lat="44.9667722" lon="5.4170923">
<ele>894.62</ele>
<time>2019-07-25T09:29:17Z</time>
</trkpt>
<trkpt lat="44.9667722" lon="5.4170921">
<ele>894.61</ele>
<time>2019-07-25T09:29:18Z</time>
</trkpt>
<trkpt lat="44.9667709" lon="5.4170933">
<ele>894.60</ele>
<time>2019-07-25T09:29:19Z</time>
</trkpt>
<trkpt lat="44.9667700" lon="5.4170950">
<ele>894.59</ele>
<time>2019-07-25T09:29:20Z</time>
</trkpt>
<trkpt lat="44.9667697" lon="5.4170953">
<ele>894.59</ele>
<time>2019-07-25T09:29:21Z</time>
</trkpt>
<trkpt lat="44.9667694" lon="5.4170957">
<ele>894.58</ele>
<time>2019-07-25T09:29:22Z</time>
</trkpt>
<trkpt lat="44.9667691" lon="5.4170958">
<ele>894.57</ele>
<time>2019-07-25T09:29:23Z</time>
</trkpt>
<trkpt lat="44.9667687" lon="5.4170964">
<ele>894.56</ele>
<time>2019-07-25T09:29:24Z</time>
</trkpt>
<trkpt lat="44.9667687" lon="5.4170964">
<ele>894.56</ele>
<time>2019-07-25T09:29:25Z</time>
</trkpt>
<trkpt lat="44.9667683" lon="5.4170969">
<ele>894.55</ele>
<time>2019-07-25T09:29:26Z</time>
</trkpt>
<trkpt lat="44.9667683" lon="5.4170970">
<ele>894.54</ele>
<time>2019-07-25T09:29:27Z</time>
</trkpt>
<trkpt lat="44.9667683" lon="5.4170971">
<ele>894.54</ele>
<time>2019-07-25T09:29:28Z</time>
</trkpt>
<trkpt lat="44.9667687" lon="5.4170977">
<ele>894.53</ele>
<time>2019-07-25T09:29:29Z</time>
</trkpt>
<trkpt lat="44.9667685" lon="5.4171000">
<ele>894.52</ele>
<time>2019-07-25T09:29:30Z</time>
</trkpt>
<trkpt lat="44.9667686" lon="5.4171032">
<ele>894.51</ele>
<time>2019-07-25T09:29:31Z</time>
</trkpt>
<trkpt lat="44.9667685" lon="5.4170994">
<ele>894.44</ele>
<time>2019-07-25T09:29:32Z</time>
</trkpt>
<trkpt lat="44.9667690" lon="5.4170964">
<ele>894.43</ele>
<time>2019-07-25T09:29:33Z</time>
</trkpt>
<trkpt lat="44.9667656" lon="5.4171032">
<ele>894.42</ele>
<time>2019-07-25T09:29:34Z</time>
</trkpt>
<trkpt lat="44.9667649" lon="5.4171045">
<ele>894.41</ele>
<time>2019-07-25T09:29:35Z</time>
</trkpt>
<trkpt lat="44.9667646" lon="5.4171044">
<ele>894.40</ele>
<time>2019-07-25T09:29:36Z</time>
</trkpt>
<trkpt lat="44.9667647" lon="5.4171039">
<ele>894.40</ele>
<time>2019-07-25T09:29:37Z</time>
</trkpt>
<trkpt lat="44.9667643" lon="5.4171047">
<ele>894.39</ele>
<time>2019-07-25T09:29:38Z</time>
</trkpt>
<trkpt lat="44.9667641" lon="5.4171050">
<ele>894.38</ele>
<time>2019-07-25T09:29:39Z</time>
</trkpt>
<trkpt lat="44.9667645" lon="5.4171046">
<ele>894.37</ele>
<time>2019-07-25T09:29:40Z</time>
</trkpt>
<trkpt lat="44.9667641" lon="5.4171055">
<ele>894.36</ele>
<time>2019-07-25T09:29:41Z</time>
</trkpt>
<trkpt lat="44.9667639" lon="5.4171056">
<ele>894.35</ele>
<time>2019-07-25T09:29:42Z</time>
</trkpt>
<trkpt lat="44.9667640" lon="5.4171056">
<ele>894.35</ele>
<time>2019-07-25T09:29:43Z</time>
</trkpt>
<trkpt lat="44.9667638" lon="5.4171062">
<ele>894.34</ele>
<time>2019-07-25T09:29:44Z</time>
</trkpt>
<trkpt lat="44.9667650" lon="5.4171063">
<ele>894.33</ele>
<time>2019-07-25T09:29:45Z</time>
</trkpt>
<trkpt lat="44.9667653" lon="5.4171050">
<ele>894.32</ele>
<time>2019-07-25T09:29:46Z</time>
</trkpt>
<trkpt lat="44.9667675" lon="5.4171049">
<ele>894.31</ele>
<time>2019-07-25T09:29:47Z</time>
</trkpt>
<trkpt lat="44.9667675" lon="5.4171050">
<ele>894.30</ele>
<time>2019-07-25T09:29:48Z</time>
</trkpt>
<trkpt lat="44.9667675" lon="5.4171050">
<ele>894.29</ele>
<time>2019-07-25T09:29:49Z</time>
</trkpt>
<trkpt lat="44.9667678" lon="5.4171040">
<ele>894.29</ele>
<time>2019-07-25T09:29:50Z</time>
</trkpt>
<trkpt lat="44.9667677" lon="5.4171038">
<ele>894.28</ele>
<time>2019-07-25T09:29:51Z</time>
</trkpt>
<trkpt lat="44.9667677" lon="5.4171037">
<ele>894.27</ele>
<time>2019-07-25T09:29:52Z</time>
</trkpt>
<trkpt lat="44.9667679" lon="5.4171033">
<ele>894.26</ele>
<time>2019-07-25T09:29:53Z</time>
</trkpt>
<trkpt lat="44.9667680" lon="5.4171033">
<ele>894.25</ele>
<time>2019-07-25T09:29:54Z</time>
</trkpt>
<trkpt lat="44.9667686" lon="5.4171028">
<ele>894.24</ele>
<time>2019-07-25T09:29:55Z</time>
</trkpt>
<trkpt lat="44.9667685" lon="5.4171031">
<ele>894.23</ele>
<time>2019-07-25T09:29:56Z</time>
</trkpt>
<trkpt lat="44.9667685" lon="5.4171031">
<ele>894.22</ele>
<time>2019-07-25T09:29:57Z</time>
</trkpt>
<trkpt lat="44.9667684" lon="5.4171033">
<ele>894.21</ele>
<time>2019-07-25T09:29:58Z</time>
</trkpt>
<trkpt lat="44.9667684" lon="5.4171038">
<ele>894.20</ele>
<time>2019-07-25T09:29:59Z</time>
</trkpt>
<trkpt lat="44.9667680" lon="5.4171044">
<ele>894.19</ele>
<time>2019-07-25T09:30:00Z</time>
</trkpt>
<trkpt lat="44.9667680" lon="5.4171046">
<ele>894.18</ele>
<time>2019-07-25T09:30:01Z</time>
</trkpt>
<trkpt lat="44.9667678" lon="5.4171050">
<ele>894.17</ele>
<time>2019-07-25T09:30:02Z</time>
</trkpt>
<trkpt lat="44.9667676" lon="5.4171052">
<ele>894.15</ele>
<time>2019-07-25T09:30:03Z</time>
</trkpt>
<trkpt lat="44.9667678" lon="5.4171049">
<ele>894.14</ele>
<time>2019-07-25T09:30:04Z</time>
</trkpt>
<trkpt lat="44.9667676" lon="5.4171052">
<ele>894.13</ele>
<time>2019-07-25T09:30:05Z</time>
</trkpt>
<trkpt lat="44.9667676" lon="5.4171053">
<ele>894.12</ele>
<time>2019-07-25T09:30:06Z</time>
</trkpt>
<trkpt lat="44.9667684" lon="5.4171040">
<ele>894.10</ele>
<time>2019-07-25T09:30:07Z</time>
</trkpt>
<trkpt lat="44.9667687" lon="5.4171033">
<ele>894.09</ele>
<time>2019-07-25T09:30:08Z</time>
</trkpt>
<trkpt lat="44.9667684" lon="5.4171042">
<ele>894.08</ele>
<time>2019-07-25T09:30:09Z</time>
</trkpt>
<trkpt lat="44.9667682" lon="5.4171046">
<ele>894.07</ele>
<time>2019-07-25T09:30:10Z</time>
</trkpt>
<trkpt lat="44.9667675" lon="5.4171047">
<ele>894.05</ele>
<time>2019-07-25T09:30:11Z</time>
</trkpt>
<trkpt lat="44.9667672" lon="5.4171062">
<ele>894.04</ele>
<time>2019-07-25T09:30:12Z</time>
</trkpt>
<trkpt lat="44.9667673" lon="5.4171068">
<ele>894.03</ele>
<time>2019-07-25T09:30:13Z</time>
</trkpt>
<trkpt lat="44.9667674" lon="5.4171067">
<ele>894.02</ele>
<time>2019-07-25T09:30:14Z</time>
</trkpt>
<trkpt lat="44.9667674" lon="5.4171068">
<ele>894.01</ele>
<time>2019-07-25T09:30:15Z</time>
</trkpt>
<trkpt lat="44.9667669" lon="5.4171077">
<ele>893.99</ele>
<time>2019-07-25T09:30:16Z</time>
</trkpt>
<trkpt lat="44.9667668" lon="5.4171078">
<ele>893.98</ele>
<time>2019-07-25T09:30:17Z</time>
</trkpt>
<trkpt lat="44.9667674" lon="5.4171068">
<ele>893.97</ele>
<time>2019-07-25T09:30:18Z</time>
</trkpt>
<trkpt lat="44.9667676" lon="5.4171068">
<ele>893.96</ele>
<time>2019-07-25T09:30:19Z</time>
</trkpt>
<trkpt lat="44.9667679" lon="5.4171065">
<ele>893.95</ele>
<time>2019-07-25T09:30:20Z</time>
</trkpt>
<trkpt lat="44.9667687" lon="5.4171051">
<ele>893.93</ele>
<time>2019-07-25T09:30:21Z</time>
</trkpt>
<trkpt lat="44.9667695" lon="5.4171042">
<ele>893.92</ele>
<time>2019-07-25T09:30:22Z</time>
</trkpt>
<trkpt lat="44.9667705" lon="5.4171028">
<ele>893.91</ele>
<time>2019-07-25T09:30:23Z</time>
</trkpt>
<trkpt lat="44.9667714" lon="5.4171013">
<ele>893.90</ele>
<time>2019-07-25T09:30:24Z</time>
</trkpt>
<trkpt lat="44.9667715" lon="5.4171012">
<ele>893.89</ele>
<time>2019-07-25T09:30:25Z</time>
</trkpt>
<trkpt lat="44.9667715" lon="5.4171014">
<ele>893.88</ele>
<time>2019-07-25T09:30:26Z</time>
</trkpt>
<trkpt lat="44.9667715" lon="5.4171015">
<ele>893.86</ele>
<time>2019-07-25T09:30:27Z</time>
</trkpt>
<trkpt lat="44.9667713" lon="5.4171017">
<ele>893.85</ele>
<time>2019-07-25T09:30:28Z</time>
</trkpt>
<trkpt lat="44.9667710" lon="5.4171018">
<ele>893.84</ele>
<time>2019-07-25T09:30:29Z</time>
</trkpt>
<trkpt lat="44.9667709" lon="5.4171018">
<ele>893.83</ele>
<time>2019-07-25T09:30:30Z</time>
</trkpt>
<trkpt lat="44.9667708" lon="5.4171016">
<ele>893.82</ele>
<time>2019-07-25T09:30:31Z</time>
</trkpt>
<trkpt lat="44.9667710" lon="5.4171010">
<ele>893.81</ele>
<time>2019-07-25T09:30:32Z</time>
</trkpt>
<trkpt lat="44.9667707" lon="5.4171013">
<ele>893.80</ele>
<time>2019-07-25T09:30:33Z</time>
</trkpt>
<trkpt lat="44.9667707" lon="5.4171013">
<ele>893.79</ele>
<time>2019-07-25T09:30:34Z</time>
</trkpt>
<trkpt lat="44.9667706" lon="5.4171011">
<ele>893.78</ele>
<time>2019-07-25T09:30:35Z</time>
</trkpt>
<trkpt lat="44.9667701" lon="5.4171021">
<ele>893.78</ele>
<time>2019-07-25T09:30:36Z</time>
</trkpt>
<trkpt lat="44.9667699" lon="5.4171020">
<ele>893.77</ele>
<time>2019-07-25T09:30:37Z</time>
</trkpt>
<trkpt lat="44.9667698" lon="5.4171016">
<ele>893.76</ele>
<time>2019-07-25T09:30:38Z</time>
</trkpt>
<trkpt lat="44.9667695" lon="5.4171020">
<ele>893.75</ele>
<time>2019-07-25T09:30:39Z</time>
</trkpt>
<trkpt lat="44.9667693" lon="5.4171026">
<ele>893.74</ele>
<time>2019-07-25T09:30:40Z</time>
</trkpt>
<trkpt lat="44.9667691" lon="5.4171022">
<ele>893.73</ele>
<time>2019-07-25T09:30:41Z</time>
</trkpt>
<trkpt lat="44.9667691" lon="5.4171022">
<ele>893.73</ele>
<time>2019-07-25T09:30:42Z</time>
</trkpt>
<trkpt lat="44.9667685" lon="5.4171027">
<ele>893.72</ele>
<time>2019-07-25T09:30:43Z</time>
</trkpt>
<trkpt lat="44.9667678" lon="5.4171033">
<ele>893.71</ele>
<time>2019-07-25T09:30:44Z</time>
</trkpt>
<trkpt lat="44.9667674" lon="5.4171039">
<ele>893.71</ele>
<time>2019-07-25T09:30:45Z</time>
</trkpt>
<trkpt lat="44.9667670" lon="5.4171045">
<ele>893.70</ele>
<time>2019-07-25T09:30:46Z</time>
</trkpt>
<trkpt lat="44.9667664" lon="5.4171059">
<ele>893.69</ele>
<time>2019-07-25T09:30:47Z</time>
</trkpt>
<trkpt lat="44.9667661" lon="5.4171063">
<ele>893.68</ele>
<time>2019-07-25T09:30:48Z</time>
</trkpt>
<trkpt lat="44.9667661" lon="5.4171061">
<ele>893.68</ele>
<time>2019-07-25T09:30:49Z</time>
</trkpt>
<trkpt lat="44.9667661" lon="5.4171061">
<ele>893.67</ele>
<time>2019-07-25T09:30:50Z</time>
</trkpt>
<trkpt lat="44.9667661" lon="5.4171058">
<ele>893.66</ele>
<time>2019-07-25T09:30:51Z</time>
</trkpt>
<trkpt lat="44.9667659" lon="5.4171061">
<ele>893.66</ele>
<time>2019-07-25T09:30:52Z</time>
</trkpt>
<trkpt lat="44.9667663" lon="5.4171049">
<ele>893.65</ele>
<time>2019-07-25T09:30:53Z</time>
</trkpt>
<trkpt lat="44.9667659" lon="5.4171052">
<ele>893.64</ele>
<time>2019-07-25T09:30:54Z</time>
</trkpt>
<trkpt lat="44.9667657" lon="5.4171054">
<ele>893.63</ele>
<time>2019-07-25T09:30:55Z</time>
</trkpt>
<trkpt lat="44.9667656" lon="5.4171051">
<ele>893.63</ele>
<time>2019-07-25T09:30:56Z</time>
</trkpt>
<trkpt lat="44.9667662" lon="5.4171033">
<ele>893.62</ele>
<time>2019-07-25T09:30:57Z</time>
</trkpt>
<trkpt lat="44.9667661" lon="5.4171032">
<ele>893.61</ele>
<time>2019-07-25T09:30:58Z</time>
</trkpt>
<trkpt lat="44.9667659" lon="5.4171034">
<ele>893.60</ele>
<time>2019-07-25T09:30:59Z</time>
</trkpt>
<trkpt lat="44.9667658" lon="5.4171035">
<ele>893.60</ele>
<time>2019-07-25T09:31:00Z</time>
</trkpt>
<trkpt lat="44.9667657" lon="5.4171036">
<ele>893.59</ele>
<time>2019-07-25T09:31:01Z</time>
</trkpt>
<trkpt lat="44.9667657" lon="5.4171036">
<ele>893.58</ele>
<time>2019-07-25T09:31:02Z</time>
</trkpt>
<trkpt lat="44.9667656" lon="5.4171036">
<ele>893.57</ele>
<time>2019-07-25T09:31:03Z</time>
</trkpt>
<trkpt lat="44.9667657" lon="5.4171032">
<ele>893.57</ele>
<time>2019-07-25T09:31:04Z</time>
</trkpt>
<trkpt lat="44.9667663" lon="5.4171016">
<ele>893.56</ele>
<time>2019-07-25T09:31:05Z</time>
</trkpt>
<trkpt lat="44.9667664" lon="5.4171016">
<ele>893.55</ele>
<time>2019-07-25T09:31:06Z</time>
</trkpt>
<trkpt lat="44.9667663" lon="5.4171016">
<ele>893.54</ele>
<time>2019-07-25T09:31:07Z</time>
</trkpt>
<trkpt lat="44.9667664" lon="5.4171015">
<ele>893.53</ele>
<time>2019-07-25T09:31:08Z</time>
</trkpt>
<trkpt lat="44.9667663" lon="5.4171017">
<ele>893.53</ele>
<time>2019-07-25T09:31:09Z</time>
</trkpt>
<trkpt lat="44.9667663" lon="5.4171016">
<ele>893.52</ele>
<time>2019-07-25T09:31:10Z</time>
</trkpt>
<trkpt lat="44.9667663" lon="5.4171017">
<ele>893.51</ele>
<time>2019-07-25T09:31:11Z</time>
</trkpt>
<trkpt lat="44.9667663" lon="5.4171016">
<ele>893.50</ele>
<time>2019-07-25T09:31:12Z</time>
</trkpt>
<trkpt lat="44.9667663" lon="5.4171013">
<ele>893.49</ele>
<time>2019-07-25T09:31:13Z</time>
</trkpt>
<trkpt lat="44.9667662" lon="5.4171014">
<ele>893.48</ele>
<time>2019-07-25T09:31:14Z</time>
</trkpt>
<trkpt lat="44.9667666" lon="5.4171004">
<ele>893.47</ele>
<time>2019-07-25T09:31:15Z</time>
</trkpt>
<trkpt lat="44.9667669" lon="5.4171001">
<ele>893.46</ele>
<time>2019-07-25T09:31:16Z</time>
</trkpt>
<trkpt lat="44.9667669" lon="5.4171002">
<ele>893.46</ele>
<time>2019-07-25T09:31:17Z</time>
</trkpt>
<trkpt lat="44.9667670" lon="5.4171001">
<ele>893.45</ele>
<time>2019-07-25T09:31:18Z</time>
</trkpt>
<trkpt lat="44.9667671" lon="5.4170998">
<ele>893.44</ele>
<time>2019-07-25T09:31:19Z</time>
</trkpt>
<trkpt lat="44.9667671" lon="5.4170996">
<ele>893.43</ele>
<time>2019-07-25T09:31:20Z</time>
</trkpt>
<trkpt lat="44.9667672" lon="5.4170992">
<ele>893.42</ele>
<time>2019-07-25T09:31:21Z</time>
</trkpt>
<trkpt lat="44.9667671" lon="5.4170993">
<ele>893.41</ele>
<time>2019-07-25T09:31:22Z</time>
</trkpt>
<trkpt lat="44.9667672" lon="5.4170992">
<ele>893.40</ele>
<time>2019-07-25T09:31:23Z</time>
</trkpt>
<trkpt lat="44.9667677" lon="5.4170984">
<ele>893.40</ele>
<time>2019-07-25T09:31:24Z</time>
</trkpt>
<trkpt lat="44.9667684" lon="5.4170977">
<ele>893.39</ele>
<time>2019-07-25T09:31:25Z</time>
</trkpt>
<trkpt lat="44.9667693" lon="5.4170975">
<ele>893.38</ele>
<time>2019-07-25T09:31:26Z</time>
</trkpt>
<trkpt lat="44.9667691" lon="5.4170982">
<ele>893.37</ele>
<time>2019-07-25T09:31:27Z</time>
</trkpt>
<trkpt lat="44.9667688" lon="5.4170993">
<ele>893.36</ele>
<time>2019-07-25T09:31:28Z</time>
</trkpt>
<trkpt lat="44.9667685" lon="5.4171001">
<ele>893.36</ele>
<time>2019-07-25T09:31:29Z</time>
</trkpt>
<trkpt lat="44.9667683" lon="5.4171004">
<ele>893.35</ele>
<time>2019-07-25T09:31:30Z</time>
</trkpt>
<trkpt lat="44.9667676" lon="5.4171011">
<ele>893.34</ele>
<time>2019-07-25T09:31:31Z</time>
</trkpt>
<trkpt lat="44.9667679" lon="5.4171011">
<ele>893.33</ele>
<time>2019-07-25T09:31:32Z</time>
</trkpt>
<trkpt lat="44.9667677" lon="5.4171020">
<ele>893.33</ele>
<time>2019-07-25T09:31:33Z</time>
</trkpt>
<trkpt lat="44.9667678" lon="5.4171018">
<ele>893.32</ele>
<time>2019-07-25T09:31:34Z</time>
</trkpt>
<trkpt lat="44.9667678" lon="5.4171020">
<ele>893.31</ele>
<time>2019-07-25T09:31:35Z</time>
</trkpt>
<trkpt lat="44.9667677" lon="5.4171028">
<ele>893.30</ele>
<time>2019-07-25T09:31:36Z</time>
</trkpt>
<trkpt lat="44.9667677" lon="5.4171027">
<ele>893.30</ele>
<time>2019-07-25T09:31:37Z</time>
</trkpt>
<trkpt lat="44.9667677" lon="5.4171026">
<ele>893.29</ele>
<time>2019-07-25T09:31:38Z</time>
</trkpt>
<trkpt lat="44.9667678" lon="5.4171024">
<ele>893.28</ele>
<time>2019-07-25T09:31:39Z</time>
</trkpt>
<trkpt lat="44.9667679" lon="5.4171020">
<ele>893.28</ele>
<time>2019-07-25T09:31:40Z</time>
</trkpt>
<trkpt lat="44.9667681" lon="5.4171008">
<ele>893.27</ele>
<time>2019-07-25T09:31:41Z</time>
</trkpt>
<trkpt lat="44.9667682" lon="5.4171005">
<ele>893.26</ele>
<time>2019-07-25T09:31:42Z</time>
</trkpt>
<trkpt lat="44.9667681" lon="5.4171007">
<ele>893.26</ele>
<time>2019-07-25T09:31:43Z</time>
</trkpt>
<trkpt lat="44.9667680" lon="5.4171009">
<ele>893.25</ele>
<time>2019-07-25T09:31:44Z</time>
</trkpt>
<trkpt lat="44.9667681" lon="5.4171008">
<ele>893.24</ele>
<time>2019-07-25T09:31:45Z</time>
</trkpt>
<trkpt lat="44.9667686" lon="5.4170999">
<ele>893.24</ele>
<time>2019-07-25T09:31:46Z</time>
</trkpt>
<trkpt lat="44.9667686" lon="5.4170998">
<ele>893.23</ele>
<time>2019-07-25T09:31:47Z</time>
</trkpt>
<trkpt lat="44.9667686" lon="5.4170998">
<ele>893.23</ele>
<time>2019-07-25T09:31:48Z</time>
</trkpt>
<trkpt lat="44.9667686" lon="5.4170999">
<ele>893.22</ele>
<time>2019-07-25T09:31:49Z</time>
</trkpt>
<trkpt lat="44.9667684" lon="5.4171003">
<ele>893.21</ele>
<time>2019-07-25T09:31:50Z</time>
</trkpt>
<trkpt lat="44.9667685" lon="5.4170997">
<ele>893.21</ele>
<time>2019-07-25T09:31:51Z</time>
</trkpt>
<trkpt lat="44.9667685" lon="5.4170996">
<ele>893.20</ele>
<time>2019-07-25T09:31:52Z</time>
</trkpt>
<trkpt lat="44.9667684" lon="5.4170999">
<ele>893.20</ele>
<time>2019-07-25T09:31:53Z</time>
</trkpt>
<trkpt lat="44.9667683" lon="5.4171001">
<ele>893.19</ele>
<time>2019-07-25T09:31:54Z</time>
</trkpt>
<trkpt lat="44.9667682" lon="5.4171003">
<ele>893.19</ele>
<time>2019-07-25T09:31:55Z</time>
</trkpt>
<trkpt lat="44.9667687" lon="5.4170990">
<ele>893.18</ele>
<time>2019-07-25T09:31:56Z</time>
</trkpt>
<trkpt lat="44.9667688" lon="5.4170984">
<ele>893.18</ele>
<time>2019-07-25T09:31:57Z</time>
</trkpt>
<trkpt lat="44.9667688" lon="5.4170981">
<ele>893.17</ele>
<time>2019-07-25T09:31:58Z</time>
</trkpt>
<trkpt lat="44.9667686" lon="5.4170985">
<ele>893.17</ele>
<time>2019-07-25T09:31:59Z</time>
</trkpt>
<trkpt lat="44.9667686" lon="5.4170983">
<ele>893.16</ele>
<time>2019-07-25T09:32:00Z</time>
</trkpt>
<trkpt lat="44.9667687" lon="5.4170981">
<ele>893.15</ele>
<time>2019-07-25T09:32:01Z</time>
</trkpt>
<trkpt lat="44.9667686" lon="5.4170986">
<ele>893.15</ele>
<time>2019-07-25T09:32:02Z</time>
</trkpt>
<trkpt lat="44.9667685" lon="5.4170987">
<ele>893.14</ele>
<time>2019-07-25T09:32:03Z</time>
</trkpt>
<trkpt lat="44.9667684" lon="5.4170986">
<ele>893.14</ele>
<time>2019-07-25T09:32:04Z</time>
</trkpt>
<trkpt lat="44.9667686" lon="5.4170979">
<ele>893.13</ele>
<time>2019-07-25T09:32:05Z</time>
</trkpt>
<trkpt lat="44.9667687" lon="5.4170975">
<ele>893.13</ele>
<time>2019-07-25T09:32:06Z</time>
</trkpt>
<trkpt lat="44.9667686" lon="5.4170978">
<ele>893.12</ele>
<time>2019-07-25T09:32:07Z</time>
</trkpt>
<trkpt lat="44.9667684" lon="5.4170984">
<ele>893.12</ele>
<time>2019-07-25T09:32:08Z</time>
</trkpt>
<trkpt lat="44.9667684" lon="5.4170983">
<ele>893.11</ele>
<time>2019-07-25T09:32:09Z</time>
</trkpt>
<trkpt lat="44.9667682" lon="5.4170988">
<ele>893.10</ele>
<time>2019-07-25T09:32:10Z</time>
</trkpt>
<trkpt lat="44.9667682" lon="5.4170991">
<ele>893.10</ele>
<time>2019-07-25T09:32:11Z</time>
</trkpt>
<trkpt lat="44.9667681" lon="5.4170994">
<ele>893.09</ele>
<time>2019-07-25T09:32:12Z</time>
</trkpt>
<trkpt lat="44.9667683" lon="5.4170988">
<ele>893.09</ele>
<time>2019-07-25T09:32:13Z</time>
</trkpt>
<trkpt lat="44.9667685" lon="5.4170987">
<ele>893.08</ele>
<time>2019-07-25T09:32:14Z</time>
</trkpt>
<trkpt lat="44.9667684" lon="5.4170991">
<ele>893.08</ele>
<time>2019-07-25T09:32:15Z</time>
</trkpt>
<trkpt lat="44.9667683" lon="5.4170994">
<ele>893.07</ele>
<time>2019-07-25T09:32:16Z</time>
</trkpt>
<trkpt lat="44.9667681" lon="5.4170998">
<ele>893.06</ele>
<time>2019-07-25T09:32:17Z</time>
</trkpt>
<trkpt lat="44.9667681" lon="5.4171001">
<ele>893.06</ele>
<time>2019-07-25T09:32:18Z</time>
</trkpt>
<trkpt lat="44.9667684" lon="5.4170995">
<ele>893.05</ele>
<time>2019-07-25T09:32:19Z</time>
</trkpt>
<trkpt lat="44.9667683" lon="5.4171001">
<ele>893.05</ele>
<time>2019-07-25T09:32:20Z</time>
</trkpt>
<trkpt lat="44.9667686" lon="5.4170996">
<ele>893.04</ele>
<time>2019-07-25T09:32:21Z</time>
</trkpt>
<trkpt lat="44.9667688" lon="5.4170991">
<ele>893.04</ele>
<time>2019-07-25T09:32:22Z</time>
</trkpt>
<trkpt lat="44.9667688" lon="5.4170989">
<ele>893.03</ele>
<time>2019-07-25T09:32:23Z</time>
</trkpt>
<trkpt lat="44.9667686" lon="5.4170993">
<ele>893.02</ele>
<time>2019-07-25T09:32:24Z</time>
</trkpt>
<trkpt lat="44.9667687" lon="5.4170992">
<ele>893.02</ele>
<time>2019-07-25T09:32:25Z</time>
</trkpt>
<trkpt lat="44.9667686" lon="5.4170995">
<ele>893.01</ele>
<time>2019-07-25T09:32:26Z</time>
</trkpt>
<trkpt lat="44.9667685" lon="5.4170996">
<ele>893.01</ele>
<time>2019-07-25T09:32:27Z</time>
</trkpt>
<trkpt lat="44.9667678" lon="5.4171017">
<ele>893.00</ele>
<time>2019-07-25T09:32:28Z</time>
</trkpt>
<trkpt lat="44.9667681" lon="5.4171016">
<ele>893.00</ele>
<time>2019-07-25T09:32:29Z</time>
</trkpt>
<trkpt lat="44.9667682" lon="5.4171014">
<ele>892.99</ele>
<time>2019-07-25T09:32:30Z</time>
</trkpt>
<trkpt lat="44.9667681" lon="5.4171015">
<ele>892.99</ele>
<time>2019-07-25T09:32:31Z</time>
</trkpt>
<trkpt lat="44.9667677" lon="5.4171019">
<ele>892.99</ele>
<time>2019-07-25T09:32:32Z</time>
</trkpt>
<trkpt lat="44.9667676" lon="5.4171021">
<ele>892.98</ele>
<time>2019-07-25T09:32:33Z</time>
</trkpt>
<trkpt lat="44.9667676" lon="5.4171022">
<ele>892.98</ele>
<time>2019-07-25T09:32:34Z</time>
</trkpt>
<trkpt lat="44.9667678" lon="5.4171012">
<ele>892.97</ele>
<time>2019-07-25T09:32:35Z</time>
</trkpt>
<trkpt lat="44.9667678" lon="5.4171013">
<ele>892.97</ele>
<time>2019-07-25T09:32:36Z</time>
</trkpt>
<trkpt lat="44.9667679" lon="5.4171015">
<ele>892.96</ele>
<time>2019-07-25T09:32:37Z</time>
</trkpt>
<trkpt lat="44.9667679" lon="5.4171013">
<ele>892.96</ele>
<time>2019-07-25T09:32:38Z</time>
</trkpt>
<trkpt lat="44.9667682" lon="5.4171008">
<ele>892.96</ele>
<time>2019-07-25T09:32:39Z</time>
</trkpt>
<trkpt lat="44.9667682" lon="5.4171008">
<ele>892.95</ele>
<time>2019-07-25T09:32:40Z</time>
</trkpt>
<trkpt lat="44.9667685" lon="5.4170997">
<ele>892.95</ele>
<time>2019-07-25T09:32:41Z</time>
</trkpt>
<trkpt lat="44.9667687" lon="5.4170990">
<ele>892.95</ele>
<time>2019-07-25T09:32:42Z</time>
</trkpt>
<trkpt lat="44.9667689" lon="5.4170983">
<ele>892.95</ele>
<time>2019-07-25T09:32:43Z</time>
</trkpt>
<trkpt lat="44.9667688" lon="5.4170983">
<ele>892.94</ele>
<time>2019-07-25T09:32:44Z</time>
</trkpt>
<trkpt lat="44.9667689" lon="5.4170977">
<ele>892.94</ele>
<time>2019-07-25T09:32:45Z</time>
</trkpt>
<trkpt lat="44.9667692" lon="5.4170965">
<ele>892.94</ele>
<time>2019-07-25T09:32:46Z</time>
</trkpt>
<trkpt lat="44.9667692" lon="5.4170961">
<ele>892.94</ele>
<time>2019-07-25T09:32:47Z</time>
</trkpt>
<trkpt lat="44.9667693" lon="5.4170956">
<ele>892.93</ele>
<time>2019-07-25T09:32:48Z</time>
</trkpt>
<trkpt lat="44.9667694" lon="5.4170953">
<ele>892.93</ele>
<time>2019-07-25T09:32:49Z</time>
</trkpt>
<trkpt lat="44.9667694" lon="5.4170950">
<ele>892.93</ele>
<time>2019-07-25T09:32:50Z</time>
</trkpt>
<trkpt lat="44.9667696" lon="5.4170950">
<ele>892.93</ele>
<time>2019-07-25T09:32:51Z</time>
</trkpt>
<trkpt lat="44.9667696" lon="5.4170958">
<ele>892.93</ele>
<time>2019-07-25T09:32:52Z</time>
</trkpt>
<trkpt lat="44.9667699" lon="5.4170947">
<ele>892.93</ele>
<time>2019-07-25T09:32:53Z</time>
</trkpt>
<trkpt lat="44.9667695" lon="5.4170951">
<ele>892.92</ele>
<time>2019-07-25T09:32:54Z</time>
</trkpt>
<trkpt lat="44.9667694" lon="5.4170942">
<ele>892.92</ele>
<time>2019-07-25T09:32:55Z</time>
</trkpt>
<trkpt lat="44.9667692" lon="5.4170937">
<ele>892.92</ele>
<time>2019-07-25T09:32:56Z</time>
</trkpt>
<trkpt lat="44.9667685" lon="5.4170945">
<ele>892.92</ele>
<time>2019-07-25T09:32:57Z</time>
</trkpt>
<trkpt lat="44.9667683" lon="5.4170950">
<ele>892.92</ele>
<time>2019-07-25T09:32:58Z</time>
</trkpt>
<trkpt lat="44.9667675" lon="5.4170964">
<ele>892.92</ele>
<time>2019-07-25T09:32:59Z</time>
</trkpt>
<trkpt lat="44.9667675" lon="5.4170962">
<ele>892.92</ele>
<time>2019-07-25T09:33:00Z</time>
</trkpt>
<trkpt lat="44.9667669" lon="5.4170972">
<ele>892.92</ele>
<time>2019-07-25T09:33:01Z</time>
</trkpt>
<trkpt lat="44.9667663" lon="5.4170989">
<ele>892.92</ele>
<time>2019-07-25T09:33:02Z</time>
</trkpt>
<trkpt lat="44.9667661" lon="5.4170987">
<ele>892.92</ele>
<time>2019-07-25T09:33:03Z</time>
</trkpt>
<trkpt lat="44.9667658" lon="5.4170988">
<ele>892.92</ele>
<time>2019-07-25T09:33:04Z</time>
</trkpt>
<trkpt lat="44.9667655" lon="5.4170990">
<ele>892.92</ele>
<time>2019-07-25T09:33:05Z</time>
</trkpt>
<trkpt lat="44.9667651" lon="5.4171004">
<ele>892.92</ele>
<time>2019-07-25T09:33:06Z</time>
</trkpt>
<trkpt lat="44.9667650" lon="5.4171009">
<ele>892.92</ele>
<time>2019-07-25T09:33:07Z</time>
</trkpt>
<trkpt lat="44.9667643" lon="5.4171017">
<ele>892.91</ele>
<time>2019-07-25T09:33:08Z</time>
</trkpt>
<trkpt lat="44.9667633" lon="5.4171028">
<ele>892.91</ele>
<time>2019-07-25T09:33:09Z</time>
</trkpt>
<trkpt lat="44.9667629" lon="5.4171033">
<ele>892.91</ele>
<time>2019-07-25T09:33:10Z</time>
</trkpt>
<trkpt lat="44.9667624" lon="5.4171046">
<ele>892.91</ele>
<time>2019-07-25T09:33:11Z</time>
</trkpt>
<trkpt lat="44.9667624" lon="5.4171045">
<ele>892.91</ele>
<time>2019-07-25T09:33:12Z</time>
</trkpt>
<trkpt lat="44.9667621" lon="5.4171026">
<ele>892.91</ele>
<time>2019-07-25T09:33:13Z</time>
</trkpt>
<trkpt lat="44.9667619" lon="5.4171031">
<ele>892.91</ele>
<time>2019-07-25T09:33:14Z</time>
</trkpt>
<trkpt lat="44.9667617" lon="5.4171034">
<ele>892.91</ele>
<time>2019-07-25T09:33:15Z</time>
</trkpt>
<trkpt lat="44.9667612" lon="5.4171041">
<ele>892.91</ele>
<time>2019-07-25T09:33:16Z</time>
</trkpt>
<trkpt lat="44.9667609" lon="5.4171043">
<ele>892.91</ele>
<time>2019-07-25T09:33:17Z</time>
</trkpt>
<trkpt lat="44.9667604" lon="5.4171051">
<ele>892.91</ele>
<time>2019-07-25T09:33:18Z</time>
</trkpt>
<trkpt lat="44.9667604" lon="5.4171047">
<ele>892.91</ele>
<time>2019-07-25T09:33:19Z</time>
</trkpt>
<trkpt lat="44.9667605" lon="5.4171041">
<ele>892.91</ele>
<time>2019-07-25T09:33:20Z</time>
</trkpt>
<trkpt lat="44.9667601" lon="5.4171049">
<ele>892.91</ele>
<time>2019-07-25T09:33:21Z</time>
</trkpt>
<trkpt lat="44.9667599" lon="5.4171051">
<ele>892.91</ele>
<time>2019-07-25T09:33:22Z</time>
</trkpt>
<trkpt lat="44.9667594" lon="5.4171070">
<ele>892.91</ele>
<time>2019-07-25T09:33:23Z</time>
</trkpt>
<trkpt lat="44.9667589" lon="5.4171074">
<ele>892.91</ele>
<time>2019-07-25T09:33:24Z</time>
</trkpt>
<trkpt lat="44.9667581" lon="5.4171082">
<ele>892.91</ele>
<time>2019-07-25T09:33:25Z</time>
</trkpt>
<trkpt lat="44.9667571" lon="5.4171090">
<ele>892.91</ele>
<time>2019-07-25T09:33:26Z</time>
</trkpt>
<trkpt lat="44.9667567" lon="5.4171093">
<ele>892.92</ele>
<time>2019-07-25T09:33:27Z</time>
</trkpt>
<trkpt lat="44.9667563" lon="5.4171098">
<ele>892.92</ele>
<time>2019-07-25T09:33:28Z</time>
</trkpt>
<trkpt lat="44.9667562" lon="5.4171092">
<ele>892.91</ele>
<time>2019-07-25T09:33:29Z</time>
</trkpt>
<trkpt lat="44.9667561" lon="5.4171079">
<ele>892.91</ele>
<time>2019-07-25T09:33:30Z</time>
</trkpt>
<trkpt lat="44.9667556" lon="5.4171075">
<ele>892.91</ele>
<time>2019-07-25T09:33:31Z</time>
</trkpt>
<trkpt lat="44.9667554" lon="5.4171076">
<ele>892.91</ele>
<time>2019-07-25T09:33:32Z</time>
</trkpt>
<trkpt lat="44.9667548" lon="5.4171081">
<ele>892.91</ele>
<time>2019-07-25T09:33:33Z</time>
</trkpt>
<trkpt lat="44.9667545" lon="5.4171083">
<ele>892.91</ele>
<time>2019-07-25T09:33:34Z</time>
</trkpt>
<trkpt lat="44.9667535" lon="5.4171125">
<ele>892.91</ele>
<time>2019-07-25T09:33:35Z</time>
</trkpt>
<trkpt lat="44.9667520" lon="5.4171036">
<ele>892.91</ele>
<time>2019-07-25T09:33:36Z</time>
</trkpt>
<trkpt lat="44.9667511" lon="5.4170992">
<ele>892.91</ele>
<time>2019-07-25T09:33:37Z</time>
</trkpt>
<trkpt lat="44.9667516" lon="5.4170895">
<ele>892.91</ele>
<time>2019-07-25T09:33:38Z</time>
</trkpt>
<trkpt lat="44.9667518" lon="5.4170894">
<ele>892.91</ele>
<time>2019-07-25T09:33:39Z</time>
</trkpt>
<trkpt lat="44.9667514" lon="5.4170822">
<ele>892.91</ele>
<time>2019-07-25T09:33:40Z</time>
</trkpt>
<trkpt lat="44.9667487" lon="5.4170735">
<ele>892.91</ele>
<time>2019-07-25T09:33:41Z</time>
</trkpt>
<trkpt lat="44.9667468" lon="5.4170756">
<ele>892.90</ele>
<time>2019-07-25T09:33:42Z</time>
</trkpt>
<trkpt lat="44.9667470" lon="5.4170740">
<ele>892.90</ele>
<time>2019-07-25T09:33:43Z</time>
</trkpt>
<trkpt lat="44.9667468" lon="5.4170734">
<ele>892.90</ele>
<time>2019-07-25T09:33:44Z</time>
</trkpt>
<trkpt lat="44.9667465" lon="5.4170750">
<ele>892.89</ele>
<time>2019-07-25T09:33:45Z</time>
</trkpt>
<trkpt lat="44.9667465" lon="5.4170748">
<ele>892.89</ele>
<time>2019-07-25T09:33:46Z</time>
</trkpt>
<trkpt lat="44.9667468" lon="5.4170734">
<ele>892.89</ele>
<time>2019-07-25T09:33:47Z</time>
</trkpt>
<trkpt lat="44.9667472" lon="5.4170723">
<ele>892.89</ele>
<time>2019-07-25T09:33:48Z</time>
</trkpt>
<trkpt lat="44.9667478" lon="5.4170706">
<ele>892.89</ele>
<time>2019-07-25T09:33:49Z</time>
</trkpt>
<trkpt lat="44.9667480" lon="5.4170698">
<ele>892.89</ele>
<time>2019-07-25T09:33:50Z</time>
</trkpt>
<trkpt lat="44.9667481" lon="5.4170692">
<ele>892.89</ele>
<time>2019-07-25T09:33:51Z</time>
</trkpt>
<trkpt lat="44.9667481" lon="5.4170678">
<ele>892.89</ele>
<time>2019-07-25T09:33:52Z</time>
</trkpt>
<trkpt lat="44.9667484" lon="5.4170671">
<ele>892.89</ele>
<time>2019-07-25T09:33:53Z</time>
</trkpt>
<trkpt lat="44.9667493" lon="5.4170633">
<ele>892.89</ele>
<time>2019-07-25T09:33:54Z</time>
</trkpt>
<trkpt lat="44.9667511" lon="5.4170536">
<ele>892.89</ele>
<time>2019-07-25T09:33:55Z</time>
</trkpt>
<trkpt lat="44.9667515" lon="5.4170520">
<ele>892.89</ele>
<time>2019-07-25T09:33:56Z</time>
</trkpt>
<trkpt lat="44.9667519" lon="5.4170497">
<ele>892.89</ele>
<time>2019-07-25T09:33:57Z</time>
</trkpt>
<trkpt lat="44.9667519" lon="5.4170495">
<ele>892.89</ele>
<time>2019-07-25T09:33:58Z</time>
</trkpt>
<trkpt lat="44.9667521" lon="5.4170496">
<ele>892.89</ele>
<time>2019-07-25T09:33:59Z</time>
</trkpt>
<trkpt lat="44.9667520" lon="5.4170499">
<ele>892.89</ele>
<time>2019-07-25T09:34:00Z</time>
</trkpt>
<trkpt lat="44.9667521" lon="5.4170489">
<ele>892.89</ele>
<time>2019-07-25T09:34:01Z</time>
</trkpt>
<trkpt lat="44.9667520" lon="5.4170486">
<ele>892.89</ele>
<time>2019-07-25T09:34:02Z</time>
</trkpt>
<trkpt lat="44.9667521" lon="5.4170478">
<ele>892.89</ele>
<time>2019-07-25T09:34:03Z</time>
</trkpt>
<trkpt lat="44.9667519" lon="5.4170474">
<ele>892.89</ele>
<time>2019-07-25T09:34:04Z</time>
</trkpt>
<trkpt lat="44.9667522" lon="5.4170462">
<ele>892.88</ele>
<time>2019-07-25T09:34:05Z</time>
</trkpt>
<trkpt lat="44.9667524" lon="5.4170460">
<ele>892.88</ele>
<time>2019-07-25T09:34:06Z</time>
</trkpt>
<trkpt lat="44.9667523" lon="5.4170464">
<ele>892.88</ele>
<time>2019-07-25T09:34:07Z</time>
</trkpt>
<trkpt lat="44.9667525" lon="5.4170461">
<ele>892.88</ele>
<time>2019-07-25T09:34:08Z</time>
</trkpt>
<trkpt lat="44.9667526" lon="5.4170457">
<ele>892.88</ele>
<time>2019-07-25T09:34:09Z</time>
</trkpt>
<trkpt lat="44.9667527" lon="5.4170458">
<ele>892.88</ele>
<time>2019-07-25T09:34:10Z</time>
</trkpt>
<trkpt lat="44.9667528" lon="5.4170453">
<ele>892.88</ele>
<time>2019-07-25T09:34:11Z</time>
</trkpt>
<trkpt lat="44.9667528" lon="5.4170457">
<ele>892.88</ele>
<time>2019-07-25T09:34:12Z</time>
</trkpt>
<trkpt lat="44.9667528" lon="5.4170458">
<ele>892.88</ele>
<time>2019-07-25T09:34:13Z</time>
</trkpt>
<trkpt lat="44.9667529" lon="5.4170460">
<ele>892.88</ele>
<time>2019-07-25T09:34:14Z</time>
</trkpt>
<trkpt lat="44.9667530" lon="5.4170467">
<ele>892.88</ele>
<time>2019-07-25T09:34:15Z</time>
</trkpt>
<trkpt lat="44.9667529" lon="5.4170473">
<ele>892.88</ele>
<time>2019-07-25T09:34:16Z</time>
</trkpt>
<trkpt lat="44.9667529" lon="5.4170477">
<ele>892.88</ele>
<time>2019-07-25T09:34:17Z</time>
</trkpt>
<trkpt lat="44.9667529" lon="5.4170483">
<ele>892.88</ele>
<time>2019-07-25T09:34:18Z</time>
</trkpt>
<trkpt lat="44.9667529" lon="5.4170485">
<ele>892.88</ele>
<time>2019-07-25T09:34:19Z</time>
</trkpt>
<trkpt lat="44.9667528" lon="5.4170495">
<ele>892.89</ele>
<time>2019-07-25T09:34:20Z</time>
</trkpt>
<trkpt lat="44.9667528" lon="5.4170498">
<ele>892.89</ele>
<time>2019-07-25T09:34:21Z</time>
</trkpt>
<trkpt lat="44.9667529" lon="5.4170496">
<ele>892.89</ele>
<time>2019-07-25T09:34:22Z</time>
</trkpt>
<trkpt lat="44.9667532" lon="5.4170492">
<ele>892.89</ele>
<time>2019-07-25T09:34:23Z</time>
</trkpt>
<trkpt lat="44.9667530" lon="5.4170502">
<ele>892.89</ele>
<time>2019-07-25T09:34:24Z</time>
</trkpt>
<trkpt lat="44.9667528" lon="5.4170522">
<ele>892.89</ele>
<time>2019-07-25T09:34:25Z</time>
</trkpt>
<trkpt lat="44.9667527" lon="5.4170530">
<ele>892.89</ele>
<time>2019-07-25T09:34:26Z</time>
</trkpt>
<trkpt lat="44.9667526" lon="5.4170533">
<ele>892.89</ele>
<time>2019-07-25T09:34:27Z</time>
</trkpt>
<trkpt lat="44.9667526" lon="5.4170543">
<ele>892.89</ele>
<time>2019-07-25T09:34:28Z</time>
</trkpt>
<trkpt lat="44.9667526" lon="5.4170550">
<ele>892.89</ele>
<time>2019-07-25T09:34:29Z</time>
</trkpt>
<trkpt lat="44.9667527" lon="5.4170550">
<ele>892.89</ele>
<time>2019-07-25T09:34:30Z</time>
</trkpt>
<trkpt lat="44.9667526" lon="5.4170552">
<ele>892.89</ele>
<time>2019-07-25T09:34:31Z</time>
</trkpt>
<trkpt lat="44.9667523" lon="5.4170575">
<ele>892.89</ele>
<time>2019-07-25T09:34:32Z</time>
</trkpt>
<trkpt lat="44.9667521" lon="5.4170609">
<ele>892.89</ele>
<time>2019-07-25T09:34:33Z</time>
</trkpt>
<trkpt lat="44.9667489" lon="5.4170631">
<ele>892.88</ele>
<time>2019-07-25T09:34:34Z</time>
</trkpt>
<trkpt lat="44.9667475" lon="5.4170685">
<ele>892.88</ele>
<time>2019-07-25T09:34:35Z</time>
</trkpt>
<trkpt lat="44.9667457" lon="5.4170739">
<ele>892.88</ele>
<time>2019-07-25T09:34:36Z</time>
</trkpt>
<trkpt lat="44.9667455" lon="5.4170738">
<ele>892.88</ele>
<time>2019-07-25T09:34:37Z</time>
</trkpt>
<trkpt lat="44.9667457" lon="5.4170721">
<ele>892.88</ele>
<time>2019-07-25T09:34:38Z</time>
</trkpt>
<trkpt lat="44.9667460" lon="5.4170705">
<ele>892.88</ele>
<time>2019-07-25T09:34:39Z</time>
</trkpt>
<trkpt lat="44.9667465" lon="5.4170693">
<ele>892.88</ele>
<time>2019-07-25T09:34:40Z</time>
</trkpt>
<trkpt lat="44.9667465" lon="5.4170678">
<ele>892.88</ele>
<time>2019-07-25T09:34:41Z</time>
</trkpt>
<trkpt lat="44.9667455" lon="5.4170664">
<ele>892.88</ele>
<time>2019-07-25T09:34:42Z</time>
</trkpt>
<trkpt lat="44.9667478" lon="5.4170523">
<ele>892.88</ele>
<time>2019-07-25T09:34:43Z</time>
</trkpt>
<trkpt lat="44.9667457" lon="5.4170477">
<ele>892.88</ele>
<time>2019-07-25T09:34:44Z</time>
</trkpt>
<trkpt lat="44.9667453" lon="5.4170535">
<ele>892.88</ele>
<time>2019-07-25T09:34:45Z</time>
</trkpt>
<trkpt lat="44.9667454" lon="5.4170530">
<ele>892.89</ele>
<time>2019-07-25T09:34:46Z</time>
</trkpt>
<trkpt lat="44.9667454" lon="5.4170534">
<ele>892.89</ele>
<time>2019-07-25T09:34:47Z</time>
</trkpt>
<trkpt lat="44.9667452" lon="5.4170540">
<ele>892.89</ele>
<time>2019-07-25T09:34:48Z</time>
</trkpt>
<trkpt lat="44.9667453" lon="5.4170536">
<ele>892.89</ele>
<time>2019-07-25T09:34:49Z</time>
</trkpt>
<trkpt lat="44.9667453" lon="5.4170533">
<ele>892.89</ele>
<time>2019-07-25T09:34:50Z</time>
</trkpt>
<trkpt lat="44.9667452" lon="5.4170528">
<ele>892.89</ele>
<time>2019-07-25T09:34:51Z</time>
</trkpt>
<trkpt lat="44.9667450" lon="5.4170525">
<ele>892.89</ele>
<time>2019-07-25T09:34:52Z</time>
</trkpt>
<trkpt lat="44.9667449" lon="5.4170519">
<ele>892.89</ele>
<time>2019-07-25T09:34:53Z</time>
</trkpt>
<trkpt lat="44.9667449" lon="5.4170525">
<ele>892.89</ele>
<time>2019-07-25T09:34:54Z</time>
</trkpt>
<trkpt lat="44.9667445" lon="5.4170522">
<ele>892.89</ele>
<time>2019-07-25T09:34:55Z</time>
</trkpt>
<trkpt lat="44.9667381" lon="5.4170750">
<ele>892.92</ele>
<time>2019-07-25T09:34:56Z</time>
</trkpt>
<trkpt lat="44.9667302" lon="5.4170900">
<ele>892.94</ele>
<time>2019-07-25T09:34:57Z</time>
</trkpt>
<trkpt lat="44.9667303" lon="5.4170879">
<ele>892.94</ele>
<time>2019-07-25T09:34:58Z</time>
</trkpt>
<trkpt lat="44.9667301" lon="5.4170889">
<ele>892.94</ele>
<time>2019-07-25T09:34:59Z</time>
</trkpt>
<trkpt lat="44.9667301" lon="5.4170887">
<ele>892.95</ele>
<time>2019-07-25T09:35:00Z</time>
</trkpt>
<trkpt lat="44.9667302" lon="5.4170881">
<ele>892.95</ele>
<time>2019-07-25T09:35:01Z</time>
</trkpt>
<trkpt lat="44.9667303" lon="5.4170879">
<ele>892.96</ele>
<time>2019-07-25T09:35:02Z</time>
</trkpt>
<trkpt lat="44.9667304" lon="5.4170875">
<ele>892.96</ele>
<time>2019-07-25T09:35:03Z</time>
</trkpt>
<trkpt lat="44.9667307" lon="5.4170861">
<ele>892.96</ele>
<time>2019-07-25T09:35:04Z</time>
</trkpt>
<trkpt lat="44.9667306" lon="5.4170868">
<ele>892.97</ele>
<time>2019-07-25T09:35:05Z</time>
</trkpt>
<trkpt lat="44.9667304" lon="5.4170876">
<ele>892.97</ele>
<time>2019-07-25T09:35:06Z</time>
</trkpt>
<trkpt lat="44.9667304" lon="5.4170879">
<ele>892.98</ele>
<time>2019-07-25T09:35:07Z</time>
</trkpt>
<trkpt lat="44.9667303" lon="5.4170886">
<ele>892.99</ele>
<time>2019-07-25T09:35:08Z</time>
</trkpt>
<trkpt lat="44.9667302" lon="5.4170892">
<ele>892.99</ele>
<time>2019-07-25T09:35:09Z</time>
</trkpt>
<trkpt lat="44.9667302" lon="5.4170890">
<ele>893.00</ele>
<time>2019-07-25T09:35:10Z</time>
</trkpt>
<trkpt lat="44.9667304" lon="5.4170876">
<ele>893.00</ele>
<time>2019-07-25T09:35:11Z</time>
</trkpt>
<trkpt lat="44.9667303" lon="5.4170877">
<ele>893.01</ele>
<time>2019-07-25T09:35:12Z</time>
</trkpt>
<trkpt lat="44.9667303" lon="5.4170883">
<ele>893.02</ele>
<time>2019-07-25T09:35:13Z</time>
</trkpt>
<trkpt lat="44.9667302" lon="5.4170879">
<ele>893.02</ele>
<time>2019-07-25T09:35:14Z</time>
</trkpt>
<trkpt lat="44.9667302" lon="5.4170871">
<ele>893.03</ele>
<time>2019-07-25T09:35:15Z</time>
</trkpt>
<trkpt lat="44.9667301" lon="5.4170871">
<ele>893.04</ele>
<time>2019-07-25T09:35:16Z</time>
</trkpt>
<trkpt lat="44.9667301" lon="5.4170869">
<ele>893.04</ele>
<time>2019-07-25T09:35:17Z</time>
</trkpt>
<trkpt lat="44.9667300" lon="5.4170866">
<ele>893.05</ele>
<time>2019-07-25T09:35:18Z</time>
</trkpt>
<trkpt lat="44.9667300" lon="5.4170856">
<ele>893.06</ele>
<time>2019-07-25T09:35:19Z</time>
</trkpt>
<trkpt lat="44.9667301" lon="5.4170850">
<ele>893.07</ele>
<time>2019-07-25T09:35:20Z</time>
</trkpt>
<trkpt lat="44.9667301" lon="5.4170844">
<ele>893.08</ele>
<time>2019-07-25T09:35:21Z</time>
</trkpt>
<trkpt lat="44.9667301" lon="5.4170837">
<ele>893.09</ele>
<time>2019-07-25T09:35:22Z</time>
</trkpt>
<trkpt lat="44.9667300" lon="5.4170841">
<ele>893.09</ele>
<time>2019-07-25T09:35:23Z</time>
</trkpt>
<trkpt lat="44.9667300" lon="5.4170839">
<ele>893.10</ele>
<time>2019-07-25T09:35:24Z</time>
</trkpt>
<trkpt lat="44.9667300" lon="5.4170839">
<ele>893.11</ele>
<time>2019-07-25T09:35:25Z</time>
</trkpt>
<trkpt lat="44.9667299" lon="5.4170845">
<ele>893.12</ele>
<time>2019-07-25T09:35:26Z</time>
</trkpt>
<trkpt lat="44.9667298" lon="5.4170848">
<ele>893.13</ele>
<time>2019-07-25T09:35:27Z</time>
</trkpt>
<trkpt lat="44.9667298" lon="5.4170851">
<ele>893.14</ele>
<time>2019-07-25T09:35:28Z</time>
</trkpt>
<trkpt lat="44.9667298" lon="5.4170854">
<ele>893.15</ele>
<time>2019-07-25T09:35:29Z</time>
</trkpt>
<trkpt lat="44.9667296" lon="5.4170861">
<ele>893.16</ele>
<time>2019-07-25T09:35:30Z</time>
</trkpt>
<trkpt lat="44.9667296" lon="5.4170857">
<ele>893.17</ele>
<time>2019-07-25T09:35:31Z</time>
</trkpt>
<trkpt lat="44.9667296" lon="5.4170856">
<ele>893.18</ele>
<time>2019-07-25T09:35:32Z</time>
</trkpt>
<trkpt lat="44.9667296" lon="5.4170854">
<ele>893.20</ele>
<time>2019-07-25T09:35:33Z</time>
</trkpt>
<trkpt lat="44.9667296" lon="5.4170853">
<ele>893.21</ele>
<time>2019-07-25T09:35:34Z</time>
</trkpt>
<trkpt lat="44.9667296" lon="5.4170851">
<ele>893.22</ele>
<time>2019-07-25T09:35:35Z</time>
</trkpt>
<trkpt lat="44.9667298" lon="5.4170845">
<ele>893.23</ele>
<time>2019-07-25T09:35:36Z</time>
</trkpt>
<trkpt lat="44.9667299" lon="5.4170838">
<ele>893.24</ele>
<time>2019-07-25T09:35:37Z</time>
</trkpt>
<trkpt lat="44.9667298" lon="5.4170840">
<ele>893.25</ele>
<time>2019-07-25T09:35:38Z</time>
</trkpt>
<trkpt lat="44.9667296" lon="5.4170849">
<ele>893.26</ele>
<time>2019-07-25T09:35:39Z</time>
</trkpt>
<trkpt lat="44.9667296" lon="5.4170852">
<ele>893.28</ele>
<time>2019-07-25T09:35:40Z</time>
</trkpt>
<trkpt lat="44.9667295" lon="5.4170854">
<ele>893.29</ele>
<time>2019-07-25T09:35:41Z</time>
</trkpt>
<trkpt lat="44.9667295" lon="5.4170853">
<ele>893.30</ele>
<time>2019-07-25T09:35:42Z</time>
</trkpt>
<trkpt lat="44.9667294" lon="5.4170865">
<ele>893.31</ele>
<time>2019-07-25T09:35:43Z</time>
</trkpt>
<trkpt lat="44.9667293" lon="5.4170865">
<ele>893.33</ele>
<time>2019-07-25T09:35:44Z</time>
</trkpt>
<trkpt lat="44.9667295" lon="5.4170861">
<ele>893.34</ele>
<time>2019-07-25T09:35:45Z</time>
</trkpt>
<trkpt lat="44.9667293" lon="5.4170868">
<ele>893.35</ele>
<time>2019-07-25T09:35:46Z</time>
</trkpt>
<trkpt lat="44.9667294" lon="5.4170861">
<ele>893.37</ele>
<time>2019-07-25T09:35:47Z</time>
</trkpt>
<trkpt lat="44.9667294" lon="5.4170853">
<ele>893.38</ele>
<time>2019-07-25T09:35:48Z</time>
</trkpt>
<trkpt lat="44.9667294" lon="5.4170857">
<ele>893.39</ele>
<time>2019-07-25T09:35:49Z</time>
</trkpt>
<trkpt lat="44.9667294" lon="5.4170864">
<ele>893.40</ele>
<time>2019-07-25T09:35:50Z</time>
</trkpt>
<trkpt lat="44.9667294" lon="5.4170871">
<ele>893.42</ele>
<time>2019-07-25T09:35:51Z</time>
</trkpt>
<trkpt lat="44.9667293" lon="5.4170908">
<ele>893.43</ele>
<time>2019-07-25T09:35:52Z</time>
</trkpt>
<trkpt lat="44.9667293" lon="5.4170908">
<ele>893.44</ele>
<time>2019-07-25T09:35:53Z</time>
</trkpt>
<trkpt lat="44.9667294" lon="5.4170906">
<ele>893.46</ele>
<time>2019-07-25T09:35:54Z</time>
</trkpt>
<trkpt lat="44.9667296" lon="5.4170885">
<ele>893.47</ele>
<time>2019-07-25T09:35:55Z</time>
</trkpt>
<trkpt lat="44.9667295" lon="5.4170892">
<ele>893.48</ele>
<time>2019-07-25T09:35:56Z</time>
</trkpt>
<trkpt lat="44.9667296" lon="5.4170892">
<ele>893.50</ele>
<time>2019-07-25T09:35:57Z</time>
</trkpt>
<trkpt lat="44.9667296" lon="5.4170887">
<ele>893.51</ele>
<time>2019-07-25T09:35:58Z</time>
</trkpt>
<trkpt lat="44.9667297" lon="5.4170882">
<ele>893.52</ele>
<time>2019-07-25T09:35:59Z</time>
</trkpt>
<trkpt lat="44.9667297" lon="5.4170882">
<ele>893.54</ele>
<time>2019-07-25T09:36:00Z</time>
</trkpt>
<trkpt lat="44.9667297" lon="5.4170879">
<ele>893.55</ele>
<time>2019-07-25T09:36:01Z</time>
</trkpt>
<trkpt lat="44.9667298" lon="5.4170885">
<ele>893.56</ele>
<time>2019-07-25T09:36:02Z</time>
</trkpt>
<trkpt lat="44.9667299" lon="5.4170890">
<ele>893.58</ele>
<time>2019-07-25T09:36:03Z</time>
</trkpt>
<trkpt lat="44.9667299" lon="5.4170887">
<ele>893.59</ele>
<time>2019-07-25T09:36:04Z</time>
</trkpt>
<trkpt lat="44.9667299" lon="5.4170886">
<ele>893.60</ele>
<time>2019-07-25T09:36:05Z</time>
</trkpt>
<trkpt lat="44.9667298" lon="5.4170893">
<ele>893.62</ele>
<time>2019-07-25T09:36:06Z</time>
</trkpt>
<trkpt lat="44.9667298" lon="5.4170896">
<ele>893.63</ele>
<time>2019-07-25T09:36:07Z</time>
</trkpt>
<trkpt lat="44.9667298" lon="5.4170904">
<ele>893.64</ele>
<time>2019-07-25T09:36:08Z</time>
</trkpt>
<trkpt lat="44.9667298" lon="5.4170905">
<ele>893.66</ele>
<time>2019-07-25T09:36:09Z</time>
</trkpt>
<trkpt lat="44.9667298" lon="5.4170908">
<ele>893.67</ele>
<time>2019-07-25T09:36:10Z</time>
</trkpt>
<trkpt lat="44.9667298" lon="5.4170912">
<ele>893.68</ele>
<time>2019-07-25T09:36:11Z</time>
</trkpt>
<trkpt lat="44.9667298" lon="5.4170914">
<ele>893.70</ele>
<time>2019-07-25T09:36:12Z</time>
</trkpt>
<trkpt lat="44.9667298" lon="5.4170917">
<ele>893.71</ele>
<time>2019-07-25T09:36:13Z</time>
</trkpt>
<trkpt lat="44.9667297" lon="5.4170928">
<ele>893.72</ele>
<time>2019-07-25T09:36:14Z</time>
</trkpt>
<trkpt lat="44.9667295" lon="5.4170942">
<ele>893.74</ele>
<time>2019-07-25T09:36:15Z</time>
</trkpt>
<trkpt lat="44.9667292" lon="5.4170954">
<ele>893.75</ele>
<time>2019-07-25T09:36:16Z</time>
</trkpt>
<trkpt lat="44.9667291" lon="5.4170959">
<ele>893.77</ele>
<time>2019-07-25T09:36:17Z</time>
</trkpt>
<trkpt lat="44.9667289" lon="5.4170966">
<ele>893.78</ele>
<time>2019-07-25T09:36:18Z</time>
</trkpt>
<trkpt lat="44.9667290" lon="5.4170964">
<ele>893.79</ele>
<time>2019-07-25T09:36:19Z</time>
</trkpt>
<trkpt lat="44.9667287" lon="5.4170979">
<ele>893.81</ele>
<time>2019-07-25T09:36:20Z</time>
</trkpt>
<trkpt lat="44.9667286" lon="5.4170988">
<ele>893.82</ele>
<time>2019-07-25T09:36:21Z</time>
</trkpt>
<trkpt lat="44.9667286" lon="5.4170991">
<ele>893.83</ele>
<time>2019-07-25T09:36:22Z</time>
</trkpt>
<trkpt lat="44.9667285" lon="5.4170995">
<ele>893.85</ele>
<time>2019-07-25T09:36:23Z</time>
</trkpt>
<trkpt lat="44.9667283" lon="5.4170999">
<ele>893.86</ele>
<time>2019-07-25T09:36:24Z</time>
</trkpt>
<trkpt lat="44.9667274" lon="5.4171012">
<ele>893.87</ele>
<time>2019-07-25T09:36:25Z</time>
</trkpt>
<trkpt lat="44.9667271" lon="5.4171018">
<ele>893.89</ele>
<time>2019-07-25T09:36:26Z</time>
</trkpt>
<trkpt lat="44.9667266" lon="5.4171024">
<ele>893.90</ele>
<time>2019-07-25T09:36:27Z</time>
</trkpt>
<trkpt lat="44.9667261" lon="5.4171037">
<ele>893.92</ele>
<time>2019-07-25T09:36:28Z</time>
</trkpt>
<trkpt lat="44.9667277" lon="5.4170970">
<ele>893.93</ele>
<time>2019-07-25T09:36:29Z</time>
</trkpt>
<trkpt lat="44.9667294" lon="5.4170943">
<ele>894.06</ele>
<time>2019-07-25T09:36:30Z</time>
</trkpt>
<trkpt lat="44.9667334" lon="5.4170870">
<ele>894.19</ele>
<time>2019-07-25T09:36:31Z</time>
</trkpt>
<trkpt lat="44.9667365" lon="5.4170831">
<ele>894.20</ele>
<time>2019-07-25T09:36:32Z</time>
</trkpt>
<trkpt lat="44.9667409" lon="5.4170737">
<ele>894.32</ele>
<time>2019-07-25T09:36:33Z</time>
</trkpt>
<trkpt lat="44.9667410" lon="5.4170735">
<ele>894.34</ele>
<time>2019-07-25T09:36:34Z</time>
</trkpt>
<trkpt lat="44.9667412" lon="5.4170729">
<ele>894.35</ele>
<time>2019-07-25T09:36:35Z</time>
</trkpt>
<trkpt lat="44.9667415" lon="5.4170714">
<ele>894.36</ele>
<time>2019-07-25T09:36:36Z</time>
</trkpt>
<trkpt lat="44.9667417" lon="5.4170708">
<ele>894.37</ele>
<time>2019-07-25T09:36:37Z</time>
</trkpt>
<trkpt lat="44.9667421" lon="5.4170703">
<ele>894.39</ele>
<time>2019-07-25T09:36:38Z</time>
</trkpt>
<trkpt lat="44.9667425" lon="5.4170700">
<ele>894.40</ele>
<time>2019-07-25T09:36:39Z</time>
</trkpt>
<trkpt lat="44.9667434" lon="5.4170699">
<ele>894.41</ele>
<time>2019-07-25T09:36:40Z</time>
</trkpt>
<trkpt lat="44.9667432" lon="5.4170704">
<ele>894.42</ele>
<time>2019-07-25T09:36:41Z</time>
</trkpt>
<trkpt lat="44.9667432" lon="5.4170686">
<ele>894.43</ele>
<time>2019-07-25T09:36:42Z</time>
</trkpt>
<trkpt lat="44.9667437" lon="5.4170687">
<ele>894.44</ele>
<time>2019-07-25T09:36:43Z</time>
</trkpt>
<trkpt lat="44.9667443" lon="5.4170687">
<ele>894.45</ele>
<time>2019-07-25T09:36:44Z</time>
</trkpt>
<trkpt lat="44.9667454" lon="5.4170691">
<ele>894.47</ele>
<time>2019-07-25T09:36:45Z</time>
</trkpt>
<trkpt lat="44.9667459" lon="5.4170700">
<ele>894.48</ele>
<time>2019-07-25T09:36:46Z</time>
</trkpt>
<trkpt lat="44.9667466" lon="5.4170699">
<ele>894.49</ele>
<time>2019-07-25T09:36:47Z</time>
</trkpt>
<trkpt lat="44.9667468" lon="5.4170704">
<ele>894.50</ele>
<time>2019-07-25T09:36:48Z</time>
</trkpt>
<trkpt lat="44.9667473" lon="5.4170709">
<ele>894.51</ele>
<time>2019-07-25T09:36:49Z</time>
</trkpt>
<trkpt lat="44.9667478" lon="5.4170701">
<ele>894.52</ele>
<time>2019-07-25T09:36:50Z</time>
</trkpt>
<trkpt lat="44.9667481" lon="5.4170699">
<ele>894.53</ele>
<time>2019-07-25T09:36:51Z</time>
</trkpt>
<trkpt lat="44.9667480" lon="5.4170702">
<ele>894.54</ele>
<time>2019-07-25T09:36:52Z</time>
</trkpt>
<trkpt lat="44.9667491" lon="5.4170691">
<ele>894.56</ele>
<time>2019-07-25T09:36:53Z</time>
</trkpt>
<trkpt lat="44.9667537" lon="5.4170680">
<ele>894.57</ele>
<time>2019-07-25T09:36:54Z</time>
</trkpt>
<trkpt lat="44.9667590" lon="5.4170662">
<ele>894.58</ele>
<time>2019-07-25T09:36:55Z</time>
</trkpt>
<trkpt lat="44.9667601" lon="5.4170672">
<ele>894.59</ele>
<time>2019-07-25T09:36:56Z</time>
</trkpt>
<trkpt lat="44.9667595" lon="5.4170678">
<ele>894.60</ele>
<time>2019-07-25T09:36:57Z</time>
</trkpt>
<trkpt lat="44.9667602" lon="5.4170670">
<ele>894.61</ele>
<time>2019-07-25T09:36:58Z</time>
</trkpt>
<trkpt lat="44.9667609" lon="5.4170667">
<ele>894.62</ele>
<time>2019-07-25T09:36:59Z</time>
</trkpt>
<trkpt lat="44.9667612" lon="5.4170667">
<ele>894.63</ele>
<time>2019-07-25T09:37:00Z</time>
</trkpt>
<trkpt lat="44.9667627" lon="5.4170669">
<ele>894.65</ele>
<time>2019-07-25T09:37:01Z</time>
</trkpt>
<trkpt lat="44.9667632" lon="5.4170670">
<ele>894.66</ele>
<time>2019-07-25T09:37:02Z</time>
</trkpt>
<trkpt lat="44.9667632" lon="5.4170666">
<ele>894.67</ele>
<time>2019-07-25T09:37:03Z</time>
</trkpt>
<trkpt lat="44.9667711" lon="5.4170570">
<ele>894.79</ele>
<time>2019-07-25T09:37:04Z</time>
</trkpt>
<trkpt lat="44.9667749" lon="5.4170536">
<ele>894.80</ele>
<time>2019-07-25T09:37:05Z</time>
</trkpt>
<trkpt lat="44.9667756" lon="5.4170515">
<ele>894.81</ele>
<time>2019-07-25T09:37:06Z</time>
</trkpt>
<trkpt lat="44.9667768" lon="5.4170450">
<ele>894.83</ele>
<time>2019-07-25T09:37:07Z</time>
</trkpt>
<trkpt lat="44.9667767" lon="5.4170440">
<ele>894.84</ele>
<time>2019-07-25T09:37:08Z</time>
</trkpt>
<trkpt lat="44.9667766" lon="5.4170439">
<ele>894.85</ele>
<time>2019-07-25T09:37:09Z</time>
</trkpt>
<trkpt lat="44.9667769" lon="5.4170427">
<ele>894.86</ele>
<time>2019-07-25T09:37:10Z</time>
</trkpt>
<trkpt lat="44.9667772" lon="5.4170414">
<ele>894.88</ele>
<time>2019-07-25T09:37:11Z</time>
</trkpt>
<trkpt lat="44.9667771" lon="5.4170412">
<ele>894.89</ele>
<time>2019-07-25T09:37:12Z</time>
</trkpt>
<trkpt lat="44.9667770" lon="5.4170409">
<ele>894.90</ele>
<time>2019-07-25T09:37:13Z</time>
</trkpt>
<trkpt lat="44.9667771" lon="5.4170414">
<ele>894.91</ele>
<time>2019-07-25T09:37:14Z</time>
</trkpt>
<trkpt lat="44.9667772" lon="5.4170414">
<ele>894.92</ele>
<time>2019-07-25T09:37:15Z</time>
</trkpt>
<trkpt lat="44.9667775" lon="5.4170420">
<ele>894.93</ele>
<time>2019-07-25T09:37:16Z</time>
</trkpt>
<trkpt lat="44.9667778" lon="5.4170420">
<ele>894.94</ele>
<time>2019-07-25T09:37:17Z</time>
</trkpt>
<trkpt lat="44.9667781" lon="5.4170423">
<ele>894.96</ele>
<time>2019-07-25T09:37:18Z</time>
</trkpt>
<trkpt lat="44.9667783" lon="5.4170423">
<ele>894.97</ele>
<time>2019-07-25T09:37:19Z</time>
</trkpt>
<trkpt lat="44.9667787" lon="5.4170423">
<ele>894.98</ele>
<time>2019-07-25T09:37:20Z</time>
</trkpt>
<trkpt lat="44.9667792" lon="5.4170421">
<ele>894.99</ele>
<time>2019-07-25T09:37:21Z</time>
</trkpt>
<trkpt lat="44.9667797" lon="5.4170420">
<ele>895.00</ele>
<time>2019-07-25T09:37:22Z</time>
</trkpt>
<trkpt lat="44.9667799" lon="5.4170417">
<ele>895.01</ele>
<time>2019-07-25T09:37:23Z</time>
</trkpt>
<trkpt lat="44.9667797" lon="5.4170418">
<ele>895.02</ele>
<time>2019-07-25T09:37:24Z</time>
</trkpt>
<trkpt lat="44.9667798" lon="5.4170414">
<ele>895.04</ele>
<time>2019-07-25T09:37:25Z</time>
</trkpt>
<trkpt lat="44.9667797" lon="5.4170427">
<ele>895.05</ele>
<time>2019-07-25T09:37:26Z</time>
</trkpt>
<trkpt lat="44.9667800" lon="5.4170426">
<ele>895.06</ele>
<time>2019-07-25T09:37:27Z</time>
</trkpt>
<trkpt lat="44.9667804" lon="5.4170418">
<ele>895.07</ele>
<time>2019-07-25T09:37:28Z</time>
</trkpt>
<trkpt lat="44.9667805" lon="5.4170416">
<ele>895.08</ele>
<time>2019-07-25T09:37:29Z</time>
</trkpt>
<trkpt lat="44.9667810" lon="5.4170410">
<ele>895.09</ele>
<time>2019-07-25T09:37:30Z</time>
</trkpt>
<trkpt lat="44.9667813" lon="5.4170410">
<ele>895.10</ele>
<time>2019-07-25T09:37:31Z</time>
</trkpt>
<trkpt lat="44.9667812" lon="5.4170411">
<ele>895.12</ele>
<time>2019-07-25T09:37:32Z</time>
</trkpt>
<trkpt lat="44.9667814" lon="5.4170409">
<ele>895.13</ele>
<time>2019-07-25T09:37:33Z</time>
</trkpt>
<trkpt lat="44.9667817" lon="5.4170406">
<ele>895.14</ele>
<time>2019-07-25T09:37:34Z</time>
</trkpt>
<trkpt lat="44.9667820" lon="5.4170402">
<ele>895.15</ele>
<time>2019-07-25T09:37:35Z</time>
</trkpt>
<trkpt lat="44.9667818" lon="5.4170392">
<ele>895.16</ele>
<time>2019-07-25T09:37:36Z</time>
</trkpt>
<trkpt lat="44.9667821" lon="5.4170383">
<ele>895.17</ele>
<time>2019-07-25T09:37:37Z</time>
</trkpt>
<trkpt lat="44.9667813" lon="5.4170395">
<ele>895.18</ele>
<time>2019-07-25T09:37:38Z</time>
</trkpt>
<trkpt lat="44.9667792" lon="5.4170480">
<ele>895.27</ele>
<time>2019-07-25T09:37:39Z</time>
</trkpt>
<trkpt lat="44.9667868" lon="5.4170432">
<ele>895.36</ele>
<time>2019-07-25T09:37:40Z</time>
</trkpt>
<trkpt lat="44.9667903" lon="5.4170459">
<ele>895.44</ele>
<time>2019-07-25T09:37:41Z</time>
</trkpt>
<trkpt lat="44.9667917" lon="5.4170450">
<ele>895.44</ele>
<time>2019-07-25T09:37:42Z</time>
</trkpt>
<trkpt lat="44.9667909" lon="5.4170451">
<ele>895.45</ele>
<time>2019-07-25T09:37:43Z</time>
</trkpt>
<trkpt lat="44.9667937" lon="5.4170464">
<ele>895.52</ele>
<time>2019-07-25T09:37:44Z</time>
</trkpt>
<trkpt lat="44.9667991" lon="5.4170471">
<ele>895.59</ele>
<time>2019-07-25T09:37:45Z</time>
</trkpt>
<trkpt lat="44.9668036" lon="5.4170478">
<ele>895.66</ele>
<time>2019-07-25T09:37:46Z</time>
</trkpt>
<trkpt lat="44.9668112" lon="5.4170455">
<ele>895.72</ele>
<time>2019-07-25T09:37:47Z</time>
</trkpt>
<trkpt lat="44.9668210" lon="5.4170434">
<ele>895.78</ele>
<time>2019-07-25T09:37:48Z</time>
</trkpt>
<trkpt lat="44.9668302" lon="5.4170435">
<ele>895.84</ele>
<time>2019-07-25T09:37:49Z</time>
</trkpt>
<trkpt lat="44.9668408" lon="5.4170441">
<ele>895.89</ele>
<time>2019-07-25T09:37:50Z</time>
</trkpt>
<trkpt lat="44.9668517" lon="5.4170446">
<ele>895.95</ele>
<time>2019-07-25T09:37:51Z</time>
</trkpt>
<trkpt lat="44.9668595" lon="5.4170432">
<ele>896.00</ele>
<time>2019-07-25T09:37:52Z</time>
</trkpt>
<trkpt lat="44.9668694" lon="5.4170430">
<ele>896.04</ele>
<time>2019-07-25T09:37:53Z</time>
</trkpt>
<trkpt lat="44.9668809" lon="5.4170437">
<ele>896.09</ele>
<time>2019-07-25T09:37:54Z</time>
</trkpt>
<trkpt lat="44.9668942" lon="5.4170596">
<ele>896.12</ele>
<time>2019-07-25T09:37:55Z</time>
</trkpt>
<trkpt lat="44.9669130" lon="5.4170791">
<ele>896.14</ele>
<time>2019-07-25T09:37:56Z</time>
</trkpt>
<trkpt lat="44.9669276" lon="5.4170995">
<ele>896.16</ele>
<time>2019-07-25T09:37:57Z</time>
</trkpt>
<trkpt lat="44.9669400" lon="5.4171145">
<ele>896.17</ele>
<time>2019-07-25T09:37:58Z</time>
</trkpt>
<trkpt lat="44.9669463" lon="5.4171208">
<ele>896.18</ele>
<time>2019-07-25T09:37:59Z</time>
</trkpt>
<trkpt lat="44.9669499" lon="5.4171226">
<ele>896.18</ele>
<time>2019-07-25T09:38:00Z</time>
</trkpt>
<trkpt lat="44.9669529" lon="5.4171250">
<ele>896.19</ele>
<time>2019-07-25T09:38:01Z</time>
</trkpt>
<trkpt lat="44.9669537" lon="5.4171252">
<ele>896.19</ele>
<time>2019-07-25T09:38:02Z</time>
</trkpt>
<trkpt lat="44.9669585" lon="5.4171229">
<ele>896.20</ele>
<time>2019-07-25T09:38:03Z</time>
</trkpt>
<trkpt lat="44.9669691" lon="5.4171181">
<ele>896.21</ele>
<time>2019-07-25T09:38:04Z</time>
</trkpt>
<trkpt lat="44.9669814" lon="5.4171064">
<ele>896.22</ele>
<time>2019-07-25T09:38:05Z</time>
</trkpt>
<trkpt lat="44.9669915" lon="5.4170845">
<ele>896.22</ele>
<time>2019-07-25T09:38:06Z</time>
</trkpt>
<trkpt lat="44.9670011" lon="5.4170657">
<ele>896.23</ele>
<time>2019-07-25T09:38:07Z</time>
</trkpt>
<trkpt lat="44.9670087" lon="5.4170476">
<ele>896.24</ele>
<time>2019-07-25T09:38:08Z</time>
</trkpt>
<trkpt lat="44.9670192" lon="5.4170324">
<ele>896.25</ele>
<time>2019-07-25T09:38:09Z</time>
</trkpt>
<trkpt lat="44.9670250" lon="5.4170139">
<ele>896.25</ele>
<time>2019-07-25T09:38:10Z</time>
</trkpt>
<trkpt lat="44.9670328" lon="5.4169903">
<ele>896.25</ele>
<time>2019-07-25T09:38:11Z</time>
</trkpt>
<trkpt lat="44.9670412" lon="5.4169559">
<ele>896.25</ele>
<time>2019-07-25T09:38:12Z</time>
</trkpt>
<trkpt lat="44.9670468" lon="5.4169178">
<ele>896.25</ele>
<time>2019-07-25T09:38:13Z</time>
</trkpt>
<trkpt lat="44.9670517" lon="5.4168819">
<ele>896.25</ele>
<time>2019-07-25T09:38:14Z</time>
</trkpt>
<trkpt lat="44.9670580" lon="5.4168359">
<ele>896.25</ele>
<time>2019-07-25T09:38:15Z</time>
</trkpt>
<trkpt lat="44.9670666" lon="5.4167906">
<ele>896.24</ele>
<time>2019-07-25T09:38:16Z</time>
</trkpt>
<trkpt lat="44.9670725" lon="5.4167507">
<ele>896.24</ele>
<time>2019-07-25T09:38:17Z</time>
</trkpt>
<trkpt lat="44.9670794" lon="5.4167209">
<ele>896.24</ele>
<time>2019-07-25T09:38:18Z</time>
</trkpt>
<trkpt lat="44.9670850" lon="5.4166855">
<ele>896.25</ele>
<time>2019-07-25T09:38:19Z</time>
</trkpt>
<trkpt lat="44.9670991" lon="5.4166505">
<ele>896.25</ele>
<time>2019-07-25T09:38:20Z</time>
</trkpt>
<trkpt lat="44.9671136" lon="5.4166175">
<ele>896.26</ele>
<time>2019-07-25T09:38:21Z</time>
</trkpt>
<trkpt lat="44.9671268" lon="5.4165796">
<ele>896.27</ele>
<time>2019-07-25T09:38:22Z</time>
</trkpt>
<trkpt lat="44.9671414" lon="5.4165488">
<ele>896.29</ele>
<time>2019-07-25T09:38:23Z</time>
</trkpt>
<trkpt lat="44.9671613" lon="5.4165120">
<ele>896.30</ele>
<time>2019-07-25T09:38:24Z</time>
</trkpt>
<trkpt lat="44.9671769" lon="5.4164685">
<ele>896.32</ele>
<time>2019-07-25T09:38:25Z</time>
</trkpt>
<trkpt lat="44.9671953" lon="5.4164161">
<ele>896.33</ele>
<time>2019-07-25T09:38:26Z</time>
</trkpt>
<trkpt lat="44.9672120" lon="5.4163576">
<ele>896.35</ele>
<time>2019-07-25T09:38:27Z</time>
</trkpt>
<trkpt lat="44.9672233" lon="5.4163047">
<ele>896.36</ele>
<time>2019-07-25T09:38:28Z</time>
</trkpt>
<trkpt lat="44.9672358" lon="5.4162606">
<ele>896.38</ele>
<time>2019-07-25T09:38:29Z</time>
</trkpt>
<trkpt lat="44.9672537" lon="5.4162155">
<ele>896.40</ele>
<time>2019-07-25T09:38:30Z</time>
</trkpt>
<trkpt lat="44.9672696" lon="5.4161826">
<ele>896.42</ele>
<time>2019-07-25T09:38:31Z</time>
</trkpt>
<trkpt lat="44.9672894" lon="5.4161458">
<ele>896.44</ele>
<time>2019-07-25T09:38:32Z</time>
</trkpt>
<trkpt lat="44.9673086" lon="5.4161089">
<ele>896.47</ele>
<time>2019-07-25T09:38:33Z</time>
</trkpt>
<trkpt lat="44.9673252" lon="5.4160846">
<ele>896.49</ele>
<time>2019-07-25T09:38:34Z</time>
</trkpt>
<trkpt lat="44.9673377" lon="5.4160691">
<ele>896.52</ele>
<time>2019-07-25T09:38:35Z</time>
</trkpt>
<trkpt lat="44.9673462" lon="5.4160575">
<ele>896.55</ele>
<time>2019-07-25T09:38:36Z</time>
</trkpt>
<trkpt lat="44.9673536" lon="5.4160389">
<ele>896.59</ele>
<time>2019-07-25T09:38:37Z</time>
</trkpt>
<trkpt lat="44.9673585" lon="5.4160284">
<ele>896.62</ele>
<time>2019-07-25T09:38:38Z</time>
</trkpt>
<trkpt lat="44.9673644" lon="5.4160243">
<ele>896.66</ele>
<time>2019-07-25T09:38:39Z</time>
</trkpt>
<trkpt lat="44.9673695" lon="5.4160226">
<ele>896.70</ele>
<time>2019-07-25T09:38:40Z</time>
</trkpt>
<trkpt lat="44.9673760" lon="5.4160168">
<ele>896.73</ele>
<time>2019-07-25T09:38:41Z</time>
</trkpt>
<trkpt lat="44.9673814" lon="5.4159989">
<ele>896.76</ele>
<time>2019-07-25T09:38:42Z</time>
</trkpt>
<trkpt lat="44.9673837" lon="5.4159722">
<ele>896.79</ele>
<time>2019-07-25T09:38:43Z</time>
</trkpt>
<trkpt lat="44.9673856" lon="5.4159597">
<ele>896.82</ele>
<time>2019-07-25T09:38:44Z</time>
</trkpt>
<trkpt lat="44.9673861" lon="5.4159437">
<ele>896.85</ele>
<time>2019-07-25T09:38:45Z</time>
</trkpt>
<trkpt lat="44.9673886" lon="5.4159225">
<ele>896.87</ele>
<time>2019-07-25T09:38:46Z</time>
</trkpt>
<trkpt lat="44.9673883" lon="5.4158960">
<ele>896.89</ele>
<time>2019-07-25T09:38:47Z</time>
</trkpt>
<trkpt lat="44.9673899" lon="5.4158686">
<ele>896.91</ele>
<time>2019-07-25T09:38:48Z</time>
</trkpt>
<trkpt lat="44.9673929" lon="5.4158386">
<ele>896.93</ele>
<time>2019-07-25T09:38:49Z</time>
</trkpt>
<trkpt lat="44.9673948" lon="5.4158083">
<ele>896.96</ele>
<time>2019-07-25T09:38:50Z</time>
</trkpt>
<trkpt lat="44.9673975" lon="5.4157878">
<ele>896.97</ele>
<time>2019-07-25T09:38:51Z</time>
</trkpt>
<trkpt lat="44.9674008" lon="5.4157671">
<ele>896.98</ele>
<time>2019-07-25T09:38:52Z</time>
</trkpt>
<trkpt lat="44.9674028" lon="5.4157413">
<ele>896.99</ele>
<time>2019-07-25T09:38:53Z</time>
</trkpt>
<trkpt lat="44.9674047" lon="5.4157175">
<ele>896.99</ele>
<time>2019-07-25T09:38:54Z</time>
</trkpt>
<trkpt lat="44.9674075" lon="5.4156925">
<ele>897.00</ele>
<time>2019-07-25T09:38:55Z</time>
</trkpt>
<trkpt lat="44.9674094" lon="5.4156725">
<ele>896.99</ele>
<time>2019-07-25T09:38:56Z</time>
</trkpt>
<trkpt lat="44.9674123" lon="5.4156607">
<ele>896.99</ele>
<time>2019-07-25T09:38:57Z</time>
</trkpt>
<trkpt lat="44.9674162" lon="5.4156438">
<ele>896.98</ele>
<time>2019-07-25T09:38:58Z</time>
</trkpt>
<trkpt lat="44.9674207" lon="5.4156193">
<ele>896.98</ele>
<time>2019-07-25T09:38:59Z</time>
</trkpt>
<trkpt lat="44.9674261" lon="5.4155932">
<ele>896.97</ele>
<time>2019-07-25T09:39:00Z</time>
</trkpt>
<trkpt lat="44.9674314" lon="5.4155634">
<ele>896.96</ele>
<time>2019-07-25T09:39:01Z</time>
</trkpt>
<trkpt lat="44.9674381" lon="5.4155355">
<ele>896.95</ele>
<time>2019-07-25T09:39:02Z</time>
</trkpt>
<trkpt lat="44.9674473" lon="5.4155086">
<ele>896.94</ele>
<time>2019-07-25T09:39:03Z</time>
</trkpt>
<trkpt lat="44.9674608" lon="5.4154830">
<ele>896.92</ele>
<time>2019-07-25T09:39:04Z</time>
</trkpt>
<trkpt lat="44.9674813" lon="5.4154507">
<ele>896.91</ele>
<time>2019-07-25T09:39:05Z</time>
</trkpt>
<trkpt lat="44.9675020" lon="5.4154299">
<ele>896.89</ele>
<time>2019-07-25T09:39:06Z</time>
</trkpt>
<trkpt lat="44.9675163" lon="5.4154111">
<ele>896.87</ele>
<time>2019-07-25T09:39:07Z</time>
</trkpt>
<trkpt lat="44.9675322" lon="5.4153889">
<ele>896.85</ele>
<time>2019-07-25T09:39:08Z</time>
</trkpt>
<trkpt lat="44.9675446" lon="5.4153700">
<ele>896.82</ele>
<time>2019-07-25T09:39:09Z</time>
</trkpt>
<trkpt lat="44.9675533" lon="5.4153474">
<ele>896.80</ele>
<time>2019-07-25T09:39:10Z</time>
</trkpt>
<trkpt lat="44.9675605" lon="5.4153277">
<ele>896.77</ele>
<time>2019-07-25T09:39:11Z</time>
</trkpt>
<trkpt lat="44.9675676" lon="5.4152960">
<ele>896.73</ele>
<time>2019-07-25T09:39:12Z</time>
</trkpt>
<trkpt lat="44.9675772" lon="5.4152611">
<ele>896.70</ele>
<time>2019-07-25T09:39:13Z</time>
</trkpt>
<trkpt lat="44.9675828" lon="5.4152350">
<ele>896.67</ele>
<time>2019-07-25T09:39:14Z</time>
</trkpt>
<trkpt lat="44.9675891" lon="5.4152043">
<ele>896.64</ele>
<time>2019-07-25T09:39:15Z</time>
</trkpt>
<trkpt lat="44.9675924" lon="5.4151798">
<ele>896.60</ele>
<time>2019-07-25T09:39:16Z</time>
</trkpt>
<trkpt lat="44.9675943" lon="5.4151620">
<ele>896.57</ele>
<time>2019-07-25T09:39:17Z</time>
</trkpt>
<trkpt lat="44.9675988" lon="5.4151392">
<ele>896.53</ele>
<time>2019-07-25T09:39:18Z</time>
</trkpt>
<trkpt lat="44.9676030" lon="5.4151204">
<ele>896.49</ele>
<time>2019-07-25T09:39:19Z</time>
</trkpt>
<trkpt lat="44.9676143" lon="5.4150854">
<ele>896.45</ele>
<time>2019-07-25T09:39:20Z</time>
</trkpt>
<trkpt lat="44.9676207" lon="5.4150588">
<ele>896.41</ele>
<time>2019-07-25T09:39:21Z</time>
</trkpt>
<trkpt lat="44.9676280" lon="5.4150282">
<ele>896.37</ele>
<time>2019-07-25T09:39:22Z</time>
</trkpt>
<trkpt lat="44.9676337" lon="5.4150077">
<ele>896.32</ele>
<time>2019-07-25T09:39:23Z</time>
</trkpt>
<trkpt lat="44.9676440" lon="5.4149801">
<ele>896.27</ele>
<time>2019-07-25T09:39:24Z</time>
</trkpt>
<trkpt lat="44.9676551" lon="5.4149517">
<ele>896.22</ele>
<time>2019-07-25T09:39:25Z</time>
</trkpt>
<trkpt lat="44.9676647" lon="5.4149255">
<ele>896.16</ele>
<time>2019-07-25T09:39:26Z</time>
</trkpt>
<trkpt lat="44.9676766" lon="5.4148907">
<ele>896.10</ele>
<time>2019-07-25T09:39:27Z</time>
</trkpt>
<trkpt lat="44.9676866" lon="5.4148520">
<ele>896.04</ele>
<time>2019-07-25T09:39:28Z</time>
</trkpt>
<trkpt lat="44.9676921" lon="5.4148141">
<ele>895.97</ele>
<time>2019-07-25T09:39:29Z</time>
</trkpt>
<trkpt lat="44.9676992" lon="5.4147745">
<ele>895.90</ele>
<time>2019-07-25T09:39:30Z</time>
</trkpt>
<trkpt lat="44.9677061" lon="5.4147308">
<ele>895.83</ele>
<time>2019-07-25T09:39:31Z</time>
</trkpt>
<trkpt lat="44.9677115" lon="5.4146923">
<ele>895.75</ele>
<time>2019-07-25T09:39:32Z</time>
</trkpt>
<trkpt lat="44.9677175" lon="5.4146549">
<ele>895.67</ele>
<time>2019-07-25T09:39:33Z</time>
</trkpt>
<trkpt lat="44.9677208" lon="5.4146264">
<ele>895.59</ele>
<time>2019-07-25T09:39:34Z</time>
</trkpt>
<trkpt lat="44.9677314" lon="5.4145950">
<ele>895.52</ele>
<time>2019-07-25T09:39:35Z</time>
</trkpt>
<trkpt lat="44.9677384" lon="5.4145668">
<ele>895.44</ele>
<time>2019-07-25T09:39:36Z</time>
</trkpt>
<trkpt lat="44.9677539" lon="5.4145280">
<ele>895.35</ele>
<time>2019-07-25T09:39:37Z</time>
</trkpt>
<trkpt lat="44.9677668" lon="5.4144831">
<ele>895.27</ele>
<time>2019-07-25T09:39:38Z</time>
</trkpt>
<trkpt lat="44.9677739" lon="5.4144476">
<ele>895.18</ele>
<time>2019-07-25T09:39:39Z</time>
</trkpt>
<trkpt lat="44.9677801" lon="5.4144119">
<ele>895.08</ele>
<time>2019-07-25T09:39:40Z</time>
</trkpt>
<trkpt lat="44.9677947" lon="5.4143723">
<ele>894.99</ele>
<time>2019-07-25T09:39:41Z</time>
</trkpt>
<trkpt lat="44.9678003" lon="5.4143432">
<ele>894.89</ele>
<time>2019-07-25T09:39:42Z</time>
</trkpt>
<trkpt lat="44.9678089" lon="5.4143089">
<ele>894.80</ele>
<time>2019-07-25T09:39:43Z</time>
</trkpt>
<trkpt lat="44.9678196" lon="5.4142534">
<ele>894.70</ele>
<time>2019-07-25T09:39:44Z</time>
</trkpt>
<trkpt lat="44.9678286" lon="5.4141940">
<ele>894.61</ele>
<time>2019-07-25T09:39:45Z</time>
</trkpt>
<trkpt lat="44.9678423" lon="5.4141322">
<ele>893.69</ele>
<time>2019-07-25T09:39:46Z</time>
</trkpt>
<trkpt lat="44.9678451" lon="5.4140565">
<ele>893.61</ele>
<time>2019-07-25T09:39:47Z</time>
</trkpt>
<trkpt lat="44.9678539" lon="5.4139888">
<ele>892.93</ele>
<time>2019-07-25T09:39:48Z</time>
</trkpt>
<trkpt lat="44.9678665" lon="5.4139335">
<ele>892.37</ele>
<time>2019-07-25T09:39:49Z</time>
</trkpt>
<trkpt lat="44.9678789" lon="5.4138886">
<ele>891.93</ele>
<time>2019-07-25T09:39:50Z</time>
</trkpt>
<trkpt lat="44.9679040" lon="5.4138311">
<ele>891.55</ele>
<time>2019-07-25T09:39:51Z</time>
</trkpt>
<trkpt lat="44.9679370" lon="5.4138120">
<ele>891.52</ele>
<time>2019-07-25T09:39:52Z</time>
</trkpt>
<trkpt lat="44.9679619" lon="5.4137855">
<ele>891.48</ele>
<time>2019-07-25T09:39:53Z</time>
</trkpt>
<trkpt lat="44.9679976" lon="5.4137277">
<ele>891.45</ele>
<time>2019-07-25T09:39:54Z</time>
</trkpt>
<trkpt lat="44.9680145" lon="5.4136910">
<ele>891.41</ele>
<time>2019-07-25T09:39:55Z</time>
</trkpt>
<trkpt lat="44.9680275" lon="5.4136594">
<ele>891.38</ele>
<time>2019-07-25T09:39:56Z</time>
</trkpt>
<trkpt lat="44.9680315" lon="5.4136351">
<ele>891.34</ele>
<time>2019-07-25T09:39:57Z</time>
</trkpt>
<trkpt lat="44.9680383" lon="5.4136052">
<ele>891.31</ele>
<time>2019-07-25T09:39:58Z</time>
</trkpt>
<trkpt lat="44.9680483" lon="5.4135640">
<ele>891.28</ele>
<time>2019-07-25T09:39:59Z</time>
</trkpt>
<trkpt lat="44.9680716" lon="5.4135117">
<ele>891.25</ele>
<time>2019-07-25T09:40:00Z</time>
</trkpt>
<trkpt lat="44.9680937" lon="5.4134617">
<ele>891.23</ele>
<time>2019-07-25T09:40:01Z</time>
</trkpt>
<trkpt lat="44.9681056" lon="5.4134064">
<ele>890.98</ele>
<time>2019-07-25T09:40:02Z</time>
</trkpt>
<trkpt lat="44.9681176" lon="5.4133476">
<ele>890.80</ele>
<time>2019-07-25T09:40:03Z</time>
</trkpt>
<trkpt lat="44.9681294" lon="5.4132900">
<ele>890.66</ele>
<time>2019-07-25T09:40:04Z</time>
</trkpt>
<trkpt lat="44.9681417" lon="5.4132312">
<ele>890.59</ele>
<time>2019-07-25T09:40:05Z</time>
</trkpt>
<trkpt lat="44.9681528" lon="5.4131846">
<ele>890.59</ele>
<time>2019-07-25T09:40:06Z</time>
</trkpt>
<trkpt lat="44.9681630" lon="5.4131457">
<ele>890.58</ele>
<time>2019-07-25T09:40:07Z</time>
</trkpt>
<trkpt lat="44.9681714" lon="5.4131074">
<ele>890.57</ele>
<time>2019-07-25T09:40:08Z</time>
</trkpt>
<trkpt lat="44.9681809" lon="5.4130606">
<ele>890.57</ele>
<time>2019-07-25T09:40:09Z</time>
</trkpt>
<trkpt lat="44.9681874" lon="5.4130187">
<ele>890.56</ele>
<time>2019-07-25T09:40:10Z</time>
</trkpt>
<trkpt lat="44.9681962" lon="5.4129744">
<ele>890.55</ele>
<time>2019-07-25T09:40:11Z</time>
</trkpt>
<trkpt lat="44.9682027" lon="5.4129286">
<ele>890.55</ele>
<time>2019-07-25T09:40:12Z</time>
</trkpt>
<trkpt lat="44.9682121" lon="5.4128819">
<ele>890.45</ele>
<time>2019-07-25T09:40:13Z</time>
</trkpt>
<trkpt lat="44.9682282" lon="5.4128308">
<ele>890.32</ele>
<time>2019-07-25T09:40:14Z</time>
</trkpt>
<trkpt lat="44.9682426" lon="5.4127767">
<ele>890.17</ele>
<time>2019-07-25T09:40:15Z</time>
</trkpt>
<trkpt lat="44.9682559" lon="5.4127238">
<ele>890.01</ele>
<time>2019-07-25T09:40:16Z</time>
</trkpt>
<trkpt lat="44.9682686" lon="5.4126732">
<ele>889.86</ele>
<time>2019-07-25T09:40:17Z</time>
</trkpt>
<trkpt lat="44.9682816" lon="5.4126218">
<ele>889.72</ele>
<time>2019-07-25T09:40:18Z</time>
</trkpt>
<trkpt lat="44.9682924" lon="5.4125704">
<ele>889.59</ele>
<time>2019-07-25T09:40:19Z</time>
</trkpt>
<trkpt lat="44.9683065" lon="5.4125095">
<ele>889.44</ele>
<time>2019-07-25T09:40:20Z</time>
</trkpt>
<trkpt lat="44.9683198" lon="5.4124395">
<ele>889.28</ele>
<time>2019-07-25T09:40:21Z</time>
</trkpt>
<trkpt lat="44.9683343" lon="5.4123731">
<ele>889.15</ele>
<time>2019-07-25T09:40:22Z</time>
</trkpt>
<trkpt lat="44.9683446" lon="5.4123147">
<ele>889.04</ele>
<time>2019-07-25T09:40:23Z</time>
</trkpt>
<trkpt lat="44.9683644" lon="5.4122513">
<ele>888.94</ele>
<time>2019-07-25T09:40:24Z</time>
</trkpt>
<trkpt lat="44.9683865" lon="5.4121886">
<ele>888.85</ele>
<time>2019-07-25T09:40:25Z</time>
</trkpt>
<trkpt lat="44.9684145" lon="5.4121233">
<ele>888.75</ele>
<time>2019-07-25T09:40:26Z</time>
</trkpt>
<trkpt lat="44.9684435" lon="5.4120666">
<ele>888.67</ele>
<time>2019-07-25T09:40:27Z</time>
</trkpt>
<trkpt lat="44.9684787" lon="5.4120157">
<ele>888.60</ele>
<time>2019-07-25T09:40:28Z</time>
</trkpt>
<trkpt lat="44.9685100" lon="5.4119672">
<ele>888.54</ele>
<time>2019-07-25T09:40:29Z</time>
</trkpt>
<trkpt lat="44.9685473" lon="5.4119149">
<ele>888.48</ele>
<time>2019-07-25T09:40:30Z</time>
</trkpt>
<trkpt lat="44.9685893" lon="5.4118599">
<ele>888.40</ele>
<time>2019-07-25T09:40:31Z</time>
</trkpt>
<trkpt lat="44.9686303" lon="5.4118091">
<ele>888.32</ele>
<time>2019-07-25T09:40:32Z</time>
</trkpt>
<trkpt lat="44.9686709" lon="5.4117706">
<ele>888.25</ele>
<time>2019-07-25T09:40:33Z</time>
</trkpt>
<trkpt lat="44.9687114" lon="5.4117269">
<ele>888.18</ele>
<time>2019-07-25T09:40:34Z</time>
</trkpt>
<trkpt lat="44.9687560" lon="5.4116818">
<ele>888.12</ele>
<time>2019-07-25T09:40:35Z</time>
</trkpt>
<trkpt lat="44.9688053" lon="5.4116388">
<ele>888.06</ele>
<time>2019-07-25T09:40:36Z</time>
</trkpt>
<trkpt lat="44.9688521" lon="5.4115947">
<ele>887.97</ele>
<time>2019-07-25T09:40:37Z</time>
</trkpt>
<trkpt lat="44.9688905" lon="5.4115540">
<ele>887.89</ele>
<time>2019-07-25T09:40:38Z</time>
</trkpt>
<trkpt lat="44.9689264" lon="5.4115164">
<ele>887.83</ele>
<time>2019-07-25T09:40:39Z</time>
</trkpt>
<trkpt lat="44.9689596" lon="5.4114818">
<ele>887.77</ele>
<time>2019-07-25T09:40:40Z</time>
</trkpt>
<trkpt lat="44.9689866" lon="5.4114581">
<ele>887.77</ele>
<time>2019-07-25T09:40:41Z</time>
</trkpt>
<trkpt lat="44.9690079" lon="5.4114495">
<ele>887.76</ele>
<time>2019-07-25T09:40:42Z</time>
</trkpt>
<trkpt lat="44.9690269" lon="5.4114491">
<ele>887.75</ele>
<time>2019-07-25T09:40:43Z</time>
</trkpt>
<trkpt lat="44.9690413" lon="5.4114350">
<ele>887.74</ele>
<time>2019-07-25T09:40:44Z</time>
</trkpt>
<trkpt lat="44.9690375" lon="5.4113986">
<ele>887.72</ele>
<time>2019-07-25T09:40:45Z</time>
</trkpt>
<trkpt lat="44.9690186" lon="5.4113686">
<ele>887.70</ele>
<time>2019-07-25T09:40:46Z</time>
</trkpt>
<trkpt lat="44.9689937" lon="5.4113496">
<ele>887.68</ele>
<time>2019-07-25T09:40:47Z</time>
</trkpt>
<trkpt lat="44.9689710" lon="5.4113377">
<ele>887.65</ele>
<time>2019-07-25T09:40:48Z</time>
</trkpt>
<trkpt lat="44.9689507" lon="5.4113307">
<ele>887.62</ele>
<time>2019-07-25T09:40:49Z</time>
</trkpt>
<trkpt lat="44.9689337" lon="5.4113287">
<ele>887.59</ele>
<time>2019-07-25T09:40:50Z</time>
</trkpt>
<trkpt lat="44.9689159" lon="5.4113373">
<ele>887.55</ele>
<time>2019-07-25T09:40:51Z</time>
</trkpt>
<trkpt lat="44.9689033" lon="5.4113526">
<ele>887.52</ele>
<time>2019-07-25T09:40:52Z</time>
</trkpt>
<trkpt lat="44.9688886" lon="5.4113711">
<ele>887.48</ele>
<time>2019-07-25T09:40:53Z</time>
</trkpt>
<trkpt lat="44.9688763" lon="5.4113861">
<ele>887.45</ele>
<time>2019-07-25T09:40:54Z</time>
</trkpt>
<trkpt lat="44.9688635" lon="5.4114006">
<ele>887.41</ele>
<time>2019-07-25T09:40:55Z</time>
</trkpt>
<trkpt lat="44.9688532" lon="5.4114093">
<ele>887.37</ele>
<time>2019-07-25T09:40:56Z</time>
</trkpt>
<trkpt lat="44.9688444" lon="5.4114096">
<ele>887.32</ele>
<time>2019-07-25T09:40:57Z</time>
</trkpt>
<trkpt lat="44.9688429" lon="5.4114069">
<ele>887.31</ele>
<time>2019-07-25T09:40:58Z</time>
</trkpt>
<trkpt lat="44.9688456" lon="5.4114152">
<ele>887.26</ele>
<time>2019-07-25T09:40:59Z</time>
</trkpt>
<trkpt lat="44.9688505" lon="5.4114248">
<ele>887.20</ele>
<time>2019-07-25T09:41:00Z</time>
</trkpt>
<trkpt lat="44.9688507" lon="5.4114230">
<ele>887.19</ele>
<time>2019-07-25T09:41:01Z</time>
</trkpt>
<trkpt lat="44.9688508" lon="5.4114231">
<ele>887.19</ele>
<time>2019-07-25T09:41:02Z</time>
</trkpt>
<trkpt lat="44.9688540" lon="5.4114272">
<ele>887.13</ele>
<time>2019-07-25T09:41:03Z</time>
</trkpt>
<trkpt lat="44.9688575" lon="5.4114380">
<ele>887.08</ele>
<time>2019-07-25T09:41:04Z</time>
</trkpt>
<trkpt lat="44.9688575" lon="5.4114521">
<ele>887.02</ele>
<time>2019-07-25T09:41:05Z</time>
</trkpt>
<trkpt lat="44.9688547" lon="5.4114526">
<ele>886.96</ele>
<time>2019-07-25T09:41:06Z</time>
</trkpt>
<trkpt lat="44.9688522" lon="5.4114530">
<ele>886.90</ele>
<time>2019-07-25T09:41:07Z</time>
</trkpt>
<trkpt lat="44.9688604" lon="5.4114473">
<ele>886.84</ele>
<time>2019-07-25T09:41:08Z</time>
</trkpt>
<trkpt lat="44.9688805" lon="5.4114320">
<ele>886.77</ele>
<time>2019-07-25T09:41:09Z</time>
</trkpt>
<trkpt lat="44.9689087" lon="5.4114209">
<ele>886.71</ele>
<time>2019-07-25T09:41:10Z</time>
</trkpt>
<trkpt lat="44.9689369" lon="5.4114114">
<ele>886.65</ele>
<time>2019-07-25T09:41:11Z</time>
</trkpt>
<trkpt lat="44.9689637" lon="5.4114014">
<ele>886.59</ele>
<time>2019-07-25T09:41:12Z</time>
</trkpt>
<trkpt lat="44.9689902" lon="5.4114068">
<ele>886.53</ele>
<time>2019-07-25T09:41:13Z</time>
</trkpt>
<trkpt lat="44.9690086" lon="5.4114169">
<ele>886.47</ele>
<time>2019-07-25T09:41:14Z</time>
</trkpt>
<trkpt lat="44.9690173" lon="5.4114365">
<ele>886.42</ele>
<time>2019-07-25T09:41:15Z</time>
</trkpt>
<trkpt lat="44.9690177" lon="5.4114620">
<ele>886.35</ele>
<time>2019-07-25T09:41:16Z</time>
</trkpt>
<trkpt lat="44.9689952" lon="5.4114808">
<ele>886.29</ele>
<time>2019-07-25T09:41:17Z</time>
</trkpt>
<trkpt lat="44.9689630" lon="5.4114985">
<ele>886.22</ele>
<time>2019-07-25T09:41:18Z</time>
</trkpt>
<trkpt lat="44.9689294" lon="5.4115249">
<ele>886.15</ele>
<time>2019-07-25T09:41:19Z</time>
</trkpt>
<trkpt lat="44.9688958" lon="5.4115558">
<ele>886.08</ele>
<time>2019-07-25T09:41:20Z</time>
</trkpt>
<trkpt lat="44.9688612" lon="5.4115885">
<ele>885.39</ele>
<time>2019-07-25T09:41:21Z</time>
</trkpt>
<trkpt lat="44.9688238" lon="5.4116257">
<ele>884.84</ele>
<time>2019-07-25T09:41:22Z</time>
</trkpt>
<trkpt lat="44.9687797" lon="5.4116670">
<ele>884.39</ele>
<time>2019-07-25T09:41:23Z</time>
</trkpt>
<trkpt lat="44.9687431" lon="5.4116993">
<ele>884.01</ele>
<time>2019-07-25T09:41:24Z</time>
</trkpt>
<trkpt lat="44.9687132" lon="5.4117314">
<ele>883.98</ele>
<time>2019-07-25T09:41:25Z</time>
</trkpt>
<trkpt lat="44.9686829" lon="5.4117647">
<ele>883.60</ele>
<time>2019-07-25T09:41:26Z</time>
</trkpt>
<trkpt lat="44.9686462" lon="5.4117947">
<ele>883.29</ele>
<time>2019-07-25T09:41:27Z</time>
</trkpt>
<trkpt lat="44.9686134" lon="5.4118253">
<ele>883.26</ele>
<time>2019-07-25T09:41:28Z</time>
</trkpt>
<trkpt lat="44.9685793" lon="5.4118541">
<ele>883.23</ele>
<time>2019-07-25T09:41:29Z</time>
</trkpt>
<trkpt lat="44.9685441" lon="5.4118856">
<ele>883.20</ele>
<time>2019-07-25T09:41:30Z</time>
</trkpt>
<trkpt lat="44.9685136" lon="5.4119137">
<ele>883.17</ele>
<time>2019-07-25T09:41:31Z</time>
</trkpt>
<trkpt lat="44.9684954" lon="5.4119377">
<ele>883.14</ele>
<time>2019-07-25T09:41:32Z</time>
</trkpt>
<trkpt lat="44.9684726" lon="5.4119812">
<ele>883.11</ele>
<time>2019-07-25T09:41:33Z</time>
</trkpt>
<trkpt lat="44.9684420" lon="5.4120234">
<ele>883.08</ele>
<time>2019-07-25T09:41:34Z</time>
</trkpt>
<trkpt lat="44.9684193" lon="5.4120576">
<ele>883.05</ele>
<time>2019-07-25T09:41:35Z</time>
</trkpt>
<trkpt lat="44.9684029" lon="5.4120891">
<ele>883.01</ele>
<time>2019-07-25T09:41:36Z</time>
</trkpt>
<trkpt lat="44.9683901" lon="5.4121168">
<ele>882.98</ele>
<time>2019-07-25T09:41:37Z</time>
</trkpt>
<trkpt lat="44.9683783" lon="5.4121419">
<ele>882.95</ele>
<time>2019-07-25T09:41:38Z</time>
</trkpt>
<trkpt lat="44.9683715" lon="5.4121534">
<ele>882.92</ele>
<time>2019-07-25T09:41:39Z</time>
</trkpt>
<trkpt lat="44.9683683" lon="5.4121538">
<ele>882.90</ele>
<time>2019-07-25T09:41:40Z</time>
</trkpt>
<trkpt lat="44.9683706" lon="5.4121532">
<ele>882.87</ele>
<time>2019-07-25T09:41:41Z</time>
</trkpt>
<trkpt lat="44.9683747" lon="5.4121477">
<ele>882.85</ele>
<time>2019-07-25T09:41:42Z</time>
</trkpt>
<trkpt lat="44.9683764" lon="5.4121334">
<ele>882.82</ele>
<time>2019-07-25T09:41:43Z</time>
</trkpt>
<trkpt lat="44.9683808" lon="5.4121167">
<ele>882.80</ele>
<time>2019-07-25T09:41:44Z</time>
</trkpt>
<trkpt lat="44.9683814" lon="5.4121060">
<ele>882.77</ele>
<time>2019-07-25T09:41:45Z</time>
</trkpt>
<trkpt lat="44.9683849" lon="5.4120946">
<ele>882.75</ele>
<time>2019-07-25T09:41:46Z</time>
</trkpt>
<trkpt lat="44.9683847" lon="5.4120915">
<ele>882.73</ele>
<time>2019-07-25T09:41:47Z</time>
</trkpt>
<trkpt lat="44.9683821" lon="5.4120875">
<ele>882.71</ele>
<time>2019-07-25T09:41:48Z</time>
</trkpt>
<trkpt lat="44.9683768" lon="5.4120829">
<ele>882.69</ele>
<time>2019-07-25T09:41:49Z</time>
</trkpt>
<trkpt lat="44.9683772" lon="5.4120814">
<ele>882.69</ele>
<time>2019-07-25T09:41:50Z</time>
</trkpt>
<trkpt lat="44.9683767" lon="5.4120810">
<ele>882.69</ele>
<time>2019-07-25T09:41:51Z</time>
</trkpt>
<trkpt lat="44.9683765" lon="5.4120807">
<ele>882.69</ele>
<time>2019-07-25T09:41:52Z</time>
</trkpt>
<trkpt lat="44.9683765" lon="5.4120804">
<ele>882.69</ele>
<time>2019-07-25T09:41:53Z</time>
</trkpt>
<trkpt lat="44.9683765" lon="5.4120797">
<ele>882.69</ele>
<time>2019-07-25T09:41:54Z</time>
</trkpt>
<trkpt lat="44.9683768" lon="5.4120794">
<ele>882.69</ele>
<time>2019-07-25T09:41:55Z</time>
</trkpt>
<trkpt lat="44.9683761" lon="5.4120812">
<ele>882.69</ele>
<time>2019-07-25T09:41:56Z</time>
</trkpt>
<trkpt lat="44.9683777" lon="5.4120734">
<ele>882.69</ele>
<time>2019-07-25T09:41:57Z</time>
</trkpt>
<trkpt lat="44.9683830" lon="5.4120516">
<ele>882.69</ele>
<time>2019-07-25T09:41:58Z</time>
</trkpt>
<trkpt lat="44.9683907" lon="5.4120230">
<ele>882.69</ele>
<time>2019-07-25T09:41:59Z</time>
</trkpt>
<trkpt lat="44.9683999" lon="5.4119983">
<ele>882.69</ele>
<time>2019-07-25T09:42:00Z</time>
</trkpt>
<trkpt lat="44.9684113" lon="5.4119592">
<ele>882.69</ele>
<time>2019-07-25T09:42:01Z</time>
</trkpt>
<trkpt lat="44.9684256" lon="5.4119163">
<ele>882.68</ele>
<time>2019-07-25T09:42:02Z</time>
</trkpt>
<trkpt lat="44.9684360" lon="5.4118818">
<ele>882.67</ele>
<time>2019-07-25T09:42:03Z</time>
</trkpt>
<trkpt lat="44.9684529" lon="5.4118467">
<ele>882.66</ele>
<time>2019-07-25T09:42:04Z</time>
</trkpt>
<trkpt lat="44.9684672" lon="5.4118100">
<ele>882.64</ele>
<time>2019-07-25T09:42:05Z</time>
</trkpt>
<trkpt lat="44.9684809" lon="5.4117627">
<ele>882.63</ele>
<time>2019-07-25T09:42:06Z</time>
</trkpt>
<trkpt lat="44.9684966" lon="5.4117032">
<ele>882.44</ele>
<time>2019-07-25T09:42:07Z</time>
</trkpt>
<trkpt lat="44.9685125" lon="5.4116489">
<ele>882.31</ele>
<time>2019-07-25T09:42:08Z</time>
</trkpt>
<trkpt lat="44.9685302" lon="5.4115837">
<ele>882.20</ele>
<time>2019-07-25T09:42:09Z</time>
</trkpt>
<trkpt lat="44.9685530" lon="5.4115254">
<ele>882.11</ele>
<time>2019-07-25T09:42:10Z</time>
</trkpt>
<trkpt lat="44.9685819" lon="5.4114709">
<ele>882.01</ele>
<time>2019-07-25T09:42:11Z</time>
</trkpt>
<trkpt lat="44.9686132" lon="5.4114099">
<ele>881.92</ele>
<time>2019-07-25T09:42:12Z</time>
</trkpt>
<trkpt lat="44.9686426" lon="5.4113356">
<ele>881.81</ele>
<time>2019-07-25T09:42:13Z</time>
</trkpt>
<trkpt lat="44.9686666" lon="5.4112617">
<ele>881.70</ele>
<time>2019-07-25T09:42:14Z</time>
</trkpt>
<trkpt lat="44.9686975" lon="5.4112028">
<ele>881.58</ele>
<time>2019-07-25T09:42:15Z</time>
</trkpt>
<trkpt lat="44.9687297" lon="5.4111344">
<ele>881.44</ele>
<time>2019-07-25T09:42:16Z</time>
</trkpt>
<trkpt lat="44.9687611" lon="5.4110696">
<ele>881.28</ele>
<time>2019-07-25T09:42:17Z</time>
</trkpt>
<trkpt lat="44.9688001" lon="5.4110156">
<ele>881.11</ele>
<time>2019-07-25T09:42:18Z</time>
</trkpt>
<trkpt lat="44.9688392" lon="5.4109709">
<ele>880.93</ele>
<time>2019-07-25T09:42:19Z</time>
</trkpt>
<trkpt lat="44.9688705" lon="5.4109315">
<ele>880.77</ele>
<time>2019-07-25T09:42:20Z</time>
</trkpt>
<trkpt lat="44.9689047" lon="5.4108905">
<ele>880.62</ele>
<time>2019-07-25T09:42:21Z</time>
</trkpt>
<trkpt lat="44.9689454" lon="5.4108418">
<ele>880.47</ele>
<time>2019-07-25T09:42:22Z</time>
</trkpt>
<trkpt lat="44.9689897" lon="5.4107710">
<ele>880.30</ele>
<time>2019-07-25T09:42:23Z</time>
</trkpt>
<trkpt lat="44.9690263" lon="5.4106943">
<ele>880.08</ele>
<time>2019-07-25T09:42:24Z</time>
</trkpt>
<trkpt lat="44.9690606" lon="5.4106213">
<ele>879.85</ele>
<time>2019-07-25T09:42:25Z</time>
</trkpt>
<trkpt lat="44.9690929" lon="5.4105499">
<ele>879.62</ele>
<time>2019-07-25T09:42:26Z</time>
</trkpt>
<trkpt lat="44.9691238" lon="5.4104869">
<ele>879.34</ele>
<time>2019-07-25T09:42:27Z</time>
</trkpt>
<trkpt lat="44.9691537" lon="5.4104264">
<ele>879.04</ele>
<time>2019-07-25T09:42:28Z</time>
</trkpt>
<trkpt lat="44.9691820" lon="5.4103644">
<ele>878.73</ele>
<time>2019-07-25T09:42:29Z</time>
</trkpt>
<trkpt lat="44.9692019" lon="5.4102964">
<ele>878.40</ele>
<time>2019-07-25T09:42:30Z</time>
</trkpt>
<trkpt lat="44.9692066" lon="5.4102209">
<ele>878.05</ele>
<time>2019-07-25T09:42:31Z</time>
</trkpt>
<trkpt lat="44.9692032" lon="5.4101364">
<ele>877.70</ele>
<time>2019-07-25T09:42:32Z</time>
</trkpt>
<trkpt lat="44.9691934" lon="5.4100579">
<ele>877.33</ele>
<time>2019-07-25T09:42:33Z</time>
</trkpt>
<trkpt lat="44.9691823" lon="5.4099863">
<ele>876.99</ele>
<time>2019-07-25T09:42:34Z</time>
</trkpt>
<trkpt lat="44.9691771" lon="5.4099152">
<ele>876.67</ele>
<time>2019-07-25T09:42:35Z</time>
</trkpt>
<trkpt lat="44.9691765" lon="5.4098466">
<ele>876.34</ele>
<time>2019-07-25T09:42:36Z</time>
</trkpt>
<trkpt lat="44.9691781" lon="5.4097762">
<ele>876.01</ele>
<time>2019-07-25T09:42:37Z</time>
</trkpt>
<trkpt lat="44.9691866" lon="5.4096981">
<ele>875.69</ele>
<time>2019-07-25T09:42:38Z</time>
</trkpt>
<trkpt lat="44.9691968" lon="5.4096390">
<ele>875.38</ele>
<time>2019-07-25T09:42:39Z</time>
</trkpt>
<trkpt lat="44.9692088" lon="5.4095790">
<ele>875.08</ele>
<time>2019-07-25T09:42:40Z</time>
</trkpt>
<trkpt lat="44.9692190" lon="5.4095238">
<ele>874.76</ele>
<time>2019-07-25T09:42:41Z</time>
</trkpt>
<trkpt lat="44.9692228" lon="5.4094755">
<ele>874.73</ele>
<time>2019-07-25T09:42:42Z</time>
</trkpt>
<trkpt lat="44.9692269" lon="5.4094379">
<ele>874.69</ele>
<time>2019-07-25T09:42:43Z</time>
</trkpt>
<trkpt lat="44.9692255" lon="5.4093928">
<ele>874.66</ele>
<time>2019-07-25T09:42:44Z</time>
</trkpt>
<trkpt lat="44.9692239" lon="5.4093473">
<ele>874.62</ele>
<time>2019-07-25T09:42:45Z</time>
</trkpt>
<trkpt lat="44.9692229" lon="5.4093044">
<ele>874.57</ele>
<time>2019-07-25T09:42:46Z</time>
</trkpt>
<trkpt lat="44.9692273" lon="5.4092690">
<ele>874.57</ele>
<time>2019-07-25T09:42:47Z</time>
</trkpt>
<trkpt lat="44.9692203" lon="5.4092892">
<ele>874.56</ele>
<time>2019-07-25T09:42:48Z</time>
</trkpt>
<trkpt lat="44.9692303" lon="5.4092896">
<ele>874.49</ele>
<time>2019-07-25T09:42:49Z</time>
</trkpt>
<trkpt lat="44.9692307" lon="5.4092864">
<ele>874.48</ele>
<time>2019-07-25T09:42:50Z</time>
</trkpt>
<trkpt lat="44.9692306" lon="5.4092820">
<ele>874.47</ele>
<time>2019-07-25T09:42:51Z</time>
</trkpt>
<trkpt lat="44.9692304" lon="5.4092796">
<ele>874.47</ele>
<time>2019-07-25T09:42:52Z</time>
</trkpt>
<trkpt lat="44.9692305" lon="5.4092788">
<ele>874.46</ele>
<time>2019-07-25T09:42:53Z</time>
</trkpt>
<trkpt lat="44.9692305" lon="5.4092757">
<ele>874.45</ele>
<time>2019-07-25T09:42:54Z</time>
</trkpt>
<trkpt lat="44.9692304" lon="5.4092742">
<ele>874.45</ele>
<time>2019-07-25T09:42:55Z</time>
</trkpt>
<trkpt lat="44.9692304" lon="5.4092737">
<ele>874.44</ele>
<time>2019-07-25T09:42:56Z</time>
</trkpt>
<trkpt lat="44.9692303" lon="5.4092733">
<ele>874.43</ele>
<time>2019-07-25T09:42:57Z</time>
</trkpt>
<trkpt lat="44.9692302" lon="5.4092730">
<ele>874.43</ele>
<time>2019-07-25T09:42:58Z</time>
</trkpt>
<trkpt lat="44.9692296" lon="5.4092732">
<ele>874.42</ele>
<time>2019-07-25T09:42:59Z</time>
</trkpt>
<trkpt lat="44.9692285" lon="5.4092744">
<ele>874.41</ele>
<time>2019-07-25T09:43:00Z</time>
</trkpt>
<trkpt lat="44.9692285" lon="5.4092741">
<ele>874.41</ele>
<time>2019-07-25T09:43:01Z</time>
</trkpt>
<trkpt lat="44.9692282" lon="5.4092751">
<ele>874.40</ele>
<time>2019-07-25T09:43:02Z</time>
</trkpt>
<trkpt lat="44.9692260" lon="5.4092791">
<ele>874.39</ele>
<time>2019-07-25T09:43:03Z</time>
</trkpt>
<trkpt lat="44.9692302" lon="5.4092760">
<ele>874.29</ele>
<time>2019-07-25T09:43:04Z</time>
</trkpt>
<trkpt lat="44.9692366" lon="5.4092637">
<ele>874.19</ele>
<time>2019-07-25T09:43:05Z</time>
</trkpt>
<trkpt lat="44.9692351" lon="5.4092493">
<ele>874.08</ele>
<time>2019-07-25T09:43:06Z</time>
</trkpt>
<trkpt lat="44.9692328" lon="5.4092291">
<ele>873.97</ele>
<time>2019-07-25T09:43:07Z</time>
</trkpt>
<trkpt lat="44.9692357" lon="5.4092044">
<ele>873.86</ele>
<time>2019-07-25T09:43:08Z</time>
</trkpt>
<trkpt lat="44.9692367" lon="5.4091878">
<ele>873.74</ele>
<time>2019-07-25T09:43:09Z</time>
</trkpt>
<trkpt lat="44.9692368" lon="5.4091694">
<ele>873.62</ele>
<time>2019-07-25T09:43:10Z</time>
</trkpt>
<trkpt lat="44.9692382" lon="5.4091496">
<ele>873.49</ele>
<time>2019-07-25T09:43:11Z</time>
</trkpt>
<trkpt lat="44.9692370" lon="5.4091348">
<ele>873.37</ele>
<time>2019-07-25T09:43:12Z</time>
</trkpt>
<trkpt lat="44.9692374" lon="5.4091197">
<ele>873.23</ele>
<time>2019-07-25T09:43:13Z</time>
</trkpt>
<trkpt lat="44.9692372" lon="5.4091076">
<ele>873.10</ele>
<time>2019-07-25T09:43:14Z</time>
</trkpt>
<trkpt lat="44.9692364" lon="5.4090925">
<ele>872.96</ele>
<time>2019-07-25T09:43:15Z</time>
</trkpt>
<trkpt lat="44.9692332" lon="5.4090766">
<ele>872.83</ele>
<time>2019-07-25T09:43:16Z</time>
</trkpt>
<trkpt lat="44.9692305" lon="5.4090725">
<ele>872.69</ele>
<time>2019-07-25T09:43:17Z</time>
</trkpt>
<trkpt lat="44.9692332" lon="5.4090454">
<ele>872.56</ele>
<time>2019-07-25T09:43:18Z</time>
</trkpt>
<trkpt lat="44.9692316" lon="5.4090433">
<ele>872.42</ele>
<time>2019-07-25T09:43:19Z</time>
</trkpt>
<trkpt lat="44.9692309" lon="5.4090373">
<ele>872.40</ele>
<time>2019-07-25T09:43:20Z</time>
</trkpt>
<trkpt lat="44.9692306" lon="5.4090376">
<ele>872.39</ele>
<time>2019-07-25T09:43:21Z</time>
</trkpt>
<trkpt lat="44.9692306" lon="5.4090363">
<ele>872.38</ele>
<time>2019-07-25T09:43:22Z</time>
</trkpt>
<trkpt lat="44.9692304" lon="5.4090360">
<ele>872.36</ele>
<time>2019-07-25T09:43:23Z</time>
</trkpt>
<trkpt lat="44.9692299" lon="5.4090369">
<ele>872.35</ele>
<time>2019-07-25T09:43:24Z</time>
</trkpt>
<trkpt lat="44.9692314" lon="5.4090166">
<ele>872.20</ele>
<time>2019-07-25T09:43:25Z</time>
</trkpt>
<trkpt lat="44.9692348" lon="5.4090013">
<ele>872.05</ele>
<time>2019-07-25T09:43:26Z</time>
</trkpt>
<trkpt lat="44.9692393" lon="5.4089733">
<ele>871.90</ele>
<time>2019-07-25T09:43:27Z</time>
</trkpt>
<trkpt lat="44.9692486" lon="5.4089387">
<ele>871.74</ele>
<time>2019-07-25T09:43:28Z</time>
</trkpt>
<trkpt lat="44.9692458" lon="5.4089289">
<ele>871.59</ele>
<time>2019-07-25T09:43:29Z</time>
</trkpt>
<trkpt lat="44.9692396" lon="5.4089208">
<ele>871.44</ele>
<time>2019-07-25T09:43:30Z</time>
</trkpt>
<trkpt lat="44.9692329" lon="5.4089082">
<ele>871.29</ele>
<time>2019-07-25T09:43:31Z</time>
</trkpt>
<trkpt lat="44.9692277" lon="5.4088890">
<ele>871.13</ele>
<time>2019-07-25T09:43:32Z</time>
</trkpt>
<trkpt lat="44.9692258" lon="5.4088684">
<ele>870.97</ele>
<time>2019-07-25T09:43:33Z</time>
</trkpt>
<trkpt lat="44.9692210" lon="5.4088397">
<ele>870.82</ele>
<time>2019-07-25T09:43:34Z</time>
</trkpt>
<trkpt lat="44.9692165" lon="5.4088015">
<ele>870.65</ele>
<time>2019-07-25T09:43:35Z</time>
</trkpt>
<trkpt lat="44.9692160" lon="5.4087635">
<ele>870.50</ele>
<time>2019-07-25T09:43:36Z</time>
</trkpt>
<trkpt lat="44.9692181" lon="5.4087269">
<ele>870.34</ele>
<time>2019-07-25T09:43:37Z</time>
</trkpt>
<trkpt lat="44.9692213" lon="5.4086852">
<ele>870.20</ele>
<time>2019-07-25T09:43:38Z</time>
</trkpt>
<trkpt lat="44.9692215" lon="5.4086366">
<ele>870.05</ele>
<time>2019-07-25T09:43:39Z</time>
</trkpt>
<trkpt lat="44.9692267" lon="5.4085892">
<ele>869.92</ele>
<time>2019-07-25T09:43:40Z</time>
</trkpt>
<trkpt lat="44.9692311" lon="5.4085773">
<ele>869.78</ele>
<time>2019-07-25T09:43:41Z</time>
</trkpt>
<trkpt lat="44.9692376" lon="5.4085553">
<ele>869.65</ele>
<time>2019-07-25T09:43:42Z</time>
</trkpt>
<trkpt lat="44.9692419" lon="5.4085459">
<ele>869.50</ele>
<time>2019-07-25T09:43:43Z</time>
</trkpt>
<trkpt lat="44.9692400" lon="5.4085326">
<ele>869.36</ele>
<time>2019-07-25T09:43:44Z</time>
</trkpt>
<trkpt lat="44.9692398" lon="5.4085148">
<ele>869.21</ele>
<time>2019-07-25T09:43:45Z</time>
</trkpt>
<trkpt lat="44.9692398" lon="5.4084994">
<ele>869.06</ele>
<time>2019-07-25T09:43:46Z</time>
</trkpt>
<trkpt lat="44.9692409" lon="5.4084822">
<ele>868.90</ele>
<time>2019-07-25T09:43:47Z</time>
</trkpt>
<trkpt lat="44.9692392" lon="5.4084615">
<ele>868.74</ele>
<time>2019-07-25T09:43:48Z</time>
</trkpt>
<trkpt lat="44.9692370" lon="5.4084430">
<ele>868.57</ele>
<time>2019-07-25T09:43:49Z</time>
</trkpt>
<trkpt lat="44.9692333" lon="5.4084214">
<ele>868.41</ele>
<time>2019-07-25T09:43:50Z</time>
</trkpt>
<trkpt lat="44.9692289" lon="5.4083967">
<ele>868.25</ele>
<time>2019-07-25T09:43:51Z</time>
</trkpt>
<trkpt lat="44.9692263" lon="5.4083722">
<ele>868.09</ele>
<time>2019-07-25T09:43:52Z</time>
</trkpt>
<trkpt lat="44.9692230" lon="5.4083455">
<ele>867.93</ele>
<time>2019-07-25T09:43:53Z</time>
</trkpt>
<trkpt lat="44.9692158" lon="5.4083210">
<ele>867.77</ele>
<time>2019-07-25T09:43:54Z</time>
</trkpt>
<trkpt lat="44.9692095" lon="5.4082969">
<ele>867.61</ele>
<time>2019-07-25T09:43:55Z</time>
</trkpt>
<trkpt lat="44.9692066" lon="5.4082677">
<ele>867.45</ele>
<time>2019-07-25T09:43:56Z</time>
</trkpt>
<trkpt lat="44.9692062" lon="5.4082363">
<ele>867.29</ele>
<time>2019-07-25T09:43:57Z</time>
</trkpt>
<trkpt lat="44.9692024" lon="5.4082054">
<ele>867.13</ele>
<time>2019-07-25T09:43:58Z</time>
</trkpt>
<trkpt lat="44.9691996" lon="5.4081699">
<ele>866.97</ele>
<time>2019-07-25T09:43:59Z</time>
</trkpt>
<trkpt lat="44.9691950" lon="5.4081328">
<ele>866.82</ele>
<time>2019-07-25T09:44:00Z</time>
</trkpt>
<trkpt lat="44.9691904" lon="5.4080932">
<ele>866.66</ele>
<time>2019-07-25T09:44:01Z</time>
</trkpt>
<trkpt lat="44.9691866" lon="5.4080411">
<ele>866.51</ele>
<time>2019-07-25T09:44:02Z</time>
</trkpt>
<trkpt lat="44.9691794" lon="5.4079870">
<ele>865.01</ele>
<time>2019-07-25T09:44:03Z</time>
</trkpt>
<trkpt lat="44.9691722" lon="5.4079326">
<ele>863.79</ele>
<time>2019-07-25T09:44:04Z</time>
</trkpt>
<trkpt lat="44.9691763" lon="5.4078771">
<ele>862.79</ele>
<time>2019-07-25T09:44:05Z</time>
</trkpt>
<trkpt lat="44.9691833" lon="5.4078105">
<ele>861.98</ele>
<time>2019-07-25T09:44:06Z</time>
</trkpt>
<trkpt lat="44.9691872" lon="5.4077486">
<ele>861.92</ele>
<time>2019-07-25T09:44:07Z</time>
</trkpt>
<trkpt lat="44.9691912" lon="5.4076918">
<ele>861.85</ele>
<time>2019-07-25T09:44:08Z</time>
</trkpt>
<trkpt lat="44.9691924" lon="5.4076568">
<ele>861.78</ele>
<time>2019-07-25T09:44:09Z</time>
</trkpt>
<trkpt lat="44.9691955" lon="5.4076323">
<ele>861.72</ele>
<time>2019-07-25T09:44:10Z</time>
</trkpt>
<trkpt lat="44.9692125" lon="5.4076014">
<ele>861.66</ele>
<time>2019-07-25T09:44:11Z</time>
</trkpt>
<trkpt lat="44.9692323" lon="5.4075662">
<ele>861.59</ele>
<time>2019-07-25T09:44:12Z</time>
</trkpt>
<trkpt lat="44.9692462" lon="5.4075215">
<ele>861.52</ele>
<time>2019-07-25T09:44:13Z</time>
</trkpt>
<trkpt lat="44.9692517" lon="5.4074659">
<ele>860.78</ele>
<time>2019-07-25T09:44:14Z</time>
</trkpt>
<trkpt lat="44.9692470" lon="5.4074039">
<ele>860.11</ele>
<time>2019-07-25T09:44:15Z</time>
</trkpt>
<trkpt lat="44.9692377" lon="5.4073353">
<ele>859.51</ele>
<time>2019-07-25T09:44:16Z</time>
</trkpt>
<trkpt lat="44.9692447" lon="5.4072435">
<ele>858.93</ele>
<time>2019-07-25T09:44:17Z</time>
</trkpt>
<trkpt lat="44.9692568" lon="5.4071802">
<ele>858.88</ele>
<time>2019-07-25T09:44:18Z</time>
</trkpt>
<trkpt lat="44.9692700" lon="5.4071238">
<ele>858.82</ele>
<time>2019-07-25T09:44:19Z</time>
</trkpt>
<trkpt lat="44.9693030" lon="5.4070634">
<ele>858.74</ele>
<time>2019-07-25T09:44:20Z</time>
</trkpt>
<trkpt lat="44.9693011" lon="5.4070143">
<ele>857.95</ele>
<time>2019-07-25T09:44:21Z</time>
</trkpt>
<trkpt lat="44.9692961" lon="5.4069548">
<ele>857.26</ele>
<time>2019-07-25T09:44:22Z</time>
</trkpt>
<trkpt lat="44.9692903" lon="5.4068984">
<ele>856.64</ele>
<time>2019-07-25T09:44:23Z</time>
</trkpt>
<trkpt lat="44.9692685" lon="5.4068300">
<ele>856.08</ele>
<time>2019-07-25T09:44:24Z</time>
</trkpt>
<trkpt lat="44.9692574" lon="5.4067668">
<ele>855.58</ele>
<time>2019-07-25T09:44:25Z</time>
</trkpt>
<trkpt lat="44.9692438" lon="5.4066972">
<ele>855.12</ele>
<time>2019-07-25T09:44:26Z</time>
</trkpt>
<trkpt lat="44.9692400" lon="5.4066373">
<ele>854.66</ele>
<time>2019-07-25T09:44:27Z</time>
</trkpt>
<trkpt lat="44.9692380" lon="5.4065667">
<ele>854.24</ele>
<time>2019-07-25T09:44:28Z</time>
</trkpt>
<trkpt lat="44.9692414" lon="5.4064998">
<ele>853.86</ele>
<time>2019-07-25T09:44:29Z</time>
</trkpt>
<trkpt lat="44.9692370" lon="5.4064301">
<ele>853.52</ele>
<time>2019-07-25T09:44:30Z</time>
</trkpt>
<trkpt lat="44.9692308" lon="5.4063493">
<ele>853.22</ele>
<time>2019-07-25T09:44:31Z</time>
</trkpt>
<trkpt lat="44.9692311" lon="5.4062764">
<ele>852.96</ele>
<time>2019-07-25T09:44:32Z</time>
</trkpt>
<trkpt lat="44.9692234" lon="5.4062004">
<ele>852.70</ele>
<time>2019-07-25T09:44:33Z</time>
</trkpt>
<trkpt lat="44.9692184" lon="5.4061231">
<ele>852.48</ele>
<time>2019-07-25T09:44:34Z</time>
</trkpt>
<trkpt lat="44.9692115" lon="5.4060493">
<ele>852.27</ele>
<time>2019-07-25T09:44:35Z</time>
</trkpt>
<trkpt lat="44.9692079" lon="5.4059795">
<ele>852.24</ele>
<time>2019-07-25T09:44:36Z</time>
</trkpt>
<trkpt lat="44.9692091" lon="5.4059219">
<ele>852.22</ele>
<time>2019-07-25T09:44:37Z</time>
</trkpt>
<trkpt lat="44.9692021" lon="5.4059069">
<ele>852.19</ele>
<time>2019-07-25T09:44:38Z</time>
</trkpt>
<trkpt lat="44.9691996" lon="5.4058908">
<ele>852.16</ele>
<time>2019-07-25T09:44:39Z</time>
</trkpt>
<trkpt lat="44.9692012" lon="5.4058819">
<ele>852.13</ele>
<time>2019-07-25T09:44:40Z</time>
</trkpt>
<trkpt lat="44.9691939" lon="5.4058756">
<ele>852.10</ele>
<time>2019-07-25T09:44:41Z</time>
</trkpt>
<trkpt lat="44.9691979" lon="5.4058626">
<ele>852.07</ele>
<time>2019-07-25T09:44:42Z</time>
</trkpt>
<trkpt lat="44.9692034" lon="5.4058573">
<ele>852.03</ele>
<time>2019-07-25T09:44:43Z</time>
</trkpt>
<trkpt lat="44.9692114" lon="5.4058614">
<ele>851.98</ele>
<time>2019-07-25T09:44:44Z</time>
</trkpt>
<trkpt lat="44.9692258" lon="5.4058449">
<ele>851.98</ele>
<time>2019-07-25T09:44:45Z</time>
</trkpt>
<trkpt lat="44.9692212" lon="5.4058466">
<ele>851.97</ele>
<time>2019-07-25T09:44:46Z</time>
</trkpt>
<trkpt lat="44.9692070" lon="5.4058619">
<ele>851.92</ele>
<time>2019-07-25T09:44:47Z</time>
</trkpt>
<trkpt lat="44.9692112" lon="5.4058520">
<ele>851.88</ele>
<time>2019-07-25T09:44:48Z</time>
</trkpt>
<trkpt lat="44.9692120" lon="5.4058488">
<ele>851.87</ele>
<time>2019-07-25T09:44:49Z</time>
</trkpt>
<trkpt lat="44.9692124" lon="5.4058486">
<ele>851.87</ele>
<time>2019-07-25T09:44:50Z</time>
</trkpt>
<trkpt lat="44.9692127" lon="5.4058486">
<ele>851.86</ele>
<time>2019-07-25T09:44:51Z</time>
</trkpt>
<trkpt lat="44.9692132" lon="5.4058479">
<ele>851.86</ele>
<time>2019-07-25T09:44:52Z</time>
</trkpt>
<trkpt lat="44.9692142" lon="5.4058460">
<ele>851.85</ele>
<time>2019-07-25T09:44:53Z</time>
</trkpt>
<trkpt lat="44.9692144" lon="5.4058456">
<ele>851.85</ele>
<time>2019-07-25T09:44:54Z</time>
</trkpt>
<trkpt lat="44.9692174" lon="5.4058468">
<ele>851.82</ele>
<time>2019-07-25T09:44:55Z</time>
</trkpt>
<trkpt lat="44.9692222" lon="5.4058348">
<ele>851.79</ele>
<time>2019-07-25T09:44:56Z</time>
</trkpt>
<trkpt lat="44.9692268" lon="5.4058169">
<ele>851.75</ele>
<time>2019-07-25T09:44:57Z</time>
</trkpt>
<trkpt lat="44.9692276" lon="5.4057964">
<ele>851.72</ele>
<time>2019-07-25T09:44:58Z</time>
</trkpt>
<trkpt lat="44.9692286" lon="5.4057955">
<ele>851.70</ele>
<time>2019-07-25T09:44:59Z</time>
</trkpt>
<trkpt lat="44.9692277" lon="5.4057926">
<ele>851.67</ele>
<time>2019-07-25T09:45:00Z</time>
</trkpt>
<trkpt lat="44.9692242" lon="5.4058051">
<ele>851.67</ele>
<time>2019-07-25T09:45:01Z</time>
</trkpt>
<trkpt lat="44.9692205" lon="5.4058147">
<ele>851.66</ele>
<time>2019-07-25T09:45:02Z</time>
</trkpt>
<trkpt lat="44.9692199" lon="5.4058155">
<ele>851.66</ele>
<time>2019-07-25T09:45:03Z</time>
</trkpt>
<trkpt lat="44.9692203" lon="5.4058135">
<ele>851.66</ele>
<time>2019-07-25T09:45:04Z</time>
</trkpt>
<trkpt lat="44.9692200" lon="5.4058169">
<ele>851.65</ele>
<time>2019-07-25T09:45:05Z</time>
</trkpt>
<trkpt lat="44.9692190" lon="5.4058061">
<ele>851.61</ele>
<time>2019-07-25T09:45:06Z</time>
</trkpt>
<trkpt lat="44.9692162" lon="5.4057934">
<ele>851.56</ele>
<time>2019-07-25T09:45:07Z</time>
</trkpt>
<trkpt lat="44.9692120" lon="5.4057830">
<ele>851.55</ele>
<time>2019-07-25T09:45:08Z</time>
</trkpt>
<trkpt lat="44.9692095" lon="5.4057700">
<ele>851.55</ele>
<time>2019-07-25T09:45:09Z</time>
</trkpt>
<trkpt lat="44.9692089" lon="5.4057691">
<ele>851.54</ele>
<time>2019-07-25T09:45:10Z</time>
</trkpt>
<trkpt lat="44.9692085" lon="5.4057684">
<ele>851.54</ele>
<time>2019-07-25T09:45:11Z</time>
</trkpt>
<trkpt lat="44.9692077" lon="5.4057677">
<ele>851.53</ele>
<time>2019-07-25T09:45:12Z</time>
</trkpt>
<trkpt lat="44.9692077" lon="5.4057677">
<ele>851.53</ele>
<time>2019-07-25T09:45:13Z</time>
</trkpt>
<trkpt lat="44.9692078" lon="5.4057675">
<ele>851.52</ele>
<time>2019-07-25T09:45:14Z</time>
</trkpt>
<trkpt lat="44.9692077" lon="5.4057676">
<ele>851.51</ele>
<time>2019-07-25T09:45:15Z</time>
</trkpt>
<trkpt lat="44.9692075" lon="5.4057662">
<ele>851.51</ele>
<time>2019-07-25T09:45:16Z</time>
</trkpt>
<trkpt lat="44.9692074" lon="5.4057654">
<ele>851.50</ele>
<time>2019-07-25T09:45:17Z</time>
</trkpt>
<trkpt lat="44.9692070" lon="5.4057574">
<ele>851.43</ele>
<time>2019-07-25T09:45:18Z</time>
</trkpt>
<trkpt lat="44.9692076" lon="5.4057555">
<ele>851.42</ele>
<time>2019-07-25T09:45:19Z</time>
</trkpt>
<trkpt lat="44.9692077" lon="5.4057530">
<ele>851.41</ele>
<time>2019-07-25T09:45:20Z</time>
</trkpt>
<trkpt lat="44.9692077" lon="5.4057527">
<ele>851.40</ele>
<time>2019-07-25T09:45:21Z</time>
</trkpt>
<trkpt lat="44.9692076" lon="5.4057535">
<ele>851.40</ele>
<time>2019-07-25T09:45:22Z</time>
</trkpt>
<trkpt lat="44.9692076" lon="5.4057533">
<ele>851.39</ele>
<time>2019-07-25T09:45:23Z</time>
</trkpt>
<trkpt lat="44.9692076" lon="5.4057528">
<ele>851.38</ele>
<time>2019-07-25T09:45:24Z</time>
</trkpt>
<trkpt lat="44.9692076" lon="5.4057528">
<ele>851.37</ele>
<time>2019-07-25T09:45:25Z</time>
</trkpt>
<trkpt lat="44.9692075" lon="5.4057529">
<ele>851.37</ele>
<time>2019-07-25T09:45:26Z</time>
</trkpt>
<trkpt lat="44.9692075" lon="5.4057531">
<ele>851.36</ele>
<time>2019-07-25T09:45:27Z</time>
</trkpt>
<trkpt lat="44.9692073" lon="5.4057521">
<ele>851.35</ele>
<time>2019-07-25T09:45:28Z</time>
</trkpt>
<trkpt lat="44.9692074" lon="5.4057503">
<ele>851.35</ele>
<time>2019-07-25T09:45:29Z</time>
</trkpt>
<trkpt lat="44.9692080" lon="5.4057513">
<ele>851.34</ele>
<time>2019-07-25T09:45:30Z</time>
</trkpt>
<trkpt lat="44.9692128" lon="5.4057326">
<ele>851.28</ele>
<time>2019-07-25T09:45:31Z</time>
</trkpt>
<trkpt lat="44.9692166" lon="5.4057146">
<ele>851.21</ele>
<time>2019-07-25T09:45:32Z</time>
</trkpt>
<trkpt lat="44.9692144" lon="5.4056786">
<ele>851.14</ele>
<time>2019-07-25T09:45:33Z</time>
</trkpt>
<trkpt lat="44.9692167" lon="5.4056286">
<ele>851.07</ele>
<time>2019-07-25T09:45:34Z</time>
</trkpt>
<trkpt lat="44.9692160" lon="5.4055798">
<ele>851.00</ele>
<time>2019-07-25T09:45:35Z</time>
</trkpt>
<trkpt lat="44.9692123" lon="5.4055338">
<ele>850.94</ele>
<time>2019-07-25T09:45:36Z</time>
</trkpt>
<trkpt lat="44.9692102" lon="5.4054898">
<ele>850.88</ele>
<time>2019-07-25T09:45:37Z</time>
</trkpt>
<trkpt lat="44.9692081" lon="5.4054401">
<ele>850.82</ele>
<time>2019-07-25T09:45:38Z</time>
</trkpt>
<trkpt lat="44.9692059" lon="5.4053818">
<ele>850.76</ele>
<time>2019-07-25T09:45:39Z</time>
</trkpt>
<trkpt lat="44.9692055" lon="5.4053228">
<ele>850.70</ele>
<time>2019-07-25T09:45:40Z</time>
</trkpt>
<trkpt lat="44.9692040" lon="5.4052738">
<ele>850.63</ele>
<time>2019-07-25T09:45:41Z</time>
</trkpt>
<trkpt lat="44.9692038" lon="5.4052206">
<ele>850.56</ele>
<time>2019-07-25T09:45:42Z</time>
</trkpt>
<trkpt lat="44.9692048" lon="5.4051754">
<ele>850.50</ele>
<time>2019-07-25T09:45:43Z</time>
</trkpt>
<trkpt lat="44.9692066" lon="5.4051351">
<ele>850.42</ele>
<time>2019-07-25T09:45:44Z</time>
</trkpt>
<trkpt lat="44.9692121" lon="5.4050858">
<ele>850.35</ele>
<time>2019-07-25T09:45:45Z</time>
</trkpt>
<trkpt lat="44.9692261" lon="5.4050260">
<ele>850.27</ele>
<time>2019-07-25T09:45:46Z</time>
</trkpt>
<trkpt lat="44.9692341" lon="5.4049874">
<ele>850.19</ele>
<time>2019-07-25T09:45:47Z</time>
</trkpt>
<trkpt lat="44.9692434" lon="5.4049444">
<ele>850.12</ele>
<time>2019-07-25T09:45:48Z</time>
</trkpt>
<trkpt lat="44.9692592" lon="5.4048993">
<ele>850.03</ele>
<time>2019-07-25T09:45:49Z</time>
</trkpt>
<trkpt lat="44.9692704" lon="5.4048611">
<ele>849.95</ele>
<time>2019-07-25T09:45:50Z</time>
</trkpt>
<trkpt lat="44.9692818" lon="5.4048214">
<ele>849.86</ele>
<time>2019-07-25T09:45:51Z</time>
</trkpt>
<trkpt lat="44.9692889" lon="5.4047641">
<ele>848.93</ele>
<time>2019-07-25T09:45:52Z</time>
</trkpt>
<trkpt lat="44.9693018" lon="5.4047012">
<ele>848.85</ele>
<time>2019-07-25T09:45:53Z</time>
</trkpt>
<trkpt lat="44.9693190" lon="5.4046424">
<ele>848.77</ele>
<time>2019-07-25T09:45:54Z</time>
</trkpt>
<trkpt lat="44.9693323" lon="5.4045915">
<ele>848.69</ele>
<time>2019-07-25T09:45:55Z</time>
</trkpt>
<trkpt lat="44.9693461" lon="5.4045378">
<ele>848.61</ele>
<time>2019-07-25T09:45:56Z</time>
</trkpt>
<trkpt lat="44.9693596" lon="5.4044850">
<ele>848.52</ele>
<time>2019-07-25T09:45:57Z</time>
</trkpt>
<trkpt lat="44.9693794" lon="5.4044418">
<ele>848.44</ele>
<time>2019-07-25T09:45:58Z</time>
</trkpt>
<trkpt lat="44.9694079" lon="5.4044097">
<ele>848.35</ele>
<time>2019-07-25T09:45:59Z</time>
</trkpt>
<trkpt lat="44.9694402" lon="5.4043879">
<ele>847.44</ele>
<time>2019-07-25T09:46:00Z</time>
</trkpt>
<trkpt lat="44.9694789" lon="5.4043641">
<ele>846.69</ele>
<time>2019-07-25T09:46:01Z</time>
</trkpt>
<trkpt lat="44.9695156" lon="5.4043437">
<ele>846.62</ele>
<time>2019-07-25T09:46:02Z</time>
</trkpt>
<trkpt lat="44.9695510" lon="5.4043236">
<ele>846.55</ele>
<time>2019-07-25T09:46:03Z</time>
</trkpt>
<trkpt lat="44.9695844" lon="5.4043067">
<ele>846.48</ele>
<time>2019-07-25T09:46:04Z</time>
</trkpt>
<trkpt lat="44.9696211" lon="5.4042873">
<ele>845.73</ele>
<time>2019-07-25T09:46:05Z</time>
</trkpt>
<trkpt lat="44.9696597" lon="5.4042661">
<ele>845.09</ele>
<time>2019-07-25T09:46:06Z</time>
</trkpt>
<trkpt lat="44.9696971" lon="5.4042388">
<ele>845.03</ele>
<time>2019-07-25T09:46:07Z</time>
</trkpt>
<trkpt lat="44.9697285" lon="5.4042184">
<ele>844.97</ele>
<time>2019-07-25T09:46:08Z</time>
</trkpt>
<trkpt lat="44.9697590" lon="5.4042040">
<ele>844.90</ele>
<time>2019-07-25T09:46:09Z</time>
</trkpt>
<trkpt lat="44.9697870" lon="5.4041868">
<ele>844.83</ele>
<time>2019-07-25T09:46:10Z</time>
</trkpt>
<trkpt lat="44.9698087" lon="5.4041701">
<ele>844.76</ele>
<time>2019-07-25T09:46:11Z</time>
</trkpt>
<trkpt lat="44.9698243" lon="5.4041560">
<ele>844.69</ele>
<time>2019-07-25T09:46:12Z</time>
</trkpt>
<trkpt lat="44.9698425" lon="5.4041412">
<ele>844.63</ele>
<time>2019-07-25T09:46:13Z</time>
</trkpt>
<trkpt lat="44.9698636" lon="5.4041233">
<ele>844.55</ele>
<time>2019-07-25T09:46:14Z</time>
</trkpt>
<trkpt lat="44.9698868" lon="5.4041038">
<ele>844.48</ele>
<time>2019-07-25T09:46:15Z</time>
</trkpt>
<trkpt lat="44.9699073" lon="5.4040865">
<ele>844.41</ele>
<time>2019-07-25T09:46:16Z</time>
</trkpt>
<trkpt lat="44.9699273" lon="5.4040748">
<ele>844.34</ele>
<time>2019-07-25T09:46:17Z</time>
</trkpt>
<trkpt lat="44.9699501" lon="5.4040640">
<ele>844.26</ele>
<time>2019-07-25T09:46:18Z</time>
</trkpt>
<trkpt lat="44.9699729" lon="5.4040456">
<ele>844.18</ele>
<time>2019-07-25T09:46:19Z</time>
</trkpt>
<trkpt lat="44.9699888" lon="5.4040271">
<ele>844.11</ele>
<time>2019-07-25T09:46:20Z</time>
</trkpt>
<trkpt lat="44.9700079" lon="5.4040080">
<ele>844.03</ele>
<time>2019-07-25T09:46:21Z</time>
</trkpt>
<trkpt lat="44.9700274" lon="5.4039999">
<ele>843.95</ele>
<time>2019-07-25T09:46:22Z</time>
</trkpt>
<trkpt lat="44.9700391" lon="5.4039885">
<ele>843.88</ele>
<time>2019-07-25T09:46:23Z</time>
</trkpt>
<trkpt lat="44.9700510" lon="5.4039663">
<ele>843.81</ele>
<time>2019-07-25T09:46:24Z</time>
</trkpt>
<trkpt lat="44.9700633" lon="5.4039438">
<ele>843.73</ele>
<time>2019-07-25T09:46:25Z</time>
</trkpt>
<trkpt lat="44.9700753" lon="5.4039216">
<ele>843.66</ele>
<time>2019-07-25T09:46:26Z</time>
</trkpt>
<trkpt lat="44.9700881" lon="5.4039061">
<ele>843.58</ele>
<time>2019-07-25T09:46:27Z</time>
</trkpt>
<trkpt lat="44.9701009" lon="5.4038838">
<ele>843.51</ele>
<time>2019-07-25T09:46:28Z</time>
</trkpt>
<trkpt lat="44.9701146" lon="5.4038573">
<ele>843.44</ele>
<time>2019-07-25T09:46:29Z</time>
</trkpt>
<trkpt lat="44.9701247" lon="5.4038221">
<ele>843.36</ele>
<time>2019-07-25T09:46:30Z</time>
</trkpt>
<trkpt lat="44.9701268" lon="5.4037817">
<ele>843.29</ele>
<time>2019-07-25T09:46:31Z</time>
</trkpt>
<trkpt lat="44.9701359" lon="5.4037378">
<ele>843.22</ele>
<time>2019-07-25T09:46:32Z</time>
</trkpt>
<trkpt lat="44.9701502" lon="5.4036883">
<ele>843.15</ele>
<time>2019-07-25T09:46:33Z</time>
</trkpt>
<trkpt lat="44.9701649" lon="5.4036391">
<ele>843.08</ele>
<time>2019-07-25T09:46:34Z</time>
</trkpt>
<trkpt lat="44.9701776" lon="5.4035931">
<ele>843.01</ele>
<time>2019-07-25T09:46:35Z</time>
</trkpt>
<trkpt lat="44.9701907" lon="5.4035479">
<ele>842.93</ele>
<time>2019-07-25T09:46:36Z</time>
</trkpt>
<trkpt lat="44.9702029" lon="5.4035036">
<ele>842.86</ele>
<time>2019-07-25T09:46:37Z</time>
</trkpt>
<trkpt lat="44.9702170" lon="5.4034545">
<ele>842.07</ele>
<time>2019-07-25T09:46:38Z</time>
</trkpt>
<trkpt lat="44.9702329" lon="5.4033976">
<ele>841.43</ele>
<time>2019-07-25T09:46:39Z</time>
</trkpt>
<trkpt lat="44.9702491" lon="5.4033381">
<ele>840.92</ele>
<time>2019-07-25T09:46:40Z</time>
</trkpt>
<trkpt lat="44.9702626" lon="5.4032836">
<ele>840.53</ele>
<time>2019-07-25T09:46:41Z</time>
</trkpt>
<trkpt lat="44.9702713" lon="5.4032322">
<ele>840.49</ele>
<time>2019-07-25T09:46:42Z</time>
</trkpt>
<trkpt lat="44.9702823" lon="5.4031792">
<ele>840.06</ele>
<time>2019-07-25T09:46:43Z</time>
</trkpt>
<trkpt lat="44.9702952" lon="5.4031247">
<ele>839.70</ele>
<time>2019-07-25T09:46:44Z</time>
</trkpt>
<trkpt lat="44.9703094" lon="5.4030680">
<ele>839.38</ele>
<time>2019-07-25T09:46:45Z</time>
</trkpt>
<trkpt lat="44.9703278" lon="5.4030012">
<ele>839.03</ele>
<time>2019-07-25T09:46:46Z</time>
</trkpt>
<trkpt lat="44.9703404" lon="5.4029390">
<ele>838.72</ele>
<time>2019-07-25T09:46:47Z</time>
</trkpt>
<trkpt lat="44.9703478" lon="5.4028802">
<ele>838.39</ele>
<time>2019-07-25T09:46:48Z</time>
</trkpt>
<trkpt lat="44.9703535" lon="5.4028304">
<ele>838.12</ele>
<time>2019-07-25T09:46:49Z</time>
</trkpt>
<trkpt lat="44.9703602" lon="5.4027787">
<ele>838.09</ele>
<time>2019-07-25T09:46:50Z</time>
</trkpt>
<trkpt lat="44.9703656" lon="5.4027334">
<ele>838.06</ele>
<time>2019-07-25T09:46:51Z</time>
</trkpt>
<trkpt lat="44.9703802" lon="5.4026953">
<ele>837.67</ele>
<time>2019-07-25T09:46:52Z</time>
</trkpt>
<trkpt lat="44.9703968" lon="5.4026496">
<ele>837.31</ele>
<time>2019-07-25T09:46:53Z</time>
</trkpt>
<trkpt lat="44.9704075" lon="5.4025945">
<ele>837.28</ele>
<time>2019-07-25T09:46:54Z</time>
</trkpt>
<trkpt lat="44.9704219" lon="5.4025391">
<ele>837.23</ele>
<time>2019-07-25T09:46:55Z</time>
</trkpt>
<trkpt lat="44.9704402" lon="5.4024960">
<ele>837.18</ele>
<time>2019-07-25T09:46:56Z</time>
</trkpt>
<trkpt lat="44.9704574" lon="5.4024498">
<ele>836.67</ele>
<time>2019-07-25T09:46:57Z</time>
</trkpt>
<trkpt lat="44.9704736" lon="5.4023951">
<ele>836.30</ele>
<time>2019-07-25T09:46:58Z</time>
</trkpt>
<trkpt lat="44.9704910" lon="5.4023440">
<ele>836.27</ele>
<time>2019-07-25T09:46:59Z</time>
</trkpt>
<trkpt lat="44.9705103" lon="5.4023033">
<ele>836.24</ele>
<time>2019-07-25T09:47:00Z</time>
</trkpt>
<trkpt lat="44.9705284" lon="5.4022579">
<ele>835.92</ele>
<time>2019-07-25T09:47:01Z</time>
</trkpt>
<trkpt lat="44.9705463" lon="5.4022055">
<ele>835.68</ele>
<time>2019-07-25T09:47:02Z</time>
</trkpt>
<trkpt lat="44.9705618" lon="5.4021564">
<ele>835.66</ele>
<time>2019-07-25T09:47:03Z</time>
</trkpt>
<trkpt lat="44.9705801" lon="5.4021066">
<ele>835.63</ele>
<time>2019-07-25T09:47:04Z</time>
</trkpt>
<trkpt lat="44.9705943" lon="5.4020590">
<ele>835.61</ele>
<time>2019-07-25T09:47:05Z</time>
</trkpt>
<trkpt lat="44.9706086" lon="5.4020123">
<ele>835.59</ele>
<time>2019-07-25T09:47:06Z</time>
</trkpt>
<trkpt lat="44.9706227" lon="5.4019681">
<ele>835.57</ele>
<time>2019-07-25T09:47:07Z</time>
</trkpt>
<trkpt lat="44.9706308" lon="5.4019321">
<ele>835.55</ele>
<time>2019-07-25T09:47:08Z</time>
</trkpt>
<trkpt lat="44.9706374" lon="5.4018896">
<ele>835.52</ele>
<time>2019-07-25T09:47:09Z</time>
</trkpt>
<trkpt lat="44.9706426" lon="5.4018505">
<ele>835.48</ele>
<time>2019-07-25T09:47:10Z</time>
</trkpt>
<trkpt lat="44.9706517" lon="5.4018079">
<ele>835.45</ele>
<time>2019-07-25T09:47:11Z</time>
</trkpt>
<trkpt lat="44.9706604" lon="5.4017690">
<ele>835.43</ele>
<time>2019-07-25T09:47:12Z</time>
</trkpt>
<trkpt lat="44.9706679" lon="5.4017301">
<ele>835.40</ele>
<time>2019-07-25T09:47:13Z</time>
</trkpt>
<trkpt lat="44.9706764" lon="5.4016858">
<ele>835.38</ele>
<time>2019-07-25T09:47:14Z</time>
</trkpt>
<trkpt lat="44.9706881" lon="5.4016516">
<ele>835.35</ele>
<time>2019-07-25T09:47:15Z</time>
</trkpt>
<trkpt lat="44.9706995" lon="5.4016176">
<ele>835.32</ele>
<time>2019-07-25T09:47:16Z</time>
</trkpt>
<trkpt lat="44.9707113" lon="5.4015836">
<ele>835.29</ele>
<time>2019-07-25T09:47:17Z</time>
</trkpt>
<trkpt lat="44.9707233" lon="5.4015496">
<ele>835.26</ele>
<time>2019-07-25T09:47:18Z</time>
</trkpt>
<trkpt lat="44.9707345" lon="5.4015233">
<ele>835.24</ele>
<time>2019-07-25T09:47:19Z</time>
</trkpt>
<trkpt lat="44.9707462" lon="5.4014979">
<ele>835.22</ele>
<time>2019-07-25T09:47:20Z</time>
</trkpt>
<trkpt lat="44.9707608" lon="5.4014647">
<ele>835.20</ele>
<time>2019-07-25T09:47:21Z</time>
</trkpt>
<trkpt lat="44.9707770" lon="5.4014331">
<ele>835.19</ele>
<time>2019-07-25T09:47:22Z</time>
</trkpt>
<trkpt lat="44.9707933" lon="5.4013998">
<ele>835.17</ele>
<time>2019-07-25T09:47:23Z</time>
</trkpt>
<trkpt lat="44.9708091" lon="5.4013696">
<ele>835.16</ele>
<time>2019-07-25T09:47:24Z</time>
</trkpt>
<trkpt lat="44.9708226" lon="5.4013468">
<ele>835.15</ele>
<time>2019-07-25T09:47:25Z</time>
</trkpt>
<trkpt lat="44.9708327" lon="5.4013305">
<ele>835.14</ele>
<time>2019-07-25T09:47:26Z</time>
</trkpt>
<trkpt lat="44.9708395" lon="5.4013196">
<ele>835.13</ele>
<time>2019-07-25T09:47:27Z</time>
</trkpt>
<trkpt lat="44.9708417" lon="5.4013147">
<ele>835.13</ele>
<time>2019-07-25T09:47:28Z</time>
</trkpt>
<trkpt lat="44.9708386" lon="5.4013197">
<ele>835.12</ele>
<time>2019-07-25T09:47:29Z</time>
</trkpt>
<trkpt lat="44.9708293" lon="5.4013230">
<ele>835.11</ele>
<time>2019-07-25T09:47:30Z</time>
</trkpt>
<trkpt lat="44.9708108" lon="5.4013212">
<ele>835.09</ele>
<time>2019-07-25T09:47:31Z</time>
</trkpt>
<trkpt lat="44.9707848" lon="5.4013060">
<ele>835.06</ele>
<time>2019-07-25T09:47:32Z</time>
</trkpt>
<trkpt lat="44.9707558" lon="5.4012865">
<ele>835.04</ele>
<time>2019-07-25T09:47:33Z</time>
</trkpt>
<trkpt lat="44.9707270" lon="5.4012664">
<ele>835.01</ele>
<time>2019-07-25T09:47:34Z</time>
</trkpt>
<trkpt lat="44.9707008" lon="5.4012490">
<ele>834.98</ele>
<time>2019-07-25T09:47:35Z</time>
</trkpt>
<trkpt lat="44.9706758" lon="5.4012317">
<ele>834.95</ele>
<time>2019-07-25T09:47:36Z</time>
</trkpt>
<trkpt lat="44.9706543" lon="5.4012194">
<ele>834.92</ele>
<time>2019-07-25T09:47:37Z</time>
</trkpt>
<trkpt lat="44.9706392" lon="5.4012091">
<ele>834.89</ele>
<time>2019-07-25T09:47:38Z</time>
</trkpt>
<trkpt lat="44.9706342" lon="5.4012038">
<ele>834.87</ele>
<time>2019-07-25T09:47:39Z</time>
</trkpt>
<trkpt lat="44.9706294" lon="5.4012068">
<ele>834.85</ele>
<time>2019-07-25T09:47:40Z</time>
</trkpt>
<trkpt lat="44.9706287" lon="5.4012057">
<ele>834.85</ele>
<time>2019-07-25T09:47:41Z</time>
</trkpt>
<trkpt lat="44.9706188" lon="5.4012010">
<ele>834.84</ele>
<time>2019-07-25T09:47:42Z</time>
</trkpt>
<trkpt lat="44.9706206" lon="5.4011978">
<ele>834.84</ele>
<time>2019-07-25T09:47:43Z</time>
</trkpt>
<trkpt lat="44.9706209" lon="5.4011972">
<ele>834.84</ele>
<time>2019-07-25T09:47:44Z</time>
</trkpt>
<trkpt lat="44.9706221" lon="5.4011975">
<ele>834.83</ele>
<time>2019-07-25T09:47:45Z</time>
</trkpt>
<trkpt lat="44.9706242" lon="5.4011956">
<ele>834.83</ele>
<time>2019-07-25T09:47:46Z</time>
</trkpt>
<trkpt lat="44.9706264" lon="5.4011921">
<ele>834.79</ele>
<time>2019-07-25T09:47:47Z</time>
</trkpt>
<trkpt lat="44.9706268" lon="5.4011906">
<ele>834.79</ele>
<time>2019-07-25T09:47:48Z</time>
</trkpt>
<trkpt lat="44.9706302" lon="5.4011875">
<ele>834.78</ele>
<time>2019-07-25T09:47:49Z</time>
</trkpt>
<trkpt lat="44.9706345" lon="5.4011821">
<ele>834.75</ele>
<time>2019-07-25T09:47:50Z</time>
</trkpt>
<trkpt lat="44.9706357" lon="5.4011827">
<ele>834.74</ele>
<time>2019-07-25T09:47:51Z</time>
</trkpt>
<trkpt lat="44.9706363" lon="5.4011807">
<ele>834.71</ele>
<time>2019-07-25T09:47:52Z</time>
</trkpt>
<trkpt lat="44.9706350" lon="5.4011670">
<ele>834.68</ele>
<time>2019-07-25T09:47:53Z</time>
</trkpt>
<trkpt lat="44.9706364" lon="5.4011679">
<ele>834.66</ele>
<time>2019-07-25T09:47:54Z</time>
</trkpt>
<trkpt lat="44.9706384" lon="5.4011732">
<ele>834.64</ele>
<time>2019-07-25T09:47:55Z</time>
</trkpt>
<trkpt lat="44.9706397" lon="5.4011732">
<ele>834.61</ele>
<time>2019-07-25T09:47:56Z</time>
</trkpt>
<trkpt lat="44.9706375" lon="5.4011683">
<ele>834.61</ele>
<time>2019-07-25T09:47:57Z</time>
</trkpt>
<trkpt lat="44.9706340" lon="5.4011616">
<ele>834.58</ele>
<time>2019-07-25T09:47:58Z</time>
</trkpt>
<trkpt lat="44.9706333" lon="5.4011607">
<ele>834.58</ele>
<time>2019-07-25T09:47:59Z</time>
</trkpt>
<trkpt lat="44.9706332" lon="5.4011607">
<ele>834.58</ele>
<time>2019-07-25T09:48:00Z</time>
</trkpt>
<trkpt lat="44.9706333" lon="5.4011610">
<ele>834.57</ele>
<time>2019-07-25T09:48:01Z</time>
</trkpt>
<trkpt lat="44.9706333" lon="5.4011615">
<ele>834.57</ele>
<time>2019-07-25T09:48:02Z</time>
</trkpt>
<trkpt lat="44.9706328" lon="5.4011611">
<ele>834.56</ele>
<time>2019-07-25T09:48:03Z</time>
</trkpt>
<trkpt lat="44.9706325" lon="5.4011609">
<ele>834.56</ele>
<time>2019-07-25T09:48:04Z</time>
</trkpt>
<trkpt lat="44.9706322" lon="5.4011607">
<ele>834.56</ele>
<time>2019-07-25T09:48:05Z</time>
</trkpt>
<trkpt lat="44.9706317" lon="5.4011604">
<ele>834.55</ele>
<time>2019-07-25T09:48:06Z</time>
</trkpt>
<trkpt lat="44.9706312" lon="5.4011617">
<ele>834.55</ele>
<time>2019-07-25T09:48:07Z</time>
</trkpt>
<trkpt lat="44.9706291" lon="5.4011664">
<ele>834.51</ele>
<time>2019-07-25T09:48:08Z</time>
</trkpt>
<trkpt lat="44.9706288" lon="5.4011714">
<ele>834.46</ele>
<time>2019-07-25T09:48:09Z</time>
</trkpt>
<trkpt lat="44.9706287" lon="5.4011743">
<ele>834.41</ele>
<time>2019-07-25T09:48:10Z</time>
</trkpt>
<trkpt lat="44.9706297" lon="5.4011751">
<ele>834.41</ele>
<time>2019-07-25T09:48:11Z</time>
</trkpt>
<trkpt lat="44.9706301" lon="5.4011744">
<ele>834.35</ele>
<time>2019-07-25T09:48:12Z</time>
</trkpt>
<trkpt lat="44.9706275" lon="5.4011726">
<ele>834.35</ele>
<time>2019-07-25T09:48:13Z</time>
</trkpt>
<trkpt lat="44.9706276" lon="5.4011727">
<ele>834.29</ele>
<time>2019-07-25T09:48:14Z</time>
</trkpt>
<trkpt lat="44.9706285" lon="5.4011731">
<ele>834.23</ele>
<time>2019-07-25T09:48:15Z</time>
</trkpt>
<trkpt lat="44.9706376" lon="5.4011842">
<ele>834.18</ele>
<time>2019-07-25T09:48:16Z</time>
</trkpt>
<trkpt lat="44.9706468" lon="5.4012037">
<ele>834.17</ele>
<time>2019-07-25T09:48:17Z</time>
</trkpt>
<trkpt lat="44.9706484" lon="5.4012103">
<ele>834.12</ele>
<time>2019-07-25T09:48:18Z</time>
</trkpt>
<trkpt lat="44.9706477" lon="5.4012165">
<ele>834.07</ele>
<time>2019-07-25T09:48:19Z</time>
</trkpt>
<trkpt lat="44.9706515" lon="5.4012104">
<ele>834.02</ele>
<time>2019-07-25T09:48:20Z</time>
</trkpt>
<trkpt lat="44.9706555" lon="5.4011983">
<ele>833.97</ele>
<time>2019-07-25T09:48:21Z</time>
</trkpt>
<trkpt lat="44.9706582" lon="5.4011879">
<ele>833.93</ele>
<time>2019-07-25T09:48:22Z</time>
</trkpt>
<trkpt lat="44.9706590" lon="5.4011852">
<ele>833.92</ele>
<time>2019-07-25T09:48:23Z</time>
</trkpt>
<trkpt lat="44.9706580" lon="5.4011852">
<ele>833.88</ele>
<time>2019-07-25T09:48:24Z</time>
</trkpt>
<trkpt lat="44.9706555" lon="5.4011842">
<ele>833.82</ele>
<time>2019-07-25T09:48:25Z</time>
</trkpt>
<trkpt lat="44.9706476" lon="5.4011808">
<ele>833.77</ele>
<time>2019-07-25T09:48:26Z</time>
</trkpt>
<trkpt lat="44.9706371" lon="5.4011782">
<ele>833.77</ele>
<time>2019-07-25T09:48:27Z</time>
</trkpt>
<trkpt lat="44.9706336" lon="5.4011779">
<ele>833.72</ele>
<time>2019-07-25T09:48:28Z</time>
</trkpt>
<trkpt lat="44.9706362" lon="5.4011776">
<ele>833.66</ele>
<time>2019-07-25T09:48:29Z</time>
</trkpt>
<trkpt lat="44.9706328" lon="5.4011794">
<ele>833.61</ele>
<time>2019-07-25T09:48:30Z</time>
</trkpt>
<trkpt lat="44.9706344" lon="5.4011789">
<ele>833.60</ele>
<time>2019-07-25T09:48:31Z</time>
</trkpt>
<trkpt lat="44.9706349" lon="5.4011787">
<ele>833.60</ele>
<time>2019-07-25T09:48:32Z</time>
</trkpt>
<trkpt lat="44.9706352" lon="5.4011787">
<ele>833.59</ele>
<time>2019-07-25T09:48:33Z</time>
</trkpt>
<trkpt lat="44.9706353" lon="5.4011789">
<ele>833.59</ele>
<time>2019-07-25T09:48:34Z</time>
</trkpt>
<trkpt lat="44.9706357" lon="5.4011787">
<ele>833.59</ele>
<time>2019-07-25T09:48:35Z</time>
</trkpt>
<trkpt lat="44.9706340" lon="5.4011795">
<ele>833.56</ele>
<time>2019-07-25T09:48:36Z</time>
</trkpt>
<trkpt lat="44.9706236" lon="5.4011795">
<ele>833.53</ele>
<time>2019-07-25T09:48:37Z</time>
</trkpt>
<trkpt lat="44.9706129" lon="5.4011736">
<ele>833.49</ele>
<time>2019-07-25T09:48:38Z</time>
</trkpt>
<trkpt lat="44.9706051" lon="5.4011619">
<ele>833.46</ele>
<time>2019-07-25T09:48:39Z</time>
</trkpt>
<trkpt lat="44.9706031" lon="5.4011550">
<ele>833.43</ele>
<time>2019-07-25T09:48:40Z</time>
</trkpt>
<trkpt lat="44.9706004" lon="5.4011553">
<ele>833.42</ele>
<time>2019-07-25T09:48:41Z</time>
</trkpt>
<trkpt lat="44.9705979" lon="5.4011535">
<ele>833.39</ele>
<time>2019-07-25T09:48:42Z</time>
</trkpt>
<trkpt lat="44.9706008" lon="5.4011555">
<ele>833.39</ele>
<time>2019-07-25T09:48:43Z</time>
</trkpt>
<trkpt lat="44.9706031" lon="5.4011574">
<ele>833.38</ele>
<time>2019-07-25T09:48:44Z</time>
</trkpt>
<trkpt lat="44.9706033" lon="5.4011577">
<ele>833.38</ele>
<time>2019-07-25T09:48:45Z</time>
</trkpt>
<trkpt lat="44.9706033" lon="5.4011576">
<ele>833.38</ele>
<time>2019-07-25T09:48:46Z</time>
</trkpt>
<trkpt lat="44.9706024" lon="5.4011583">
<ele>833.37</ele>
<time>2019-07-25T09:48:47Z</time>
</trkpt>
<trkpt lat="44.9706023" lon="5.4011601">
<ele>833.37</ele>
<time>2019-07-25T09:48:48Z</time>
</trkpt>
<trkpt lat="44.9706013" lon="5.4011619">
<ele>833.34</ele>
<time>2019-07-25T09:48:49Z</time>
</trkpt>
<trkpt lat="44.9705996" lon="5.4011606">
<ele>833.31</ele>
<time>2019-07-25T09:48:50Z</time>
</trkpt>
<trkpt lat="44.9705978" lon="5.4011599">
<ele>833.31</ele>
<time>2019-07-25T09:48:51Z</time>
</trkpt>
<trkpt lat="44.9705969" lon="5.4011596">
<ele>833.31</ele>
<time>2019-07-25T09:48:52Z</time>
</trkpt>
<trkpt lat="44.9705967" lon="5.4011601">
<ele>833.31</ele>
<time>2019-07-25T09:48:53Z</time>
</trkpt>
<trkpt lat="44.9705963" lon="5.4011603">
<ele>833.30</ele>
<time>2019-07-25T09:48:54Z</time>
</trkpt>
<trkpt lat="44.9705958" lon="5.4011604">
<ele>833.30</ele>
<time>2019-07-25T09:48:55Z</time>
</trkpt>
<trkpt lat="44.9705954" lon="5.4011606">
<ele>833.30</ele>
<time>2019-07-25T09:48:56Z</time>
</trkpt>
<trkpt lat="44.9705951" lon="5.4011607">
<ele>833.30</ele>
<time>2019-07-25T09:48:57Z</time>
</trkpt>
<trkpt lat="44.9705948" lon="5.4011609">
<ele>833.30</ele>
<time>2019-07-25T09:48:58Z</time>
</trkpt>
<trkpt lat="44.9705945" lon="5.4011612">
<ele>833.30</ele>
<time>2019-07-25T09:48:59Z</time>
</trkpt>
<trkpt lat="44.9705944" lon="5.4011617">
<ele>833.29</ele>
<time>2019-07-25T09:49:00Z</time>
</trkpt>
<trkpt lat="44.9705939" lon="5.4011620">
<ele>833.29</ele>
<time>2019-07-25T09:49:01Z</time>
</trkpt>
<trkpt lat="44.9705937" lon="5.4011621">
<ele>833.29</ele>
<time>2019-07-25T09:49:02Z</time>
</trkpt>
<trkpt lat="44.9705936" lon="5.4011623">
<ele>833.29</ele>
<time>2019-07-25T09:49:03Z</time>
</trkpt>
<trkpt lat="44.9705936" lon="5.4011624">
<ele>833.29</ele>
<time>2019-07-25T09:49:04Z</time>
</trkpt>
<trkpt lat="44.9705934" lon="5.4011626">
<ele>833.29</ele>
<time>2019-07-25T09:49:05Z</time>
</trkpt>
<trkpt lat="44.9705920" lon="5.4011654">
<ele>833.29</ele>
<time>2019-07-25T09:49:06Z</time>
</trkpt>
<trkpt lat="44.9705910" lon="5.4011691">
<ele>833.27</ele>
<time>2019-07-25T09:49:07Z</time>
</trkpt>
<trkpt lat="44.9705908" lon="5.4011675">
<ele>833.26</ele>
<time>2019-07-25T09:49:08Z</time>
</trkpt>
<trkpt lat="44.9705903" lon="5.4011647">
<ele>833.25</ele>
<time>2019-07-25T09:49:09Z</time>
</trkpt>
<trkpt lat="44.9705908" lon="5.4011639">
<ele>833.24</ele>
<time>2019-07-25T09:49:10Z</time>
</trkpt>
<trkpt lat="44.9705931" lon="5.4011612">
<ele>833.22</ele>
<time>2019-07-25T09:49:11Z</time>
</trkpt>
<trkpt lat="44.9705955" lon="5.4011574">
<ele>833.21</ele>
<time>2019-07-25T09:49:12Z</time>
</trkpt>
<trkpt lat="44.9705917" lon="5.4011422">
<ele>833.19</ele>
<time>2019-07-25T09:49:13Z</time>
</trkpt>
<trkpt lat="44.9705933" lon="5.4011403">
<ele>833.17</ele>
<time>2019-07-25T09:49:14Z</time>
</trkpt>
<trkpt lat="44.9705918" lon="5.4011230">
<ele>833.15</ele>
<time>2019-07-25T09:49:15Z</time>
</trkpt>
<trkpt lat="44.9705820" lon="5.4011130">
<ele>833.13</ele>
<time>2019-07-25T09:49:16Z</time>
</trkpt>
<trkpt lat="44.9705811" lon="5.4011129">
<ele>833.11</ele>
<time>2019-07-25T09:49:17Z</time>
</trkpt>
<trkpt lat="44.9705764" lon="5.4011139">
<ele>833.11</ele>
<time>2019-07-25T09:49:18Z</time>
</trkpt>
<trkpt lat="44.9705731" lon="5.4011137">
<ele>833.10</ele>
<time>2019-07-25T09:49:19Z</time>
</trkpt>
<trkpt lat="44.9705739" lon="5.4011143">
<ele>833.10</ele>
<time>2019-07-25T09:49:20Z</time>
</trkpt>
<trkpt lat="44.9705745" lon="5.4011142">
<ele>833.10</ele>
<time>2019-07-25T09:49:21Z</time>
</trkpt>
<trkpt lat="44.9705748" lon="5.4011143">
<ele>833.09</ele>
<time>2019-07-25T09:49:22Z</time>
</trkpt>
<trkpt lat="44.9705749" lon="5.4011143">
<ele>833.09</ele>
<time>2019-07-25T09:49:23Z</time>
</trkpt>
<trkpt lat="44.9705752" lon="5.4011144">
<ele>833.09</ele>
<time>2019-07-25T09:49:24Z</time>
</trkpt>
<trkpt lat="44.9705750" lon="5.4011141">
<ele>833.09</ele>
<time>2019-07-25T09:49:25Z</time>
</trkpt>
<trkpt lat="44.9705756" lon="5.4011169">
<ele>833.09</ele>
<time>2019-07-25T09:49:26Z</time>
</trkpt>
<trkpt lat="44.9705749" lon="5.4011165">
<ele>833.09</ele>
<time>2019-07-25T09:49:27Z</time>
</trkpt>
<trkpt lat="44.9705758" lon="5.4011172">
<ele>833.09</ele>
<time>2019-07-25T09:49:28Z</time>
</trkpt>
<trkpt lat="44.9705755" lon="5.4011170">
<ele>833.09</ele>
<time>2019-07-25T09:49:29Z</time>
</trkpt>
<trkpt lat="44.9705739" lon="5.4011135">
<ele>833.08</ele>
<time>2019-07-25T09:49:30Z</time>
</trkpt>
<trkpt lat="44.9705720" lon="5.4011159">
<ele>833.08</ele>
<time>2019-07-25T09:49:31Z</time>
</trkpt>
<trkpt lat="44.9705701" lon="5.4011164">
<ele>833.08</ele>
<time>2019-07-25T09:49:32Z</time>
</trkpt>
<trkpt lat="44.9705705" lon="5.4011135">
<ele>833.08</ele>
<time>2019-07-25T09:49:33Z</time>
</trkpt>
<trkpt lat="44.9705721" lon="5.4011177">
<ele>833.08</ele>
<time>2019-07-25T09:49:34Z</time>
</trkpt>
<trkpt lat="44.9705722" lon="5.4011175">
<ele>833.08</ele>
<time>2019-07-25T09:49:35Z</time>
</trkpt>
<trkpt lat="44.9705724" lon="5.4011172">
<ele>833.08</ele>
<time>2019-07-25T09:49:36Z</time>
</trkpt>
<trkpt lat="44.9705728" lon="5.4011171">
<ele>833.08</ele>
<time>2019-07-25T09:49:37Z</time>
</trkpt>
<trkpt lat="44.9705728" lon="5.4011167">
<ele>833.09</ele>
<time>2019-07-25T09:49:38Z</time>
</trkpt>
<trkpt lat="44.9705729" lon="5.4011166">
<ele>833.09</ele>
<time>2019-07-25T09:49:39Z</time>
</trkpt>
<trkpt lat="44.9705729" lon="5.4011164">
<ele>833.09</ele>
<time>2019-07-25T09:49:40Z</time>
</trkpt>
<trkpt lat="44.9705730" lon="5.4011158">
<ele>833.09</ele>
<time>2019-07-25T09:49:41Z</time>
</trkpt>
<trkpt lat="44.9705737" lon="5.4011163">
<ele>833.12</ele>
<time>2019-07-25T09:49:42Z</time>
</trkpt>
<trkpt lat="44.9705744" lon="5.4011178">
<ele>833.15</ele>
<time>2019-07-25T09:49:43Z</time>
</trkpt>
<trkpt lat="44.9705785" lon="5.4011188">
<ele>833.18</ele>
<time>2019-07-25T09:49:44Z</time>
</trkpt>
<trkpt lat="44.9705812" lon="5.4011284">
<ele>833.20</ele>
<time>2019-07-25T09:49:45Z</time>
</trkpt>
<trkpt lat="44.9705806" lon="5.4011278">
<ele>833.22</ele>
<time>2019-07-25T09:49:46Z</time>
</trkpt>
<trkpt lat="44.9705820" lon="5.4011286">
<ele>833.24</ele>
<time>2019-07-25T09:49:47Z</time>
</trkpt>
<trkpt lat="44.9705805" lon="5.4011352">
<ele>833.25</ele>
<time>2019-07-25T09:49:48Z</time>
</trkpt>
<trkpt lat="44.9705802" lon="5.4011479">
<ele>833.26</ele>
<time>2019-07-25T09:49:49Z</time>
</trkpt>
<trkpt lat="44.9705824" lon="5.4011582">
<ele>833.28</ele>
<time>2019-07-25T09:49:50Z</time>
</trkpt>
<trkpt lat="44.9705808" lon="5.4011631">
<ele>833.28</ele>
<time>2019-07-25T09:49:51Z</time>
</trkpt>
<trkpt lat="44.9705810" lon="5.4011642">
<ele>833.28</ele>
<time>2019-07-25T09:49:52Z</time>
</trkpt>
<trkpt lat="44.9705807" lon="5.4011643">
<ele>833.29</ele>
<time>2019-07-25T09:49:53Z</time>
</trkpt>
<trkpt lat="44.9705804" lon="5.4011645">
<ele>833.30</ele>
<time>2019-07-25T09:49:54Z</time>
</trkpt>
<trkpt lat="44.9705800" lon="5.4011651">
<ele>833.32</ele>
<time>2019-07-25T09:49:55Z</time>
</trkpt>
<trkpt lat="44.9705890" lon="5.4011688">
<ele>833.34</ele>
<time>2019-07-25T09:49:56Z</time>
</trkpt>
<trkpt lat="44.9705945" lon="5.4011622">
<ele>833.35</ele>
<time>2019-07-25T09:49:57Z</time>
</trkpt>
<trkpt lat="44.9706008" lon="5.4011710">
<ele>833.36</ele>
<time>2019-07-25T09:49:58Z</time>
</trkpt>
<trkpt lat="44.9705991" lon="5.4011808">
<ele>833.37</ele>
<time>2019-07-25T09:49:59Z</time>
</trkpt>
<trkpt lat="44.9705998" lon="5.4011741">
<ele>833.39</ele>
<time>2019-07-25T09:50:00Z</time>
</trkpt>
<trkpt lat="44.9706002" lon="5.4011731">
<ele>833.40</ele>
<time>2019-07-25T09:50:01Z</time>
</trkpt>
<trkpt lat="44.9706023" lon="5.4011720">
<ele>833.41</ele>
<time>2019-07-25T09:50:02Z</time>
</trkpt>
<trkpt lat="44.9706008" lon="5.4011726">
<ele>833.41</ele>
<time>2019-07-25T09:50:03Z</time>
</trkpt>
<trkpt lat="44.9706004" lon="5.4011733">
<ele>833.41</ele>
<time>2019-07-25T09:50:04Z</time>
</trkpt>
<trkpt lat="44.9705988" lon="5.4011746">
<ele>833.41</ele>
<time>2019-07-25T09:50:05Z</time>
</trkpt>
<trkpt lat="44.9705963" lon="5.4011792">
<ele>833.41</ele>
<time>2019-07-25T09:50:06Z</time>
</trkpt>
<trkpt lat="44.9705949" lon="5.4011785">
<ele>833.40</ele>
<time>2019-07-25T09:50:07Z</time>
</trkpt>
<trkpt lat="44.9705956" lon="5.4011726">
<ele>833.39</ele>
<time>2019-07-25T09:50:08Z</time>
</trkpt>
<trkpt lat="44.9705961" lon="5.4011741">
<ele>833.39</ele>
<time>2019-07-25T09:50:09Z</time>
</trkpt>
<trkpt lat="44.9705963" lon="5.4011745">
<ele>833.39</ele>
<time>2019-07-25T09:50:10Z</time>
</trkpt>
<trkpt lat="44.9705964" lon="5.4011749">
<ele>833.39</ele>
<time>2019-07-25T09:50:11Z</time>
</trkpt>
<trkpt lat="44.9705965" lon="5.4011749">
<ele>833.39</ele>
<time>2019-07-25T09:50:12Z</time>
</trkpt>
<trkpt lat="44.9705966" lon="5.4011744">
<ele>833.39</ele>
<time>2019-07-25T09:50:13Z</time>
</trkpt>
<trkpt lat="44.9705966" lon="5.4011741">
<ele>833.39</ele>
<time>2019-07-25T09:50:14Z</time>
</trkpt>
<trkpt lat="44.9705967" lon="5.4011738">
<ele>833.38</ele>
<time>2019-07-25T09:50:15Z</time>
</trkpt>
<trkpt lat="44.9705967" lon="5.4011735">
<ele>833.38</ele>
<time>2019-07-25T09:50:16Z</time>
</trkpt>
<trkpt lat="44.9705967" lon="5.4011735">
<ele>833.38</ele>
<time>2019-07-25T09:50:17Z</time>
</trkpt>
<trkpt lat="44.9705966" lon="5.4011734">
<ele>833.38</ele>
<time>2019-07-25T09:50:18Z</time>
</trkpt>
<trkpt lat="44.9705962" lon="5.4011732">
<ele>833.38</ele>
<time>2019-07-25T09:50:19Z</time>
</trkpt>
<trkpt lat="44.9705961" lon="5.4011730">
<ele>833.38</ele>
<time>2019-07-25T09:50:20Z</time>
</trkpt>
<trkpt lat="44.9705960" lon="5.4011733">
<ele>833.38</ele>
<time>2019-07-25T09:50:21Z</time>
</trkpt>
<trkpt lat="44.9705960" lon="5.4011731">
<ele>833.38</ele>
<time>2019-07-25T09:50:22Z</time>
</trkpt>
<trkpt lat="44.9705956" lon="5.4011744">
<ele>833.38</ele>
<time>2019-07-25T09:50:23Z</time>
</trkpt>
<trkpt lat="44.9705954" lon="5.4011741">
<ele>833.38</ele>
<time>2019-07-25T09:50:24Z</time>
</trkpt>
<trkpt lat="44.9705953" lon="5.4011739">
<ele>833.37</ele>
<time>2019-07-25T09:50:25Z</time>
</trkpt>
<trkpt lat="44.9705954" lon="5.4011735">
<ele>833.37</ele>
<time>2019-07-25T09:50:26Z</time>
</trkpt>
<trkpt lat="44.9705957" lon="5.4011732">
<ele>833.37</ele>
<time>2019-07-25T09:50:27Z</time>
</trkpt>
<trkpt lat="44.9705958" lon="5.4011738">
<ele>833.37</ele>
<time>2019-07-25T09:50:28Z</time>
</trkpt>
<trkpt lat="44.9705962" lon="5.4011729">
<ele>833.37</ele>
<time>2019-07-25T09:50:29Z</time>
</trkpt>
<trkpt lat="44.9705964" lon="5.4011724">
<ele>833.37</ele>
<time>2019-07-25T09:50:30Z</time>
</trkpt>
<trkpt lat="44.9705968" lon="5.4011717">
<ele>833.37</ele>
<time>2019-07-25T09:50:31Z</time>
</trkpt>
<trkpt lat="44.9705974" lon="5.4011716">
<ele>833.37</ele>
<time>2019-07-25T09:50:32Z</time>
</trkpt>
<trkpt lat="44.9705974" lon="5.4011715">
<ele>833.37</ele>
<time>2019-07-25T09:50:33Z</time>
</trkpt>
<trkpt lat="44.9705973" lon="5.4011716">
<ele>833.37</ele>
<time>2019-07-25T09:50:34Z</time>
</trkpt>
<trkpt lat="44.9705974" lon="5.4011712">
<ele>833.37</ele>
<time>2019-07-25T09:50:35Z</time>
</trkpt>
<trkpt lat="44.9705972" lon="5.4011711">
<ele>833.37</ele>
<time>2019-07-25T09:50:36Z</time>
</trkpt>
<trkpt lat="44.9705972" lon="5.4011707">
<ele>833.37</ele>
<time>2019-07-25T09:50:37Z</time>
</trkpt>
<trkpt lat="44.9705970" lon="5.4011714">
<ele>833.37</ele>
<time>2019-07-25T09:50:38Z</time>
</trkpt>
<trkpt lat="44.9705969" lon="5.4011716">
<ele>833.37</ele>
<time>2019-07-25T09:50:39Z</time>
</trkpt>
<trkpt lat="44.9705969" lon="5.4011718">
<ele>833.36</ele>
<time>2019-07-25T09:50:40Z</time>
</trkpt>
<trkpt lat="44.9705970" lon="5.4011709">
<ele>833.36</ele>
<time>2019-07-25T09:50:41Z</time>
</trkpt>
<trkpt lat="44.9705971" lon="5.4011703">
<ele>833.36</ele>
<time>2019-07-25T09:50:42Z</time>
</trkpt>
<trkpt lat="44.9705969" lon="5.4011697">
<ele>833.36</ele>
<time>2019-07-25T09:50:43Z</time>
</trkpt>
<trkpt lat="44.9705966" lon="5.4011705">
<ele>833.36</ele>
<time>2019-07-25T09:50:44Z</time>
</trkpt>
<trkpt lat="44.9705964" lon="5.4011712">
<ele>833.36</ele>
<time>2019-07-25T09:50:45Z</time>
</trkpt>
<trkpt lat="44.9705966" lon="5.4011725">
<ele>833.36</ele>
<time>2019-07-25T09:50:46Z</time>
</trkpt>
<trkpt lat="44.9705967" lon="5.4011719">
<ele>833.35</ele>
<time>2019-07-25T09:50:47Z</time>
</trkpt>
<trkpt lat="44.9705968" lon="5.4011721">
<ele>833.35</ele>
<time>2019-07-25T09:50:48Z</time>
</trkpt>
<trkpt lat="44.9705969" lon="5.4011726">
<ele>833.35</ele>
<time>2019-07-25T09:50:49Z</time>
</trkpt>
<trkpt lat="44.9705966" lon="5.4011719">
<ele>833.35</ele>
<time>2019-07-25T09:50:50Z</time>
</trkpt>
<trkpt lat="44.9705966" lon="5.4011716">
<ele>833.35</ele>
<time>2019-07-25T09:50:51Z</time>
</trkpt>
<trkpt lat="44.9705966" lon="5.4011720">
<ele>833.35</ele>
<time>2019-07-25T09:50:52Z</time>
</trkpt>
<trkpt lat="44.9705971" lon="5.4011728">
<ele>833.35</ele>
<time>2019-07-25T09:50:53Z</time>
</trkpt>
<trkpt lat="44.9705964" lon="5.4011724">
<ele>833.35</ele>
<time>2019-07-25T09:50:54Z</time>
</trkpt>
<trkpt lat="44.9705964" lon="5.4011728">
<ele>833.35</ele>
<time>2019-07-25T09:50:55Z</time>
</trkpt>
<trkpt lat="44.9705967" lon="5.4011737">
<ele>833.35</ele>
<time>2019-07-25T09:50:56Z</time>
</trkpt>
<trkpt lat="44.9705973" lon="5.4011751">
<ele>833.35</ele>
<time>2019-07-25T09:50:57Z</time>
</trkpt>
<trkpt lat="44.9705976" lon="5.4011763">
<ele>833.35</ele>
<time>2019-07-25T09:50:58Z</time>
</trkpt>
<trkpt lat="44.9705974" lon="5.4011774">
<ele>833.35</ele>
<time>2019-07-25T09:50:59Z</time>
</trkpt>
<trkpt lat="44.9705968" lon="5.4011781">
<ele>833.35</ele>
<time>2019-07-25T09:51:00Z</time>
</trkpt>
<trkpt lat="44.9705970" lon="5.4011769">
<ele>833.35</ele>
<time>2019-07-25T09:51:01Z</time>
</trkpt>
<trkpt lat="44.9705971" lon="5.4011758">
<ele>833.35</ele>
<time>2019-07-25T09:51:02Z</time>
</trkpt>
<trkpt lat="44.9705966" lon="5.4011755">
<ele>833.35</ele>
<time>2019-07-25T09:51:03Z</time>
</trkpt>
<trkpt lat="44.9705955" lon="5.4011772">
<ele>833.36</ele>
<time>2019-07-25T09:51:04Z</time>
</trkpt>
<trkpt lat="44.9705948" lon="5.4011774">
<ele>833.36</ele>
<time>2019-07-25T09:51:05Z</time>
</trkpt>
<trkpt lat="44.9705935" lon="5.4011785">
<ele>833.36</ele>
<time>2019-07-25T09:51:06Z</time>
</trkpt>
<trkpt lat="44.9705929" lon="5.4011792">
<ele>833.36</ele>
<time>2019-07-25T09:51:07Z</time>
</trkpt>
<trkpt lat="44.9705917" lon="5.4011804">
<ele>833.37</ele>
<time>2019-07-25T09:51:08Z</time>
</trkpt>
<trkpt lat="44.9705918" lon="5.4011811">
<ele>833.37</ele>
<time>2019-07-25T09:51:09Z</time>
</trkpt>
<trkpt lat="44.9705916" lon="5.4011817">
<ele>833.37</ele>
<time>2019-07-25T09:51:10Z</time>
</trkpt>
<trkpt lat="44.9705915" lon="5.4011821">
<ele>833.37</ele>
<time>2019-07-25T09:51:11Z</time>
</trkpt>
<trkpt lat="44.9705913" lon="5.4011822">
<ele>833.37</ele>
<time>2019-07-25T09:51:12Z</time>
</trkpt>
<trkpt lat="44.9705912" lon="5.4011825">
<ele>833.37</ele>
<time>2019-07-25T09:51:13Z</time>
</trkpt>
<trkpt lat="44.9705909" lon="5.4011830">
<ele>833.37</ele>
<time>2019-07-25T09:51:14Z</time>
</trkpt>
<trkpt lat="44.9705910" lon="5.4011835">
<ele>833.37</ele>
<time>2019-07-25T09:51:15Z</time>
</trkpt>
<trkpt lat="44.9705909" lon="5.4011835">
<ele>833.37</ele>
<time>2019-07-25T09:51:16Z</time>
</trkpt>
<trkpt lat="44.9705911" lon="5.4011838">
<ele>833.37</ele>
<time>2019-07-25T09:51:17Z</time>
</trkpt>
<trkpt lat="44.9705919" lon="5.4011832">
<ele>833.37</ele>
<time>2019-07-25T09:51:18Z</time>
</trkpt>
<trkpt lat="44.9705922" lon="5.4011830">
<ele>833.37</ele>
<time>2019-07-25T09:51:19Z</time>
</trkpt>
<trkpt lat="44.9705920" lon="5.4011832">
<ele>833.37</ele>
<time>2019-07-25T09:51:20Z</time>
</trkpt>
<trkpt lat="44.9705917" lon="5.4011838">
<ele>833.37</ele>
<time>2019-07-25T09:51:21Z</time>
</trkpt>
<trkpt lat="44.9705915" lon="5.4011842">
<ele>833.37</ele>
<time>2019-07-25T09:51:22Z</time>
</trkpt>
<trkpt lat="44.9705913" lon="5.4011852">
<ele>833.37</ele>
<time>2019-07-25T09:51:23Z</time>
</trkpt>
<trkpt lat="44.9705912" lon="5.4011857">
<ele>833.37</ele>
<time>2019-07-25T09:51:24Z</time>
</trkpt>
<trkpt lat="44.9705915" lon="5.4011864">
<ele>833.37</ele>
<time>2019-07-25T09:51:25Z</time>
</trkpt>
<trkpt lat="44.9705919" lon="5.4011871">
<ele>833.37</ele>
<time>2019-07-25T09:51:26Z</time>
</trkpt>
<trkpt lat="44.9705919" lon="5.4011873">
<ele>833.37</ele>
<time>2019-07-25T09:51:27Z</time>
</trkpt>
<trkpt lat="44.9705921" lon="5.4011883">
<ele>833.37</ele>
<time>2019-07-25T09:51:28Z</time>
</trkpt>
<trkpt lat="44.9705922" lon="5.4011889">
<ele>833.37</ele>
<time>2019-07-25T09:51:29Z</time>
</trkpt>
<trkpt lat="44.9705924" lon="5.4011896">
<ele>833.37</ele>
<time>2019-07-25T09:51:30Z</time>
</trkpt>
<trkpt lat="44.9705926" lon="5.4011899">
<ele>833.37</ele>
<time>2019-07-25T09:51:31Z</time>
</trkpt>
<trkpt lat="44.9705927" lon="5.4011904">
<ele>833.37</ele>
<time>2019-07-25T09:51:32Z</time>
</trkpt>
<trkpt lat="44.9705928" lon="5.4011906">
<ele>833.37</ele>
<time>2019-07-25T09:51:33Z</time>
</trkpt>
<trkpt lat="44.9705929" lon="5.4011913">
<ele>833.37</ele>
<time>2019-07-25T09:51:34Z</time>
</trkpt>
<trkpt lat="44.9705931" lon="5.4011922">
<ele>833.37</ele>
<time>2019-07-25T09:51:35Z</time>
</trkpt>
<trkpt lat="44.9705933" lon="5.4011935">
<ele>833.37</ele>
<time>2019-07-25T09:51:36Z</time>
</trkpt>
<trkpt lat="44.9705934" lon="5.4011943">
<ele>833.37</ele>
<time>2019-07-25T09:51:37Z</time>
</trkpt>
<trkpt lat="44.9705942" lon="5.4011957">
<ele>833.36</ele>
<time>2019-07-25T09:51:38Z</time>
</trkpt>
<trkpt lat="44.9705961" lon="5.4011972">
<ele>833.36</ele>
<time>2019-07-25T09:51:39Z</time>
</trkpt>
<trkpt lat="44.9706027" lon="5.4011986">
<ele>833.35</ele>
<time>2019-07-25T09:51:40Z</time>
</trkpt>
<trkpt lat="44.9706102" lon="5.4011974">
<ele>833.33</ele>
<time>2019-07-25T09:51:41Z</time>
</trkpt>
<trkpt lat="44.9706188" lon="5.4011944">
<ele>833.31</ele>
<time>2019-07-25T09:51:42Z</time>
</trkpt>
<trkpt lat="44.9706278" lon="5.4011958">
<ele>833.30</ele>
<time>2019-07-25T09:51:43Z</time>
</trkpt>
<trkpt lat="44.9706291" lon="5.4011947">
<ele>833.30</ele>
<time>2019-07-25T09:51:44Z</time>
</trkpt>
<trkpt lat="44.9706275" lon="5.4011924">
<ele>833.27</ele>
<time>2019-07-25T09:51:45Z</time>
</trkpt>
<trkpt lat="44.9706149" lon="5.4011879">
<ele>833.23</ele>
<time>2019-07-25T09:51:46Z</time>
</trkpt>
<trkpt lat="44.9705952" lon="5.4011782">
<ele>833.19</ele>
<time>2019-07-25T09:51:47Z</time>
</trkpt>
<trkpt lat="44.9705612" lon="5.4011660">
<ele>833.15</ele>
<time>2019-07-25T09:51:48Z</time>
</trkpt>
<trkpt lat="44.9705222" lon="5.4011570">
<ele>833.11</ele>
<time>2019-07-25T09:51:49Z</time>
</trkpt>
<trkpt lat="44.9704785" lon="5.4011475">
<ele>833.07</ele>
<time>2019-07-25T09:51:50Z</time>
</trkpt>
<trkpt lat="44.9704340" lon="5.4011418">
<ele>833.03</ele>
<time>2019-07-25T09:51:51Z</time>
</trkpt>
<trkpt lat="44.9703904" lon="5.4011389">
<ele>832.99</ele>
<time>2019-07-25T09:51:52Z</time>
</trkpt>
<trkpt lat="44.9703490" lon="5.4011356">
<ele>832.61</ele>
<time>2019-07-25T09:51:53Z</time>
</trkpt>
<trkpt lat="44.9703039" lon="5.4011300">
<ele>832.28</ele>
<time>2019-07-25T09:51:54Z</time>
</trkpt>
<trkpt lat="44.9702549" lon="5.4011247">
<ele>832.01</ele>
<time>2019-07-25T09:51:55Z</time>
</trkpt>
<trkpt lat="44.9702064" lon="5.4011197">
<ele>831.80</ele>
<time>2019-07-25T09:51:56Z</time>
</trkpt>
<trkpt lat="44.9701596" lon="5.4011147">
<ele>831.61</ele>
<time>2019-07-25T09:51:57Z</time>
</trkpt>
<trkpt lat="44.9701136" lon="5.4011076">
<ele>831.44</ele>
<time>2019-07-25T09:51:58Z</time>
</trkpt>
<trkpt lat="44.9700685" lon="5.4010999">
<ele>831.30</ele>
<time>2019-07-25T09:51:59Z</time>
</trkpt>
<trkpt lat="44.9700225" lon="5.4010917">
<ele>831.19</ele>
<time>2019-07-25T09:52:00Z</time>
</trkpt>
<trkpt lat="44.9699762" lon="5.4010826">
<ele>831.09</ele>
<time>2019-07-25T09:52:01Z</time>
</trkpt>
<trkpt lat="44.9699312" lon="5.4010711">
<ele>831.01</ele>
<time>2019-07-25T09:52:02Z</time>
</trkpt>
<trkpt lat="44.9698847" lon="5.4010573">
<ele>830.93</ele>
<time>2019-07-25T09:52:03Z</time>
</trkpt>
<trkpt lat="44.9698355" lon="5.4010431">
<ele>830.86</ele>
<time>2019-07-25T09:52:04Z</time>
</trkpt>
<trkpt lat="44.9697863" lon="5.4010314">
<ele>830.79</ele>
<time>2019-07-25T09:52:05Z</time>
</trkpt>
<trkpt lat="44.9697405" lon="5.4010203">
<ele>830.75</ele>
<time>2019-07-25T09:52:06Z</time>
</trkpt>
<trkpt lat="44.9696908" lon="5.4010112">
<ele>830.68</ele>
<time>2019-07-25T09:52:07Z</time>
</trkpt>
<trkpt lat="44.9696427" lon="5.4010039">
<ele>830.63</ele>
<time>2019-07-25T09:52:08Z</time>
</trkpt>
<trkpt lat="44.9695971" lon="5.4010003">
<ele>830.60</ele>
<time>2019-07-25T09:52:09Z</time>
</trkpt>
<trkpt lat="44.9695576" lon="5.4009962">
<ele>830.58</ele>
<time>2019-07-25T09:52:10Z</time>
</trkpt>
<trkpt lat="44.9695256" lon="5.4009901">
<ele>830.58</ele>
<time>2019-07-25T09:52:11Z</time>
</trkpt>
<trkpt lat="44.9694977" lon="5.4009778">
<ele>830.58</ele>
<time>2019-07-25T09:52:12Z</time>
</trkpt>
<trkpt lat="44.9694722" lon="5.4009671">
<ele>830.58</ele>
<time>2019-07-25T09:52:13Z</time>
</trkpt>
<trkpt lat="44.9694432" lon="5.4009611">
<ele>830.58</ele>
<time>2019-07-25T09:52:14Z</time>
</trkpt>
<trkpt lat="44.9694138" lon="5.4009603">
<ele>830.58</ele>
<time>2019-07-25T09:52:15Z</time>
</trkpt>
<trkpt lat="44.9693869" lon="5.4009568">
<ele>830.58</ele>
<time>2019-07-25T09:52:16Z</time>
</trkpt>
<trkpt lat="44.9693627" lon="5.4009546">
<ele>830.57</ele>
<time>2019-07-25T09:52:17Z</time>
</trkpt>
<trkpt lat="44.9693374" lon="5.4009557">
<ele>830.57</ele>
<time>2019-07-25T09:52:18Z</time>
</trkpt>
<trkpt lat="44.9693134" lon="5.4009527">
<ele>830.56</ele>
<time>2019-07-25T09:52:19Z</time>
</trkpt>
<trkpt lat="44.9692867" lon="5.4009502">
<ele>830.55</ele>
<time>2019-07-25T09:52:20Z</time>
</trkpt>
<trkpt lat="44.9692590" lon="5.4009467">
<ele>830.55</ele>
<time>2019-07-25T09:52:21Z</time>
</trkpt>
<trkpt lat="44.9692267" lon="5.4009463">
<ele>830.54</ele>
<time>2019-07-25T09:52:22Z</time>
</trkpt>
<trkpt lat="44.9691995" lon="5.4009439">
<ele>830.52</ele>
<time>2019-07-25T09:52:23Z</time>
</trkpt>
<trkpt lat="44.9691683" lon="5.4009452">
<ele>830.51</ele>
<time>2019-07-25T09:52:24Z</time>
</trkpt>
<trkpt lat="44.9691386" lon="5.4009450">
<ele>830.49</ele>
<time>2019-07-25T09:52:25Z</time>
</trkpt>
<trkpt lat="44.9691077" lon="5.4009444">
<ele>830.48</ele>
<time>2019-07-25T09:52:26Z</time>
</trkpt>
<trkpt lat="44.9690796" lon="5.4009445">
<ele>830.46</ele>
<time>2019-07-25T09:52:27Z</time>
</trkpt>
<trkpt lat="44.9690534" lon="5.4009415">
<ele>830.44</ele>
<time>2019-07-25T09:52:28Z</time>
</trkpt>
<trkpt lat="44.9690262" lon="5.4009390">
<ele>830.41</ele>
<time>2019-07-25T09:52:29Z</time>
</trkpt>
<trkpt lat="44.9689988" lon="5.4009340">
<ele>830.39</ele>
<time>2019-07-25T09:52:30Z</time>
</trkpt>
<trkpt lat="44.9689668" lon="5.4009320">
<ele>830.36</ele>
<time>2019-07-25T09:52:31Z</time>
</trkpt>
<trkpt lat="44.9689358" lon="5.4009286">
<ele>830.33</ele>
<time>2019-07-25T09:52:32Z</time>
</trkpt>
<trkpt lat="44.9689070" lon="5.4009281">
<ele>830.29</ele>
<time>2019-07-25T09:52:33Z</time>
</trkpt>
<trkpt lat="44.9688828" lon="5.4009206">
<ele>830.26</ele>
<time>2019-07-25T09:52:34Z</time>
</trkpt>
<trkpt lat="44.9688565" lon="5.4009183">
<ele>830.23</ele>
<time>2019-07-25T09:52:35Z</time>
</trkpt>
<trkpt lat="44.9688295" lon="5.4009235">
<ele>830.20</ele>
<time>2019-07-25T09:52:36Z</time>
</trkpt>
<trkpt lat="44.9688001" lon="5.4009221">
<ele>830.17</ele>
<time>2019-07-25T09:52:37Z</time>
</trkpt>
<trkpt lat="44.9687698" lon="5.4009204">
<ele>830.14</ele>
<time>2019-07-25T09:52:38Z</time>
</trkpt>
<trkpt lat="44.9687438" lon="5.4009157">
<ele>830.11</ele>
<time>2019-07-25T09:52:39Z</time>
</trkpt>
<trkpt lat="44.9687143" lon="5.4009164">
<ele>830.08</ele>
<time>2019-07-25T09:52:40Z</time>
</trkpt>
<trkpt lat="44.9686808" lon="5.4009192">
<ele>830.05</ele>
<time>2019-07-25T09:52:41Z</time>
</trkpt>
<trkpt lat="44.9686545" lon="5.4009207">
<ele>830.02</ele>
<time>2019-07-25T09:52:42Z</time>
</trkpt>
<trkpt lat="44.9686304" lon="5.4009220">
<ele>830.00</ele>
<time>2019-07-25T09:52:43Z</time>
</trkpt>
<trkpt lat="44.9686048" lon="5.4009256">
<ele>829.97</ele>
<time>2019-07-25T09:52:44Z</time>
</trkpt>
<trkpt lat="44.9685788" lon="5.4009325">
<ele>829.95</ele>
<time>2019-07-25T09:52:45Z</time>
</trkpt>
<trkpt lat="44.9685537" lon="5.4009326">
<ele>829.92</ele>
<time>2019-07-25T09:52:46Z</time>
</trkpt>
<trkpt lat="44.9685287" lon="5.4009359">
<ele>829.89</ele>
<time>2019-07-25T09:52:47Z</time>
</trkpt>
<trkpt lat="44.9685062" lon="5.4009371">
<ele>829.86</ele>
<time>2019-07-25T09:52:48Z</time>
</trkpt>
<trkpt lat="44.9684787" lon="5.4009445">
<ele>829.83</ele>
<time>2019-07-25T09:52:49Z</time>
</trkpt>
<trkpt lat="44.9684427" lon="5.4009636">
<ele>829.80</ele>
<time>2019-07-25T09:52:50Z</time>
</trkpt>
<trkpt lat="44.9684145" lon="5.4009740">
<ele>829.77</ele>
<time>2019-07-25T09:52:51Z</time>
</trkpt>
<trkpt lat="44.9683819" lon="5.4009877">
<ele>829.74</ele>
<time>2019-07-25T09:52:52Z</time>
</trkpt>
<trkpt lat="44.9683503" lon="5.4009975">
<ele>829.72</ele>
<time>2019-07-25T09:52:53Z</time>
</trkpt>
<trkpt lat="44.9683197" lon="5.4010098">
<ele>829.70</ele>
<time>2019-07-25T09:52:54Z</time>
</trkpt>
<trkpt lat="44.9682888" lon="5.4010225">
<ele>829.68</ele>
<time>2019-07-25T09:52:55Z</time>
</trkpt>
<trkpt lat="44.9682560" lon="5.4010306">
<ele>829.66</ele>
<time>2019-07-25T09:52:56Z</time>
</trkpt>
<trkpt lat="44.9682274" lon="5.4010307">
<ele>829.64</ele>
<time>2019-07-25T09:52:57Z</time>
</trkpt>
<trkpt lat="44.9681933" lon="5.4010335">
<ele>829.62</ele>
<time>2019-07-25T09:52:58Z</time>
</trkpt>
<trkpt lat="44.9681551" lon="5.4010387">
<ele>829.61</ele>
<time>2019-07-25T09:52:59Z</time>
</trkpt>
<trkpt lat="44.9681197" lon="5.4010472">
<ele>829.59</ele>
<time>2019-07-25T09:53:00Z</time>
</trkpt>
<trkpt lat="44.9680928" lon="5.4010511">
<ele>829.58</ele>
<time>2019-07-25T09:53:01Z</time>
</trkpt>
<trkpt lat="44.9680607" lon="5.4010504">
<ele>829.56</ele>
<time>2019-07-25T09:53:02Z</time>
</trkpt>
<trkpt lat="44.9680319" lon="5.4010464">
<ele>829.55</ele>
<time>2019-07-25T09:53:03Z</time>
</trkpt>
<trkpt lat="44.9680022" lon="5.4010428">
<ele>829.53</ele>
<time>2019-07-25T09:53:04Z</time>
</trkpt>
<trkpt lat="44.9679750" lon="5.4010430">
<ele>829.52</ele>
<time>2019-07-25T09:53:05Z</time>
</trkpt>
<trkpt lat="44.9679458" lon="5.4010441">
<ele>829.50</ele>
<time>2019-07-25T09:53:06Z</time>
</trkpt>
<trkpt lat="44.9679186" lon="5.4010441">
<ele>829.48</ele>
<time>2019-07-25T09:53:07Z</time>
</trkpt>
<trkpt lat="44.9678922" lon="5.4010445">
<ele>829.47</ele>
<time>2019-07-25T09:53:08Z</time>
</trkpt>
<trkpt lat="44.9678660" lon="5.4010449">
<ele>829.46</ele>
<time>2019-07-25T09:53:09Z</time>
</trkpt>
<trkpt lat="44.9678374" lon="5.4010491">
<ele>829.45</ele>
<time>2019-07-25T09:53:10Z</time>
</trkpt>
<trkpt lat="44.9678108" lon="5.4010537">
<ele>829.45</ele>
<time>2019-07-25T09:53:11Z</time>
</trkpt>
<trkpt lat="44.9677799" lon="5.4010576">
<ele>829.44</ele>
<time>2019-07-25T09:53:12Z</time>
</trkpt>
<trkpt lat="44.9677462" lon="5.4010653">
<ele>829.44</ele>
<time>2019-07-25T09:53:13Z</time>
</trkpt>
<trkpt lat="44.9677111" lon="5.4010755">
<ele>829.44</ele>
<time>2019-07-25T09:53:14Z</time>
</trkpt>
<trkpt lat="44.9676795" lon="5.4010822">
<ele>829.45</ele>
<time>2019-07-25T09:53:15Z</time>
</trkpt>
<trkpt lat="44.9676432" lon="5.4010883">
<ele>829.45</ele>
<time>2019-07-25T09:53:16Z</time>
</trkpt>
<trkpt lat="44.9676124" lon="5.4010932">
<ele>829.46</ele>
<time>2019-07-25T09:53:17Z</time>
</trkpt>
<trkpt lat="44.9675775" lon="5.4011017">
<ele>829.47</ele>
<time>2019-07-25T09:53:18Z</time>
</trkpt>
<trkpt lat="44.9675422" lon="5.4011106">
<ele>829.58</ele>
<time>2019-07-25T09:53:19Z</time>
</trkpt>
<trkpt lat="44.9674992" lon="5.4011221">
<ele>829.69</ele>
<time>2019-07-25T09:53:20Z</time>
</trkpt>
<trkpt lat="44.9674560" lon="5.4011337">
<ele>829.78</ele>
<time>2019-07-25T09:53:21Z</time>
</trkpt>
<trkpt lat="44.9674159" lon="5.4011428">
<ele>829.84</ele>
<time>2019-07-25T09:53:22Z</time>
</trkpt>
<trkpt lat="44.9673753" lon="5.4011554">
<ele>829.87</ele>
<time>2019-07-25T09:53:23Z</time>
</trkpt>
<trkpt lat="44.9673344" lon="5.4011670">
<ele>829.89</ele>
<time>2019-07-25T09:53:24Z</time>
</trkpt>
<trkpt lat="44.9672980" lon="5.4011753">
<ele>829.90</ele>
<time>2019-07-25T09:53:25Z</time>
</trkpt>
<trkpt lat="44.9672626" lon="5.4011821">
<ele>829.91</ele>
<time>2019-07-25T09:53:26Z</time>
</trkpt>
<trkpt lat="44.9672267" lon="5.4011909">
<ele>829.91</ele>
<time>2019-07-25T09:53:27Z</time>
</trkpt>
<trkpt lat="44.9671885" lon="5.4011994">
<ele>829.92</ele>
<time>2019-07-25T09:53:28Z</time>
</trkpt>
<trkpt lat="44.9671498" lon="5.4012017">
<ele>829.93</ele>
<time>2019-07-25T09:53:29Z</time>
</trkpt>
<trkpt lat="44.9671085" lon="5.4012052">
<ele>829.94</ele>
<time>2019-07-25T09:53:30Z</time>
</trkpt>
<trkpt lat="44.9670681" lon="5.4012134">
<ele>829.95</ele>
<time>2019-07-25T09:53:31Z</time>
</trkpt>
<trkpt lat="44.9670282" lon="5.4012214">
<ele>829.96</ele>
<time>2019-07-25T09:53:32Z</time>
</trkpt>
<trkpt lat="44.9669893" lon="5.4012260">
<ele>829.97</ele>
<time>2019-07-25T09:53:33Z</time>
</trkpt>
<trkpt lat="44.9669567" lon="5.4012304">
<ele>829.98</ele>
<time>2019-07-25T09:53:34Z</time>
</trkpt>
<trkpt lat="44.9669283" lon="5.4012319">
<ele>829.99</ele>
<time>2019-07-25T09:53:35Z</time>
</trkpt>
<trkpt lat="44.9668977" lon="5.4012390">
<ele>830.00</ele>
<time>2019-07-25T09:53:36Z</time>
</trkpt>
<trkpt lat="44.9668707" lon="5.4012454">
<ele>830.02</ele>
<time>2019-07-25T09:53:37Z</time>
</trkpt>
<trkpt lat="44.9668441" lon="5.4012498">
<ele>830.03</ele>
<time>2019-07-25T09:53:38Z</time>
</trkpt>
<trkpt lat="44.9668192" lon="5.4012494">
<ele>830.05</ele>
<time>2019-07-25T09:53:39Z</time>
</trkpt>
<trkpt lat="44.9667872" lon="5.4012471">
<ele>830.06</ele>
<time>2019-07-25T09:53:40Z</time>
</trkpt>
<trkpt lat="44.9667573" lon="5.4012468">
<ele>830.08</ele>
<time>2019-07-25T09:53:41Z</time>
</trkpt>
<trkpt lat="44.9667324" lon="5.4012463">
<ele>830.09</ele>
<time>2019-07-25T09:53:42Z</time>
</trkpt>
<trkpt lat="44.9667036" lon="5.4012450">
<ele>830.11</ele>
<time>2019-07-25T09:53:43Z</time>
</trkpt>
<trkpt lat="44.9666716" lon="5.4012419">
<ele>830.12</ele>
<time>2019-07-25T09:53:44Z</time>
</trkpt>
<trkpt lat="44.9666402" lon="5.4012389">
<ele>830.13</ele>
<time>2019-07-25T09:53:45Z</time>
</trkpt>
<trkpt lat="44.9666107" lon="5.4012342">
<ele>830.15</ele>
<time>2019-07-25T09:53:46Z</time>
</trkpt>
<trkpt lat="44.9665743" lon="5.4012336">
<ele>830.16</ele>
<time>2019-07-25T09:53:47Z</time>
</trkpt>
<trkpt lat="44.9665445" lon="5.4012359">
<ele>830.15</ele>
<time>2019-07-25T09:53:48Z</time>
</trkpt>
<trkpt lat="44.9665097" lon="5.4012358">
<ele>830.14</ele>
<time>2019-07-25T09:53:49Z</time>
</trkpt>
<trkpt lat="44.9664720" lon="5.4012319">
<ele>830.12</ele>
<time>2019-07-25T09:53:50Z</time>
</trkpt>
<trkpt lat="44.9664373" lon="5.4012302">
<ele>830.09</ele>
<time>2019-07-25T09:53:51Z</time>
</trkpt>
<trkpt lat="44.9664076" lon="5.4012411">
<ele>830.06</ele>
<time>2019-07-25T09:53:52Z</time>
</trkpt>
<trkpt lat="44.9663759" lon="5.4012456">
<ele>830.02</ele>
<time>2019-07-25T09:53:53Z</time>
</trkpt>
<trkpt lat="44.9663487" lon="5.4012494">
<ele>829.99</ele>
<time>2019-07-25T09:53:54Z</time>
</trkpt>
<trkpt lat="44.9663250" lon="5.4012401">
<ele>829.96</ele>
<time>2019-07-25T09:53:55Z</time>
</trkpt>
<trkpt lat="44.9662952" lon="5.4012336">
<ele>829.94</ele>
<time>2019-07-25T09:53:56Z</time>
</trkpt>
<trkpt lat="44.9662653" lon="5.4012340">
<ele>829.91</ele>
<time>2019-07-25T09:53:57Z</time>
</trkpt>
<trkpt lat="44.9662337" lon="5.4012307">
<ele>829.89</ele>
<time>2019-07-25T09:53:58Z</time>
</trkpt>
<trkpt lat="44.9662024" lon="5.4012284">
<ele>829.87</ele>
<time>2019-07-25T09:53:59Z</time>
</trkpt>
<trkpt lat="44.9661756" lon="5.4012234">
<ele>829.85</ele>
<time>2019-07-25T09:54:00Z</time>
</trkpt>
<trkpt lat="44.9661391" lon="5.4012228">
<ele>829.82</ele>
<time>2019-07-25T09:54:01Z</time>
</trkpt>
<trkpt lat="44.9661043" lon="5.4012197">
<ele>829.80</ele>
<time>2019-07-25T09:54:02Z</time>
</trkpt>
<trkpt lat="44.9660689" lon="5.4012121">
<ele>829.78</ele>
<time>2019-07-25T09:54:03Z</time>
</trkpt>
<trkpt lat="44.9660345" lon="5.4012099">
<ele>829.75</ele>
<time>2019-07-25T09:54:04Z</time>
</trkpt>
<trkpt lat="44.9659960" lon="5.4012078">
<ele>829.72</ele>
<time>2019-07-25T09:54:05Z</time>
</trkpt>
<trkpt lat="44.9659641" lon="5.4012027">
<ele>829.70</ele>
<time>2019-07-25T09:54:06Z</time>
</trkpt>
<trkpt lat="44.9659363" lon="5.4011989">
<ele>829.67</ele>
<time>2019-07-25T09:54:07Z</time>
</trkpt>
<trkpt lat="44.9659069" lon="5.4011918">
<ele>829.63</ele>
<time>2019-07-25T09:54:08Z</time>
</trkpt>
<trkpt lat="44.9658801" lon="5.4011819">
<ele>829.60</ele>
<time>2019-07-25T09:54:09Z</time>
</trkpt>
<trkpt lat="44.9658543" lon="5.4011703">
<ele>829.57</ele>
<time>2019-07-25T09:54:10Z</time>
</trkpt>
<trkpt lat="44.9658272" lon="5.4011544">
<ele>829.54</ele>
<time>2019-07-25T09:54:11Z</time>
</trkpt>
<trkpt lat="44.9657973" lon="5.4011363">
<ele>829.50</ele>
<time>2019-07-25T09:54:12Z</time>
</trkpt>
<trkpt lat="44.9657668" lon="5.4011176">
<ele>829.47</ele>
<time>2019-07-25T09:54:13Z</time>
</trkpt>
<trkpt lat="44.9657328" lon="5.4010979">
<ele>829.44</ele>
<time>2019-07-25T09:54:14Z</time>
</trkpt>
<trkpt lat="44.9657007" lon="5.4010762">
<ele>829.41</ele>
<time>2019-07-25T09:54:15Z</time>
</trkpt>
<trkpt lat="44.9656696" lon="5.4010493">
<ele>829.39</ele>
<time>2019-07-25T09:54:16Z</time>
</trkpt>
<trkpt lat="44.9656419" lon="5.4010227">
<ele>829.36</ele>
<time>2019-07-25T09:54:17Z</time>
</trkpt>
<trkpt lat="44.9656101" lon="5.4009982">
<ele>829.33</ele>
<time>2019-07-25T09:54:18Z</time>
</trkpt>
<trkpt lat="44.9655738" lon="5.4009780">
<ele>829.30</ele>
<time>2019-07-25T09:54:19Z</time>
</trkpt>
<trkpt lat="44.9655378" lon="5.4009634">
<ele>829.28</ele>
<time>2019-07-25T09:54:20Z</time>
</trkpt>
<trkpt lat="44.9654993" lon="5.4009463">
<ele>829.25</ele>
<time>2019-07-25T09:54:21Z</time>
</trkpt>
<trkpt lat="44.9654616" lon="5.4009302">
<ele>829.22</ele>
<time>2019-07-25T09:54:22Z</time>
</trkpt>
<trkpt lat="44.9654262" lon="5.4009239">
<ele>828.98</ele>
<time>2019-07-25T09:54:23Z</time>
</trkpt>
<trkpt lat="44.9653883" lon="5.4009218">
<ele>828.96</ele>
<time>2019-07-25T09:54:24Z</time>
</trkpt>
<trkpt lat="44.9653612" lon="5.4009206">
<ele>828.95</ele>
<time>2019-07-25T09:54:25Z</time>
</trkpt>
<trkpt lat="44.9653271" lon="5.4009241">
<ele>828.93</ele>
<time>2019-07-25T09:54:26Z</time>
</trkpt>
<trkpt lat="44.9652919" lon="5.4009261">
<ele>828.92</ele>
<time>2019-07-25T09:54:27Z</time>
</trkpt>
<trkpt lat="44.9652540" lon="5.4009324">
<ele>828.90</ele>
<time>2019-07-25T09:54:28Z</time>
</trkpt>
<trkpt lat="44.9652218" lon="5.4009393">
<ele>828.89</ele>
<time>2019-07-25T09:54:29Z</time>
</trkpt>
<trkpt lat="44.9651879" lon="5.4009471">
<ele>828.87</ele>
<time>2019-07-25T09:54:30Z</time>
</trkpt>
<trkpt lat="44.9651532" lon="5.4009546">
<ele>828.86</ele>
<time>2019-07-25T09:54:31Z</time>
</trkpt>
<trkpt lat="44.9651190" lon="5.4009627">
<ele>828.85</ele>
<time>2019-07-25T09:54:32Z</time>
</trkpt>
<trkpt lat="44.9650893" lon="5.4009683">
<ele>828.83</ele>
<time>2019-07-25T09:54:33Z</time>
</trkpt>
<trkpt lat="44.9650554" lon="5.4009808">
<ele>828.82</ele>
<time>2019-07-25T09:54:34Z</time>
</trkpt>
<trkpt lat="44.9650213" lon="5.4009984">
<ele>828.81</ele>
<time>2019-07-25T09:54:35Z</time>
</trkpt>
<trkpt lat="44.9649892" lon="5.4010131">
<ele>828.80</ele>
<time>2019-07-25T09:54:36Z</time>
</trkpt>
<trkpt lat="44.9649610" lon="5.4010256">
<ele>828.79</ele>
<time>2019-07-25T09:54:37Z</time>
</trkpt>
<trkpt lat="44.9649310" lon="5.4010376">
<ele>828.78</ele>
<time>2019-07-25T09:54:38Z</time>
</trkpt>
<trkpt lat="44.9648981" lon="5.4010558">
<ele>828.76</ele>
<time>2019-07-25T09:54:39Z</time>
</trkpt>
<trkpt lat="44.9648684" lon="5.4010780">
<ele>828.75</ele>
<time>2019-07-25T09:54:40Z</time>
</trkpt>
<trkpt lat="44.9648405" lon="5.4011013">
<ele>828.74</ele>
<time>2019-07-25T09:54:41Z</time>
</trkpt>
<trkpt lat="44.9648082" lon="5.4011181">
<ele>828.73</ele>
<time>2019-07-25T09:54:42Z</time>
</trkpt>
<trkpt lat="44.9647774" lon="5.4011374">
<ele>828.73</ele>
<time>2019-07-25T09:54:43Z</time>
</trkpt>
<trkpt lat="44.9647461" lon="5.4011595">
<ele>828.72</ele>
<time>2019-07-25T09:54:44Z</time>
</trkpt>
<trkpt lat="44.9647228" lon="5.4011795">
<ele>828.72</ele>
<time>2019-07-25T09:54:45Z</time>
</trkpt>
<trkpt lat="44.9646981" lon="5.4012053">
<ele>828.72</ele>
<time>2019-07-25T09:54:46Z</time>
</trkpt>
<trkpt lat="44.9646746" lon="5.4012298">
<ele>828.72</ele>
<time>2019-07-25T09:54:47Z</time>
</trkpt>
<trkpt lat="44.9646450" lon="5.4012507">
<ele>828.73</ele>
<time>2019-07-25T09:54:48Z</time>
</trkpt>
<trkpt lat="44.9646137" lon="5.4012734">
<ele>828.74</ele>
<time>2019-07-25T09:54:49Z</time>
</trkpt>
<trkpt lat="44.9645896" lon="5.4012988">
<ele>828.75</ele>
<time>2019-07-25T09:54:50Z</time>
</trkpt>
<trkpt lat="44.9645609" lon="5.4013288">
<ele>828.77</ele>
<time>2019-07-25T09:54:51Z</time>
</trkpt>
<trkpt lat="44.9645309" lon="5.4013609">
<ele>828.79</ele>
<time>2019-07-25T09:54:52Z</time>
</trkpt>
<trkpt lat="44.9645088" lon="5.4013837">
<ele>828.81</ele>
<time>2019-07-25T09:54:53Z</time>
</trkpt>
<trkpt lat="44.9644868" lon="5.4014079">
<ele>828.84</ele>
<time>2019-07-25T09:54:54Z</time>
</trkpt>
<trkpt lat="44.9644647" lon="5.4014316">
<ele>828.86</ele>
<time>2019-07-25T09:54:55Z</time>
</trkpt>
<trkpt lat="44.9644424" lon="5.4014551">
<ele>828.88</ele>
<time>2019-07-25T09:54:56Z</time>
</trkpt>
<trkpt lat="44.9644172" lon="5.4014826">
<ele>828.90</ele>
<time>2019-07-25T09:54:57Z</time>
</trkpt>
<trkpt lat="44.9643946" lon="5.4015088">
<ele>828.92</ele>
<time>2019-07-25T09:54:58Z</time>
</trkpt>
<trkpt lat="44.9643746" lon="5.4015361">
<ele>828.94</ele>
<time>2019-07-25T09:54:59Z</time>
</trkpt>
<trkpt lat="44.9643545" lon="5.4015631">
<ele>828.96</ele>
<time>2019-07-25T09:55:00Z</time>
</trkpt>
<trkpt lat="44.9643333" lon="5.4015864">
<ele>828.98</ele>
<time>2019-07-25T09:55:01Z</time>
</trkpt>
<trkpt lat="44.9643143" lon="5.4016058">
<ele>829.00</ele>
<time>2019-07-25T09:55:02Z</time>
</trkpt>
<trkpt lat="44.9642874" lon="5.4016347">
<ele>829.02</ele>
<time>2019-07-25T09:55:03Z</time>
</trkpt>
<trkpt lat="44.9642606" lon="5.4016604">
<ele>829.04</ele>
<time>2019-07-25T09:55:04Z</time>
</trkpt>
<trkpt lat="44.9642369" lon="5.4016820">
<ele>829.07</ele>
<time>2019-07-25T09:55:05Z</time>
</trkpt>
<trkpt lat="44.9642148" lon="5.4016981">
<ele>829.10</ele>
<time>2019-07-25T09:55:06Z</time>
</trkpt>
<trkpt lat="44.9641849" lon="5.4017138">
<ele>829.13</ele>
<time>2019-07-25T09:55:07Z</time>
</trkpt>
<trkpt lat="44.9641484" lon="5.4017338">
<ele>829.17</ele>
<time>2019-07-25T09:55:08Z</time>
</trkpt>
<trkpt lat="44.9641128" lon="5.4017507">
<ele>829.22</ele>
<time>2019-07-25T09:55:09Z</time>
</trkpt>
<trkpt lat="44.9640708" lon="5.4017649">
<ele>829.70</ele>
<time>2019-07-25T09:55:10Z</time>
</trkpt>
<trkpt lat="44.9640271" lon="5.4017747">
<ele>830.09</ele>
<time>2019-07-25T09:55:11Z</time>
</trkpt>
<trkpt lat="44.9639847" lon="5.4017827">
<ele>830.41</ele>
<time>2019-07-25T09:55:12Z</time>
</trkpt>
<trkpt lat="44.9639410" lon="5.4017924">
<ele>830.70</ele>
<time>2019-07-25T09:55:13Z</time>
</trkpt>
<trkpt lat="44.9638931" lon="5.4018024">
<ele>830.93</ele>
<time>2019-07-25T09:55:14Z</time>
</trkpt>
<trkpt lat="44.9638510" lon="5.4018079">
<ele>831.11</ele>
<time>2019-07-25T09:55:15Z</time>
</trkpt>
<trkpt lat="44.9638121" lon="5.4018132">
<ele>831.29</ele>
<time>2019-07-25T09:55:16Z</time>
</trkpt>
<trkpt lat="44.9637678" lon="5.4018175">
<ele>831.46</ele>
<time>2019-07-25T09:55:17Z</time>
</trkpt>
<trkpt lat="44.9637187" lon="5.4018251">
<ele>831.61</ele>
<time>2019-07-25T09:55:18Z</time>
</trkpt>
<trkpt lat="44.9636761" lon="5.4018225">
<ele>831.79</ele>
<time>2019-07-25T09:55:19Z</time>
</trkpt>
<trkpt lat="44.9636324" lon="5.4018205">
<ele>831.94</ele>
<time>2019-07-25T09:55:20Z</time>
</trkpt>
<trkpt lat="44.9635888" lon="5.4018163">
<ele>832.06</ele>
<time>2019-07-25T09:55:21Z</time>
</trkpt>
<trkpt lat="44.9635361" lon="5.4018137">
<ele>832.13</ele>
<time>2019-07-25T09:55:22Z</time>
</trkpt>
<trkpt lat="44.9634938" lon="5.4018078">
<ele>832.14</ele>
<time>2019-07-25T09:55:23Z</time>
</trkpt>
<trkpt lat="44.9634520" lon="5.4018025">
<ele>832.17</ele>
<time>2019-07-25T09:55:24Z</time>
</trkpt>
<trkpt lat="44.9634099" lon="5.4017978">
<ele>832.20</ele>
<time>2019-07-25T09:55:25Z</time>
</trkpt>
<trkpt lat="44.9633639" lon="5.4017918">
<ele>832.21</ele>
<time>2019-07-25T09:55:26Z</time>
</trkpt>
<trkpt lat="44.9633195" lon="5.4017799">
<ele>832.24</ele>
<time>2019-07-25T09:55:27Z</time>
</trkpt>
<trkpt lat="44.9632796" lon="5.4017726">
<ele>832.28</ele>
<time>2019-07-25T09:55:28Z</time>
</trkpt>
<trkpt lat="44.9632393" lon="5.4017668">
<ele>832.31</ele>
<time>2019-07-25T09:55:29Z</time>
</trkpt>
<trkpt lat="44.9632013" lon="5.4017591">
<ele>832.35</ele>
<time>2019-07-25T09:55:30Z</time>
</trkpt>
<trkpt lat="44.9631620" lon="5.4017489">
<ele>832.40</ele>
<time>2019-07-25T09:55:31Z</time>
</trkpt>
<trkpt lat="44.9631171" lon="5.4017326">
<ele>832.47</ele>
<time>2019-07-25T09:55:32Z</time>
</trkpt>
<trkpt lat="44.9630739" lon="5.4017183">
<ele>832.54</ele>
<time>2019-07-25T09:55:33Z</time>
</trkpt>
<trkpt lat="44.9630287" lon="5.4016959">
<ele>832.62</ele>
<time>2019-07-25T09:55:34Z</time>
</trkpt>
<trkpt lat="44.9629837" lon="5.4016728">
<ele>832.71</ele>
<time>2019-07-25T09:55:35Z</time>
</trkpt>
<trkpt lat="44.9629353" lon="5.4016524">
<ele>832.80</ele>
<time>2019-07-25T09:55:36Z</time>
</trkpt>
<trkpt lat="44.9628972" lon="5.4016319">
<ele>832.88</ele>
<time>2019-07-25T09:55:37Z</time>
</trkpt>
<trkpt lat="44.9628563" lon="5.4016143">
<ele>832.97</ele>
<time>2019-07-25T09:55:38Z</time>
</trkpt>
<trkpt lat="44.9628138" lon="5.4015980">
<ele>833.06</ele>
<time>2019-07-25T09:55:39Z</time>
</trkpt>
<trkpt lat="44.9627728" lon="5.4015796">
<ele>833.16</ele>
<time>2019-07-25T09:55:40Z</time>
</trkpt>
<trkpt lat="44.9627249" lon="5.4015624">
<ele>833.25</ele>
<time>2019-07-25T09:55:41Z</time>
</trkpt>
<trkpt lat="44.9626783" lon="5.4015436">
<ele>833.36</ele>
<time>2019-07-25T09:55:42Z</time>
</trkpt>
<trkpt lat="44.9626276" lon="5.4015215">
<ele>833.47</ele>
<time>2019-07-25T09:55:43Z</time>
</trkpt>
<trkpt lat="44.9625807" lon="5.4014982">
<ele>833.59</ele>
<time>2019-07-25T09:55:44Z</time>
</trkpt>
<trkpt lat="44.9625413" lon="5.4014781">
<ele>833.60</ele>
<time>2019-07-25T09:55:45Z</time>
</trkpt>
<trkpt lat="44.9625002" lon="5.4014650">
<ele>833.71</ele>
<time>2019-07-25T09:55:46Z</time>
</trkpt>
<trkpt lat="44.9624615" lon="5.4014416">
<ele>833.79</ele>
<time>2019-07-25T09:55:47Z</time>
</trkpt>
<trkpt lat="44.9624160" lon="5.4014245">
<ele>833.80</ele>
<time>2019-07-25T09:55:48Z</time>
</trkpt>
<trkpt lat="44.9623707" lon="5.4014105">
<ele>833.81</ele>
<time>2019-07-25T09:55:49Z</time>
</trkpt>
<trkpt lat="44.9623399" lon="5.4013918">
<ele>833.83</ele>
<time>2019-07-25T09:55:50Z</time>
</trkpt>
<trkpt lat="44.9623082" lon="5.4013781">
<ele>833.85</ele>
<time>2019-07-25T09:55:51Z</time>
</trkpt>
<trkpt lat="44.9622739" lon="5.4013616">
<ele>833.87</ele>
<time>2019-07-25T09:55:52Z</time>
</trkpt>
<trkpt lat="44.9622452" lon="5.4013419">
<ele>833.88</ele>
<time>2019-07-25T09:55:53Z</time>
</trkpt>
<trkpt lat="44.9622209" lon="5.4013285">
<ele>833.90</ele>
<time>2019-07-25T09:55:54Z</time>
</trkpt>
<trkpt lat="44.9622016" lon="5.4013195">
<ele>833.91</ele>
<time>2019-07-25T09:55:55Z</time>
</trkpt>
<trkpt lat="44.9621865" lon="5.4013101">
<ele>833.92</ele>
<time>2019-07-25T09:55:56Z</time>
</trkpt>
<trkpt lat="44.9621703" lon="5.4012999">
<ele>833.94</ele>
<time>2019-07-25T09:55:57Z</time>
</trkpt>
<trkpt lat="44.9621491" lon="5.4012930">
<ele>833.95</ele>
<time>2019-07-25T09:55:58Z</time>
</trkpt>
<trkpt lat="44.9621307" lon="5.4012886">
<ele>833.97</ele>
<time>2019-07-25T09:55:59Z</time>
</trkpt>
<trkpt lat="44.9621156" lon="5.4012868">
<ele>833.99</ele>
<time>2019-07-25T09:56:00Z</time>
</trkpt>
<trkpt lat="44.9621054" lon="5.4012851">
<ele>834.01</ele>
<time>2019-07-25T09:56:01Z</time>
</trkpt>
<trkpt lat="44.9620882" lon="5.4012889">
<ele>834.03</ele>
<time>2019-07-25T09:56:02Z</time>
</trkpt>
<trkpt lat="44.9620750" lon="5.4012965">
<ele>834.05</ele>
<time>2019-07-25T09:56:03Z</time>
</trkpt>
<trkpt lat="44.9620581" lon="5.4013005">
<ele>834.07</ele>
<time>2019-07-25T09:56:04Z</time>
</trkpt>
<trkpt lat="44.9620326" lon="5.4012866">
<ele>834.30</ele>
<time>2019-07-25T09:56:05Z</time>
</trkpt>
<trkpt lat="44.9619910" lon="5.4012803">
<ele>834.49</ele>
<time>2019-07-25T09:56:06Z</time>
</trkpt>
<trkpt lat="44.9619458" lon="5.4012742">
<ele>834.51</ele>
<time>2019-07-25T09:56:07Z</time>
</trkpt>
<trkpt lat="44.9619052" lon="5.4012699">
<ele>834.65</ele>
<time>2019-07-25T09:56:08Z</time>
</trkpt>
<trkpt lat="44.9618636" lon="5.4012643">
<ele>834.67</ele>
<time>2019-07-25T09:56:09Z</time>
</trkpt>
<trkpt lat="44.9618228" lon="5.4012613">
<ele>834.68</ele>
<time>2019-07-25T09:56:10Z</time>
</trkpt>
<trkpt lat="44.9617897" lon="5.4012539">
<ele>834.70</ele>
<time>2019-07-25T09:56:11Z</time>
</trkpt>
<trkpt lat="44.9617550" lon="5.4012608">
<ele>834.72</ele>
<time>2019-07-25T09:56:12Z</time>
</trkpt>
<trkpt lat="44.9617272" lon="5.4012642">
<ele>834.74</ele>
<time>2019-07-25T09:56:13Z</time>
</trkpt>
<trkpt lat="44.9616952" lon="5.4012618">
<ele>834.76</ele>
<time>2019-07-25T09:56:14Z</time>
</trkpt>
<trkpt lat="44.9616605" lon="5.4012661">
<ele>834.78</ele>
<time>2019-07-25T09:56:15Z</time>
</trkpt>
<trkpt lat="44.9616201" lon="5.4012696">
<ele>834.80</ele>
<time>2019-07-25T09:56:16Z</time>
</trkpt>
<trkpt lat="44.9615873" lon="5.4012651">
<ele>834.82</ele>
<time>2019-07-25T09:56:17Z</time>
</trkpt>
<trkpt lat="44.9615537" lon="5.4012620">
<ele>834.83</ele>
<time>2019-07-25T09:56:18Z</time>
</trkpt>
<trkpt lat="44.9615185" lon="5.4012596">
<ele>834.85</ele>
<time>2019-07-25T09:56:19Z</time>
</trkpt>
<trkpt lat="44.9614838" lon="5.4012556">
<ele>834.87</ele>
<time>2019-07-25T09:56:20Z</time>
</trkpt>
<trkpt lat="44.9614477" lon="5.4012518">
<ele>834.89</ele>
<time>2019-07-25T09:56:21Z</time>
</trkpt>
<trkpt lat="44.9614098" lon="5.4012546">
<ele>834.91</ele>
<time>2019-07-25T09:56:22Z</time>
</trkpt>
<trkpt lat="44.9613697" lon="5.4012616">
<ele>834.93</ele>
<time>2019-07-25T09:56:23Z</time>
</trkpt>
<trkpt lat="44.9613302" lon="5.4012652">
<ele>834.96</ele>
<time>2019-07-25T09:56:24Z</time>
</trkpt>
<trkpt lat="44.9612939" lon="5.4012708">
<ele>835.22</ele>
<time>2019-07-25T09:56:25Z</time>
</trkpt>
<trkpt lat="44.9612565" lon="5.4012717">
<ele>835.46</ele>
<time>2019-07-25T09:56:26Z</time>
</trkpt>
<trkpt lat="44.9612202" lon="5.4012703">
<ele>835.48</ele>
<time>2019-07-25T09:56:27Z</time>
</trkpt>
<trkpt lat="44.9611941" lon="5.4012707">
<ele>835.50</ele>
<time>2019-07-25T09:56:28Z</time>
</trkpt>
<trkpt lat="44.9611726" lon="5.4012746">
<ele>835.53</ele>
<time>2019-07-25T09:56:29Z</time>
</trkpt>
<trkpt lat="44.9611442" lon="5.4012798">
<ele>835.56</ele>
<time>2019-07-25T09:56:30Z</time>
</trkpt>
<trkpt lat="44.9611156" lon="5.4012841">
<ele>835.59</ele>
<time>2019-07-25T09:56:31Z</time>
</trkpt>
<trkpt lat="44.9611025" lon="5.4012817">
<ele>835.62</ele>
<time>2019-07-25T09:56:32Z</time>
</trkpt>
<trkpt lat="44.9610924" lon="5.4012852">
<ele>835.66</ele>
<time>2019-07-25T09:56:33Z</time>
</trkpt>
<trkpt lat="44.9610809" lon="5.4012816">
<ele>835.69</ele>
<time>2019-07-25T09:56:34Z</time>
</trkpt>
<trkpt lat="44.9610642" lon="5.4012839">
<ele>835.73</ele>
<time>2019-07-25T09:56:35Z</time>
</trkpt>
<trkpt lat="44.9610491" lon="5.4012867">
<ele>835.78</ele>
<time>2019-07-25T09:56:36Z</time>
</trkpt>
<trkpt lat="44.9610325" lon="5.4012991">
<ele>835.82</ele>
<time>2019-07-25T09:56:37Z</time>
</trkpt>
<trkpt lat="44.9610106" lon="5.4013114">
<ele>835.87</ele>
<time>2019-07-25T09:56:38Z</time>
</trkpt>
<trkpt lat="44.9609952" lon="5.4013124">
<ele>835.92</ele>
<time>2019-07-25T09:56:39Z</time>
</trkpt>
<trkpt lat="44.9609725" lon="5.4013120">
<ele>835.98</ele>
<time>2019-07-25T09:56:40Z</time>
</trkpt>
<trkpt lat="44.9609369" lon="5.4013195">
<ele>836.03</ele>
<time>2019-07-25T09:56:41Z</time>
</trkpt>
<trkpt lat="44.9609017" lon="5.4013328">
<ele>836.09</ele>
<time>2019-07-25T09:56:42Z</time>
</trkpt>
<trkpt lat="44.9608718" lon="5.4013423">
<ele>836.15</ele>
<time>2019-07-25T09:56:43Z</time>
</trkpt>
<trkpt lat="44.9608493" lon="5.4013510">
<ele>836.21</ele>
<time>2019-07-25T09:56:44Z</time>
</trkpt>
<trkpt lat="44.9608239" lon="5.4013578">
<ele>836.27</ele>
<time>2019-07-25T09:56:45Z</time>
</trkpt>
<trkpt lat="44.9607991" lon="5.4013624">
<ele>836.33</ele>
<time>2019-07-25T09:56:46Z</time>
</trkpt>
<trkpt lat="44.9607724" lon="5.4013667">
<ele>836.40</ele>
<time>2019-07-25T09:56:47Z</time>
</trkpt>
<trkpt lat="44.9607481" lon="5.4013731">
<ele>836.47</ele>
<time>2019-07-25T09:56:48Z</time>
</trkpt>
<trkpt lat="44.9607216" lon="5.4013711">
<ele>836.54</ele>
<time>2019-07-25T09:56:49Z</time>
</trkpt>
<trkpt lat="44.9607015" lon="5.4013691">
<ele>836.61</ele>
<time>2019-07-25T09:56:50Z</time>
</trkpt>
<trkpt lat="44.9606766" lon="5.4013735">
<ele>836.67</ele>
<time>2019-07-25T09:56:51Z</time>
</trkpt>
<trkpt lat="44.9606477" lon="5.4013740">
<ele>836.73</ele>
<time>2019-07-25T09:56:52Z</time>
</trkpt>
<trkpt lat="44.9606149" lon="5.4013812">
<ele>836.79</ele>
<time>2019-07-25T09:56:53Z</time>
</trkpt>
<trkpt lat="44.9605842" lon="5.4013848">
<ele>836.85</ele>
<time>2019-07-25T09:56:54Z</time>
</trkpt>
<trkpt lat="44.9605579" lon="5.4013843">
<ele>836.91</ele>
<time>2019-07-25T09:56:55Z</time>
</trkpt>
<trkpt lat="44.9605285" lon="5.4013802">
<ele>836.97</ele>
<time>2019-07-25T09:56:56Z</time>
</trkpt>
<trkpt lat="44.9604965" lon="5.4013799">
<ele>837.03</ele>
<time>2019-07-25T09:56:57Z</time>
</trkpt>
<trkpt lat="44.9604591" lon="5.4013853">
<ele>837.65</ele>
<time>2019-07-25T09:56:58Z</time>
</trkpt>
<trkpt lat="44.9604200" lon="5.4013870">
<ele>838.15</ele>
<time>2019-07-25T09:56:59Z</time>
</trkpt>
<trkpt lat="44.9603835" lon="5.4013886">
<ele>838.19</ele>
<time>2019-07-25T09:57:00Z</time>
</trkpt>
<trkpt lat="44.9603456" lon="5.4013900">
<ele>838.61</ele>
<time>2019-07-25T09:57:01Z</time>
</trkpt>
<trkpt lat="44.9602956" lon="5.4013924">
<ele>838.96</ele>
<time>2019-07-25T09:57:02Z</time>
</trkpt>
<trkpt lat="44.9602339" lon="5.4013975">
<ele>839.29</ele>
<time>2019-07-25T09:57:03Z</time>
</trkpt>
<trkpt lat="44.9601822" lon="5.4013997">
<ele>839.56</ele>
<time>2019-07-25T09:57:04Z</time>
</trkpt>
<trkpt lat="44.9601334" lon="5.4014017">
<ele>839.79</ele>
<time>2019-07-25T09:57:05Z</time>
</trkpt>
<trkpt lat="44.9600909" lon="5.4013981">
<ele>839.99</ele>
<time>2019-07-25T09:57:06Z</time>
</trkpt>
<trkpt lat="44.9600508" lon="5.4013913">
<ele>840.16</ele>
<time>2019-07-25T09:57:07Z</time>
</trkpt>
<trkpt lat="44.9600111" lon="5.4013874">
<ele>840.31</ele>
<time>2019-07-25T09:57:08Z</time>
</trkpt>
<trkpt lat="44.9599717" lon="5.4013860">
<ele>840.45</ele>
<time>2019-07-25T09:57:09Z</time>
</trkpt>
<trkpt lat="44.9599317" lon="5.4013838">
<ele>840.46</ele>
<time>2019-07-25T09:57:10Z</time>
</trkpt>
<trkpt lat="44.9598957" lon="5.4013704">
<ele>840.47</ele>
<time>2019-07-25T09:57:11Z</time>
</trkpt>
<trkpt lat="44.9598721" lon="5.4013509">
<ele>840.49</ele>
<time>2019-07-25T09:57:12Z</time>
</trkpt>
<trkpt lat="44.9598234" lon="5.4013392">
<ele>840.61</ele>
<time>2019-07-25T09:57:13Z</time>
</trkpt>
<trkpt lat="44.9597788" lon="5.4013353">
<ele>840.62</ele>
<time>2019-07-25T09:57:14Z</time>
</trkpt>
<trkpt lat="44.9597513" lon="5.4013301">
<ele>840.63</ele>
<time>2019-07-25T09:57:15Z</time>
</trkpt>
<trkpt lat="44.9597158" lon="5.4013277">
<ele>840.77</ele>
<time>2019-07-25T09:57:16Z</time>
</trkpt>
<trkpt lat="44.9596620" lon="5.4013286">
<ele>840.86</ele>
<time>2019-07-25T09:57:17Z</time>
</trkpt>
<trkpt lat="44.9596065" lon="5.4013339">
<ele>840.96</ele>
<time>2019-07-25T09:57:18Z</time>
</trkpt>
<trkpt lat="44.9595484" lon="5.4013467">
<ele>841.05</ele>
<time>2019-07-25T09:57:19Z</time>
</trkpt>
<trkpt lat="44.9594895" lon="5.4013485">
<ele>841.14</ele>
<time>2019-07-25T09:57:20Z</time>
</trkpt>
<trkpt lat="44.9594361" lon="5.4013503">
<ele>841.23</ele>
<time>2019-07-25T09:57:21Z</time>
</trkpt>
<trkpt lat="44.9593871" lon="5.4013464">
<ele>841.31</ele>
<time>2019-07-25T09:57:22Z</time>
</trkpt>
<trkpt lat="44.9593429" lon="5.4013426">
<ele>841.36</ele>
<time>2019-07-25T09:57:23Z</time>
</trkpt>
<trkpt lat="44.9592960" lon="5.4013441">
<ele>841.42</ele>
<time>2019-07-25T09:57:24Z</time>
</trkpt>
<trkpt lat="44.9592511" lon="5.4013404">
<ele>841.48</ele>
<time>2019-07-25T09:57:25Z</time>
</trkpt>
<trkpt lat="44.9592031" lon="5.4013396">
<ele>841.51</ele>
<time>2019-07-25T09:57:26Z</time>
</trkpt>
<trkpt lat="44.9591616" lon="5.4013374">
<ele>841.52</ele>
<time>2019-07-25T09:57:27Z</time>
</trkpt>
<trkpt lat="44.9591219" lon="5.4013391">
<ele>841.53</ele>
<time>2019-07-25T09:57:28Z</time>
</trkpt>
<trkpt lat="44.9590808" lon="5.4013385">
<ele>841.65</ele>
<time>2019-07-25T09:57:29Z</time>
</trkpt>
<trkpt lat="44.9590228" lon="5.4013422">
<ele>841.75</ele>
<time>2019-07-25T09:57:30Z</time>
</trkpt>
<trkpt lat="44.9589746" lon="5.4013386">
<ele>841.76</ele>
<time>2019-07-25T09:57:31Z</time>
</trkpt>
<trkpt lat="44.9589355" lon="5.4013392">
<ele>841.83</ele>
<time>2019-07-25T09:57:32Z</time>
</trkpt>
<trkpt lat="44.9588958" lon="5.4013417">
<ele>841.88</ele>
<time>2019-07-25T09:57:33Z</time>
</trkpt>
<trkpt lat="44.9588478" lon="5.4013448">
<ele>841.89</ele>
<time>2019-07-25T09:57:34Z</time>
</trkpt>
<trkpt lat="44.9588064" lon="5.4013451">
<ele>841.90</ele>
<time>2019-07-25T09:57:35Z</time>
</trkpt>
<trkpt lat="44.9587658" lon="5.4013501">
<ele>842.02</ele>
<time>2019-07-25T09:57:36Z</time>
</trkpt>
<trkpt lat="44.9587237" lon="5.4013583">
<ele>842.15</ele>
<time>2019-07-25T09:57:37Z</time>
</trkpt>
<trkpt lat="44.9586788" lon="5.4013623">
<ele>842.27</ele>
<time>2019-07-25T09:57:38Z</time>
</trkpt>
<trkpt lat="44.9586308" lon="5.4013583">
<ele>842.40</ele>
<time>2019-07-25T09:57:39Z</time>
</trkpt>
<trkpt lat="44.9585874" lon="5.4013527">
<ele>842.53</ele>
<time>2019-07-25T09:57:40Z</time>
</trkpt>
<trkpt lat="44.9585514" lon="5.4013533">
<ele>842.54</ele>
<time>2019-07-25T09:57:41Z</time>
</trkpt>
<trkpt lat="44.9585112" lon="5.4013535">
<ele>842.63</ele>
<time>2019-07-25T09:57:42Z</time>
</trkpt>
<trkpt lat="44.9584586" lon="5.4013584">
<ele>842.72</ele>
<time>2019-07-25T09:57:43Z</time>
</trkpt>
<trkpt lat="44.9584022" lon="5.4013641">
<ele>842.83</ele>
<time>2019-07-25T09:57:44Z</time>
</trkpt>
<trkpt lat="44.9583508" lon="5.4013651">
<ele>842.95</ele>
<time>2019-07-25T09:57:45Z</time>
</trkpt>
<trkpt lat="44.9583012" lon="5.4013689">
<ele>843.07</ele>
<time>2019-07-25T09:57:46Z</time>
</trkpt>
<trkpt lat="44.9582612" lon="5.4013746">
<ele>843.25</ele>
<time>2019-07-25T09:57:47Z</time>
</trkpt>
<trkpt lat="44.9582171" lon="5.4013734">
<ele>843.44</ele>
<time>2019-07-25T09:57:48Z</time>
</trkpt>
<trkpt lat="44.9581731" lon="5.4013731">
<ele>843.64</ele>
<time>2019-07-25T09:57:49Z</time>
</trkpt>
<trkpt lat="44.9581272" lon="5.4013746">
<ele>843.79</ele>
<time>2019-07-25T09:57:50Z</time>
</trkpt>
<trkpt lat="44.9580781" lon="5.4013768">
<ele>843.97</ele>
<time>2019-07-25T09:57:51Z</time>
</trkpt>
<trkpt lat="44.9580306" lon="5.4013770">
<ele>844.15</ele>
<time>2019-07-25T09:57:52Z</time>
</trkpt>
<trkpt lat="44.9579838" lon="5.4013770">
<ele>844.34</ele>
<time>2019-07-25T09:57:53Z</time>
</trkpt>
<trkpt lat="44.9579386" lon="5.4013773">
<ele>844.50</ele>
<time>2019-07-25T09:57:54Z</time>
</trkpt>
<trkpt lat="44.9578929" lon="5.4013743">
<ele>844.61</ele>
<time>2019-07-25T09:57:55Z</time>
</trkpt>
<trkpt lat="44.9578436" lon="5.4013733">
<ele>844.74</ele>
<time>2019-07-25T09:57:56Z</time>
</trkpt>
<trkpt lat="44.9577925" lon="5.4013807">
<ele>844.85</ele>
<time>2019-07-25T09:57:57Z</time>
</trkpt>
<trkpt lat="44.9577484" lon="5.4013861">
<ele>844.97</ele>
<time>2019-07-25T09:57:58Z</time>
</trkpt>
<trkpt lat="44.9577053" lon="5.4013889">
<ele>845.09</ele>
<time>2019-07-25T09:57:59Z</time>
</trkpt>
<trkpt lat="44.9576575" lon="5.4013895">
<ele>845.22</ele>
<time>2019-07-25T09:58:00Z</time>
</trkpt>
<trkpt lat="44.9576070" lon="5.4013920">
<ele>845.38</ele>
<time>2019-07-25T09:58:01Z</time>
</trkpt>
<trkpt lat="44.9575603" lon="5.4013935">
<ele>845.53</ele>
<time>2019-07-25T09:58:02Z</time>
</trkpt>
<trkpt lat="44.9575195" lon="5.4013936">
<ele>845.68</ele>
<time>2019-07-25T09:58:03Z</time>
</trkpt>
<trkpt lat="44.9574755" lon="5.4013899">
<ele>845.83</ele>
<time>2019-07-25T09:58:04Z</time>
</trkpt>
<trkpt lat="44.9574293" lon="5.4013832">
<ele>845.97</ele>
<time>2019-07-25T09:58:05Z</time>
</trkpt>
<trkpt lat="44.9573849" lon="5.4013731">
<ele>846.11</ele>
<time>2019-07-25T09:58:06Z</time>
</trkpt>
<trkpt lat="44.9573450" lon="5.4013718">
<ele>846.24</ele>
<time>2019-07-25T09:58:07Z</time>
</trkpt>
<trkpt lat="44.9573049" lon="5.4013776">
<ele>846.34</ele>
<time>2019-07-25T09:58:08Z</time>
</trkpt>
<trkpt lat="44.9572618" lon="5.4013744">
<ele>846.45</ele>
<time>2019-07-25T09:58:09Z</time>
</trkpt>
<trkpt lat="44.9572186" lon="5.4013678">
<ele>846.54</ele>
<time>2019-07-25T09:58:10Z</time>
</trkpt>
<trkpt lat="44.9571818" lon="5.4013551">
<ele>846.55</ele>
<time>2019-07-25T09:58:11Z</time>
</trkpt>
<trkpt lat="44.9571477" lon="5.4013458">
<ele>846.56</ele>
<time>2019-07-25T09:58:12Z</time>
</trkpt>
<trkpt lat="44.9571165" lon="5.4013393">
<ele>846.57</ele>
<time>2019-07-25T09:58:13Z</time>
</trkpt>
<trkpt lat="44.9570812" lon="5.4013329">
<ele>846.69</ele>
<time>2019-07-25T09:58:14Z</time>
</trkpt>
<trkpt lat="44.9570421" lon="5.4013317">
<ele>846.69</ele>
<time>2019-07-25T09:58:15Z</time>
</trkpt>
<trkpt lat="44.9570029" lon="5.4013309">
<ele>846.70</ele>
<time>2019-07-25T09:58:16Z</time>
</trkpt>
<trkpt lat="44.9569665" lon="5.4013285">
<ele>846.72</ele>
<time>2019-07-25T09:58:17Z</time>
</trkpt>
<trkpt lat="44.9569303" lon="5.4013229">
<ele>846.73</ele>
<time>2019-07-25T09:58:18Z</time>
</trkpt>
<trkpt lat="44.9568936" lon="5.4013179">
<ele>846.74</ele>
<time>2019-07-25T09:58:19Z</time>
</trkpt>
<trkpt lat="44.9568594" lon="5.4013120">
<ele>846.74</ele>
<time>2019-07-25T09:58:20Z</time>
</trkpt>
<trkpt lat="44.9568244" lon="5.4013189">
<ele>846.76</ele>
<time>2019-07-25T09:58:21Z</time>
</trkpt>
<trkpt lat="44.9567922" lon="5.4013220">
<ele>846.77</ele>
<time>2019-07-25T09:58:22Z</time>
</trkpt>
<trkpt lat="44.9567671" lon="5.4013078">
<ele>846.78</ele>
<time>2019-07-25T09:58:23Z</time>
</trkpt>
<trkpt lat="44.9567556" lon="5.4012754">
<ele>846.80</ele>
<time>2019-07-25T09:58:24Z</time>
</trkpt>
<trkpt lat="44.9567571" lon="5.4012377">
<ele>846.81</ele>
<time>2019-07-25T09:58:25Z</time>
</trkpt>
<trkpt lat="44.9567636" lon="5.4012121">
<ele>846.83</ele>
<time>2019-07-25T09:58:26Z</time>
</trkpt>
<trkpt lat="44.9567677" lon="5.4011871">
<ele>846.84</ele>
<time>2019-07-25T09:58:27Z</time>
</trkpt>
<trkpt lat="44.9567656" lon="5.4011662">
<ele>846.86</ele>
<time>2019-07-25T09:58:28Z</time>
</trkpt>
<trkpt lat="44.9567649" lon="5.4011545">
<ele>846.88</ele>
<time>2019-07-25T09:58:29Z</time>
</trkpt>
<trkpt lat="44.9567642" lon="5.4011244">
<ele>846.90</ele>
<time>2019-07-25T09:58:30Z</time>
</trkpt>
<trkpt lat="44.9567671" lon="5.4010903">
<ele>846.91</ele>
<time>2019-07-25T09:58:31Z</time>
</trkpt>
<trkpt lat="44.9567699" lon="5.4010562">
<ele>846.92</ele>
<time>2019-07-25T09:58:32Z</time>
</trkpt>
<trkpt lat="44.9567715" lon="5.4010296">
<ele>846.94</ele>
<time>2019-07-25T09:58:33Z</time>
</trkpt>
<trkpt lat="44.9567738" lon="5.4010132">
<ele>846.95</ele>
<time>2019-07-25T09:58:34Z</time>
</trkpt>
<trkpt lat="44.9567728" lon="5.4009855">
<ele>846.97</ele>
<time>2019-07-25T09:58:35Z</time>
</trkpt>
<trkpt lat="44.9567721" lon="5.4009596">
<ele>846.98</ele>
<time>2019-07-25T09:58:36Z</time>
</trkpt>
<trkpt lat="44.9567771" lon="5.4009270">
<ele>847.00</ele>
<time>2019-07-25T09:58:37Z</time>
</trkpt>
<trkpt lat="44.9567811" lon="5.4008911">
<ele>847.01</ele>
<time>2019-07-25T09:58:38Z</time>
</trkpt>
<trkpt lat="44.9567828" lon="5.4008593">
<ele>847.03</ele>
<time>2019-07-25T09:58:39Z</time>
</trkpt>
<trkpt lat="44.9567830" lon="5.4008346">
<ele>847.05</ele>
<time>2019-07-25T09:58:40Z</time>
</trkpt>
<trkpt lat="44.9567852" lon="5.4007966">
<ele>847.06</ele>
<time>2019-07-25T09:58:41Z</time>
</trkpt>
<trkpt lat="44.9567908" lon="5.4007568">
<ele>847.08</ele>
<time>2019-07-25T09:58:42Z</time>
</trkpt>
<trkpt lat="44.9567996" lon="5.4007114">
<ele>847.10</ele>
<time>2019-07-25T09:58:43Z</time>
</trkpt>
<trkpt lat="44.9568054" lon="5.4006620">
<ele>847.12</ele>
<time>2019-07-25T09:58:44Z</time>
</trkpt>
<trkpt lat="44.9568246" lon="5.4006075">
<ele>847.15</ele>
<time>2019-07-25T09:58:45Z</time>
</trkpt>
<trkpt lat="44.9568525" lon="5.4005743">
<ele>847.17</ele>
<time>2019-07-25T09:58:46Z</time>
</trkpt>
<trkpt lat="44.9568613" lon="5.4005579">
<ele>847.19</ele>
<time>2019-07-25T09:58:47Z</time>
</trkpt>
<trkpt lat="44.9568658" lon="5.4005241">
<ele>847.21</ele>
<time>2019-07-25T09:58:48Z</time>
</trkpt>
<trkpt lat="44.9568652" lon="5.4005149">
<ele>847.24</ele>
<time>2019-07-25T09:58:49Z</time>
</trkpt>
<trkpt lat="44.9568656" lon="5.4004607">
<ele>847.26</ele>
<time>2019-07-25T09:58:50Z</time>
</trkpt>
<trkpt lat="44.9568767" lon="5.4004137">
<ele>847.27</ele>
<time>2019-07-25T09:58:51Z</time>
</trkpt>
<trkpt lat="44.9568788" lon="5.4003741">
<ele>847.30</ele>
<time>2019-07-25T09:58:52Z</time>
</trkpt>
<trkpt lat="44.9568835" lon="5.4003450">
<ele>847.32</ele>
<time>2019-07-25T09:58:53Z</time>
</trkpt>
<trkpt lat="44.9568778" lon="5.4002956">
<ele>847.34</ele>
<time>2019-07-25T09:58:54Z</time>
</trkpt>
<trkpt lat="44.9568862" lon="5.4002409">
<ele>847.36</ele>
<time>2019-07-25T09:58:55Z</time>
</trkpt>
<trkpt lat="44.9568910" lon="5.4001760">
<ele>847.38</ele>
<time>2019-07-25T09:58:56Z</time>
</trkpt>
<trkpt lat="44.9569031" lon="5.4001388">
<ele>847.40</ele>
<time>2019-07-25T09:58:57Z</time>
</trkpt>
<trkpt lat="44.9569008" lon="5.4001314">
<ele>847.42</ele>
<time>2019-07-25T09:58:58Z</time>
</trkpt>
<trkpt lat="44.9569039" lon="5.4001134">
<ele>847.44</ele>
<time>2019-07-25T09:58:59Z</time>
</trkpt>
<trkpt lat="44.9569108" lon="5.4000741">
<ele>847.46</ele>
<time>2019-07-25T09:59:00Z</time>
</trkpt>
<trkpt lat="44.9569137" lon="5.4000367">
<ele>847.49</ele>
<time>2019-07-25T09:59:01Z</time>
</trkpt>
<trkpt lat="44.9569127" lon="5.4000237">
<ele>847.51</ele>
<time>2019-07-25T09:59:02Z</time>
</trkpt>
<trkpt lat="44.9569261" lon="5.3999871">
<ele>847.54</ele>
<time>2019-07-25T09:59:03Z</time>
</trkpt>
<trkpt lat="44.9569434" lon="5.3999534">
<ele>847.56</ele>
<time>2019-07-25T09:59:04Z</time>
</trkpt>
<trkpt lat="44.9569560" lon="5.3999250">
<ele>847.58</ele>
<time>2019-07-25T09:59:05Z</time>
</trkpt>
<trkpt lat="44.9569597" lon="5.3999072">
<ele>847.61</ele>
<time>2019-07-25T09:59:06Z</time>
</trkpt>
<trkpt lat="44.9569651" lon="5.3998942">
<ele>847.64</ele>
<time>2019-07-25T09:59:07Z</time>
</trkpt>
<trkpt lat="44.9569744" lon="5.3998651">
<ele>847.66</ele>
<time>2019-07-25T09:59:08Z</time>
</trkpt>
<trkpt lat="44.9569834" lon="5.3998484">
<ele>847.69</ele>
<time>2019-07-25T09:59:09Z</time>
</trkpt>
<trkpt lat="44.9569867" lon="5.3998338">
<ele>847.72</ele>
<time>2019-07-25T09:59:10Z</time>
</trkpt>
<trkpt lat="44.9569936" lon="5.3998271">
<ele>847.74</ele>
<time>2019-07-25T09:59:11Z</time>
</trkpt>
<trkpt lat="44.9570089" lon="5.3998103">
<ele>847.76</ele>
<time>2019-07-25T09:59:12Z</time>
</trkpt>
<trkpt lat="44.9570280" lon="5.3998098">
<ele>847.79</ele>
<time>2019-07-25T09:59:13Z</time>
</trkpt>
<trkpt lat="44.9570391" lon="5.3997950">
<ele>847.81</ele>
<time>2019-07-25T09:59:14Z</time>
</trkpt>
<trkpt lat="44.9570420" lon="5.3997780">
<ele>847.84</ele>
<time>2019-07-25T09:59:15Z</time>
</trkpt>
<trkpt lat="44.9570534" lon="5.3997633">
<ele>847.86</ele>
<time>2019-07-25T09:59:16Z</time>
</trkpt>
<trkpt lat="44.9570553" lon="5.3997540">
<ele>847.88</ele>
<time>2019-07-25T09:59:17Z</time>
</trkpt>
<trkpt lat="44.9570746" lon="5.3997438">
<ele>847.90</ele>
<time>2019-07-25T09:59:18Z</time>
</trkpt>
<trkpt lat="44.9570851" lon="5.3997239">
<ele>847.92</ele>
<time>2019-07-25T09:59:19Z</time>
</trkpt>
<trkpt lat="44.9570892" lon="5.3997204">
<ele>847.94</ele>
<time>2019-07-25T09:59:20Z</time>
</trkpt>
<trkpt lat="44.9571002" lon="5.3997084">
<ele>847.96</ele>
<time>2019-07-25T09:59:21Z</time>
</trkpt>
<trkpt lat="44.9570968" lon="5.3997099">
<ele>847.99</ele>
<time>2019-07-25T09:59:22Z</time>
</trkpt>
<trkpt lat="44.9571126" lon="5.3997127">
<ele>847.99</ele>
<time>2019-07-25T09:59:23Z</time>
</trkpt>
<trkpt lat="44.9571210" lon="5.3996914">
<ele>847.99</ele>
<time>2019-07-25T09:59:24Z</time>
</trkpt>
<trkpt lat="44.9571229" lon="5.3996905">
<ele>847.99</ele>
<time>2019-07-25T09:59:25Z</time>
</trkpt>
<trkpt lat="44.9571394" lon="5.3996852">
<ele>848.01</ele>
<time>2019-07-25T09:59:26Z</time>
</trkpt>
<trkpt lat="44.9571576" lon="5.3996470">
<ele>848.02</ele>
<time>2019-07-25T09:59:27Z</time>
</trkpt>
<trkpt lat="44.9571586" lon="5.3996463">
<ele>848.02</ele>
<time>2019-07-25T09:59:28Z</time>
</trkpt>
<trkpt lat="44.9571594" lon="5.3996458">
<ele>848.02</ele>
<time>2019-07-25T09:59:29Z</time>
</trkpt>
<trkpt lat="44.9571605" lon="5.3996446">
<ele>848.02</ele>
<time>2019-07-25T09:59:30Z</time>
</trkpt>
<trkpt lat="44.9571608" lon="5.3996441">
<ele>848.03</ele>
<time>2019-07-25T09:59:31Z</time>
</trkpt>
<trkpt lat="44.9571615" lon="5.3996430">
<ele>848.03</ele>
<time>2019-07-25T09:59:32Z</time>
</trkpt>
<trkpt lat="44.9571629" lon="5.3996412">
<ele>848.04</ele>
<time>2019-07-25T09:59:33Z</time>
</trkpt>
<trkpt lat="44.9571632" lon="5.3996410">
<ele>848.04</ele>
<time>2019-07-25T09:59:34Z</time>
</trkpt>
<trkpt lat="44.9571629" lon="5.3996409">
<ele>848.04</ele>
<time>2019-07-25T09:59:35Z</time>
</trkpt>
<trkpt lat="44.9571630" lon="5.3996388">
<ele>848.05</ele>
<time>2019-07-25T09:59:36Z</time>
</trkpt>
<trkpt lat="44.9571625" lon="5.3996384">
<ele>848.05</ele>
<time>2019-07-25T09:59:37Z</time>
</trkpt>
<trkpt lat="44.9571616" lon="5.3996389">
<ele>848.06</ele>
<time>2019-07-25T09:59:38Z</time>
</trkpt>
<trkpt lat="44.9571660" lon="5.3996239">
<ele>848.06</ele>
<time>2019-07-25T09:59:39Z</time>
</trkpt>
<trkpt lat="44.9571727" lon="5.3996173">
<ele>848.12</ele>
<time>2019-07-25T09:59:40Z</time>
</trkpt>
<trkpt lat="44.9571793" lon="5.3996256">
<ele>848.17</ele>
<time>2019-07-25T09:59:41Z</time>
</trkpt>
<trkpt lat="44.9571722" lon="5.3996223">
<ele>848.23</ele>
<time>2019-07-25T09:59:42Z</time>
</trkpt>
<trkpt lat="44.9571775" lon="5.3996020">
<ele>848.24</ele>
<time>2019-07-25T09:59:43Z</time>
</trkpt>
<trkpt lat="44.9571700" lon="5.3995982">
<ele>848.25</ele>
<time>2019-07-25T09:59:44Z</time>
</trkpt>
<trkpt lat="44.9571775" lon="5.3995940">
<ele>848.31</ele>
<time>2019-07-25T09:59:45Z</time>
</trkpt>
<trkpt lat="44.9571914" lon="5.3995805">
<ele>848.38</ele>
<time>2019-07-25T09:59:46Z</time>
</trkpt>
<trkpt lat="44.9571906" lon="5.3995817">
<ele>848.44</ele>
<time>2019-07-25T09:59:47Z</time>
</trkpt>
<trkpt lat="44.9571890" lon="5.3995787">
<ele>848.51</ele>
<time>2019-07-25T09:59:48Z</time>
</trkpt>
<trkpt lat="44.9572058" lon="5.3995650">
<ele>848.51</ele>
<time>2019-07-25T09:59:49Z</time>
</trkpt>
<trkpt lat="44.9572201" lon="5.3995489">
<ele>848.58</ele>
<time>2019-07-25T09:59:50Z</time>
</trkpt>
<trkpt lat="44.9572229" lon="5.3995445">
<ele>848.65</ele>
<time>2019-07-25T09:59:51Z</time>
</trkpt>
<trkpt lat="44.9572207" lon="5.3995390">
<ele>848.71</ele>
<time>2019-07-25T09:59:52Z</time>
</trkpt>
<trkpt lat="44.9572277" lon="5.3995394">
<ele>848.78</ele>
<time>2019-07-25T09:59:53Z</time>
</trkpt>
<trkpt lat="44.9572341" lon="5.3995436">
<ele>848.85</ele>
<time>2019-07-25T09:59:54Z</time>
</trkpt>
<trkpt lat="44.9572401" lon="5.3995506">
<ele>848.92</ele>
<time>2019-07-25T09:59:55Z</time>
</trkpt>
<trkpt lat="44.9572378" lon="5.3995443">
<ele>848.93</ele>
<time>2019-07-25T09:59:56Z</time>
</trkpt>
<trkpt lat="44.9572441" lon="5.3995399">
<ele>849.00</ele>
<time>2019-07-25T09:59:57Z</time>
</trkpt>
<trkpt lat="44.9572461" lon="5.3995385">
<ele>849.01</ele>
<time>2019-07-25T09:59:58Z</time>
</trkpt>
<trkpt lat="44.9572351" lon="5.3995437">
<ele>849.09</ele>
<time>2019-07-25T09:59:59Z</time>
</trkpt>
<trkpt lat="44.9572487" lon="5.3995369">
<ele>849.17</ele>
<time>2019-07-25T10:00:00Z</time>
</trkpt>
<trkpt lat="44.9572591" lon="5.3995236">
<ele>849.25</ele>
<time>2019-07-25T10:00:01Z</time>
</trkpt>
<trkpt lat="44.9572599" lon="5.3995222">
<ele>849.33</ele>
<time>2019-07-25T10:00:02Z</time>
</trkpt>
<trkpt lat="44.9572635" lon="5.3995181">
<ele>849.34</ele>
<time>2019-07-25T10:00:03Z</time>
</trkpt>
<trkpt lat="44.9572573" lon="5.3995179">
<ele>849.42</ele>
<time>2019-07-25T10:00:04Z</time>
</trkpt>
<trkpt lat="44.9572575" lon="5.3995129">
<ele>849.43</ele>
<time>2019-07-25T10:00:05Z</time>
</trkpt>
<trkpt lat="44.9572628" lon="5.3995058">
<ele>849.50</ele>
<time>2019-07-25T10:00:06Z</time>
</trkpt>
<trkpt lat="44.9572697" lon="5.3995042">
<ele>849.58</ele>
<time>2019-07-25T10:00:07Z</time>
</trkpt>
<trkpt lat="44.9572721" lon="5.3995053">
<ele>849.59</ele>
<time>2019-07-25T10:00:08Z</time>
</trkpt>
<trkpt lat="44.9572733" lon="5.3995094">
<ele>849.60</ele>
<time>2019-07-25T10:00:09Z</time>
</trkpt>
<trkpt lat="44.9572622" lon="5.3995085">
<ele>849.68</ele>
<time>2019-07-25T10:00:10Z</time>
</trkpt>
<trkpt lat="44.9572651" lon="5.3994988">
<ele>849.76</ele>
<time>2019-07-25T10:00:11Z</time>
</trkpt>
<trkpt lat="44.9572812" lon="5.3994902">
<ele>849.77</ele>
<time>2019-07-25T10:00:12Z</time>
</trkpt>
<trkpt lat="44.9572785" lon="5.3994842">
<ele>849.78</ele>
<time>2019-07-25T10:00:13Z</time>
</trkpt>
<trkpt lat="44.9572707" lon="5.3994831">
<ele>849.86</ele>
<time>2019-07-25T10:00:14Z</time>
</trkpt>
<trkpt lat="44.9572658" lon="5.3994835">
<ele>849.87</ele>
<time>2019-07-25T10:00:15Z</time>
</trkpt>
<trkpt lat="44.9572794" lon="5.3994815">
<ele>849.88</ele>
<time>2019-07-25T10:00:16Z</time>
</trkpt>
<trkpt lat="44.9572831" lon="5.3994799">
<ele>849.89</ele>
<time>2019-07-25T10:00:17Z</time>
</trkpt>
<trkpt lat="44.9572831" lon="5.3994798">
<ele>849.90</ele>
<time>2019-07-25T10:00:18Z</time>
</trkpt>
<trkpt lat="44.9572833" lon="5.3994797">
<ele>849.91</ele>
<time>2019-07-25T10:00:19Z</time>
</trkpt>
<trkpt lat="44.9572833" lon="5.3994796">
<ele>849.92</ele>
<time>2019-07-25T10:00:20Z</time>
</trkpt>
<trkpt lat="44.9572834" lon="5.3994795">
<ele>849.92</ele>
<time>2019-07-25T10:00:21Z</time>
</trkpt>
<trkpt lat="44.9572837" lon="5.3994795">
<ele>849.93</ele>
<time>2019-07-25T10:00:22Z</time>
</trkpt>
<trkpt lat="44.9572839" lon="5.3994794">
<ele>849.94</ele>
<time>2019-07-25T10:00:23Z</time>
</trkpt>
<trkpt lat="44.9572842" lon="5.3994793">
<ele>849.95</ele>
<time>2019-07-25T10:00:24Z</time>
</trkpt>
<trkpt lat="44.9572844" lon="5.3994792">
<ele>849.96</ele>
<time>2019-07-25T10:00:25Z</time>
</trkpt>
<trkpt lat="44.9572847" lon="5.3994790">
<ele>849.97</ele>
<time>2019-07-25T10:00:26Z</time>
</trkpt>
<trkpt lat="44.9572849" lon="5.3994789">
<ele>849.98</ele>
<time>2019-07-25T10:00:27Z</time>
</trkpt>
<trkpt lat="44.9572849" lon="5.3994788">
<ele>849.99</ele>
<time>2019-07-25T10:00:28Z</time>
</trkpt>
<trkpt lat="44.9572851" lon="5.3994788">
<ele>850.00</ele>
<time>2019-07-25T10:00:29Z</time>
</trkpt>
<trkpt lat="44.9572853" lon="5.3994788">
<ele>850.01</ele>
<time>2019-07-25T10:00:30Z</time>
</trkpt>
<trkpt lat="44.9572853" lon="5.3994787">
<ele>850.02</ele>
<time>2019-07-25T10:00:31Z</time>
</trkpt>
<trkpt lat="44.9572855" lon="5.3994787">
<ele>850.03</ele>
<time>2019-07-25T10:00:32Z</time>
</trkpt>
<trkpt lat="44.9572856" lon="5.3994786">
<ele>850.04</ele>
<time>2019-07-25T10:00:33Z</time>
</trkpt>
<trkpt lat="44.9572857" lon="5.3994786">
<ele>850.05</ele>
<time>2019-07-25T10:00:34Z</time>
</trkpt>
<trkpt lat="44.9572858" lon="5.3994786">
<ele>850.06</ele>
<time>2019-07-25T10:00:35Z</time>
</trkpt>
<trkpt lat="44.9572859" lon="5.3994786">
<ele>850.07</ele>
<time>2019-07-25T10:00:36Z</time>
</trkpt>
<trkpt lat="44.9572861" lon="5.3994786">
<ele>850.08</ele>
<time>2019-07-25T10:00:37Z</time>
</trkpt>
<trkpt lat="44.9572862" lon="5.3994786">
<ele>850.08</ele>
<time>2019-07-25T10:00:38Z</time>
</trkpt>
<trkpt lat="44.9572863" lon="5.3994786">
<ele>850.09</ele>
<time>2019-07-25T10:00:39Z</time>
</trkpt>
<trkpt lat="44.9572867" lon="5.3994786">
<ele>850.10</ele>
<time>2019-07-25T10:00:40Z</time>
</trkpt>
<trkpt lat="44.9572868" lon="5.3994786">
<ele>850.11</ele>
<time>2019-07-25T10:00:41Z</time>
</trkpt>
<trkpt lat="44.9572870" lon="5.3994786">
<ele>850.12</ele>
<time>2019-07-25T10:00:42Z</time>
</trkpt>
<trkpt lat="44.9572871" lon="5.3994785">
<ele>850.13</ele>
<time>2019-07-25T10:00:43Z</time>
</trkpt>
<trkpt lat="44.9572872" lon="5.3994785">
<ele>850.14</ele>
<time>2019-07-25T10:00:44Z</time>
</trkpt>
<trkpt lat="44.9572877" lon="5.3994784">
<ele>850.15</ele>
<time>2019-07-25T10:00:45Z</time>
</trkpt>
<trkpt lat="44.9572880" lon="5.3994785">
<ele>850.16</ele>
<time>2019-07-25T10:00:46Z</time>
</trkpt>
<trkpt lat="44.9572882" lon="5.3994784">
<ele>850.17</ele>
<time>2019-07-25T10:00:47Z</time>
</trkpt>
<trkpt lat="44.9572882" lon="5.3994784">
<ele>850.17</ele>
<time>2019-07-25T10:00:48Z</time>
</trkpt>
<trkpt lat="44.9572883" lon="5.3994783">
<ele>850.18</ele>
<time>2019-07-25T10:00:49Z</time>
</trkpt>
<trkpt lat="44.9572884" lon="5.3994783">
<ele>850.19</ele>
<time>2019-07-25T10:00:50Z</time>
</trkpt>
<trkpt lat="44.9572890" lon="5.3994783">
<ele>850.20</ele>
<time>2019-07-25T10:00:51Z</time>
</trkpt>
<trkpt lat="44.9572891" lon="5.3994783">
<ele>850.21</ele>
<time>2019-07-25T10:00:52Z</time>
</trkpt>
<trkpt lat="44.9572892" lon="5.3994782">
<ele>850.22</ele>
<time>2019-07-25T10:00:53Z</time>
</trkpt>
<trkpt lat="44.9572894" lon="5.3994782">
<ele>850.23</ele>
<time>2019-07-25T10:00:54Z</time>
</trkpt>
<trkpt lat="44.9572894" lon="5.3994781">
<ele>850.24</ele>
<time>2019-07-25T10:00:55Z</time>
</trkpt>
<trkpt lat="44.9572896" lon="5.3994780">
<ele>850.25</ele>
<time>2019-07-25T10:00:56Z</time>
</trkpt>
<trkpt lat="44.9572906" lon="5.3994780">
<ele>850.26</ele>
<time>2019-07-25T10:00:57Z</time>
</trkpt>
<trkpt lat="44.9572909" lon="5.3994779">
<ele>850.26</ele>
<time>2019-07-25T10:00:58Z</time>
</trkpt>
<trkpt lat="44.9572920" lon="5.3994779">
<ele>850.27</ele>
<time>2019-07-25T10:00:59Z</time>
</trkpt>
<trkpt lat="44.9572934" lon="5.3994778">
<ele>850.28</ele>
<time>2019-07-25T10:01:00Z</time>
</trkpt>
<trkpt lat="44.9572947" lon="5.3994778">
<ele>850.29</ele>
<time>2019-07-25T10:01:01Z</time>
</trkpt>
<trkpt lat="44.9572955" lon="5.3994777">
<ele>850.29</ele>
<time>2019-07-25T10:01:02Z</time>
</trkpt>
<trkpt lat="44.9572957" lon="5.3994775">
<ele>850.30</ele>
<time>2019-07-25T10:01:03Z</time>
</trkpt>
<trkpt lat="44.9572958" lon="5.3994773">
<ele>850.31</ele>
<time>2019-07-25T10:01:04Z</time>
</trkpt>
<trkpt lat="44.9572959" lon="5.3994771">
<ele>850.32</ele>
<time>2019-07-25T10:01:05Z</time>
</trkpt>
<trkpt lat="44.9572963" lon="5.3994770">
<ele>850.33</ele>
<time>2019-07-25T10:01:06Z</time>
</trkpt>
<trkpt lat="44.9572965" lon="5.3994769">
<ele>850.33</ele>
<time>2019-07-25T10:01:07Z</time>
</trkpt>
<trkpt lat="44.9572969" lon="5.3994768">
<ele>850.34</ele>
<time>2019-07-25T10:01:08Z</time>
</trkpt>
<trkpt lat="44.9572974" lon="5.3994767">
<ele>850.35</ele>
<time>2019-07-25T10:01:09Z</time>
</trkpt>
<trkpt lat="44.9572977" lon="5.3994765">
<ele>850.36</ele>
<time>2019-07-25T10:01:10Z</time>
</trkpt>
<trkpt lat="44.9572978" lon="5.3994764">
<ele>850.36</ele>
<time>2019-07-25T10:01:11Z</time>
</trkpt>
<trkpt lat="44.9572976" lon="5.3994762">
<ele>850.37</ele>
<time>2019-07-25T10:01:12Z</time>
</trkpt>
<trkpt lat="44.9572984" lon="5.3994764">
<ele>850.38</ele>
<time>2019-07-25T10:01:13Z</time>
</trkpt>
<trkpt lat="44.9572995" lon="5.3994824">
<ele>850.45</ele>
<time>2019-07-25T10:01:14Z</time>
</trkpt>
<trkpt lat="44.9573084" lon="5.3994743">
<ele>850.46</ele>
<time>2019-07-25T10:01:15Z</time>
</trkpt>
<trkpt lat="44.9573116" lon="5.3994776">
<ele>850.46</ele>
<time>2019-07-25T10:01:16Z</time>
</trkpt>
<trkpt lat="44.9573125" lon="5.3994785">
<ele>850.47</ele>
<time>2019-07-25T10:01:17Z</time>
</trkpt>
<trkpt lat="44.9573098" lon="5.3994829">
<ele>850.48</ele>
<time>2019-07-25T10:01:18Z</time>
</trkpt>
<trkpt lat="44.9573095" lon="5.3994843">
<ele>850.49</ele>
<time>2019-07-25T10:01:19Z</time>
</trkpt>
<trkpt lat="44.9573092" lon="5.3994851">
<ele>850.49</ele>
<time>2019-07-25T10:01:20Z</time>
</trkpt>
<trkpt lat="44.9573096" lon="5.3994857">
<ele>850.50</ele>
<time>2019-07-25T10:01:21Z</time>
</trkpt>
<trkpt lat="44.9573113" lon="5.3994833">
<ele>850.57</ele>
<time>2019-07-25T10:01:22Z</time>
</trkpt>
<trkpt lat="44.9573057" lon="5.3994869">
<ele>850.64</ele>
<time>2019-07-25T10:01:23Z</time>
</trkpt>
<trkpt lat="44.9573014" lon="5.3994789">
<ele>850.70</ele>
<time>2019-07-25T10:01:24Z</time>
</trkpt>
<trkpt lat="44.9572965" lon="5.3994501">
<ele>850.77</ele>
<time>2019-07-25T10:01:25Z</time>
</trkpt>
<trkpt lat="44.9572841" lon="5.3994485">
<ele>850.84</ele>
<time>2019-07-25T10:01:26Z</time>
</trkpt>
<trkpt lat="44.9572723" lon="5.3994406">
<ele>850.91</ele>
<time>2019-07-25T10:01:27Z</time>
</trkpt>
<trkpt lat="44.9572470" lon="5.3994433">
<ele>850.98</ele>
<time>2019-07-25T10:01:28Z</time>
</trkpt>
<trkpt lat="44.9572200" lon="5.3994391">
<ele>851.05</ele>
<time>2019-07-25T10:01:29Z</time>
</trkpt>
<trkpt lat="44.9571743" lon="5.3994402">
<ele>851.11</ele>
<time>2019-07-25T10:01:30Z</time>
</trkpt>
<trkpt lat="44.9571347" lon="5.3994279">
<ele>851.18</ele>
<time>2019-07-25T10:01:31Z</time>
</trkpt>
<trkpt lat="44.9571165" lon="5.3994140">
<ele>851.24</ele>
<time>2019-07-25T10:01:32Z</time>
</trkpt>
<trkpt lat="44.9570942" lon="5.3993873">
<ele>851.31</ele>
<time>2019-07-25T10:01:33Z</time>
</trkpt>
<trkpt lat="44.9570713" lon="5.3993737">
<ele>851.37</ele>
<time>2019-07-25T10:01:34Z</time>
</trkpt>
<trkpt lat="44.9570411" lon="5.3993890">
<ele>851.44</ele>
<time>2019-07-25T10:01:35Z</time>
</trkpt>
<trkpt lat="44.9570142" lon="5.3993802">
<ele>851.50</ele>
<time>2019-07-25T10:01:36Z</time>
</trkpt>
<trkpt lat="44.9569814" lon="5.3993552">
<ele>851.56</ele>
<time>2019-07-25T10:01:37Z</time>
</trkpt>
<trkpt lat="44.9569559" lon="5.3993577">
<ele>851.63</ele>
<time>2019-07-25T10:01:38Z</time>
</trkpt>
<trkpt lat="44.9569209" lon="5.3993603">
<ele>851.69</ele>
<time>2019-07-25T10:01:39Z</time>
</trkpt>
<trkpt lat="44.9568951" lon="5.3993567">
<ele>851.76</ele>
<time>2019-07-25T10:01:40Z</time>
</trkpt>
<trkpt lat="44.9568577" lon="5.3993692">
<ele>851.83</ele>
<time>2019-07-25T10:01:41Z</time>
</trkpt>
<trkpt lat="44.9568416" lon="5.3993771">
<ele>851.89</ele>
<time>2019-07-25T10:01:42Z</time>
</trkpt>
<trkpt lat="44.9568142" lon="5.3993784">
<ele>851.96</ele>
<time>2019-07-25T10:01:43Z</time>
</trkpt>
<trkpt lat="44.9567785" lon="5.3993684">
<ele>852.03</ele>
<time>2019-07-25T10:01:44Z</time>
</trkpt>
<trkpt lat="44.9567421" lon="5.3993586">
<ele>852.09</ele>
<time>2019-07-25T10:01:45Z</time>
</trkpt>
<trkpt lat="44.9567208" lon="5.3993406">
<ele>852.16</ele>
<time>2019-07-25T10:01:46Z</time>
</trkpt>
<trkpt lat="44.9567011" lon="5.3993549">
<ele>852.23</ele>
<time>2019-07-25T10:01:47Z</time>
</trkpt>
<trkpt lat="44.9567034" lon="5.3993417">
<ele>852.30</ele>
<time>2019-07-25T10:01:48Z</time>
</trkpt>
<trkpt lat="44.9567123" lon="5.3993290">
<ele>852.36</ele>
<time>2019-07-25T10:01:49Z</time>
</trkpt>
<trkpt lat="44.9567170" lon="5.3993326">
<ele>852.43</ele>
<time>2019-07-25T10:01:50Z</time>
</trkpt>
<trkpt lat="44.9567017" lon="5.3993282">
<ele>852.49</ele>
<time>2019-07-25T10:01:51Z</time>
</trkpt>
<trkpt lat="44.9566887" lon="5.3993149">
<ele>852.55</ele>
<time>2019-07-25T10:01:52Z</time>
</trkpt>
<trkpt lat="44.9566613" lon="5.3993286">
<ele>852.61</ele>
<time>2019-07-25T10:01:53Z</time>
</trkpt>
<trkpt lat="44.9566346" lon="5.3993659">
<ele>852.68</ele>
<time>2019-07-25T10:01:54Z</time>
</trkpt>
<trkpt lat="44.9566187" lon="5.3993581">
<ele>852.75</ele>
<time>2019-07-25T10:01:55Z</time>
</trkpt>
<trkpt lat="44.9566002" lon="5.3993538">
<ele>852.81</ele>
<time>2019-07-25T10:01:56Z</time>
</trkpt>
<trkpt lat="44.9565860" lon="5.3993515">
<ele>852.88</ele>
<time>2019-07-25T10:01:57Z</time>
</trkpt>
<trkpt lat="44.9565758" lon="5.3993489">
<ele>852.93</ele>
<time>2019-07-25T10:01:58Z</time>
</trkpt>
<trkpt lat="44.9565657" lon="5.3993350">
<ele>852.99</ele>
<time>2019-07-25T10:01:59Z</time>
</trkpt>
<trkpt lat="44.9565637" lon="5.3993355">
<ele>853.00</ele>
<time>2019-07-25T10:02:00Z</time>
</trkpt>
<trkpt lat="44.9565638" lon="5.3993356">
<ele>853.00</ele>
<time>2019-07-25T10:02:01Z</time>
</trkpt>
<trkpt lat="44.9565639" lon="5.3993358">
<ele>853.01</ele>
<time>2019-07-25T10:02:02Z</time>
</trkpt>
<trkpt lat="44.9565640" lon="5.3993361">
<ele>853.01</ele>
<time>2019-07-25T10:02:03Z</time>
</trkpt>
<trkpt lat="44.9565646" lon="5.3993367">
<ele>853.02</ele>
<time>2019-07-25T10:02:04Z</time>
</trkpt>
<trkpt lat="44.9565650" lon="5.3993371">
<ele>853.02</ele>
<time>2019-07-25T10:02:05Z</time>
</trkpt>
<trkpt lat="44.9565651" lon="5.3993377">
<ele>853.03</ele>
<time>2019-07-25T10:02:06Z</time>
</trkpt>
<trkpt lat="44.9565649" lon="5.3993387">
<ele>853.04</ele>
<time>2019-07-25T10:02:07Z</time>
</trkpt>
<trkpt lat="44.9565649" lon="5.3993394">
<ele>853.04</ele>
<time>2019-07-25T10:02:08Z</time>
</trkpt>
<trkpt lat="44.9565654" lon="5.3993392">
<ele>853.05</ele>
<time>2019-07-25T10:02:09Z</time>
</trkpt>
<trkpt lat="44.9565659" lon="5.3993394">
<ele>853.06</ele>
<time>2019-07-25T10:02:10Z</time>
</trkpt>
<trkpt lat="44.9565665" lon="5.3993397">
<ele>853.06</ele>
<time>2019-07-25T10:02:11Z</time>
</trkpt>
<trkpt lat="44.9565669" lon="5.3993405">
<ele>853.07</ele>
<time>2019-07-25T10:02:12Z</time>
</trkpt>
<trkpt lat="44.9565670" lon="5.3993409">
<ele>853.08</ele>
<time>2019-07-25T10:02:13Z</time>
</trkpt>
<trkpt lat="44.9565657" lon="5.3993411">
<ele>853.08</ele>
<time>2019-07-25T10:02:14Z</time>
</trkpt>
<trkpt lat="44.9565603" lon="5.3993372">
<ele>853.15</ele>
<time>2019-07-25T10:02:15Z</time>
</trkpt>
<trkpt lat="44.9565230" lon="5.3993379">
<ele>853.22</ele>
<time>2019-07-25T10:02:16Z</time>
</trkpt>
<trkpt lat="44.9564988" lon="5.3993437">
<ele>853.29</ele>
<time>2019-07-25T10:02:17Z</time>
</trkpt>
<trkpt lat="44.9564707" lon="5.3993465">
<ele>853.36</ele>
<time>2019-07-25T10:02:18Z</time>
</trkpt>
<trkpt lat="44.9564461" lon="5.3993466">
<ele>853.43</ele>
<time>2019-07-25T10:02:19Z</time>
</trkpt>
<trkpt lat="44.9564146" lon="5.3993649">
<ele>853.50</ele>
<time>2019-07-25T10:02:20Z</time>
</trkpt>
<trkpt lat="44.9563746" lon="5.3993627">
<ele>853.58</ele>
<time>2019-07-25T10:02:21Z</time>
</trkpt>
<trkpt lat="44.9563317" lon="5.3993537">
<ele>853.66</ele>
<time>2019-07-25T10:02:22Z</time>
</trkpt>
<trkpt lat="44.9562924" lon="5.3993559">
<ele>853.74</ele>
<time>2019-07-25T10:02:23Z</time>
</trkpt>
<trkpt lat="44.9562637" lon="5.3993558">
<ele>853.82</ele>
<time>2019-07-25T10:02:24Z</time>
</trkpt>
<trkpt lat="44.9562491" lon="5.3993425">
<ele>853.90</ele>
<time>2019-07-25T10:02:25Z</time>
</trkpt>
<trkpt lat="44.9562235" lon="5.3993260">
<ele>853.99</ele>
<time>2019-07-25T10:02:26Z</time>
</trkpt>
<trkpt lat="44.9561939" lon="5.3993288">
<ele>854.08</ele>
<time>2019-07-25T10:02:27Z</time>
</trkpt>
<trkpt lat="44.9561625" lon="5.3993306">
<ele>854.17</ele>
<time>2019-07-25T10:02:28Z</time>
</trkpt>
<trkpt lat="44.9561493" lon="5.3993100">
<ele>854.26</ele>
<time>2019-07-25T10:02:29Z</time>
</trkpt>
<trkpt lat="44.9561190" lon="5.3993052">
<ele>854.36</ele>
<time>2019-07-25T10:02:30Z</time>
</trkpt>
<trkpt lat="44.9560990" lon="5.3992885">
<ele>854.46</ele>
<time>2019-07-25T10:02:31Z</time>
</trkpt>
<trkpt lat="44.9560757" lon="5.3992720">
<ele>854.55</ele>
<time>2019-07-25T10:02:32Z</time>
</trkpt>
<trkpt lat="44.9560604" lon="5.3992680">
<ele>854.65</ele>
<time>2019-07-25T10:02:33Z</time>
</trkpt>
<trkpt lat="44.9560453" lon="5.3992418">
<ele>854.75</ele>
<time>2019-07-25T10:02:34Z</time>
</trkpt>
<trkpt lat="44.9560227" lon="5.3992190">
<ele>854.85</ele>
<time>2019-07-25T10:02:35Z</time>
</trkpt>
<trkpt lat="44.9560167" lon="5.3992235">
<ele>854.96</ele>
<time>2019-07-25T10:02:36Z</time>
</trkpt>
<trkpt lat="44.9560102" lon="5.3992293">
<ele>855.07</ele>
<time>2019-07-25T10:02:37Z</time>
</trkpt>
<trkpt lat="44.9559795" lon="5.3992227">
<ele>855.18</ele>
<time>2019-07-25T10:02:38Z</time>
</trkpt>
<trkpt lat="44.9559427" lon="5.3992199">
<ele>855.29</ele>
<time>2019-07-25T10:02:39Z</time>
</trkpt>
<trkpt lat="44.9558936" lon="5.3992231">
<ele>855.40</ele>
<time>2019-07-25T10:02:40Z</time>
</trkpt>
<trkpt lat="44.9558596" lon="5.3992302">
<ele>855.51</ele>
<time>2019-07-25T10:02:41Z</time>
</trkpt>
<trkpt lat="44.9558283" lon="5.3992300">
<ele>855.62</ele>
<time>2019-07-25T10:02:42Z</time>
</trkpt>
<trkpt lat="44.9557920" lon="5.3992279">
<ele>855.74</ele>
<time>2019-07-25T10:02:43Z</time>
</trkpt>
<trkpt lat="44.9557614" lon="5.3992242">
<ele>855.85</ele>
<time>2019-07-25T10:02:44Z</time>
</trkpt>
<trkpt lat="44.9557411" lon="5.3991973">
<ele>855.96</ele>
<time>2019-07-25T10:02:45Z</time>
</trkpt>
<trkpt lat="44.9557054" lon="5.3991865">
<ele>856.08</ele>
<time>2019-07-25T10:02:46Z</time>
</trkpt>
<trkpt lat="44.9556705" lon="5.3991863">
<ele>856.20</ele>
<time>2019-07-25T10:02:47Z</time>
</trkpt>
<trkpt lat="44.9556424" lon="5.3991690">
<ele>856.31</ele>
<time>2019-07-25T10:02:48Z</time>
</trkpt>
<trkpt lat="44.9556123" lon="5.3991601">
<ele>856.43</ele>
<time>2019-07-25T10:02:49Z</time>
</trkpt>
<trkpt lat="44.9555709" lon="5.3991743">
<ele>856.55</ele>
<time>2019-07-25T10:02:50Z</time>
</trkpt>
<trkpt lat="44.9555388" lon="5.3991507">
<ele>856.67</ele>
<time>2019-07-25T10:02:51Z</time>
</trkpt>
<trkpt lat="44.9555128" lon="5.3991405">
<ele>856.79</ele>
<time>2019-07-25T10:02:52Z</time>
</trkpt>
<trkpt lat="44.9554975" lon="5.3991311">
<ele>856.91</ele>
<time>2019-07-25T10:02:53Z</time>
</trkpt>
<trkpt lat="44.9554829" lon="5.3991087">
<ele>857.04</ele>
<time>2019-07-25T10:02:54Z</time>
</trkpt>
<trkpt lat="44.9554580" lon="5.3990950">
<ele>857.16</ele>
<time>2019-07-25T10:02:55Z</time>
</trkpt>
<trkpt lat="44.9554368" lon="5.3990705">
<ele>857.29</ele>
<time>2019-07-25T10:02:56Z</time>
</trkpt>
<trkpt lat="44.9554091" lon="5.3990518">
<ele>857.40</ele>
<time>2019-07-25T10:02:57Z</time>
</trkpt>
<trkpt lat="44.9553890" lon="5.3990392">
<ele>857.53</ele>
<time>2019-07-25T10:02:58Z</time>
</trkpt>
<trkpt lat="44.9553568" lon="5.3990271">
<ele>857.65</ele>
<time>2019-07-25T10:02:59Z</time>
</trkpt>
<trkpt lat="44.9553350" lon="5.3990000">
<ele>857.77</ele>
<time>2019-07-25T10:03:00Z</time>
</trkpt>
<trkpt lat="44.9552982" lon="5.3989931">
<ele>857.90</ele>
<time>2019-07-25T10:03:01Z</time>
</trkpt>
<trkpt lat="44.9552774" lon="5.3989667">
<ele>858.01</ele>
<time>2019-07-25T10:03:02Z</time>
</trkpt>
<trkpt lat="44.9552535" lon="5.3989555">
<ele>858.13</ele>
<time>2019-07-25T10:03:03Z</time>
</trkpt>
<trkpt lat="44.9552275" lon="5.3989435">
<ele>858.25</ele>
<time>2019-07-25T10:03:04Z</time>
</trkpt>
<trkpt lat="44.9551985" lon="5.3989324">
<ele>858.36</ele>
<time>2019-07-25T10:03:05Z</time>
</trkpt>
<trkpt lat="44.9551730" lon="5.3989240">
<ele>858.48</ele>
<time>2019-07-25T10:03:06Z</time>
</trkpt>
<trkpt lat="44.9551512" lon="5.3989069">
<ele>858.59</ele>
<time>2019-07-25T10:03:07Z</time>
</trkpt>
<trkpt lat="44.9551352" lon="5.3988922">
<ele>858.71</ele>
<time>2019-07-25T10:03:08Z</time>
</trkpt>
<trkpt lat="44.9551149" lon="5.3988748">
<ele>858.82</ele>
<time>2019-07-25T10:03:09Z</time>
</trkpt>
<trkpt lat="44.9550911" lon="5.3988572">
<ele>858.93</ele>
<time>2019-07-25T10:03:10Z</time>
</trkpt>
<trkpt lat="44.9550709" lon="5.3988447">
<ele>859.03</ele>
<time>2019-07-25T10:03:11Z</time>
</trkpt>
<trkpt lat="44.9550523" lon="5.3988297">
<ele>859.14</ele>
<time>2019-07-25T10:03:12Z</time>
</trkpt>
<trkpt lat="44.9550348" lon="5.3988110">
<ele>859.24</ele>
<time>2019-07-25T10:03:13Z</time>
</trkpt>
<trkpt lat="44.9550162" lon="5.3987889">
<ele>859.34</ele>
<time>2019-07-25T10:03:14Z</time>
</trkpt>
<trkpt lat="44.9549889" lon="5.3987707">
<ele>859.44</ele>
<time>2019-07-25T10:03:15Z</time>
</trkpt>
<trkpt lat="44.9549607" lon="5.3987536">
<ele>859.53</ele>
<time>2019-07-25T10:03:16Z</time>
</trkpt>
<trkpt lat="44.9549367" lon="5.3987260">
<ele>859.63</ele>
<time>2019-07-25T10:03:17Z</time>
</trkpt>
<trkpt lat="44.9549083" lon="5.3987007">
<ele>859.72</ele>
<time>2019-07-25T10:03:18Z</time>
</trkpt>
<trkpt lat="44.9548837" lon="5.3986811">
<ele>859.81</ele>
<time>2019-07-25T10:03:19Z</time>
</trkpt>
<trkpt lat="44.9548631" lon="5.3986669">
<ele>859.90</ele>
<time>2019-07-25T10:03:20Z</time>
</trkpt>
<trkpt lat="44.9548402" lon="5.3986518">
<ele>859.99</ele>
<time>2019-07-25T10:03:21Z</time>
</trkpt>
<trkpt lat="44.9548225" lon="5.3986341">
<ele>860.09</ele>
<time>2019-07-25T10:03:22Z</time>
</trkpt>
<trkpt lat="44.9548013" lon="5.3986190">
<ele>860.18</ele>
<time>2019-07-25T10:03:23Z</time>
</trkpt>
<trkpt lat="44.9547812" lon="5.3986034">
<ele>860.27</ele>
<time>2019-07-25T10:03:24Z</time>
</trkpt>
<trkpt lat="44.9547591" lon="5.3985890">
<ele>860.37</ele>
<time>2019-07-25T10:03:25Z</time>
</trkpt>
<trkpt lat="44.9547371" lon="5.3985626">
<ele>860.46</ele>
<time>2019-07-25T10:03:26Z</time>
</trkpt>
<trkpt lat="44.9547168" lon="5.3985426">
<ele>860.55</ele>
<time>2019-07-25T10:03:27Z</time>
</trkpt>
<trkpt lat="44.9546947" lon="5.3985199">
<ele>860.65</ele>
<time>2019-07-25T10:03:28Z</time>
</trkpt>
<trkpt lat="44.9546696" lon="5.3984984">
<ele>860.74</ele>
<time>2019-07-25T10:03:29Z</time>
</trkpt>
<trkpt lat="44.9546378" lon="5.3984804">
<ele>860.83</ele>
<time>2019-07-25T10:03:30Z</time>
</trkpt>
<trkpt lat="44.9546222" lon="5.3984447">
<ele>860.92</ele>
<time>2019-07-25T10:03:31Z</time>
</trkpt>
<trkpt lat="44.9545821" lon="5.3984230">
<ele>861.00</ele>
<time>2019-07-25T10:03:32Z</time>
</trkpt>
<trkpt lat="44.9545457" lon="5.3984080">
<ele>861.08</ele>
<time>2019-07-25T10:03:33Z</time>
</trkpt>
<trkpt lat="44.9545187" lon="5.3984074">
<ele>861.15</ele>
<time>2019-07-25T10:03:34Z</time>
</trkpt>
<trkpt lat="44.9544948" lon="5.3983963">
<ele>861.23</ele>
<time>2019-07-25T10:03:35Z</time>
</trkpt>
<trkpt lat="44.9544579" lon="5.3983758">
<ele>861.30</ele>
<time>2019-07-25T10:03:36Z</time>
</trkpt>
<trkpt lat="44.9544318" lon="5.3983582">
<ele>861.37</ele>
<time>2019-07-25T10:03:37Z</time>
</trkpt>
<trkpt lat="44.9544227" lon="5.3983537">
<ele>861.45</ele>
<time>2019-07-25T10:03:38Z</time>
</trkpt>
<trkpt lat="44.9544021" lon="5.3983649">
<ele>861.52</ele>
<time>2019-07-25T10:03:39Z</time>
</trkpt>
<trkpt lat="44.9543906" lon="5.3983541">
<ele>861.60</ele>
<time>2019-07-25T10:03:40Z</time>
</trkpt>
<trkpt lat="44.9543595" lon="5.3983467">
<ele>861.67</ele>
<time>2019-07-25T10:03:41Z</time>
</trkpt>
<trkpt lat="44.9543447" lon="5.3983466">
<ele>861.73</ele>
<time>2019-07-25T10:03:42Z</time>
</trkpt>
<trkpt lat="44.9543107" lon="5.3983552">
<ele>861.80</ele>
<time>2019-07-25T10:03:43Z</time>
</trkpt>
<trkpt lat="44.9542757" lon="5.3983553">
<ele>861.87</ele>
<time>2019-07-25T10:03:44Z</time>
</trkpt>
<trkpt lat="44.9542553" lon="5.3983534">
<ele>861.95</ele>
<time>2019-07-25T10:03:45Z</time>
</trkpt>
<trkpt lat="44.9542381" lon="5.3983409">
<ele>862.02</ele>
<time>2019-07-25T10:03:46Z</time>
</trkpt>
<trkpt lat="44.9542169" lon="5.3983362">
<ele>862.10</ele>
<time>2019-07-25T10:03:47Z</time>
</trkpt>
<trkpt lat="44.9541926" lon="5.3983277">
<ele>862.17</ele>
<time>2019-07-25T10:03:48Z</time>
</trkpt>
<trkpt lat="44.9541849" lon="5.3983135">
<ele>862.25</ele>
<time>2019-07-25T10:03:49Z</time>
</trkpt>
<trkpt lat="44.9541494" lon="5.3983040">
<ele>862.33</ele>
<time>2019-07-25T10:03:50Z</time>
</trkpt>
<trkpt lat="44.9541407" lon="5.3983067">
<ele>862.42</ele>
<time>2019-07-25T10:03:51Z</time>
</trkpt>
<trkpt lat="44.9541224" lon="5.3983211">
<ele>862.50</ele>
<time>2019-07-25T10:03:52Z</time>
</trkpt>
<trkpt lat="44.9540980" lon="5.3983261">
<ele>862.59</ele>
<time>2019-07-25T10:03:53Z</time>
</trkpt>
<trkpt lat="44.9540808" lon="5.3983060">
<ele>862.68</ele>
<time>2019-07-25T10:03:54Z</time>
</trkpt>
<trkpt lat="44.9540634" lon="5.3983133">
<ele>862.76</ele>
<time>2019-07-25T10:03:55Z</time>
</trkpt>
<trkpt lat="44.9540321" lon="5.3983076">
<ele>862.85</ele>
<time>2019-07-25T10:03:56Z</time>
</trkpt>
<trkpt lat="44.9539976" lon="5.3983022">
<ele>862.94</ele>
<time>2019-07-25T10:03:57Z</time>
</trkpt>
<trkpt lat="44.9539834" lon="5.3982986">
<ele>863.02</ele>
<time>2019-07-25T10:03:58Z</time>
</trkpt>
<trkpt lat="44.9539600" lon="5.3983033">
<ele>863.12</ele>
<time>2019-07-25T10:03:59Z</time>
</trkpt>
<trkpt lat="44.9539301" lon="5.3983198">
<ele>863.21</ele>
<time>2019-07-25T10:04:00Z</time>
</trkpt>
<trkpt lat="44.9539145" lon="5.3983374">
<ele>863.31</ele>
<time>2019-07-25T10:04:01Z</time>
</trkpt>
<trkpt lat="44.9538849" lon="5.3983554">
<ele>863.41</ele>
<time>2019-07-25T10:04:02Z</time>
</trkpt>
<trkpt lat="44.9538533" lon="5.3983731">
<ele>863.52</ele>
<time>2019-07-25T10:04:03Z</time>
</trkpt>
<trkpt lat="44.9538355" lon="5.3983543">
<ele>863.62</ele>
<time>2019-07-25T10:04:04Z</time>
</trkpt>
<trkpt lat="44.9538032" lon="5.3983560">
<ele>863.72</ele>
<time>2019-07-25T10:04:05Z</time>
</trkpt>
<trkpt lat="44.9537756" lon="5.3983394">
<ele>863.82</ele>
<time>2019-07-25T10:04:06Z</time>
</trkpt>
<trkpt lat="44.9537485" lon="5.3983172">
<ele>863.92</ele>
<time>2019-07-25T10:04:07Z</time>
</trkpt>
<trkpt lat="44.9537179" lon="5.3983120">
<ele>864.02</ele>
<time>2019-07-25T10:04:08Z</time>
</trkpt>
<trkpt lat="44.9536903" lon="5.3982920">
<ele>864.12</ele>
<time>2019-07-25T10:04:09Z</time>
</trkpt>
<trkpt lat="44.9536705" lon="5.3982843">
<ele>864.22</ele>
<time>2019-07-25T10:04:10Z</time>
</trkpt>
<trkpt lat="44.9536482" lon="5.3982824">
<ele>864.32</ele>
<time>2019-07-25T10:04:11Z</time>
</trkpt>
<trkpt lat="44.9536238" lon="5.3982664">
<ele>864.42</ele>
<time>2019-07-25T10:04:12Z</time>
</trkpt>
<trkpt lat="44.9535931" lon="5.3982406">
<ele>864.52</ele>
<time>2019-07-25T10:04:13Z</time>
</trkpt>
<trkpt lat="44.9535694" lon="5.3982375">
<ele>864.62</ele>
<time>2019-07-25T10:04:14Z</time>
</trkpt>
<trkpt lat="44.9535429" lon="5.3982674">
<ele>864.72</ele>
<time>2019-07-25T10:04:15Z</time>
</trkpt>
<trkpt lat="44.9535394" lon="5.3982609">
<ele>864.82</ele>
<time>2019-07-25T10:04:16Z</time>
</trkpt>
<trkpt lat="44.9535337" lon="5.3982670">
<ele>864.83</ele>
<time>2019-07-25T10:04:17Z</time>
</trkpt>
<trkpt lat="44.9535502" lon="5.3982451">
<ele>864.94</ele>
<time>2019-07-25T10:04:18Z</time>
</trkpt>
<trkpt lat="44.9535664" lon="5.3982438">
<ele>864.95</ele>
<time>2019-07-25T10:04:19Z</time>
</trkpt>
<trkpt lat="44.9535676" lon="5.3982335">
<ele>864.96</ele>
<time>2019-07-25T10:04:20Z</time>
</trkpt>
<trkpt lat="44.9535665" lon="5.3982351">
<ele>864.97</ele>
<time>2019-07-25T10:04:21Z</time>
</trkpt>
<trkpt lat="44.9535658" lon="5.3982358">
<ele>864.99</ele>
<time>2019-07-25T10:04:22Z</time>
</trkpt>
<trkpt lat="44.9535614" lon="5.3982395">
<ele>865.00</ele>
<time>2019-07-25T10:04:23Z</time>
</trkpt>
<trkpt lat="44.9535547" lon="5.3982486">
<ele>865.01</ele>
<time>2019-07-25T10:04:24Z</time>
</trkpt>
<trkpt lat="44.9535468" lon="5.3982497">
<ele>865.11</ele>
<time>2019-07-25T10:04:25Z</time>
</trkpt>
<trkpt lat="44.9535360" lon="5.3982335">
<ele>865.22</ele>
<time>2019-07-25T10:04:26Z</time>
</trkpt>
<trkpt lat="44.9535351" lon="5.3982298">
<ele>865.23</ele>
<time>2019-07-25T10:04:27Z</time>
</trkpt>
<trkpt lat="44.9535356" lon="5.3982283">
<ele>865.24</ele>
<time>2019-07-25T10:04:28Z</time>
</trkpt>
<trkpt lat="44.9535404" lon="5.3982268">
<ele>865.26</ele>
<time>2019-07-25T10:04:29Z</time>
</trkpt>
<trkpt lat="44.9535423" lon="5.3982264">
<ele>865.27</ele>
<time>2019-07-25T10:04:30Z</time>
</trkpt>
<trkpt lat="44.9535441" lon="5.3982261">
<ele>865.28</ele>
<time>2019-07-25T10:04:31Z</time>
</trkpt>
<trkpt lat="44.9535472" lon="5.3982253">
<ele>865.29</ele>
<time>2019-07-25T10:04:32Z</time>
</trkpt>
<trkpt lat="44.9535484" lon="5.3982248">
<ele>865.30</ele>
<time>2019-07-25T10:04:33Z</time>
</trkpt>
<trkpt lat="44.9535186" lon="5.3982200">
<ele>865.43</ele>
<time>2019-07-25T10:04:34Z</time>
</trkpt>
<trkpt lat="44.9535066" lon="5.3982372">
<ele>865.55</ele>
<time>2019-07-25T10:04:35Z</time>
</trkpt>
<trkpt lat="44.9535074" lon="5.3982312">
<ele>865.66</ele>
<time>2019-07-25T10:04:36Z</time>
</trkpt>
<trkpt lat="44.9535103" lon="5.3982295">
<ele>865.78</ele>
<time>2019-07-25T10:04:37Z</time>
</trkpt>
<trkpt lat="44.9534949" lon="5.3982321">
<ele>865.89</ele>
<time>2019-07-25T10:04:38Z</time>
</trkpt>
<trkpt lat="44.9534790" lon="5.3982412">
<ele>866.00</ele>
<time>2019-07-25T10:04:39Z</time>
</trkpt>
<trkpt lat="44.9534802" lon="5.3982458">
<ele>866.01</ele>
<time>2019-07-25T10:04:40Z</time>
</trkpt>
<trkpt lat="44.9534807" lon="5.3982464">
<ele>866.13</ele>
<time>2019-07-25T10:04:41Z</time>
</trkpt>
<trkpt lat="44.9534678" lon="5.3982344">
<ele>866.25</ele>
<time>2019-07-25T10:04:42Z</time>
</trkpt>
<trkpt lat="44.9534599" lon="5.3982346">
<ele>866.37</ele>
<time>2019-07-25T10:04:43Z</time>
</trkpt>
<trkpt lat="44.9534502" lon="5.3982269">
<ele>866.49</ele>
<time>2019-07-25T10:04:44Z</time>
</trkpt>
<trkpt lat="44.9534441" lon="5.3982128">
<ele>866.61</ele>
<time>2019-07-25T10:04:45Z</time>
</trkpt>
<trkpt lat="44.9534344" lon="5.3982017">
<ele>866.73</ele>
<time>2019-07-25T10:04:46Z</time>
</trkpt>
<trkpt lat="44.9534282" lon="5.3981904">
<ele>866.83</ele>
<time>2019-07-25T10:04:47Z</time>
</trkpt>
<trkpt lat="44.9534245" lon="5.3981895">
<ele>866.84</ele>
<time>2019-07-25T10:04:48Z</time>
</trkpt>
<trkpt lat="44.9534241" lon="5.3981903">
<ele>866.95</ele>
<time>2019-07-25T10:04:49Z</time>
</trkpt>
<trkpt lat="44.9534231" lon="5.3981979">
<ele>867.05</ele>
<time>2019-07-25T10:04:50Z</time>
</trkpt>
<trkpt lat="44.9534252" lon="5.3982072">
<ele>867.14</ele>
<time>2019-07-25T10:04:51Z</time>
</trkpt>
<trkpt lat="44.9534244" lon="5.3982135">
<ele>867.15</ele>
<time>2019-07-25T10:04:52Z</time>
</trkpt>
<trkpt lat="44.9534272" lon="5.3982218">
<ele>867.16</ele>
<time>2019-07-25T10:04:53Z</time>
</trkpt>
<trkpt lat="44.9534269" lon="5.3982222">
<ele>867.24</ele>
<time>2019-07-25T10:04:54Z</time>
</trkpt>
<trkpt lat="44.9534308" lon="5.3982247">
<ele>867.32</ele>
<time>2019-07-25T10:04:55Z</time>
</trkpt>
<trkpt lat="44.9534371" lon="5.3982204">
<ele>867.41</ele>
<time>2019-07-25T10:04:56Z</time>
</trkpt>
<trkpt lat="44.9534418" lon="5.3982233">
<ele>867.48</ele>
<time>2019-07-25T10:04:57Z</time>
</trkpt>
<trkpt lat="44.9534427" lon="5.3982260">
<ele>867.56</ele>
<time>2019-07-25T10:04:58Z</time>
</trkpt>
<trkpt lat="44.9534452" lon="5.3982407">
<ele>867.63</ele>
<time>2019-07-25T10:04:59Z</time>
</trkpt>
<trkpt lat="44.9534478" lon="5.3982388">
<ele>867.71</ele>
<time>2019-07-25T10:05:00Z</time>
</trkpt>
<trkpt lat="44.9534482" lon="5.3982485">
<ele>867.78</ele>
<time>2019-07-25T10:05:01Z</time>
</trkpt>
<trkpt lat="44.9534470" lon="5.3982513">
<ele>867.79</ele>
<time>2019-07-25T10:05:02Z</time>
</trkpt>
<trkpt lat="44.9534561" lon="5.3982719">
<ele>867.87</ele>
<time>2019-07-25T10:05:03Z</time>
</trkpt>
<trkpt lat="44.9534609" lon="5.3982744">
<ele>867.94</ele>
<time>2019-07-25T10:05:04Z</time>
</trkpt>
<trkpt lat="44.9534451" lon="5.3982949">
<ele>867.95</ele>
<time>2019-07-25T10:05:05Z</time>
</trkpt>
<trkpt lat="44.9534317" lon="5.3982899">
<ele>867.96</ele>
<time>2019-07-25T10:05:06Z</time>
</trkpt>
<trkpt lat="44.9534476" lon="5.3982821">
<ele>867.97</ele>
<time>2019-07-25T10:05:07Z</time>
</trkpt>
<trkpt lat="44.9534490" lon="5.3982815">
<ele>867.98</ele>
<time>2019-07-25T10:05:08Z</time>
</trkpt>
<trkpt lat="44.9534487" lon="5.3982820">
<ele>867.98</ele>
<time>2019-07-25T10:05:09Z</time>
</trkpt>
<trkpt lat="44.9534496" lon="5.3982832">
<ele>867.99</ele>
<time>2019-07-25T10:05:10Z</time>
</trkpt>
<trkpt lat="44.9534378" lon="5.3983008">
<ele>868.08</ele>
<time>2019-07-25T10:05:11Z</time>
</trkpt>
<trkpt lat="44.9534321" lon="5.3983038">
<ele>868.16</ele>
<time>2019-07-25T10:05:12Z</time>
</trkpt>
<trkpt lat="44.9534237" lon="5.3983189">
<ele>868.25</ele>
<time>2019-07-25T10:05:13Z</time>
</trkpt>
<trkpt lat="44.9534093" lon="5.3983196">
<ele>868.33</ele>
<time>2019-07-25T10:05:14Z</time>
</trkpt>
<trkpt lat="44.9534034" lon="5.3983170">
<ele>868.42</ele>
<time>2019-07-25T10:05:15Z</time>
</trkpt>
<trkpt lat="44.9533936" lon="5.3983086">
<ele>868.51</ele>
<time>2019-07-25T10:05:16Z</time>
</trkpt>
<trkpt lat="44.9533644" lon="5.3982767">
<ele>868.60</ele>
<time>2019-07-25T10:05:17Z</time>
</trkpt>
<trkpt lat="44.9533535" lon="5.3982704">
<ele>868.69</ele>
<time>2019-07-25T10:05:18Z</time>
</trkpt>
<trkpt lat="44.9533482" lon="5.3982599">
<ele>868.78</ele>
<time>2019-07-25T10:05:19Z</time>
</trkpt>
<trkpt lat="44.9533492" lon="5.3982578">
<ele>868.87</ele>
<time>2019-07-25T10:05:20Z</time>
</trkpt>
<trkpt lat="44.9533353" lon="5.3982377">
<ele>868.97</ele>
<time>2019-07-25T10:05:21Z</time>
</trkpt>
<trkpt lat="44.9533485" lon="5.3982355">
<ele>869.06</ele>
<time>2019-07-25T10:05:22Z</time>
</trkpt>
<trkpt lat="44.9533510" lon="5.3982461">
<ele>869.07</ele>
<time>2019-07-25T10:05:23Z</time>
</trkpt>
<trkpt lat="44.9533552" lon="5.3982403">
<ele>869.17</ele>
<time>2019-07-25T10:05:24Z</time>
</trkpt>
<trkpt lat="44.9533526" lon="5.3982425">
<ele>869.26</ele>
<time>2019-07-25T10:05:25Z</time>
</trkpt>
<trkpt lat="44.9533526" lon="5.3982436">
<ele>869.27</ele>
<time>2019-07-25T10:05:26Z</time>
</trkpt>
<trkpt lat="44.9533506" lon="5.3982592">
<ele>869.28</ele>
<time>2019-07-25T10:05:27Z</time>
</trkpt>
<trkpt lat="44.9533549" lon="5.3982645">
<ele>869.29</ele>
<time>2019-07-25T10:05:28Z</time>
</trkpt>
<trkpt lat="44.9533479" lon="5.3982815">
<ele>869.41</ele>
<time>2019-07-25T10:05:29Z</time>
</trkpt>
<trkpt lat="44.9533487" lon="5.3982814">
<ele>869.42</ele>
<time>2019-07-25T10:05:30Z</time>
</trkpt>
<trkpt lat="44.9533470" lon="5.3982754">
<ele>869.55</ele>
<time>2019-07-25T10:05:31Z</time>
</trkpt>
<trkpt lat="44.9533394" lon="5.3982661">
<ele>869.69</ele>
<time>2019-07-25T10:05:32Z</time>
</trkpt>
<trkpt lat="44.9533247" lon="5.3982530">
<ele>869.82</ele>
<time>2019-07-25T10:05:33Z</time>
</trkpt>
<trkpt lat="44.9533019" lon="5.3982677">
<ele>869.95</ele>
<time>2019-07-25T10:05:34Z</time>
</trkpt>
<trkpt lat="44.9532893" lon="5.3982527">
<ele>870.08</ele>
<time>2019-07-25T10:05:35Z</time>
</trkpt>
<trkpt lat="44.9532751" lon="5.3982517">
<ele>870.22</ele>
<time>2019-07-25T10:05:36Z</time>
</trkpt>
<trkpt lat="44.9532605" lon="5.3982334">
<ele>870.36</ele>
<time>2019-07-25T10:05:37Z</time>
</trkpt>
<trkpt lat="44.9532272" lon="5.3982294">
<ele>870.51</ele>
<time>2019-07-25T10:05:38Z</time>
</trkpt>
<trkpt lat="44.9531867" lon="5.3982132">
<ele>870.66</ele>
<time>2019-07-25T10:05:39Z</time>
</trkpt>
<trkpt lat="44.9531549" lon="5.3981781">
<ele>870.80</ele>
<time>2019-07-25T10:05:40Z</time>
</trkpt>
<trkpt lat="44.9531378" lon="5.3981854">
<ele>870.95</ele>
<time>2019-07-25T10:05:41Z</time>
</trkpt>
<trkpt lat="44.9531299" lon="5.3982102">
<ele>871.10</ele>
<time>2019-07-25T10:05:42Z</time>
</trkpt>
<trkpt lat="44.9531171" lon="5.3982061">
<ele>871.25</ele>
<time>2019-07-25T10:05:43Z</time>
</trkpt>
<trkpt lat="44.9530832" lon="5.3982265">
<ele>871.40</ele>
<time>2019-07-25T10:05:44Z</time>
</trkpt>
<trkpt lat="44.9530660" lon="5.3981950">
<ele>871.56</ele>
<time>2019-07-25T10:05:45Z</time>
</trkpt>
<trkpt lat="44.9530344" lon="5.3981929">
<ele>871.71</ele>
<time>2019-07-25T10:05:46Z</time>
</trkpt>
<trkpt lat="44.9530009" lon="5.3981932">
<ele>871.87</ele>
<time>2019-07-25T10:05:47Z</time>
</trkpt>
<trkpt lat="44.9529784" lon="5.3982090">
<ele>872.04</ele>
<time>2019-07-25T10:05:48Z</time>
</trkpt>
<trkpt lat="44.9529676" lon="5.3982148">
<ele>872.20</ele>
<time>2019-07-25T10:05:49Z</time>
</trkpt>
<trkpt lat="44.9529514" lon="5.3982043">
<ele>872.36</ele>
<time>2019-07-25T10:05:50Z</time>
</trkpt>
<trkpt lat="44.9529435" lon="5.3981986">
<ele>872.52</ele>
<time>2019-07-25T10:05:51Z</time>
</trkpt>
<trkpt lat="44.9529281" lon="5.3981923">
<ele>872.67</ele>
<time>2019-07-25T10:05:52Z</time>
</trkpt>
<trkpt lat="44.9528976" lon="5.3982037">
<ele>872.83</ele>
<time>2019-07-25T10:05:53Z</time>
</trkpt>
<trkpt lat="44.9528795" lon="5.3982079">
<ele>872.99</ele>
<time>2019-07-25T10:05:54Z</time>
</trkpt>
<trkpt lat="44.9528739" lon="5.3981706">
<ele>873.14</ele>
<time>2019-07-25T10:05:55Z</time>
</trkpt>
<trkpt lat="44.9528523" lon="5.3981593">
<ele>873.30</ele>
<time>2019-07-25T10:05:56Z</time>
</trkpt>
<trkpt lat="44.9528241" lon="5.3981414">
<ele>873.45</ele>
<time>2019-07-25T10:05:57Z</time>
</trkpt>
<trkpt lat="44.9528073" lon="5.3981327">
<ele>873.60</ele>
<time>2019-07-25T10:05:58Z</time>
</trkpt>
<trkpt lat="44.9527854" lon="5.3981218">
<ele>873.75</ele>
<time>2019-07-25T10:05:59Z</time>
</trkpt>
<trkpt lat="44.9527619" lon="5.3981295">
<ele>873.90</ele>
<time>2019-07-25T10:06:00Z</time>
</trkpt>
<trkpt lat="44.9527472" lon="5.3981320">
<ele>874.05</ele>
<time>2019-07-25T10:06:01Z</time>
</trkpt>
<trkpt lat="44.9527390" lon="5.3980927">
<ele>874.20</ele>
<time>2019-07-25T10:06:02Z</time>
</trkpt>
<trkpt lat="44.9527165" lon="5.3980812">
<ele>874.35</ele>
<time>2019-07-25T10:06:03Z</time>
</trkpt>
<trkpt lat="44.9526960" lon="5.3980756">
<ele>874.49</ele>
<time>2019-07-25T10:06:04Z</time>
</trkpt>
<trkpt lat="44.9526776" lon="5.3980563">
<ele>874.62</ele>
<time>2019-07-25T10:06:05Z</time>
</trkpt>
<trkpt lat="44.9526601" lon="5.3980639">
<ele>874.64</ele>
<time>2019-07-25T10:06:06Z</time>
</trkpt>
<trkpt lat="44.9526492" lon="5.3980619">
<ele>874.76</ele>
<time>2019-07-25T10:06:07Z</time>
</trkpt>
<trkpt lat="44.9526481" lon="5.3980627">
<ele>874.78</ele>
<time>2019-07-25T10:06:08Z</time>
</trkpt>
<trkpt lat="44.9526501" lon="5.3980582">
<ele>874.79</ele>
<time>2019-07-25T10:06:09Z</time>
</trkpt>
<trkpt lat="44.9526459" lon="5.3980649">
<ele>874.92</ele>
<time>2019-07-25T10:06:10Z</time>
</trkpt>
<trkpt lat="44.9526420" lon="5.3980615">
<ele>874.93</ele>
<time>2019-07-25T10:06:11Z</time>
</trkpt>
<trkpt lat="44.9526375" lon="5.3980683">
<ele>875.06</ele>
<time>2019-07-25T10:06:12Z</time>
</trkpt>
<trkpt lat="44.9526293" lon="5.3980744">
<ele>875.19</ele>
<time>2019-07-25T10:06:13Z</time>
</trkpt>
<trkpt lat="44.9526343" lon="5.3980541">
<ele>875.32</ele>
<time>2019-07-25T10:06:14Z</time>
</trkpt>
<trkpt lat="44.9526327" lon="5.3980581">
<ele>875.33</ele>
<time>2019-07-25T10:06:15Z</time>
</trkpt>
<trkpt lat="44.9526354" lon="5.3980581">
<ele>875.34</ele>
<time>2019-07-25T10:06:16Z</time>
</trkpt>
<trkpt lat="44.9526385" lon="5.3980579">
<ele>875.47</ele>
<time>2019-07-25T10:06:17Z</time>
</trkpt>
<trkpt lat="44.9526334" lon="5.3980703">
<ele>875.59</ele>
<time>2019-07-25T10:06:18Z</time>
</trkpt>
<trkpt lat="44.9526308" lon="5.3980802">
<ele>875.71</ele>
<time>2019-07-25T10:06:19Z</time>
</trkpt>
<trkpt lat="44.9526265" lon="5.3980883">
<ele>875.83</ele>
<time>2019-07-25T10:06:20Z</time>
</trkpt>
<trkpt lat="44.9526245" lon="5.3980945">
<ele>875.94</ele>
<time>2019-07-25T10:06:21Z</time>
</trkpt>
<trkpt lat="44.9526231" lon="5.3981054">
<ele>876.06</ele>
<time>2019-07-25T10:06:22Z</time>
</trkpt>
<trkpt lat="44.9526318" lon="5.3980941">
<ele>876.17</ele>
<time>2019-07-25T10:06:23Z</time>
</trkpt>
<trkpt lat="44.9526290" lon="5.3980978">
<ele>876.18</ele>
<time>2019-07-25T10:06:24Z</time>
</trkpt>
<trkpt lat="44.9526282" lon="5.3980960">
<ele>876.19</ele>
<time>2019-07-25T10:06:25Z</time>
</trkpt>
<trkpt lat="44.9526270" lon="5.3980958">
<ele>876.20</ele>
<time>2019-07-25T10:06:26Z</time>
</trkpt>
<trkpt lat="44.9526114" lon="5.3980896">
<ele>876.31</ele>
<time>2019-07-25T10:06:27Z</time>
</trkpt>
<trkpt lat="44.9525993" lon="5.3980854">
<ele>876.42</ele>
<time>2019-07-25T10:06:28Z</time>
</trkpt>
<trkpt lat="44.9525869" lon="5.3980966">
<ele>876.44</ele>
<time>2019-07-25T10:06:29Z</time>
</trkpt>
<trkpt lat="44.9525856" lon="5.3980982">
<ele>876.45</ele>
<time>2019-07-25T10:06:30Z</time>
</trkpt>
<trkpt lat="44.9525853" lon="5.3980980">
<ele>876.46</ele>
<time>2019-07-25T10:06:31Z</time>
</trkpt>
<trkpt lat="44.9525854" lon="5.3980972">
<ele>876.47</ele>
<time>2019-07-25T10:06:32Z</time>
</trkpt>
<trkpt lat="44.9525845" lon="5.3980968">
<ele>876.48</ele>
<time>2019-07-25T10:06:33Z</time>
</trkpt>
<trkpt lat="44.9525887" lon="5.3980938">
<ele>876.56</ele>
<time>2019-07-25T10:06:34Z</time>
</trkpt>
<trkpt lat="44.9525764" lon="5.3980878">
<ele>876.65</ele>
<time>2019-07-25T10:06:35Z</time>
</trkpt>
<trkpt lat="44.9525778" lon="5.3980689">
<ele>876.74</ele>
<time>2019-07-25T10:06:36Z</time>
</trkpt>
<trkpt lat="44.9525744" lon="5.3980504">
<ele>876.82</ele>
<time>2019-07-25T10:06:37Z</time>
</trkpt>
<trkpt lat="44.9525791" lon="5.3980476">
<ele>876.91</ele>
<time>2019-07-25T10:06:38Z</time>
</trkpt>
<trkpt lat="44.9525854" lon="5.3980469">
<ele>877.00</ele>
<time>2019-07-25T10:06:39Z</time>
</trkpt>
<trkpt lat="44.9525892" lon="5.3980208">
<ele>877.08</ele>
<time>2019-07-25T10:06:40Z</time>
</trkpt>
<trkpt lat="44.9525889" lon="5.3979848">
<ele>877.17</ele>
<time>2019-07-25T10:06:41Z</time>
</trkpt>
<trkpt lat="44.9525812" lon="5.3979868">
<ele>877.27</ele>
<time>2019-07-25T10:06:42Z</time>
</trkpt>
<trkpt lat="44.9525841" lon="5.3979939">
<ele>877.36</ele>
<time>2019-07-25T10:06:43Z</time>
</trkpt>
<trkpt lat="44.9525897" lon="5.3979989">
<ele>877.45</ele>
<time>2019-07-25T10:06:44Z</time>
</trkpt>
<trkpt lat="44.9525935" lon="5.3980003">
<ele>877.54</ele>
<time>2019-07-25T10:06:45Z</time>
</trkpt>
<trkpt lat="44.9525930" lon="5.3980061">
<ele>877.62</ele>
<time>2019-07-25T10:06:46Z</time>
</trkpt>
<trkpt lat="44.9525947" lon="5.3980143">
<ele>877.63</ele>
<time>2019-07-25T10:06:47Z</time>
</trkpt>
<trkpt lat="44.9525973" lon="5.3980259">
<ele>877.71</ele>
<time>2019-07-25T10:06:48Z</time>
</trkpt>
<trkpt lat="44.9525949" lon="5.3980256">
<ele>877.71</ele>
<time>2019-07-25T10:06:49Z</time>
</trkpt>
<trkpt lat="44.9525962" lon="5.3980247">
<ele>877.72</ele>
<time>2019-07-25T10:06:50Z</time>
</trkpt>
<trkpt lat="44.9525844" lon="5.3980226">
<ele>877.80</ele>
<time>2019-07-25T10:06:51Z</time>
</trkpt>
<trkpt lat="44.9525894" lon="5.3980308">
<ele>877.81</ele>
<time>2019-07-25T10:06:52Z</time>
</trkpt>
<trkpt lat="44.9525872" lon="5.3980361">
<ele>877.82</ele>
<time>2019-07-25T10:06:53Z</time>
</trkpt>
<trkpt lat="44.9525913" lon="5.3980476">
<ele>877.83</ele>
<time>2019-07-25T10:06:54Z</time>
</trkpt>
<trkpt lat="44.9526007" lon="5.3980573">
<ele>877.83</ele>
<time>2019-07-25T10:06:55Z</time>
</trkpt>
<trkpt lat="44.9526006" lon="5.3980573">
<ele>877.84</ele>
<time>2019-07-25T10:06:56Z</time>
</trkpt>
<trkpt lat="44.9526008" lon="5.3980574">
<ele>877.85</ele>
<time>2019-07-25T10:06:57Z</time>
</trkpt>
<trkpt lat="44.9526009" lon="5.3980574">
<ele>877.85</ele>
<time>2019-07-25T10:06:58Z</time>
</trkpt>
<trkpt lat="44.9526010" lon="5.3980574">
<ele>877.86</ele>
<time>2019-07-25T10:06:59Z</time>
</trkpt>
<trkpt lat="44.9526010" lon="5.3980575">
<ele>877.86</ele>
<time>2019-07-25T10:07:00Z</time>
</trkpt>
<trkpt lat="44.9526008" lon="5.3980577">
<ele>877.86</ele>
<time>2019-07-25T10:07:01Z</time>
</trkpt>
<trkpt lat="44.9526009" lon="5.3980579">
<ele>877.87</ele>
<time>2019-07-25T10:07:02Z</time>
</trkpt>
<trkpt lat="44.9526008" lon="5.3980581">
<ele>877.87</ele>
<time>2019-07-25T10:07:03Z</time>
</trkpt>
<trkpt lat="44.9526007" lon="5.3980582">
<ele>877.87</ele>
<time>2019-07-25T10:07:04Z</time>
</trkpt>
<trkpt lat="44.9526008" lon="5.3980582">
<ele>877.87</ele>
<time>2019-07-25T10:07:05Z</time>
</trkpt>
<trkpt lat="44.9526009" lon="5.3980583">
<ele>877.87</ele>
<time>2019-07-25T10:07:06Z</time>
</trkpt>
<trkpt lat="44.9526007" lon="5.3980585">
<ele>877.87</ele>
<time>2019-07-25T10:07:07Z</time>
</trkpt>
<trkpt lat="44.9526010" lon="5.3980585">
<ele>877.87</ele>
<time>2019-07-25T10:07:08Z</time>
</trkpt>
<trkpt lat="44.9526011" lon="5.3980584">
<ele>877.88</ele>
<time>2019-07-25T10:07:09Z</time>
</trkpt>
<trkpt lat="44.9526015" lon="5.3980583">
<ele>877.88</ele>
<time>2019-07-25T10:07:10Z</time>
</trkpt>
<trkpt lat="44.9526018" lon="5.3980582">
<ele>877.88</ele>
<time>2019-07-25T10:07:11Z</time>
</trkpt>
<trkpt lat="44.9526021" lon="5.3980582">
<ele>877.88</ele>
<time>2019-07-25T10:07:12Z</time>
</trkpt>
<trkpt lat="44.9526021" lon="5.3980582">
<ele>877.88</ele>
<time>2019-07-25T10:07:13Z</time>
</trkpt>
<trkpt lat="44.9526022" lon="5.3980581">
<ele>877.89</ele>
<time>2019-07-25T10:07:14Z</time>
</trkpt>
<trkpt lat="44.9526023" lon="5.3980580">
<ele>877.89</ele>
<time>2019-07-25T10:07:15Z</time>
</trkpt>
<trkpt lat="44.9526025" lon="5.3980581">
<ele>877.89</ele>
<time>2019-07-25T10:07:16Z</time>
</trkpt>
<trkpt lat="44.9526023" lon="5.3980582">
<ele>877.90</ele>
<time>2019-07-25T10:07:17Z</time>
</trkpt>
<trkpt lat="44.9526023" lon="5.3980583">
<ele>877.90</ele>
<time>2019-07-25T10:07:18Z</time>
</trkpt>
<trkpt lat="44.9526024" lon="5.3980584">
<ele>877.90</ele>
<time>2019-07-25T10:07:19Z</time>
</trkpt>
<trkpt lat="44.9526025" lon="5.3980584">
<ele>877.90</ele>
<time>2019-07-25T10:07:20Z</time>
</trkpt>
<trkpt lat="44.9526025" lon="5.3980584">
<ele>877.91</ele>
<time>2019-07-25T10:07:21Z</time>
</trkpt>
<trkpt lat="44.9526026" lon="5.3980584">
<ele>877.91</ele>
<time>2019-07-25T10:07:22Z</time>
</trkpt>
<trkpt lat="44.9526025" lon="5.3980583">
<ele>877.91</ele>
<time>2019-07-25T10:07:23Z</time>
</trkpt>
<trkpt lat="44.9526024" lon="5.3980582">
<ele>877.91</ele>
<time>2019-07-25T10:07:24Z</time>
</trkpt>
<trkpt lat="44.9526022" lon="5.3980581">
<ele>877.91</ele>
<time>2019-07-25T10:07:25Z</time>
</trkpt>
<trkpt lat="44.9526023" lon="5.3980580">
<ele>877.92</ele>
<time>2019-07-25T10:07:26Z</time>
</trkpt>
<trkpt lat="44.9526024" lon="5.3980579">
<ele>877.92</ele>
<time>2019-07-25T10:07:27Z</time>
</trkpt>
<trkpt lat="44.9526022" lon="5.3980578">
<ele>877.92</ele>
<time>2019-07-25T10:07:28Z</time>
</trkpt>
<trkpt lat="44.9526021" lon="5.3980578">
<ele>877.93</ele>
<time>2019-07-25T10:07:29Z</time>
</trkpt>
<trkpt lat="44.9526020" lon="5.3980579">
<ele>877.93</ele>
<time>2019-07-25T10:07:30Z</time>
</trkpt>
<trkpt lat="44.9526018" lon="5.3980580">
<ele>877.93</ele>
<time>2019-07-25T10:07:31Z</time>
</trkpt>
<trkpt lat="44.9526017" lon="5.3980581">
<ele>877.94</ele>
<time>2019-07-25T10:07:32Z</time>
</trkpt>
<trkpt lat="44.9526020" lon="5.3980580">
<ele>877.94</ele>
<time>2019-07-25T10:07:33Z</time>
</trkpt>
<trkpt lat="44.9526020" lon="5.3980580">
<ele>877.94</ele>
<time>2019-07-25T10:07:34Z</time>
</trkpt>
<trkpt lat="44.9526020" lon="5.3980580">
<ele>877.95</ele>
<time>2019-07-25T10:07:35Z</time>
</trkpt>
<trkpt lat="44.9526021" lon="5.3980581">
<ele>877.95</ele>
<time>2019-07-25T10:07:36Z</time>
</trkpt>
<trkpt lat="44.9526021" lon="5.3980582">
<ele>877.96</ele>
<time>2019-07-25T10:07:37Z</time>
</trkpt>
<trkpt lat="44.9526019" lon="5.3980581">
<ele>877.96</ele>
<time>2019-07-25T10:07:38Z</time>
</trkpt>
<trkpt lat="44.9526018" lon="5.3980579">
<ele>877.97</ele>
<time>2019-07-25T10:07:39Z</time>
</trkpt>
<trkpt lat="44.9526019" lon="5.3980579">
<ele>877.98</ele>
<time>2019-07-25T10:07:40Z</time>
</trkpt>
<trkpt lat="44.9526019" lon="5.3980578">
<ele>877.98</ele>
<time>2019-07-25T10:07:41Z</time>
</trkpt>
<trkpt lat="44.9526018" lon="5.3980580">
<ele>877.99</ele>
<time>2019-07-25T10:07:42Z</time>
</trkpt>
<trkpt lat="44.9526019" lon="5.3980579">
<ele>878.00</ele>
<time>2019-07-25T10:07:43Z</time>
</trkpt>
<trkpt lat="44.9526019" lon="5.3980578">
<ele>878.01</ele>
<time>2019-07-25T10:07:44Z</time>
</trkpt>
<trkpt lat="44.9526021" lon="5.3980578">
<ele>878.02</ele>
<time>2019-07-25T10:07:45Z</time>
</trkpt>
<trkpt lat="44.9526022" lon="5.3980576">
<ele>878.03</ele>
<time>2019-07-25T10:07:46Z</time>
</trkpt>
<trkpt lat="44.9526023" lon="5.3980575">
<ele>878.04</ele>
<time>2019-07-25T10:07:47Z</time>
</trkpt>
<trkpt lat="44.9526023" lon="5.3980575">
<ele>878.05</ele>
<time>2019-07-25T10:07:48Z</time>
</trkpt>
<trkpt lat="44.9526024" lon="5.3980576">
<ele>878.06</ele>
<time>2019-07-25T10:07:49Z</time>
</trkpt>
<trkpt lat="44.9526024" lon="5.3980578">
<ele>878.08</ele>
<time>2019-07-25T10:07:50Z</time>
</trkpt>
<trkpt lat="44.9526025" lon="5.3980578">
<ele>878.09</ele>
<time>2019-07-25T10:07:51Z</time>
</trkpt>
<trkpt lat="44.9526017" lon="5.3980565">
<ele>878.11</ele>
<time>2019-07-25T10:07:52Z</time>
</trkpt>
<trkpt lat="44.9526017" lon="5.3980564">
<ele>878.12</ele>
<time>2019-07-25T10:07:53Z</time>
</trkpt>
<trkpt lat="44.9526017" lon="5.3980561">
<ele>878.14</ele>
<time>2019-07-25T10:07:54Z</time>
</trkpt>
<trkpt lat="44.9526017" lon="5.3980562">
<ele>878.15</ele>
<time>2019-07-25T10:07:55Z</time>
</trkpt>
<trkpt lat="44.9526016" lon="5.3980563">
<ele>878.17</ele>
<time>2019-07-25T10:07:56Z</time>
</trkpt>
<trkpt lat="44.9526017" lon="5.3980562">
<ele>878.19</ele>
<time>2019-07-25T10:07:57Z</time>
</trkpt>
<trkpt lat="44.9526018" lon="5.3980563">
<ele>878.21</ele>
<time>2019-07-25T10:07:58Z</time>
</trkpt>
<trkpt lat="44.9526017" lon="5.3980562">
<ele>878.23</ele>
<time>2019-07-25T10:07:59Z</time>
</trkpt>
<trkpt lat="44.9526017" lon="5.3980562">
<ele>878.24</ele>
<time>2019-07-25T10:08:00Z</time>
</trkpt>
<trkpt lat="44.9526017" lon="5.3980565">
<ele>878.26</ele>
<time>2019-07-25T10:08:01Z</time>
</trkpt>
<trkpt lat="44.9526016" lon="5.3980563">
<ele>878.29</ele>
<time>2019-07-25T10:08:02Z</time>
</trkpt>
<trkpt lat="44.9526016" lon="5.3980559">
<ele>878.31</ele>
<time>2019-07-25T10:08:03Z</time>
</trkpt>
<trkpt lat="44.9526018" lon="5.3980562">
<ele>878.33</ele>
<time>2019-07-25T10:08:04Z</time>
</trkpt>
<trkpt lat="44.9526017" lon="5.3980560">
<ele>878.35</ele>
<time>2019-07-25T10:08:05Z</time>
</trkpt>
<trkpt lat="44.9526016" lon="5.3980559">
<ele>878.37</ele>
<time>2019-07-25T10:08:06Z</time>
</trkpt>
<trkpt lat="44.9526016" lon="5.3980555">
<ele>878.39</ele>
<time>2019-07-25T10:08:07Z</time>
</trkpt>
<trkpt lat="44.9526016" lon="5.3980554">
<ele>878.41</ele>
<time>2019-07-25T10:08:08Z</time>
</trkpt>
<trkpt lat="44.9526017" lon="5.3980554">
<ele>878.43</ele>
<time>2019-07-25T10:08:09Z</time>
</trkpt>
<trkpt lat="44.9526017" lon="5.3980555">
<ele>878.44</ele>
<time>2019-07-25T10:08:10Z</time>
</trkpt>
<trkpt lat="44.9526019" lon="5.3980559">
<ele>878.46</ele>
<time>2019-07-25T10:08:11Z</time>
</trkpt>
<trkpt lat="44.9526019" lon="5.3980559">
<ele>878.48</ele>
<time>2019-07-25T10:08:12Z</time>
</trkpt>
<trkpt lat="44.9526020" lon="5.3980563">
<ele>878.50</ele>
<time>2019-07-25T10:08:13Z</time>
</trkpt>
<trkpt lat="44.9526020" lon="5.3980565">
<ele>878.52</ele>
<time>2019-07-25T10:08:14Z</time>
</trkpt>
<trkpt lat="44.9526021" lon="5.3980565">
<ele>878.54</ele>
<time>2019-07-25T10:08:15Z</time>
</trkpt>
<trkpt lat="44.9526023" lon="5.3980568">
<ele>878.55</ele>
<time>2019-07-25T10:08:16Z</time>
</trkpt>
<trkpt lat="44.9526022" lon="5.3980569">
<ele>878.57</ele>
<time>2019-07-25T10:08:17Z</time>
</trkpt>
<trkpt lat="44.9526024" lon="5.3980573">
<ele>878.59</ele>
<time>2019-07-25T10:08:18Z</time>
</trkpt>
<trkpt lat="44.9526025" lon="5.3980572">
<ele>878.61</ele>
<time>2019-07-25T10:08:19Z</time>
</trkpt>
<trkpt lat="44.9526023" lon="5.3980569">
<ele>878.62</ele>
<time>2019-07-25T10:08:20Z</time>
</trkpt>
<trkpt lat="44.9526023" lon="5.3980569">
<ele>878.64</ele>
<time>2019-07-25T10:08:21Z</time>
</trkpt>
<trkpt lat="44.9526019" lon="5.3980566">
<ele>878.66</ele>
<time>2019-07-25T10:08:22Z</time>
</trkpt>
<trkpt lat="44.9526015" lon="5.3980563">
<ele>878.67</ele>
<time>2019-07-25T10:08:23Z</time>
</trkpt>
<trkpt lat="44.9526015" lon="5.3980564">
<ele>878.69</ele>
<time>2019-07-25T10:08:24Z</time>
</trkpt>
<trkpt lat="44.9526013" lon="5.3980562">
<ele>878.71</ele>
<time>2019-07-25T10:08:25Z</time>
</trkpt>
<trkpt lat="44.9526007" lon="5.3980558">
<ele>878.72</ele>
<time>2019-07-25T10:08:26Z</time>
</trkpt>
<trkpt lat="44.9526000" lon="5.3980556">
<ele>878.74</ele>
<time>2019-07-25T10:08:27Z</time>
</trkpt>
<trkpt lat="44.9526073" lon="5.3980658">
<ele>878.89</ele>
<time>2019-07-25T10:08:28Z</time>
</trkpt>
<trkpt lat="44.9525687" lon="5.3980868">
<ele>879.04</ele>
<time>2019-07-25T10:08:29Z</time>
</trkpt>
<trkpt lat="44.9525671" lon="5.3981026">
<ele>879.19</ele>
<time>2019-07-25T10:08:30Z</time>
</trkpt>
<trkpt lat="44.9525761" lon="5.3981121">
<ele>879.33</ele>
<time>2019-07-25T10:08:31Z</time>
</trkpt>
<trkpt lat="44.9525721" lon="5.3981195">
<ele>879.47</ele>
<time>2019-07-25T10:08:32Z</time>
</trkpt>
<trkpt lat="44.9525713" lon="5.3981300">
<ele>879.49</ele>
<time>2019-07-25T10:08:33Z</time>
</trkpt>
<trkpt lat="44.9525828" lon="5.3981221">
<ele>879.63</ele>
<time>2019-07-25T10:08:34Z</time>
</trkpt>
<trkpt lat="44.9525850" lon="5.3981238">
<ele>879.77</ele>
<time>2019-07-25T10:08:35Z</time>
</trkpt>
<trkpt lat="44.9525850" lon="5.3981316">
<ele>879.79</ele>
<time>2019-07-25T10:08:36Z</time>
</trkpt>
<trkpt lat="44.9525854" lon="5.3981461">
<ele>879.93</ele>
<time>2019-07-25T10:08:37Z</time>
</trkpt>
<trkpt lat="44.9525996" lon="5.3981630">
<ele>879.95</ele>
<time>2019-07-25T10:08:38Z</time>
</trkpt>
<trkpt lat="44.9525992" lon="5.3981638">
<ele>879.96</ele>
<time>2019-07-25T10:08:39Z</time>
</trkpt>
<trkpt lat="44.9525998" lon="5.3981653">
<ele>879.98</ele>
<time>2019-07-25T10:08:40Z</time>
</trkpt>
<trkpt lat="44.9526016" lon="5.3981672">
<ele>880.12</ele>
<time>2019-07-25T10:08:41Z</time>
</trkpt>
<trkpt lat="44.9526064" lon="5.3981757">
<ele>880.27</ele>
<time>2019-07-25T10:08:42Z</time>
</trkpt>
<trkpt lat="44.9526050" lon="5.3981882">
<ele>880.41</ele>
<time>2019-07-25T10:08:43Z</time>
</trkpt>
<trkpt lat="44.9525898" lon="5.3981819">
<ele>880.55</ele>
<time>2019-07-25T10:08:44Z</time>
</trkpt>
<trkpt lat="44.9525815" lon="5.3981820">
<ele>880.70</ele>
<time>2019-07-25T10:08:45Z</time>
</trkpt>
<trkpt lat="44.9525794" lon="5.3981891">
<ele>880.84</ele>
<time>2019-07-25T10:08:46Z</time>
</trkpt>
<trkpt lat="44.9525695" lon="5.3981917">
<ele>880.98</ele>
<time>2019-07-25T10:08:47Z</time>
</trkpt>
<trkpt lat="44.9525660" lon="5.3982083">
<ele>881.12</ele>
<time>2019-07-25T10:08:48Z</time>
</trkpt>
<trkpt lat="44.9525317" lon="5.3981971">
<ele>881.26</ele>
<time>2019-07-25T10:08:49Z</time>
</trkpt>
<trkpt lat="44.9525188" lon="5.3982209">
<ele>881.40</ele>
<time>2019-07-25T10:08:50Z</time>
</trkpt>
<trkpt lat="44.9525025" lon="5.3982538">
<ele>881.54</ele>
<time>2019-07-25T10:08:51Z</time>
</trkpt>
<trkpt lat="44.9524835" lon="5.3982540">
<ele>881.68</ele>
<time>2019-07-25T10:08:52Z</time>
</trkpt>
<trkpt lat="44.9524686" lon="5.3982510">
<ele>881.82</ele>
<time>2019-07-25T10:08:53Z</time>
</trkpt>
<trkpt lat="44.9524360" lon="5.3982672">
<ele>881.96</ele>
<time>2019-07-25T10:08:54Z</time>
</trkpt>
<trkpt lat="44.9524161" lon="5.3982756">
<ele>882.10</ele>
<time>2019-07-25T10:08:55Z</time>
</trkpt>
<trkpt lat="44.9523851" lon="5.3982907">
<ele>882.25</ele>
<time>2019-07-25T10:08:56Z</time>
</trkpt>
<trkpt lat="44.9523618" lon="5.3983020">
<ele>882.39</ele>
<time>2019-07-25T10:08:57Z</time>
</trkpt>
<trkpt lat="44.9523354" lon="5.3983078">
<ele>882.53</ele>
<time>2019-07-25T10:08:58Z</time>
</trkpt>
<trkpt lat="44.9523116" lon="5.3983134">
<ele>882.67</ele>
<time>2019-07-25T10:08:59Z</time>
</trkpt>
<trkpt lat="44.9522677" lon="5.3983265">
<ele>882.81</ele>
<time>2019-07-25T10:09:00Z</time>
</trkpt>
<trkpt lat="44.9522054" lon="5.3983632">
<ele>882.95</ele>
<time>2019-07-25T10:09:01Z</time>
</trkpt>
<trkpt lat="44.9521807" lon="5.3983605">
<ele>883.09</ele>
<time>2019-07-25T10:09:02Z</time>
</trkpt>
<trkpt lat="44.9521473" lon="5.3983571">
<ele>883.23</ele>
<time>2019-07-25T10:09:03Z</time>
</trkpt>
<trkpt lat="44.9521243" lon="5.3983380">
<ele>883.37</ele>
<time>2019-07-25T10:09:04Z</time>
</trkpt>
<trkpt lat="44.9520883" lon="5.3983492">
<ele>883.50</ele>
<time>2019-07-25T10:09:05Z</time>
</trkpt>
<trkpt lat="44.9520617" lon="5.3983722">
<ele>883.64</ele>
<time>2019-07-25T10:09:06Z</time>
</trkpt>
<trkpt lat="44.9520312" lon="5.3983574">
<ele>883.76</ele>
<time>2019-07-25T10:09:07Z</time>
</trkpt>
<trkpt lat="44.9520039" lon="5.3983575">
<ele>883.89</ele>
<time>2019-07-25T10:09:08Z</time>
</trkpt>
<trkpt lat="44.9519866" lon="5.3983452">
<ele>884.01</ele>
<time>2019-07-25T10:09:09Z</time>
</trkpt>
<trkpt lat="44.9519712" lon="5.3983347">
<ele>884.13</ele>
<time>2019-07-25T10:09:10Z</time>
</trkpt>
<trkpt lat="44.9519502" lon="5.3983356">
<ele>884.25</ele>
<time>2019-07-25T10:09:11Z</time>
</trkpt>
<trkpt lat="44.9519095" lon="5.3983478">
<ele>884.36</ele>
<time>2019-07-25T10:09:12Z</time>
</trkpt>
<trkpt lat="44.9518783" lon="5.3983442">
<ele>884.48</ele>
<time>2019-07-25T10:09:13Z</time>
</trkpt>
<trkpt lat="44.9518501" lon="5.3983348">
<ele>884.59</ele>
<time>2019-07-25T10:09:14Z</time>
</trkpt>
<trkpt lat="44.9518338" lon="5.3983060">
<ele>884.69</ele>
<time>2019-07-25T10:09:15Z</time>
</trkpt>
<trkpt lat="44.9518185" lon="5.3983026">
<ele>884.80</ele>
<time>2019-07-25T10:09:16Z</time>
</trkpt>
<trkpt lat="44.9517702" lon="5.3983146">
<ele>884.90</ele>
<time>2019-07-25T10:09:17Z</time>
</trkpt>
<trkpt lat="44.9517077" lon="5.3983262">
<ele>885.00</ele>
<time>2019-07-25T10:09:18Z</time>
</trkpt>
<trkpt lat="44.9516812" lon="5.3983117">
<ele>885.09</ele>
<time>2019-07-25T10:09:19Z</time>
</trkpt>
<trkpt lat="44.9516699" lon="5.3982921">
<ele>885.18</ele>
<time>2019-07-25T10:09:20Z</time>
</trkpt>
<trkpt lat="44.9516322" lon="5.3982917">
<ele>885.27</ele>
<time>2019-07-25T10:09:21Z</time>
</trkpt>
<trkpt lat="44.9516196" lon="5.3982590">
<ele>885.35</ele>
<time>2019-07-25T10:09:22Z</time>
</trkpt>
<trkpt lat="44.9516023" lon="5.3982470">
<ele>885.43</ele>
<time>2019-07-25T10:09:23Z</time>
</trkpt>
<trkpt lat="44.9515678" lon="5.3982516">
<ele>885.51</ele>
<time>2019-07-25T10:09:24Z</time>
</trkpt>
<trkpt lat="44.9515345" lon="5.3982597">
<ele>885.57</ele>
<time>2019-07-25T10:09:25Z</time>
</trkpt>
<trkpt lat="44.9515054" lon="5.3982760">
<ele>885.63</ele>
<time>2019-07-25T10:09:26Z</time>
</trkpt>
<trkpt lat="44.9514749" lon="5.3982948">
<ele>885.69</ele>
<time>2019-07-25T10:09:27Z</time>
</trkpt>
<trkpt lat="44.9514466" lon="5.3983086">
<ele>885.75</ele>
<time>2019-07-25T10:09:28Z</time>
</trkpt>
<trkpt lat="44.9514276" lon="5.3983107">
<ele>885.80</ele>
<time>2019-07-25T10:09:29Z</time>
</trkpt>
<trkpt lat="44.9514059" lon="5.3983049">
<ele>885.86</ele>
<time>2019-07-25T10:09:30Z</time>
</trkpt>
<trkpt lat="44.9513877" lon="5.3982812">
<ele>885.91</ele>
<time>2019-07-25T10:09:31Z</time>
</trkpt>
<trkpt lat="44.9513623" lon="5.3982669">
<ele>885.96</ele>
<time>2019-07-25T10:09:32Z</time>
</trkpt>
<trkpt lat="44.9513398" lon="5.3982428">
<ele>886.01</ele>
<time>2019-07-25T10:09:33Z</time>
</trkpt>
<trkpt lat="44.9513238" lon="5.3982203">
<ele>886.06</ele>
<time>2019-07-25T10:09:34Z</time>
</trkpt>
<trkpt lat="44.9513015" lon="5.3981992">
<ele>886.11</ele>
<time>2019-07-25T10:09:35Z</time>
</trkpt>
<trkpt lat="44.9512909" lon="5.3981911">
<ele>886.16</ele>
<time>2019-07-25T10:09:36Z</time>
</trkpt>
<trkpt lat="44.9512821" lon="5.3981843">
<ele>886.22</ele>
<time>2019-07-25T10:09:37Z</time>
</trkpt>
<trkpt lat="44.9512823" lon="5.3981715">
<ele>886.27</ele>
<time>2019-07-25T10:09:38Z</time>
</trkpt>
<trkpt lat="44.9512777" lon="5.3981605">
<ele>886.33</ele>
<time>2019-07-25T10:09:39Z</time>
</trkpt>
<trkpt lat="44.9512710" lon="5.3981443">
<ele>886.38</ele>
<time>2019-07-25T10:09:40Z</time>
</trkpt>
<trkpt lat="44.9512622" lon="5.3981316">
<ele>886.44</ele>
<time>2019-07-25T10:09:41Z</time>
</trkpt>
<trkpt lat="44.9512462" lon="5.3981149">
<ele>886.50</ele>
<time>2019-07-25T10:09:42Z</time>
</trkpt>
<trkpt lat="44.9512383" lon="5.3980884">
<ele>886.57</ele>
<time>2019-07-25T10:09:43Z</time>
</trkpt>
<trkpt lat="44.9512269" lon="5.3980755">
<ele>886.63</ele>
<time>2019-07-25T10:09:44Z</time>
</trkpt>
<trkpt lat="44.9512121" lon="5.3980618">
<ele>886.70</ele>
<time>2019-07-25T10:09:45Z</time>
</trkpt>
<trkpt lat="44.9512028" lon="5.3980468">
<ele>886.76</ele>
<time>2019-07-25T10:09:46Z</time>
</trkpt>
<trkpt lat="44.9511908" lon="5.3980287">
<ele>886.83</ele>
<time>2019-07-25T10:09:47Z</time>
</trkpt>
<trkpt lat="44.9511783" lon="5.3980074">
<ele>886.89</ele>
<time>2019-07-25T10:09:48Z</time>
</trkpt>
<trkpt lat="44.9511594" lon="5.3979840">
<ele>886.95</ele>
<time>2019-07-25T10:09:49Z</time>
</trkpt>
<trkpt lat="44.9511432" lon="5.3979612">
<ele>887.01</ele>
<time>2019-07-25T10:09:50Z</time>
</trkpt>
<trkpt lat="44.9511301" lon="5.3979436">
<ele>887.07</ele>
<time>2019-07-25T10:09:51Z</time>
</trkpt>
<trkpt lat="44.9511047" lon="5.3979187">
<ele>887.13</ele>
<time>2019-07-25T10:09:52Z</time>
</trkpt>
<trkpt lat="44.9510781" lon="5.3978962">
<ele>887.18</ele>
<time>2019-07-25T10:09:53Z</time>
</trkpt>
<trkpt lat="44.9510605" lon="5.3978750">
<ele>887.22</ele>
<time>2019-07-25T10:09:54Z</time>
</trkpt>
<trkpt lat="44.9510392" lon="5.3978573">
<ele>887.27</ele>
<time>2019-07-25T10:09:55Z</time>
</trkpt>
<trkpt lat="44.9510120" lon="5.3978404">
<ele>887.31</ele>
<time>2019-07-25T10:09:56Z</time>
</trkpt>
<trkpt lat="44.9509810" lon="5.3978199">
<ele>887.35</ele>
<time>2019-07-25T10:09:57Z</time>
</trkpt>
<trkpt lat="44.9509419" lon="5.3977899">
<ele>887.38</ele>
<time>2019-07-25T10:09:58Z</time>
</trkpt>
<trkpt lat="44.9509047" lon="5.3977711">
<ele>887.41</ele>
<time>2019-07-25T10:09:59Z</time>
</trkpt>
<trkpt lat="44.9508810" lon="5.3977459">
<ele>887.45</ele>
<time>2019-07-25T10:10:00Z</time>
</trkpt>
<trkpt lat="44.9508570" lon="5.3977290">
<ele>887.48</ele>
<time>2019-07-25T10:10:01Z</time>
</trkpt>
<trkpt lat="44.9508328" lon="5.3977200">
<ele>887.51</ele>
<time>2019-07-25T10:10:02Z</time>
</trkpt>
<trkpt lat="44.9508078" lon="5.3977383">
<ele>887.55</ele>
<time>2019-07-25T10:10:03Z</time>
</trkpt>
<trkpt lat="44.9507897" lon="5.3977408">
<ele>887.59</ele>
<time>2019-07-25T10:10:04Z</time>
</trkpt>
<trkpt lat="44.9507794" lon="5.3977513">
<ele>887.63</ele>
<time>2019-07-25T10:10:05Z</time>
</trkpt>
<trkpt lat="44.9507641" lon="5.3977736">
<ele>887.67</ele>
<time>2019-07-25T10:10:06Z</time>
</trkpt>
<trkpt lat="44.9507488" lon="5.3978006">
<ele>887.72</ele>
<time>2019-07-25T10:10:07Z</time>
</trkpt>
<trkpt lat="44.9507296" lon="5.3978242">
<ele>887.77</ele>
<time>2019-07-25T10:10:08Z</time>
</trkpt>
<trkpt lat="44.9507181" lon="5.3978424">
<ele>887.82</ele>
<time>2019-07-25T10:10:09Z</time>
</trkpt>
<trkpt lat="44.9507050" lon="5.3978511">
<ele>887.87</ele>
<time>2019-07-25T10:10:10Z</time>
</trkpt>
<trkpt lat="44.9506976" lon="5.3978479">
<ele>887.93</ele>
<time>2019-07-25T10:10:11Z</time>
</trkpt>
<trkpt lat="44.9506795" lon="5.3978645">
<ele>887.98</ele>
<time>2019-07-25T10:10:12Z</time>
</trkpt>
<trkpt lat="44.9506683" lon="5.3978632">
<ele>888.05</ele>
<time>2019-07-25T10:10:13Z</time>
</trkpt>
<trkpt lat="44.9506658" lon="5.3978509">
<ele>888.11</ele>
<time>2019-07-25T10:10:14Z</time>
</trkpt>
<trkpt lat="44.9506661" lon="5.3978395">
<ele>888.18</ele>
<time>2019-07-25T10:10:15Z</time>
</trkpt>
<trkpt lat="44.9506632" lon="5.3978247">
<ele>888.25</ele>
<time>2019-07-25T10:10:16Z</time>
</trkpt>
<trkpt lat="44.9506537" lon="5.3978077">
<ele>888.32</ele>
<time>2019-07-25T10:10:17Z</time>
</trkpt>
<trkpt lat="44.9506372" lon="5.3977857">
<ele>888.39</ele>
<time>2019-07-25T10:10:18Z</time>
</trkpt>
<trkpt lat="44.9506230" lon="5.3977730">
<ele>888.45</ele>
<time>2019-07-25T10:10:19Z</time>
</trkpt>
<trkpt lat="44.9506021" lon="5.3977568">
<ele>888.52</ele>
<time>2019-07-25T10:10:20Z</time>
</trkpt>
<trkpt lat="44.9505847" lon="5.3977451">
<ele>888.52</ele>
<time>2019-07-25T10:10:21Z</time>
</trkpt>
<trkpt lat="44.9505722" lon="5.3977358">
<ele>888.58</ele>
<time>2019-07-25T10:10:22Z</time>
</trkpt>
<trkpt lat="44.9505762" lon="5.3977390">
<ele>888.62</ele>
<time>2019-07-25T10:10:23Z</time>
</trkpt>
<trkpt lat="44.9505985" lon="5.3977446">
<ele>888.67</ele>
<time>2019-07-25T10:10:24Z</time>
</trkpt>
<trkpt lat="44.9506164" lon="5.3977659">
<ele>888.73</ele>
<time>2019-07-25T10:10:25Z</time>
</trkpt>
<trkpt lat="44.9506275" lon="5.3978000">
<ele>888.79</ele>
<time>2019-07-25T10:10:26Z</time>
</trkpt>
<trkpt lat="44.9506345" lon="5.3978398">
<ele>888.86</ele>
<time>2019-07-25T10:10:27Z</time>
</trkpt>
<trkpt lat="44.9506332" lon="5.3978798">
<ele>888.94</ele>
<time>2019-07-25T10:10:28Z</time>
</trkpt>
<trkpt lat="44.9506340" lon="5.3979130">
<ele>889.01</ele>
<time>2019-07-25T10:10:29Z</time>
</trkpt>
<trkpt lat="44.9506378" lon="5.3979443">
<ele>889.08</ele>
<time>2019-07-25T10:10:30Z</time>
</trkpt>
<trkpt lat="44.9506390" lon="5.3979808">
<ele>889.16</ele>
<time>2019-07-25T10:10:31Z</time>
</trkpt>
<trkpt lat="44.9506382" lon="5.3979979">
<ele>889.23</ele>
<time>2019-07-25T10:10:32Z</time>
</trkpt>
<trkpt lat="44.9506314" lon="5.3980226">
<ele>889.31</ele>
<time>2019-07-25T10:10:33Z</time>
</trkpt>
<trkpt lat="44.9506261" lon="5.3980488">
<ele>889.38</ele>
<time>2019-07-25T10:10:34Z</time>
</trkpt>
<trkpt lat="44.9506181" lon="5.3980733">
<ele>889.46</ele>
<time>2019-07-25T10:10:35Z</time>
</trkpt>
<trkpt lat="44.9506030" lon="5.3980967">
<ele>889.54</ele>
<time>2019-07-25T10:10:36Z</time>
</trkpt>
<trkpt lat="44.9505930" lon="5.3981095">
<ele>889.63</ele>
<time>2019-07-25T10:10:37Z</time>
</trkpt>
<trkpt lat="44.9505817" lon="5.3980968">
<ele>889.71</ele>
<time>2019-07-25T10:10:38Z</time>
</trkpt>
<trkpt lat="44.9505769" lon="5.3980701">
<ele>889.80</ele>
<time>2019-07-25T10:10:39Z</time>
</trkpt>
<trkpt lat="44.9505655" lon="5.3980455">
<ele>889.88</ele>
<time>2019-07-25T10:10:40Z</time>
</trkpt>
<trkpt lat="44.9505455" lon="5.3980276">
<ele>889.97</ele>
<time>2019-07-25T10:10:41Z</time>
</trkpt>
<trkpt lat="44.9505282" lon="5.3980096">
<ele>890.06</ele>
<time>2019-07-25T10:10:42Z</time>
</trkpt>
<trkpt lat="44.9505117" lon="5.3979880">
<ele>890.15</ele>
<time>2019-07-25T10:10:43Z</time>
</trkpt>
<trkpt lat="44.9504899" lon="5.3979674">
<ele>890.24</ele>
<time>2019-07-25T10:10:44Z</time>
</trkpt>
<trkpt lat="44.9504706" lon="5.3979521">
<ele>890.33</ele>
<time>2019-07-25T10:10:45Z</time>
</trkpt>
<trkpt lat="44.9504492" lon="5.3979421">
<ele>890.43</ele>
<time>2019-07-25T10:10:46Z</time>
</trkpt>
<trkpt lat="44.9504300" lon="5.3979375">
<ele>890.53</ele>
<time>2019-07-25T10:10:47Z</time>
</trkpt>
<trkpt lat="44.9504085" lon="5.3979270">
<ele>890.63</ele>
<time>2019-07-25T10:10:48Z</time>
</trkpt>
<trkpt lat="44.9503865" lon="5.3979174">
<ele>890.74</ele>
<time>2019-07-25T10:10:49Z</time>
</trkpt>
<trkpt lat="44.9503624" lon="5.3979120">
<ele>890.84</ele>
<time>2019-07-25T10:10:50Z</time>
</trkpt>
<trkpt lat="44.9503360" lon="5.3979059">
<ele>890.95</ele>
<time>2019-07-25T10:10:51Z</time>
</trkpt>
<trkpt lat="44.9503057" lon="5.3979030">
<ele>891.06</ele>
<time>2019-07-25T10:10:52Z</time>
</trkpt>
<trkpt lat="44.9502834" lon="5.3978945">
<ele>891.17</ele>
<time>2019-07-25T10:10:53Z</time>
</trkpt>
<trkpt lat="44.9502626" lon="5.3978772">
<ele>891.28</ele>
<time>2019-07-25T10:10:54Z</time>
</trkpt>
<trkpt lat="44.9502459" lon="5.3978592">
<ele>891.38</ele>
<time>2019-07-25T10:10:55Z</time>
</trkpt>
<trkpt lat="44.9502297" lon="5.3978388">
<ele>891.49</ele>
<time>2019-07-25T10:10:56Z</time>
</trkpt>
<trkpt lat="44.9502179" lon="5.3978179">
<ele>891.59</ele>
<time>2019-07-25T10:10:57Z</time>
</trkpt>
<trkpt lat="44.9502025" lon="5.3977975">
<ele>891.70</ele>
<time>2019-07-25T10:10:58Z</time>
</trkpt>
<trkpt lat="44.9501862" lon="5.3977741">
<ele>891.80</ele>
<time>2019-07-25T10:10:59Z</time>
</trkpt>
<trkpt lat="44.9501711" lon="5.3977467">
<ele>891.90</ele>
<time>2019-07-25T10:11:00Z</time>
</trkpt>
<trkpt lat="44.9501578" lon="5.3977255">
<ele>892.01</ele>
<time>2019-07-25T10:11:01Z</time>
</trkpt>
<trkpt lat="44.9501414" lon="5.3977028">
<ele>892.11</ele>
<time>2019-07-25T10:11:02Z</time>
</trkpt>
<trkpt lat="44.9501236" lon="5.3976779">
<ele>892.22</ele>
<time>2019-07-25T10:11:03Z</time>
</trkpt>
<trkpt lat="44.9501074" lon="5.3976444">
<ele>892.33</ele>
<time>2019-07-25T10:11:04Z</time>
</trkpt>
<trkpt lat="44.9500915" lon="5.3976068">
<ele>892.43</ele>
<time>2019-07-25T10:11:05Z</time>
</trkpt>
<trkpt lat="44.9500778" lon="5.3975804">
<ele>892.54</ele>
<time>2019-07-25T10:11:06Z</time>
</trkpt>
<trkpt lat="44.9500713" lon="5.3975679">
<ele>892.64</ele>
<time>2019-07-25T10:11:07Z</time>
</trkpt>
<trkpt lat="44.9500704" lon="5.3975602">
<ele>892.74</ele>
<time>2019-07-25T10:11:08Z</time>
</trkpt>
<trkpt lat="44.9500689" lon="5.3975562">
<ele>892.75</ele>
<time>2019-07-25T10:11:09Z</time>
</trkpt>
<trkpt lat="44.9500647" lon="5.3975632">
<ele>892.85</ele>
<time>2019-07-25T10:11:10Z</time>
</trkpt>
<trkpt lat="44.9500555" lon="5.3975815">
<ele>892.95</ele>
<time>2019-07-25T10:11:11Z</time>
</trkpt>
<trkpt lat="44.9500676" lon="5.3975880">
<ele>892.96</ele>
<time>2019-07-25T10:11:12Z</time>
</trkpt>
<trkpt lat="44.9500777" lon="5.3976143">
<ele>892.97</ele>
<time>2019-07-25T10:11:13Z</time>
</trkpt>
<trkpt lat="44.9500774" lon="5.3976138">
<ele>892.98</ele>
<time>2019-07-25T10:11:14Z</time>
</trkpt>
<trkpt lat="44.9500782" lon="5.3976143">
<ele>892.99</ele>
<time>2019-07-25T10:11:15Z</time>
</trkpt>
<trkpt lat="44.9500784" lon="5.3976144">
<ele>893.00</ele>
<time>2019-07-25T10:11:16Z</time>
</trkpt>
<trkpt lat="44.9500783" lon="5.3976150">
<ele>893.01</ele>
<time>2019-07-25T10:11:17Z</time>
</trkpt>
<trkpt lat="44.9500785" lon="5.3976156">
<ele>893.02</ele>
<time>2019-07-25T10:11:18Z</time>
</trkpt>
<trkpt lat="44.9500788" lon="5.3976171">
<ele>893.03</ele>
<time>2019-07-25T10:11:19Z</time>
</trkpt>
<trkpt lat="44.9500809" lon="5.3976195">
<ele>893.04</ele>
<time>2019-07-25T10:11:20Z</time>
</trkpt>
<trkpt lat="44.9500809" lon="5.3976196">
<ele>893.05</ele>
<time>2019-07-25T10:11:21Z</time>
</trkpt>
<trkpt lat="44.9500811" lon="5.3976198">
<ele>893.06</ele>
<time>2019-07-25T10:11:22Z</time>
</trkpt>
<trkpt lat="44.9500810" lon="5.3976196">
<ele>893.07</ele>
<time>2019-07-25T10:11:23Z</time>
</trkpt>
<trkpt lat="44.9500822" lon="5.3976181">
<ele>893.08</ele>
<time>2019-07-25T10:11:24Z</time>
</trkpt>
<trkpt lat="44.9500828" lon="5.3976194">
<ele>893.09</ele>
<time>2019-07-25T10:11:25Z</time>
</trkpt>
<trkpt lat="44.9500750" lon="5.3976216">
<ele>893.10</ele>
<time>2019-07-25T10:11:26Z</time>
</trkpt>
<trkpt lat="44.9500742" lon="5.3976168">
<ele>893.20</ele>
<time>2019-07-25T10:11:27Z</time>
</trkpt>
<trkpt lat="44.9500661" lon="5.3976160">
<ele>893.30</ele>
<time>2019-07-25T10:11:28Z</time>
</trkpt>
<trkpt lat="44.9500632" lon="5.3976183">
<ele>893.31</ele>
<time>2019-07-25T10:11:29Z</time>
</trkpt>
<trkpt lat="44.9500483" lon="5.3976086">
<ele>893.32</ele>
<time>2019-07-25T10:11:30Z</time>
</trkpt>
<trkpt lat="44.9500481" lon="5.3976084">
<ele>893.34</ele>
<time>2019-07-25T10:11:31Z</time>
</trkpt>
<trkpt lat="44.9500476" lon="5.3976077">
<ele>893.35</ele>
<time>2019-07-25T10:11:32Z</time>
</trkpt>
<trkpt lat="44.9500468" lon="5.3976089">
<ele>893.36</ele>
<time>2019-07-25T10:11:33Z</time>
</trkpt>
<trkpt lat="44.9500463" lon="5.3976093">
<ele>893.37</ele>
<time>2019-07-25T10:11:34Z</time>
</trkpt>
<trkpt lat="44.9500451" lon="5.3976106">
<ele>893.38</ele>
<time>2019-07-25T10:11:35Z</time>
</trkpt>
<trkpt lat="44.9500401" lon="5.3976306">
<ele>893.50</ele>
<time>2019-07-25T10:11:36Z</time>
</trkpt>
<trkpt lat="44.9500402" lon="5.3976365">
<ele>893.51</ele>
<time>2019-07-25T10:11:37Z</time>
</trkpt>
<trkpt lat="44.9500554" lon="5.3976436">
<ele>893.52</ele>
<time>2019-07-25T10:11:38Z</time>
</trkpt>
<trkpt lat="44.9500649" lon="5.3976583">
<ele>893.53</ele>
<time>2019-07-25T10:11:39Z</time>
</trkpt>
<trkpt lat="44.9500646" lon="5.3976580">
<ele>893.54</ele>
<time>2019-07-25T10:11:40Z</time>
</trkpt>
<trkpt lat="44.9500647" lon="5.3976583">
<ele>893.56</ele>
<time>2019-07-25T10:11:41Z</time>
</trkpt>
<trkpt lat="44.9500651" lon="5.3976596">
<ele>893.57</ele>
<time>2019-07-25T10:11:42Z</time>
</trkpt>
<trkpt lat="44.9500651" lon="5.3976597">
<ele>893.58</ele>
<time>2019-07-25T10:11:43Z</time>
</trkpt>
<trkpt lat="44.9500651" lon="5.3976596">
<ele>893.59</ele>
<time>2019-07-25T10:11:44Z</time>
</trkpt>
<trkpt lat="44.9500650" lon="5.3976596">
<ele>893.60</ele>
<time>2019-07-25T10:11:45Z</time>
</trkpt>
<trkpt lat="44.9500649" lon="5.3976593">
<ele>893.62</ele>
<time>2019-07-25T10:11:46Z</time>
</trkpt>
<trkpt lat="44.9500647" lon="5.3976590">
<ele>893.63</ele>
<time>2019-07-25T10:11:47Z</time>
</trkpt>
<trkpt lat="44.9500647" lon="5.3976591">
<ele>893.64</ele>
<time>2019-07-25T10:11:48Z</time>
</trkpt>
<trkpt lat="44.9500646" lon="5.3976579">
<ele>893.65</ele>
<time>2019-07-25T10:11:49Z</time>
</trkpt>
<trkpt lat="44.9500648" lon="5.3976574">
<ele>893.66</ele>
<time>2019-07-25T10:11:50Z</time>
</trkpt>
<trkpt lat="44.9500648" lon="5.3976564">
<ele>893.67</ele>
<time>2019-07-25T10:11:51Z</time>
</trkpt>
<trkpt lat="44.9500643" lon="5.3976563">
<ele>893.68</ele>
<time>2019-07-25T10:11:52Z</time>
</trkpt>
<trkpt lat="44.9500633" lon="5.3976339">
<ele>893.80</ele>
<time>2019-07-25T10:11:53Z</time>
</trkpt>
<trkpt lat="44.9500616" lon="5.3976132">
<ele>893.81</ele>
<time>2019-07-25T10:11:54Z</time>
</trkpt>
<trkpt lat="44.9500580" lon="5.3976004">
<ele>893.92</ele>
<time>2019-07-25T10:11:55Z</time>
</trkpt>
<trkpt lat="44.9500587" lon="5.3976005">
<ele>893.93</ele>
<time>2019-07-25T10:11:56Z</time>
</trkpt>
<trkpt lat="44.9500592" lon="5.3975988">
<ele>893.95</ele>
<time>2019-07-25T10:11:57Z</time>
</trkpt>
<trkpt lat="44.9500593" lon="5.3975952">
<ele>893.96</ele>
<time>2019-07-25T10:11:58Z</time>
</trkpt>
<trkpt lat="44.9500597" lon="5.3975955">
<ele>893.97</ele>
<time>2019-07-25T10:11:59Z</time>
</trkpt>
<trkpt lat="44.9500598" lon="5.3975953">
<ele>893.98</ele>
<time>2019-07-25T10:12:00Z</time>
</trkpt>
<trkpt lat="44.9500615" lon="5.3975925">
<ele>893.99</ele>
<time>2019-07-25T10:12:01Z</time>
</trkpt>
<trkpt lat="44.9500625" lon="5.3975930">
<ele>894.00</ele>
<time>2019-07-25T10:12:02Z</time>
</trkpt>
<trkpt lat="44.9500638" lon="5.3975938">
<ele>894.01</ele>
<time>2019-07-25T10:12:03Z</time>
</trkpt>
<trkpt lat="44.9500646" lon="5.3975937">
<ele>894.02</ele>
<time>2019-07-25T10:12:04Z</time>
</trkpt>
<trkpt lat="44.9500651" lon="5.3975946">
<ele>894.03</ele>
<time>2019-07-25T10:12:05Z</time>
</trkpt>
<trkpt lat="44.9500697" lon="5.3975877">
<ele>894.04</ele>
<time>2019-07-25T10:12:06Z</time>
</trkpt>
<trkpt lat="44.9500723" lon="5.3975979">
<ele>894.13</ele>
<time>2019-07-25T10:12:07Z</time>
</trkpt>
<trkpt lat="44.9500706" lon="5.3976012">
<ele>894.21</ele>
<time>2019-07-25T10:12:08Z</time>
</trkpt>
<trkpt lat="44.9500685" lon="5.3976028">
<ele>894.22</ele>
<time>2019-07-25T10:12:09Z</time>
</trkpt>
<trkpt lat="44.9500690" lon="5.3976026">
<ele>894.23</ele>
<time>2019-07-25T10:12:10Z</time>
</trkpt>
<trkpt lat="44.9500689" lon="5.3976027">
<ele>894.24</ele>
<time>2019-07-25T10:12:11Z</time>
</trkpt>
<trkpt lat="44.9500691" lon="5.3976027">
<ele>894.24</ele>
<time>2019-07-25T10:12:12Z</time>
</trkpt>
<trkpt lat="44.9500696" lon="5.3976029">
<ele>894.25</ele>
<time>2019-07-25T10:12:13Z</time>
</trkpt>
<trkpt lat="44.9500698" lon="5.3976029">
<ele>894.26</ele>
<time>2019-07-25T10:12:14Z</time>
</trkpt>
<trkpt lat="44.9500700" lon="5.3976029">
<ele>894.26</ele>
<time>2019-07-25T10:12:15Z</time>
</trkpt>
<trkpt lat="44.9500702" lon="5.3976030">
<ele>894.27</ele>
<time>2019-07-25T10:12:16Z</time>
</trkpt>
<trkpt lat="44.9500704" lon="5.3976031">
<ele>894.28</ele>
<time>2019-07-25T10:12:17Z</time>
</trkpt>
<trkpt lat="44.9500706" lon="5.3976034">
<ele>894.28</ele>
<time>2019-07-25T10:12:18Z</time>
</trkpt>
<trkpt lat="44.9500708" lon="5.3976034">
<ele>894.28</ele>
<time>2019-07-25T10:12:19Z</time>
</trkpt>
<trkpt lat="44.9500709" lon="5.3976033">
<ele>894.29</ele>
<time>2019-07-25T10:12:20Z</time>
</trkpt>
<trkpt lat="44.9500711" lon="5.3976033">
<ele>894.29</ele>
<time>2019-07-25T10:12:21Z</time>
</trkpt>
<trkpt lat="44.9500719" lon="5.3976038">
<ele>894.29</ele>
<time>2019-07-25T10:12:22Z</time>
</trkpt>
<trkpt lat="44.9500720" lon="5.3976037">
<ele>894.30</ele>
<time>2019-07-25T10:12:23Z</time>
</trkpt>
<trkpt lat="44.9500724" lon="5.3976039">
<ele>894.30</ele>
<time>2019-07-25T10:12:24Z</time>
</trkpt>
<trkpt lat="44.9500723" lon="5.3976036">
<ele>894.30</ele>
<time>2019-07-25T10:12:25Z</time>
</trkpt>
<trkpt lat="44.9500725" lon="5.3976035">
<ele>894.30</ele>
<time>2019-07-25T10:12:26Z</time>
</trkpt>
<trkpt lat="44.9500726" lon="5.3976035">
<ele>894.30</ele>
<time>2019-07-25T10:12:27Z</time>
</trkpt>
<trkpt lat="44.9500730" lon="5.3976032">
<ele>894.30</ele>
<time>2019-07-25T10:12:28Z</time>
</trkpt>
<trkpt lat="44.9500731" lon="5.3976028">
<ele>894.30</ele>
<time>2019-07-25T10:12:29Z</time>
</trkpt>
<trkpt lat="44.9500732" lon="5.3976026">
<ele>894.30</ele>
<time>2019-07-25T10:12:30Z</time>
</trkpt>
<trkpt lat="44.9500733" lon="5.3976023">
<ele>894.30</ele>
<time>2019-07-25T10:12:31Z</time>
</trkpt>
<trkpt lat="44.9500741" lon="5.3976006">
<ele>894.30</ele>
<time>2019-07-25T10:12:32Z</time>
</trkpt>
<trkpt lat="44.9500764" lon="5.3975963">
<ele>894.29</ele>
<time>2019-07-25T10:12:33Z</time>
</trkpt>
<trkpt lat="44.9500773" lon="5.3975940">
<ele>894.29</ele>
<time>2019-07-25T10:12:34Z</time>
</trkpt>
<trkpt lat="44.9500774" lon="5.3975934">
<ele>894.29</ele>
<time>2019-07-25T10:12:35Z</time>
</trkpt>
<trkpt lat="44.9500780" lon="5.3975922">
<ele>894.29</ele>
<time>2019-07-25T10:12:36Z</time>
</trkpt>
<trkpt lat="44.9500784" lon="5.3975918">
<ele>894.28</ele>
<time>2019-07-25T10:12:37Z</time>
</trkpt>
<trkpt lat="44.9500790" lon="5.3975916">
<ele>894.28</ele>
<time>2019-07-25T10:12:38Z</time>
</trkpt>
<trkpt lat="44.9500796" lon="5.3975909">
<ele>894.27</ele>
<time>2019-07-25T10:12:39Z</time>
</trkpt>
<trkpt lat="44.9500800" lon="5.3975907">
<ele>894.27</ele>
<time>2019-07-25T10:12:40Z</time>
</trkpt>
<trkpt lat="44.9500802" lon="5.3975896">
<ele>894.27</ele>
<time>2019-07-25T10:12:41Z</time>
</trkpt>
<trkpt lat="44.9500801" lon="5.3975892">
<ele>894.26</ele>
<time>2019-07-25T10:12:42Z</time>
</trkpt>
<trkpt lat="44.9500803" lon="5.3975892">
<ele>894.26</ele>
<time>2019-07-25T10:12:43Z</time>
</trkpt>
<trkpt lat="44.9500803" lon="5.3975876">
<ele>894.26</ele>
<time>2019-07-25T10:12:44Z</time>
</trkpt>
<trkpt lat="44.9500803" lon="5.3975876">
<ele>894.26</ele>
<time>2019-07-25T10:12:45Z</time>
</trkpt>
<trkpt lat="44.9500806" lon="5.3975877">
<ele>894.26</ele>
<time>2019-07-25T10:12:46Z</time>
</trkpt>
<trkpt lat="44.9500806" lon="5.3975877">
<ele>894.26</ele>
<time>2019-07-25T10:12:47Z</time>
</trkpt>
<trkpt lat="44.9500806" lon="5.3975876">
<ele>894.26</ele>
<time>2019-07-25T10:12:48Z</time>
</trkpt>
<trkpt lat="44.9500801" lon="5.3975872">
<ele>894.26</ele>
<time>2019-07-25T10:12:49Z</time>
</trkpt>
<trkpt lat="44.9500800" lon="5.3975872">
<ele>894.26</ele>
<time>2019-07-25T10:12:50Z</time>
</trkpt>
<trkpt lat="44.9500797" lon="5.3975871">
<ele>894.26</ele>
<time>2019-07-25T10:12:51Z</time>
</trkpt>
<trkpt lat="44.9500796" lon="5.3975869">
<ele>894.26</ele>
<time>2019-07-25T10:12:52Z</time>
</trkpt>
<trkpt lat="44.9500796" lon="5.3975868">
<ele>894.27</ele>
<time>2019-07-25T10:12:53Z</time>
</trkpt>
<trkpt lat="44.9500800" lon="5.3975870">
<ele>894.27</ele>
<time>2019-07-25T10:12:54Z</time>
</trkpt>
<trkpt lat="44.9500800" lon="5.3975876">
<ele>894.28</ele>
<time>2019-07-25T10:12:55Z</time>
</trkpt>
<trkpt lat="44.9500800" lon="5.3975881">
<ele>894.28</ele>
<time>2019-07-25T10:12:56Z</time>
</trkpt>
<trkpt lat="44.9500801" lon="5.3975907">
<ele>894.29</ele>
<time>2019-07-25T10:12:57Z</time>
</trkpt>
<trkpt lat="44.9500802" lon="5.3975907">
<ele>894.29</ele>
<time>2019-07-25T10:12:58Z</time>
</trkpt>
<trkpt lat="44.9500801" lon="5.3975907">
<ele>894.30</ele>
<time>2019-07-25T10:12:59Z</time>
</trkpt>
<trkpt lat="44.9500801" lon="5.3975906">
<ele>894.31</ele>
<time>2019-07-25T10:13:00Z</time>
</trkpt>
<trkpt lat="44.9500801" lon="5.3975902">
<ele>894.32</ele>
<time>2019-07-25T10:13:01Z</time>
</trkpt>
<trkpt lat="44.9500800" lon="5.3975892">
<ele>894.33</ele>
<time>2019-07-25T10:13:02Z</time>
</trkpt>
<trkpt lat="44.9500800" lon="5.3975895">
<ele>894.35</ele>
<time>2019-07-25T10:13:03Z</time>
</trkpt>
<trkpt lat="44.9500799" lon="5.3975896">
<ele>894.36</ele>
<time>2019-07-25T10:13:04Z</time>
</trkpt>
<trkpt lat="44.9500799" lon="5.3975896">
<ele>894.37</ele>
<time>2019-07-25T10:13:05Z</time>
</trkpt>
<trkpt lat="44.9500799" lon="5.3975891">
<ele>894.39</ele>
<time>2019-07-25T10:13:06Z</time>
</trkpt>
<trkpt lat="44.9500799" lon="5.3975885">
<ele>894.40</ele>
<time>2019-07-25T10:13:07Z</time>
</trkpt>
<trkpt lat="44.9500799" lon="5.3975874">
<ele>894.42</ele>
<time>2019-07-25T10:13:08Z</time>
</trkpt>
<trkpt lat="44.9500798" lon="5.3975864">
<ele>894.43</ele>
<time>2019-07-25T10:13:09Z</time>
</trkpt>
<trkpt lat="44.9500797" lon="5.3975836">
<ele>894.45</ele>
<time>2019-07-25T10:13:10Z</time>
</trkpt>
<trkpt lat="44.9500797" lon="5.3975835">
<ele>894.47</ele>
<time>2019-07-25T10:13:11Z</time>
</trkpt>
<trkpt lat="44.9500792" lon="5.3975825">
<ele>894.48</ele>
<time>2019-07-25T10:13:12Z</time>
</trkpt>
<trkpt lat="44.9500791" lon="5.3975832">
<ele>894.50</ele>
<time>2019-07-25T10:13:13Z</time>
</trkpt>
<trkpt lat="44.9500784" lon="5.3975832">
<ele>894.52</ele>
<time>2019-07-25T10:13:14Z</time>
</trkpt>
<trkpt lat="44.9500777" lon="5.3975842">
<ele>894.53</ele>
<time>2019-07-25T10:13:15Z</time>
</trkpt>
<trkpt lat="44.9500778" lon="5.3975841">
<ele>894.55</ele>
<time>2019-07-25T10:13:16Z</time>
</trkpt>
<trkpt lat="44.9500775" lon="5.3975841">
<ele>894.57</ele>
<time>2019-07-25T10:13:17Z</time>
</trkpt>
<trkpt lat="44.9500777" lon="5.3975835">
<ele>894.59</ele>
<time>2019-07-25T10:13:18Z</time>
</trkpt>
<trkpt lat="44.9500769" lon="5.3975896">
<ele>894.61</ele>
<time>2019-07-25T10:13:19Z</time>
</trkpt>
<trkpt lat="44.9500804" lon="5.3975909">
<ele>894.79</ele>
<time>2019-07-25T10:13:20Z</time>
</trkpt>
<trkpt lat="44.9500788" lon="5.3976024">
<ele>894.81</ele>
<time>2019-07-25T10:13:21Z</time>
</trkpt>
<trkpt lat="44.9500868" lon="5.3975838">
<ele>894.83</ele>
<time>2019-07-25T10:13:22Z</time>
</trkpt>
<trkpt lat="44.9500872" lon="5.3975827">
<ele>894.85</ele>
<time>2019-07-25T10:13:23Z</time>
</trkpt>
<trkpt lat="44.9500875" lon="5.3975821">
<ele>894.87</ele>
<time>2019-07-25T10:13:24Z</time>
</trkpt>
<trkpt lat="44.9500893" lon="5.3975802">
<ele>894.89</ele>
<time>2019-07-25T10:13:25Z</time>
</trkpt>
<trkpt lat="44.9500897" lon="5.3975810">
<ele>894.90</ele>
<time>2019-07-25T10:13:26Z</time>
</trkpt>
<trkpt lat="44.9500896" lon="5.3975811">
<ele>894.92</ele>
<time>2019-07-25T10:13:27Z</time>
</trkpt>
<trkpt lat="44.9500899" lon="5.3975794">
<ele>894.94</ele>
<time>2019-07-25T10:13:28Z</time>
</trkpt>
<trkpt lat="44.9500895" lon="5.3975804">
<ele>894.96</ele>
<time>2019-07-25T10:13:29Z</time>
</trkpt>
<trkpt lat="44.9500895" lon="5.3975810">
<ele>894.97</ele>
<time>2019-07-25T10:13:30Z</time>
</trkpt>
<trkpt lat="44.9500895" lon="5.3975814">
<ele>894.99</ele>
<time>2019-07-25T10:13:31Z</time>
</trkpt>
<trkpt lat="44.9500892" lon="5.3975810">
<ele>895.01</ele>
<time>2019-07-25T10:13:32Z</time>
</trkpt>
<trkpt lat="44.9500881" lon="5.3975805">
<ele>895.02</ele>
<time>2019-07-25T10:13:33Z</time>
</trkpt>
<trkpt lat="44.9500880" lon="5.3975806">
<ele>895.04</ele>
<time>2019-07-25T10:13:34Z</time>
</trkpt>
<trkpt lat="44.9500875" lon="5.3975816">
<ele>895.05</ele>
<time>2019-07-25T10:13:35Z</time>
</trkpt>
<trkpt lat="44.9500867" lon="5.3975780">
<ele>895.06</ele>
<time>2019-07-25T10:13:36Z</time>
</trkpt>
<trkpt lat="44.9500865" lon="5.3975766">
<ele>895.07</ele>
<time>2019-07-25T10:13:37Z</time>
</trkpt>
<trkpt lat="44.9500855" lon="5.3975755">
<ele>895.09</ele>
<time>2019-07-25T10:13:38Z</time>
</trkpt>
<trkpt lat="44.9500844" lon="5.3975729">
<ele>895.10</ele>
<time>2019-07-25T10:13:39Z</time>
</trkpt>
<trkpt lat="44.9500840" lon="5.3975727">
<ele>895.11</ele>
<time>2019-07-25T10:13:40Z</time>
</trkpt>
<trkpt lat="44.9500836" lon="5.3975728">
<ele>895.12</ele>
<time>2019-07-25T10:13:41Z</time>
</trkpt>
<trkpt lat="44.9500834" lon="5.3975709">
<ele>895.13</ele>
<time>2019-07-25T10:13:42Z</time>
</trkpt>
<trkpt lat="44.9500832" lon="5.3975697">
<ele>895.13</ele>
<time>2019-07-25T10:13:43Z</time>
</trkpt>
<trkpt lat="44.9500832" lon="5.3975693">
<ele>895.14</ele>
<time>2019-07-25T10:13:44Z</time>
</trkpt>
<trkpt lat="44.9500829" lon="5.3975683">
<ele>895.15</ele>
<time>2019-07-25T10:13:45Z</time>
</trkpt>
<trkpt lat="44.9500826" lon="5.3975659">
<ele>895.16</ele>
<time>2019-07-25T10:13:46Z</time>
</trkpt>
<trkpt lat="44.9500826" lon="5.3975645">
<ele>895.16</ele>
<time>2019-07-25T10:13:47Z</time>
</trkpt>
<trkpt lat="44.9500823" lon="5.3975639">
<ele>895.17</ele>
<time>2019-07-25T10:13:48Z</time>
</trkpt>
<trkpt lat="44.9500820" lon="5.3975638">
<ele>895.18</ele>
<time>2019-07-25T10:13:49Z</time>
</trkpt>
<trkpt lat="44.9500812" lon="5.3975617">
<ele>895.18</ele>
<time>2019-07-25T10:13:50Z</time>
</trkpt>
<trkpt lat="44.9500801" lon="5.3975603">
<ele>895.19</ele>
<time>2019-07-25T10:13:51Z</time>
</trkpt>
<trkpt lat="44.9500801" lon="5.3975570">
<ele>895.20</ele>
<time>2019-07-25T10:13:52Z</time>
</trkpt>
<trkpt lat="44.9500792" lon="5.3975540">
<ele>895.21</ele>
<time>2019-07-25T10:13:53Z</time>
</trkpt>
<trkpt lat="44.9500643" lon="5.3975392">
<ele>895.28</ele>
<time>2019-07-25T10:13:54Z</time>
</trkpt>
<trkpt lat="44.9500487" lon="5.3975463">
<ele>895.35</ele>
<time>2019-07-25T10:13:55Z</time>
</trkpt>
<trkpt lat="44.9500392" lon="5.3975563">
<ele>895.36</ele>
<time>2019-07-25T10:13:56Z</time>
</trkpt>
<trkpt lat="44.9500388" lon="5.3975192">
<ele>895.37</ele>
<time>2019-07-25T10:13:57Z</time>
</trkpt>
<trkpt lat="44.9500384" lon="5.3975189">
<ele>895.38</ele>
<time>2019-07-25T10:13:58Z</time>
</trkpt>
<trkpt lat="44.9500376" lon="5.3975169">
<ele>895.38</ele>
<time>2019-07-25T10:13:59Z</time>
</trkpt>
<trkpt lat="44.9500377" lon="5.3975152">
<ele>895.39</ele>
<time>2019-07-25T10:14:00Z</time>
</trkpt>
<trkpt lat="44.9500376" lon="5.3975149">
<ele>895.40</ele>
<time>2019-07-25T10:14:01Z</time>
</trkpt>
<trkpt lat="44.9500372" lon="5.3975163">
<ele>895.40</ele>
<time>2019-07-25T10:14:02Z</time>
</trkpt>
<trkpt lat="44.9500373" lon="5.3975151">
<ele>895.41</ele>
<time>2019-07-25T10:14:03Z</time>
</trkpt>
<trkpt lat="44.9500373" lon="5.3975137">
<ele>895.42</ele>
<time>2019-07-25T10:14:04Z</time>
</trkpt>
<trkpt lat="44.9500373" lon="5.3975128">
<ele>895.42</ele>
<time>2019-07-25T10:14:05Z</time>
</trkpt>
<trkpt lat="44.9500370" lon="5.3975130">
<ele>895.43</ele>
<time>2019-07-25T10:14:06Z</time>
</trkpt>
<trkpt lat="44.9500369" lon="5.3975129">
<ele>895.43</ele>
<time>2019-07-25T10:14:07Z</time>
</trkpt>
<trkpt lat="44.9500369" lon="5.3975126">
<ele>895.44</ele>
<time>2019-07-25T10:14:08Z</time>
</trkpt>
<trkpt lat="44.9500368" lon="5.3975129">
<ele>895.45</ele>
<time>2019-07-25T10:14:09Z</time>
</trkpt>
<trkpt lat="44.9500369" lon="5.3975126">
<ele>895.45</ele>
<time>2019-07-25T10:14:10Z</time>
</trkpt>
<trkpt lat="44.9500368" lon="5.3975131">
<ele>895.46</ele>
<time>2019-07-25T10:14:11Z</time>
</trkpt>
<trkpt lat="44.9500370" lon="5.3975123">
<ele>895.46</ele>
<time>2019-07-25T10:14:12Z</time>
</trkpt>
<trkpt lat="44.9500389" lon="5.3975081">
<ele>895.47</ele>
<time>2019-07-25T10:14:13Z</time>
</trkpt>
<trkpt lat="44.9500364" lon="5.3975077">
<ele>895.47</ele>
<time>2019-07-25T10:14:14Z</time>
</trkpt>
<trkpt lat="44.9500364" lon="5.3975127">
<ele>895.50</ele>
<time>2019-07-25T10:14:15Z</time>
</trkpt>
<trkpt lat="44.9500365" lon="5.3975204">
<ele>895.51</ele>
<time>2019-07-25T10:14:16Z</time>
</trkpt>
<trkpt lat="44.9500393" lon="5.3975138">
<ele>895.51</ele>
<time>2019-07-25T10:14:17Z</time>
</trkpt>
<trkpt lat="44.9500394" lon="5.3975135">
<ele>895.51</ele>
<time>2019-07-25T10:14:18Z</time>
</trkpt>
<trkpt lat="44.9500394" lon="5.3975133">
<ele>895.52</ele>
<time>2019-07-25T10:14:19Z</time>
</trkpt>
<trkpt lat="44.9500396" lon="5.3975122">
<ele>895.52</ele>
<time>2019-07-25T10:14:20Z</time>
</trkpt>
<trkpt lat="44.9500396" lon="5.3975117">
<ele>895.53</ele>
<time>2019-07-25T10:14:21Z</time>
</trkpt>
<trkpt lat="44.9500400" lon="5.3975108">
<ele>895.53</ele>
<time>2019-07-25T10:14:22Z</time>
</trkpt>
<trkpt lat="44.9500402" lon="5.3975099">
<ele>895.53</ele>
<time>2019-07-25T10:14:23Z</time>
</trkpt>
<trkpt lat="44.9500403" lon="5.3975092">
<ele>895.54</ele>
<time>2019-07-25T10:14:24Z</time>
</trkpt>
<trkpt lat="44.9500405" lon="5.3975084">
<ele>895.54</ele>
<time>2019-07-25T10:14:25Z</time>
</trkpt>
<trkpt lat="44.9500403" lon="5.3975087">
<ele>895.54</ele>
<time>2019-07-25T10:14:26Z</time>
</trkpt>
<trkpt lat="44.9500402" lon="5.3975089">
<ele>895.55</ele>
<time>2019-07-25T10:14:27Z</time>
</trkpt>
<trkpt lat="44.9500400" lon="5.3975091">
<ele>895.55</ele>
<time>2019-07-25T10:14:28Z</time>
</trkpt>
<trkpt lat="44.9500400" lon="5.3975091">
<ele>895.56</ele>
<time>2019-07-25T10:14:29Z</time>
</trkpt>
<trkpt lat="44.9500401" lon="5.3975076">
<ele>895.56</ele>
<time>2019-07-25T10:14:30Z</time>
</trkpt>
<trkpt lat="44.9500402" lon="5.3975065">
<ele>895.57</ele>
<time>2019-07-25T10:14:31Z</time>
</trkpt>
<trkpt lat="44.9500403" lon="5.3975053">
<ele>895.57</ele>
<time>2019-07-25T10:14:32Z</time>
</trkpt>
<trkpt lat="44.9500404" lon="5.3975053">
<ele>895.58</ele>
<time>2019-07-25T10:14:33Z</time>
</trkpt>
<trkpt lat="44.9500402" lon="5.3975065">
<ele>895.58</ele>
<time>2019-07-25T10:14:34Z</time>
</trkpt>
<trkpt lat="44.9500399" lon="5.3975079">
<ele>895.59</ele>
<time>2019-07-25T10:14:35Z</time>
</trkpt>
<trkpt lat="44.9500399" lon="5.3975083">
<ele>895.59</ele>
<time>2019-07-25T10:14:36Z</time>
</trkpt>
<trkpt lat="44.9500398" lon="5.3975099">
<ele>895.60</ele>
<time>2019-07-25T10:14:37Z</time>
</trkpt>
<trkpt lat="44.9500398" lon="5.3975098">
<ele>895.60</ele>
<time>2019-07-25T10:14:38Z</time>
</trkpt>
<trkpt lat="44.9500399" lon="5.3975091">
<ele>895.60</ele>
<time>2019-07-25T10:14:39Z</time>
</trkpt>
<trkpt lat="44.9500400" lon="5.3975085">
<ele>895.61</ele>
<time>2019-07-25T10:14:40Z</time>
</trkpt>
<trkpt lat="44.9500399" lon="5.3975071">
<ele>895.61</ele>
<time>2019-07-25T10:14:41Z</time>
</trkpt>
<trkpt lat="44.9500399" lon="5.3975070">
<ele>895.61</ele>
<time>2019-07-25T10:14:42Z</time>
</trkpt>
<trkpt lat="44.9500403" lon="5.3975085">
<ele>895.61</ele>
<time>2019-07-25T10:14:43Z</time>
</trkpt>
<trkpt lat="44.9500402" lon="5.3975082">
<ele>895.61</ele>
<time>2019-07-25T10:14:44Z</time>
</trkpt>
<trkpt lat="44.9500401" lon="5.3975075">
<ele>895.61</ele>
<time>2019-07-25T10:14:45Z</time>
</trkpt>
<trkpt lat="44.9500398" lon="5.3975064">
<ele>895.61</ele>
<time>2019-07-25T10:14:46Z</time>
</trkpt>
<trkpt lat="44.9500398" lon="5.3975064">
<ele>895.61</ele>
<time>2019-07-25T10:14:47Z</time>
</trkpt>
<trkpt lat="44.9500397" lon="5.3975066">
<ele>895.60</ele>
<time>2019-07-25T10:14:48Z</time>
</trkpt>
<trkpt lat="44.9500396" lon="5.3975063">
<ele>895.60</ele>
<time>2019-07-25T10:14:49Z</time>
</trkpt>
<trkpt lat="44.9500394" lon="5.3975058">
<ele>895.60</ele>
<time>2019-07-25T10:14:50Z</time>
</trkpt>
<trkpt lat="44.9500393" lon="5.3975060">
<ele>895.60</ele>
<time>2019-07-25T10:14:51Z</time>
</trkpt>
<trkpt lat="44.9500392" lon="5.3975059">
<ele>895.60</ele>
<time>2019-07-25T10:14:52Z</time>
</trkpt>
<trkpt lat="44.9500392" lon="5.3975057">
<ele>895.60</ele>
<time>2019-07-25T10:14:53Z</time>
</trkpt>
<trkpt lat="44.9500393" lon="5.3975058">
<ele>895.60</ele>
<time>2019-07-25T10:14:54Z</time>
</trkpt>
<trkpt lat="44.9500394" lon="5.3975062">
<ele>895.59</ele>
<time>2019-07-25T10:14:55Z</time>
</trkpt>
<trkpt lat="44.9500394" lon="5.3975063">
<ele>895.59</ele>
<time>2019-07-25T10:14:56Z</time>
</trkpt>
<trkpt lat="44.9500394" lon="5.3975064">
<ele>895.59</ele>
<time>2019-07-25T10:14:57Z</time>
</trkpt>
<trkpt lat="44.9500393" lon="5.3975067">
<ele>895.59</ele>
<time>2019-07-25T10:14:58Z</time>
</trkpt>
<trkpt lat="44.9500393" lon="5.3975068">
<ele>895.59</ele>
<time>2019-07-25T10:14:59Z</time>
</trkpt>
<trkpt lat="44.9500394" lon="5.3975073">
<ele>895.59</ele>
<time>2019-07-25T10:15:00Z</time>
</trkpt>
<trkpt lat="44.9500395" lon="5.3975075">
<ele>895.58</ele>
<time>2019-07-25T10:15:01Z</time>
</trkpt>
<trkpt lat="44.9500395" lon="5.3975078">
<ele>895.58</ele>
<time>2019-07-25T10:15:02Z</time>
</trkpt>
<trkpt lat="44.9500396" lon="5.3975079">
<ele>895.58</ele>
<time>2019-07-25T10:15:03Z</time>
</trkpt>
<trkpt lat="44.9500396" lon="5.3975079">
<ele>895.58</ele>
<time>2019-07-25T10:15:04Z</time>
</trkpt>
<trkpt lat="44.9500395" lon="5.3975077">
<ele>895.58</ele>
<time>2019-07-25T10:15:05Z</time>
</trkpt>
<trkpt lat="44.9500395" lon="5.3975076">
<ele>895.58</ele>
<time>2019-07-25T10:15:06Z</time>
</trkpt>
<trkpt lat="44.9500394" lon="5.3975075">
<ele>895.57</ele>
<time>2019-07-25T10:15:07Z</time>
</trkpt>
<trkpt lat="44.9500395" lon="5.3975075">
<ele>895.57</ele>
<time>2019-07-25T10:15:08Z</time>
</trkpt>
<trkpt lat="44.9500396" lon="5.3975077">
<ele>895.57</ele>
<time>2019-07-25T10:15:09Z</time>
</trkpt>
<trkpt lat="44.9500393" lon="5.3975073">
<ele>895.57</ele>
<time>2019-07-25T10:15:10Z</time>
</trkpt>
<trkpt lat="44.9500393" lon="5.3975075">
<ele>895.57</ele>
<time>2019-07-25T10:15:11Z</time>
</trkpt>
<trkpt lat="44.9500393" lon="5.3975073">
<ele>895.57</ele>
<time>2019-07-25T10:15:12Z</time>
</trkpt>
<trkpt lat="44.9500392" lon="5.3975075">
<ele>895.57</ele>
<time>2019-07-25T10:15:13Z</time>
</trkpt>
<trkpt lat="44.9500390" lon="5.3975076">
<ele>895.57</ele>
<time>2019-07-25T10:15:14Z</time>
</trkpt>
<trkpt lat="44.9500388" lon="5.3975075">
<ele>895.57</ele>
<time>2019-07-25T10:15:15Z</time>
</trkpt>
<trkpt lat="44.9500385" lon="5.3975069">
<ele>895.57</ele>
<time>2019-07-25T10:15:16Z</time>
</trkpt>
<trkpt lat="44.9500385" lon="5.3975068">
<ele>895.58</ele>
<time>2019-07-25T10:15:17Z</time>
</trkpt>
<trkpt lat="44.9500387" lon="5.3975071">
<ele>895.58</ele>
<time>2019-07-25T10:15:18Z</time>
</trkpt>
<trkpt lat="44.9500388" lon="5.3975072">
<ele>895.58</ele>
<time>2019-07-25T10:15:19Z</time>
</trkpt>
<trkpt lat="44.9500389" lon="5.3975074">
<ele>895.58</ele>
<time>2019-07-25T10:15:20Z</time>
</trkpt>
<trkpt lat="44.9500390" lon="5.3975074">
<ele>895.58</ele>
<time>2019-07-25T10:15:21Z</time>
</trkpt>
<trkpt lat="44.9500392" lon="5.3975074">
<ele>895.58</ele>
<time>2019-07-25T10:15:22Z</time>
</trkpt>
<trkpt lat="44.9500393" lon="5.3975072">
<ele>895.58</ele>
<time>2019-07-25T10:15:23Z</time>
</trkpt>
<trkpt lat="44.9500394" lon="5.3975072">
<ele>895.58</ele>
<time>2019-07-25T10:15:24Z</time>
</trkpt>
<trkpt lat="44.9500394" lon="5.3975072">
<ele>895.58</ele>
<time>2019-07-25T10:15:25Z</time>
</trkpt>
<trkpt lat="44.9500393" lon="5.3975066">
<ele>895.57</ele>
<time>2019-07-25T10:15:26Z</time>
</trkpt>
<trkpt lat="44.9500394" lon="5.3975066">
<ele>895.57</ele>
<time>2019-07-25T10:15:27Z</time>
</trkpt>
<trkpt lat="44.9500394" lon="5.3975066">
<ele>895.57</ele>
<time>2019-07-25T10:15:28Z</time>
</trkpt>
<trkpt lat="44.9500396" lon="5.3975067">
<ele>895.57</ele>
<time>2019-07-25T10:15:29Z</time>
</trkpt>
<trkpt lat="44.9500394" lon="5.3975057">
<ele>895.57</ele>
<time>2019-07-25T10:15:30Z</time>
</trkpt>
<trkpt lat="44.9500383" lon="5.3974982">
<ele>895.54</ele>
<time>2019-07-25T10:15:31Z</time>
</trkpt>
<trkpt lat="44.9500403" lon="5.3974947">
<ele>895.51</ele>
<time>2019-07-25T10:15:32Z</time>
</trkpt>
<trkpt lat="44.9500439" lon="5.3975003">
<ele>895.51</ele>
<time>2019-07-25T10:15:33Z</time>
</trkpt>
<trkpt lat="44.9500442" lon="5.3975007">
<ele>895.51</ele>
<time>2019-07-25T10:15:34Z</time>
</trkpt>
<trkpt lat="44.9500442" lon="5.3975010">
<ele>895.50</ele>
<time>2019-07-25T10:15:35Z</time>
</trkpt>
<trkpt lat="44.9500443" lon="5.3975015">
<ele>895.50</ele>
<time>2019-07-25T10:15:36Z</time>
</trkpt>
<trkpt lat="44.9500450" lon="5.3975035">
<ele>895.50</ele>
<time>2019-07-25T10:15:37Z</time>
</trkpt>
<trkpt lat="44.9500447" lon="5.3975035">
<ele>895.50</ele>
<time>2019-07-25T10:15:38Z</time>
</trkpt>
<trkpt lat="44.9500445" lon="5.3975033">
<ele>895.50</ele>
<time>2019-07-25T10:15:39Z</time>
</trkpt>
<trkpt lat="44.9500453" lon="5.3975054">
<ele>895.50</ele>
<time>2019-07-25T10:15:40Z</time>
</trkpt>
<trkpt lat="44.9500456" lon="5.3975064">
<ele>895.50</ele>
<time>2019-07-25T10:15:41Z</time>
</trkpt>
<trkpt lat="44.9500457" lon="5.3975064">
<ele>895.50</ele>
<time>2019-07-25T10:15:42Z</time>
</trkpt>
<trkpt lat="44.9500464" lon="5.3975074">
<ele>895.50</ele>
<time>2019-07-25T10:15:43Z</time>
</trkpt>
<trkpt lat="44.9500473" lon="5.3975067">
<ele>895.51</ele>
<time>2019-07-25T10:15:44Z</time>
</trkpt>
<trkpt lat="44.9500469" lon="5.3975058">
<ele>895.51</ele>
<time>2019-07-25T10:15:45Z</time>
</trkpt>
<trkpt lat="44.9500466" lon="5.3975057">
<ele>895.51</ele>
<time>2019-07-25T10:15:46Z</time>
</trkpt>
<trkpt lat="44.9500464" lon="5.3975053">
<ele>895.51</ele>
<time>2019-07-25T10:15:47Z</time>
</trkpt>
<trkpt lat="44.9500455" lon="5.3975046">
<ele>895.52</ele>
<time>2019-07-25T10:15:48Z</time>
</trkpt>
<trkpt lat="44.9500453" lon="5.3975043">
<ele>895.52</ele>
<time>2019-07-25T10:15:49Z</time>
</trkpt>
<trkpt lat="44.9500451" lon="5.3975041">
<ele>895.52</ele>
<time>2019-07-25T10:15:50Z</time>
</trkpt>
<trkpt lat="44.9500451" lon="5.3975037">
<ele>895.53</ele>
<time>2019-07-25T10:15:51Z</time>
</trkpt>
<trkpt lat="44.9500451" lon="5.3975034">
<ele>895.53</ele>
<time>2019-07-25T10:15:52Z</time>
</trkpt>
<trkpt lat="44.9500452" lon="5.3975031">
<ele>895.53</ele>
<time>2019-07-25T10:15:53Z</time>
</trkpt>
<trkpt lat="44.9500448" lon="5.3975023">
<ele>895.53</ele>
<time>2019-07-25T10:15:54Z</time>
</trkpt>
<trkpt lat="44.9500446" lon="5.3975021">
<ele>895.54</ele>
<time>2019-07-25T10:15:55Z</time>
</trkpt>
<trkpt lat="44.9500447" lon="5.3975022">
<ele>895.54</ele>
<time>2019-07-25T10:15:56Z</time>
</trkpt>
<trkpt lat="44.9500446" lon="5.3975024">
<ele>895.55</ele>
<time>2019-07-25T10:15:57Z</time>
</trkpt>
<trkpt lat="44.9500448" lon="5.3975021">
<ele>895.55</ele>
<time>2019-07-25T10:15:58Z</time>
</trkpt>
<trkpt lat="44.9500446" lon="5.3975015">
<ele>895.56</ele>
<time>2019-07-25T10:15:59Z</time>
</trkpt>
<trkpt lat="44.9500444" lon="5.3975012">
<ele>895.57</ele>
<time>2019-07-25T10:16:00Z</time>
</trkpt>
<trkpt lat="44.9500449" lon="5.3975010">
<ele>895.57</ele>
<time>2019-07-25T10:16:01Z</time>
</trkpt>
<trkpt lat="44.9500453" lon="5.3975021">
<ele>895.58</ele>
<time>2019-07-25T10:16:02Z</time>
</trkpt>
<trkpt lat="44.9500460" lon="5.3975031">
<ele>895.59</ele>
<time>2019-07-25T10:16:03Z</time>
</trkpt>
<trkpt lat="44.9500462" lon="5.3975032">
<ele>895.60</ele>
<time>2019-07-25T10:16:04Z</time>
</trkpt>
<trkpt lat="44.9500465" lon="5.3975035">
<ele>895.60</ele>
<time>2019-07-25T10:16:05Z</time>
</trkpt>
<trkpt lat="44.9500466" lon="5.3975040">
<ele>895.61</ele>
<time>2019-07-25T10:16:06Z</time>
</trkpt>
<trkpt lat="44.9500468" lon="5.3975042">
<ele>895.62</ele>
<time>2019-07-25T10:16:07Z</time>
</trkpt>
<trkpt lat="44.9500469" lon="5.3975045">
<ele>895.63</ele>
<time>2019-07-25T10:16:08Z</time>
</trkpt>
<trkpt lat="44.9500474" lon="5.3975055">
<ele>895.64</ele>
<time>2019-07-25T10:16:09Z</time>
</trkpt>
<trkpt lat="44.9500476" lon="5.3975061">
<ele>895.65</ele>
<time>2019-07-25T10:16:10Z</time>
</trkpt>
<trkpt lat="44.9500476" lon="5.3975061">
<ele>895.66</ele>
<time>2019-07-25T10:16:11Z</time>
</trkpt>
<trkpt lat="44.9500480" lon="5.3975049">
<ele>895.67</ele>
<time>2019-07-25T10:16:12Z</time>
</trkpt>
<trkpt lat="44.9500485" lon="5.3975030">
<ele>895.68</ele>
<time>2019-07-25T10:16:13Z</time>
</trkpt>
<trkpt lat="44.9500488" lon="5.3975031">
<ele>895.69</ele>
<time>2019-07-25T10:16:14Z</time>
</trkpt>
<trkpt lat="44.9500486" lon="5.3975018">
<ele>895.70</ele>
<time>2019-07-25T10:16:15Z</time>
</trkpt>
<trkpt lat="44.9500487" lon="5.3975030">
<ele>895.71</ele>
<time>2019-07-25T10:16:16Z</time>
</trkpt>
<trkpt lat="44.9500485" lon="5.3975030">
<ele>895.72</ele>
<time>2019-07-25T10:16:17Z</time>
</trkpt>
<trkpt lat="44.9500486" lon="5.3975032">
<ele>895.73</ele>
<time>2019-07-25T10:16:18Z</time>
</trkpt>
<trkpt lat="44.9500487" lon="5.3975034">
<ele>895.74</ele>
<time>2019-07-25T10:16:19Z</time>
</trkpt>
<trkpt lat="44.9500485" lon="5.3975030">
<ele>895.75</ele>
<time>2019-07-25T10:16:20Z</time>
</trkpt>
<trkpt lat="44.9500484" lon="5.3975035">
<ele>895.76</ele>
<time>2019-07-25T10:16:21Z</time>
</trkpt>
<trkpt lat="44.9500481" lon="5.3975031">
<ele>895.77</ele>
<time>2019-07-25T10:16:22Z</time>
</trkpt>
<trkpt lat="44.9500475" lon="5.3975021">
<ele>895.78</ele>
<time>2019-07-25T10:16:23Z</time>
</trkpt>
<trkpt lat="44.9500472" lon="5.3975021">
<ele>895.79</ele>
<time>2019-07-25T10:16:24Z</time>
</trkpt>
<trkpt lat="44.9500469" lon="5.3975013">
<ele>895.80</ele>
<time>2019-07-25T10:16:25Z</time>
</trkpt>
<trkpt lat="44.9500445" lon="5.3975000">
<ele>895.81</ele>
<time>2019-07-25T10:16:26Z</time>
</trkpt>
<trkpt lat="44.9500452" lon="5.3974908">
<ele>895.90</ele>
<time>2019-07-25T10:16:27Z</time>
</trkpt>
<trkpt lat="44.9500421" lon="5.3974831">
<ele>895.99</ele>
<time>2019-07-25T10:16:28Z</time>
</trkpt>
<trkpt lat="44.9500431" lon="5.3974829">
<ele>896.00</ele>
<time>2019-07-25T10:16:29Z</time>
</trkpt>
<trkpt lat="44.9500438" lon="5.3974841">
<ele>896.01</ele>
<time>2019-07-25T10:16:30Z</time>
</trkpt>
<trkpt lat="44.9500441" lon="5.3974843">
<ele>896.02</ele>
<time>2019-07-25T10:16:31Z</time>
</trkpt>
<trkpt lat="44.9500439" lon="5.3974836">
<ele>896.03</ele>
<time>2019-07-25T10:16:32Z</time>
</trkpt>
<trkpt lat="44.9500425" lon="5.3974987">
<ele>896.12</ele>
<time>2019-07-25T10:16:33Z</time>
</trkpt>
<trkpt lat="44.9500478" lon="5.3974931">
<ele>896.20</ele>
<time>2019-07-25T10:16:34Z</time>
</trkpt>
<trkpt lat="44.9500573" lon="5.3974848">
<ele>896.28</ele>
<time>2019-07-25T10:16:35Z</time>
</trkpt>
<trkpt lat="44.9500725" lon="5.3974703">
<ele>896.35</ele>
<time>2019-07-25T10:16:36Z</time>
</trkpt>
<trkpt lat="44.9500836" lon="5.3974470">
<ele>896.42</ele>
<time>2019-07-25T10:16:37Z</time>
</trkpt>
<trkpt lat="44.9500880" lon="5.3974259">
<ele>896.49</ele>
<time>2019-07-25T10:16:38Z</time>
</trkpt>
<trkpt lat="44.9500977" lon="5.3973844">
<ele>896.55</ele>
<time>2019-07-25T10:16:39Z</time>
</trkpt>
<trkpt lat="44.9501084" lon="5.3973366">
<ele>896.61</ele>
<time>2019-07-25T10:16:40Z</time>
</trkpt>
<trkpt lat="44.9501175" lon="5.3972792">
<ele>896.67</ele>
<time>2019-07-25T10:16:41Z</time>
</trkpt>
<trkpt lat="44.9501206" lon="5.3972341">
<ele>896.73</ele>
<time>2019-07-25T10:16:42Z</time>
</trkpt>
<trkpt lat="44.9501221" lon="5.3971918">
<ele>896.78</ele>
<time>2019-07-25T10:16:43Z</time>
</trkpt>
<trkpt lat="44.9501252" lon="5.3971513">
<ele>896.82</ele>
<time>2019-07-25T10:16:44Z</time>
</trkpt>
<trkpt lat="44.9501218" lon="5.3971109">
<ele>896.87</ele>
<time>2019-07-25T10:16:45Z</time>
</trkpt>
<trkpt lat="44.9501213" lon="5.3970528">
<ele>896.91</ele>
<time>2019-07-25T10:16:46Z</time>
</trkpt>
<trkpt lat="44.9501247" lon="5.3970149">
<ele>896.96</ele>
<time>2019-07-25T10:16:47Z</time>
</trkpt>
<trkpt lat="44.9501239" lon="5.3969976">
<ele>897.01</ele>
<time>2019-07-25T10:16:48Z</time>
</trkpt>
<trkpt lat="44.9501244" lon="5.3969646">
<ele>897.05</ele>
<time>2019-07-25T10:16:49Z</time>
</trkpt>
<trkpt lat="44.9501266" lon="5.3969396">
<ele>897.09</ele>
<time>2019-07-25T10:16:50Z</time>
</trkpt>
<trkpt lat="44.9501314" lon="5.3969156">
<ele>897.14</ele>
<time>2019-07-25T10:16:51Z</time>
</trkpt>
<trkpt lat="44.9501350" lon="5.3968989">
<ele>897.18</ele>
<time>2019-07-25T10:16:52Z</time>
</trkpt>
<trkpt lat="44.9501374" lon="5.3968837">
<ele>897.22</ele>
<time>2019-07-25T10:16:53Z</time>
</trkpt>
<trkpt lat="44.9501455" lon="5.3968588">
<ele>897.26</ele>
<time>2019-07-25T10:16:54Z</time>
</trkpt>
<trkpt lat="44.9501534" lon="5.3968263">
<ele>897.31</ele>
<time>2019-07-25T10:16:55Z</time>
</trkpt>
<trkpt lat="44.9501594" lon="5.3967985">
<ele>897.35</ele>
<time>2019-07-25T10:16:56Z</time>
</trkpt>
<trkpt lat="44.9501621" lon="5.3967663">
<ele>897.39</ele>
<time>2019-07-25T10:16:57Z</time>
</trkpt>
<trkpt lat="44.9501661" lon="5.3967274">
<ele>897.44</ele>
<time>2019-07-25T10:16:58Z</time>
</trkpt>
<trkpt lat="44.9501646" lon="5.3967013">
<ele>897.48</ele>
<time>2019-07-25T10:16:59Z</time>
</trkpt>
<trkpt lat="44.9501649" lon="5.3966844">
<ele>897.53</ele>
<time>2019-07-25T10:17:00Z</time>
</trkpt>
<trkpt lat="44.9501694" lon="5.3966583">
<ele>897.57</ele>
<time>2019-07-25T10:17:01Z</time>
</trkpt>
<trkpt lat="44.9501652" lon="5.3966082">
<ele>897.62</ele>
<time>2019-07-25T10:17:02Z</time>
</trkpt>
<trkpt lat="44.9501595" lon="5.3965475">
<ele>897.67</ele>
<time>2019-07-25T10:17:03Z</time>
</trkpt>
<trkpt lat="44.9501604" lon="5.3965007">
<ele>897.72</ele>
<time>2019-07-25T10:17:04Z</time>
</trkpt>
<trkpt lat="44.9501656" lon="5.3964762">
<ele>897.78</ele>
<time>2019-07-25T10:17:05Z</time>
</trkpt>
<trkpt lat="44.9501691" lon="5.3964416">
<ele>897.84</ele>
<time>2019-07-25T10:17:06Z</time>
</trkpt>
<trkpt lat="44.9501713" lon="5.3964013">
<ele>897.89</ele>
<time>2019-07-25T10:17:07Z</time>
</trkpt>
<trkpt lat="44.9501696" lon="5.3963718">
<ele>897.96</ele>
<time>2019-07-25T10:17:08Z</time>
</trkpt>
<trkpt lat="44.9501643" lon="5.3963475">
<ele>898.02</ele>
<time>2019-07-25T10:17:09Z</time>
</trkpt>
<trkpt lat="44.9501602" lon="5.3963162">
<ele>898.08</ele>
<time>2019-07-25T10:17:10Z</time>
</trkpt>
<trkpt lat="44.9501602" lon="5.3962838">
<ele>898.14</ele>
<time>2019-07-25T10:17:11Z</time>
</trkpt>
<trkpt lat="44.9501642" lon="5.3962369">
<ele>898.21</ele>
<time>2019-07-25T10:17:12Z</time>
</trkpt>
<trkpt lat="44.9501713" lon="5.3961779">
<ele>898.27</ele>
<time>2019-07-25T10:17:13Z</time>
</trkpt>
<trkpt lat="44.9501761" lon="5.3961338">
<ele>898.33</ele>
<time>2019-07-25T10:17:14Z</time>
</trkpt>
<trkpt lat="44.9501792" lon="5.3961015">
<ele>898.39</ele>
<time>2019-07-25T10:17:15Z</time>
</trkpt>
<trkpt lat="44.9501800" lon="5.3960685">
<ele>898.45</ele>
<time>2019-07-25T10:17:16Z</time>
</trkpt>
<trkpt lat="44.9501809" lon="5.3960377">
<ele>898.52</ele>
<time>2019-07-25T10:17:17Z</time>
</trkpt>
<trkpt lat="44.9501842" lon="5.3959979">
<ele>898.58</ele>
<time>2019-07-25T10:17:18Z</time>
</trkpt>
<trkpt lat="44.9501873" lon="5.3959554">
<ele>898.64</ele>
<time>2019-07-25T10:17:19Z</time>
</trkpt>
<trkpt lat="44.9501884" lon="5.3959176">
<ele>898.71</ele>
<time>2019-07-25T10:17:20Z</time>
</trkpt>
<trkpt lat="44.9501862" lon="5.3958789">
<ele>898.78</ele>
<time>2019-07-25T10:17:21Z</time>
</trkpt>
<trkpt lat="44.9501787" lon="5.3958451">
<ele>898.84</ele>
<time>2019-07-25T10:17:22Z</time>
</trkpt>
<trkpt lat="44.9501745" lon="5.3958102">
<ele>898.91</ele>
<time>2019-07-25T10:17:23Z</time>
</trkpt>
<trkpt lat="44.9501689" lon="5.3957683">
<ele>898.97</ele>
<time>2019-07-25T10:17:24Z</time>
</trkpt>
<trkpt lat="44.9501652" lon="5.3957242">
<ele>899.03</ele>
<time>2019-07-25T10:17:25Z</time>
</trkpt>
<trkpt lat="44.9501612" lon="5.3956872">
<ele>899.09</ele>
<time>2019-07-25T10:17:26Z</time>
</trkpt>
<trkpt lat="44.9501589" lon="5.3956575">
<ele>899.15</ele>
<time>2019-07-25T10:17:27Z</time>
</trkpt>
<trkpt lat="44.9501532" lon="5.3956208">
<ele>899.20</ele>
<time>2019-07-25T10:17:28Z</time>
</trkpt>
<trkpt lat="44.9501428" lon="5.3955778">
<ele>899.26</ele>
<time>2019-07-25T10:17:29Z</time>
</trkpt>
<trkpt lat="44.9501424" lon="5.3955312">
<ele>899.32</ele>
<time>2019-07-25T10:17:30Z</time>
</trkpt>
<trkpt lat="44.9501432" lon="5.3954817">
<ele>899.37</ele>
<time>2019-07-25T10:17:31Z</time>
</trkpt>
<trkpt lat="44.9501553" lon="5.3954060">
<ele>899.43</ele>
<time>2019-07-25T10:17:32Z</time>
</trkpt>
<trkpt lat="44.9501631" lon="5.3953557">
<ele>899.49</ele>
<time>2019-07-25T10:17:33Z</time>
</trkpt>
<trkpt lat="44.9501735" lon="5.3953197">
<ele>899.54</ele>
<time>2019-07-25T10:17:34Z</time>
</trkpt>
<trkpt lat="44.9501814" lon="5.3952771">
<ele>899.60</ele>
<time>2019-07-25T10:17:35Z</time>
</trkpt>
<trkpt lat="44.9501914" lon="5.3952402">
<ele>899.66</ele>
<time>2019-07-25T10:17:36Z</time>
</trkpt>
<trkpt lat="44.9501994" lon="5.3952063">
<ele>899.72</ele>
<time>2019-07-25T10:17:37Z</time>
</trkpt>
<trkpt lat="44.9502085" lon="5.3951680">
<ele>899.79</ele>
<time>2019-07-25T10:17:38Z</time>
</trkpt>
<trkpt lat="44.9502198" lon="5.3951325">
<ele>899.85</ele>
<time>2019-07-25T10:17:39Z</time>
</trkpt>
<trkpt lat="44.9502335" lon="5.3950980">
<ele>899.92</ele>
<time>2019-07-25T10:17:40Z</time>
</trkpt>
<trkpt lat="44.9502435" lon="5.3950604">
<ele>899.99</ele>
<time>2019-07-25T10:17:41Z</time>
</trkpt>
<trkpt lat="44.9502557" lon="5.3950238">
<ele>900.07</ele>
<time>2019-07-25T10:17:42Z</time>
</trkpt>
<trkpt lat="44.9502649" lon="5.3949827">
<ele>900.14</ele>
<time>2019-07-25T10:17:43Z</time>
</trkpt>
<trkpt lat="44.9502816" lon="5.3949440">
<ele>900.22</ele>
<time>2019-07-25T10:17:44Z</time>
</trkpt>
<trkpt lat="44.9502975" lon="5.3949086">
<ele>900.30</ele>
<time>2019-07-25T10:17:45Z</time>
</trkpt>
<trkpt lat="44.9503109" lon="5.3948817">
<ele>900.39</ele>
<time>2019-07-25T10:17:46Z</time>
</trkpt>
<trkpt lat="44.9503259" lon="5.3948487">
<ele>900.47</ele>
<time>2019-07-25T10:17:47Z</time>
</trkpt>
<trkpt lat="44.9503384" lon="5.3948101">
<ele>900.55</ele>
<time>2019-07-25T10:17:48Z</time>
</trkpt>
<trkpt lat="44.9503538" lon="5.3947715">
<ele>900.64</ele>
<time>2019-07-25T10:17:49Z</time>
</trkpt>
<trkpt lat="44.9503706" lon="5.3947369">
<ele>900.72</ele>
<time>2019-07-25T10:17:50Z</time>
</trkpt>
<trkpt lat="44.9503851" lon="5.3947055">
<ele>900.81</ele>
<time>2019-07-25T10:17:51Z</time>
</trkpt>
<trkpt lat="44.9503961" lon="5.3946704">
<ele>900.90</ele>
<time>2019-07-25T10:17:52Z</time>
</trkpt>
<trkpt lat="44.9504095" lon="5.3946274">
<ele>900.99</ele>
<time>2019-07-25T10:17:53Z</time>
</trkpt>
<trkpt lat="44.9504239" lon="5.3945869">
<ele>901.08</ele>
<time>2019-07-25T10:17:54Z</time>
</trkpt>
<trkpt lat="44.9504391" lon="5.3945483">
<ele>901.18</ele>
<time>2019-07-25T10:17:55Z</time>
</trkpt>
<trkpt lat="44.9504549" lon="5.3945109">
<ele>901.28</ele>
<time>2019-07-25T10:17:56Z</time>
</trkpt>
<trkpt lat="44.9504686" lon="5.3944785">
<ele>901.39</ele>
<time>2019-07-25T10:17:57Z</time>
</trkpt>
<trkpt lat="44.9504840" lon="5.3944409">
<ele>901.50</ele>
<time>2019-07-25T10:17:58Z</time>
</trkpt>
<trkpt lat="44.9505001" lon="5.3944014">
<ele>901.60</ele>
<time>2019-07-25T10:17:59Z</time>
</trkpt>
<trkpt lat="44.9505150" lon="5.3943630">
<ele>901.72</ele>
<time>2019-07-25T10:18:00Z</time>
</trkpt>
<trkpt lat="44.9505290" lon="5.3943284">
<ele>901.83</ele>
<time>2019-07-25T10:18:01Z</time>
</trkpt>
<trkpt lat="44.9505452" lon="5.3942902">
<ele>901.95</ele>
<time>2019-07-25T10:18:02Z</time>
</trkpt>
<trkpt lat="44.9505612" lon="5.3942516">
<ele>902.07</ele>
<time>2019-07-25T10:18:03Z</time>
</trkpt>
<trkpt lat="44.9505764" lon="5.3942192">
<ele>902.19</ele>
<time>2019-07-25T10:18:04Z</time>
</trkpt>
<trkpt lat="44.9505889" lon="5.3941895">
<ele>902.30</ele>
<time>2019-07-25T10:18:05Z</time>
</trkpt>
<trkpt lat="44.9506005" lon="5.3941586">
<ele>902.42</ele>
<time>2019-07-25T10:18:06Z</time>
</trkpt>
<trkpt lat="44.9506135" lon="5.3941336">
<ele>902.53</ele>
<time>2019-07-25T10:18:07Z</time>
</trkpt>
<trkpt lat="44.9506206" lon="5.3941022">
<ele>902.64</ele>
<time>2019-07-25T10:18:08Z</time>
</trkpt>
<trkpt lat="44.9506277" lon="5.3940701">
<ele>902.74</ele>
<time>2019-07-25T10:18:09Z</time>
</trkpt>
<trkpt lat="44.9506372" lon="5.3940354">
<ele>902.85</ele>
<time>2019-07-25T10:18:10Z</time>
</trkpt>
<trkpt lat="44.9506463" lon="5.3939984">
<ele>902.96</ele>
<time>2019-07-25T10:18:11Z</time>
</trkpt>
<trkpt lat="44.9506514" lon="5.3939667">
<ele>903.07</ele>
<time>2019-07-25T10:18:12Z</time>
</trkpt>
<trkpt lat="44.9506575" lon="5.3939366">
<ele>903.18</ele>
<time>2019-07-25T10:18:13Z</time>
</trkpt>
<trkpt lat="44.9506653" lon="5.3939036">
<ele>903.28</ele>
<time>2019-07-25T10:18:14Z</time>
</trkpt>
<trkpt lat="44.9506716" lon="5.3938800">
<ele>903.38</ele>
<time>2019-07-25T10:18:15Z</time>
</trkpt>
<trkpt lat="44.9506766" lon="5.3938459">
<ele>903.48</ele>
<time>2019-07-25T10:18:16Z</time>
</trkpt>
<trkpt lat="44.9506837" lon="5.3938001">
<ele>903.58</ele>
<time>2019-07-25T10:18:17Z</time>
</trkpt>
<trkpt lat="44.9506883" lon="5.3937552">
<ele>903.67</ele>
<time>2019-07-25T10:18:18Z</time>
</trkpt>
<trkpt lat="44.9506879" lon="5.3937235">
<ele>903.77</ele>
<time>2019-07-25T10:18:19Z</time>
</trkpt>
<trkpt lat="44.9506930" lon="5.3936927">
<ele>903.86</ele>
<time>2019-07-25T10:18:20Z</time>
</trkpt>
<trkpt lat="44.9507023" lon="5.3936609">
<ele>903.96</ele>
<time>2019-07-25T10:18:21Z</time>
</trkpt>
<trkpt lat="44.9507093" lon="5.3936237">
<ele>904.07</ele>
<time>2019-07-25T10:18:22Z</time>
</trkpt>
<trkpt lat="44.9507156" lon="5.3935780">
<ele>904.17</ele>
<time>2019-07-25T10:18:23Z</time>
</trkpt>
<trkpt lat="44.9507302" lon="5.3935389">
<ele>904.27</ele>
<time>2019-07-25T10:18:24Z</time>
</trkpt>
<trkpt lat="44.9507453" lon="5.3934963">
<ele>904.37</ele>
<time>2019-07-25T10:18:25Z</time>
</trkpt>
<trkpt lat="44.9507601" lon="5.3934630">
<ele>904.47</ele>
<time>2019-07-25T10:18:26Z</time>
</trkpt>
<trkpt lat="44.9507771" lon="5.3934259">
<ele>904.58</ele>
<time>2019-07-25T10:18:27Z</time>
</trkpt>
<trkpt lat="44.9507859" lon="5.3933959">
<ele>904.68</ele>
<time>2019-07-25T10:18:28Z</time>
</trkpt>
<trkpt lat="44.9507979" lon="5.3933636">
<ele>904.79</ele>
<time>2019-07-25T10:18:29Z</time>
</trkpt>
<trkpt lat="44.9508053" lon="5.3933460">
<ele>904.90</ele>
<time>2019-07-25T10:18:30Z</time>
</trkpt>
<trkpt lat="44.9508184" lon="5.3933267">
<ele>905.01</ele>
<time>2019-07-25T10:18:31Z</time>
</trkpt>
<trkpt lat="44.9508338" lon="5.3933069">
<ele>905.12</ele>
<time>2019-07-25T10:18:32Z</time>
</trkpt>
<trkpt lat="44.9508497" lon="5.3932851">
<ele>905.23</ele>
<time>2019-07-25T10:18:33Z</time>
</trkpt>
<trkpt lat="44.9508667" lon="5.3932610">
<ele>905.34</ele>
<time>2019-07-25T10:18:34Z</time>
</trkpt>
<trkpt lat="44.9508842" lon="5.3932341">
<ele>905.46</ele>
<time>2019-07-25T10:18:35Z</time>
</trkpt>
<trkpt lat="44.9509024" lon="5.3932114">
<ele>905.57</ele>
<time>2019-07-25T10:18:36Z</time>
</trkpt>
<trkpt lat="44.9509231" lon="5.3931915">
<ele>905.68</ele>
<time>2019-07-25T10:18:37Z</time>
</trkpt>
<trkpt lat="44.9509442" lon="5.3931684">
<ele>905.79</ele>
<time>2019-07-25T10:18:38Z</time>
</trkpt>
<trkpt lat="44.9509635" lon="5.3931483">
<ele>905.90</ele>
<time>2019-07-25T10:18:39Z</time>
</trkpt>
<trkpt lat="44.9509804" lon="5.3931224">
<ele>906.01</ele>
<time>2019-07-25T10:18:40Z</time>
</trkpt>
<trkpt lat="44.9509984" lon="5.3930935">
<ele>906.11</ele>
<time>2019-07-25T10:18:41Z</time>
</trkpt>
<trkpt lat="44.9510161" lon="5.3930669">
<ele>906.22</ele>
<time>2019-07-25T10:18:42Z</time>
</trkpt>
<trkpt lat="44.9510334" lon="5.3930370">
<ele>906.33</ele>
<time>2019-07-25T10:18:43Z</time>
</trkpt>
<trkpt lat="44.9510482" lon="5.3930080">
<ele>906.43</ele>
<time>2019-07-25T10:18:44Z</time>
</trkpt>
<trkpt lat="44.9510619" lon="5.3929767">
<ele>906.54</ele>
<time>2019-07-25T10:18:45Z</time>
</trkpt>
<trkpt lat="44.9510791" lon="5.3929430">
<ele>906.65</ele>
<time>2019-07-25T10:18:46Z</time>
</trkpt>
<trkpt lat="44.9510943" lon="5.3929029">
<ele>906.76</ele>
<time>2019-07-25T10:18:47Z</time>
</trkpt>
<trkpt lat="44.9511104" lon="5.3928644">
<ele>906.87</ele>
<time>2019-07-25T10:18:48Z</time>
</trkpt>
<trkpt lat="44.9511235" lon="5.3928261">
<ele>906.98</ele>
<time>2019-07-25T10:18:49Z</time>
</trkpt>
<trkpt lat="44.9511376" lon="5.3927893">
<ele>907.09</ele>
<time>2019-07-25T10:18:50Z</time>
</trkpt>
<trkpt lat="44.9511502" lon="5.3927475">
<ele>907.20</ele>
<time>2019-07-25T10:18:51Z</time>
</trkpt>
<trkpt lat="44.9511583" lon="5.3927164">
<ele>907.31</ele>
<time>2019-07-25T10:18:52Z</time>
</trkpt>
<trkpt lat="44.9511630" lon="5.3926846">
<ele>907.42</ele>
<time>2019-07-25T10:18:53Z</time>
</trkpt>
<trkpt lat="44.9511705" lon="5.3926532">
<ele>907.52</ele>
<time>2019-07-25T10:18:54Z</time>
</trkpt>
<trkpt lat="44.9511748" lon="5.3926232">
<ele>907.63</ele>
<time>2019-07-25T10:18:55Z</time>
</trkpt>
<trkpt lat="44.9511794" lon="5.3925855">
<ele>907.74</ele>
<time>2019-07-25T10:18:56Z</time>
</trkpt>
<trkpt lat="44.9511822" lon="5.3925559">
<ele>907.85</ele>
<time>2019-07-25T10:18:57Z</time>
</trkpt>
<trkpt lat="44.9511852" lon="5.3925286">
<ele>907.97</ele>
<time>2019-07-25T10:18:58Z</time>
</trkpt>
<trkpt lat="44.9511888" lon="5.3925072">
<ele>908.08</ele>
<time>2019-07-25T10:18:59Z</time>
</trkpt>
<trkpt lat="44.9511938" lon="5.3924808">
<ele>908.20</ele>
<time>2019-07-25T10:19:00Z</time>
</trkpt>
<trkpt lat="44.9511975" lon="5.3924480">
<ele>908.31</ele>
<time>2019-07-25T10:19:01Z</time>
</trkpt>
<trkpt lat="44.9511990" lon="5.3924137">
<ele>908.42</ele>
<time>2019-07-25T10:19:02Z</time>
</trkpt>
<trkpt lat="44.9511945" lon="5.3923882">
<ele>908.53</ele>
<time>2019-07-25T10:19:03Z</time>
</trkpt>
<trkpt lat="44.9511889" lon="5.3923552">
<ele>908.64</ele>
<time>2019-07-25T10:19:04Z</time>
</trkpt>
<trkpt lat="44.9511810" lon="5.3923210">
<ele>908.76</ele>
<time>2019-07-25T10:19:05Z</time>
</trkpt>
<trkpt lat="44.9511729" lon="5.3922956">
<ele>908.87</ele>
<time>2019-07-25T10:19:06Z</time>
</trkpt>
<trkpt lat="44.9511683" lon="5.3922736">
<ele>908.98</ele>
<time>2019-07-25T10:19:07Z</time>
</trkpt>
<trkpt lat="44.9511624" lon="5.3922552">
<ele>909.11</ele>
<time>2019-07-25T10:19:08Z</time>
</trkpt>
<trkpt lat="44.9511602" lon="5.3922451">
<ele>909.23</ele>
<time>2019-07-25T10:19:09Z</time>
</trkpt>
<trkpt lat="44.9511601" lon="5.3922438">
<ele>909.35</ele>
<time>2019-07-25T10:19:10Z</time>
</trkpt>
<trkpt lat="44.9511576" lon="5.3922390">
<ele>909.36</ele>
<time>2019-07-25T10:19:11Z</time>
</trkpt>
<trkpt lat="44.9511561" lon="5.3922358">
<ele>909.47</ele>
<time>2019-07-25T10:19:12Z</time>
</trkpt>
<trkpt lat="44.9511541" lon="5.3922211">
<ele>909.48</ele>
<time>2019-07-25T10:19:13Z</time>
</trkpt>
<trkpt lat="44.9511539" lon="5.3922277">
<ele>909.59</ele>
<time>2019-07-25T10:19:14Z</time>
</trkpt>
<trkpt lat="44.9511554" lon="5.3922310">
<ele>909.69</ele>
<time>2019-07-25T10:19:15Z</time>
</trkpt>
<trkpt lat="44.9511556" lon="5.3922352">
<ele>909.79</ele>
<time>2019-07-25T10:19:16Z</time>
</trkpt>
<trkpt lat="44.9511494" lon="5.3922326">
<ele>909.80</ele>
<time>2019-07-25T10:19:17Z</time>
</trkpt>
<trkpt lat="44.9511496" lon="5.3922227">
<ele>909.81</ele>
<time>2019-07-25T10:19:18Z</time>
</trkpt>
<trkpt lat="44.9511492" lon="5.3922237">
<ele>909.82</ele>
<time>2019-07-25T10:19:19Z</time>
</trkpt>
<trkpt lat="44.9511513" lon="5.3922327">
<ele>909.83</ele>
<time>2019-07-25T10:19:20Z</time>
</trkpt>
<trkpt lat="44.9511502" lon="5.3922412">
<ele>909.84</ele>
<time>2019-07-25T10:19:21Z</time>
</trkpt>
<trkpt lat="44.9511511" lon="5.3922387">
<ele>909.86</ele>
<time>2019-07-25T10:19:22Z</time>
</trkpt>
<trkpt lat="44.9511562" lon="5.3922366">
<ele>909.87</ele>
<time>2019-07-25T10:19:23Z</time>
</trkpt>
<trkpt lat="44.9511544" lon="5.3922201">
<ele>909.97</ele>
<time>2019-07-25T10:19:24Z</time>
</trkpt>
<trkpt lat="44.9511512" lon="5.3922109">
<ele>910.07</ele>
<time>2019-07-25T10:19:25Z</time>
</trkpt>
<trkpt lat="44.9511496" lon="5.3922082">
<ele>910.17</ele>
<time>2019-07-25T10:19:26Z</time>
</trkpt>
<trkpt lat="44.9511434" lon="5.3921895">
<ele>910.27</ele>
<time>2019-07-25T10:19:27Z</time>
</trkpt>
<trkpt lat="44.9511363" lon="5.3921583">
<ele>910.38</ele>
<time>2019-07-25T10:19:28Z</time>
</trkpt>
<trkpt lat="44.9511320" lon="5.3921234">
<ele>910.47</ele>
<time>2019-07-25T10:19:29Z</time>
</trkpt>
<trkpt lat="44.9511291" lon="5.3920880">
<ele>910.58</ele>
<time>2019-07-25T10:19:30Z</time>
</trkpt>
<trkpt lat="44.9511224" lon="5.3920420">
<ele>910.68</ele>
<time>2019-07-25T10:19:31Z</time>
</trkpt>
<trkpt lat="44.9511200" lon="5.3919934">
<ele>910.78</ele>
<time>2019-07-25T10:19:32Z</time>
</trkpt>
<trkpt lat="44.9511213" lon="5.3919418">
<ele>911.83</ele>
<time>2019-07-25T10:19:33Z</time>
</trkpt>
<trkpt lat="44.9511227" lon="5.3918866">
<ele>912.66</ele>
<time>2019-07-25T10:19:34Z</time>
</trkpt>
<trkpt lat="44.9511336" lon="5.3918263">
<ele>912.72</ele>
<time>2019-07-25T10:19:35Z</time>
</trkpt>
<trkpt lat="44.9511403" lon="5.3917699">
<ele>912.79</ele>
<time>2019-07-25T10:19:36Z</time>
</trkpt>
<trkpt lat="44.9511416" lon="5.3917190">
<ele>912.86</ele>
<time>2019-07-25T10:19:37Z</time>
</trkpt>
<trkpt lat="44.9511383" lon="5.3916739">
<ele>912.92</ele>
<time>2019-07-25T10:19:38Z</time>
</trkpt>
<trkpt lat="44.9511312" lon="5.3916332">
<ele>912.99</ele>
<time>2019-07-25T10:19:39Z</time>
</trkpt>
<trkpt lat="44.9511255" lon="5.3915919">
<ele>913.05</ele>
<time>2019-07-25T10:19:40Z</time>
</trkpt>
<trkpt lat="44.9511187" lon="5.3915506">
<ele>913.12</ele>
<time>2019-07-25T10:19:41Z</time>
</trkpt>
<trkpt lat="44.9511089" lon="5.3915058">
<ele>913.18</ele>
<time>2019-07-25T10:19:42Z</time>
</trkpt>
<trkpt lat="44.9510995" lon="5.3914645">
<ele>913.25</ele>
<time>2019-07-25T10:19:43Z</time>
</trkpt>
<trkpt lat="44.9510900" lon="5.3914183">
<ele>913.31</ele>
<time>2019-07-25T10:19:44Z</time>
</trkpt>
<trkpt lat="44.9510753" lon="5.3913665">
<ele>913.95</ele>
<time>2019-07-25T10:19:45Z</time>
</trkpt>
<trkpt lat="44.9510608" lon="5.3913125">
<ele>914.00</ele>
<time>2019-07-25T10:19:46Z</time>
</trkpt>
<trkpt lat="44.9510448" lon="5.3912581">
<ele>914.06</ele>
<time>2019-07-25T10:19:47Z</time>
</trkpt>
<trkpt lat="44.9510304" lon="5.3912103">
<ele>914.11</ele>
<time>2019-07-25T10:19:48Z</time>
</trkpt>
<trkpt lat="44.9510184" lon="5.3911656">
<ele>914.16</ele>
<time>2019-07-25T10:19:49Z</time>
</trkpt>
<trkpt lat="44.9510060" lon="5.3911272">
<ele>914.21</ele>
<time>2019-07-25T10:19:50Z</time>
</trkpt>
<trkpt lat="44.9509903" lon="5.3910856">
<ele>914.26</ele>
<time>2019-07-25T10:19:51Z</time>
</trkpt>
<trkpt lat="44.9509706" lon="5.3910378">
<ele>914.31</ele>
<time>2019-07-25T10:19:52Z</time>
</trkpt>
<trkpt lat="44.9509565" lon="5.3910026">
<ele>914.36</ele>
<time>2019-07-25T10:19:53Z</time>
</trkpt>
<trkpt lat="44.9509442" lon="5.3909744">
<ele>914.41</ele>
<time>2019-07-25T10:19:54Z</time>
</trkpt>
<trkpt lat="44.9509315" lon="5.3909528">
<ele>914.46</ele>
<time>2019-07-25T10:19:55Z</time>
</trkpt>
<trkpt lat="44.9509178" lon="5.3909353">
<ele>914.51</ele>
<time>2019-07-25T10:19:56Z</time>
</trkpt>
<trkpt lat="44.9509021" lon="5.3909228">
<ele>914.57</ele>
<time>2019-07-25T10:19:57Z</time>
</trkpt>
<trkpt lat="44.9508891" lon="5.3909179">
<ele>914.62</ele>
<time>2019-07-25T10:19:58Z</time>
</trkpt>
<trkpt lat="44.9508782" lon="5.3909067">
<ele>914.68</ele>
<time>2019-07-25T10:19:59Z</time>
</trkpt>
<trkpt lat="44.9508658" lon="5.3908876">
<ele>914.74</ele>
<time>2019-07-25T10:20:00Z</time>
</trkpt>
<trkpt lat="44.9508511" lon="5.3908654">
<ele>914.79</ele>
<time>2019-07-25T10:20:01Z</time>
</trkpt>
<trkpt lat="44.9508427" lon="5.3908534">
<ele>914.85</ele>
<time>2019-07-25T10:20:02Z</time>
</trkpt>
<trkpt lat="44.9508404" lon="5.3908471">
<ele>914.91</ele>
<time>2019-07-25T10:20:03Z</time>
</trkpt>
<trkpt lat="44.9508443" lon="5.3908585">
<ele>914.98</ele>
<time>2019-07-25T10:20:04Z</time>
</trkpt>
<trkpt lat="44.9508475" lon="5.3908575">
<ele>914.98</ele>
<time>2019-07-25T10:20:05Z</time>
</trkpt>
<trkpt lat="44.9508481" lon="5.3908631">
<ele>915.06</ele>
<time>2019-07-25T10:20:06Z</time>
</trkpt>
<trkpt lat="44.9508465" lon="5.3908637">
<ele>915.14</ele>
<time>2019-07-25T10:20:07Z</time>
</trkpt>
<trkpt lat="44.9508441" lon="5.3908623">
<ele>915.22</ele>
<time>2019-07-25T10:20:08Z</time>
</trkpt>
<trkpt lat="44.9508408" lon="5.3908534">
<ele>915.30</ele>
<time>2019-07-25T10:20:09Z</time>
</trkpt>
<trkpt lat="44.9508369" lon="5.3908379">
<ele>915.38</ele>
<time>2019-07-25T10:20:10Z</time>
</trkpt>
<trkpt lat="44.9508314" lon="5.3908226">
<ele>915.46</ele>
<time>2019-07-25T10:20:11Z</time>
</trkpt>
<trkpt lat="44.9508233" lon="5.3908082">
<ele>915.54</ele>
<time>2019-07-25T10:20:12Z</time>
</trkpt>
<trkpt lat="44.9508114" lon="5.3907893">
<ele>915.62</ele>
<time>2019-07-25T10:20:13Z</time>
</trkpt>
<trkpt lat="44.9507987" lon="5.3907672">
<ele>915.70</ele>
<time>2019-07-25T10:20:14Z</time>
</trkpt>
<trkpt lat="44.9507880" lon="5.3907436">
<ele>915.79</ele>
<time>2019-07-25T10:20:15Z</time>
</trkpt>
<trkpt lat="44.9507800" lon="5.3907144">
<ele>915.87</ele>
<time>2019-07-25T10:20:16Z</time>
</trkpt>
<trkpt lat="44.9507746" lon="5.3906978">
<ele>915.95</ele>
<time>2019-07-25T10:20:17Z</time>
</trkpt>
<trkpt lat="44.9507444" lon="5.3906901">
<ele>916.03</ele>
<time>2019-07-25T10:20:18Z</time>
</trkpt>
<trkpt lat="44.9507131" lon="5.3906889">
<ele>916.12</ele>
<time>2019-07-25T10:20:19Z</time>
</trkpt>
<trkpt lat="44.9506994" lon="5.3906777">
<ele>916.20</ele>
<time>2019-07-25T10:20:20Z</time>
</trkpt>
<trkpt lat="44.9506820" lon="5.3906755">
<ele>916.29</ele>
<time>2019-07-25T10:20:21Z</time>
</trkpt>
<trkpt lat="44.9506664" lon="5.3906784">
<ele>916.37</ele>
<time>2019-07-25T10:20:22Z</time>
</trkpt>
<trkpt lat="44.9506592" lon="5.3906688">
<ele>916.46</ele>
<time>2019-07-25T10:20:23Z</time>
</trkpt>
<trkpt lat="44.9506444" lon="5.3906660">
<ele>916.55</ele>
<time>2019-07-25T10:20:24Z</time>
</trkpt>
<trkpt lat="44.9506229" lon="5.3906748">
<ele>916.63</ele>
<time>2019-07-25T10:20:25Z</time>
</trkpt>
<trkpt lat="44.9505964" lon="5.3906937">
<ele>916.71</ele>
<time>2019-07-25T10:20:26Z</time>
</trkpt>
<trkpt lat="44.9505723" lon="5.3907006">
<ele>916.80</ele>
<time>2019-07-25T10:20:27Z</time>
</trkpt>
<trkpt lat="44.9505463" lon="5.3907110">
<ele>916.88</ele>
<time>2019-07-25T10:20:28Z</time>
</trkpt>
<trkpt lat="44.9505238" lon="5.3907198">
<ele>916.97</ele>
<time>2019-07-25T10:20:29Z</time>
</trkpt>
<trkpt lat="44.9505017" lon="5.3907298">
<ele>917.05</ele>
<time>2019-07-25T10:20:30Z</time>
</trkpt>
<trkpt lat="44.9504792" lon="5.3907354">
<ele>917.13</ele>
<time>2019-07-25T10:20:31Z</time>
</trkpt>
<trkpt lat="44.9504543" lon="5.3907461">
<ele>917.21</ele>
<time>2019-07-25T10:20:32Z</time>
</trkpt>
<trkpt lat="44.9504328" lon="5.3907493">
<ele>917.30</ele>
<time>2019-07-25T10:20:33Z</time>
</trkpt>
<trkpt lat="44.9504122" lon="5.3907520">
<ele>917.38</ele>
<time>2019-07-25T10:20:34Z</time>
</trkpt>
<trkpt lat="44.9503882" lon="5.3907637">
<ele>917.46</ele>
<time>2019-07-25T10:20:35Z</time>
</trkpt>
<trkpt lat="44.9503611" lon="5.3907780">
<ele>917.55</ele>
<time>2019-07-25T10:20:36Z</time>
</trkpt>
<trkpt lat="44.9503313" lon="5.3907931">
<ele>917.64</ele>
<time>2019-07-25T10:20:37Z</time>
</trkpt>
<trkpt lat="44.9502978" lon="5.3908034">
<ele>917.72</ele>
<time>2019-07-25T10:20:38Z</time>
</trkpt>
<trkpt lat="44.9502700" lon="5.3908131">
<ele>917.80</ele>
<time>2019-07-25T10:20:39Z</time>
</trkpt>
<trkpt lat="44.9502398" lon="5.3908292">
<ele>917.89</ele>
<time>2019-07-25T10:20:40Z</time>
</trkpt>
<trkpt lat="44.9502093" lon="5.3908431">
<ele>917.97</ele>
<time>2019-07-25T10:20:41Z</time>
</trkpt>
<trkpt lat="44.9501834" lon="5.3908584">
<ele>918.05</ele>
<time>2019-07-25T10:20:42Z</time>
</trkpt>
<trkpt lat="44.9501671" lon="5.3908630">
<ele>918.13</ele>
<time>2019-07-25T10:20:43Z</time>
</trkpt>
<trkpt lat="44.9501428" lon="5.3908890">
<ele>918.21</ele>
<time>2019-07-25T10:20:44Z</time>
</trkpt>
<trkpt lat="44.9501208" lon="5.3909242">
<ele>918.29</ele>
<time>2019-07-25T10:20:45Z</time>
</trkpt>
<trkpt lat="44.9500982" lon="5.3909451">
<ele>918.37</ele>
<time>2019-07-25T10:20:46Z</time>
</trkpt>
<trkpt lat="44.9500817" lon="5.3909498">
<ele>918.45</ele>
<time>2019-07-25T10:20:47Z</time>
</trkpt>
<trkpt lat="44.9500625" lon="5.3909589">
<ele>918.52</ele>
<time>2019-07-25T10:20:48Z</time>
</trkpt>
<trkpt lat="44.9500364" lon="5.3909669">
<ele>918.59</ele>
<time>2019-07-25T10:20:49Z</time>
</trkpt>
<trkpt lat="44.9499889" lon="5.3909798">
<ele>918.65</ele>
<time>2019-07-25T10:20:50Z</time>
</trkpt>
<trkpt lat="44.9499766" lon="5.3909823">
<ele>918.70</ele>
<time>2019-07-25T10:20:51Z</time>
</trkpt>
<trkpt lat="44.9499320" lon="5.3909793">
<ele>918.75</ele>
<time>2019-07-25T10:20:52Z</time>
</trkpt>
<trkpt lat="44.9499032" lon="5.3909937">
<ele>918.81</ele>
<time>2019-07-25T10:20:53Z</time>
</trkpt>
<trkpt lat="44.9498557" lon="5.3910082">
<ele>918.86</ele>
<time>2019-07-25T10:20:54Z</time>
</trkpt>
<trkpt lat="44.9498330" lon="5.3909906">
<ele>918.90</ele>
<time>2019-07-25T10:20:55Z</time>
</trkpt>
<trkpt lat="44.9498072" lon="5.3910037">
<ele>918.95</ele>
<time>2019-07-25T10:20:56Z</time>
</trkpt>
<trkpt lat="44.9497773" lon="5.3910280">
<ele>919.00</ele>
<time>2019-07-25T10:20:57Z</time>
</trkpt>
<trkpt lat="44.9497440" lon="5.3910604">
<ele>919.05</ele>
<time>2019-07-25T10:20:58Z</time>
</trkpt>
<trkpt lat="44.9497144" lon="5.3910848">
<ele>919.11</ele>
<time>2019-07-25T10:20:59Z</time>
</trkpt>
<trkpt lat="44.9496873" lon="5.3911098">
<ele>919.17</ele>
<time>2019-07-25T10:21:00Z</time>
</trkpt>
<trkpt lat="44.9496736" lon="5.3911190">
<ele>919.22</ele>
<time>2019-07-25T10:21:01Z</time>
</trkpt>
<trkpt lat="44.9496606" lon="5.3911400">
<ele>919.29</ele>
<time>2019-07-25T10:21:02Z</time>
</trkpt>
<trkpt lat="44.9496464" lon="5.3911888">
<ele>919.35</ele>
<time>2019-07-25T10:21:03Z</time>
</trkpt>
<trkpt lat="44.9496411" lon="5.3912279">
<ele>919.42</ele>
<time>2019-07-25T10:21:04Z</time>
</trkpt>
<trkpt lat="44.9496350" lon="5.3912605">
<ele>919.48</ele>
<time>2019-07-25T10:21:05Z</time>
</trkpt>
<trkpt lat="44.9496293" lon="5.3912995">
<ele>919.56</ele>
<time>2019-07-25T10:21:06Z</time>
</trkpt>
<trkpt lat="44.9496313" lon="5.3913507">
<ele>919.63</ele>
<time>2019-07-25T10:21:07Z</time>
</trkpt>
<trkpt lat="44.9496403" lon="5.3913875">
<ele>919.70</ele>
<time>2019-07-25T10:21:08Z</time>
</trkpt>
<trkpt lat="44.9496444" lon="5.3914256">
<ele>919.78</ele>
<time>2019-07-25T10:21:09Z</time>
</trkpt>
<trkpt lat="44.9496474" lon="5.3914621">
<ele>919.85</ele>
<time>2019-07-25T10:21:10Z</time>
</trkpt>
<trkpt lat="44.9496501" lon="5.3914981">
<ele>919.94</ele>
<time>2019-07-25T10:21:11Z</time>
</trkpt>
<trkpt lat="44.9496520" lon="5.3915400">
<ele>920.02</ele>
<time>2019-07-25T10:21:12Z</time>
</trkpt>
<trkpt lat="44.9496552" lon="5.3915722">
<ele>920.10</ele>
<time>2019-07-25T10:21:13Z</time>
</trkpt>
<trkpt lat="44.9496538" lon="5.3916077">
<ele>920.18</ele>
<time>2019-07-25T10:21:14Z</time>
</trkpt>
<trkpt lat="44.9496477" lon="5.3916494">
<ele>920.27</ele>
<time>2019-07-25T10:21:15Z</time>
</trkpt>
<trkpt lat="44.9496368" lon="5.3916804">
<ele>920.37</ele>
<time>2019-07-25T10:21:16Z</time>
</trkpt>
<trkpt lat="44.9496134" lon="5.3916954">
<ele>920.47</ele>
<time>2019-07-25T10:21:17Z</time>
</trkpt>
<trkpt lat="44.9495883" lon="5.3917112">
<ele>920.56</ele>
<time>2019-07-25T10:21:18Z</time>
</trkpt>
<trkpt lat="44.9495731" lon="5.3917270">
<ele>920.67</ele>
<time>2019-07-25T10:21:19Z</time>
</trkpt>
<trkpt lat="44.9495522" lon="5.3917642">
<ele>920.77</ele>
<time>2019-07-25T10:21:20Z</time>
</trkpt>
<trkpt lat="44.9495353" lon="5.3918018">
<ele>920.87</ele>
<time>2019-07-25T10:21:21Z</time>
</trkpt>
<trkpt lat="44.9495119" lon="5.3918378">
<ele>920.97</ele>
<time>2019-07-25T10:21:22Z</time>
</trkpt>
<trkpt lat="44.9494874" lon="5.3918636">
<ele>921.07</ele>
<time>2019-07-25T10:21:23Z</time>
</trkpt>
<trkpt lat="44.9494501" lon="5.3918933">
<ele>921.17</ele>
<time>2019-07-25T10:21:24Z</time>
</trkpt>
<trkpt lat="44.9494165" lon="5.3919200">
<ele>921.26</ele>
<time>2019-07-25T10:21:25Z</time>
</trkpt>
<trkpt lat="44.9493850" lon="5.3919481">
<ele>921.33</ele>
<time>2019-07-25T10:21:26Z</time>
</trkpt>
<trkpt lat="44.9493583" lon="5.3919744">
<ele>921.40</ele>
<time>2019-07-25T10:21:27Z</time>
</trkpt>
<trkpt lat="44.9493333" lon="5.3919951">
<ele>921.47</ele>
<time>2019-07-25T10:21:28Z</time>
</trkpt>
<trkpt lat="44.9493085" lon="5.3920188">
<ele>921.53</ele>
<time>2019-07-25T10:21:29Z</time>
</trkpt>
<trkpt lat="44.9492867" lon="5.3920378">
<ele>921.60</ele>
<time>2019-07-25T10:21:30Z</time>
</trkpt>
<trkpt lat="44.9492686" lon="5.3920547">
<ele>921.66</ele>
<time>2019-07-25T10:21:31Z</time>
</trkpt>
<trkpt lat="44.9492514" lon="5.3920690">
<ele>921.73</ele>
<time>2019-07-25T10:21:32Z</time>
</trkpt>
<trkpt lat="44.9492433" lon="5.3920743">
<ele>921.80</ele>
<time>2019-07-25T10:21:33Z</time>
</trkpt>
<trkpt lat="44.9492390" lon="5.3920818">
<ele>921.88</ele>
<time>2019-07-25T10:21:34Z</time>
</trkpt>
<trkpt lat="44.9492300" lon="5.3920908">
<ele>921.96</ele>
<time>2019-07-25T10:21:35Z</time>
</trkpt>
<trkpt lat="44.9492223" lon="5.3921037">
<ele>922.04</ele>
<time>2019-07-25T10:21:36Z</time>
</trkpt>
<trkpt lat="44.9492168" lon="5.3921247">
<ele>922.12</ele>
<time>2019-07-25T10:21:37Z</time>
</trkpt>
<trkpt lat="44.9492114" lon="5.3921513">
<ele>922.19</ele>
<time>2019-07-25T10:21:38Z</time>
</trkpt>
<trkpt lat="44.9492059" lon="5.3922035">
<ele>922.27</ele>
<time>2019-07-25T10:21:39Z</time>
</trkpt>
<trkpt lat="44.9492016" lon="5.3922595">
<ele>922.35</ele>
<time>2019-07-25T10:21:40Z</time>
</trkpt>
<trkpt lat="44.9491994" lon="5.3923122">
<ele>922.42</ele>
<time>2019-07-25T10:21:41Z</time>
</trkpt>
<trkpt lat="44.9491946" lon="5.3923594">
<ele>922.50</ele>
<time>2019-07-25T10:21:42Z</time>
</trkpt>
<trkpt lat="44.9491874" lon="5.3924032">
<ele>922.58</ele>
<time>2019-07-25T10:21:43Z</time>
</trkpt>
<trkpt lat="44.9491699" lon="5.3924520">
<ele>923.34</ele>
<time>2019-07-25T10:21:44Z</time>
</trkpt>
<trkpt lat="44.9491512" lon="5.3925055">
<ele>923.98</ele>
<time>2019-07-25T10:21:45Z</time>
</trkpt>
<trkpt lat="44.9491326" lon="5.3925604">
<ele>924.46</ele>
<time>2019-07-25T10:21:46Z</time>
</trkpt>
<trkpt lat="44.9491100" lon="5.3926362">
<ele>924.89</ele>
<time>2019-07-25T10:21:47Z</time>
</trkpt>
<trkpt lat="44.9490896" lon="5.3927084">
<ele>925.24</ele>
<time>2019-07-25T10:21:48Z</time>
</trkpt>
<trkpt lat="44.9490685" lon="5.3927623">
<ele>925.54</ele>
<time>2019-07-25T10:21:49Z</time>
</trkpt>
<trkpt lat="44.9490489" lon="5.3928083">
<ele>925.56</ele>
<time>2019-07-25T10:21:50Z</time>
</trkpt>
<trkpt lat="44.9490265" lon="5.3928598">
<ele>925.59</ele>
<time>2019-07-25T10:21:51Z</time>
</trkpt>
<trkpt lat="44.9490068" lon="5.3929017">
<ele>925.88</ele>
<time>2019-07-25T10:21:52Z</time>
</trkpt>
<trkpt lat="44.9489921" lon="5.3929553">
<ele>926.13</ele>
<time>2019-07-25T10:21:53Z</time>
</trkpt>
<trkpt lat="44.9489795" lon="5.3930093">
<ele>926.31</ele>
<time>2019-07-25T10:21:54Z</time>
</trkpt>
<trkpt lat="44.9489664" lon="5.3930681">
<ele>926.44</ele>
<time>2019-07-25T10:21:55Z</time>
</trkpt>
<trkpt lat="44.9489478" lon="5.3931185">
<ele>926.45</ele>
<time>2019-07-25T10:21:56Z</time>
</trkpt>
<trkpt lat="44.9489302" lon="5.3931700">
<ele>926.47</ele>
<time>2019-07-25T10:21:57Z</time>
</trkpt>
<trkpt lat="44.9489074" lon="5.3932235">
<ele>926.48</ele>
<time>2019-07-25T10:21:58Z</time>
</trkpt>
<trkpt lat="44.9488908" lon="5.3932684">
<ele>926.50</ele>
<time>2019-07-25T10:21:59Z</time>
</trkpt>
<trkpt lat="44.9488750" lon="5.3933086">
<ele>926.52</ele>
<time>2019-07-25T10:22:00Z</time>
</trkpt>
<trkpt lat="44.9488557" lon="5.3933554">
<ele>926.55</ele>
<time>2019-07-25T10:22:01Z</time>
</trkpt>
<trkpt lat="44.9488383" lon="5.3933987">
<ele>926.59</ele>
<time>2019-07-25T10:22:02Z</time>
</trkpt>
<trkpt lat="44.9488188" lon="5.3934360">
<ele>926.63</ele>
<time>2019-07-25T10:22:03Z</time>
</trkpt>
<trkpt lat="44.9488013" lon="5.3934565">
<ele>926.67</ele>
<time>2019-07-25T10:22:04Z</time>
</trkpt>
<trkpt lat="44.9487897" lon="5.3934724">
<ele>926.71</ele>
<time>2019-07-25T10:22:05Z</time>
</trkpt>
<trkpt lat="44.9487735" lon="5.3935078">
<ele>926.76</ele>
<time>2019-07-25T10:22:06Z</time>
</trkpt>
<trkpt lat="44.9487540" lon="5.3935452">
<ele>926.80</ele>
<time>2019-07-25T10:22:07Z</time>
</trkpt>
<trkpt lat="44.9487350" lon="5.3935786">
<ele>926.84</ele>
<time>2019-07-25T10:22:08Z</time>
</trkpt>
<trkpt lat="44.9487157" lon="5.3936127">
<ele>926.88</ele>
<time>2019-07-25T10:22:09Z</time>
</trkpt>
<trkpt lat="44.9486958" lon="5.3936510">
<ele>926.92</ele>
<time>2019-07-25T10:22:10Z</time>
</trkpt>
<trkpt lat="44.9486761" lon="5.3936825">
<ele>926.96</ele>
<time>2019-07-25T10:22:11Z</time>
</trkpt>
<trkpt lat="44.9486588" lon="5.3937149">
<ele>927.00</ele>
<time>2019-07-25T10:22:12Z</time>
</trkpt>
<trkpt lat="44.9486407" lon="5.3937470">
<ele>927.04</ele>
<time>2019-07-25T10:22:13Z</time>
</trkpt>
<trkpt lat="44.9486243" lon="5.3937768">
<ele>927.08</ele>
<time>2019-07-25T10:22:14Z</time>
</trkpt>
<trkpt lat="44.9486072" lon="5.3938133">
<ele>927.12</ele>
<time>2019-07-25T10:22:15Z</time>
</trkpt>
<trkpt lat="44.9485904" lon="5.3938471">
<ele>927.16</ele>
<time>2019-07-25T10:22:16Z</time>
</trkpt>
<trkpt lat="44.9485814" lon="5.3938688">
<ele>927.21</ele>
<time>2019-07-25T10:22:17Z</time>
</trkpt>
<trkpt lat="44.9485778" lon="5.3938765">
<ele>927.25</ele>
<time>2019-07-25T10:22:18Z</time>
</trkpt>
<trkpt lat="44.9485798" lon="5.3938761">
<ele>927.26</ele>
<time>2019-07-25T10:22:19Z</time>
</trkpt>
<trkpt lat="44.9485857" lon="5.3938669">
<ele>927.31</ele>
<time>2019-07-25T10:22:20Z</time>
</trkpt>
<trkpt lat="44.9485888" lon="5.3938631">
<ele>927.36</ele>
<time>2019-07-25T10:22:21Z</time>
</trkpt>
<trkpt lat="44.9485875" lon="5.3938664">
<ele>927.36</ele>
<time>2019-07-25T10:22:22Z</time>
</trkpt>
<trkpt lat="44.9485894" lon="5.3938644">
<ele>927.37</ele>
<time>2019-07-25T10:22:23Z</time>
</trkpt>
<trkpt lat="44.9485899" lon="5.3938651">
<ele>927.37</ele>
<time>2019-07-25T10:22:24Z</time>
</trkpt>
<trkpt lat="44.9485901" lon="5.3938658">
<ele>927.37</ele>
<time>2019-07-25T10:22:25Z</time>
</trkpt>
<trkpt lat="44.9485903" lon="5.3938657">
<ele>927.38</ele>
<time>2019-07-25T10:22:26Z</time>
</trkpt>
<trkpt lat="44.9485900" lon="5.3938659">
<ele>927.38</ele>
<time>2019-07-25T10:22:27Z</time>
</trkpt>
<trkpt lat="44.9485898" lon="5.3938668">
<ele>927.39</ele>
<time>2019-07-25T10:22:28Z</time>
</trkpt>
<trkpt lat="44.9485913" lon="5.3938649">
<ele>927.39</ele>
<time>2019-07-25T10:22:29Z</time>
</trkpt>
<trkpt lat="44.9485915" lon="5.3938650">
<ele>927.40</ele>
<time>2019-07-25T10:22:30Z</time>
</trkpt>
<trkpt lat="44.9485922" lon="5.3938649">
<ele>927.40</ele>
<time>2019-07-25T10:22:31Z</time>
</trkpt>
<trkpt lat="44.9485930" lon="5.3938646">
<ele>927.41</ele>
<time>2019-07-25T10:22:32Z</time>
</trkpt>
<trkpt lat="44.9485936" lon="5.3938636">
<ele>927.41</ele>
<time>2019-07-25T10:22:33Z</time>
</trkpt>
<trkpt lat="44.9485940" lon="5.3938632">
<ele>927.42</ele>
<time>2019-07-25T10:22:34Z</time>
</trkpt>
<trkpt lat="44.9485945" lon="5.3938627">
<ele>927.42</ele>
<time>2019-07-25T10:22:35Z</time>
</trkpt>
<trkpt lat="44.9485953" lon="5.3938629">
<ele>927.42</ele>
<time>2019-07-25T10:22:36Z</time>
</trkpt>
<trkpt lat="44.9485959" lon="5.3938624">
<ele>927.43</ele>
<time>2019-07-25T10:22:37Z</time>
</trkpt>
<trkpt lat="44.9485962" lon="5.3938621">
<ele>927.43</ele>
<time>2019-07-25T10:22:38Z</time>
</trkpt>
<trkpt lat="44.9485971" lon="5.3938612">
<ele>927.44</ele>
<time>2019-07-25T10:22:39Z</time>
</trkpt>
<trkpt lat="44.9485975" lon="5.3938608">
<ele>927.44</ele>
<time>2019-07-25T10:22:40Z</time>
</trkpt>
<trkpt lat="44.9485989" lon="5.3938590">
<ele>927.44</ele>
<time>2019-07-25T10:22:41Z</time>
</trkpt>
<trkpt lat="44.9486058" lon="5.3938523">
<ele>927.49</ele>
<time>2019-07-25T10:22:42Z</time>
</trkpt>
<trkpt lat="44.9486124" lon="5.3938450">
<ele>927.49</ele>
<time>2019-07-25T10:22:43Z</time>
</trkpt>
<trkpt lat="44.9486172" lon="5.3938350">
<ele>927.54</ele>
<time>2019-07-25T10:22:44Z</time>
</trkpt>
<trkpt lat="44.9486170" lon="5.3938354">
<ele>927.54</ele>
<time>2019-07-25T10:22:45Z</time>
</trkpt>
<trkpt lat="44.9486177" lon="5.3938344">
<ele>927.55</ele>
<time>2019-07-25T10:22:46Z</time>
</trkpt>
<trkpt lat="44.9486188" lon="5.3938320">
<ele>927.55</ele>
<time>2019-07-25T10:22:47Z</time>
</trkpt>
<trkpt lat="44.9486112" lon="5.3938485">
<ele>927.62</ele>
<time>2019-07-25T10:22:48Z</time>
</trkpt>
<trkpt lat="44.9486017" lon="5.3938783">
<ele>927.68</ele>
<time>2019-07-25T10:22:49Z</time>
</trkpt>
<trkpt lat="44.9485981" lon="5.3938999">
<ele>927.76</ele>
<time>2019-07-25T10:22:50Z</time>
</trkpt>
<trkpt lat="44.9485886" lon="5.3939255">
<ele>927.83</ele>
<time>2019-07-25T10:22:51Z</time>
</trkpt>
<trkpt lat="44.9485778" lon="5.3939502">
<ele>927.90</ele>
<time>2019-07-25T10:22:52Z</time>
</trkpt>
<trkpt lat="44.9485692" lon="5.3939729">
<ele>927.98</ele>
<time>2019-07-25T10:22:53Z</time>
</trkpt>
<trkpt lat="44.9485564" lon="5.3940031">
<ele>928.06</ele>
<time>2019-07-25T10:22:54Z</time>
</trkpt>
<trkpt lat="44.9485435" lon="5.3940314">
<ele>928.14</ele>
<time>2019-07-25T10:22:55Z</time>
</trkpt>
<trkpt lat="44.9485293" lon="5.3940600">
<ele>928.22</ele>
<time>2019-07-25T10:22:56Z</time>
</trkpt>
<trkpt lat="44.9485140" lon="5.3940877">
<ele>928.31</ele>
<time>2019-07-25T10:22:57Z</time>
</trkpt>
<trkpt lat="44.9484884" lon="5.3941352">
<ele>928.40</ele>
<time>2019-07-25T10:22:58Z</time>
</trkpt>
<trkpt lat="44.9484596" lon="5.3941887">
<ele>928.48</ele>
<time>2019-07-25T10:22:59Z</time>
</trkpt>
<trkpt lat="44.9484301" lon="5.3942418">
<ele>929.27</ele>
<time>2019-07-25T10:23:00Z</time>
</trkpt>
<trkpt lat="44.9484017" lon="5.3942808">
<ele>929.83</ele>
<time>2019-07-25T10:23:01Z</time>
</trkpt>
<trkpt lat="44.9483590" lon="5.3943310">
<ele>930.20</ele>
<time>2019-07-25T10:23:02Z</time>
</trkpt>
<trkpt lat="44.9483207" lon="5.3943784">
<ele>930.48</ele>
<time>2019-07-25T10:23:03Z</time>
</trkpt>
<trkpt lat="44.9482807" lon="5.3944263">
<ele>930.67</ele>
<time>2019-07-25T10:23:04Z</time>
</trkpt>
<trkpt lat="44.9482416" lon="5.3944706">
<ele>930.80</ele>
<time>2019-07-25T10:23:05Z</time>
</trkpt>
<trkpt lat="44.9482094" lon="5.3945078">
<ele>930.89</ele>
<time>2019-07-25T10:23:06Z</time>
</trkpt>
<trkpt lat="44.9481791" lon="5.3945439">
<ele>930.90</ele>
<time>2019-07-25T10:23:07Z</time>
</trkpt>
<trkpt lat="44.9481553" lon="5.3945686">
<ele>930.91</ele>
<time>2019-07-25T10:23:08Z</time>
</trkpt>
<trkpt lat="44.9481225" lon="5.3946011">
<ele>930.92</ele>
<time>2019-07-25T10:23:09Z</time>
</trkpt>
<trkpt lat="44.9480836" lon="5.3946307">
<ele>930.92</ele>
<time>2019-07-25T10:23:10Z</time>
</trkpt>
<trkpt lat="44.9480392" lon="5.3946491">
<ele>930.91</ele>
<time>2019-07-25T10:23:11Z</time>
</trkpt>
<trkpt lat="44.9479958" lon="5.3946484">
<ele>930.89</ele>
<time>2019-07-25T10:23:12Z</time>
</trkpt>
<trkpt lat="44.9479596" lon="5.3946350">
<ele>930.88</ele>
<time>2019-07-25T10:23:13Z</time>
</trkpt>
<trkpt lat="44.9479319" lon="5.3946196">
<ele>930.87</ele>
<time>2019-07-25T10:23:14Z</time>
</trkpt>
<trkpt lat="44.9479168" lon="5.3946083">
<ele>930.85</ele>
<time>2019-07-25T10:23:15Z</time>
</trkpt>
<trkpt lat="44.9479090" lon="5.3945883">
<ele>930.84</ele>
<time>2019-07-25T10:23:16Z</time>
</trkpt>
<trkpt lat="44.9479091" lon="5.3945493">
<ele>930.82</ele>
<time>2019-07-25T10:23:17Z</time>
</trkpt>
<trkpt lat="44.9479166" lon="5.3945045">
<ele>930.80</ele>
<time>2019-07-25T10:23:18Z</time>
</trkpt>
<trkpt lat="44.9479251" lon="5.3944666">
<ele>930.79</ele>
<time>2019-07-25T10:23:19Z</time>
</trkpt>
<trkpt lat="44.9479294" lon="5.3944276">
<ele>930.77</ele>
<time>2019-07-25T10:23:20Z</time>
</trkpt>
<trkpt lat="44.9479255" lon="5.3943839">
<ele>930.76</ele>
<time>2019-07-25T10:23:21Z</time>
</trkpt>
<trkpt lat="44.9479138" lon="5.3943359">
<ele>930.74</ele>
<time>2019-07-25T10:23:22Z</time>
</trkpt>
<trkpt lat="44.9479019" lon="5.3942901">
<ele>930.73</ele>
<time>2019-07-25T10:23:23Z</time>
</trkpt>
<trkpt lat="44.9478961" lon="5.3942714">
<ele>930.72</ele>
<time>2019-07-25T10:23:24Z</time>
</trkpt>
<trkpt lat="44.9478970" lon="5.3942637">
<ele>930.71</ele>
<time>2019-07-25T10:23:25Z</time>
</trkpt>
<trkpt lat="44.9478967" lon="5.3942652">
<ele>930.70</ele>
<time>2019-07-25T10:23:26Z</time>
</trkpt>
<trkpt lat="44.9478980" lon="5.3942687">
<ele>930.70</ele>
<time>2019-07-25T10:23:27Z</time>
</trkpt>
<trkpt lat="44.9479012" lon="5.3942731">
<ele>930.69</ele>
<time>2019-07-25T10:23:28Z</time>
</trkpt>
<trkpt lat="44.9479026" lon="5.3942793">
<ele>930.68</ele>
<time>2019-07-25T10:23:29Z</time>
</trkpt>
<trkpt lat="44.9479011" lon="5.3942685">
<ele>930.67</ele>
<time>2019-07-25T10:23:30Z</time>
</trkpt>
<trkpt lat="44.9479003" lon="5.3942660">
<ele>930.65</ele>
<time>2019-07-25T10:23:31Z</time>
</trkpt>
<trkpt lat="44.9479048" lon="5.3942730">
<ele>930.64</ele>
<time>2019-07-25T10:23:32Z</time>
</trkpt>
<trkpt lat="44.9479158" lon="5.3942930">
<ele>930.62</ele>
<time>2019-07-25T10:23:33Z</time>
</trkpt>
<trkpt lat="44.9479273" lon="5.3943256">
<ele>930.59</ele>
<time>2019-07-25T10:23:34Z</time>
</trkpt>
<trkpt lat="44.9479395" lon="5.3943645">
<ele>930.57</ele>
<time>2019-07-25T10:23:35Z</time>
</trkpt>
<trkpt lat="44.9479474" lon="5.3944076">
<ele>930.55</ele>
<time>2019-07-25T10:23:36Z</time>
</trkpt>
<trkpt lat="44.9479541" lon="5.3944616">
<ele>930.33</ele>
<time>2019-07-25T10:23:37Z</time>
</trkpt>
<trkpt lat="44.9479650" lon="5.3945262">
<ele>930.22</ele>
<time>2019-07-25T10:23:38Z</time>
</trkpt>
<trkpt lat="44.9479740" lon="5.3945978">
<ele>930.16</ele>
<time>2019-07-25T10:23:39Z</time>
</trkpt>
<trkpt lat="44.9479694" lon="5.3946728">
<ele>930.13</ele>
<time>2019-07-25T10:23:40Z</time>
</trkpt>
<trkpt lat="44.9479579" lon="5.3947353">
<ele>930.17</ele>
<time>2019-07-25T10:23:41Z</time>
</trkpt>
<trkpt lat="44.9479477" lon="5.3948059">
<ele>930.26</ele>
<time>2019-07-25T10:23:42Z</time>
</trkpt>
<trkpt lat="44.9479501" lon="5.3948658">
<ele>930.39</ele>
<time>2019-07-25T10:23:43Z</time>
</trkpt>
<trkpt lat="44.9479572" lon="5.3949121">
<ele>930.40</ele>
<time>2019-07-25T10:23:44Z</time>
</trkpt>
<trkpt lat="44.9479497" lon="5.3949528">
<ele>930.41</ele>
<time>2019-07-25T10:23:45Z</time>
</trkpt>
<trkpt lat="44.9479189" lon="5.3950108">
<ele>930.49</ele>
<time>2019-07-25T10:23:46Z</time>
</trkpt>
<trkpt lat="44.9478866" lon="5.3950782">
<ele>930.47</ele>
<time>2019-07-25T10:23:47Z</time>
</trkpt>
<trkpt lat="44.9478701" lon="5.3951514">
<ele>930.42</ele>
<time>2019-07-25T10:23:48Z</time>
</trkpt>
<trkpt lat="44.9478698" lon="5.3952272">
<ele>930.34</ele>
<time>2019-07-25T10:23:49Z</time>
</trkpt>
<trkpt lat="44.9478889" lon="5.3953055">
<ele>930.26</ele>
<time>2019-07-25T10:23:50Z</time>
</trkpt>
<trkpt lat="44.9479100" lon="5.3953842">
<ele>930.22</ele>
<time>2019-07-25T10:23:51Z</time>
</trkpt>
<trkpt lat="44.9479230" lon="5.3954558">
<ele>930.23</ele>
<time>2019-07-25T10:23:52Z</time>
</trkpt>
<trkpt lat="44.9479287" lon="5.3955006">
<ele>930.24</ele>
<time>2019-07-25T10:23:53Z</time>
</trkpt>
<trkpt lat="44.9479179" lon="5.3955293">
<ele>930.24</ele>
<time>2019-07-25T10:23:54Z</time>
</trkpt>
<trkpt lat="44.9478765" lon="5.3955356">
<ele>930.22</ele>
<time>2019-07-25T10:23:55Z</time>
</trkpt>
<trkpt lat="44.9478365" lon="5.3955340">
<ele>930.18</ele>
<time>2019-07-25T10:23:56Z</time>
</trkpt>
<trkpt lat="44.9477988" lon="5.3955227">
<ele>930.13</ele>
<time>2019-07-25T10:23:57Z</time>
</trkpt>
<trkpt lat="44.9477633" lon="5.3955062">
<ele>930.08</ele>
<time>2019-07-25T10:23:58Z</time>
</trkpt>
<trkpt lat="44.9477313" lon="5.3954919">
<ele>930.01</ele>
<time>2019-07-25T10:23:59Z</time>
</trkpt>
<trkpt lat="44.9477000" lon="5.3954823">
<ele>929.93</ele>
<time>2019-07-25T10:24:00Z</time>
</trkpt>
<trkpt lat="44.9476682" lon="5.3954761">
<ele>929.85</ele>
<time>2019-07-25T10:24:01Z</time>
</trkpt>
<trkpt lat="44.9476320" lon="5.3954634">
<ele>929.76</ele>
<time>2019-07-25T10:24:02Z</time>
</trkpt>
<trkpt lat="44.9475940" lon="5.3954500">
<ele>929.66</ele>
<time>2019-07-25T10:24:03Z</time>
</trkpt>
<trkpt lat="44.9475566" lon="5.3954344">
<ele>929.56</ele>
<time>2019-07-25T10:24:04Z</time>
</trkpt>
<trkpt lat="44.9475202" lon="5.3954267">
<ele>929.46</ele>
<time>2019-07-25T10:24:05Z</time>
</trkpt>
<trkpt lat="44.9474830" lon="5.3954207">
<ele>929.35</ele>
<time>2019-07-25T10:24:06Z</time>
</trkpt>
<trkpt lat="44.9474520" lon="5.3954134">
<ele>929.24</ele>
<time>2019-07-25T10:24:07Z</time>
</trkpt>
<trkpt lat="44.9474187" lon="5.3954093">
<ele>929.13</ele>
<time>2019-07-25T10:24:08Z</time>
</trkpt>
<trkpt lat="44.9473865" lon="5.3954034">
<ele>929.02</ele>
<time>2019-07-25T10:24:09Z</time>
</trkpt>
<trkpt lat="44.9473566" lon="5.3953979">
<ele>928.91</ele>
<time>2019-07-25T10:24:10Z</time>
</trkpt>
<trkpt lat="44.9473293" lon="5.3953908">
<ele>928.80</ele>
<time>2019-07-25T10:24:11Z</time>
</trkpt>
<trkpt lat="44.9473007" lon="5.3953806">
<ele>928.70</ele>
<time>2019-07-25T10:24:12Z</time>
</trkpt>
<trkpt lat="44.9472732" lon="5.3953660">
<ele>928.60</ele>
<time>2019-07-25T10:24:13Z</time>
</trkpt>
<trkpt lat="44.9472460" lon="5.3953482">
<ele>928.50</ele>
<time>2019-07-25T10:24:14Z</time>
</trkpt>
<trkpt lat="44.9472201" lon="5.3953291">
<ele>928.40</ele>
<time>2019-07-25T10:24:15Z</time>
</trkpt>
<trkpt lat="44.9471970" lon="5.3953076">
<ele>928.30</ele>
<time>2019-07-25T10:24:16Z</time>
</trkpt>
<trkpt lat="44.9471773" lon="5.3952837">
<ele>928.21</ele>
<time>2019-07-25T10:24:17Z</time>
</trkpt>
<trkpt lat="44.9471664" lon="5.3952494">
<ele>928.11</ele>
<time>2019-07-25T10:24:18Z</time>
</trkpt>
<trkpt lat="44.9471512" lon="5.3952099">
<ele>928.01</ele>
<time>2019-07-25T10:24:19Z</time>
</trkpt>
<trkpt lat="44.9471364" lon="5.3951704">
<ele>927.91</ele>
<time>2019-07-25T10:24:20Z</time>
</trkpt>
<trkpt lat="44.9471240" lon="5.3951315">
<ele>927.81</ele>
<time>2019-07-25T10:24:21Z</time>
</trkpt>
<trkpt lat="44.9471203" lon="5.3950939">
<ele>927.72</ele>
<time>2019-07-25T10:24:22Z</time>
</trkpt>
<trkpt lat="44.9471167" lon="5.3950574">
<ele>927.63</ele>
<time>2019-07-25T10:24:23Z</time>
</trkpt>
<trkpt lat="44.9471123" lon="5.3950249">
<ele>927.55</ele>
<time>2019-07-25T10:24:24Z</time>
</trkpt>
<trkpt lat="44.9471062" lon="5.3949902">
<ele>927.46</ele>
<time>2019-07-25T10:24:25Z</time>
</trkpt>
<trkpt lat="44.9471031" lon="5.3949642">
<ele>927.39</ele>
<time>2019-07-25T10:24:26Z</time>
</trkpt>
<trkpt lat="44.9470997" lon="5.3949326">
<ele>927.31</ele>
<time>2019-07-25T10:24:27Z</time>
</trkpt>
<trkpt lat="44.9470958" lon="5.3948913">
<ele>927.25</ele>
<time>2019-07-25T10:24:28Z</time>
</trkpt>
<trkpt lat="44.9470959" lon="5.3948553">
<ele>927.19</ele>
<time>2019-07-25T10:24:29Z</time>
</trkpt>
<trkpt lat="44.9470954" lon="5.3948221">
<ele>927.13</ele>
<time>2019-07-25T10:24:30Z</time>
</trkpt>
<trkpt lat="44.9470947" lon="5.3947825">
<ele>927.08</ele>
<time>2019-07-25T10:24:31Z</time>
</trkpt>
<trkpt lat="44.9470936" lon="5.3947451">
<ele>927.04</ele>
<time>2019-07-25T10:24:32Z</time>
</trkpt>
<trkpt lat="44.9470876" lon="5.3947144">
<ele>927.00</ele>
<time>2019-07-25T10:24:33Z</time>
</trkpt>
<trkpt lat="44.9470706" lon="5.3946921">
<ele>926.97</ele>
<time>2019-07-25T10:24:34Z</time>
</trkpt>
<trkpt lat="44.9470596" lon="5.3946803">
<ele>926.93</ele>
<time>2019-07-25T10:24:35Z</time>
</trkpt>
<trkpt lat="44.9470535" lon="5.3946668">
<ele>926.91</ele>
<time>2019-07-25T10:24:36Z</time>
</trkpt>
<trkpt lat="44.9470548" lon="5.3946431">
<ele>926.88</ele>
<time>2019-07-25T10:24:37Z</time>
</trkpt>
<trkpt lat="44.9470619" lon="5.3946227">
<ele>926.85</ele>
<time>2019-07-25T10:24:38Z</time>
</trkpt>
<trkpt lat="44.9470731" lon="5.3946138">
<ele>926.83</ele>
<time>2019-07-25T10:24:39Z</time>
</trkpt>
<trkpt lat="44.9470825" lon="5.3946165">
<ele>926.80</ele>
<time>2019-07-25T10:24:40Z</time>
</trkpt>
<trkpt lat="44.9470897" lon="5.3946566">
<ele>926.78</ele>
<time>2019-07-25T10:24:41Z</time>
</trkpt>
<trkpt lat="44.9470856" lon="5.3946876">
<ele>926.75</ele>
<time>2019-07-25T10:24:42Z</time>
</trkpt>
<trkpt lat="44.9470773" lon="5.3947226">
<ele>926.72</ele>
<time>2019-07-25T10:24:43Z</time>
</trkpt>
<trkpt lat="44.9470695" lon="5.3947668">
<ele>926.70</ele>
<time>2019-07-25T10:24:44Z</time>
</trkpt>
<trkpt lat="44.9470682" lon="5.3948051">
<ele>926.67</ele>
<time>2019-07-25T10:24:45Z</time>
</trkpt>
<trkpt lat="44.9470587" lon="5.3948552">
<ele>926.65</ele>
<time>2019-07-25T10:24:46Z</time>
</trkpt>
<trkpt lat="44.9470504" lon="5.3949135">
<ele>926.33</ele>
<time>2019-07-25T10:24:47Z</time>
</trkpt>
<trkpt lat="44.9470552" lon="5.3949813">
<ele>926.04</ele>
<time>2019-07-25T10:24:48Z</time>
</trkpt>
<trkpt lat="44.9470610" lon="5.3950519">
<ele>925.80</ele>
<time>2019-07-25T10:24:49Z</time>
</trkpt>
<trkpt lat="44.9470640" lon="5.3951177">
<ele>925.57</ele>
<time>2019-07-25T10:24:50Z</time>
</trkpt>
<trkpt lat="44.9470455" lon="5.3951760">
<ele>925.37</ele>
<time>2019-07-25T10:24:51Z</time>
</trkpt>
<trkpt lat="44.9470110" lon="5.3952251">
<ele>925.23</ele>
<time>2019-07-25T10:24:52Z</time>
</trkpt>
<trkpt lat="44.9469667" lon="5.3952773">
<ele>925.14</ele>
<time>2019-07-25T10:24:53Z</time>
</trkpt>
<trkpt lat="44.9469180" lon="5.3953232">
<ele>925.12</ele>
<time>2019-07-25T10:24:54Z</time>
</trkpt>
<trkpt lat="44.9468811" lon="5.3953571">
<ele>925.18</ele>
<time>2019-07-25T10:24:55Z</time>
</trkpt>
<trkpt lat="44.9468374" lon="5.3953904">
<ele>925.22</ele>
<time>2019-07-25T10:24:56Z</time>
</trkpt>
<trkpt lat="44.9467891" lon="5.3954142">
<ele>925.22</ele>
<time>2019-07-25T10:24:57Z</time>
</trkpt>
<trkpt lat="44.9467409" lon="5.3954326">
<ele>925.22</ele>
<time>2019-07-25T10:24:58Z</time>
</trkpt>
<trkpt lat="44.9467044" lon="5.3954354">
<ele>925.22</ele>
<time>2019-07-25T10:24:59Z</time>
</trkpt>
<trkpt lat="44.9466737" lon="5.3954291">
<ele>925.21</ele>
<time>2019-07-25T10:25:00Z</time>
</trkpt>
<trkpt lat="44.9466443" lon="5.3954204">
<ele>925.20</ele>
<time>2019-07-25T10:25:01Z</time>
</trkpt>
<trkpt lat="44.9466126" lon="5.3954109">
<ele>925.19</ele>
<time>2019-07-25T10:25:02Z</time>
</trkpt>
<trkpt lat="44.9465785" lon="5.3953973">
<ele>925.18</ele>
<time>2019-07-25T10:25:03Z</time>
</trkpt>
<trkpt lat="44.9465418" lon="5.3953768">
<ele>925.17</ele>
<time>2019-07-25T10:25:04Z</time>
</trkpt>
<trkpt lat="44.9465062" lon="5.3953503">
<ele>925.16</ele>
<time>2019-07-25T10:25:05Z</time>
</trkpt>
<trkpt lat="44.9464718" lon="5.3953277">
<ele>925.15</ele>
<time>2019-07-25T10:25:06Z</time>
</trkpt>
<trkpt lat="44.9464344" lon="5.3953021">
<ele>925.14</ele>
<time>2019-07-25T10:25:07Z</time>
</trkpt>
<trkpt lat="44.9463997" lon="5.3952786">
<ele>925.01</ele>
<time>2019-07-25T10:25:08Z</time>
</trkpt>
<trkpt lat="44.9463602" lon="5.3952493">
<ele>924.86</ele>
<time>2019-07-25T10:25:09Z</time>
</trkpt>
<trkpt lat="44.9463216" lon="5.3952178">
<ele>924.72</ele>
<time>2019-07-25T10:25:10Z</time>
</trkpt>
<trkpt lat="44.9462844" lon="5.3951826">
<ele>924.60</ele>
<time>2019-07-25T10:25:11Z</time>
</trkpt>
<trkpt lat="44.9462484" lon="5.3951421">
<ele>924.50</ele>
<time>2019-07-25T10:25:12Z</time>
</trkpt>
<trkpt lat="44.9462024" lon="5.3951119">
<ele>924.40</ele>
<time>2019-07-25T10:25:13Z</time>
</trkpt>
<trkpt lat="44.9461737" lon="5.3950554">
<ele>924.31</ele>
<time>2019-07-25T10:25:14Z</time>
</trkpt>
<trkpt lat="44.9461352" lon="5.3950056">
<ele>924.28</ele>
<time>2019-07-25T10:25:15Z</time>
</trkpt>
<trkpt lat="44.9460970" lon="5.3949616">
<ele>924.30</ele>
<time>2019-07-25T10:25:16Z</time>
</trkpt>
<trkpt lat="44.9460538" lon="5.3949134">
<ele>924.32</ele>
<time>2019-07-25T10:25:17Z</time>
</trkpt>
<trkpt lat="44.9460192" lon="5.3948461">
<ele>924.36</ele>
<time>2019-07-25T10:25:18Z</time>
</trkpt>
<trkpt lat="44.9459904" lon="5.3948124">
<ele>924.36</ele>
<time>2019-07-25T10:25:19Z</time>
</trkpt>
<trkpt lat="44.9459687" lon="5.3947912">
<ele>924.37</ele>
<time>2019-07-25T10:25:20Z</time>
</trkpt>
<trkpt lat="44.9459520" lon="5.3947458">
<ele>924.37</ele>
<time>2019-07-25T10:25:21Z</time>
</trkpt>
<trkpt lat="44.9459409" lon="5.3946764">
<ele>924.38</ele>
<time>2019-07-25T10:25:22Z</time>
</trkpt>
<trkpt lat="44.9459286" lon="5.3946272">
<ele>924.39</ele>
<time>2019-07-25T10:25:23Z</time>
</trkpt>
<trkpt lat="44.9459057" lon="5.3945866">
<ele>924.40</ele>
<time>2019-07-25T10:25:24Z</time>
</trkpt>
<trkpt lat="44.9458780" lon="5.3945683">
<ele>924.41</ele>
<time>2019-07-25T10:25:25Z</time>
</trkpt>
<trkpt lat="44.9458455" lon="5.3945661">
<ele>924.41</ele>
<time>2019-07-25T10:25:26Z</time>
</trkpt>
<trkpt lat="44.9458174" lon="5.3945250">
<ele>924.40</ele>
<time>2019-07-25T10:25:27Z</time>
</trkpt>
<trkpt lat="44.9457957" lon="5.3945202">
<ele>924.40</ele>
<time>2019-07-25T10:25:28Z</time>
</trkpt>
<trkpt lat="44.9457686" lon="5.3945030">
<ele>924.39</ele>
<time>2019-07-25T10:25:29Z</time>
</trkpt>
<trkpt lat="44.9457443" lon="5.3944631">
<ele>924.39</ele>
<time>2019-07-25T10:25:30Z</time>
</trkpt>
<trkpt lat="44.9457293" lon="5.3944292">
<ele>924.39</ele>
<time>2019-07-25T10:25:31Z</time>
</trkpt>
<trkpt lat="44.9457145" lon="5.3943928">
<ele>924.39</ele>
<time>2019-07-25T10:25:32Z</time>
</trkpt>
<trkpt lat="44.9457006" lon="5.3943493">
<ele>924.40</ele>
<time>2019-07-25T10:25:33Z</time>
</trkpt>
<trkpt lat="44.9456583" lon="5.3943421">
<ele>924.41</ele>
<time>2019-07-25T10:25:34Z</time>
</trkpt>
<trkpt lat="44.9456519" lon="5.3943214">
<ele>924.42</ele>
<time>2019-07-25T10:25:35Z</time>
</trkpt>
<trkpt lat="44.9456291" lon="5.3942999">
<ele>924.43</ele>
<time>2019-07-25T10:25:36Z</time>
</trkpt>
<trkpt lat="44.9456067" lon="5.3942888">
<ele>924.44</ele>
<time>2019-07-25T10:25:37Z</time>
</trkpt>
<trkpt lat="44.9455839" lon="5.3942888">
<ele>924.46</ele>
<time>2019-07-25T10:25:38Z</time>
</trkpt>
<trkpt lat="44.9455312" lon="5.3942720">
<ele>924.46</ele>
<time>2019-07-25T10:25:39Z</time>
</trkpt>
<trkpt lat="44.9455018" lon="5.3942511">
<ele>924.46</ele>
<time>2019-07-25T10:25:40Z</time>
</trkpt>
<trkpt lat="44.9454772" lon="5.3942481">
<ele>924.46</ele>
<time>2019-07-25T10:25:41Z</time>
</trkpt>
<trkpt lat="44.9454394" lon="5.3942305">
<ele>924.46</ele>
<time>2019-07-25T10:25:42Z</time>
</trkpt>
<trkpt lat="44.9454365" lon="5.3942043">
<ele>924.45</ele>
<time>2019-07-25T10:25:43Z</time>
</trkpt>
<trkpt lat="44.9454216" lon="5.3941513">
<ele>924.46</ele>
<time>2019-07-25T10:25:44Z</time>
</trkpt>
<trkpt lat="44.9453982" lon="5.3941089">
<ele>924.46</ele>
<time>2019-07-25T10:25:45Z</time>
</trkpt>
<trkpt lat="44.9453866" lon="5.3940605">
<ele>924.47</ele>
<time>2019-07-25T10:25:46Z</time>
</trkpt>
<trkpt lat="44.9453283" lon="5.3940288">
<ele>924.47</ele>
<time>2019-07-25T10:25:47Z</time>
</trkpt>
<trkpt lat="44.9453155" lon="5.3940540">
<ele>924.47</ele>
<time>2019-07-25T10:25:48Z</time>
</trkpt>
<trkpt lat="44.9453000" lon="5.3940350">
<ele>924.47</ele>
<time>2019-07-25T10:25:49Z</time>
</trkpt>
<trkpt lat="44.9452856" lon="5.3940367">
<ele>924.47</ele>
<time>2019-07-25T10:25:50Z</time>
</trkpt>
<trkpt lat="44.9452926" lon="5.3940057">
<ele>924.47</ele>
<time>2019-07-25T10:25:51Z</time>
</trkpt>
<trkpt lat="44.9452832" lon="5.3940214">
<ele>924.47</ele>
<time>2019-07-25T10:25:52Z</time>
</trkpt>
<trkpt lat="44.9453118" lon="5.3940116">
<ele>924.47</ele>
<time>2019-07-25T10:25:53Z</time>
</trkpt>
<trkpt lat="44.9453310" lon="5.3940107">
<ele>924.47</ele>
<time>2019-07-25T10:25:54Z</time>
</trkpt>
<trkpt lat="44.9453316" lon="5.3940102">
<ele>924.48</ele>
<time>2019-07-25T10:25:55Z</time>
</trkpt>
<trkpt lat="44.9453321" lon="5.3940085">
<ele>924.48</ele>
<time>2019-07-25T10:25:56Z</time>
</trkpt>
<trkpt lat="44.9453303" lon="5.3940038">
<ele>924.48</ele>
<time>2019-07-25T10:25:57Z</time>
</trkpt>
<trkpt lat="44.9453308" lon="5.3940016">
<ele>924.51</ele>
<time>2019-07-25T10:25:58Z</time>
</trkpt>
<trkpt lat="44.9453170" lon="5.3939809">
<ele>924.54</ele>
<time>2019-07-25T10:25:59Z</time>
</trkpt>
<trkpt lat="44.9452979" lon="5.3939574">
<ele>924.57</ele>
<time>2019-07-25T10:26:00Z</time>
</trkpt>
<trkpt lat="44.9452713" lon="5.3939365">
<ele>924.61</ele>
<time>2019-07-25T10:26:01Z</time>
</trkpt>
<trkpt lat="44.9452330" lon="5.3939165">
<ele>924.64</ele>
<time>2019-07-25T10:26:02Z</time>
</trkpt>
<trkpt lat="44.9452102" lon="5.3939114">
<ele>924.68</ele>
<time>2019-07-25T10:26:03Z</time>
</trkpt>
<trkpt lat="44.9451918" lon="5.3939053">
<ele>924.72</ele>
<time>2019-07-25T10:26:04Z</time>
</trkpt>
<trkpt lat="44.9451630" lon="5.3938796">
<ele>924.76</ele>
<time>2019-07-25T10:26:05Z</time>
</trkpt>
<trkpt lat="44.9451304" lon="5.3938534">
<ele>924.80</ele>
<time>2019-07-25T10:26:06Z</time>
</trkpt>
<trkpt lat="44.9451031" lon="5.3938236">
<ele>924.84</ele>
<time>2019-07-25T10:26:07Z</time>
</trkpt>
<trkpt lat="44.9450930" lon="5.3938202">
<ele>924.89</ele>
<time>2019-07-25T10:26:08Z</time>
</trkpt>
<trkpt lat="44.9450807" lon="5.3938176">
<ele>924.93</ele>
<time>2019-07-25T10:26:09Z</time>
</trkpt>
<trkpt lat="44.9450759" lon="5.3938045">
<ele>924.97</ele>
<time>2019-07-25T10:26:10Z</time>
</trkpt>
<trkpt lat="44.9450689" lon="5.3938290">
<ele>925.01</ele>
<time>2019-07-25T10:26:11Z</time>
</trkpt>
<trkpt lat="44.9450494" lon="5.3938221">
<ele>925.04</ele>
<time>2019-07-25T10:26:12Z</time>
</trkpt>
<trkpt lat="44.9450313" lon="5.3938026">
<ele>925.07</ele>
<time>2019-07-25T10:26:13Z</time>
</trkpt>
<trkpt lat="44.9450312" lon="5.3938062">
<ele>925.10</ele>
<time>2019-07-25T10:26:14Z</time>
</trkpt>
<trkpt lat="44.9450299" lon="5.3938106">
<ele>925.11</ele>
<time>2019-07-25T10:26:15Z</time>
</trkpt>
<trkpt lat="44.9450210" lon="5.3938051">
<ele>925.11</ele>
<time>2019-07-25T10:26:16Z</time>
</trkpt>
<trkpt lat="44.9450170" lon="5.3938059">
<ele>925.14</ele>
<time>2019-07-25T10:26:17Z</time>
</trkpt>
<trkpt lat="44.9450084" lon="5.3938030">
<ele>925.15</ele>
<time>2019-07-25T10:26:18Z</time>
</trkpt>
<trkpt lat="44.9450078" lon="5.3937975">
<ele>925.15</ele>
<time>2019-07-25T10:26:19Z</time>
</trkpt>
<trkpt lat="44.9449968" lon="5.3937694">
<ele>925.16</ele>
<time>2019-07-25T10:26:20Z</time>
</trkpt>
<trkpt lat="44.9449988" lon="5.3937621">
<ele>925.17</ele>
<time>2019-07-25T10:26:21Z</time>
</trkpt>
<trkpt lat="44.9449806" lon="5.3937522">
<ele>925.24</ele>
<time>2019-07-25T10:26:22Z</time>
</trkpt>
<trkpt lat="44.9449571" lon="5.3937457">
<ele>925.34</ele>
<time>2019-07-25T10:26:23Z</time>
</trkpt>
<trkpt lat="44.9449677" lon="5.3937377">
<ele>925.35</ele>
<time>2019-07-25T10:26:24Z</time>
</trkpt>
<trkpt lat="44.9449751" lon="5.3937433">
<ele>925.44</ele>
<time>2019-07-25T10:26:25Z</time>
</trkpt>
<trkpt lat="44.9449762" lon="5.3937439">
<ele>925.45</ele>
<time>2019-07-25T10:26:26Z</time>
</trkpt>
<trkpt lat="44.9449755" lon="5.3937438">
<ele>925.46</ele>
<time>2019-07-25T10:26:27Z</time>
</trkpt>
<trkpt lat="44.9449750" lon="5.3937445">
<ele>925.47</ele>
<time>2019-07-25T10:26:28Z</time>
</trkpt>
<trkpt lat="44.9449754" lon="5.3937441">
<ele>925.48</ele>
<time>2019-07-25T10:26:29Z</time>
</trkpt>
<trkpt lat="44.9449762" lon="5.3937437">
<ele>925.49</ele>
<time>2019-07-25T10:26:30Z</time>
</trkpt>
<trkpt lat="44.9449772" lon="5.3937464">
<ele>925.58</ele>
<time>2019-07-25T10:26:31Z</time>
</trkpt>
<trkpt lat="44.9449761" lon="5.3937492">
<ele>925.67</ele>
<time>2019-07-25T10:26:32Z</time>
</trkpt>
<trkpt lat="44.9449679" lon="5.3937351">
<ele>925.75</ele>
<time>2019-07-25T10:26:33Z</time>
</trkpt>
<trkpt lat="44.9449474" lon="5.3937547">
<ele>925.76</ele>
<time>2019-07-25T10:26:34Z</time>
</trkpt>
<trkpt lat="44.9449474" lon="5.3937487">
<ele>925.84</ele>
<time>2019-07-25T10:26:35Z</time>
</trkpt>
<trkpt lat="44.9449479" lon="5.3937327">
<ele>925.91</ele>
<time>2019-07-25T10:26:36Z</time>
</trkpt>
<trkpt lat="44.9449764" lon="5.3937284">
<ele>925.97</ele>
<time>2019-07-25T10:26:37Z</time>
</trkpt>
<trkpt lat="44.9449732" lon="5.3937273">
<ele>925.97</ele>
<time>2019-07-25T10:26:38Z</time>
</trkpt>
<trkpt lat="44.9449731" lon="5.3937268">
<ele>925.98</ele>
<time>2019-07-25T10:26:39Z</time>
</trkpt>
<trkpt lat="44.9449731" lon="5.3937264">
<ele>925.98</ele>
<time>2019-07-25T10:26:40Z</time>
</trkpt>
<trkpt lat="44.9449763" lon="5.3937264">
<ele>925.98</ele>
<time>2019-07-25T10:26:41Z</time>
</trkpt>
<trkpt lat="44.9449784" lon="5.3937268">
<ele>925.99</ele>
<time>2019-07-25T10:26:42Z</time>
</trkpt>
<trkpt lat="44.9449804" lon="5.3937278">
<ele>925.99</ele>
<time>2019-07-25T10:26:43Z</time>
</trkpt>
<trkpt lat="44.9449801" lon="5.3937274">
<ele>925.99</ele>
<time>2019-07-25T10:26:44Z</time>
</trkpt>
<trkpt lat="44.9449791" lon="5.3937270">
<ele>925.99</ele>
<time>2019-07-25T10:26:45Z</time>
</trkpt>
<trkpt lat="44.9449789" lon="5.3937270">
<ele>925.99</ele>
<time>2019-07-25T10:26:46Z</time>
</trkpt>
<trkpt lat="44.9449791" lon="5.3937274">
<ele>925.99</ele>
<time>2019-07-25T10:26:47Z</time>
</trkpt>
<trkpt lat="44.9449788" lon="5.3937273">
<ele>925.99</ele>
<time>2019-07-25T10:26:48Z</time>
</trkpt>
<trkpt lat="44.9449781" lon="5.3937266">
<ele>925.99</ele>
<time>2019-07-25T10:26:49Z</time>
</trkpt>
<trkpt lat="44.9449771" lon="5.3937258">
<ele>925.99</ele>
<time>2019-07-25T10:26:50Z</time>
</trkpt>
<trkpt lat="44.9449769" lon="5.3937254">
<ele>925.99</ele>
<time>2019-07-25T10:26:51Z</time>
</trkpt>
<trkpt lat="44.9449775" lon="5.3937258">
<ele>925.99</ele>
<time>2019-07-25T10:26:52Z</time>
</trkpt>
<trkpt lat="44.9449783" lon="5.3937261">
<ele>925.99</ele>
<time>2019-07-25T10:26:53Z</time>
</trkpt>
<trkpt lat="44.9449796" lon="5.3937273">
<ele>925.99</ele>
<time>2019-07-25T10:26:54Z</time>
</trkpt>
<trkpt lat="44.9449794" lon="5.3937273">
<ele>925.98</ele>
<time>2019-07-25T10:26:55Z</time>
</trkpt>
<trkpt lat="44.9449793" lon="5.3937267">
<ele>925.98</ele>
<time>2019-07-25T10:26:56Z</time>
</trkpt>
<trkpt lat="44.9449785" lon="5.3937262">
<ele>925.98</ele>
<time>2019-07-25T10:26:57Z</time>
</trkpt>
<trkpt lat="44.9449787" lon="5.3937263">
<ele>925.97</ele>
<time>2019-07-25T10:26:58Z</time>
</trkpt>
<trkpt lat="44.9449785" lon="5.3937257">
<ele>925.97</ele>
<time>2019-07-25T10:26:59Z</time>
</trkpt>
<trkpt lat="44.9449822" lon="5.3937245">
<ele>925.97</ele>
<time>2019-07-25T10:27:00Z</time>
</trkpt>
<trkpt lat="44.9449870" lon="5.3937260">
<ele>925.97</ele>
<time>2019-07-25T10:27:01Z</time>
</trkpt>
<trkpt lat="44.9449881" lon="5.3937265">
<ele>925.97</ele>
<time>2019-07-25T10:27:02Z</time>
</trkpt>
<trkpt lat="44.9449922" lon="5.3937313">
<ele>925.97</ele>
<time>2019-07-25T10:27:03Z</time>
</trkpt>
<trkpt lat="44.9449926" lon="5.3937309">
<ele>925.96</ele>
<time>2019-07-25T10:27:04Z</time>
</trkpt>
<trkpt lat="44.9449934" lon="5.3937322">
<ele>925.96</ele>
<time>2019-07-25T10:27:05Z</time>
</trkpt>
<trkpt lat="44.9449934" lon="5.3937320">
<ele>925.96</ele>
<time>2019-07-25T10:27:06Z</time>
</trkpt>
<trkpt lat="44.9449937" lon="5.3937320">
<ele>925.96</ele>
<time>2019-07-25T10:27:07Z</time>
</trkpt>
<trkpt lat="44.9449935" lon="5.3937319">
<ele>925.96</ele>
<time>2019-07-25T10:27:08Z</time>
</trkpt>
<trkpt lat="44.9449915" lon="5.3937305">
<ele>925.95</ele>
<time>2019-07-25T10:27:09Z</time>
</trkpt>
<trkpt lat="44.9449911" lon="5.3937305">
<ele>925.95</ele>
<time>2019-07-25T10:27:10Z</time>
</trkpt>
<trkpt lat="44.9449891" lon="5.3937278">
<ele>925.94</ele>
<time>2019-07-25T10:27:11Z</time>
</trkpt>
<trkpt lat="44.9449885" lon="5.3937269">
<ele>925.94</ele>
<time>2019-07-25T10:27:12Z</time>
</trkpt>
<trkpt lat="44.9449880" lon="5.3937263">
<ele>925.93</ele>
<time>2019-07-25T10:27:13Z</time>
</trkpt>
<trkpt lat="44.9449878" lon="5.3937262">
<ele>925.92</ele>
<time>2019-07-25T10:27:14Z</time>
</trkpt>
<trkpt lat="44.9449882" lon="5.3937272">
<ele>925.90</ele>
<time>2019-07-25T10:27:15Z</time>
</trkpt>
<trkpt lat="44.9449880" lon="5.3937272">
<ele>925.89</ele>
<time>2019-07-25T10:27:16Z</time>
</trkpt>
<trkpt lat="44.9449877" lon="5.3937266">
<ele>925.87</ele>
<time>2019-07-25T10:27:17Z</time>
</trkpt>
<trkpt lat="44.9449873" lon="5.3937262">
<ele>925.85</ele>
<time>2019-07-25T10:27:18Z</time>
</trkpt>
<trkpt lat="44.9449871" lon="5.3937261">
<ele>925.84</ele>
<time>2019-07-25T10:27:19Z</time>
</trkpt>
<trkpt lat="44.9449872" lon="5.3937256">
<ele>925.82</ele>
<time>2019-07-25T10:27:20Z</time>
</trkpt>
<trkpt lat="44.9449869" lon="5.3937254">
<ele>925.80</ele>
<time>2019-07-25T10:27:21Z</time>
</trkpt>
<trkpt lat="44.9449864" lon="5.3937251">
<ele>925.78</ele>
<time>2019-07-25T10:27:22Z</time>
</trkpt>
<trkpt lat="44.9449867" lon="5.3937253">
<ele>925.77</ele>
<time>2019-07-25T10:27:23Z</time>
</trkpt>
<trkpt lat="44.9449866" lon="5.3937251">
<ele>925.75</ele>
<time>2019-07-25T10:27:24Z</time>
</trkpt>
<trkpt lat="44.9449857" lon="5.3937248">
<ele>925.73</ele>
<time>2019-07-25T10:27:25Z</time>
</trkpt>
<trkpt lat="44.9449850" lon="5.3937239">
<ele>925.72</ele>
<time>2019-07-25T10:27:26Z</time>
</trkpt>
<trkpt lat="44.9449856" lon="5.3937233">
<ele>925.70</ele>
<time>2019-07-25T10:27:27Z</time>
</trkpt>
<trkpt lat="44.9449858" lon="5.3937233">
<ele>925.68</ele>
<time>2019-07-25T10:27:28Z</time>
</trkpt>
<trkpt lat="44.9449863" lon="5.3937234">
<ele>925.67</ele>
<time>2019-07-25T10:27:29Z</time>
</trkpt>
<trkpt lat="44.9449855" lon="5.3937232">
<ele>925.65</ele>
<time>2019-07-25T10:27:30Z</time>
</trkpt>
<trkpt lat="44.9449846" lon="5.3937227">
<ele>925.63</ele>
<time>2019-07-25T10:27:31Z</time>
</trkpt>
<trkpt lat="44.9449844" lon="5.3937227">
<ele>925.61</ele>
<time>2019-07-25T10:27:32Z</time>
</trkpt>
<trkpt lat="44.9449838" lon="5.3937219">
<ele>925.60</ele>
<time>2019-07-25T10:27:33Z</time>
</trkpt>
<trkpt lat="44.9449836" lon="5.3937216">
<ele>925.58</ele>
<time>2019-07-25T10:27:34Z</time>
</trkpt>
<trkpt lat="44.9449835" lon="5.3937218">
<ele>925.56</ele>
<time>2019-07-25T10:27:35Z</time>
</trkpt>
<trkpt lat="44.9449829" lon="5.3937217">
<ele>925.55</ele>
<time>2019-07-25T10:27:36Z</time>
</trkpt>
<trkpt lat="44.9449829" lon="5.3937216">
<ele>925.53</ele>
<time>2019-07-25T10:27:37Z</time>
</trkpt>
<trkpt lat="44.9449830" lon="5.3937210">
<ele>925.51</ele>
<time>2019-07-25T10:27:38Z</time>
</trkpt>
<trkpt lat="44.9449831" lon="5.3937210">
<ele>925.50</ele>
<time>2019-07-25T10:27:39Z</time>
</trkpt>
<trkpt lat="44.9449830" lon="5.3937212">
<ele>925.48</ele>
<time>2019-07-25T10:27:40Z</time>
</trkpt>
<trkpt lat="44.9449826" lon="5.3937212">
<ele>925.47</ele>
<time>2019-07-25T10:27:41Z</time>
</trkpt>
<trkpt lat="44.9449822" lon="5.3937208">
<ele>925.45</ele>
<time>2019-07-25T10:27:42Z</time>
</trkpt>
<trkpt lat="44.9449825" lon="5.3937203">
<ele>925.44</ele>
<time>2019-07-25T10:27:43Z</time>
</trkpt>
<trkpt lat="44.9449816" lon="5.3937202">
<ele>925.43</ele>
<time>2019-07-25T10:27:44Z</time>
</trkpt>
<trkpt lat="44.9449816" lon="5.3937198">
<ele>925.41</ele>
<time>2019-07-25T10:27:45Z</time>
</trkpt>
<trkpt lat="44.9449816" lon="5.3937192">
<ele>925.40</ele>
<time>2019-07-25T10:27:46Z</time>
</trkpt>
<trkpt lat="44.9449819" lon="5.3937191">
<ele>925.39</ele>
<time>2019-07-25T10:27:47Z</time>
</trkpt>
<trkpt lat="44.9449822" lon="5.3937188">
<ele>925.38</ele>
<time>2019-07-25T10:27:48Z</time>
</trkpt>
<trkpt lat="44.9449828" lon="5.3937192">
<ele>925.36</ele>
<time>2019-07-25T10:27:49Z</time>
</trkpt>
<trkpt lat="44.9449824" lon="5.3937192">
<ele>925.35</ele>
<time>2019-07-25T10:27:50Z</time>
</trkpt>
<trkpt lat="44.9449822" lon="5.3937193">
<ele>925.34</ele>
<time>2019-07-25T10:27:51Z</time>
</trkpt>
<trkpt lat="44.9449817" lon="5.3937192">
<ele>925.32</ele>
<time>2019-07-25T10:27:52Z</time>
</trkpt>
<trkpt lat="44.9449804" lon="5.3937189">
<ele>925.31</ele>
<time>2019-07-25T10:27:53Z</time>
</trkpt>
<trkpt lat="44.9449794" lon="5.3937178">
<ele>925.29</ele>
<time>2019-07-25T10:27:54Z</time>
</trkpt>
<trkpt lat="44.9449800" lon="5.3937175">
<ele>925.28</ele>
<time>2019-07-25T10:27:55Z</time>
</trkpt>
<trkpt lat="44.9449804" lon="5.3937184">
<ele>925.27</ele>
<time>2019-07-25T10:27:56Z</time>
</trkpt>
<trkpt lat="44.9449790" lon="5.3937183">
<ele>925.25</ele>
<time>2019-07-25T10:27:57Z</time>
</trkpt>
<trkpt lat="44.9449749" lon="5.3937186">
<ele>925.24</ele>
<time>2019-07-25T10:27:58Z</time>
</trkpt>
<trkpt lat="44.9449723" lon="5.3937186">
<ele>925.23</ele>
<time>2019-07-25T10:27:59Z</time>
</trkpt>
<trkpt lat="44.9449715" lon="5.3937181">
<ele>925.22</ele>
<time>2019-07-25T10:28:00Z</time>
</trkpt>
<trkpt lat="44.9449717" lon="5.3937180">
<ele>925.20</ele>
<time>2019-07-25T10:28:01Z</time>
</trkpt>
<trkpt lat="44.9449721" lon="5.3937177">
<ele>925.19</ele>
<time>2019-07-25T10:28:02Z</time>
</trkpt>
<trkpt lat="44.9449723" lon="5.3937172">
<ele>925.18</ele>
<time>2019-07-25T10:28:03Z</time>
</trkpt>
<trkpt lat="44.9449722" lon="5.3937167">
<ele>925.17</ele>
<time>2019-07-25T10:28:04Z</time>
</trkpt>
<trkpt lat="44.9449721" lon="5.3937162">
<ele>925.16</ele>
<time>2019-07-25T10:28:05Z</time>
</trkpt>
<trkpt lat="44.9449722" lon="5.3937158">
<ele>925.15</ele>
<time>2019-07-25T10:28:06Z</time>
</trkpt>
<trkpt lat="44.9449722" lon="5.3937154">
<ele>925.14</ele>
<time>2019-07-25T10:28:07Z</time>
</trkpt>
<trkpt lat="44.9449717" lon="5.3937148">
<ele>925.13</ele>
<time>2019-07-25T10:28:08Z</time>
</trkpt>
<trkpt lat="44.9449716" lon="5.3937141">
<ele>925.12</ele>
<time>2019-07-25T10:28:09Z</time>
</trkpt>
<trkpt lat="44.9449712" lon="5.3937138">
<ele>925.11</ele>
<time>2019-07-25T10:28:10Z</time>
</trkpt>
<trkpt lat="44.9449710" lon="5.3937137">
<ele>925.10</ele>
<time>2019-07-25T10:28:11Z</time>
</trkpt>
<trkpt lat="44.9449707" lon="5.3937135">
<ele>925.09</ele>
<time>2019-07-25T10:28:12Z</time>
</trkpt>
<trkpt lat="44.9449706" lon="5.3937133">
<ele>925.09</ele>
<time>2019-07-25T10:28:13Z</time>
</trkpt>
<trkpt lat="44.9449705" lon="5.3937133">
<ele>925.08</ele>
<time>2019-07-25T10:28:14Z</time>
</trkpt>
<trkpt lat="44.9449700" lon="5.3937130">
<ele>925.07</ele>
<time>2019-07-25T10:28:15Z</time>
</trkpt>
<trkpt lat="44.9449694" lon="5.3937128">
<ele>925.06</ele>
<time>2019-07-25T10:28:16Z</time>
</trkpt>
<trkpt lat="44.9449687" lon="5.3937122">
<ele>925.06</ele>
<time>2019-07-25T10:28:17Z</time>
</trkpt>
<trkpt lat="44.9449685" lon="5.3937116">
<ele>925.05</ele>
<time>2019-07-25T10:28:18Z</time>
</trkpt>
<trkpt lat="44.9449686" lon="5.3937113">
<ele>925.04</ele>
<time>2019-07-25T10:28:19Z</time>
</trkpt>
<trkpt lat="44.9449685" lon="5.3937111">
<ele>925.03</ele>
<time>2019-07-25T10:28:20Z</time>
</trkpt>
<trkpt lat="44.9449695" lon="5.3937111">
<ele>925.02</ele>
<time>2019-07-25T10:28:21Z</time>
</trkpt>
<trkpt lat="44.9449698" lon="5.3937109">
<ele>925.01</ele>
<time>2019-07-25T10:28:22Z</time>
</trkpt>
<trkpt lat="44.9449710" lon="5.3937108">
<ele>925.00</ele>
<time>2019-07-25T10:28:23Z</time>
</trkpt>
<trkpt lat="44.9449716" lon="5.3937115">
<ele>925.00</ele>
<time>2019-07-25T10:28:24Z</time>
</trkpt>
<trkpt lat="44.9449715" lon="5.3937106">
<ele>924.99</ele>
<time>2019-07-25T10:28:25Z</time>
</trkpt>
<trkpt lat="44.9449712" lon="5.3937104">
<ele>924.98</ele>
<time>2019-07-25T10:28:26Z</time>
</trkpt>
<trkpt lat="44.9449711" lon="5.3937103">
<ele>924.97</ele>
<time>2019-07-25T10:28:27Z</time>
</trkpt>
<trkpt lat="44.9449715" lon="5.3937109">
<ele>924.96</ele>
<time>2019-07-25T10:28:28Z</time>
</trkpt>
<trkpt lat="44.9449725" lon="5.3937111">
<ele>924.95</ele>
<time>2019-07-25T10:28:29Z</time>
</trkpt>
<trkpt lat="44.9449725" lon="5.3937108">
<ele>924.94</ele>
<time>2019-07-25T10:28:30Z</time>
</trkpt>
<trkpt lat="44.9449722" lon="5.3937107">
<ele>924.94</ele>
<time>2019-07-25T10:28:31Z</time>
</trkpt>
<trkpt lat="44.9449731" lon="5.3937107">
<ele>924.93</ele>
<time>2019-07-25T10:28:32Z</time>
</trkpt>
<trkpt lat="44.9449737" lon="5.3937109">
<ele>924.92</ele>
<time>2019-07-25T10:28:33Z</time>
</trkpt>
<trkpt lat="44.9449735" lon="5.3937106">
<ele>924.91</ele>
<time>2019-07-25T10:28:34Z</time>
</trkpt>
<trkpt lat="44.9449730" lon="5.3937101">
<ele>924.91</ele>
<time>2019-07-25T10:28:35Z</time>
</trkpt>
<trkpt lat="44.9449734" lon="5.3937095">
<ele>924.90</ele>
<time>2019-07-25T10:28:36Z</time>
</trkpt>
<trkpt lat="44.9449736" lon="5.3937092">
<ele>924.89</ele>
<time>2019-07-25T10:28:37Z</time>
</trkpt>
<trkpt lat="44.9449743" lon="5.3937090">
<ele>924.88</ele>
<time>2019-07-25T10:28:38Z</time>
</trkpt>
<trkpt lat="44.9449931" lon="5.3936942">
<ele>924.88</ele>
<time>2019-07-25T10:28:39Z</time>
</trkpt>
<trkpt lat="44.9449954" lon="5.3936951">
<ele>924.79</ele>
<time>2019-07-25T10:28:40Z</time>
</trkpt>
<trkpt lat="44.9449937" lon="5.3936457">
<ele>924.70</ele>
<time>2019-07-25T10:28:41Z</time>
</trkpt>
<trkpt lat="44.9449946" lon="5.3936440">
<ele>924.69</ele>
<time>2019-07-25T10:28:42Z</time>
</trkpt>
<trkpt lat="44.9449922" lon="5.3936384">
<ele>924.69</ele>
<time>2019-07-25T10:28:43Z</time>
</trkpt>
<trkpt lat="44.9449592" lon="5.3936332">
<ele>924.68</ele>
<time>2019-07-25T10:28:44Z</time>
</trkpt>
<trkpt lat="44.9449455" lon="5.3935351">
<ele>924.63</ele>
<time>2019-07-25T10:28:45Z</time>
</trkpt>
<trkpt lat="44.9449241" lon="5.3935407">
<ele>924.62</ele>
<time>2019-07-25T10:28:46Z</time>
</trkpt>
<trkpt lat="44.9448891" lon="5.3935833">
<ele>924.58</ele>
<time>2019-07-25T10:28:47Z</time>
</trkpt>
<trkpt lat="44.9449075" lon="5.3935344">
<ele>924.57</ele>
<time>2019-07-25T10:28:48Z</time>
</trkpt>
<trkpt lat="44.9449100" lon="5.3935320">
<ele>924.57</ele>
<time>2019-07-25T10:28:49Z</time>
</trkpt>
<trkpt lat="44.9449191" lon="5.3935316">
<ele>924.56</ele>
<time>2019-07-25T10:28:50Z</time>
</trkpt>
<trkpt lat="44.9449199" lon="5.3935315">
<ele>924.56</ele>
<time>2019-07-25T10:28:51Z</time>
</trkpt>
<trkpt lat="44.9449830" lon="5.3935460">
<ele>924.52</ele>
<time>2019-07-25T10:28:52Z</time>
</trkpt>
<trkpt lat="44.9450476" lon="5.3936263">
<ele>924.48</ele>
<time>2019-07-25T10:28:53Z</time>
</trkpt>
<trkpt lat="44.9450854" lon="5.3936092">
<ele>924.46</ele>
<time>2019-07-25T10:28:54Z</time>
</trkpt>
<trkpt lat="44.9450845" lon="5.3936089">
<ele>924.46</ele>
<time>2019-07-25T10:28:55Z</time>
</trkpt>
<trkpt lat="44.9450848" lon="5.3936092">
<ele>924.46</ele>
<time>2019-07-25T10:28:56Z</time>
</trkpt>
<trkpt lat="44.9450847" lon="5.3936096">
<ele>924.46</ele>
<time>2019-07-25T10:28:57Z</time>
</trkpt>
<trkpt lat="44.9450845" lon="5.3936102">
<ele>924.46</ele>
<time>2019-07-25T10:28:58Z</time>
</trkpt>
<trkpt lat="44.9450844" lon="5.3936104">
<ele>924.46</ele>
<time>2019-07-25T10:28:59Z</time>
</trkpt>
<trkpt lat="44.9450846" lon="5.3936104">
<ele>924.45</ele>
<time>2019-07-25T10:29:00Z</time>
</trkpt>
<trkpt lat="44.9450850" lon="5.3936102">
<ele>924.45</ele>
<time>2019-07-25T10:29:01Z</time>
</trkpt>
<trkpt lat="44.9450851" lon="5.3936100">
<ele>924.45</ele>
<time>2019-07-25T10:29:02Z</time>
</trkpt>
<trkpt lat="44.9450847" lon="5.3936099">
<ele>924.45</ele>
<time>2019-07-25T10:29:03Z</time>
</trkpt>
<trkpt lat="44.9450844" lon="5.3936095">
<ele>924.45</ele>
<time>2019-07-25T10:29:04Z</time>
</trkpt>
<trkpt lat="44.9450843" lon="5.3936087">
<ele>924.45</ele>
<time>2019-07-25T10:29:05Z</time>
</trkpt>
<trkpt lat="44.9450841" lon="5.3936082">
<ele>924.45</ele>
<time>2019-07-25T10:29:06Z</time>
</trkpt>
<trkpt lat="44.9450839" lon="5.3936085">
<ele>924.46</ele>
<time>2019-07-25T10:29:07Z</time>
</trkpt>
<trkpt lat="44.9450837" lon="5.3936089">
<ele>924.46</ele>
<time>2019-07-25T10:29:08Z</time>
</trkpt>
<trkpt lat="44.9450835" lon="5.3936089">
<ele>924.47</ele>
<time>2019-07-25T10:29:09Z</time>
</trkpt>
<trkpt lat="44.9450835" lon="5.3936086">
<ele>924.47</ele>
<time>2019-07-25T10:29:10Z</time>
</trkpt>
<trkpt lat="44.9450843" lon="5.3936083">
<ele>924.48</ele>
<time>2019-07-25T10:29:11Z</time>
</trkpt>
<trkpt lat="44.9450845" lon="5.3936082">
<ele>924.49</ele>
<time>2019-07-25T10:29:12Z</time>
</trkpt>
<trkpt lat="44.9450838" lon="5.3936077">
<ele>924.50</ele>
<time>2019-07-25T10:29:13Z</time>
</trkpt>
<trkpt lat="44.9450832" lon="5.3936073">
<ele>924.51</ele>
<time>2019-07-25T10:29:14Z</time>
</trkpt>
<trkpt lat="44.9450822" lon="5.3936067">
<ele>924.52</ele>
<time>2019-07-25T10:29:15Z</time>
</trkpt>
<trkpt lat="44.9450827" lon="5.3936069">
<ele>924.53</ele>
<time>2019-07-25T10:29:16Z</time>
</trkpt>
<trkpt lat="44.9450833" lon="5.3936071">
<ele>924.54</ele>
<time>2019-07-25T10:29:17Z</time>
</trkpt>
<trkpt lat="44.9450834" lon="5.3936068">
<ele>924.56</ele>
<time>2019-07-25T10:29:18Z</time>
</trkpt>
<trkpt lat="44.9450834" lon="5.3936066">
<ele>924.58</ele>
<time>2019-07-25T10:29:19Z</time>
</trkpt>
<trkpt lat="44.9450833" lon="5.3936066">
<ele>924.59</ele>
<time>2019-07-25T10:29:20Z</time>
</trkpt>
<trkpt lat="44.9450835" lon="5.3936064">
<ele>924.61</ele>
<time>2019-07-25T10:29:21Z</time>
</trkpt>
<trkpt lat="44.9450834" lon="5.3936065">
<ele>924.63</ele>
<time>2019-07-25T10:29:22Z</time>
</trkpt>
<trkpt lat="44.9450828" lon="5.3936063">
<ele>924.65</ele>
<time>2019-07-25T10:29:23Z</time>
</trkpt>
<trkpt lat="44.9450831" lon="5.3936064">
<ele>924.66</ele>
<time>2019-07-25T10:29:24Z</time>
</trkpt>
<trkpt lat="44.9450835" lon="5.3936065">
<ele>924.69</ele>
<time>2019-07-25T10:29:25Z</time>
</trkpt>
<trkpt lat="44.9450832" lon="5.3936063">
<ele>924.71</ele>
<time>2019-07-25T10:29:26Z</time>
</trkpt>
<trkpt lat="44.9450826" lon="5.3936057">
<ele>924.73</ele>
<time>2019-07-25T10:29:27Z</time>
</trkpt>
<trkpt lat="44.9450823" lon="5.3936054">
<ele>924.75</ele>
<time>2019-07-25T10:29:28Z</time>
</trkpt>
<trkpt lat="44.9450822" lon="5.3936054">
<ele>924.78</ele>
<time>2019-07-25T10:29:29Z</time>
</trkpt>
<trkpt lat="44.9450820" lon="5.3936052">
<ele>924.80</ele>
<time>2019-07-25T10:29:30Z</time>
</trkpt>
<trkpt lat="44.9450817" lon="5.3936054">
<ele>924.82</ele>
<time>2019-07-25T10:29:31Z</time>
</trkpt>
<trkpt lat="44.9450810" lon="5.3936052">
<ele>924.85</ele>
<time>2019-07-25T10:29:32Z</time>
</trkpt>
<trkpt lat="44.9450809" lon="5.3936048">
<ele>924.87</ele>
<time>2019-07-25T10:29:33Z</time>
</trkpt>
<trkpt lat="44.9450801" lon="5.3936055">
<ele>924.90</ele>
<time>2019-07-25T10:29:34Z</time>
</trkpt>
<trkpt lat="44.9450783" lon="5.3936022">
<ele>924.92</ele>
<time>2019-07-25T10:29:35Z</time>
</trkpt>
<trkpt lat="44.9450750" lon="5.3936027">
<ele>924.95</ele>
<time>2019-07-25T10:29:36Z</time>
</trkpt>
<trkpt lat="44.9450705" lon="5.3936027">
<ele>924.97</ele>
<time>2019-07-25T10:29:37Z</time>
</trkpt>
<trkpt lat="44.9450665" lon="5.3936074">
<ele>925.25</ele>
<time>2019-07-25T10:29:38Z</time>
</trkpt>
<trkpt lat="44.9450611" lon="5.3936117">
<ele>925.27</ele>
<time>2019-07-25T10:29:39Z</time>
</trkpt>
<trkpt lat="44.9450559" lon="5.3936079">
<ele>925.30</ele>
<time>2019-07-25T10:29:40Z</time>
</trkpt>
<trkpt lat="44.9450491" lon="5.3936121">
<ele>925.57</ele>
<time>2019-07-25T10:29:41Z</time>
</trkpt>
<trkpt lat="44.9450421" lon="5.3936164">
<ele>925.83</ele>
<time>2019-07-25T10:29:42Z</time>
</trkpt>
<trkpt lat="44.9450346" lon="5.3936138">
<ele>926.09</ele>
<time>2019-07-25T10:29:43Z</time>
</trkpt>
<trkpt lat="44.9450115" lon="5.3935858">
<ele>926.35</ele>
<time>2019-07-25T10:29:44Z</time>
</trkpt>
<trkpt lat="44.9449696" lon="5.3935599">
<ele>926.61</ele>
<time>2019-07-25T10:29:45Z</time>
</trkpt>
<trkpt lat="44.9449537" lon="5.3935597">
<ele>926.87</ele>
<time>2019-07-25T10:29:46Z</time>
</trkpt>
<trkpt lat="44.9449380" lon="5.3935527">
<ele>927.14</ele>
<time>2019-07-25T10:29:47Z</time>
</trkpt>
<trkpt lat="44.9449127" lon="5.3935265">
<ele>927.40</ele>
<time>2019-07-25T10:29:48Z</time>
</trkpt>
<trkpt lat="44.9448910" lon="5.3935155">
<ele>927.67</ele>
<time>2019-07-25T10:29:49Z</time>
</trkpt>
<trkpt lat="44.9448582" lon="5.3934895">
<ele>927.92</ele>
<time>2019-07-25T10:29:50Z</time>
</trkpt>
<trkpt lat="44.9448264" lon="5.3934719">
<ele>928.18</ele>
<time>2019-07-25T10:29:51Z</time>
</trkpt>
<trkpt lat="44.9448066" lon="5.3934348">
<ele>928.43</ele>
<time>2019-07-25T10:29:52Z</time>
</trkpt>
<trkpt lat="44.9447750" lon="5.3934303">
<ele>928.68</ele>
<time>2019-07-25T10:29:53Z</time>
</trkpt>
<trkpt lat="44.9447501" lon="5.3934192">
<ele>928.92</ele>
<time>2019-07-25T10:29:54Z</time>
</trkpt>
<trkpt lat="44.9447238" lon="5.3934087">
<ele>929.16</ele>
<time>2019-07-25T10:29:55Z</time>
</trkpt>
<trkpt lat="44.9446874" lon="5.3933902">
<ele>929.37</ele>
<time>2019-07-25T10:29:56Z</time>
</trkpt>
<trkpt lat="44.9446665" lon="5.3933660">
<ele>929.57</ele>
<time>2019-07-25T10:29:57Z</time>
</trkpt>
<trkpt lat="44.9446337" lon="5.3933587">
<ele>929.75</ele>
<time>2019-07-25T10:29:58Z</time>
</trkpt>
<trkpt lat="44.9445994" lon="5.3933512">
<ele>929.90</ele>
<time>2019-07-25T10:29:59Z</time>
</trkpt>
<trkpt lat="44.9445626" lon="5.3933351">
<ele>930.03</ele>
<time>2019-07-25T10:30:00Z</time>
</trkpt>
<trkpt lat="44.9445339" lon="5.3933136">
<ele>930.14</ele>
<time>2019-07-25T10:30:01Z</time>
</trkpt>
<trkpt lat="44.9445033" lon="5.3932924">
<ele>930.25</ele>
<time>2019-07-25T10:30:02Z</time>
</trkpt>
<trkpt lat="44.9444783" lon="5.3932783">
<ele>930.34</ele>
<time>2019-07-25T10:30:03Z</time>
</trkpt>
<trkpt lat="44.9444560" lon="5.3932634">
<ele>930.42</ele>
<time>2019-07-25T10:30:04Z</time>
</trkpt>
<trkpt lat="44.9444332" lon="5.3932509">
<ele>930.49</ele>
<time>2019-07-25T10:30:05Z</time>
</trkpt>
<trkpt lat="44.9444142" lon="5.3932400">
<ele>930.54</ele>
<time>2019-07-25T10:30:06Z</time>
</trkpt>
<trkpt lat="44.9443983" lon="5.3932373">
<ele>930.59</ele>
<time>2019-07-25T10:30:07Z</time>
</trkpt>
<trkpt lat="44.9443832" lon="5.3932291">
<ele>930.63</ele>
<time>2019-07-25T10:30:08Z</time>
</trkpt>
<trkpt lat="44.9443695" lon="5.3932104">
<ele>930.67</ele>
<time>2019-07-25T10:30:09Z</time>
</trkpt>
<trkpt lat="44.9443528" lon="5.3931956">
<ele>930.72</ele>
<time>2019-07-25T10:30:10Z</time>
</trkpt>
<trkpt lat="44.9443321" lon="5.3931896">
<ele>930.77</ele>
<time>2019-07-25T10:30:11Z</time>
</trkpt>
<trkpt lat="44.9443184" lon="5.3931869">
<ele>930.82</ele>
<time>2019-07-25T10:30:12Z</time>
</trkpt>
<trkpt lat="44.9442959" lon="5.3931797">
<ele>930.87</ele>
<time>2019-07-25T10:30:13Z</time>
</trkpt>
<trkpt lat="44.9442708" lon="5.3931713">
<ele>930.92</ele>
<time>2019-07-25T10:30:14Z</time>
</trkpt>
<trkpt lat="44.9442441" lon="5.3931602">
<ele>930.97</ele>
<time>2019-07-25T10:30:15Z</time>
</trkpt>
<trkpt lat="44.9442155" lon="5.3931447">
<ele>931.01</ele>
<time>2019-07-25T10:30:16Z</time>
</trkpt>
<trkpt lat="44.9441860" lon="5.3931227">
<ele>931.05</ele>
<time>2019-07-25T10:30:17Z</time>
</trkpt>
<trkpt lat="44.9441616" lon="5.3931080">
<ele>931.09</ele>
<time>2019-07-25T10:30:18Z</time>
</trkpt>
<trkpt lat="44.9441345" lon="5.3930983">
<ele>931.12</ele>
<time>2019-07-25T10:30:19Z</time>
</trkpt>
<trkpt lat="44.9441235" lon="5.3930978">
<ele>931.14</ele>
<time>2019-07-25T10:30:20Z</time>
</trkpt>
<trkpt lat="44.9441066" lon="5.3931003">
<ele>931.17</ele>
<time>2019-07-25T10:30:21Z</time>
</trkpt>
<trkpt lat="44.9440893" lon="5.3931038">
<ele>931.20</ele>
<time>2019-07-25T10:30:22Z</time>
</trkpt>
<trkpt lat="44.9440707" lon="5.3931090">
<ele>931.22</ele>
<time>2019-07-25T10:30:23Z</time>
</trkpt>
<trkpt lat="44.9440512" lon="5.3931097">
<ele>931.25</ele>
<time>2019-07-25T10:30:24Z</time>
</trkpt>
<trkpt lat="44.9440348" lon="5.3931123">
<ele>931.28</ele>
<time>2019-07-25T10:30:25Z</time>
</trkpt>
<trkpt lat="44.9440171" lon="5.3931144">
<ele>931.30</ele>
<time>2019-07-25T10:30:26Z</time>
</trkpt>
<trkpt lat="44.9439999" lon="5.3931127">
<ele>931.34</ele>
<time>2019-07-25T10:30:27Z</time>
</trkpt>
<trkpt lat="44.9439816" lon="5.3931177">
<ele>931.37</ele>
<time>2019-07-25T10:30:28Z</time>
</trkpt>
<trkpt lat="44.9439504" lon="5.3931216">
<ele>931.41</ele>
<time>2019-07-25T10:30:29Z</time>
</trkpt>
<trkpt lat="44.9439354" lon="5.3931212">
<ele>931.44</ele>
<time>2019-07-25T10:30:30Z</time>
</trkpt>
<trkpt lat="44.9439205" lon="5.3931145">
<ele>931.48</ele>
<time>2019-07-25T10:30:31Z</time>
</trkpt>
<trkpt lat="44.9439078" lon="5.3931073">
<ele>931.51</ele>
<time>2019-07-25T10:30:32Z</time>
</trkpt>
<trkpt lat="44.9438866" lon="5.3931064">
<ele>931.56</ele>
<time>2019-07-25T10:30:33Z</time>
</trkpt>
<trkpt lat="44.9438644" lon="5.3931030">
<ele>931.60</ele>
<time>2019-07-25T10:30:34Z</time>
</trkpt>
<trkpt lat="44.9438420" lon="5.3930982">
<ele>931.65</ele>
<time>2019-07-25T10:30:35Z</time>
</trkpt>
<trkpt lat="44.9438168" lon="5.3930952">
<ele>931.69</ele>
<time>2019-07-25T10:30:36Z</time>
</trkpt>
<trkpt lat="44.9437898" lon="5.3931017">
<ele>931.73</ele>
<time>2019-07-25T10:30:37Z</time>
</trkpt>
<trkpt lat="44.9437735" lon="5.3930971">
<ele>931.77</ele>
<time>2019-07-25T10:30:38Z</time>
</trkpt>
<trkpt lat="44.9437598" lon="5.3930961">
<ele>931.81</ele>
<time>2019-07-25T10:30:39Z</time>
</trkpt>
<trkpt lat="44.9437370" lon="5.3930980">
<ele>931.85</ele>
<time>2019-07-25T10:30:40Z</time>
</trkpt>
<trkpt lat="44.9437141" lon="5.3931017">
<ele>931.89</ele>
<time>2019-07-25T10:30:41Z</time>
</trkpt>
<trkpt lat="44.9436837" lon="5.3931057">
<ele>931.94</ele>
<time>2019-07-25T10:30:42Z</time>
</trkpt>
<trkpt lat="44.9436624" lon="5.3931025">
<ele>931.98</ele>
<time>2019-07-25T10:30:43Z</time>
</trkpt>
<trkpt lat="44.9436305" lon="5.3930910">
<ele>932.03</ele>
<time>2019-07-25T10:30:44Z</time>
</trkpt>
<trkpt lat="44.9436053" lon="5.3931035">
<ele>932.08</ele>
<time>2019-07-25T10:30:45Z</time>
</trkpt>
<trkpt lat="44.9435805" lon="5.3930983">
<ele>932.13</ele>
<time>2019-07-25T10:30:46Z</time>
</trkpt>
<trkpt lat="44.9435577" lon="5.3931103">
<ele>932.18</ele>
<time>2019-07-25T10:30:47Z</time>
</trkpt>
<trkpt lat="44.9435356" lon="5.3931191">
<ele>932.23</ele>
<time>2019-07-25T10:30:48Z</time>
</trkpt>
<trkpt lat="44.9435066" lon="5.3931321">
<ele>932.28</ele>
<time>2019-07-25T10:30:49Z</time>
</trkpt>
<trkpt lat="44.9434613" lon="5.3931349">
<ele>932.33</ele>
<time>2019-07-25T10:30:50Z</time>
</trkpt>
<trkpt lat="44.9434298" lon="5.3931375">
<ele>932.36</ele>
<time>2019-07-25T10:30:51Z</time>
</trkpt>
<trkpt lat="44.9433832" lon="5.3931457">
<ele>932.39</ele>
<time>2019-07-25T10:30:52Z</time>
</trkpt>
<trkpt lat="44.9433597" lon="5.3931860">
<ele>932.42</ele>
<time>2019-07-25T10:30:53Z</time>
</trkpt>
<trkpt lat="44.9433424" lon="5.3931921">
<ele>932.45</ele>
<time>2019-07-25T10:30:54Z</time>
</trkpt>
<trkpt lat="44.9433212" lon="5.3932007">
<ele>932.48</ele>
<time>2019-07-25T10:30:55Z</time>
</trkpt>
<trkpt lat="44.9432997" lon="5.3932111">
<ele>932.52</ele>
<time>2019-07-25T10:30:56Z</time>
</trkpt>
<trkpt lat="44.9432836" lon="5.3932235">
<ele>932.55</ele>
<time>2019-07-25T10:30:57Z</time>
</trkpt>
<trkpt lat="44.9432624" lon="5.3932324">
<ele>932.58</ele>
<time>2019-07-25T10:30:58Z</time>
</trkpt>
<trkpt lat="44.9432416" lon="5.3932425">
<ele>932.60</ele>
<time>2019-07-25T10:30:59Z</time>
</trkpt>
<trkpt lat="44.9432335" lon="5.3932440">
<ele>932.63</ele>
<time>2019-07-25T10:31:00Z</time>
</trkpt>
<trkpt lat="44.9431848" lon="5.3932768">
<ele>932.66</ele>
<time>2019-07-25T10:31:01Z</time>
</trkpt>
<trkpt lat="44.9431587" lon="5.3932748">
<ele>932.68</ele>
<time>2019-07-25T10:31:02Z</time>
</trkpt>
<trkpt lat="44.9431502" lon="5.3932557">
<ele>932.70</ele>
<time>2019-07-25T10:31:03Z</time>
</trkpt>
<trkpt lat="44.9431402" lon="5.3932471">
<ele>932.73</ele>
<time>2019-07-25T10:31:04Z</time>
</trkpt>
<trkpt lat="44.9431424" lon="5.3932309">
<ele>932.75</ele>
<time>2019-07-25T10:31:05Z</time>
</trkpt>
<trkpt lat="44.9431370" lon="5.3932353">
<ele>932.77</ele>
<time>2019-07-25T10:31:06Z</time>
</trkpt>
<trkpt lat="44.9431195" lon="5.3932332">
<ele>932.79</ele>
<time>2019-07-25T10:31:07Z</time>
</trkpt>
<trkpt lat="44.9430956" lon="5.3932445">
<ele>932.82</ele>
<time>2019-07-25T10:31:08Z</time>
</trkpt>
<trkpt lat="44.9430652" lon="5.3932410">
<ele>932.84</ele>
<time>2019-07-25T10:31:09Z</time>
</trkpt>
<trkpt lat="44.9430481" lon="5.3932416">
<ele>932.86</ele>
<time>2019-07-25T10:31:10Z</time>
</trkpt>
<trkpt lat="44.9430342" lon="5.3932493">
<ele>932.89</ele>
<time>2019-07-25T10:31:11Z</time>
</trkpt>
<trkpt lat="44.9429993" lon="5.3932574">
<ele>932.92</ele>
<time>2019-07-25T10:31:12Z</time>
</trkpt>
<trkpt lat="44.9429801" lon="5.3932634">
<ele>932.96</ele>
<time>2019-07-25T10:31:13Z</time>
</trkpt>
<trkpt lat="44.9429556" lon="5.3932784">
<ele>932.99</ele>
<time>2019-07-25T10:31:14Z</time>
</trkpt>
<trkpt lat="44.9429405" lon="5.3932868">
<ele>933.03</ele>
<time>2019-07-25T10:31:15Z</time>
</trkpt>
<trkpt lat="44.9429293" lon="5.3932876">
<ele>933.08</ele>
<time>2019-07-25T10:31:16Z</time>
</trkpt>
<trkpt lat="44.9429068" lon="5.3932993">
<ele>933.14</ele>
<time>2019-07-25T10:31:17Z</time>
</trkpt>
<trkpt lat="44.9428792" lon="5.3933226">
<ele>933.19</ele>
<time>2019-07-25T10:31:18Z</time>
</trkpt>
<trkpt lat="44.9428539" lon="5.3933443">
<ele>933.24</ele>
<time>2019-07-25T10:31:19Z</time>
</trkpt>
<trkpt lat="44.9428345" lon="5.3933597">
<ele>933.30</ele>
<time>2019-07-25T10:31:20Z</time>
</trkpt>
<trkpt lat="44.9428197" lon="5.3933662">
<ele>933.37</ele>
<time>2019-07-25T10:31:21Z</time>
</trkpt>
<trkpt lat="44.9428243" lon="5.3933606">
<ele>933.43</ele>
<time>2019-07-25T10:31:22Z</time>
</trkpt>
<trkpt lat="44.9428384" lon="5.3933469">
<ele>933.44</ele>
<time>2019-07-25T10:31:23Z</time>
</trkpt>
<trkpt lat="44.9428436" lon="5.3933415">
<ele>933.52</ele>
<time>2019-07-25T10:31:24Z</time>
</trkpt>
<trkpt lat="44.9428457" lon="5.3933293">
<ele>933.53</ele>
<time>2019-07-25T10:31:25Z</time>
</trkpt>
<trkpt lat="44.9428460" lon="5.3933292">
<ele>933.54</ele>
<time>2019-07-25T10:31:26Z</time>
</trkpt>
<trkpt lat="44.9428468" lon="5.3933284">
<ele>933.55</ele>
<time>2019-07-25T10:31:27Z</time>
</trkpt>
<trkpt lat="44.9428469" lon="5.3933281">
<ele>933.56</ele>
<time>2019-07-25T10:31:28Z</time>
</trkpt>
<trkpt lat="44.9428476" lon="5.3933280">
<ele>933.57</ele>
<time>2019-07-25T10:31:29Z</time>
</trkpt>
<trkpt lat="44.9428480" lon="5.3933278">
<ele>933.58</ele>
<time>2019-07-25T10:31:30Z</time>
</trkpt>
<trkpt lat="44.9428525" lon="5.3933256">
<ele>933.59</ele>
<time>2019-07-25T10:31:31Z</time>
</trkpt>
<trkpt lat="44.9428489" lon="5.3933390">
<ele>933.72</ele>
<time>2019-07-25T10:31:32Z</time>
</trkpt>
<trkpt lat="44.9428387" lon="5.3933587">
<ele>933.84</ele>
<time>2019-07-25T10:31:33Z</time>
</trkpt>
<trkpt lat="44.9428222" lon="5.3933745">
<ele>933.97</ele>
<time>2019-07-25T10:31:34Z</time>
</trkpt>
<trkpt lat="44.9428053" lon="5.3933892">
<ele>934.10</ele>
<time>2019-07-25T10:31:35Z</time>
</trkpt>
<trkpt lat="44.9427837" lon="5.3933975">
<ele>934.23</ele>
<time>2019-07-25T10:31:36Z</time>
</trkpt>
<trkpt lat="44.9427643" lon="5.3934077">
<ele>934.36</ele>
<time>2019-07-25T10:31:37Z</time>
</trkpt>
<trkpt lat="44.9427457" lon="5.3934274">
<ele>934.48</ele>
<time>2019-07-25T10:31:38Z</time>
</trkpt>
<trkpt lat="44.9427309" lon="5.3934433">
<ele>934.61</ele>
<time>2019-07-25T10:31:39Z</time>
</trkpt>
<trkpt lat="44.9427176" lon="5.3934432">
<ele>934.73</ele>
<time>2019-07-25T10:31:40Z</time>
</trkpt>
<trkpt lat="44.9427021" lon="5.3934668">
<ele>934.86</ele>
<time>2019-07-25T10:31:41Z</time>
</trkpt>
<trkpt lat="44.9426867" lon="5.3934976">
<ele>934.98</ele>
<time>2019-07-25T10:31:42Z</time>
</trkpt>
<trkpt lat="44.9426534" lon="5.3935451">
<ele>935.11</ele>
<time>2019-07-25T10:31:43Z</time>
</trkpt>
<trkpt lat="44.9426160" lon="5.3935731">
<ele>935.23</ele>
<time>2019-07-25T10:31:44Z</time>
</trkpt>
<trkpt lat="44.9426002" lon="5.3936085">
<ele>935.35</ele>
<time>2019-07-25T10:31:45Z</time>
</trkpt>
<trkpt lat="44.9425828" lon="5.3936295">
<ele>935.47</ele>
<time>2019-07-25T10:31:46Z</time>
</trkpt>
<trkpt lat="44.9425630" lon="5.3936626">
<ele>935.59</ele>
<time>2019-07-25T10:31:47Z</time>
</trkpt>
<trkpt lat="44.9425524" lon="5.3936717">
<ele>935.71</ele>
<time>2019-07-25T10:31:48Z</time>
</trkpt>
<trkpt lat="44.9425484" lon="5.3936755">
<ele>935.84</ele>
<time>2019-07-25T10:31:49Z</time>
</trkpt>
<trkpt lat="44.9425631" lon="5.3936502">
<ele>935.96</ele>
<time>2019-07-25T10:31:50Z</time>
</trkpt>
<trkpt lat="44.9425514" lon="5.3936560">
<ele>936.08</ele>
<time>2019-07-25T10:31:51Z</time>
</trkpt>
<trkpt lat="44.9425367" lon="5.3936673">
<ele>936.21</ele>
<time>2019-07-25T10:31:52Z</time>
</trkpt>
<trkpt lat="44.9425358" lon="5.3936628">
<ele>936.35</ele>
<time>2019-07-25T10:31:53Z</time>
</trkpt>
<trkpt lat="44.9425376" lon="5.3936547">
<ele>936.49</ele>
<time>2019-07-25T10:31:54Z</time>
</trkpt>
<trkpt lat="44.9425406" lon="5.3936540">
<ele>936.63</ele>
<time>2019-07-25T10:31:55Z</time>
</trkpt>
<trkpt lat="44.9425436" lon="5.3936559">
<ele>936.76</ele>
<time>2019-07-25T10:31:56Z</time>
</trkpt>
<trkpt lat="44.9425430" lon="5.3936570">
<ele>936.78</ele>
<time>2019-07-25T10:31:57Z</time>
</trkpt>
<trkpt lat="44.9425452" lon="5.3936565">
<ele>936.79</ele>
<time>2019-07-25T10:31:58Z</time>
</trkpt>
<trkpt lat="44.9425419" lon="5.3936649">
<ele>936.93</ele>
<time>2019-07-25T10:31:59Z</time>
</trkpt>
<trkpt lat="44.9425355" lon="5.3936856">
<ele>937.06</ele>
<time>2019-07-25T10:32:00Z</time>
</trkpt>
<trkpt lat="44.9425344" lon="5.3937088">
<ele>937.19</ele>
<time>2019-07-25T10:32:01Z</time>
</trkpt>
<trkpt lat="44.9425360" lon="5.3937086">
<ele>937.31</ele>
<time>2019-07-25T10:32:02Z</time>
</trkpt>
<trkpt lat="44.9425384" lon="5.3937021">
<ele>937.43</ele>
<time>2019-07-25T10:32:03Z</time>
</trkpt>
<trkpt lat="44.9425405" lon="5.3937038">
<ele>937.56</ele>
<time>2019-07-25T10:32:04Z</time>
</trkpt>
<trkpt lat="44.9425371" lon="5.3937144">
<ele>937.68</ele>
<time>2019-07-25T10:32:05Z</time>
</trkpt>
<trkpt lat="44.9425334" lon="5.3937225">
<ele>937.80</ele>
<time>2019-07-25T10:32:06Z</time>
</trkpt>
<trkpt lat="44.9425283" lon="5.3937257">
<ele>937.93</ele>
<time>2019-07-25T10:32:07Z</time>
</trkpt>
<trkpt lat="44.9425191" lon="5.3937310">
<ele>938.05</ele>
<time>2019-07-25T10:32:08Z</time>
</trkpt>
<trkpt lat="44.9425127" lon="5.3937416">
<ele>938.18</ele>
<time>2019-07-25T10:32:09Z</time>
</trkpt>
<trkpt lat="44.9425090" lon="5.3937475">
<ele>938.30</ele>
<time>2019-07-25T10:32:10Z</time>
</trkpt>
<trkpt lat="44.9425083" lon="5.3937496">
<ele>938.43</ele>
<time>2019-07-25T10:32:11Z</time>
</trkpt>
<trkpt lat="44.9425144" lon="5.3937503">
<ele>938.55</ele>
<time>2019-07-25T10:32:12Z</time>
</trkpt>
<trkpt lat="44.9425155" lon="5.3937506">
<ele>938.56</ele>
<time>2019-07-25T10:32:13Z</time>
</trkpt>
<trkpt lat="44.9425135" lon="5.3937531">
<ele>938.68</ele>
<time>2019-07-25T10:32:14Z</time>
</trkpt>
<trkpt lat="44.9425056" lon="5.3937562">
<ele>938.81</ele>
<time>2019-07-25T10:32:15Z</time>
</trkpt>
<trkpt lat="44.9424955" lon="5.3937613">
<ele>938.94</ele>
<time>2019-07-25T10:32:16Z</time>
</trkpt>
<trkpt lat="44.9424885" lon="5.3937647">
<ele>939.07</ele>
<time>2019-07-25T10:32:17Z</time>
</trkpt>
<trkpt lat="44.9424790" lon="5.3937704">
<ele>939.21</ele>
<time>2019-07-25T10:32:18Z</time>
</trkpt>
<trkpt lat="44.9424629" lon="5.3937747">
<ele>939.35</ele>
<time>2019-07-25T10:32:19Z</time>
</trkpt>
<trkpt lat="44.9424474" lon="5.3937737">
<ele>939.49</ele>
<time>2019-07-25T10:32:20Z</time>
</trkpt>
<trkpt lat="44.9424410" lon="5.3937769">
<ele>939.63</ele>
<time>2019-07-25T10:32:21Z</time>
</trkpt>
<trkpt lat="44.9424342" lon="5.3937798">
<ele>939.77</ele>
<time>2019-07-25T10:32:22Z</time>
</trkpt>
<trkpt lat="44.9424328" lon="5.3937894">
<ele>939.78</ele>
<time>2019-07-25T10:32:23Z</time>
</trkpt>
<trkpt lat="44.9424305" lon="5.3937919">
<ele>939.92</ele>
<time>2019-07-25T10:32:24Z</time>
</trkpt>
<trkpt lat="44.9424290" lon="5.3937929">
<ele>939.93</ele>
<time>2019-07-25T10:32:25Z</time>
</trkpt>
<trkpt lat="44.9424300" lon="5.3937918">
<ele>939.95</ele>
<time>2019-07-25T10:32:26Z</time>
</trkpt>
<trkpt lat="44.9424315" lon="5.3937871">
<ele>940.09</ele>
<time>2019-07-25T10:32:27Z</time>
</trkpt>
<trkpt lat="44.9424225" lon="5.3938012">
<ele>940.23</ele>
<time>2019-07-25T10:32:28Z</time>
</trkpt>
<trkpt lat="44.9424213" lon="5.3937996">
<ele>940.24</ele>
<time>2019-07-25T10:32:29Z</time>
</trkpt>
<trkpt lat="44.9424212" lon="5.3937987">
<ele>940.39</ele>
<time>2019-07-25T10:32:30Z</time>
</trkpt>
<trkpt lat="44.9424193" lon="5.3938009">
<ele>940.40</ele>
<time>2019-07-25T10:32:31Z</time>
</trkpt>
<trkpt lat="44.9424256" lon="5.3937981">
<ele>940.55</ele>
<time>2019-07-25T10:32:32Z</time>
</trkpt>
<trkpt lat="44.9424329" lon="5.3938069">
<ele>940.69</ele>
<time>2019-07-25T10:32:33Z</time>
</trkpt>
<trkpt lat="44.9424256" lon="5.3938202">
<ele>940.84</ele>
<time>2019-07-25T10:32:34Z</time>
</trkpt>
<trkpt lat="44.9424152" lon="5.3938295">
<ele>940.99</ele>
<time>2019-07-25T10:32:35Z</time>
</trkpt>
<trkpt lat="44.9424031" lon="5.3938326">
<ele>941.15</ele>
<time>2019-07-25T10:32:36Z</time>
</trkpt>
<trkpt lat="44.9423830" lon="5.3938608">
<ele>941.30</ele>
<time>2019-07-25T10:32:37Z</time>
</trkpt>
<trkpt lat="44.9423710" lon="5.3938748">
<ele>941.45</ele>
<time>2019-07-25T10:32:38Z</time>
</trkpt>
<trkpt lat="44.9423439" lon="5.3939013">
<ele>941.61</ele>
<time>2019-07-25T10:32:39Z</time>
</trkpt>
<trkpt lat="44.9423189" lon="5.3939296">
<ele>941.77</ele>
<time>2019-07-25T10:32:40Z</time>
</trkpt>
<trkpt lat="44.9423005" lon="5.3939432">
<ele>941.93</ele>
<time>2019-07-25T10:32:41Z</time>
</trkpt>
<trkpt lat="44.9422794" lon="5.3939534">
<ele>942.10</ele>
<time>2019-07-25T10:32:42Z</time>
</trkpt>
<trkpt lat="44.9422525" lon="5.3939776">
<ele>942.28</ele>
<time>2019-07-25T10:32:43Z</time>
</trkpt>
<trkpt lat="44.9422250" lon="5.3939886">
<ele>942.45</ele>
<time>2019-07-25T10:32:44Z</time>
</trkpt>
<trkpt lat="44.9422087" lon="5.3939987">
<ele>942.62</ele>
<time>2019-07-25T10:32:45Z</time>
</trkpt>
<trkpt lat="44.9421934" lon="5.3940144">
<ele>942.80</ele>
<time>2019-07-25T10:32:46Z</time>
</trkpt>
<trkpt lat="44.9421707" lon="5.3940442">
<ele>942.97</ele>
<time>2019-07-25T10:32:47Z</time>
</trkpt>
<trkpt lat="44.9421585" lon="5.3940739">
<ele>943.14</ele>
<time>2019-07-25T10:32:48Z</time>
</trkpt>
<trkpt lat="44.9421442" lon="5.3940821">
<ele>943.30</ele>
<time>2019-07-25T10:32:49Z</time>
</trkpt>
<trkpt lat="44.9421333" lon="5.3940974">
<ele>943.46</ele>
<time>2019-07-25T10:32:50Z</time>
</trkpt>
<trkpt lat="44.9421094" lon="5.3941067">
<ele>943.62</ele>
<time>2019-07-25T10:32:51Z</time>
</trkpt>
<trkpt lat="44.9420835" lon="5.3941075">
<ele>943.77</ele>
<time>2019-07-25T10:32:52Z</time>
</trkpt>
<trkpt lat="44.9420667" lon="5.3941109">
<ele>943.91</ele>
<time>2019-07-25T10:32:53Z</time>
</trkpt>
<trkpt lat="44.9420518" lon="5.3941106">
<ele>944.06</ele>
<time>2019-07-25T10:32:54Z</time>
</trkpt>
<trkpt lat="44.9420261" lon="5.3941124">
<ele>944.20</ele>
<time>2019-07-25T10:32:55Z</time>
</trkpt>
<trkpt lat="44.9419994" lon="5.3941004">
<ele>944.33</ele>
<time>2019-07-25T10:32:56Z</time>
</trkpt>
<trkpt lat="44.9419750" lon="5.3940866">
<ele>944.47</ele>
<time>2019-07-25T10:32:57Z</time>
</trkpt>
<trkpt lat="44.9419554" lon="5.3940860">
<ele>944.60</ele>
<time>2019-07-25T10:32:58Z</time>
</trkpt>
<trkpt lat="44.9419311" lon="5.3940819">
<ele>944.73</ele>
<time>2019-07-25T10:32:59Z</time>
</trkpt>
<trkpt lat="44.9419137" lon="5.3940702">
<ele>944.86</ele>
<time>2019-07-25T10:33:00Z</time>
</trkpt>
<trkpt lat="44.9418922" lon="5.3940636">
<ele>944.99</ele>
<time>2019-07-25T10:33:01Z</time>
</trkpt>
<trkpt lat="44.9418659" lon="5.3940452">
<ele>945.11</ele>
<time>2019-07-25T10:33:02Z</time>
</trkpt>
<trkpt lat="44.9418469" lon="5.3940619">
<ele>945.23</ele>
<time>2019-07-25T10:33:03Z</time>
</trkpt>
<trkpt lat="44.9418344" lon="5.3940651">
<ele>945.34</ele>
<time>2019-07-25T10:33:04Z</time>
</trkpt>
<trkpt lat="44.9418259" lon="5.3941142">
<ele>945.45</ele>
<time>2019-07-25T10:33:05Z</time>
</trkpt>
<trkpt lat="44.9418100" lon="5.3941326">
<ele>945.56</ele>
<time>2019-07-25T10:33:06Z</time>
</trkpt>
<trkpt lat="44.9418030" lon="5.3941518">
<ele>945.68</ele>
<time>2019-07-25T10:33:07Z</time>
</trkpt>
<trkpt lat="44.9417916" lon="5.3941737">
<ele>945.79</ele>
<time>2019-07-25T10:33:08Z</time>
</trkpt>
<trkpt lat="44.9417817" lon="5.3941945">
<ele>945.91</ele>
<time>2019-07-25T10:33:09Z</time>
</trkpt>
<trkpt lat="44.9417825" lon="5.3942293">
<ele>946.02</ele>
<time>2019-07-25T10:33:10Z</time>
</trkpt>
<trkpt lat="44.9417950" lon="5.3942489">
<ele>946.12</ele>
<time>2019-07-25T10:33:11Z</time>
</trkpt>
<trkpt lat="44.9418078" lon="5.3942646">
<ele>946.23</ele>
<time>2019-07-25T10:33:12Z</time>
</trkpt>
<trkpt lat="44.9418153" lon="5.3942760">
<ele>946.33</ele>
<time>2019-07-25T10:33:13Z</time>
</trkpt>
<trkpt lat="44.9418207" lon="5.3942952">
<ele>946.44</ele>
<time>2019-07-25T10:33:14Z</time>
</trkpt>
<trkpt lat="44.9418205" lon="5.3942962">
<ele>946.54</ele>
<time>2019-07-25T10:33:15Z</time>
</trkpt>
<trkpt lat="44.9418272" lon="5.3942932">
<ele>946.65</ele>
<time>2019-07-25T10:33:16Z</time>
</trkpt>
<trkpt lat="44.9418364" lon="5.3942961">
<ele>946.76</ele>
<time>2019-07-25T10:33:17Z</time>
</trkpt>
<trkpt lat="44.9418355" lon="5.3943033">
<ele>946.87</ele>
<time>2019-07-25T10:33:18Z</time>
</trkpt>
<trkpt lat="44.9418270" lon="5.3942997">
<ele>946.99</ele>
<time>2019-07-25T10:33:19Z</time>
</trkpt>
<trkpt lat="44.9418221" lon="5.3942941">
<ele>947.11</ele>
<time>2019-07-25T10:33:20Z</time>
</trkpt>
<trkpt lat="44.9418174" lon="5.3942938">
<ele>947.23</ele>
<time>2019-07-25T10:33:21Z</time>
</trkpt>
<trkpt lat="44.9418120" lon="5.3942856">
<ele>947.35</ele>
<time>2019-07-25T10:33:22Z</time>
</trkpt>
<trkpt lat="44.9418070" lon="5.3942811">
<ele>947.46</ele>
<time>2019-07-25T10:33:23Z</time>
</trkpt>
<trkpt lat="44.9417995" lon="5.3942755">
<ele>947.58</ele>
<time>2019-07-25T10:33:24Z</time>
</trkpt>
<trkpt lat="44.9417937" lon="5.3942636">
<ele>947.71</ele>
<time>2019-07-25T10:33:25Z</time>
</trkpt>
<trkpt lat="44.9417842" lon="5.3942570">
<ele>947.84</ele>
<time>2019-07-25T10:33:26Z</time>
</trkpt>
<trkpt lat="44.9417759" lon="5.3942424">
<ele>947.97</ele>
<time>2019-07-25T10:33:27Z</time>
</trkpt>
<trkpt lat="44.9417755" lon="5.3942355">
<ele>948.09</ele>
<time>2019-07-25T10:33:28Z</time>
</trkpt>
<trkpt lat="44.9417826" lon="5.3942435">
<ele>948.20</ele>
<time>2019-07-25T10:33:29Z</time>
</trkpt>
<trkpt lat="44.9417863" lon="5.3942484">
<ele>948.21</ele>
<time>2019-07-25T10:33:30Z</time>
</trkpt>
<trkpt lat="44.9417833" lon="5.3942431">
<ele>948.23</ele>
<time>2019-07-25T10:33:31Z</time>
</trkpt>
<trkpt lat="44.9417845" lon="5.3942437">
<ele>948.24</ele>
<time>2019-07-25T10:33:32Z</time>
</trkpt>
<trkpt lat="44.9417853" lon="5.3942439">
<ele>948.25</ele>
<time>2019-07-25T10:33:33Z</time>
</trkpt>
<trkpt lat="44.9417856" lon="5.3942447">
<ele>948.26</ele>
<time>2019-07-25T10:33:34Z</time>
</trkpt>
<trkpt lat="44.9417885" lon="5.3942637">
<ele>948.38</ele>
<time>2019-07-25T10:33:35Z</time>
</trkpt>
<trkpt lat="44.9417964" lon="5.3942717">
<ele>948.49</ele>
<time>2019-07-25T10:33:36Z</time>
</trkpt>
<trkpt lat="44.9418014" lon="5.3942715">
<ele>948.60</ele>
<time>2019-07-25T10:33:37Z</time>
</trkpt>
<trkpt lat="44.9418030" lon="5.3942734">
<ele>948.62</ele>
<time>2019-07-25T10:33:38Z</time>
</trkpt>
<trkpt lat="44.9418030" lon="5.3942735">
<ele>948.63</ele>
<time>2019-07-25T10:33:39Z</time>
</trkpt>
<trkpt lat="44.9418033" lon="5.3942738">
<ele>948.64</ele>
<time>2019-07-25T10:33:40Z</time>
</trkpt>
<trkpt lat="44.9418032" lon="5.3942737">
<ele>948.65</ele>
<time>2019-07-25T10:33:41Z</time>
</trkpt>
<trkpt lat="44.9418025" lon="5.3942735">
<ele>948.66</ele>
<time>2019-07-25T10:33:42Z</time>
</trkpt>
<trkpt lat="44.9418018" lon="5.3942737">
<ele>948.67</ele>
<time>2019-07-25T10:33:43Z</time>
</trkpt>
<trkpt lat="44.9418020" lon="5.3942738">
<ele>948.69</ele>
<time>2019-07-25T10:33:44Z</time>
</trkpt>
<trkpt lat="44.9418022" lon="5.3942739">
<ele>948.70</ele>
<time>2019-07-25T10:33:45Z</time>
</trkpt>
<trkpt lat="44.9418032" lon="5.3942741">
<ele>948.71</ele>
<time>2019-07-25T10:33:46Z</time>
</trkpt>
<trkpt lat="44.9418046" lon="5.3942746">
<ele>948.73</ele>
<time>2019-07-25T10:33:47Z</time>
</trkpt>
<trkpt lat="44.9418062" lon="5.3942747">
<ele>948.74</ele>
<time>2019-07-25T10:33:48Z</time>
</trkpt>
<trkpt lat="44.9418074" lon="5.3942747">
<ele>948.75</ele>
<time>2019-07-25T10:33:49Z</time>
</trkpt>
<trkpt lat="44.9418082" lon="5.3942749">
<ele>948.77</ele>
<time>2019-07-25T10:33:50Z</time>
</trkpt>
<trkpt lat="44.9418088" lon="5.3942750">
<ele>948.78</ele>
<time>2019-07-25T10:33:51Z</time>
</trkpt>
<trkpt lat="44.9418091" lon="5.3942754">
<ele>948.79</ele>
<time>2019-07-25T10:33:52Z</time>
</trkpt>
<trkpt lat="44.9418092" lon="5.3942754">
<ele>948.81</ele>
<time>2019-07-25T10:33:53Z</time>
</trkpt>
<trkpt lat="44.9418093" lon="5.3942756">
<ele>948.82</ele>
<time>2019-07-25T10:33:54Z</time>
</trkpt>
<trkpt lat="44.9418094" lon="5.3942757">
<ele>948.84</ele>
<time>2019-07-25T10:33:55Z</time>
</trkpt>
<trkpt lat="44.9418091" lon="5.3942760">
<ele>948.86</ele>
<time>2019-07-25T10:33:56Z</time>
</trkpt>
<trkpt lat="44.9418083" lon="5.3942760">
<ele>948.87</ele>
<time>2019-07-25T10:33:57Z</time>
</trkpt>
<trkpt lat="44.9418084" lon="5.3942760">
<ele>948.89</ele>
<time>2019-07-25T10:33:58Z</time>
</trkpt>
<trkpt lat="44.9418081" lon="5.3942764">
<ele>948.91</ele>
<time>2019-07-25T10:33:59Z</time>
</trkpt>
<trkpt lat="44.9418079" lon="5.3942768">
<ele>948.93</ele>
<time>2019-07-25T10:34:00Z</time>
</trkpt>
<trkpt lat="44.9418080" lon="5.3942772">
<ele>948.94</ele>
<time>2019-07-25T10:34:01Z</time>
</trkpt>
<trkpt lat="44.9418079" lon="5.3942775">
<ele>948.96</ele>
<time>2019-07-25T10:34:02Z</time>
</trkpt>
<trkpt lat="44.9418070" lon="5.3942777">
<ele>948.98</ele>
<time>2019-07-25T10:34:03Z</time>
</trkpt>
<trkpt lat="44.9418069" lon="5.3942781">
<ele>949.00</ele>
<time>2019-07-25T10:34:04Z</time>
</trkpt>
<trkpt lat="44.9418085" lon="5.3942782">
<ele>949.02</ele>
<time>2019-07-25T10:34:05Z</time>
</trkpt>
<trkpt lat="44.9418084" lon="5.3942782">
<ele>949.03</ele>
<time>2019-07-25T10:34:06Z</time>
</trkpt>
<trkpt lat="44.9418076" lon="5.3942783">
<ele>949.05</ele>
<time>2019-07-25T10:34:07Z</time>
</trkpt>
<trkpt lat="44.9418075" lon="5.3942782">
<ele>949.07</ele>
<time>2019-07-25T10:34:08Z</time>
</trkpt>
<trkpt lat="44.9418068" lon="5.3942782">
<ele>949.09</ele>
<time>2019-07-25T10:34:09Z</time>
</trkpt>
<trkpt lat="44.9418071" lon="5.3942784">
<ele>949.11</ele>
<time>2019-07-25T10:34:10Z</time>
</trkpt>
<trkpt lat="44.9418080" lon="5.3942788">
<ele>949.13</ele>
<time>2019-07-25T10:34:11Z</time>
</trkpt>
<trkpt lat="44.9418083" lon="5.3942791">
<ele>949.16</ele>
<time>2019-07-25T10:34:12Z</time>
</trkpt>
<trkpt lat="44.9418082" lon="5.3942793">
<ele>949.18</ele>
<time>2019-07-25T10:34:13Z</time>
</trkpt>
<trkpt lat="44.9418081" lon="5.3942796">
<ele>949.21</ele>
<time>2019-07-25T10:34:14Z</time>
</trkpt>
<trkpt lat="44.9418086" lon="5.3942797">
<ele>949.23</ele>
<time>2019-07-25T10:34:15Z</time>
</trkpt>
<trkpt lat="44.9418086" lon="5.3942797">
<ele>949.25</ele>
<time>2019-07-25T10:34:16Z</time>
</trkpt>
<trkpt lat="44.9418082" lon="5.3942796">
<ele>949.28</ele>
<time>2019-07-25T10:34:17Z</time>
</trkpt>
<trkpt lat="44.9418084" lon="5.3942798">
<ele>949.30</ele>
<time>2019-07-25T10:34:18Z</time>
</trkpt>
<trkpt lat="44.9418084" lon="5.3942797">
<ele>949.32</ele>
<time>2019-07-25T10:34:19Z</time>
</trkpt>
<trkpt lat="44.9418082" lon="5.3942795">
<ele>949.35</ele>
<time>2019-07-25T10:34:20Z</time>
</trkpt>
<trkpt lat="44.9418076" lon="5.3942793">
<ele>949.37</ele>
<time>2019-07-25T10:34:21Z</time>
</trkpt>
<trkpt lat="44.9418074" lon="5.3942791">
<ele>949.39</ele>
<time>2019-07-25T10:34:22Z</time>
</trkpt>
<trkpt lat="44.9418069" lon="5.3942789">
<ele>949.41</ele>
<time>2019-07-25T10:34:23Z</time>
</trkpt>
<trkpt lat="44.9418066" lon="5.3942786">
<ele>949.43</ele>
<time>2019-07-25T10:34:24Z</time>
</trkpt>
<trkpt lat="44.9418065" lon="5.3942784">
<ele>949.45</ele>
<time>2019-07-25T10:34:25Z</time>
</trkpt>
<trkpt lat="44.9418065" lon="5.3942783">
<ele>949.46</ele>
<time>2019-07-25T10:34:26Z</time>
</trkpt>
<trkpt lat="44.9418070" lon="5.3942783">
<ele>949.48</ele>
<time>2019-07-25T10:34:27Z</time>
</trkpt>
<trkpt lat="44.9418069" lon="5.3942780">
<ele>949.50</ele>
<time>2019-07-25T10:34:28Z</time>
</trkpt>
<trkpt lat="44.9418076" lon="5.3942790">
<ele>949.52</ele>
<time>2019-07-25T10:34:29Z</time>
</trkpt>
<trkpt lat="44.9418079" lon="5.3942863">
<ele>949.71</ele>
<time>2019-07-25T10:34:30Z</time>
</trkpt>
<trkpt lat="44.9418034" lon="5.3942835">
<ele>949.89</ele>
<time>2019-07-25T10:34:31Z</time>
</trkpt>
<trkpt lat="44.9418066" lon="5.3942875">
<ele>950.06</ele>
<time>2019-07-25T10:34:32Z</time>
</trkpt>
<trkpt lat="44.9418084" lon="5.3942903">
<ele>950.08</ele>
<time>2019-07-25T10:34:33Z</time>
</trkpt>
<trkpt lat="44.9418125" lon="5.3942872">
<ele>950.10</ele>
<time>2019-07-25T10:34:34Z</time>
</trkpt>
<trkpt lat="44.9418117" lon="5.3942847">
<ele>950.27</ele>
<time>2019-07-25T10:34:35Z</time>
</trkpt>
<trkpt lat="44.9418199" lon="5.3943001">
<ele>950.43</ele>
<time>2019-07-25T10:34:36Z</time>
</trkpt>
<trkpt lat="44.9418236" lon="5.3943169">
<ele>950.60</ele>
<time>2019-07-25T10:34:37Z</time>
</trkpt>
<trkpt lat="44.9418271" lon="5.3943143">
<ele>950.77</ele>
<time>2019-07-25T10:34:38Z</time>
</trkpt>
<trkpt lat="44.9418236" lon="5.3943219">
<ele>950.93</ele>
<time>2019-07-25T10:34:39Z</time>
</trkpt>
<trkpt lat="44.9418221" lon="5.3943181">
<ele>951.10</ele>
<time>2019-07-25T10:34:40Z</time>
</trkpt>
<trkpt lat="44.9418297" lon="5.3943107">
<ele>951.25</ele>
<time>2019-07-25T10:34:41Z</time>
</trkpt>
<trkpt lat="44.9418305" lon="5.3943033">
<ele>951.41</ele>
<time>2019-07-25T10:34:42Z</time>
</trkpt>
<trkpt lat="44.9418270" lon="5.3943044">
<ele>951.58</ele>
<time>2019-07-25T10:34:43Z</time>
</trkpt>
<trkpt lat="44.9418290" lon="5.3943057">
<ele>951.74</ele>
<time>2019-07-25T10:34:44Z</time>
</trkpt>
<trkpt lat="44.9418284" lon="5.3943052">
<ele>951.91</ele>
<time>2019-07-25T10:34:45Z</time>
</trkpt>
<trkpt lat="44.9418300" lon="5.3943219">
<ele>952.08</ele>
<time>2019-07-25T10:34:46Z</time>
</trkpt>
<trkpt lat="44.9418327" lon="5.3943176">
<ele>952.10</ele>
<time>2019-07-25T10:34:47Z</time>
</trkpt>
<trkpt lat="44.9418337" lon="5.3943308">
<ele>952.12</ele>
<time>2019-07-25T10:34:48Z</time>
</trkpt>
<trkpt lat="44.9418357" lon="5.3943431">
<ele>952.31</ele>
<time>2019-07-25T10:34:49Z</time>
</trkpt>
<trkpt lat="44.9418400" lon="5.3943419">
<ele>952.50</ele>
<time>2019-07-25T10:34:50Z</time>
</trkpt>
<trkpt lat="44.9418423" lon="5.3943472">
<ele>952.69</ele>
<time>2019-07-25T10:34:51Z</time>
</trkpt>
<trkpt lat="44.9418509" lon="5.3943579">
<ele>952.89</ele>
<time>2019-07-25T10:34:52Z</time>
</trkpt>
<trkpt lat="44.9418611" lon="5.3943677">
<ele>953.09</ele>
<time>2019-07-25T10:34:53Z</time>
</trkpt>
<trkpt lat="44.9418684" lon="5.3943796">
<ele>953.30</ele>
<time>2019-07-25T10:34:54Z</time>
</trkpt>
<trkpt lat="44.9418723" lon="5.3943957">
<ele>953.51</ele>
<time>2019-07-25T10:34:55Z</time>
</trkpt>
<trkpt lat="44.9418736" lon="5.3944257">
<ele>953.72</ele>
<time>2019-07-25T10:34:56Z</time>
</trkpt>
<trkpt lat="44.9418735" lon="5.3944656">
<ele>953.94</ele>
<time>2019-07-25T10:34:57Z</time>
</trkpt>
<trkpt lat="44.9418768" lon="5.3944914">
<ele>954.16</ele>
<time>2019-07-25T10:34:58Z</time>
</trkpt>
<trkpt lat="44.9418741" lon="5.3945137">
<ele>954.39</ele>
<time>2019-07-25T10:34:59Z</time>
</trkpt>
<trkpt lat="44.9418685" lon="5.3945364">
<ele>954.62</ele>
<time>2019-07-25T10:35:00Z</time>
</trkpt>
<trkpt lat="44.9418645" lon="5.3945508">
<ele>954.86</ele>
<time>2019-07-25T10:35:01Z</time>
</trkpt>
<trkpt lat="44.9418640" lon="5.3945624">
<ele>955.09</ele>
<time>2019-07-25T10:35:02Z</time>
</trkpt>
<trkpt lat="44.9418671" lon="5.3945451">
<ele>955.11</ele>
<time>2019-07-25T10:35:03Z</time>
</trkpt>
<trkpt lat="44.9418644" lon="5.3945534">
<ele>955.13</ele>
<time>2019-07-25T10:35:04Z</time>
</trkpt>
<trkpt lat="44.9418644" lon="5.3945523">
<ele>955.15</ele>
<time>2019-07-25T10:35:05Z</time>
</trkpt>
<trkpt lat="44.9418645" lon="5.3945516">
<ele>955.18</ele>
<time>2019-07-25T10:35:06Z</time>
</trkpt>
<trkpt lat="44.9418644" lon="5.3945507">
<ele>955.20</ele>
<time>2019-07-25T10:35:07Z</time>
</trkpt>
<trkpt lat="44.9418642" lon="5.3945498">
<ele>955.22</ele>
<time>2019-07-25T10:35:08Z</time>
</trkpt>
<trkpt lat="44.9418641" lon="5.3945485">
<ele>955.24</ele>
<time>2019-07-25T10:35:09Z</time>
</trkpt>
<trkpt lat="44.9418655" lon="5.3945449">
<ele>955.27</ele>
<time>2019-07-25T10:35:10Z</time>
</trkpt>
<trkpt lat="44.9418666" lon="5.3945427">
<ele>955.29</ele>
<time>2019-07-25T10:35:11Z</time>
</trkpt>
<trkpt lat="44.9418661" lon="5.3945391">
<ele>955.32</ele>
<time>2019-07-25T10:35:12Z</time>
</trkpt>
<trkpt lat="44.9418671" lon="5.3945576">
<ele>955.58</ele>
<time>2019-07-25T10:35:13Z</time>
</trkpt>
<trkpt lat="44.9418632" lon="5.3945744">
<ele>955.84</ele>
<time>2019-07-25T10:35:14Z</time>
</trkpt>
<trkpt lat="44.9418402" lon="5.3945823">
<ele>956.09</ele>
<time>2019-07-25T10:35:15Z</time>
</trkpt>
<trkpt lat="44.9418177" lon="5.3945872">
<ele>956.33</ele>
<time>2019-07-25T10:35:16Z</time>
</trkpt>
<trkpt lat="44.9418078" lon="5.3946115">
<ele>956.56</ele>
<time>2019-07-25T10:35:17Z</time>
</trkpt>
<trkpt lat="44.9418054" lon="5.3946311">
<ele>956.58</ele>
<time>2019-07-25T10:35:18Z</time>
</trkpt>
<trkpt lat="44.9418058" lon="5.3946331">
<ele>956.60</ele>
<time>2019-07-25T10:35:19Z</time>
</trkpt>
<trkpt lat="44.9418113" lon="5.3946215">
<ele>956.62</ele>
<time>2019-07-25T10:35:20Z</time>
</trkpt>
<trkpt lat="44.9418100" lon="5.3946103">
<ele>956.80</ele>
<time>2019-07-25T10:35:21Z</time>
</trkpt>
<trkpt lat="44.9418098" lon="5.3946108">
<ele>956.97</ele>
<time>2019-07-25T10:35:22Z</time>
</trkpt>
<trkpt lat="44.9418051" lon="5.3946193">
<ele>957.14</ele>
<time>2019-07-25T10:35:23Z</time>
</trkpt>
<trkpt lat="44.9417958" lon="5.3946286">
<ele>957.29</ele>
<time>2019-07-25T10:35:24Z</time>
</trkpt>
<trkpt lat="44.9417924" lon="5.3946315">
<ele>957.44</ele>
<time>2019-07-25T10:35:25Z</time>
</trkpt>
<trkpt lat="44.9417877" lon="5.3946328">
<ele>957.59</ele>
<time>2019-07-25T10:35:26Z</time>
</trkpt>
<trkpt lat="44.9417865" lon="5.3946290">
<ele>957.60</ele>
<time>2019-07-25T10:35:27Z</time>
</trkpt>
<trkpt lat="44.9417812" lon="5.3946244">
<ele>957.77</ele>
<time>2019-07-25T10:35:28Z</time>
</trkpt>
<trkpt lat="44.9417724" lon="5.3946235">
<ele>957.93</ele>
<time>2019-07-25T10:35:29Z</time>
</trkpt>
<trkpt lat="44.9417681" lon="5.3946138">
<ele>958.09</ele>
<time>2019-07-25T10:35:30Z</time>
</trkpt>
<trkpt lat="44.9417649" lon="5.3945922">
<ele>958.25</ele>
<time>2019-07-25T10:35:31Z</time>
</trkpt>
<trkpt lat="44.9417571" lon="5.3945691">
<ele>958.42</ele>
<time>2019-07-25T10:35:32Z</time>
</trkpt>
<trkpt lat="44.9417459" lon="5.3945408">
<ele>958.58</ele>
<time>2019-07-25T10:35:33Z</time>
</trkpt>
<trkpt lat="44.9417374" lon="5.3945220">
<ele>958.74</ele>
<time>2019-07-25T10:35:34Z</time>
</trkpt>
<trkpt lat="44.9417317" lon="5.3945031">
<ele>958.91</ele>
<time>2019-07-25T10:35:35Z</time>
</trkpt>
<trkpt lat="44.9417296" lon="5.3944831">
<ele>959.07</ele>
<time>2019-07-25T10:35:36Z</time>
</trkpt>
<trkpt lat="44.9417246" lon="5.3944529">
<ele>959.23</ele>
<time>2019-07-25T10:35:37Z</time>
</trkpt>
<trkpt lat="44.9417177" lon="5.3944301">
<ele>959.39</ele>
<time>2019-07-25T10:35:38Z</time>
</trkpt>
<trkpt lat="44.9417126" lon="5.3944151">
<ele>959.56</ele>
<time>2019-07-25T10:35:39Z</time>
</trkpt>
<trkpt lat="44.9417086" lon="5.3943855">
<ele>959.72</ele>
<time>2019-07-25T10:35:40Z</time>
</trkpt>
<trkpt lat="44.9417121" lon="5.3943557">
<ele>959.89</ele>
<time>2019-07-25T10:35:41Z</time>
</trkpt>
<trkpt lat="44.9417134" lon="5.3943379">
<ele>960.05</ele>
<time>2019-07-25T10:35:42Z</time>
</trkpt>
<trkpt lat="44.9417143" lon="5.3942996">
<ele>960.22</ele>
<time>2019-07-25T10:35:43Z</time>
</trkpt>
<trkpt lat="44.9417161" lon="5.3942736">
<ele>960.39</ele>
<time>2019-07-25T10:35:44Z</time>
</trkpt>
<trkpt lat="44.9417168" lon="5.3942500">
<ele>960.55</ele>
<time>2019-07-25T10:35:45Z</time>
</trkpt>
<trkpt lat="44.9417152" lon="5.3942438">
<ele>960.72</ele>
<time>2019-07-25T10:35:46Z</time>
</trkpt>
<trkpt lat="44.9417121" lon="5.3942381">
<ele>960.88</ele>
<time>2019-07-25T10:35:47Z</time>
</trkpt>
<trkpt lat="44.9417105" lon="5.3942322">
<ele>961.05</ele>
<time>2019-07-25T10:35:48Z</time>
</trkpt>
<trkpt lat="44.9417099" lon="5.3942375">
<ele>961.06</ele>
<time>2019-07-25T10:35:49Z</time>
</trkpt>
<trkpt lat="44.9417090" lon="5.3942268">
<ele>961.08</ele>
<time>2019-07-25T10:35:50Z</time>
</trkpt>
<trkpt lat="44.9417075" lon="5.3942164">
<ele>961.24</ele>
<time>2019-07-25T10:35:51Z</time>
</trkpt>
<trkpt lat="44.9417096" lon="5.3942126">
<ele>961.40</ele>
<time>2019-07-25T10:35:52Z</time>
</trkpt>
<trkpt lat="44.9417080" lon="5.3942215">
<ele>961.56</ele>
<time>2019-07-25T10:35:53Z</time>
</trkpt>
<trkpt lat="44.9417092" lon="5.3942181">
<ele>961.72</ele>
<time>2019-07-25T10:35:54Z</time>
</trkpt>
<trkpt lat="44.9417158" lon="5.3942218">
<ele>961.87</ele>
<time>2019-07-25T10:35:55Z</time>
</trkpt>
<trkpt lat="44.9417211" lon="5.3942309">
<ele>962.03</ele>
<time>2019-07-25T10:35:56Z</time>
</trkpt>
<trkpt lat="44.9417262" lon="5.3942443">
<ele>962.19</ele>
<time>2019-07-25T10:35:57Z</time>
</trkpt>
<trkpt lat="44.9417278" lon="5.3942619">
<ele>962.34</ele>
<time>2019-07-25T10:35:58Z</time>
</trkpt>
<trkpt lat="44.9417279" lon="5.3942722">
<ele>962.50</ele>
<time>2019-07-25T10:35:59Z</time>
</trkpt>
<trkpt lat="44.9417281" lon="5.3942888">
<ele>962.65</ele>
<time>2019-07-25T10:36:00Z</time>
</trkpt>
<trkpt lat="44.9417268" lon="5.3943059">
<ele>962.80</ele>
<time>2019-07-25T10:36:01Z</time>
</trkpt>
<trkpt lat="44.9417272" lon="5.3943187">
<ele>962.95</ele>
<time>2019-07-25T10:36:02Z</time>
</trkpt>
<trkpt lat="44.9417357" lon="5.3943355">
<ele>963.10</ele>
<time>2019-07-25T10:36:03Z</time>
</trkpt>
<trkpt lat="44.9417452" lon="5.3943483">
<ele>963.24</ele>
<time>2019-07-25T10:36:04Z</time>
</trkpt>
<trkpt lat="44.9417514" lon="5.3943592">
<ele>963.38</ele>
<time>2019-07-25T10:36:05Z</time>
</trkpt>
<trkpt lat="44.9417619" lon="5.3943721">
<ele>963.52</ele>
<time>2019-07-25T10:36:06Z</time>
</trkpt>
<trkpt lat="44.9417682" lon="5.3943936">
<ele>963.65</ele>
<time>2019-07-25T10:36:07Z</time>
</trkpt>
<trkpt lat="44.9417814" lon="5.3944300">
<ele>963.77</ele>
<time>2019-07-25T10:36:08Z</time>
</trkpt>
<trkpt lat="44.9417965" lon="5.3944722">
<ele>963.89</ele>
<time>2019-07-25T10:36:09Z</time>
</trkpt>
<trkpt lat="44.9418011" lon="5.3945074">
<ele>964.00</ele>
<time>2019-07-25T10:36:10Z</time>
</trkpt>
<trkpt lat="44.9417949" lon="5.3945488">
<ele>964.11</ele>
<time>2019-07-25T10:36:11Z</time>
</trkpt>
<trkpt lat="44.9417716" lon="5.3945525">
<ele>964.22</ele>
<time>2019-07-25T10:36:12Z</time>
</trkpt>
<trkpt lat="44.9417432" lon="5.3945707">
<ele>964.33</ele>
<time>2019-07-25T10:36:13Z</time>
</trkpt>
<trkpt lat="44.9417188" lon="5.3946034">
<ele>964.44</ele>
<time>2019-07-25T10:36:14Z</time>
</trkpt>
<trkpt lat="44.9417089" lon="5.3946189">
<ele>964.54</ele>
<time>2019-07-25T10:36:15Z</time>
</trkpt>
<trkpt lat="44.9416977" lon="5.3946411">
<ele>964.65</ele>
<time>2019-07-25T10:36:16Z</time>
</trkpt>
<trkpt lat="44.9416886" lon="5.3946553">
<ele>964.76</ele>
<time>2019-07-25T10:36:17Z</time>
</trkpt>
<trkpt lat="44.9416777" lon="5.3946757">
<ele>964.86</ele>
<time>2019-07-25T10:36:18Z</time>
</trkpt>
<trkpt lat="44.9416564" lon="5.3946949">
<ele>964.97</ele>
<time>2019-07-25T10:36:19Z</time>
</trkpt>
<trkpt lat="44.9416298" lon="5.3947042">
<ele>965.07</ele>
<time>2019-07-25T10:36:20Z</time>
</trkpt>
<trkpt lat="44.9416036" lon="5.3947092">
<ele>965.18</ele>
<time>2019-07-25T10:36:21Z</time>
</trkpt>
<trkpt lat="44.9415787" lon="5.3947238">
<ele>965.28</ele>
<time>2019-07-25T10:36:22Z</time>
</trkpt>
<trkpt lat="44.9415583" lon="5.3947268">
<ele>965.38</ele>
<time>2019-07-25T10:36:23Z</time>
</trkpt>
<trkpt lat="44.9415443" lon="5.3947503">
<ele>965.48</ele>
<time>2019-07-25T10:36:24Z</time>
</trkpt>
<trkpt lat="44.9415387" lon="5.3947751">
<ele>965.58</ele>
<time>2019-07-25T10:36:25Z</time>
</trkpt>
<trkpt lat="44.9415311" lon="5.3948103">
<ele>965.69</ele>
<time>2019-07-25T10:36:26Z</time>
</trkpt>
<trkpt lat="44.9415241" lon="5.3948386">
<ele>965.80</ele>
<time>2019-07-25T10:36:27Z</time>
</trkpt>
<trkpt lat="44.9415109" lon="5.3948545">
<ele>965.92</ele>
<time>2019-07-25T10:36:28Z</time>
</trkpt>
<trkpt lat="44.9414941" lon="5.3948868">
<ele>966.03</ele>
<time>2019-07-25T10:36:29Z</time>
</trkpt>
<trkpt lat="44.9414806" lon="5.3949037">
<ele>966.15</ele>
<time>2019-07-25T10:36:30Z</time>
</trkpt>
<trkpt lat="44.9414690" lon="5.3949229">
<ele>966.27</ele>
<time>2019-07-25T10:36:31Z</time>
</trkpt>
<trkpt lat="44.9414546" lon="5.3949526">
<ele>966.39</ele>
<time>2019-07-25T10:36:32Z</time>
</trkpt>
<trkpt lat="44.9414413" lon="5.3949702">
<ele>966.52</ele>
<time>2019-07-25T10:36:33Z</time>
</trkpt>
<trkpt lat="44.9414192" lon="5.3949927">
<ele>966.65</ele>
<time>2019-07-25T10:36:34Z</time>
</trkpt>
<trkpt lat="44.9414034" lon="5.3950090">
<ele>966.78</ele>
<time>2019-07-25T10:36:35Z</time>
</trkpt>
<trkpt lat="44.9413856" lon="5.3950264">
<ele>966.92</ele>
<time>2019-07-25T10:36:36Z</time>
</trkpt>
<trkpt lat="44.9413747" lon="5.3950356">
<ele>967.05</ele>
<time>2019-07-25T10:36:37Z</time>
</trkpt>
<trkpt lat="44.9413635" lon="5.3950545">
<ele>967.20</ele>
<time>2019-07-25T10:36:38Z</time>
</trkpt>
<trkpt lat="44.9413553" lon="5.3950744">
<ele>967.35</ele>
<time>2019-07-25T10:36:39Z</time>
</trkpt>
<trkpt lat="44.9413429" lon="5.3950793">
<ele>967.49</ele>
<time>2019-07-25T10:36:40Z</time>
</trkpt>
<trkpt lat="44.9413297" lon="5.3950881">
<ele>967.63</ele>
<time>2019-07-25T10:36:41Z</time>
</trkpt>
<trkpt lat="44.9413173" lon="5.3951024">
<ele>967.77</ele>
<time>2019-07-25T10:36:42Z</time>
</trkpt>
<trkpt lat="44.9413068" lon="5.3951190">
<ele>967.91</ele>
<time>2019-07-25T10:36:43Z</time>
</trkpt>
<trkpt lat="44.9412926" lon="5.3951340">
<ele>968.04</ele>
<time>2019-07-25T10:36:44Z</time>
</trkpt>
<trkpt lat="44.9412771" lon="5.3951512">
<ele>968.17</ele>
<time>2019-07-25T10:36:45Z</time>
</trkpt>
<trkpt lat="44.9412632" lon="5.3951695">
<ele>968.30</ele>
<time>2019-07-25T10:36:46Z</time>
</trkpt>
<trkpt lat="44.9412468" lon="5.3951867">
<ele>968.43</ele>
<time>2019-07-25T10:36:47Z</time>
</trkpt>
<trkpt lat="44.9412280" lon="5.3951996">
<ele>968.56</ele>
<time>2019-07-25T10:36:48Z</time>
</trkpt>
<trkpt lat="44.9412097" lon="5.3952096">
<ele>968.68</ele>
<time>2019-07-25T10:36:49Z</time>
</trkpt>
<trkpt lat="44.9411899" lon="5.3952222">
<ele>968.80</ele>
<time>2019-07-25T10:36:50Z</time>
</trkpt>
<trkpt lat="44.9411691" lon="5.3952317">
<ele>968.92</ele>
<time>2019-07-25T10:36:51Z</time>
</trkpt>
<trkpt lat="44.9411477" lon="5.3952436">
<ele>969.03</ele>
<time>2019-07-25T10:36:52Z</time>
</trkpt>
<trkpt lat="44.9411284" lon="5.3952565">
<ele>969.14</ele>
<time>2019-07-25T10:36:53Z</time>
</trkpt>
<trkpt lat="44.9411093" lon="5.3952742">
<ele>969.25</ele>
<time>2019-07-25T10:36:54Z</time>
</trkpt>
<trkpt lat="44.9410910" lon="5.3952916">
<ele>969.35</ele>
<time>2019-07-25T10:36:55Z</time>
</trkpt>
<trkpt lat="44.9410763" lon="5.3953051">
<ele>969.46</ele>
<time>2019-07-25T10:36:56Z</time>
</trkpt>
<trkpt lat="44.9410637" lon="5.3953166">
<ele>969.56</ele>
<time>2019-07-25T10:36:57Z</time>
</trkpt>
<trkpt lat="44.9410516" lon="5.3953275">
<ele>969.67</ele>
<time>2019-07-25T10:36:58Z</time>
</trkpt>
<trkpt lat="44.9410368" lon="5.3953409">
<ele>969.77</ele>
<time>2019-07-25T10:36:59Z</time>
</trkpt>
<trkpt lat="44.9410234" lon="5.3953498">
<ele>969.88</ele>
<time>2019-07-25T10:37:00Z</time>
</trkpt>
<trkpt lat="44.9410048" lon="5.3953552">
<ele>969.98</ele>
<time>2019-07-25T10:37:01Z</time>
</trkpt>
<trkpt lat="44.9409821" lon="5.3953617">
<ele>970.08</ele>
<time>2019-07-25T10:37:02Z</time>
</trkpt>
<trkpt lat="44.9409617" lon="5.3953642">
<ele>970.18</ele>
<time>2019-07-25T10:37:03Z</time>
</trkpt>
<trkpt lat="44.9409434" lon="5.3953669">
<ele>970.28</ele>
<time>2019-07-25T10:37:04Z</time>
</trkpt>
<trkpt lat="44.9409268" lon="5.3953697">
<ele>970.38</ele>
<time>2019-07-25T10:37:05Z</time>
</trkpt>
<trkpt lat="44.9409181" lon="5.3953755">
<ele>970.49</ele>
<time>2019-07-25T10:37:06Z</time>
</trkpt>
<trkpt lat="44.9409153" lon="5.3953930">
<ele>970.60</ele>
<time>2019-07-25T10:37:07Z</time>
</trkpt>
<trkpt lat="44.9409168" lon="5.3954187">
<ele>970.72</ele>
<time>2019-07-25T10:37:08Z</time>
</trkpt>
<trkpt lat="44.9409169" lon="5.3954438">
<ele>970.84</ele>
<time>2019-07-25T10:37:09Z</time>
</trkpt>
<trkpt lat="44.9409148" lon="5.3954608">
<ele>970.97</ele>
<time>2019-07-25T10:37:10Z</time>
</trkpt>
<trkpt lat="44.9409087" lon="5.3954871">
<ele>971.10</ele>
<time>2019-07-25T10:37:11Z</time>
</trkpt>
<trkpt lat="44.9409068" lon="5.3955098">
<ele>971.23</ele>
<time>2019-07-25T10:37:12Z</time>
</trkpt>
<trkpt lat="44.9409005" lon="5.3955261">
<ele>971.36</ele>
<time>2019-07-25T10:37:13Z</time>
</trkpt>
<trkpt lat="44.9408852" lon="5.3955472">
<ele>971.50</ele>
<time>2019-07-25T10:37:14Z</time>
</trkpt>
<trkpt lat="44.9408670" lon="5.3955679">
<ele>971.63</ele>
<time>2019-07-25T10:37:15Z</time>
</trkpt>
<trkpt lat="44.9408465" lon="5.3955786">
<ele>971.76</ele>
<time>2019-07-25T10:37:16Z</time>
</trkpt>
<trkpt lat="44.9408270" lon="5.3955800">
<ele>971.88</ele>
<time>2019-07-25T10:37:17Z</time>
</trkpt>
<trkpt lat="44.9408043" lon="5.3955828">
<ele>972.00</ele>
<time>2019-07-25T10:37:18Z</time>
</trkpt>
<trkpt lat="44.9407789" lon="5.3955931">
<ele>972.11</ele>
<time>2019-07-25T10:37:19Z</time>
</trkpt>
<trkpt lat="44.9407588" lon="5.3955980">
<ele>972.23</ele>
<time>2019-07-25T10:37:20Z</time>
</trkpt>
<trkpt lat="44.9407371" lon="5.3956046">
<ele>972.34</ele>
<time>2019-07-25T10:37:21Z</time>
</trkpt>
<trkpt lat="44.9407133" lon="5.3956103">
<ele>972.44</ele>
<time>2019-07-25T10:37:22Z</time>
</trkpt>
<trkpt lat="44.9406936" lon="5.3956140">
<ele>972.55</ele>
<time>2019-07-25T10:37:23Z</time>
</trkpt>
<trkpt lat="44.9406742" lon="5.3956211">
<ele>972.66</ele>
<time>2019-07-25T10:37:24Z</time>
</trkpt>
<trkpt lat="44.9406508" lon="5.3956273">
<ele>972.76</ele>
<time>2019-07-25T10:37:25Z</time>
</trkpt>
<trkpt lat="44.9406344" lon="5.3956262">
<ele>972.86</ele>
<time>2019-07-25T10:37:26Z</time>
</trkpt>
<trkpt lat="44.9406170" lon="5.3956305">
<ele>972.97</ele>
<time>2019-07-25T10:37:27Z</time>
</trkpt>
<trkpt lat="44.9406024" lon="5.3956379">
<ele>973.07</ele>
<time>2019-07-25T10:37:28Z</time>
</trkpt>
<trkpt lat="44.9405884" lon="5.3956419">
<ele>973.17</ele>
<time>2019-07-25T10:37:29Z</time>
</trkpt>
<trkpt lat="44.9405713" lon="5.3956488">
<ele>973.28</ele>
<time>2019-07-25T10:37:30Z</time>
</trkpt>
<trkpt lat="44.9405496" lon="5.3956561">
<ele>973.38</ele>
<time>2019-07-25T10:37:31Z</time>
</trkpt>
<trkpt lat="44.9405232" lon="5.3956561">
<ele>973.48</ele>
<time>2019-07-25T10:37:32Z</time>
</trkpt>
<trkpt lat="44.9404908" lon="5.3956466">
<ele>973.58</ele>
<time>2019-07-25T10:37:33Z</time>
</trkpt>
<trkpt lat="44.9404575" lon="5.3956447">
<ele>973.68</ele>
<time>2019-07-25T10:37:34Z</time>
</trkpt>
<trkpt lat="44.9404256" lon="5.3956485">
<ele>973.78</ele>
<time>2019-07-25T10:37:35Z</time>
</trkpt>
<trkpt lat="44.9403944" lon="5.3956512">
<ele>973.88</ele>
<time>2019-07-25T10:37:36Z</time>
</trkpt>
<trkpt lat="44.9403604" lon="5.3956669">
<ele>973.98</ele>
<time>2019-07-25T10:37:37Z</time>
</trkpt>
<trkpt lat="44.9403178" lon="5.3956610">
<ele>974.07</ele>
<time>2019-07-25T10:37:38Z</time>
</trkpt>
<trkpt lat="44.9402822" lon="5.3956647">
<ele>974.17</ele>
<time>2019-07-25T10:37:39Z</time>
</trkpt>
<trkpt lat="44.9402490" lon="5.3956984">
<ele>974.26</ele>
<time>2019-07-25T10:37:40Z</time>
</trkpt>
<trkpt lat="44.9402183" lon="5.3957247">
<ele>974.35</ele>
<time>2019-07-25T10:37:41Z</time>
</trkpt>
<trkpt lat="44.9401873" lon="5.3957574">
<ele>974.45</ele>
<time>2019-07-25T10:37:42Z</time>
</trkpt>
<trkpt lat="44.9401569" lon="5.3957878">
<ele>974.54</ele>
<time>2019-07-25T10:37:43Z</time>
</trkpt>
<trkpt lat="44.9401297" lon="5.3958137">
<ele>974.64</ele>
<time>2019-07-25T10:37:44Z</time>
</trkpt>
<trkpt lat="44.9401083" lon="5.3958524">
<ele>974.74</ele>
<time>2019-07-25T10:37:45Z</time>
</trkpt>
<trkpt lat="44.9400921" lon="5.3959071">
<ele>974.84</ele>
<time>2019-07-25T10:37:46Z</time>
</trkpt>
<trkpt lat="44.9400802" lon="5.3959570">
<ele>974.95</ele>
<time>2019-07-25T10:37:47Z</time>
</trkpt>
<trkpt lat="44.9400710" lon="5.3960114">
<ele>975.06</ele>
<time>2019-07-25T10:37:48Z</time>
</trkpt>
<trkpt lat="44.9400422" lon="5.3960460">
<ele>975.17</ele>
<time>2019-07-25T10:37:49Z</time>
</trkpt>
<trkpt lat="44.9400038" lon="5.3960810">
<ele>975.27</ele>
<time>2019-07-25T10:37:50Z</time>
</trkpt>
<trkpt lat="44.9399819" lon="5.3961185">
<ele>975.38</ele>
<time>2019-07-25T10:37:51Z</time>
</trkpt>
<trkpt lat="44.9399628" lon="5.3961469">
<ele>975.49</ele>
<time>2019-07-25T10:37:52Z</time>
</trkpt>
<trkpt lat="44.9399503" lon="5.3961862">
<ele>975.59</ele>
<time>2019-07-25T10:37:53Z</time>
</trkpt>
<trkpt lat="44.9399481" lon="5.3962424">
<ele>975.71</ele>
<time>2019-07-25T10:37:54Z</time>
</trkpt>
<trkpt lat="44.9399376" lon="5.3962892">
<ele>975.82</ele>
<time>2019-07-25T10:37:55Z</time>
</trkpt>
<trkpt lat="44.9399298" lon="5.3963305">
<ele>975.94</ele>
<time>2019-07-25T10:37:56Z</time>
</trkpt>
<trkpt lat="44.9399214" lon="5.3963796">
<ele>976.05</ele>
<time>2019-07-25T10:37:57Z</time>
</trkpt>
<trkpt lat="44.9399157" lon="5.3964094">
<ele>976.17</ele>
<time>2019-07-25T10:37:58Z</time>
</trkpt>
<trkpt lat="44.9399030" lon="5.3964465">
<ele>976.29</ele>
<time>2019-07-25T10:37:59Z</time>
</trkpt>
<trkpt lat="44.9398879" lon="5.3964878">
<ele>976.42</ele>
<time>2019-07-25T10:38:00Z</time>
</trkpt>
<trkpt lat="44.9398768" lon="5.3965251">
<ele>976.55</ele>
<time>2019-07-25T10:38:01Z</time>
</trkpt>
<trkpt lat="44.9398698" lon="5.3965484">
<ele>976.67</ele>
<time>2019-07-25T10:38:02Z</time>
</trkpt>
<trkpt lat="44.9398523" lon="5.3965972">
<ele>976.80</ele>
<time>2019-07-25T10:38:03Z</time>
</trkpt>
<trkpt lat="44.9398344" lon="5.3966399">
<ele>976.92</ele>
<time>2019-07-25T10:38:04Z</time>
</trkpt>
<trkpt lat="44.9398172" lon="5.3966680">
<ele>977.04</ele>
<time>2019-07-25T10:38:05Z</time>
</trkpt>
<trkpt lat="44.9397999" lon="5.3966997">
<ele>977.16</ele>
<time>2019-07-25T10:38:06Z</time>
</trkpt>
<trkpt lat="44.9397848" lon="5.3967283">
<ele>977.27</ele>
<time>2019-07-25T10:38:07Z</time>
</trkpt>
<trkpt lat="44.9397702" lon="5.3967548">
<ele>977.39</ele>
<time>2019-07-25T10:38:08Z</time>
</trkpt>
<trkpt lat="44.9397526" lon="5.3967881">
<ele>977.51</ele>
<time>2019-07-25T10:38:09Z</time>
</trkpt>
<trkpt lat="44.9397366" lon="5.3968205">
<ele>977.62</ele>
<time>2019-07-25T10:38:10Z</time>
</trkpt>
<trkpt lat="44.9397197" lon="5.3968555">
<ele>977.74</ele>
<time>2019-07-25T10:38:11Z</time>
</trkpt>
<trkpt lat="44.9397049" lon="5.3968852">
<ele>977.86</ele>
<time>2019-07-25T10:38:12Z</time>
</trkpt>
<trkpt lat="44.9396877" lon="5.3969210">
<ele>977.97</ele>
<time>2019-07-25T10:38:13Z</time>
</trkpt>
<trkpt lat="44.9396715" lon="5.3969562">
<ele>978.10</ele>
<time>2019-07-25T10:38:14Z</time>
</trkpt>
<trkpt lat="44.9396582" lon="5.3969835">
<ele>978.24</ele>
<time>2019-07-25T10:38:15Z</time>
</trkpt>
<trkpt lat="44.9396478" lon="5.3970019">
<ele>978.42</ele>
<time>2019-07-25T10:38:16Z</time>
</trkpt>
<trkpt lat="44.9396306" lon="5.3970316">
<ele>978.61</ele>
<time>2019-07-25T10:38:17Z</time>
</trkpt>
<trkpt lat="44.9396068" lon="5.3970654">
<ele>978.80</ele>
<time>2019-07-25T10:38:18Z</time>
</trkpt>
<trkpt lat="44.9395891" lon="5.3970868">
<ele>979.03</ele>
<time>2019-07-25T10:38:19Z</time>
</trkpt>
<trkpt lat="44.9395765" lon="5.3971027">
<ele>979.29</ele>
<time>2019-07-25T10:38:20Z</time>
</trkpt>
<trkpt lat="44.9395583" lon="5.3971499">
<ele>979.53</ele>
<time>2019-07-25T10:38:21Z</time>
</trkpt>
<trkpt lat="44.9395405" lon="5.3971814">
<ele>979.78</ele>
<time>2019-07-25T10:38:22Z</time>
</trkpt>
<trkpt lat="44.9395283" lon="5.3972050">
<ele>980.05</ele>
<time>2019-07-25T10:38:23Z</time>
</trkpt>
<trkpt lat="44.9395175" lon="5.3972412">
<ele>980.32</ele>
<time>2019-07-25T10:38:24Z</time>
</trkpt>
<trkpt lat="44.9395041" lon="5.3972722">
<ele>980.58</ele>
<time>2019-07-25T10:38:25Z</time>
</trkpt>
<trkpt lat="44.9394962" lon="5.3972890">
<ele>980.85</ele>
<time>2019-07-25T10:38:26Z</time>
</trkpt>
<trkpt lat="44.9394948" lon="5.3973146">
<ele>981.11</ele>
<time>2019-07-25T10:38:27Z</time>
</trkpt>
<trkpt lat="44.9394865" lon="5.3973396">
<ele>981.36</ele>
<time>2019-07-25T10:38:28Z</time>
</trkpt>
<trkpt lat="44.9394807" lon="5.3973575">
<ele>981.61</ele>
<time>2019-07-25T10:38:29Z</time>
</trkpt>
<trkpt lat="44.9394716" lon="5.3973737">
<ele>981.86</ele>
<time>2019-07-25T10:38:30Z</time>
</trkpt>
<trkpt lat="44.9394532" lon="5.3973996">
<ele>982.10</ele>
<time>2019-07-25T10:38:31Z</time>
</trkpt>
<trkpt lat="44.9394226" lon="5.3974159">
<ele>982.34</ele>
<time>2019-07-25T10:38:32Z</time>
</trkpt>
<trkpt lat="44.9393994" lon="5.3974325">
<ele>982.59</ele>
<time>2019-07-25T10:38:33Z</time>
</trkpt>
<trkpt lat="44.9393703" lon="5.3974531">
<ele>982.83</ele>
<time>2019-07-25T10:38:34Z</time>
</trkpt>
<trkpt lat="44.9393461" lon="5.3974713">
<ele>983.07</ele>
<time>2019-07-25T10:38:35Z</time>
</trkpt>
<trkpt lat="44.9393243" lon="5.3974840">
<ele>983.31</ele>
<time>2019-07-25T10:38:36Z</time>
</trkpt>
<trkpt lat="44.9392999" lon="5.3974987">
<ele>983.56</ele>
<time>2019-07-25T10:38:37Z</time>
</trkpt>
<trkpt lat="44.9392805" lon="5.3975117">
<ele>983.80</ele>
<time>2019-07-25T10:38:38Z</time>
</trkpt>
<trkpt lat="44.9392662" lon="5.3975185">
<ele>984.04</ele>
<time>2019-07-25T10:38:39Z</time>
</trkpt>
<trkpt lat="44.9392536" lon="5.3975383">
<ele>984.29</ele>
<time>2019-07-25T10:38:40Z</time>
</trkpt>
<trkpt lat="44.9392497" lon="5.3975446">
<ele>984.54</ele>
<time>2019-07-25T10:38:41Z</time>
</trkpt>
<trkpt lat="44.9392434" lon="5.3975695">
<ele>984.81</ele>
<time>2019-07-25T10:38:42Z</time>
</trkpt>
<trkpt lat="44.9392613" lon="5.3975639">
<ele>985.09</ele>
<time>2019-07-25T10:38:43Z</time>
</trkpt>
<trkpt lat="44.9392627" lon="5.3975857">
<ele>985.38</ele>
<time>2019-07-25T10:38:44Z</time>
</trkpt>
<trkpt lat="44.9392598" lon="5.3976074">
<ele>985.68</ele>
<time>2019-07-25T10:38:45Z</time>
</trkpt>
<trkpt lat="44.9392437" lon="5.3976359">
<ele>985.98</ele>
<time>2019-07-25T10:38:46Z</time>
</trkpt>
<trkpt lat="44.9392113" lon="5.3976389">
<ele>986.27</ele>
<time>2019-07-25T10:38:47Z</time>
</trkpt>
<trkpt lat="44.9391842" lon="5.3976751">
<ele>986.55</ele>
<time>2019-07-25T10:38:48Z</time>
</trkpt>
<trkpt lat="44.9391683" lon="5.3976857">
<ele>986.84</ele>
<time>2019-07-25T10:38:49Z</time>
</trkpt>
<trkpt lat="44.9391516" lon="5.3976890">
<ele>987.13</ele>
<time>2019-07-25T10:38:50Z</time>
</trkpt>
<trkpt lat="44.9391366" lon="5.3976929">
<ele>987.41</ele>
<time>2019-07-25T10:38:51Z</time>
</trkpt>
<trkpt lat="44.9391100" lon="5.3977109">
<ele>987.69</ele>
<time>2019-07-25T10:38:52Z</time>
</trkpt>
<trkpt lat="44.9390925" lon="5.3977173">
<ele>987.96</ele>
<time>2019-07-25T10:38:53Z</time>
</trkpt>
<trkpt lat="44.9390789" lon="5.3977238">
<ele>988.24</ele>
<time>2019-07-25T10:38:54Z</time>
</trkpt>
<trkpt lat="44.9390580" lon="5.3977385">
<ele>988.51</ele>
<time>2019-07-25T10:38:55Z</time>
</trkpt>
<trkpt lat="44.9390449" lon="5.3977489">
<ele>988.78</ele>
<time>2019-07-25T10:38:56Z</time>
</trkpt>
<trkpt lat="44.9390229" lon="5.3977682">
<ele>989.05</ele>
<time>2019-07-25T10:38:57Z</time>
</trkpt>
<trkpt lat="44.9389886" lon="5.3977874">
<ele>989.32</ele>
<time>2019-07-25T10:38:58Z</time>
</trkpt>
<trkpt lat="44.9389627" lon="5.3977955">
<ele>989.59</ele>
<time>2019-07-25T10:38:59Z</time>
</trkpt>
<trkpt lat="44.9389378" lon="5.3978017">
<ele>989.85</ele>
<time>2019-07-25T10:39:00Z</time>
</trkpt>
<trkpt lat="44.9389148" lon="5.3978065">
<ele>990.10</ele>
<time>2019-07-25T10:39:01Z</time>
</trkpt>
<trkpt lat="44.9388934" lon="5.3978110">
<ele>990.36</ele>
<time>2019-07-25T10:39:02Z</time>
</trkpt>
<trkpt lat="44.9388686" lon="5.3978131">
<ele>990.61</ele>
<time>2019-07-25T10:39:03Z</time>
</trkpt>
<trkpt lat="44.9388482" lon="5.3978322">
<ele>990.86</ele>
<time>2019-07-25T10:39:04Z</time>
</trkpt>
<trkpt lat="44.9388268" lon="5.3978572">
<ele>991.11</ele>
<time>2019-07-25T10:39:05Z</time>
</trkpt>
<trkpt lat="44.9388034" lon="5.3978826">
<ele>991.35</ele>
<time>2019-07-25T10:39:06Z</time>
</trkpt>
<trkpt lat="44.9387901" lon="5.3979021">
<ele>991.59</ele>
<time>2019-07-25T10:39:07Z</time>
</trkpt>
<trkpt lat="44.9387815" lon="5.3979150">
<ele>991.83</ele>
<time>2019-07-25T10:39:08Z</time>
</trkpt>
<trkpt lat="44.9387711" lon="5.3979321">
<ele>992.07</ele>
<time>2019-07-25T10:39:09Z</time>
</trkpt>
<trkpt lat="44.9387484" lon="5.3979586">
<ele>992.29</ele>
<time>2019-07-25T10:39:10Z</time>
</trkpt>
<trkpt lat="44.9387264" lon="5.3979805">
<ele>992.50</ele>
<time>2019-07-25T10:39:11Z</time>
</trkpt>
<trkpt lat="44.9387083" lon="5.3979970">
<ele>992.70</ele>
<time>2019-07-25T10:39:12Z</time>
</trkpt>
<trkpt lat="44.9386959" lon="5.3980179">
<ele>992.90</ele>
<time>2019-07-25T10:39:13Z</time>
</trkpt>
<trkpt lat="44.9386979" lon="5.3980185">
<ele>992.91</ele>
<time>2019-07-25T10:39:14Z</time>
</trkpt>
<trkpt lat="44.9386948" lon="5.3980253">
<ele>993.11</ele>
<time>2019-07-25T10:39:15Z</time>
</trkpt>
<trkpt lat="44.9386965" lon="5.3980225">
<ele>993.31</ele>
<time>2019-07-25T10:39:16Z</time>
</trkpt>
<trkpt lat="44.9386955" lon="5.3980266">
<ele>993.50</ele>
<time>2019-07-25T10:39:17Z</time>
</trkpt>
<trkpt lat="44.9386958" lon="5.3980301">
<ele>993.69</ele>
<time>2019-07-25T10:39:18Z</time>
</trkpt>
<trkpt lat="44.9386965" lon="5.3980296">
<ele>993.70</ele>
<time>2019-07-25T10:39:19Z</time>
</trkpt>
<trkpt lat="44.9386974" lon="5.3980213">
<ele>993.88</ele>
<time>2019-07-25T10:39:20Z</time>
</trkpt>
<trkpt lat="44.9386977" lon="5.3980158">
<ele>993.89</ele>
<time>2019-07-25T10:39:21Z</time>
</trkpt>
<trkpt lat="44.9387001" lon="5.3980203">
<ele>993.91</ele>
<time>2019-07-25T10:39:22Z</time>
</trkpt>
<trkpt lat="44.9387024" lon="5.3980182">
<ele>993.93</ele>
<time>2019-07-25T10:39:23Z</time>
</trkpt>
<trkpt lat="44.9387035" lon="5.3980120">
<ele>993.94</ele>
<time>2019-07-25T10:39:24Z</time>
</trkpt>
<trkpt lat="44.9387070" lon="5.3980048">
<ele>993.95</ele>
<time>2019-07-25T10:39:25Z</time>
</trkpt>
<trkpt lat="44.9387076" lon="5.3980044">
<ele>993.97</ele>
<time>2019-07-25T10:39:26Z</time>
</trkpt>
<trkpt lat="44.9387078" lon="5.3980051">
<ele>993.98</ele>
<time>2019-07-25T10:39:27Z</time>
</trkpt>
<trkpt lat="44.9387081" lon="5.3980060">
<ele>994.00</ele>
<time>2019-07-25T10:39:28Z</time>
</trkpt>
<trkpt lat="44.9387090" lon="5.3980052">
<ele>994.01</ele>
<time>2019-07-25T10:39:29Z</time>
</trkpt>
<trkpt lat="44.9387090" lon="5.3980057">
<ele>994.03</ele>
<time>2019-07-25T10:39:30Z</time>
</trkpt>
<trkpt lat="44.9387093" lon="5.3980035">
<ele>994.04</ele>
<time>2019-07-25T10:39:31Z</time>
</trkpt>
<trkpt lat="44.9387100" lon="5.3980093">
<ele>994.05</ele>
<time>2019-07-25T10:39:32Z</time>
</trkpt>
<trkpt lat="44.9387070" lon="5.3980090">
<ele>994.17</ele>
<time>2019-07-25T10:39:33Z</time>
</trkpt>
<trkpt lat="44.9387072" lon="5.3980085">
<ele>994.18</ele>
<time>2019-07-25T10:39:34Z</time>
</trkpt>
<trkpt lat="44.9387072" lon="5.3980088">
<ele>994.20</ele>
<time>2019-07-25T10:39:35Z</time>
</trkpt>
<trkpt lat="44.9387073" lon="5.3980090">
<ele>994.21</ele>
<time>2019-07-25T10:39:36Z</time>
</trkpt>
<trkpt lat="44.9387069" lon="5.3980095">
<ele>994.22</ele>
<time>2019-07-25T10:39:37Z</time>
</trkpt>
<trkpt lat="44.9387067" lon="5.3980098">
<ele>994.22</ele>
<time>2019-07-25T10:39:38Z</time>
</trkpt>
<trkpt lat="44.9387065" lon="5.3980098">
<ele>994.23</ele>
<time>2019-07-25T10:39:39Z</time>
</trkpt>
<trkpt lat="44.9387061" lon="5.3980102">
<ele>994.24</ele>
<time>2019-07-25T10:39:40Z</time>
</trkpt>
<trkpt lat="44.9387057" lon="5.3980100">
<ele>994.25</ele>
<time>2019-07-25T10:39:41Z</time>
</trkpt>
<trkpt lat="44.9387054" lon="5.3980104">
<ele>994.25</ele>
<time>2019-07-25T10:39:42Z</time>
</trkpt>
<trkpt lat="44.9387045" lon="5.3980104">
<ele>994.25</ele>
<time>2019-07-25T10:39:43Z</time>
</trkpt>
<trkpt lat="44.9387007" lon="5.3980115">
<ele>994.25</ele>
<time>2019-07-25T10:39:44Z</time>
</trkpt>
<trkpt lat="44.9386974" lon="5.3980159">
<ele>994.25</ele>
<time>2019-07-25T10:39:45Z</time>
</trkpt>
<trkpt lat="44.9386935" lon="5.3980164">
<ele>994.25</ele>
<time>2019-07-25T10:39:46Z</time>
</trkpt>
<trkpt lat="44.9386938" lon="5.3980147">
<ele>994.26</ele>
<time>2019-07-25T10:39:47Z</time>
</trkpt>
<trkpt lat="44.9386781" lon="5.3980374">
<ele>994.27</ele>
<time>2019-07-25T10:39:48Z</time>
</trkpt>
<trkpt lat="44.9386524" lon="5.3980659">
<ele>994.28</ele>
<time>2019-07-25T10:39:49Z</time>
</trkpt>
<trkpt lat="44.9386409" lon="5.3981169">
<ele>994.31</ele>
<time>2019-07-25T10:39:50Z</time>
</trkpt>
<trkpt lat="44.9386210" lon="5.3981578">
<ele>994.36</ele>
<time>2019-07-25T10:39:51Z</time>
</trkpt>
<trkpt lat="44.9386035" lon="5.3981783">
<ele>994.41</ele>
<time>2019-07-25T10:39:52Z</time>
</trkpt>
<trkpt lat="44.9385782" lon="5.3981843">
<ele>994.47</ele>
<time>2019-07-25T10:39:53Z</time>
</trkpt>
<trkpt lat="44.9385600" lon="5.3981572">
<ele>994.54</ele>
<time>2019-07-25T10:39:54Z</time>
</trkpt>
<trkpt lat="44.9385319" lon="5.3981190">
<ele>994.62</ele>
<time>2019-07-25T10:39:55Z</time>
</trkpt>
<trkpt lat="44.9385027" lon="5.3980762">
<ele>994.70</ele>
<time>2019-07-25T10:39:56Z</time>
</trkpt>
<trkpt lat="44.9384837" lon="5.3980174">
<ele>994.79</ele>
<time>2019-07-25T10:39:57Z</time>
</trkpt>
<trkpt lat="44.9384693" lon="5.3979987">
<ele>994.88</ele>
<time>2019-07-25T10:39:58Z</time>
</trkpt>
<trkpt lat="44.9384507" lon="5.3979828">
<ele>994.97</ele>
<time>2019-07-25T10:39:59Z</time>
</trkpt>
<trkpt lat="44.9384252" lon="5.3979507">
<ele>995.05</ele>
<time>2019-07-25T10:40:00Z</time>
</trkpt>
<trkpt lat="44.9384072" lon="5.3979376">
<ele>995.14</ele>
<time>2019-07-25T10:40:01Z</time>
</trkpt>
<trkpt lat="44.9383933" lon="5.3979129">
<ele>995.23</ele>
<time>2019-07-25T10:40:02Z</time>
</trkpt>
<trkpt lat="44.9383779" lon="5.3978841">
<ele>995.33</ele>
<time>2019-07-25T10:40:03Z</time>
</trkpt>
<trkpt lat="44.9383590" lon="5.3978526">
<ele>995.43</ele>
<time>2019-07-25T10:40:04Z</time>
</trkpt>
<trkpt lat="44.9383473" lon="5.3978341">
<ele>995.53</ele>
<time>2019-07-25T10:40:05Z</time>
</trkpt>
<trkpt lat="44.9383303" lon="5.3978134">
<ele>995.63</ele>
<time>2019-07-25T10:40:06Z</time>
</trkpt>
<trkpt lat="44.9383253" lon="5.3977992">
<ele>995.73</ele>
<time>2019-07-25T10:40:07Z</time>
</trkpt>
<trkpt lat="44.9383082" lon="5.3977958">
<ele>995.84</ele>
<time>2019-07-25T10:40:08Z</time>
</trkpt>
<trkpt lat="44.9382849" lon="5.3977980">
<ele>995.95</ele>
<time>2019-07-25T10:40:09Z</time>
</trkpt>
<trkpt lat="44.9382576" lon="5.3977974">
<ele>996.06</ele>
<time>2019-07-25T10:40:10Z</time>
</trkpt>
<trkpt lat="44.9382371" lon="5.3977847">
<ele>996.17</ele>
<time>2019-07-25T10:40:11Z</time>
</trkpt>
<trkpt lat="44.9382182" lon="5.3977764">
<ele>996.28</ele>
<time>2019-07-25T10:40:12Z</time>
</trkpt>
<trkpt lat="44.9382005" lon="5.3977646">
<ele>996.40</ele>
<time>2019-07-25T10:40:13Z</time>
</trkpt>
<trkpt lat="44.9381842" lon="5.3977611">
<ele>996.52</ele>
<time>2019-07-25T10:40:14Z</time>
</trkpt>
<trkpt lat="44.9381680" lon="5.3977638">
<ele>996.63</ele>
<time>2019-07-25T10:40:15Z</time>
</trkpt>
<trkpt lat="44.9381564" lon="5.3977653">
<ele>996.74</ele>
<time>2019-07-25T10:40:16Z</time>
</trkpt>
<trkpt lat="44.9381455" lon="5.3977706">
<ele>996.86</ele>
<time>2019-07-25T10:40:17Z</time>
</trkpt>
<trkpt lat="44.9381239" lon="5.3977735">
<ele>996.97</ele>
<time>2019-07-25T10:40:18Z</time>
</trkpt>
<trkpt lat="44.9381005" lon="5.3977729">
<ele>997.09</ele>
<time>2019-07-25T10:40:19Z</time>
</trkpt>
<trkpt lat="44.9380759" lon="5.3977796">
<ele>997.21</ele>
<time>2019-07-25T10:40:20Z</time>
</trkpt>
<trkpt lat="44.9380516" lon="5.3977896">
<ele>997.33</ele>
<time>2019-07-25T10:40:21Z</time>
</trkpt>
<trkpt lat="44.9380297" lon="5.3977926">
<ele>997.47</ele>
<time>2019-07-25T10:40:22Z</time>
</trkpt>
<trkpt lat="44.9379976" lon="5.3977977">
<ele>997.60</ele>
<time>2019-07-25T10:40:23Z</time>
</trkpt>
<trkpt lat="44.9379733" lon="5.3977976">
<ele>997.73</ele>
<time>2019-07-25T10:40:24Z</time>
</trkpt>
<trkpt lat="44.9379453" lon="5.3977989">
<ele>997.85</ele>
<time>2019-07-25T10:40:25Z</time>
</trkpt>
<trkpt lat="44.9379130" lon="5.3978057">
<ele>997.97</ele>
<time>2019-07-25T10:40:26Z</time>
</trkpt>
<trkpt lat="44.9378870" lon="5.3978081">
<ele>998.09</ele>
<time>2019-07-25T10:40:27Z</time>
</trkpt>
<trkpt lat="44.9378658" lon="5.3978128">
<ele>998.21</ele>
<time>2019-07-25T10:40:28Z</time>
</trkpt>
<trkpt lat="44.9378371" lon="5.3978141">
<ele>998.32</ele>
<time>2019-07-25T10:40:29Z</time>
</trkpt>
<trkpt lat="44.9378016" lon="5.3978308">
<ele>998.43</ele>
<time>2019-07-25T10:40:30Z</time>
</trkpt>
<trkpt lat="44.9377693" lon="5.3978455">
<ele>998.54</ele>
<time>2019-07-25T10:40:31Z</time>
</trkpt>
<trkpt lat="44.9377478" lon="5.3978557">
<ele>998.65</ele>
<time>2019-07-25T10:40:32Z</time>
</trkpt>
<trkpt lat="44.9377219" lon="5.3978754">
<ele>998.76</ele>
<time>2019-07-25T10:40:33Z</time>
</trkpt>
<trkpt lat="44.9376981" lon="5.3978797">
<ele>998.87</ele>
<time>2019-07-25T10:40:34Z</time>
</trkpt>
<trkpt lat="44.9376731" lon="5.3978909">
<ele>998.98</ele>
<time>2019-07-25T10:40:35Z</time>
</trkpt>
<trkpt lat="44.9376468" lon="5.3979032">
<ele>999.09</ele>
<time>2019-07-25T10:40:36Z</time>
</trkpt>
<trkpt lat="44.9376222" lon="5.3979060">
<ele>999.20</ele>
<time>2019-07-25T10:40:37Z</time>
</trkpt>
<trkpt lat="44.9376033" lon="5.3979071">
<ele>999.31</ele>
<time>2019-07-25T10:40:38Z</time>
</trkpt>
<trkpt lat="44.9375793" lon="5.3979152">
<ele>999.43</ele>
<time>2019-07-25T10:40:39Z</time>
</trkpt>
<trkpt lat="44.9375515" lon="5.3979305">
<ele>999.55</ele>
<time>2019-07-25T10:40:40Z</time>
</trkpt>
<trkpt lat="44.9375331" lon="5.3979348">
<ele>999.67</ele>
<time>2019-07-25T10:40:41Z</time>
</trkpt>
<trkpt lat="44.9375135" lon="5.3979401">
<ele>999.80</ele>
<time>2019-07-25T10:40:42Z</time>
</trkpt>
<trkpt lat="44.9374916" lon="5.3979465">
<ele>999.93</ele>
<time>2019-07-25T10:40:43Z</time>
</trkpt>
<trkpt lat="44.9374713" lon="5.3979458">
<ele>1000.06</ele>
<time>2019-07-25T10:40:44Z</time>
</trkpt>
<trkpt lat="44.9374511" lon="5.3979396">
<ele>1000.18</ele>
<time>2019-07-25T10:40:45Z</time>
</trkpt>
<trkpt lat="44.9374253" lon="5.3979371">
<ele>1000.31</ele>
<time>2019-07-25T10:40:46Z</time>
</trkpt>
<trkpt lat="44.9374014" lon="5.3979260">
<ele>1000.44</ele>
<time>2019-07-25T10:40:47Z</time>
</trkpt>
<trkpt lat="44.9373770" lon="5.3979188">
<ele>1000.56</ele>
<time>2019-07-25T10:40:48Z</time>
</trkpt>
<trkpt lat="44.9373478" lon="5.3979139">
<ele>1000.69</ele>
<time>2019-07-25T10:40:49Z</time>
</trkpt>
<trkpt lat="44.9373199" lon="5.3979148">
<ele>1000.82</ele>
<time>2019-07-25T10:40:50Z</time>
</trkpt>
<trkpt lat="44.9372938" lon="5.3979218">
<ele>1000.95</ele>
<time>2019-07-25T10:40:51Z</time>
</trkpt>
<trkpt lat="44.9372712" lon="5.3979225">
<ele>1001.09</ele>
<time>2019-07-25T10:40:52Z</time>
</trkpt>
<trkpt lat="44.9372480" lon="5.3979215">
<ele>1001.23</ele>
<time>2019-07-25T10:40:53Z</time>
</trkpt>
<trkpt lat="44.9372271" lon="5.3979219">
<ele>1001.37</ele>
<time>2019-07-25T10:40:54Z</time>
</trkpt>
<trkpt lat="44.9372063" lon="5.3979296">
<ele>1001.52</ele>
<time>2019-07-25T10:40:55Z</time>
</trkpt>
<trkpt lat="44.9371875" lon="5.3979338">
<ele>1001.67</ele>
<time>2019-07-25T10:40:56Z</time>
</trkpt>
<trkpt lat="44.9371703" lon="5.3979306">
<ele>1001.81</ele>
<time>2019-07-25T10:40:57Z</time>
</trkpt>
<trkpt lat="44.9371580" lon="5.3979276">
<ele>1001.96</ele>
<time>2019-07-25T10:40:58Z</time>
</trkpt>
<trkpt lat="44.9371351" lon="5.3979313">
<ele>1002.11</ele>
<time>2019-07-25T10:40:59Z</time>
</trkpt>
<trkpt lat="44.9371108" lon="5.3979363">
<ele>1002.26</ele>
<time>2019-07-25T10:41:00Z</time>
</trkpt>
<trkpt lat="44.9370868" lon="5.3979367">
<ele>1002.41</ele>
<time>2019-07-25T10:41:01Z</time>
</trkpt>
<trkpt lat="44.9370615" lon="5.3979301">
<ele>1002.56</ele>
<time>2019-07-25T10:41:02Z</time>
</trkpt>
<trkpt lat="44.9370341" lon="5.3979188">
<ele>1002.72</ele>
<time>2019-07-25T10:41:03Z</time>
</trkpt>
<trkpt lat="44.9370088" lon="5.3979032">
<ele>1002.87</ele>
<time>2019-07-25T10:41:04Z</time>
</trkpt>
<trkpt lat="44.9369790" lon="5.3978966">
<ele>1003.02</ele>
<time>2019-07-25T10:41:05Z</time>
</trkpt>
<trkpt lat="44.9369496" lon="5.3978919">
<ele>1003.18</ele>
<time>2019-07-25T10:41:06Z</time>
</trkpt>
<trkpt lat="44.9369208" lon="5.3978880">
<ele>1003.34</ele>
<time>2019-07-25T10:41:07Z</time>
</trkpt>
<trkpt lat="44.9368955" lon="5.3978847">
<ele>1003.49</ele>
<time>2019-07-25T10:41:08Z</time>
</trkpt>
<trkpt lat="44.9368706" lon="5.3978829">
<ele>1003.66</ele>
<time>2019-07-25T10:41:09Z</time>
</trkpt>
<trkpt lat="44.9368511" lon="5.3978873">
<ele>1003.82</ele>
<time>2019-07-25T10:41:10Z</time>
</trkpt>
<trkpt lat="44.9368344" lon="5.3978959">
<ele>1003.99</ele>
<time>2019-07-25T10:41:11Z</time>
</trkpt>
<trkpt lat="44.9368165" lon="5.3978970">
<ele>1004.16</ele>
<time>2019-07-25T10:41:12Z</time>
</trkpt>
<trkpt lat="44.9367950" lon="5.3979015">
<ele>1004.33</ele>
<time>2019-07-25T10:41:13Z</time>
</trkpt>
<trkpt lat="44.9367765" lon="5.3979062">
<ele>1004.50</ele>
<time>2019-07-25T10:41:14Z</time>
</trkpt>
<trkpt lat="44.9367602" lon="5.3979179">
<ele>1004.68</ele>
<time>2019-07-25T10:41:15Z</time>
</trkpt>
<trkpt lat="44.9367508" lon="5.3979270">
<ele>1004.86</ele>
<time>2019-07-25T10:41:16Z</time>
</trkpt>
<trkpt lat="44.9367366" lon="5.3979297">
<ele>1005.04</ele>
<time>2019-07-25T10:41:17Z</time>
</trkpt>
<trkpt lat="44.9367220" lon="5.3979413">
<ele>1005.23</ele>
<time>2019-07-25T10:41:18Z</time>
</trkpt>
<trkpt lat="44.9367076" lon="5.3979548">
<ele>1005.41</ele>
<time>2019-07-25T10:41:19Z</time>
</trkpt>
<trkpt lat="44.9366865" lon="5.3979748">
<ele>1005.60</ele>
<time>2019-07-25T10:41:20Z</time>
</trkpt>
<trkpt lat="44.9366671" lon="5.3979782">
<ele>1005.78</ele>
<time>2019-07-25T10:41:21Z</time>
</trkpt>
<trkpt lat="44.9366440" lon="5.3979847">
<ele>1005.96</ele>
<time>2019-07-25T10:41:22Z</time>
</trkpt>
<trkpt lat="44.9366247" lon="5.3979867">
<ele>1006.15</ele>
<time>2019-07-25T10:41:23Z</time>
</trkpt>
<trkpt lat="44.9366069" lon="5.3979952">
<ele>1006.33</ele>
<time>2019-07-25T10:41:24Z</time>
</trkpt>
<trkpt lat="44.9365894" lon="5.3980032">
<ele>1006.52</ele>
<time>2019-07-25T10:41:25Z</time>
</trkpt>
<trkpt lat="44.9365725" lon="5.3980068">
<ele>1006.71</ele>
<time>2019-07-25T10:41:26Z</time>
</trkpt>
<trkpt lat="44.9365539" lon="5.3979978">
<ele>1006.89</ele>
<time>2019-07-25T10:41:27Z</time>
</trkpt>
<trkpt lat="44.9365327" lon="5.3980072">
<ele>1007.09</ele>
<time>2019-07-25T10:41:28Z</time>
</trkpt>
<trkpt lat="44.9365119" lon="5.3980140">
<ele>1007.28</ele>
<time>2019-07-25T10:41:29Z</time>
</trkpt>
<trkpt lat="44.9364936" lon="5.3980041">
<ele>1007.48</ele>
<time>2019-07-25T10:41:30Z</time>
</trkpt>
<trkpt lat="44.9364735" lon="5.3979961">
<ele>1007.67</ele>
<time>2019-07-25T10:41:31Z</time>
</trkpt>
<trkpt lat="44.9364539" lon="5.3979922">
<ele>1007.87</ele>
<time>2019-07-25T10:41:32Z</time>
</trkpt>
<trkpt lat="44.9364342" lon="5.3979977">
<ele>1008.06</ele>
<time>2019-07-25T10:41:33Z</time>
</trkpt>
<trkpt lat="44.9364170" lon="5.3979991">
<ele>1008.26</ele>
<time>2019-07-25T10:41:34Z</time>
</trkpt>
<trkpt lat="44.9364013" lon="5.3979933">
<ele>1008.46</ele>
<time>2019-07-25T10:41:35Z</time>
</trkpt>
<trkpt lat="44.9363805" lon="5.3979954">
<ele>1008.65</ele>
<time>2019-07-25T10:41:36Z</time>
</trkpt>
<trkpt lat="44.9363586" lon="5.3979999">
<ele>1008.85</ele>
<time>2019-07-25T10:41:37Z</time>
</trkpt>
<trkpt lat="44.9363366" lon="5.3980039">
<ele>1009.05</ele>
<time>2019-07-25T10:41:38Z</time>
</trkpt>
<trkpt lat="44.9363175" lon="5.3980086">
<ele>1009.25</ele>
<time>2019-07-25T10:41:39Z</time>
</trkpt>
<trkpt lat="44.9363009" lon="5.3980078">
<ele>1009.45</ele>
<time>2019-07-25T10:41:40Z</time>
</trkpt>
<trkpt lat="44.9362825" lon="5.3980098">
<ele>1009.65</ele>
<time>2019-07-25T10:41:41Z</time>
</trkpt>
<trkpt lat="44.9362647" lon="5.3980107">
<ele>1009.85</ele>
<time>2019-07-25T10:41:42Z</time>
</trkpt>
<trkpt lat="44.9362487" lon="5.3980123">
<ele>1010.06</ele>
<time>2019-07-25T10:41:43Z</time>
</trkpt>
<trkpt lat="44.9362258" lon="5.3980305">
<ele>1010.27</ele>
<time>2019-07-25T10:41:44Z</time>
</trkpt>
<trkpt lat="44.9362071" lon="5.3980349">
<ele>1010.48</ele>
<time>2019-07-25T10:41:45Z</time>
</trkpt>
<trkpt lat="44.9361819" lon="5.3980523">
<ele>1010.70</ele>
<time>2019-07-25T10:41:46Z</time>
</trkpt>
<trkpt lat="44.9361602" lon="5.3980590">
<ele>1010.91</ele>
<time>2019-07-25T10:41:47Z</time>
</trkpt>
<trkpt lat="44.9361444" lon="5.3980541">
<ele>1011.12</ele>
<time>2019-07-25T10:41:48Z</time>
</trkpt>
<trkpt lat="44.9361281" lon="5.3980531">
<ele>1011.33</ele>
<time>2019-07-25T10:41:49Z</time>
</trkpt>
<trkpt lat="44.9361104" lon="5.3980601">
<ele>1011.54</ele>
<time>2019-07-25T10:41:50Z</time>
</trkpt>
<trkpt lat="44.9360998" lon="5.3980844">
<ele>1011.76</ele>
<time>2019-07-25T10:41:51Z</time>
</trkpt>
<trkpt lat="44.9360895" lon="5.3981061">
<ele>1011.97</ele>
<time>2019-07-25T10:41:52Z</time>
</trkpt>
<trkpt lat="44.9360815" lon="5.3981097">
<ele>1012.18</ele>
<time>2019-07-25T10:41:53Z</time>
</trkpt>
<trkpt lat="44.9360693" lon="5.3981007">
<ele>1012.40</ele>
<time>2019-07-25T10:41:54Z</time>
</trkpt>
<trkpt lat="44.9360516" lon="5.3980985">
<ele>1012.61</ele>
<time>2019-07-25T10:41:55Z</time>
</trkpt>
<trkpt lat="44.9360330" lon="5.3981001">
<ele>1012.81</ele>
<time>2019-07-25T10:41:56Z</time>
</trkpt>
<trkpt lat="44.9360096" lon="5.3981084">
<ele>1013.02</ele>
<time>2019-07-25T10:41:57Z</time>
</trkpt>
<trkpt lat="44.9359836" lon="5.3981191">
<ele>1013.23</ele>
<time>2019-07-25T10:41:58Z</time>
</trkpt>
<trkpt lat="44.9359638" lon="5.3981261">
<ele>1013.43</ele>
<time>2019-07-25T10:41:59Z</time>
</trkpt>
<trkpt lat="44.9359403" lon="5.3981363">
<ele>1013.63</ele>
<time>2019-07-25T10:42:00Z</time>
</trkpt>
<trkpt lat="44.9359156" lon="5.3981442">
<ele>1013.83</ele>
<time>2019-07-25T10:42:01Z</time>
</trkpt>
<trkpt lat="44.9358904" lon="5.3981471">
<ele>1014.04</ele>
<time>2019-07-25T10:42:02Z</time>
</trkpt>
<trkpt lat="44.9358623" lon="5.3981522">
<ele>1014.25</ele>
<time>2019-07-25T10:42:03Z</time>
</trkpt>
<trkpt lat="44.9358363" lon="5.3981583">
<ele>1014.47</ele>
<time>2019-07-25T10:42:04Z</time>
</trkpt>
<trkpt lat="44.9358096" lon="5.3981679">
<ele>1014.68</ele>
<time>2019-07-25T10:42:05Z</time>
</trkpt>
<trkpt lat="44.9357848" lon="5.3981717">
<ele>1014.89</ele>
<time>2019-07-25T10:42:06Z</time>
</trkpt>
<trkpt lat="44.9357520" lon="5.3981818">
<ele>1015.09</ele>
<time>2019-07-25T10:42:07Z</time>
</trkpt>
<trkpt lat="44.9357266" lon="5.3981890">
<ele>1015.30</ele>
<time>2019-07-25T10:42:08Z</time>
</trkpt>
<trkpt lat="44.9357019" lon="5.3981964">
<ele>1015.51</ele>
<time>2019-07-25T10:42:09Z</time>
</trkpt>
<trkpt lat="44.9356766" lon="5.3982027">
<ele>1015.72</ele>
<time>2019-07-25T10:42:10Z</time>
</trkpt>
<trkpt lat="44.9356503" lon="5.3982056">
<ele>1015.93</ele>
<time>2019-07-25T10:42:11Z</time>
</trkpt>
<trkpt lat="44.9356201" lon="5.3982120">
<ele>1016.13</ele>
<time>2019-07-25T10:42:12Z</time>
</trkpt>
<trkpt lat="44.9355893" lon="5.3982205">
<ele>1016.34</ele>
<time>2019-07-25T10:42:13Z</time>
</trkpt>
<trkpt lat="44.9355627" lon="5.3982293">
<ele>1016.55</ele>
<time>2019-07-25T10:42:14Z</time>
</trkpt>
<trkpt lat="44.9355376" lon="5.3982356">
<ele>1016.75</ele>
<time>2019-07-25T10:42:15Z</time>
</trkpt>
<trkpt lat="44.9355103" lon="5.3982468">
<ele>1016.96</ele>
<time>2019-07-25T10:42:16Z</time>
</trkpt>
<trkpt lat="44.9354818" lon="5.3982557">
<ele>1017.16</ele>
<time>2019-07-25T10:42:17Z</time>
</trkpt>
<trkpt lat="44.9354523" lon="5.3982684">
<ele>1017.36</ele>
<time>2019-07-25T10:42:18Z</time>
</trkpt>
<trkpt lat="44.9354277" lon="5.3982765">
<ele>1017.56</ele>
<time>2019-07-25T10:42:19Z</time>
</trkpt>
<trkpt lat="44.9354049" lon="5.3982837">
<ele>1017.77</ele>
<time>2019-07-25T10:42:20Z</time>
</trkpt>
<trkpt lat="44.9353760" lon="5.3982941">
<ele>1017.97</ele>
<time>2019-07-25T10:42:21Z</time>
</trkpt>
<trkpt lat="44.9353459" lon="5.3983054">
<ele>1018.17</ele>
<time>2019-07-25T10:42:22Z</time>
</trkpt>
<trkpt lat="44.9353154" lon="5.3983149">
<ele>1018.37</ele>
<time>2019-07-25T10:42:23Z</time>
</trkpt>
<trkpt lat="44.9352879" lon="5.3983175">
<ele>1018.57</ele>
<time>2019-07-25T10:42:24Z</time>
</trkpt>
<trkpt lat="44.9352611" lon="5.3983141">
<ele>1018.76</ele>
<time>2019-07-25T10:42:25Z</time>
</trkpt>
<trkpt lat="44.9352287" lon="5.3983186">
<ele>1018.95</ele>
<time>2019-07-25T10:42:26Z</time>
</trkpt>
<trkpt lat="44.9351966" lon="5.3983205">
<ele>1019.14</ele>
<time>2019-07-25T10:42:27Z</time>
</trkpt>
<trkpt lat="44.9351598" lon="5.3983261">
<ele>1019.32</ele>
<time>2019-07-25T10:42:28Z</time>
</trkpt>
<trkpt lat="44.9351250" lon="5.3983319">
<ele>1019.49</ele>
<time>2019-07-25T10:42:29Z</time>
</trkpt>
<trkpt lat="44.9350933" lon="5.3983316">
<ele>1019.66</ele>
<time>2019-07-25T10:42:30Z</time>
</trkpt>
<trkpt lat="44.9350578" lon="5.3983365">
<ele>1021.31</ele>
<time>2019-07-25T10:42:31Z</time>
</trkpt>
<trkpt lat="44.9350176" lon="5.3983424">
<ele>1021.44</ele>
<time>2019-07-25T10:42:32Z</time>
</trkpt>
<trkpt lat="44.9349764" lon="5.3983528">
<ele>1022.67</ele>
<time>2019-07-25T10:42:33Z</time>
</trkpt>
<trkpt lat="44.9349365" lon="5.3983632">
<ele>1023.65</ele>
<time>2019-07-25T10:42:34Z</time>
</trkpt>
<trkpt lat="44.9348932" lon="5.3983691">
<ele>1024.45</ele>
<time>2019-07-25T10:42:35Z</time>
</trkpt>
<trkpt lat="44.9348413" lon="5.3983726">
<ele>1025.16</ele>
<time>2019-07-25T10:42:36Z</time>
</trkpt>
<trkpt lat="44.9347903" lon="5.3983725">
<ele>1025.74</ele>
<time>2019-07-25T10:42:37Z</time>
</trkpt>
<trkpt lat="44.9347470" lon="5.3983663">
<ele>1026.19</ele>
<time>2019-07-25T10:42:38Z</time>
</trkpt>
<trkpt lat="44.9347059" lon="5.3983622">
<ele>1026.55</ele>
<time>2019-07-25T10:42:39Z</time>
</trkpt>
<trkpt lat="44.9346710" lon="5.3983566">
<ele>1026.80</ele>
<time>2019-07-25T10:42:40Z</time>
</trkpt>
<trkpt lat="44.9346369" lon="5.3983487">
<ele>1026.81</ele>
<time>2019-07-25T10:42:41Z</time>
</trkpt>
<trkpt lat="44.9346039" lon="5.3983403">
<ele>1026.83</ele>
<time>2019-07-25T10:42:42Z</time>
</trkpt>
<trkpt lat="44.9345738" lon="5.3983304">
<ele>1026.85</ele>
<time>2019-07-25T10:42:43Z</time>
</trkpt>
<trkpt lat="44.9345456" lon="5.3983229">
<ele>1026.87</ele>
<time>2019-07-25T10:42:44Z</time>
</trkpt>
<trkpt lat="44.9345203" lon="5.3983194">
<ele>1026.89</ele>
<time>2019-07-25T10:42:45Z</time>
</trkpt>
<trkpt lat="44.9344930" lon="5.3983195">
<ele>1026.91</ele>
<time>2019-07-25T10:42:46Z</time>
</trkpt>
<trkpt lat="44.9344653" lon="5.3983280">
<ele>1026.94</ele>
<time>2019-07-25T10:42:47Z</time>
</trkpt>
<trkpt lat="44.9344461" lon="5.3983330">
<ele>1026.96</ele>
<time>2019-07-25T10:42:48Z</time>
</trkpt>
<trkpt lat="44.9344347" lon="5.3983312">
<ele>1026.99</ele>
<time>2019-07-25T10:42:49Z</time>
</trkpt>
<trkpt lat="44.9344255" lon="5.3983297">
<ele>1027.02</ele>
<time>2019-07-25T10:42:50Z</time>
</trkpt>
<trkpt lat="44.9344215" lon="5.3983281">
<ele>1027.05</ele>
<time>2019-07-25T10:42:51Z</time>
</trkpt>
<trkpt lat="44.9344259" lon="5.3983200">
<ele>1027.05</ele>
<time>2019-07-25T10:42:52Z</time>
</trkpt>
<trkpt lat="44.9344372" lon="5.3983062">
<ele>1027.06</ele>
<time>2019-07-25T10:42:53Z</time>
</trkpt>
<trkpt lat="44.9344374" lon="5.3983059">
<ele>1027.06</ele>
<time>2019-07-25T10:42:54Z</time>
</trkpt>
<trkpt lat="44.9344378" lon="5.3983055">
<ele>1027.06</ele>
<time>2019-07-25T10:42:55Z</time>
</trkpt>
<trkpt lat="44.9344380" lon="5.3983055">
<ele>1027.06</ele>
<time>2019-07-25T10:42:56Z</time>
</trkpt>
<trkpt lat="44.9344383" lon="5.3983054">
<ele>1027.06</ele>
<time>2019-07-25T10:42:57Z</time>
</trkpt>
<trkpt lat="44.9344389" lon="5.3983053">
<ele>1027.06</ele>
<time>2019-07-25T10:42:58Z</time>
</trkpt>
<trkpt lat="44.9344403" lon="5.3983054">
<ele>1027.07</ele>
<time>2019-07-25T10:42:59Z</time>
</trkpt>
<trkpt lat="44.9344395" lon="5.3983066">
<ele>1027.08</ele>
<time>2019-07-25T10:43:00Z</time>
</trkpt>
<trkpt lat="44.9344249" lon="5.3983150">
<ele>1027.09</ele>
<time>2019-07-25T10:43:01Z</time>
</trkpt>
<trkpt lat="44.9344103" lon="5.3983220">
<ele>1027.11</ele>
<time>2019-07-25T10:43:02Z</time>
</trkpt>
<trkpt lat="44.9343962" lon="5.3983191">
<ele>1027.13</ele>
<time>2019-07-25T10:43:03Z</time>
</trkpt>
<trkpt lat="44.9343788" lon="5.3983004">
<ele>1027.15</ele>
<time>2019-07-25T10:43:04Z</time>
</trkpt>
<trkpt lat="44.9343661" lon="5.3982875">
<ele>1027.18</ele>
<time>2019-07-25T10:43:05Z</time>
</trkpt>
<trkpt lat="44.9343496" lon="5.3982780">
<ele>1027.21</ele>
<time>2019-07-25T10:43:06Z</time>
</trkpt>
<trkpt lat="44.9343295" lon="5.3982677">
<ele>1027.24</ele>
<time>2019-07-25T10:43:07Z</time>
</trkpt>
<trkpt lat="44.9343102" lon="5.3982588">
<ele>1027.27</ele>
<time>2019-07-25T10:43:08Z</time>
</trkpt>
<trkpt lat="44.9342905" lon="5.3982473">
<ele>1027.32</ele>
<time>2019-07-25T10:43:09Z</time>
</trkpt>
<trkpt lat="44.9342774" lon="5.3982356">
<ele>1027.36</ele>
<time>2019-07-25T10:43:10Z</time>
</trkpt>
<trkpt lat="44.9342649" lon="5.3982166">
<ele>1027.42</ele>
<time>2019-07-25T10:43:11Z</time>
</trkpt>
<trkpt lat="44.9342513" lon="5.3982017">
<ele>1027.47</ele>
<time>2019-07-25T10:43:12Z</time>
</trkpt>
<trkpt lat="44.9342321" lon="5.3981836">
<ele>1027.53</ele>
<time>2019-07-25T10:43:13Z</time>
</trkpt>
<trkpt lat="44.9342093" lon="5.3981674">
<ele>1027.60</ele>
<time>2019-07-25T10:43:14Z</time>
</trkpt>
<trkpt lat="44.9341827" lon="5.3981363">
<ele>1027.67</ele>
<time>2019-07-25T10:43:15Z</time>
</trkpt>
<trkpt lat="44.9341587" lon="5.3981011">
<ele>1027.74</ele>
<time>2019-07-25T10:43:16Z</time>
</trkpt>
<trkpt lat="44.9341374" lon="5.3980779">
<ele>1027.81</ele>
<time>2019-07-25T10:43:17Z</time>
</trkpt>
<trkpt lat="44.9341076" lon="5.3980536">
<ele>1027.89</ele>
<time>2019-07-25T10:43:18Z</time>
</trkpt>
<trkpt lat="44.9340754" lon="5.3980001">
<ele>1028.00</ele>
<time>2019-07-25T10:43:19Z</time>
</trkpt>
<trkpt lat="44.9340454" lon="5.3980086">
<ele>1028.12</ele>
<time>2019-07-25T10:43:20Z</time>
</trkpt>
<trkpt lat="44.9340161" lon="5.3979850">
<ele>1028.25</ele>
<time>2019-07-25T10:43:21Z</time>
</trkpt>
<trkpt lat="44.9339943" lon="5.3979614">
<ele>1028.39</ele>
<time>2019-07-25T10:43:22Z</time>
</trkpt>
<trkpt lat="44.9339803" lon="5.3979397">
<ele>1028.54</ele>
<time>2019-07-25T10:43:23Z</time>
</trkpt>
<trkpt lat="44.9339437" lon="5.3979257">
<ele>1028.69</ele>
<time>2019-07-25T10:43:24Z</time>
</trkpt>
<trkpt lat="44.9339069" lon="5.3979196">
<ele>1028.84</ele>
<time>2019-07-25T10:43:25Z</time>
</trkpt>
<trkpt lat="44.9338680" lon="5.3979306">
<ele>1028.97</ele>
<time>2019-07-25T10:43:26Z</time>
</trkpt>
<trkpt lat="44.9338388" lon="5.3979286">
<ele>1029.11</ele>
<time>2019-07-25T10:43:27Z</time>
</trkpt>
<trkpt lat="44.9338088" lon="5.3979222">
<ele>1029.24</ele>
<time>2019-07-25T10:43:28Z</time>
</trkpt>
<trkpt lat="44.9337773" lon="5.3979107">
<ele>1029.38</ele>
<time>2019-07-25T10:43:29Z</time>
</trkpt>
<trkpt lat="44.9337447" lon="5.3979137">
<ele>1029.51</ele>
<time>2019-07-25T10:43:30Z</time>
</trkpt>
<trkpt lat="44.9337080" lon="5.3979069">
<ele>1029.63</ele>
<time>2019-07-25T10:43:31Z</time>
</trkpt>
<trkpt lat="44.9336712" lon="5.3978987">
<ele>1029.76</ele>
<time>2019-07-25T10:43:32Z</time>
</trkpt>
<trkpt lat="44.9336322" lon="5.3979104">
<ele>1029.87</ele>
<time>2019-07-25T10:43:33Z</time>
</trkpt>
<trkpt lat="44.9335928" lon="5.3979228">
<ele>1029.99</ele>
<time>2019-07-25T10:43:34Z</time>
</trkpt>
<trkpt lat="44.9335588" lon="5.3979352">
<ele>1030.10</ele>
<time>2019-07-25T10:43:35Z</time>
</trkpt>
<trkpt lat="44.9335277" lon="5.3979408">
<ele>1030.22</ele>
<time>2019-07-25T10:43:36Z</time>
</trkpt>
<trkpt lat="44.9334959" lon="5.3979606">
<ele>1030.33</ele>
<time>2019-07-25T10:43:37Z</time>
</trkpt>
<trkpt lat="44.9334664" lon="5.3979669">
<ele>1030.43</ele>
<time>2019-07-25T10:43:38Z</time>
</trkpt>
<trkpt lat="44.9334330" lon="5.3979846">
<ele>1031.45</ele>
<time>2019-07-25T10:43:39Z</time>
</trkpt>
<trkpt lat="44.9333995" lon="5.3980157">
<ele>1031.54</ele>
<time>2019-07-25T10:43:40Z</time>
</trkpt>
<trkpt lat="44.9333714" lon="5.3980484">
<ele>1031.61</ele>
<time>2019-07-25T10:43:41Z</time>
</trkpt>
<trkpt lat="44.9333503" lon="5.3980830">
<ele>1031.69</ele>
<time>2019-07-25T10:43:42Z</time>
</trkpt>
<trkpt lat="44.9333326" lon="5.3981176">
<ele>1032.42</ele>
<time>2019-07-25T10:43:43Z</time>
</trkpt>
<trkpt lat="44.9333041" lon="5.3981659">
<ele>1033.01</ele>
<time>2019-07-25T10:43:44Z</time>
</trkpt>
<trkpt lat="44.9332814" lon="5.3981956">
<ele>1033.46</ele>
<time>2019-07-25T10:43:45Z</time>
</trkpt>
<trkpt lat="44.9332601" lon="5.3982337">
<ele>1033.50</ele>
<time>2019-07-25T10:43:46Z</time>
</trkpt>
<trkpt lat="44.9332471" lon="5.3982631">
<ele>1033.54</ele>
<time>2019-07-25T10:43:47Z</time>
</trkpt>
<trkpt lat="44.9332526" lon="5.3982567">
<ele>1033.58</ele>
<time>2019-07-25T10:43:48Z</time>
</trkpt>
<trkpt lat="44.9332676" lon="5.3982522">
<ele>1033.62</ele>
<time>2019-07-25T10:43:49Z</time>
</trkpt>
<trkpt lat="44.9332806" lon="5.3982248">
<ele>1033.66</ele>
<time>2019-07-25T10:43:50Z</time>
</trkpt>
<trkpt lat="44.9332788" lon="5.3982265">
<ele>1033.67</ele>
<time>2019-07-25T10:43:51Z</time>
</trkpt>
<trkpt lat="44.9332792" lon="5.3982246">
<ele>1033.67</ele>
<time>2019-07-25T10:43:52Z</time>
</trkpt>
<trkpt lat="44.9332813" lon="5.3982224">
<ele>1033.67</ele>
<time>2019-07-25T10:43:53Z</time>
</trkpt>
<trkpt lat="44.9332845" lon="5.3982177">
<ele>1033.68</ele>
<time>2019-07-25T10:43:54Z</time>
</trkpt>
<trkpt lat="44.9332864" lon="5.3982149">
<ele>1033.68</ele>
<time>2019-07-25T10:43:55Z</time>
</trkpt>
<trkpt lat="44.9332875" lon="5.3982138">
<ele>1033.69</ele>
<time>2019-07-25T10:43:56Z</time>
</trkpt>
<trkpt lat="44.9332880" lon="5.3982132">
<ele>1033.69</ele>
<time>2019-07-25T10:43:57Z</time>
</trkpt>
<trkpt lat="44.9332891" lon="5.3982119">
<ele>1033.70</ele>
<time>2019-07-25T10:43:58Z</time>
</trkpt>
<trkpt lat="44.9332895" lon="5.3982112">
<ele>1033.70</ele>
<time>2019-07-25T10:43:59Z</time>
</trkpt>
<trkpt lat="44.9332899" lon="5.3982101">
<ele>1033.71</ele>
<time>2019-07-25T10:44:00Z</time>
</trkpt>
<trkpt lat="44.9332916" lon="5.3982078">
<ele>1033.72</ele>
<time>2019-07-25T10:44:01Z</time>
</trkpt>
<trkpt lat="44.9332943" lon="5.3982008">
<ele>1033.72</ele>
<time>2019-07-25T10:44:02Z</time>
</trkpt>
<trkpt lat="44.9333075" lon="5.3981863">
<ele>1033.79</ele>
<time>2019-07-25T10:44:03Z</time>
</trkpt>
<trkpt lat="44.9333194" lon="5.3981831">
<ele>1033.86</ele>
<time>2019-07-25T10:44:04Z</time>
</trkpt>
<trkpt lat="44.9333322" lon="5.3981870">
<ele>1033.93</ele>
<time>2019-07-25T10:44:05Z</time>
</trkpt>
<trkpt lat="44.9333369" lon="5.3981860">
<ele>1033.94</ele>
<time>2019-07-25T10:44:06Z</time>
</trkpt>
<trkpt lat="44.9333384" lon="5.3981865">
<ele>1033.95</ele>
<time>2019-07-25T10:44:07Z</time>
</trkpt>
<trkpt lat="44.9333388" lon="5.3981867">
<ele>1033.95</ele>
<time>2019-07-25T10:44:08Z</time>
</trkpt>
<trkpt lat="44.9333387" lon="5.3981879">
<ele>1033.96</ele>
<time>2019-07-25T10:44:09Z</time>
</trkpt>
<trkpt lat="44.9333285" lon="5.3981882">
<ele>1034.03</ele>
<time>2019-07-25T10:44:10Z</time>
</trkpt>
<trkpt lat="44.9333193" lon="5.3981825">
<ele>1034.11</ele>
<time>2019-07-25T10:44:11Z</time>
</trkpt>
<trkpt lat="44.9333182" lon="5.3981870">
<ele>1034.12</ele>
<time>2019-07-25T10:44:12Z</time>
</trkpt>
<trkpt lat="44.9333195" lon="5.3981863">
<ele>1034.19</ele>
<time>2019-07-25T10:44:13Z</time>
</trkpt>
<trkpt lat="44.9333294" lon="5.3981895">
<ele>1034.26</ele>
<time>2019-07-25T10:44:14Z</time>
</trkpt>
<trkpt lat="44.9333288" lon="5.3981776">
<ele>1034.34</ele>
<time>2019-07-25T10:44:15Z</time>
</trkpt>
<trkpt lat="44.9333317" lon="5.3981612">
<ele>1034.42</ele>
<time>2019-07-25T10:44:16Z</time>
</trkpt>
<trkpt lat="44.9333330" lon="5.3981526">
<ele>1034.50</ele>
<time>2019-07-25T10:44:17Z</time>
</trkpt>
<trkpt lat="44.9333386" lon="5.3981485">
<ele>1034.58</ele>
<time>2019-07-25T10:44:18Z</time>
</trkpt>
<trkpt lat="44.9333410" lon="5.3981395">
<ele>1034.66</ele>
<time>2019-07-25T10:44:19Z</time>
</trkpt>
<trkpt lat="44.9333431" lon="5.3981304">
<ele>1034.74</ele>
<time>2019-07-25T10:44:20Z</time>
</trkpt>
<trkpt lat="44.9333470" lon="5.3981213">
<ele>1034.75</ele>
<time>2019-07-25T10:44:21Z</time>
</trkpt>
<trkpt lat="44.9333488" lon="5.3981246">
<ele>1034.84</ele>
<time>2019-07-25T10:44:22Z</time>
</trkpt>
<trkpt lat="44.9333503" lon="5.3981208">
<ele>1034.85</ele>
<time>2019-07-25T10:44:23Z</time>
</trkpt>
<trkpt lat="44.9333482" lon="5.3981205">
<ele>1034.86</ele>
<time>2019-07-25T10:44:24Z</time>
</trkpt>
<trkpt lat="44.9333449" lon="5.3981210">
<ele>1034.87</ele>
<time>2019-07-25T10:44:25Z</time>
</trkpt>
<trkpt lat="44.9333464" lon="5.3981205">
<ele>1034.97</ele>
<time>2019-07-25T10:44:26Z</time>
</trkpt>
<trkpt lat="44.9333508" lon="5.3981234">
<ele>1035.07</ele>
<time>2019-07-25T10:44:27Z</time>
</trkpt>
<trkpt lat="44.9333541" lon="5.3981316">
<ele>1035.08</ele>
<time>2019-07-25T10:44:28Z</time>
</trkpt>
<trkpt lat="44.9333540" lon="5.3981331">
<ele>1035.08</ele>
<time>2019-07-25T10:44:29Z</time>
</trkpt>
<trkpt lat="44.9333551" lon="5.3981330">
<ele>1035.09</ele>
<time>2019-07-25T10:44:30Z</time>
</trkpt>
<trkpt lat="44.9333567" lon="5.3981318">
<ele>1035.10</ele>
<time>2019-07-25T10:44:31Z</time>
</trkpt>
<trkpt lat="44.9333600" lon="5.3981309">
<ele>1035.10</ele>
<time>2019-07-25T10:44:32Z</time>
</trkpt>
<trkpt lat="44.9333617" lon="5.3981298">
<ele>1035.11</ele>
<time>2019-07-25T10:44:33Z</time>
</trkpt>
<trkpt lat="44.9333629" lon="5.3981288">
<ele>1035.11</ele>
<time>2019-07-25T10:44:34Z</time>
</trkpt>
<trkpt lat="44.9333639" lon="5.3981288">
<ele>1035.12</ele>
<time>2019-07-25T10:44:35Z</time>
</trkpt>
<trkpt lat="44.9333643" lon="5.3981286">
<ele>1035.12</ele>
<time>2019-07-25T10:44:36Z</time>
</trkpt>
<trkpt lat="44.9333642" lon="5.3981283">
<ele>1035.12</ele>
<time>2019-07-25T10:44:37Z</time>
</trkpt>
<trkpt lat="44.9333638" lon="5.3981282">
<ele>1035.13</ele>
<time>2019-07-25T10:44:38Z</time>
</trkpt>
<trkpt lat="44.9333648" lon="5.3981274">
<ele>1035.13</ele>
<time>2019-07-25T10:44:39Z</time>
</trkpt>
<trkpt lat="44.9333650" lon="5.3981278">
<ele>1035.13</ele>
<time>2019-07-25T10:44:40Z</time>
</trkpt>
<trkpt lat="44.9333657" lon="5.3981281">
<ele>1035.13</ele>
<time>2019-07-25T10:44:41Z</time>
</trkpt>
<trkpt lat="44.9333691" lon="5.3981397">
<ele>1035.16</ele>
<time>2019-07-25T10:44:42Z</time>
</trkpt>
<trkpt lat="44.9333765" lon="5.3981456">
<ele>1035.18</ele>
<time>2019-07-25T10:44:43Z</time>
</trkpt>
<trkpt lat="44.9333819" lon="5.3981454">
<ele>1035.18</ele>
<time>2019-07-25T10:44:44Z</time>
</trkpt>
<trkpt lat="44.9333762" lon="5.3981488">
<ele>1035.18</ele>
<time>2019-07-25T10:44:45Z</time>
</trkpt>
<trkpt lat="44.9333707" lon="5.3981525">
<ele>1035.20</ele>
<time>2019-07-25T10:44:46Z</time>
</trkpt>
<trkpt lat="44.9333708" lon="5.3981522">
<ele>1035.20</ele>
<time>2019-07-25T10:44:47Z</time>
</trkpt>
<trkpt lat="44.9333709" lon="5.3981526">
<ele>1035.20</ele>
<time>2019-07-25T10:44:48Z</time>
</trkpt>
<trkpt lat="44.9333700" lon="5.3981529">
<ele>1035.21</ele>
<time>2019-07-25T10:44:49Z</time>
</trkpt>
<trkpt lat="44.9333684" lon="5.3981538">
<ele>1035.21</ele>
<time>2019-07-25T10:44:50Z</time>
</trkpt>
<trkpt lat="44.9333678" lon="5.3981540">
<ele>1035.21</ele>
<time>2019-07-25T10:44:51Z</time>
</trkpt>
<trkpt lat="44.9333679" lon="5.3981528">
<ele>1035.22</ele>
<time>2019-07-25T10:44:52Z</time>
</trkpt>
<trkpt lat="44.9333689" lon="5.3981517">
<ele>1035.22</ele>
<time>2019-07-25T10:44:53Z</time>
</trkpt>
<trkpt lat="44.9333719" lon="5.3981484">
<ele>1035.22</ele>
<time>2019-07-25T10:44:54Z</time>
</trkpt>
<trkpt lat="44.9333744" lon="5.3981466">
<ele>1035.23</ele>
<time>2019-07-25T10:44:55Z</time>
</trkpt>
<trkpt lat="44.9333776" lon="5.3981441">
<ele>1035.23</ele>
<time>2019-07-25T10:44:56Z</time>
</trkpt>
<trkpt lat="44.9333803" lon="5.3981424">
<ele>1035.24</ele>
<time>2019-07-25T10:44:57Z</time>
</trkpt>
<trkpt lat="44.9333824" lon="5.3981409">
<ele>1035.24</ele>
<time>2019-07-25T10:44:58Z</time>
</trkpt>
<trkpt lat="44.9333831" lon="5.3981407">
<ele>1035.25</ele>
<time>2019-07-25T10:44:59Z</time>
</trkpt>
<trkpt lat="44.9333845" lon="5.3981395">
<ele>1035.26</ele>
<time>2019-07-25T10:45:00Z</time>
</trkpt>
<trkpt lat="44.9333845" lon="5.3981399">
<ele>1035.26</ele>
<time>2019-07-25T10:45:01Z</time>
</trkpt>
<trkpt lat="44.9333850" lon="5.3981395">
<ele>1035.27</ele>
<time>2019-07-25T10:45:02Z</time>
</trkpt>
<trkpt lat="44.9333845" lon="5.3981398">
<ele>1035.27</ele>
<time>2019-07-25T10:45:03Z</time>
</trkpt>
<trkpt lat="44.9333845" lon="5.3981400">
<ele>1035.28</ele>
<time>2019-07-25T10:45:04Z</time>
</trkpt>
<trkpt lat="44.9333851" lon="5.3981404">
<ele>1035.28</ele>
<time>2019-07-25T10:45:05Z</time>
</trkpt>
<trkpt lat="44.9333860" lon="5.3981427">
<ele>1035.29</ele>
<time>2019-07-25T10:45:06Z</time>
</trkpt>
<trkpt lat="44.9333858" lon="5.3981443">
<ele>1035.29</ele>
<time>2019-07-25T10:45:07Z</time>
</trkpt>
<trkpt lat="44.9333857" lon="5.3981445">
<ele>1035.29</ele>
<time>2019-07-25T10:45:08Z</time>
</trkpt>
<trkpt lat="44.9333849" lon="5.3981444">
<ele>1035.30</ele>
<time>2019-07-25T10:45:09Z</time>
</trkpt>
<trkpt lat="44.9333852" lon="5.3981443">
<ele>1035.30</ele>
<time>2019-07-25T10:45:10Z</time>
</trkpt>
<trkpt lat="44.9333860" lon="5.3981461">
<ele>1035.30</ele>
<time>2019-07-25T10:45:11Z</time>
</trkpt>
<trkpt lat="44.9333809" lon="5.3981445">
<ele>1035.30</ele>
<time>2019-07-25T10:45:12Z</time>
</trkpt>
<trkpt lat="44.9333745" lon="5.3981489">
<ele>1035.30</ele>
<time>2019-07-25T10:45:13Z</time>
</trkpt>
<trkpt lat="44.9333672" lon="5.3981535">
<ele>1035.30</ele>
<time>2019-07-25T10:45:14Z</time>
</trkpt>
<trkpt lat="44.9333603" lon="5.3981605">
<ele>1035.31</ele>
<time>2019-07-25T10:45:15Z</time>
</trkpt>
<trkpt lat="44.9333578" lon="5.3981566">
<ele>1035.31</ele>
<time>2019-07-25T10:45:16Z</time>
</trkpt>
<trkpt lat="44.9333560" lon="5.3981574">
<ele>1035.32</ele>
<time>2019-07-25T10:45:17Z</time>
</trkpt>
<trkpt lat="44.9333562" lon="5.3981574">
<ele>1035.32</ele>
<time>2019-07-25T10:45:18Z</time>
</trkpt>
<trkpt lat="44.9333664" lon="5.3981533">
<ele>1035.32</ele>
<time>2019-07-25T10:45:19Z</time>
</trkpt>
<trkpt lat="44.9333782" lon="5.3981409">
<ele>1035.34</ele>
<time>2019-07-25T10:45:20Z</time>
</trkpt>
<trkpt lat="44.9333765" lon="5.3981354">
<ele>1035.36</ele>
<time>2019-07-25T10:45:21Z</time>
</trkpt>
<trkpt lat="44.9333713" lon="5.3981386">
<ele>1035.37</ele>
<time>2019-07-25T10:45:22Z</time>
</trkpt>
<trkpt lat="44.9333706" lon="5.3981384">
<ele>1035.37</ele>
<time>2019-07-25T10:45:23Z</time>
</trkpt>
<trkpt lat="44.9333698" lon="5.3981386">
<ele>1035.37</ele>
<time>2019-07-25T10:45:24Z</time>
</trkpt>
<trkpt lat="44.9333684" lon="5.3981383">
<ele>1035.38</ele>
<time>2019-07-25T10:45:25Z</time>
</trkpt>
<trkpt lat="44.9333666" lon="5.3981376">
<ele>1035.38</ele>
<time>2019-07-25T10:45:26Z</time>
</trkpt>
<trkpt lat="44.9333646" lon="5.3981378">
<ele>1035.39</ele>
<time>2019-07-25T10:45:27Z</time>
</trkpt>
<trkpt lat="44.9333647" lon="5.3981371">
<ele>1035.39</ele>
<time>2019-07-25T10:45:28Z</time>
</trkpt>
<trkpt lat="44.9333636" lon="5.3981357">
<ele>1035.40</ele>
<time>2019-07-25T10:45:29Z</time>
</trkpt>
<trkpt lat="44.9333637" lon="5.3981335">
<ele>1035.41</ele>
<time>2019-07-25T10:45:30Z</time>
</trkpt>
<trkpt lat="44.9333633" lon="5.3981336">
<ele>1035.42</ele>
<time>2019-07-25T10:45:31Z</time>
</trkpt>
<trkpt lat="44.9333632" lon="5.3981339">
<ele>1035.42</ele>
<time>2019-07-25T10:45:32Z</time>
</trkpt>
<trkpt lat="44.9333625" lon="5.3981345">
<ele>1035.43</ele>
<time>2019-07-25T10:45:33Z</time>
</trkpt>
<trkpt lat="44.9333614" lon="5.3981344">
<ele>1035.44</ele>
<time>2019-07-25T10:45:34Z</time>
</trkpt>
<trkpt lat="44.9333610" lon="5.3981337">
<ele>1035.45</ele>
<time>2019-07-25T10:45:35Z</time>
</trkpt>
<trkpt lat="44.9333602" lon="5.3981342">
<ele>1035.46</ele>
<time>2019-07-25T10:45:36Z</time>
</trkpt>
<trkpt lat="44.9333604" lon="5.3981347">
<ele>1035.47</ele>
<time>2019-07-25T10:45:37Z</time>
</trkpt>
<trkpt lat="44.9333607" lon="5.3981338">
<ele>1035.48</ele>
<time>2019-07-25T10:45:38Z</time>
</trkpt>
<trkpt lat="44.9333581" lon="5.3981356">
<ele>1035.49</ele>
<time>2019-07-25T10:45:39Z</time>
</trkpt>
<trkpt lat="44.9333649" lon="5.3981291">
<ele>1035.50</ele>
<time>2019-07-25T10:45:40Z</time>
</trkpt>
<trkpt lat="44.9333836" lon="5.3981061">
<ele>1035.60</ele>
<time>2019-07-25T10:45:41Z</time>
</trkpt>
<trkpt lat="44.9333743" lon="5.3980701">
<ele>1035.71</ele>
<time>2019-07-25T10:45:42Z</time>
</trkpt>
<trkpt lat="44.9333749" lon="5.3980696">
<ele>1035.72</ele>
<time>2019-07-25T10:45:43Z</time>
</trkpt>
<trkpt lat="44.9333753" lon="5.3980687">
<ele>1035.73</ele>
<time>2019-07-25T10:45:44Z</time>
</trkpt>
<trkpt lat="44.9333757" lon="5.3980722">
<ele>1035.74</ele>
<time>2019-07-25T10:45:45Z</time>
</trkpt>
<trkpt lat="44.9333789" lon="5.3980705">
<ele>1035.75</ele>
<time>2019-07-25T10:45:46Z</time>
</trkpt>
<trkpt lat="44.9333801" lon="5.3980716">
<ele>1035.77</ele>
<time>2019-07-25T10:45:47Z</time>
</trkpt>
<trkpt lat="44.9333805" lon="5.3980774">
<ele>1035.78</ele>
<time>2019-07-25T10:45:48Z</time>
</trkpt>
<trkpt lat="44.9333839" lon="5.3981013">
<ele>1035.87</ele>
<time>2019-07-25T10:45:49Z</time>
</trkpt>
<trkpt lat="44.9333896" lon="5.3981205">
<ele>1035.88</ele>
<time>2019-07-25T10:45:50Z</time>
</trkpt>
<trkpt lat="44.9333874" lon="5.3981383">
<ele>1035.89</ele>
<time>2019-07-25T10:45:51Z</time>
</trkpt>
<trkpt lat="44.9333768" lon="5.3981534">
<ele>1035.90</ele>
<time>2019-07-25T10:45:52Z</time>
</trkpt>
<trkpt lat="44.9333769" lon="5.3981533">
<ele>1035.91</ele>
<time>2019-07-25T10:45:53Z</time>
</trkpt>
<trkpt lat="44.9333775" lon="5.3981555">
<ele>1035.91</ele>
<time>2019-07-25T10:45:54Z</time>
</trkpt>
<trkpt lat="44.9333756" lon="5.3981577">
<ele>1035.91</ele>
<time>2019-07-25T10:45:55Z</time>
</trkpt>
<trkpt lat="44.9333750" lon="5.3981588">
<ele>1035.92</ele>
<time>2019-07-25T10:45:56Z</time>
</trkpt>
<trkpt lat="44.9333727" lon="5.3981610">
<ele>1035.92</ele>
<time>2019-07-25T10:45:57Z</time>
</trkpt>
<trkpt lat="44.9333680" lon="5.3981651">
<ele>1035.92</ele>
<time>2019-07-25T10:45:58Z</time>
</trkpt>
<trkpt lat="44.9333659" lon="5.3981649">
<ele>1035.92</ele>
<time>2019-07-25T10:45:59Z</time>
</trkpt>
<trkpt lat="44.9333629" lon="5.3981659">
<ele>1035.92</ele>
<time>2019-07-25T10:46:00Z</time>
</trkpt>
<trkpt lat="44.9333606" lon="5.3981671">
<ele>1035.92</ele>
<time>2019-07-25T10:46:01Z</time>
</trkpt>
<trkpt lat="44.9333601" lon="5.3981667">
<ele>1035.92</ele>
<time>2019-07-25T10:46:02Z</time>
</trkpt>
<trkpt lat="44.9333597" lon="5.3981666">
<ele>1035.92</ele>
<time>2019-07-25T10:46:03Z</time>
</trkpt>
<trkpt lat="44.9333591" lon="5.3981665">
<ele>1035.92</ele>
<time>2019-07-25T10:46:04Z</time>
</trkpt>
<trkpt lat="44.9333567" lon="5.3981677">
<ele>1035.92</ele>
<time>2019-07-25T10:46:05Z</time>
</trkpt>
<trkpt lat="44.9333566" lon="5.3981682">
<ele>1035.91</ele>
<time>2019-07-25T10:46:06Z</time>
</trkpt>
<trkpt lat="44.9333554" lon="5.3981693">
<ele>1035.91</ele>
<time>2019-07-25T10:46:07Z</time>
</trkpt>
<trkpt lat="44.9333546" lon="5.3981692">
<ele>1035.91</ele>
<time>2019-07-25T10:46:08Z</time>
</trkpt>
<trkpt lat="44.9333539" lon="5.3981693">
<ele>1035.90</ele>
<time>2019-07-25T10:46:09Z</time>
</trkpt>
<trkpt lat="44.9333530" lon="5.3981703">
<ele>1035.90</ele>
<time>2019-07-25T10:46:10Z</time>
</trkpt>
<trkpt lat="44.9333527" lon="5.3981712">
<ele>1035.89</ele>
<time>2019-07-25T10:46:11Z</time>
</trkpt>
<trkpt lat="44.9333511" lon="5.3981733">
<ele>1035.88</ele>
<time>2019-07-25T10:46:12Z</time>
</trkpt>
<trkpt lat="44.9333502" lon="5.3981746">
<ele>1035.87</ele>
<time>2019-07-25T10:46:13Z</time>
</trkpt>
<trkpt lat="44.9333497" lon="5.3981752">
<ele>1035.86</ele>
<time>2019-07-25T10:46:14Z</time>
</trkpt>
<trkpt lat="44.9333489" lon="5.3981765">
<ele>1035.85</ele>
<time>2019-07-25T10:46:15Z</time>
</trkpt>
<trkpt lat="44.9333482" lon="5.3981770">
<ele>1035.83</ele>
<time>2019-07-25T10:46:16Z</time>
</trkpt>
<trkpt lat="44.9333453" lon="5.3981795">
<ele>1035.81</ele>
<time>2019-07-25T10:46:17Z</time>
</trkpt>
<trkpt lat="44.9333459" lon="5.3981787">
<ele>1035.80</ele>
<time>2019-07-25T10:46:18Z</time>
</trkpt>
<trkpt lat="44.9333460" lon="5.3981782">
<ele>1035.78</ele>
<time>2019-07-25T10:46:19Z</time>
</trkpt>
<trkpt lat="44.9333462" lon="5.3981776">
<ele>1035.77</ele>
<time>2019-07-25T10:46:20Z</time>
</trkpt>
<trkpt lat="44.9333541" lon="5.3981740">
<ele>1035.62</ele>
<time>2019-07-25T10:46:21Z</time>
</trkpt>
<trkpt lat="44.9333655" lon="5.3981674">
<ele>1035.60</ele>
<time>2019-07-25T10:46:22Z</time>
</trkpt>
<trkpt lat="44.9333713" lon="5.3981698">
<ele>1035.59</ele>
<time>2019-07-25T10:46:23Z</time>
</trkpt>
<trkpt lat="44.9333716" lon="5.3981686">
<ele>1035.58</ele>
<time>2019-07-25T10:46:24Z</time>
</trkpt>
<trkpt lat="44.9333720" lon="5.3981695">
<ele>1035.56</ele>
<time>2019-07-25T10:46:25Z</time>
</trkpt>
<trkpt lat="44.9333716" lon="5.3981699">
<ele>1035.55</ele>
<time>2019-07-25T10:46:26Z</time>
</trkpt>
<trkpt lat="44.9333714" lon="5.3981702">
<ele>1035.54</ele>
<time>2019-07-25T10:46:27Z</time>
</trkpt>
<trkpt lat="44.9333706" lon="5.3981702">
<ele>1035.52</ele>
<time>2019-07-25T10:46:28Z</time>
</trkpt>
<trkpt lat="44.9333704" lon="5.3981702">
<ele>1035.51</ele>
<time>2019-07-25T10:46:29Z</time>
</trkpt>
<trkpt lat="44.9333702" lon="5.3981702">
<ele>1035.50</ele>
<time>2019-07-25T10:46:30Z</time>
</trkpt>
<trkpt lat="44.9333691" lon="5.3981705">
<ele>1035.48</ele>
<time>2019-07-25T10:46:31Z</time>
</trkpt>
<trkpt lat="44.9333678" lon="5.3981709">
<ele>1035.47</ele>
<time>2019-07-25T10:46:32Z</time>
</trkpt>
<trkpt lat="44.9333665" lon="5.3981715">
<ele>1035.45</ele>
<time>2019-07-25T10:46:33Z</time>
</trkpt>
<trkpt lat="44.9333650" lon="5.3981722">
<ele>1035.44</ele>
<time>2019-07-25T10:46:34Z</time>
</trkpt>
<trkpt lat="44.9333626" lon="5.3981706">
<ele>1035.43</ele>
<time>2019-07-25T10:46:35Z</time>
</trkpt>
<trkpt lat="44.9333614" lon="5.3981697">
<ele>1035.41</ele>
<time>2019-07-25T10:46:36Z</time>
</trkpt>
<trkpt lat="44.9333609" lon="5.3981695">
<ele>1035.40</ele>
<time>2019-07-25T10:46:37Z</time>
</trkpt>
<trkpt lat="44.9333603" lon="5.3981697">
<ele>1035.39</ele>
<time>2019-07-25T10:46:38Z</time>
</trkpt>
<trkpt lat="44.9333608" lon="5.3981697">
<ele>1035.37</ele>
<time>2019-07-25T10:46:39Z</time>
</trkpt>
<trkpt lat="44.9333603" lon="5.3981706">
<ele>1035.36</ele>
<time>2019-07-25T10:46:40Z</time>
</trkpt>
<trkpt lat="44.9333546" lon="5.3981746">
<ele>1035.22</ele>
<time>2019-07-25T10:46:41Z</time>
</trkpt>
<trkpt lat="44.9333481" lon="5.3981835">
<ele>1035.10</ele>
<time>2019-07-25T10:46:42Z</time>
</trkpt>
<trkpt lat="44.9333355" lon="5.3981966">
<ele>1034.97</ele>
<time>2019-07-25T10:46:43Z</time>
</trkpt>
<trkpt lat="44.9333329" lon="5.3981992">
<ele>1034.96</ele>
<time>2019-07-25T10:46:44Z</time>
</trkpt>
<trkpt lat="44.9333319" lon="5.3982007">
<ele>1034.94</ele>
<time>2019-07-25T10:46:45Z</time>
</trkpt>
<trkpt lat="44.9333315" lon="5.3982006">
<ele>1034.93</ele>
<time>2019-07-25T10:46:46Z</time>
</trkpt>
<trkpt lat="44.9333317" lon="5.3982001">
<ele>1034.92</ele>
<time>2019-07-25T10:46:47Z</time>
</trkpt>
<trkpt lat="44.9333316" lon="5.3981989">
<ele>1034.90</ele>
<time>2019-07-25T10:46:48Z</time>
</trkpt>
<trkpt lat="44.9333317" lon="5.3981982">
<ele>1034.89</ele>
<time>2019-07-25T10:46:49Z</time>
</trkpt>
<trkpt lat="44.9333333" lon="5.3981968">
<ele>1034.88</ele>
<time>2019-07-25T10:46:50Z</time>
</trkpt>
<trkpt lat="44.9333306" lon="5.3981965">
<ele>1034.76</ele>
<time>2019-07-25T10:46:51Z</time>
</trkpt>
<trkpt lat="44.9333227" lon="5.3982166">
<ele>1034.64</ele>
<time>2019-07-25T10:46:52Z</time>
</trkpt>
<trkpt lat="44.9333097" lon="5.3982403">
<ele>1034.54</ele>
<time>2019-07-25T10:46:53Z</time>
</trkpt>
<trkpt lat="44.9332954" lon="5.3982712">
<ele>1034.44</ele>
<time>2019-07-25T10:46:54Z</time>
</trkpt>
<trkpt lat="44.9332778" lon="5.3983064">
<ele>1034.34</ele>
<time>2019-07-25T10:46:55Z</time>
</trkpt>
<trkpt lat="44.9332564" lon="5.3983440">
<ele>1034.25</ele>
<time>2019-07-25T10:46:56Z</time>
</trkpt>
<trkpt lat="44.9332379" lon="5.3983782">
<ele>1034.17</ele>
<time>2019-07-25T10:46:57Z</time>
</trkpt>
<trkpt lat="44.9332212" lon="5.3984132">
<ele>1034.08</ele>
<time>2019-07-25T10:46:58Z</time>
</trkpt>
<trkpt lat="44.9332036" lon="5.3984514">
<ele>1034.01</ele>
<time>2019-07-25T10:46:59Z</time>
</trkpt>
<trkpt lat="44.9331842" lon="5.3984802">
<ele>1033.94</ele>
<time>2019-07-25T10:47:00Z</time>
</trkpt>
<trkpt lat="44.9331581" lon="5.3984983">
<ele>1033.87</ele>
<time>2019-07-25T10:47:01Z</time>
</trkpt>
<trkpt lat="44.9331323" lon="5.3985007">
<ele>1033.80</ele>
<time>2019-07-25T10:47:02Z</time>
</trkpt>
<trkpt lat="44.9331032" lon="5.3984868">
<ele>1033.73</ele>
<time>2019-07-25T10:47:03Z</time>
</trkpt>
<trkpt lat="44.9330695" lon="5.3984757">
<ele>1033.67</ele>
<time>2019-07-25T10:47:04Z</time>
</trkpt>
<trkpt lat="44.9330385" lon="5.3984707">
<ele>1033.60</ele>
<time>2019-07-25T10:47:05Z</time>
</trkpt>
<trkpt lat="44.9330098" lon="5.3984677">
<ele>1033.53</ele>
<time>2019-07-25T10:47:06Z</time>
</trkpt>
<trkpt lat="44.9329808" lon="5.3984647">
<ele>1033.47</ele>
<time>2019-07-25T10:47:07Z</time>
</trkpt>
<trkpt lat="44.9329525" lon="5.3984599">
<ele>1033.40</ele>
<time>2019-07-25T10:47:08Z</time>
</trkpt>
<trkpt lat="44.9329203" lon="5.3984595">
<ele>1033.34</ele>
<time>2019-07-25T10:47:09Z</time>
</trkpt>
<trkpt lat="44.9328877" lon="5.3984722">
<ele>1033.27</ele>
<time>2019-07-25T10:47:10Z</time>
</trkpt>
<trkpt lat="44.9328636" lon="5.3984979">
<ele>1033.21</ele>
<time>2019-07-25T10:47:11Z</time>
</trkpt>
<trkpt lat="44.9328373" lon="5.3985154">
<ele>1033.14</ele>
<time>2019-07-25T10:47:12Z</time>
</trkpt>
<trkpt lat="44.9328117" lon="5.3985284">
<ele>1033.08</ele>
<time>2019-07-25T10:47:13Z</time>
</trkpt>
<trkpt lat="44.9327817" lon="5.3985337">
<ele>1033.01</ele>
<time>2019-07-25T10:47:14Z</time>
</trkpt>
<trkpt lat="44.9327555" lon="5.3985340">
<ele>1032.96</ele>
<time>2019-07-25T10:47:15Z</time>
</trkpt>
<trkpt lat="44.9327297" lon="5.3985410">
<ele>1032.90</ele>
<time>2019-07-25T10:47:16Z</time>
</trkpt>
<trkpt lat="44.9327033" lon="5.3985402">
<ele>1032.85</ele>
<time>2019-07-25T10:47:17Z</time>
</trkpt>
<trkpt lat="44.9326763" lon="5.3985578">
<ele>1032.79</ele>
<time>2019-07-25T10:47:18Z</time>
</trkpt>
<trkpt lat="44.9326606" lon="5.3985609">
<ele>1032.74</ele>
<time>2019-07-25T10:47:19Z</time>
</trkpt>
<trkpt lat="44.9326407" lon="5.3985641">
<ele>1032.70</ele>
<time>2019-07-25T10:47:20Z</time>
</trkpt>
<trkpt lat="44.9326201" lon="5.3985599">
<ele>1032.65</ele>
<time>2019-07-25T10:47:21Z</time>
</trkpt>
<trkpt lat="44.9326025" lon="5.3985648">
<ele>1032.61</ele>
<time>2019-07-25T10:47:22Z</time>
</trkpt>
<trkpt lat="44.9325803" lon="5.3985670">
<ele>1032.56</ele>
<time>2019-07-25T10:47:23Z</time>
</trkpt>
<trkpt lat="44.9325604" lon="5.3985594">
<ele>1032.52</ele>
<time>2019-07-25T10:47:24Z</time>
</trkpt>
<trkpt lat="44.9325413" lon="5.3985463">
<ele>1032.48</ele>
<time>2019-07-25T10:47:25Z</time>
</trkpt>
<trkpt lat="44.9325162" lon="5.3985463">
<ele>1032.45</ele>
<time>2019-07-25T10:47:26Z</time>
</trkpt>
<trkpt lat="44.9324935" lon="5.3985454">
<ele>1032.41</ele>
<time>2019-07-25T10:47:27Z</time>
</trkpt>
<trkpt lat="44.9324703" lon="5.3985410">
<ele>1032.37</ele>
<time>2019-07-25T10:47:28Z</time>
</trkpt>
<trkpt lat="44.9324487" lon="5.3985334">
<ele>1032.34</ele>
<time>2019-07-25T10:47:29Z</time>
</trkpt>
<trkpt lat="44.9324304" lon="5.3985158">
<ele>1032.31</ele>
<time>2019-07-25T10:47:30Z</time>
</trkpt>
<trkpt lat="44.9324098" lon="5.3985030">
<ele>1032.27</ele>
<time>2019-07-25T10:47:31Z</time>
</trkpt>
<trkpt lat="44.9323858" lon="5.3984835">
<ele>1032.24</ele>
<time>2019-07-25T10:47:32Z</time>
</trkpt>
<trkpt lat="44.9323625" lon="5.3984607">
<ele>1032.21</ele>
<time>2019-07-25T10:47:33Z</time>
</trkpt>
<trkpt lat="44.9323378" lon="5.3984502">
<ele>1032.18</ele>
<time>2019-07-25T10:47:34Z</time>
</trkpt>
<trkpt lat="44.9323176" lon="5.3984324">
<ele>1032.15</ele>
<time>2019-07-25T10:47:35Z</time>
</trkpt>
<trkpt lat="44.9322962" lon="5.3984216">
<ele>1032.12</ele>
<time>2019-07-25T10:47:36Z</time>
</trkpt>
<trkpt lat="44.9322760" lon="5.3984059">
<ele>1032.09</ele>
<time>2019-07-25T10:47:37Z</time>
</trkpt>
<trkpt lat="44.9322568" lon="5.3983949">
<ele>1032.06</ele>
<time>2019-07-25T10:47:38Z</time>
</trkpt>
<trkpt lat="44.9322386" lon="5.3983839">
<ele>1032.03</ele>
<time>2019-07-25T10:47:39Z</time>
</trkpt>
<trkpt lat="44.9322200" lon="5.3983685">
<ele>1032.00</ele>
<time>2019-07-25T10:47:40Z</time>
</trkpt>
<trkpt lat="44.9322028" lon="5.3983576">
<ele>1031.97</ele>
<time>2019-07-25T10:47:41Z</time>
</trkpt>
<trkpt lat="44.9321876" lon="5.3983563">
<ele>1031.94</ele>
<time>2019-07-25T10:47:42Z</time>
</trkpt>
<trkpt lat="44.9321694" lon="5.3983555">
<ele>1031.91</ele>
<time>2019-07-25T10:47:43Z</time>
</trkpt>
<trkpt lat="44.9321464" lon="5.3983623">
<ele>1031.88</ele>
<time>2019-07-25T10:47:44Z</time>
</trkpt>
<trkpt lat="44.9321242" lon="5.3983697">
<ele>1031.86</ele>
<time>2019-07-25T10:47:45Z</time>
</trkpt>
<trkpt lat="44.9320998" lon="5.3983807">
<ele>1031.84</ele>
<time>2019-07-25T10:47:46Z</time>
</trkpt>
<trkpt lat="44.9320767" lon="5.3983936">
<ele>1031.81</ele>
<time>2019-07-25T10:47:47Z</time>
</trkpt>
<trkpt lat="44.9320659" lon="5.3984025">
<ele>1031.79</ele>
<time>2019-07-25T10:47:48Z</time>
</trkpt>
<trkpt lat="44.9320591" lon="5.3984101">
<ele>1031.77</ele>
<time>2019-07-25T10:47:49Z</time>
</trkpt>
<trkpt lat="44.9320485" lon="5.3984071">
<ele>1031.76</ele>
<time>2019-07-25T10:47:50Z</time>
</trkpt>
<trkpt lat="44.9320321" lon="5.3984213">
<ele>1031.74</ele>
<time>2019-07-25T10:47:51Z</time>
</trkpt>
<trkpt lat="44.9320157" lon="5.3984305">
<ele>1031.73</ele>
<time>2019-07-25T10:47:52Z</time>
</trkpt>
<trkpt lat="44.9320209" lon="5.3984334">
<ele>1031.73</ele>
<time>2019-07-25T10:47:53Z</time>
</trkpt>
<trkpt lat="44.9320305" lon="5.3984299">
<ele>1031.73</ele>
<time>2019-07-25T10:47:54Z</time>
</trkpt>
<trkpt lat="44.9320309" lon="5.3984294">
<ele>1031.73</ele>
<time>2019-07-25T10:47:55Z</time>
</trkpt>
<trkpt lat="44.9320287" lon="5.3984311">
<ele>1031.73</ele>
<time>2019-07-25T10:47:56Z</time>
</trkpt>
<trkpt lat="44.9320284" lon="5.3984322">
<ele>1031.72</ele>
<time>2019-07-25T10:47:57Z</time>
</trkpt>
<trkpt lat="44.9320282" lon="5.3984324">
<ele>1031.72</ele>
<time>2019-07-25T10:47:58Z</time>
</trkpt>
<trkpt lat="44.9320281" lon="5.3984319">
<ele>1031.72</ele>
<time>2019-07-25T10:47:59Z</time>
</trkpt>
<trkpt lat="44.9320284" lon="5.3984315">
<ele>1031.72</ele>
<time>2019-07-25T10:48:00Z</time>
</trkpt>
<trkpt lat="44.9320291" lon="5.3984309">
<ele>1031.71</ele>
<time>2019-07-25T10:48:01Z</time>
</trkpt>
<trkpt lat="44.9320294" lon="5.3984291">
<ele>1031.71</ele>
<time>2019-07-25T10:48:02Z</time>
</trkpt>
<trkpt lat="44.9320250" lon="5.3984317">
<ele>1031.69</ele>
<time>2019-07-25T10:48:03Z</time>
</trkpt>
<trkpt lat="44.9320026" lon="5.3984475">
<ele>1031.66</ele>
<time>2019-07-25T10:48:04Z</time>
</trkpt>
<trkpt lat="44.9319943" lon="5.3984541">
<ele>1031.64</ele>
<time>2019-07-25T10:48:05Z</time>
</trkpt>
<trkpt lat="44.9319884" lon="5.3984538">
<ele>1031.63</ele>
<time>2019-07-25T10:48:06Z</time>
</trkpt>
<trkpt lat="44.9319747" lon="5.3984572">
<ele>1031.62</ele>
<time>2019-07-25T10:48:07Z</time>
</trkpt>
<trkpt lat="44.9319590" lon="5.3984556">
<ele>1031.62</ele>
<time>2019-07-25T10:48:08Z</time>
</trkpt>
<trkpt lat="44.9319425" lon="5.3984472">
<ele>1031.62</ele>
<time>2019-07-25T10:48:09Z</time>
</trkpt>
<trkpt lat="44.9319242" lon="5.3984484">
<ele>1031.63</ele>
<time>2019-07-25T10:48:10Z</time>
</trkpt>
<trkpt lat="44.9319026" lon="5.3984504">
<ele>1031.64</ele>
<time>2019-07-25T10:48:11Z</time>
</trkpt>
<trkpt lat="44.9318826" lon="5.3984516">
<ele>1031.65</ele>
<time>2019-07-25T10:48:12Z</time>
</trkpt>
<trkpt lat="44.9318631" lon="5.3984418">
<ele>1031.67</ele>
<time>2019-07-25T10:48:13Z</time>
</trkpt>
<trkpt lat="44.9318406" lon="5.3984227">
<ele>1031.70</ele>
<time>2019-07-25T10:48:14Z</time>
</trkpt>
<trkpt lat="44.9318165" lon="5.3984026">
<ele>1031.72</ele>
<time>2019-07-25T10:48:15Z</time>
</trkpt>
<trkpt lat="44.9317916" lon="5.3983907">
<ele>1031.74</ele>
<time>2019-07-25T10:48:16Z</time>
</trkpt>
<trkpt lat="44.9317642" lon="5.3983841">
<ele>1031.77</ele>
<time>2019-07-25T10:48:17Z</time>
</trkpt>
<trkpt lat="44.9317325" lon="5.3983787">
<ele>1031.79</ele>
<time>2019-07-25T10:48:18Z</time>
</trkpt>
<trkpt lat="44.9316999" lon="5.3983700">
<ele>1031.81</ele>
<time>2019-07-25T10:48:19Z</time>
</trkpt>
<trkpt lat="44.9316707" lon="5.3983589">
<ele>1031.82</ele>
<time>2019-07-25T10:48:20Z</time>
</trkpt>
<trkpt lat="44.9316396" lon="5.3983525">
<ele>1031.84</ele>
<time>2019-07-25T10:48:21Z</time>
</trkpt>
<trkpt lat="44.9316090" lon="5.3983504">
<ele>1031.85</ele>
<time>2019-07-25T10:48:22Z</time>
</trkpt>
<trkpt lat="44.9315818" lon="5.3983521">
<ele>1031.87</ele>
<time>2019-07-25T10:48:23Z</time>
</trkpt>
<trkpt lat="44.9315636" lon="5.3983527">
<ele>1031.88</ele>
<time>2019-07-25T10:48:24Z</time>
</trkpt>
<trkpt lat="44.9315488" lon="5.3983517">
<ele>1031.90</ele>
<time>2019-07-25T10:48:25Z</time>
</trkpt>
<trkpt lat="44.9315377" lon="5.3983442">
<ele>1031.92</ele>
<time>2019-07-25T10:48:26Z</time>
</trkpt>
<trkpt lat="44.9315203" lon="5.3983426">
<ele>1031.93</ele>
<time>2019-07-25T10:48:27Z</time>
</trkpt>
<trkpt lat="44.9314998" lon="5.3983439">
<ele>1031.95</ele>
<time>2019-07-25T10:48:28Z</time>
</trkpt>
<trkpt lat="44.9314807" lon="5.3983377">
<ele>1031.97</ele>
<time>2019-07-25T10:48:29Z</time>
</trkpt>
<trkpt lat="44.9314664" lon="5.3983367">
<ele>1031.98</ele>
<time>2019-07-25T10:48:30Z</time>
</trkpt>
<trkpt lat="44.9314495" lon="5.3983351">
<ele>1032.00</ele>
<time>2019-07-25T10:48:31Z</time>
</trkpt>
<trkpt lat="44.9314316" lon="5.3983328">
<ele>1032.01</ele>
<time>2019-07-25T10:48:32Z</time>
</trkpt>
<trkpt lat="44.9314162" lon="5.3983291">
<ele>1032.03</ele>
<time>2019-07-25T10:48:33Z</time>
</trkpt>
<trkpt lat="44.9314009" lon="5.3983222">
<ele>1032.04</ele>
<time>2019-07-25T10:48:34Z</time>
</trkpt>
<trkpt lat="44.9313756" lon="5.3983196">
<ele>1032.05</ele>
<time>2019-07-25T10:48:35Z</time>
</trkpt>
<trkpt lat="44.9313550" lon="5.3983240">
<ele>1032.06</ele>
<time>2019-07-25T10:48:36Z</time>
</trkpt>
<trkpt lat="44.9313412" lon="5.3983265">
<ele>1032.06</ele>
<time>2019-07-25T10:48:37Z</time>
</trkpt>
<trkpt lat="44.9313145" lon="5.3983274">
<ele>1032.07</ele>
<time>2019-07-25T10:48:38Z</time>
</trkpt>
<trkpt lat="44.9312830" lon="5.3983360">
<ele>1032.07</ele>
<time>2019-07-25T10:48:39Z</time>
</trkpt>
<trkpt lat="44.9312496" lon="5.3983375">
<ele>1032.07</ele>
<time>2019-07-25T10:48:40Z</time>
</trkpt>
<trkpt lat="44.9312135" lon="5.3983422">
<ele>1032.07</ele>
<time>2019-07-25T10:48:41Z</time>
</trkpt>
<trkpt lat="44.9311795" lon="5.3983508">
<ele>1032.07</ele>
<time>2019-07-25T10:48:42Z</time>
</trkpt>
<trkpt lat="44.9311448" lon="5.3983657">
<ele>1032.06</ele>
<time>2019-07-25T10:48:43Z</time>
</trkpt>
<trkpt lat="44.9311081" lon="5.3983851">
<ele>1032.06</ele>
<time>2019-07-25T10:48:44Z</time>
</trkpt>
<trkpt lat="44.9310799" lon="5.3984109">
<ele>1032.06</ele>
<time>2019-07-25T10:48:45Z</time>
</trkpt>
<trkpt lat="44.9310607" lon="5.3984284">
<ele>1032.06</ele>
<time>2019-07-25T10:48:46Z</time>
</trkpt>
<trkpt lat="44.9310481" lon="5.3984400">
<ele>1032.06</ele>
<time>2019-07-25T10:48:47Z</time>
</trkpt>
<trkpt lat="44.9310328" lon="5.3984371">
<ele>1032.05</ele>
<time>2019-07-25T10:48:48Z</time>
</trkpt>
<trkpt lat="44.9310056" lon="5.3984290">
<ele>1032.06</ele>
<time>2019-07-25T10:48:49Z</time>
</trkpt>
<trkpt lat="44.9309700" lon="5.3984309">
<ele>1032.06</ele>
<time>2019-07-25T10:48:50Z</time>
</trkpt>
<trkpt lat="44.9309312" lon="5.3984500">
<ele>1032.06</ele>
<time>2019-07-25T10:48:51Z</time>
</trkpt>
<trkpt lat="44.9308962" lon="5.3984706">
<ele>1032.06</ele>
<time>2019-07-25T10:48:52Z</time>
</trkpt>
<trkpt lat="44.9308597" lon="5.3985129">
<ele>1032.07</ele>
<time>2019-07-25T10:48:53Z</time>
</trkpt>
<trkpt lat="44.9308276" lon="5.3985239">
<ele>1032.07</ele>
<time>2019-07-25T10:48:54Z</time>
</trkpt>
<trkpt lat="44.9308078" lon="5.3985457">
<ele>1032.08</ele>
<time>2019-07-25T10:48:55Z</time>
</trkpt>
<trkpt lat="44.9307864" lon="5.3985831">
<ele>1032.09</ele>
<time>2019-07-25T10:48:56Z</time>
</trkpt>
<trkpt lat="44.9307589" lon="5.3986116">
<ele>1032.09</ele>
<time>2019-07-25T10:48:57Z</time>
</trkpt>
<trkpt lat="44.9307310" lon="5.3986255">
<ele>1032.09</ele>
<time>2019-07-25T10:48:58Z</time>
</trkpt>
<trkpt lat="44.9307055" lon="5.3986249">
<ele>1032.10</ele>
<time>2019-07-25T10:48:59Z</time>
</trkpt>
<trkpt lat="44.9306836" lon="5.3986313">
<ele>1032.10</ele>
<time>2019-07-25T10:49:00Z</time>
</trkpt>
<trkpt lat="44.9306510" lon="5.3986208">
<ele>1032.10</ele>
<time>2019-07-25T10:49:01Z</time>
</trkpt>
<trkpt lat="44.9306071" lon="5.3986072">
<ele>1032.10</ele>
<time>2019-07-25T10:49:02Z</time>
</trkpt>
<trkpt lat="44.9306129" lon="5.3986241">
<ele>1032.11</ele>
<time>2019-07-25T10:49:03Z</time>
</trkpt>
<trkpt lat="44.9306312" lon="5.3986923">
<ele>1032.11</ele>
<time>2019-07-25T10:49:04Z</time>
</trkpt>
<trkpt lat="44.9306455" lon="5.3986453">
<ele>1032.11</ele>
<time>2019-07-25T10:49:05Z</time>
</trkpt>
<trkpt lat="44.9306612" lon="5.3986349">
<ele>1032.11</ele>
<time>2019-07-25T10:49:06Z</time>
</trkpt>
<trkpt lat="44.9306621" lon="5.3986346">
<ele>1032.11</ele>
<time>2019-07-25T10:49:07Z</time>
</trkpt>
<trkpt lat="44.9306593" lon="5.3986392">
<ele>1032.11</ele>
<time>2019-07-25T10:49:08Z</time>
</trkpt>
<trkpt lat="44.9306585" lon="5.3986429">
<ele>1032.12</ele>
<time>2019-07-25T10:49:09Z</time>
</trkpt>
<trkpt lat="44.9306439" lon="5.3986775">
<ele>1032.13</ele>
<time>2019-07-25T10:49:10Z</time>
</trkpt>
<trkpt lat="44.9306323" lon="5.3986401">
<ele>1032.14</ele>
<time>2019-07-25T10:49:11Z</time>
</trkpt>
<trkpt lat="44.9306296" lon="5.3986627">
<ele>1032.16</ele>
<time>2019-07-25T10:49:12Z</time>
</trkpt>
<trkpt lat="44.9306291" lon="5.3986712">
<ele>1032.18</ele>
<time>2019-07-25T10:49:13Z</time>
</trkpt>
<trkpt lat="44.9305890" lon="5.3986831">
<ele>1032.21</ele>
<time>2019-07-25T10:49:14Z</time>
</trkpt>
<trkpt lat="44.9305538" lon="5.3986746">
<ele>1032.23</ele>
<time>2019-07-25T10:49:15Z</time>
</trkpt>
<trkpt lat="44.9305241" lon="5.3986857">
<ele>1032.48</ele>
<time>2019-07-25T10:49:16Z</time>
</trkpt>
<trkpt lat="44.9304941" lon="5.3986994">
<ele>1032.50</ele>
<time>2019-07-25T10:49:17Z</time>
</trkpt>
<trkpt lat="44.9304565" lon="5.3987246">
<ele>1032.52</ele>
<time>2019-07-25T10:49:18Z</time>
</trkpt>
<trkpt lat="44.9304147" lon="5.3987422">
<ele>1032.54</ele>
<time>2019-07-25T10:49:19Z</time>
</trkpt>
<trkpt lat="44.9303886" lon="5.3987747">
<ele>1032.56</ele>
<time>2019-07-25T10:49:20Z</time>
</trkpt>
<trkpt lat="44.9303591" lon="5.3988063">
<ele>1032.59</ele>
<time>2019-07-25T10:49:21Z</time>
</trkpt>
<trkpt lat="44.9303218" lon="5.3988365">
<ele>1032.61</ele>
<time>2019-07-25T10:49:22Z</time>
</trkpt>
<trkpt lat="44.9302833" lon="5.3988399">
<ele>1032.63</ele>
<time>2019-07-25T10:49:23Z</time>
</trkpt>
<trkpt lat="44.9302460" lon="5.3988687">
<ele>1032.66</ele>
<time>2019-07-25T10:49:24Z</time>
</trkpt>
<trkpt lat="44.9302187" lon="5.3988951">
<ele>1032.69</ele>
<time>2019-07-25T10:49:25Z</time>
</trkpt>
<trkpt lat="44.9302030" lon="5.3989066">
<ele>1032.72</ele>
<time>2019-07-25T10:49:26Z</time>
</trkpt>
<trkpt lat="44.9301879" lon="5.3989119">
<ele>1032.76</ele>
<time>2019-07-25T10:49:27Z</time>
</trkpt>
<trkpt lat="44.9301678" lon="5.3989132">
<ele>1032.79</ele>
<time>2019-07-25T10:49:28Z</time>
</trkpt>
<trkpt lat="44.9301413" lon="5.3989122">
<ele>1032.83</ele>
<time>2019-07-25T10:49:29Z</time>
</trkpt>
<trkpt lat="44.9301199" lon="5.3989298">
<ele>1032.87</ele>
<time>2019-07-25T10:49:30Z</time>
</trkpt>
<trkpt lat="44.9301115" lon="5.3989457">
<ele>1032.91</ele>
<time>2019-07-25T10:49:31Z</time>
</trkpt>
<trkpt lat="44.9301109" lon="5.3989506">
<ele>1032.92</ele>
<time>2019-07-25T10:49:32Z</time>
</trkpt>
<trkpt lat="44.9301092" lon="5.3989519">
<ele>1032.97</ele>
<time>2019-07-25T10:49:33Z</time>
</trkpt>
<trkpt lat="44.9301081" lon="5.3989570">
<ele>1033.01</ele>
<time>2019-07-25T10:49:34Z</time>
</trkpt>
<trkpt lat="44.9301023" lon="5.3989589">
<ele>1033.06</ele>
<time>2019-07-25T10:49:35Z</time>
</trkpt>
<trkpt lat="44.9300991" lon="5.3989668">
<ele>1033.06</ele>
<time>2019-07-25T10:49:36Z</time>
</trkpt>
<trkpt lat="44.9300974" lon="5.3989656">
<ele>1033.11</ele>
<time>2019-07-25T10:49:37Z</time>
</trkpt>
<trkpt lat="44.9300984" lon="5.3989724">
<ele>1033.12</ele>
<time>2019-07-25T10:49:38Z</time>
</trkpt>
<trkpt lat="44.9301031" lon="5.3989682">
<ele>1033.12</ele>
<time>2019-07-25T10:49:39Z</time>
</trkpt>
<trkpt lat="44.9301141" lon="5.3989646">
<ele>1033.12</ele>
<time>2019-07-25T10:49:40Z</time>
</trkpt>
<trkpt lat="44.9301147" lon="5.3989635">
<ele>1033.12</ele>
<time>2019-07-25T10:49:41Z</time>
</trkpt>
<trkpt lat="44.9301159" lon="5.3989614">
<ele>1033.13</ele>
<time>2019-07-25T10:49:42Z</time>
</trkpt>
<trkpt lat="44.9301164" lon="5.3989607">
<ele>1033.13</ele>
<time>2019-07-25T10:49:43Z</time>
</trkpt>
<trkpt lat="44.9301165" lon="5.3989608">
<ele>1033.13</ele>
<time>2019-07-25T10:49:44Z</time>
</trkpt>
<trkpt lat="44.9301172" lon="5.3989603">
<ele>1033.14</ele>
<time>2019-07-25T10:49:45Z</time>
</trkpt>
<trkpt lat="44.9301283" lon="5.3989623">
<ele>1033.15</ele>
<time>2019-07-25T10:49:46Z</time>
</trkpt>
<trkpt lat="44.9301391" lon="5.3989682">
<ele>1033.16</ele>
<time>2019-07-25T10:49:47Z</time>
</trkpt>
<trkpt lat="44.9301499" lon="5.3989777">
<ele>1033.17</ele>
<time>2019-07-25T10:49:48Z</time>
</trkpt>
<trkpt lat="44.9301539" lon="5.3989816">
<ele>1033.18</ele>
<time>2019-07-25T10:49:49Z</time>
</trkpt>
<trkpt lat="44.9301470" lon="5.3989707">
<ele>1033.18</ele>
<time>2019-07-25T10:49:50Z</time>
</trkpt>
<trkpt lat="44.9301507" lon="5.3989686">
<ele>1033.18</ele>
<time>2019-07-25T10:49:51Z</time>
</trkpt>
<trkpt lat="44.9301581" lon="5.3989700">
<ele>1033.19</ele>
<time>2019-07-25T10:49:52Z</time>
</trkpt>
<trkpt lat="44.9301691" lon="5.3989577">
<ele>1033.21</ele>
<time>2019-07-25T10:49:53Z</time>
</trkpt>
<trkpt lat="44.9301731" lon="5.3989584">
<ele>1033.24</ele>
<time>2019-07-25T10:49:54Z</time>
</trkpt>
<trkpt lat="44.9301733" lon="5.3989716">
<ele>1033.27</ele>
<time>2019-07-25T10:49:55Z</time>
</trkpt>
<trkpt lat="44.9301741" lon="5.3989885">
<ele>1033.30</ele>
<time>2019-07-25T10:49:56Z</time>
</trkpt>
<trkpt lat="44.9301768" lon="5.3990101">
<ele>1033.33</ele>
<time>2019-07-25T10:49:57Z</time>
</trkpt>
<trkpt lat="44.9301729" lon="5.3990302">
<ele>1033.38</ele>
<time>2019-07-25T10:49:58Z</time>
</trkpt>
<trkpt lat="44.9301614" lon="5.3990576">
<ele>1033.44</ele>
<time>2019-07-25T10:49:59Z</time>
</trkpt>
<trkpt lat="44.9301400" lon="5.3990899">
<ele>1033.49</ele>
<time>2019-07-25T10:50:00Z</time>
</trkpt>
<trkpt lat="44.9301173" lon="5.3991234">
<ele>1033.55</ele>
<time>2019-07-25T10:50:01Z</time>
</trkpt>
<trkpt lat="44.9300907" lon="5.3991531">
<ele>1033.60</ele>
<time>2019-07-25T10:50:02Z</time>
</trkpt>
<trkpt lat="44.9300584" lon="5.3991804">
<ele>1033.66</ele>
<time>2019-07-25T10:50:03Z</time>
</trkpt>
<trkpt lat="44.9300329" lon="5.3992045">
<ele>1033.73</ele>
<time>2019-07-25T10:50:04Z</time>
</trkpt>
<trkpt lat="44.9300102" lon="5.3992265">
<ele>1033.80</ele>
<time>2019-07-25T10:50:05Z</time>
</trkpt>
<trkpt lat="44.9299837" lon="5.3992343">
<ele>1033.87</ele>
<time>2019-07-25T10:50:06Z</time>
</trkpt>
<trkpt lat="44.9299634" lon="5.3992374">
<ele>1033.95</ele>
<time>2019-07-25T10:50:07Z</time>
</trkpt>
<trkpt lat="44.9299513" lon="5.3992319">
<ele>1034.02</ele>
<time>2019-07-25T10:50:08Z</time>
</trkpt>
<trkpt lat="44.9299382" lon="5.3992375">
<ele>1034.10</ele>
<time>2019-07-25T10:50:09Z</time>
</trkpt>
<trkpt lat="44.9299263" lon="5.3992419">
<ele>1034.18</ele>
<time>2019-07-25T10:50:10Z</time>
</trkpt>
<trkpt lat="44.9299127" lon="5.3992478">
<ele>1034.26</ele>
<time>2019-07-25T10:50:11Z</time>
</trkpt>
<trkpt lat="44.9298977" lon="5.3992637">
<ele>1034.35</ele>
<time>2019-07-25T10:50:12Z</time>
</trkpt>
<trkpt lat="44.9298889" lon="5.3992758">
<ele>1034.44</ele>
<time>2019-07-25T10:50:13Z</time>
</trkpt>
<trkpt lat="44.9298813" lon="5.3992903">
<ele>1034.52</ele>
<time>2019-07-25T10:50:14Z</time>
</trkpt>
<trkpt lat="44.9298609" lon="5.3992996">
<ele>1034.61</ele>
<time>2019-07-25T10:50:15Z</time>
</trkpt>
<trkpt lat="44.9298339" lon="5.3992873">
<ele>1034.70</ele>
<time>2019-07-25T10:50:16Z</time>
</trkpt>
<trkpt lat="44.9298195" lon="5.3993015">
<ele>1034.71</ele>
<time>2019-07-25T10:50:17Z</time>
</trkpt>
<trkpt lat="44.9298206" lon="5.3993250">
<ele>1034.80</ele>
<time>2019-07-25T10:50:18Z</time>
</trkpt>
<trkpt lat="44.9298287" lon="5.3993336">
<ele>1034.89</ele>
<time>2019-07-25T10:50:19Z</time>
</trkpt>
<trkpt lat="44.9298289" lon="5.3993376">
<ele>1034.97</ele>
<time>2019-07-25T10:50:20Z</time>
</trkpt>
<trkpt lat="44.9298298" lon="5.3993369">
<ele>1034.98</ele>
<time>2019-07-25T10:50:21Z</time>
</trkpt>
<trkpt lat="44.9298309" lon="5.3993364">
<ele>1034.99</ele>
<time>2019-07-25T10:50:22Z</time>
</trkpt>
<trkpt lat="44.9298299" lon="5.3993367">
<ele>1035.00</ele>
<time>2019-07-25T10:50:23Z</time>
</trkpt>
<trkpt lat="44.9298303" lon="5.3993328">
<ele>1035.10</ele>
<time>2019-07-25T10:50:24Z</time>
</trkpt>
<trkpt lat="44.9298319" lon="5.3993294">
<ele>1035.19</ele>
<time>2019-07-25T10:50:25Z</time>
</trkpt>
<trkpt lat="44.9298331" lon="5.3993242">
<ele>1035.28</ele>
<time>2019-07-25T10:50:26Z</time>
</trkpt>
<trkpt lat="44.9298360" lon="5.3993246">
<ele>1035.37</ele>
<time>2019-07-25T10:50:27Z</time>
</trkpt>
<trkpt lat="44.9298316" lon="5.3993300">
<ele>1035.46</ele>
<time>2019-07-25T10:50:28Z</time>
</trkpt>
<trkpt lat="44.9298214" lon="5.3993410">
<ele>1035.54</ele>
<time>2019-07-25T10:50:29Z</time>
</trkpt>
<trkpt lat="44.9298140" lon="5.3993492">
<ele>1035.63</ele>
<time>2019-07-25T10:50:30Z</time>
</trkpt>
<trkpt lat="44.9298130" lon="5.3993474">
<ele>1035.64</ele>
<time>2019-07-25T10:50:31Z</time>
</trkpt>
<trkpt lat="44.9298113" lon="5.3993447">
<ele>1035.72</ele>
<time>2019-07-25T10:50:32Z</time>
</trkpt>
<trkpt lat="44.9298091" lon="5.3993384">
<ele>1035.81</ele>
<time>2019-07-25T10:50:33Z</time>
</trkpt>
<trkpt lat="44.9297987" lon="5.3993368">
<ele>1035.90</ele>
<time>2019-07-25T10:50:34Z</time>
</trkpt>
<trkpt lat="44.9297898" lon="5.3993364">
<ele>1035.99</ele>
<time>2019-07-25T10:50:35Z</time>
</trkpt>
<trkpt lat="44.9297873" lon="5.3993389">
<ele>1036.07</ele>
<time>2019-07-25T10:50:36Z</time>
</trkpt>
<trkpt lat="44.9297845" lon="5.3993424">
<ele>1036.15</ele>
<time>2019-07-25T10:50:37Z</time>
</trkpt>
<trkpt lat="44.9297815" lon="5.3993474">
<ele>1036.22</ele>
<time>2019-07-25T10:50:38Z</time>
</trkpt>
<trkpt lat="44.9297722" lon="5.3993576">
<ele>1036.30</ele>
<time>2019-07-25T10:50:39Z</time>
</trkpt>
<trkpt lat="44.9297632" lon="5.3993713">
<ele>1036.38</ele>
<time>2019-07-25T10:50:40Z</time>
</trkpt>
<trkpt lat="44.9297566" lon="5.3993800">
<ele>1036.45</ele>
<time>2019-07-25T10:50:41Z</time>
</trkpt>
<trkpt lat="44.9297501" lon="5.3993931">
<ele>1036.54</ele>
<time>2019-07-25T10:50:42Z</time>
</trkpt>
<trkpt lat="44.9297444" lon="5.3994048">
<ele>1036.62</ele>
<time>2019-07-25T10:50:43Z</time>
</trkpt>
<trkpt lat="44.9297376" lon="5.3994199">
<ele>1036.71</ele>
<time>2019-07-25T10:50:44Z</time>
</trkpt>
<trkpt lat="44.9297316" lon="5.3994399">
<ele>1036.81</ele>
<time>2019-07-25T10:50:45Z</time>
</trkpt>
<trkpt lat="44.9297286" lon="5.3994507">
<ele>1036.90</ele>
<time>2019-07-25T10:50:46Z</time>
</trkpt>
<trkpt lat="44.9297255" lon="5.3994572">
<ele>1037.01</ele>
<time>2019-07-25T10:50:47Z</time>
</trkpt>
<trkpt lat="44.9297221" lon="5.3994651">
<ele>1037.11</ele>
<time>2019-07-25T10:50:48Z</time>
</trkpt>
<trkpt lat="44.9297266" lon="5.3994499">
<ele>1037.22</ele>
<time>2019-07-25T10:50:49Z</time>
</trkpt>
<trkpt lat="44.9297196" lon="5.3994532">
<ele>1037.33</ele>
<time>2019-07-25T10:50:50Z</time>
</trkpt>
<trkpt lat="44.9297071" lon="5.3994316">
<ele>1037.43</ele>
<time>2019-07-25T10:50:51Z</time>
</trkpt>
<trkpt lat="44.9297004" lon="5.3994270">
<ele>1037.44</ele>
<time>2019-07-25T10:50:52Z</time>
</trkpt>
<trkpt lat="44.9297004" lon="5.3994232">
<ele>1037.54</ele>
<time>2019-07-25T10:50:53Z</time>
</trkpt>
<trkpt lat="44.9297055" lon="5.3994259">
<ele>1037.55</ele>
<time>2019-07-25T10:50:54Z</time>
</trkpt>
<trkpt lat="44.9297011" lon="5.3994229">
<ele>1037.66</ele>
<time>2019-07-25T10:50:55Z</time>
</trkpt>
<trkpt lat="44.9296947" lon="5.3994294">
<ele>1037.77</ele>
<time>2019-07-25T10:50:56Z</time>
</trkpt>
<trkpt lat="44.9296822" lon="5.3994365">
<ele>1037.88</ele>
<time>2019-07-25T10:50:57Z</time>
</trkpt>
<trkpt lat="44.9296769" lon="5.3994265">
<ele>1038.00</ele>
<time>2019-07-25T10:50:58Z</time>
</trkpt>
<trkpt lat="44.9296700" lon="5.3994303">
<ele>1038.12</ele>
<time>2019-07-25T10:50:59Z</time>
</trkpt>
<trkpt lat="44.9296626" lon="5.3994308">
<ele>1038.25</ele>
<time>2019-07-25T10:51:00Z</time>
</trkpt>
<trkpt lat="44.9296617" lon="5.3994312">
<ele>1038.27</ele>
<time>2019-07-25T10:51:01Z</time>
</trkpt>
<trkpt lat="44.9296621" lon="5.3994310">
<ele>1038.28</ele>
<time>2019-07-25T10:51:02Z</time>
</trkpt>
<trkpt lat="44.9296626" lon="5.3994314">
<ele>1038.30</ele>
<time>2019-07-25T10:51:03Z</time>
</trkpt>
<trkpt lat="44.9296632" lon="5.3994312">
<ele>1038.31</ele>
<time>2019-07-25T10:51:04Z</time>
</trkpt>
<trkpt lat="44.9296644" lon="5.3994312">
<ele>1038.32</ele>
<time>2019-07-25T10:51:05Z</time>
</trkpt>
<trkpt lat="44.9296648" lon="5.3994316">
<ele>1038.33</ele>
<time>2019-07-25T10:51:06Z</time>
</trkpt>
<trkpt lat="44.9296647" lon="5.3994319">
<ele>1038.35</ele>
<time>2019-07-25T10:51:07Z</time>
</trkpt>
<trkpt lat="44.9296659" lon="5.3994331">
<ele>1038.36</ele>
<time>2019-07-25T10:51:08Z</time>
</trkpt>
<trkpt lat="44.9296667" lon="5.3994336">
<ele>1038.37</ele>
<time>2019-07-25T10:51:09Z</time>
</trkpt>
<trkpt lat="44.9296674" lon="5.3994340">
<ele>1038.38</ele>
<time>2019-07-25T10:51:10Z</time>
</trkpt>
<trkpt lat="44.9296692" lon="5.3994356">
<ele>1038.39</ele>
<time>2019-07-25T10:51:11Z</time>
</trkpt>
<trkpt lat="44.9296698" lon="5.3994364">
<ele>1038.40</ele>
<time>2019-07-25T10:51:12Z</time>
</trkpt>
<trkpt lat="44.9296704" lon="5.3994367">
<ele>1038.41</ele>
<time>2019-07-25T10:51:13Z</time>
</trkpt>
<trkpt lat="44.9296717" lon="5.3994372">
<ele>1038.42</ele>
<time>2019-07-25T10:51:14Z</time>
</trkpt>
<trkpt lat="44.9296686" lon="5.3994469">
<ele>1038.52</ele>
<time>2019-07-25T10:51:15Z</time>
</trkpt>
<trkpt lat="44.9296574" lon="5.3994613">
<ele>1038.61</ele>
<time>2019-07-25T10:51:16Z</time>
</trkpt>
<trkpt lat="44.9296408" lon="5.3994724">
<ele>1038.71</ele>
<time>2019-07-25T10:51:17Z</time>
</trkpt>
<trkpt lat="44.9296286" lon="5.3994813">
<ele>1038.81</ele>
<time>2019-07-25T10:51:18Z</time>
</trkpt>
<trkpt lat="44.9296177" lon="5.3994861">
<ele>1038.91</ele>
<time>2019-07-25T10:51:19Z</time>
</trkpt>
<trkpt lat="44.9296013" lon="5.3994936">
<ele>1039.01</ele>
<time>2019-07-25T10:51:20Z</time>
</trkpt>
<trkpt lat="44.9295808" lon="5.3994963">
<ele>1039.11</ele>
<time>2019-07-25T10:51:21Z</time>
</trkpt>
<trkpt lat="44.9295635" lon="5.3994999">
<ele>1039.22</ele>
<time>2019-07-25T10:51:22Z</time>
</trkpt>
<trkpt lat="44.9295491" lon="5.3995032">
<ele>1039.33</ele>
<time>2019-07-25T10:51:23Z</time>
</trkpt>
<trkpt lat="44.9295356" lon="5.3995084">
<ele>1039.43</ele>
<time>2019-07-25T10:51:24Z</time>
</trkpt>
<trkpt lat="44.9295209" lon="5.3995209">
<ele>1039.53</ele>
<time>2019-07-25T10:51:25Z</time>
</trkpt>
<trkpt lat="44.9295039" lon="5.3995310">
<ele>1039.64</ele>
<time>2019-07-25T10:51:26Z</time>
</trkpt>
<trkpt lat="44.9294819" lon="5.3995470">
<ele>1039.74</ele>
<time>2019-07-25T10:51:27Z</time>
</trkpt>
<trkpt lat="44.9294666" lon="5.3995550">
<ele>1039.84</ele>
<time>2019-07-25T10:51:28Z</time>
</trkpt>
<trkpt lat="44.9294517" lon="5.3995606">
<ele>1039.95</ele>
<time>2019-07-25T10:51:29Z</time>
</trkpt>
<trkpt lat="44.9294301" lon="5.3995720">
<ele>1040.05</ele>
<time>2019-07-25T10:51:30Z</time>
</trkpt>
<trkpt lat="44.9294080" lon="5.3995848">
<ele>1040.15</ele>
<time>2019-07-25T10:51:31Z</time>
</trkpt>
<trkpt lat="44.9293859" lon="5.3995999">
<ele>1040.26</ele>
<time>2019-07-25T10:51:32Z</time>
</trkpt>
<trkpt lat="44.9293593" lon="5.3996163">
<ele>1040.37</ele>
<time>2019-07-25T10:51:33Z</time>
</trkpt>
<trkpt lat="44.9293459" lon="5.3996436">
<ele>1040.48</ele>
<time>2019-07-25T10:51:34Z</time>
</trkpt>
<trkpt lat="44.9293328" lon="5.3996761">
<ele>1040.59</ele>
<time>2019-07-25T10:51:35Z</time>
</trkpt>
<trkpt lat="44.9293160" lon="5.3996932">
<ele>1040.71</ele>
<time>2019-07-25T10:51:36Z</time>
</trkpt>
<trkpt lat="44.9292928" lon="5.3997154">
<ele>1040.83</ele>
<time>2019-07-25T10:51:37Z</time>
</trkpt>
<trkpt lat="44.9292740" lon="5.3997103">
<ele>1040.94</ele>
<time>2019-07-25T10:51:38Z</time>
</trkpt>
<trkpt lat="44.9292676" lon="5.3997123">
<ele>1041.06</ele>
<time>2019-07-25T10:51:39Z</time>
</trkpt>
<trkpt lat="44.9292646" lon="5.3997125">
<ele>1041.17</ele>
<time>2019-07-25T10:51:40Z</time>
</trkpt>
<trkpt lat="44.9292598" lon="5.3997032">
<ele>1041.29</ele>
<time>2019-07-25T10:51:41Z</time>
</trkpt>
<trkpt lat="44.9292532" lon="5.3996938">
<ele>1041.40</ele>
<time>2019-07-25T10:51:42Z</time>
</trkpt>
<trkpt lat="44.9292481" lon="5.3996826">
<ele>1041.51</ele>
<time>2019-07-25T10:51:43Z</time>
</trkpt>
<trkpt lat="44.9292473" lon="5.3996731">
<ele>1041.62</ele>
<time>2019-07-25T10:51:44Z</time>
</trkpt>
<trkpt lat="44.9292479" lon="5.3996658">
<ele>1041.73</ele>
<time>2019-07-25T10:51:45Z</time>
</trkpt>
<trkpt lat="44.9292464" lon="5.3996402">
<ele>1041.83</ele>
<time>2019-07-25T10:51:46Z</time>
</trkpt>
<trkpt lat="44.9292392" lon="5.3996053">
<ele>1041.94</ele>
<time>2019-07-25T10:51:47Z</time>
</trkpt>
<trkpt lat="44.9292256" lon="5.3995763">
<ele>1042.04</ele>
<time>2019-07-25T10:51:48Z</time>
</trkpt>
<trkpt lat="44.9292056" lon="5.3995500">
<ele>1042.14</ele>
<time>2019-07-25T10:51:49Z</time>
</trkpt>
<trkpt lat="44.9291829" lon="5.3995275">
<ele>1042.24</ele>
<time>2019-07-25T10:51:50Z</time>
</trkpt>
<trkpt lat="44.9291584" lon="5.3994815">
<ele>1043.24</ele>
<time>2019-07-25T10:51:51Z</time>
</trkpt>
<trkpt lat="44.9291398" lon="5.3994322">
<ele>1044.04</ele>
<time>2019-07-25T10:51:52Z</time>
</trkpt>
<trkpt lat="44.9291365" lon="5.3993757">
<ele>1044.68</ele>
<time>2019-07-25T10:51:53Z</time>
</trkpt>
<trkpt lat="44.9291351" lon="5.3993215">
<ele>1044.73</ele>
<time>2019-07-25T10:51:54Z</time>
</trkpt>
<trkpt lat="44.9291259" lon="5.3992680">
<ele>1044.78</ele>
<time>2019-07-25T10:51:55Z</time>
</trkpt>
<trkpt lat="44.9291174" lon="5.3992412">
<ele>1044.83</ele>
<time>2019-07-25T10:51:56Z</time>
</trkpt>
<trkpt lat="44.9291175" lon="5.3992369">
<ele>1044.84</ele>
<time>2019-07-25T10:51:57Z</time>
</trkpt>
<trkpt lat="44.9291201" lon="5.3992405">
<ele>1044.89</ele>
<time>2019-07-25T10:51:58Z</time>
</trkpt>
<trkpt lat="44.9291272" lon="5.3992487">
<ele>1044.94</ele>
<time>2019-07-25T10:51:59Z</time>
</trkpt>
<trkpt lat="44.9291284" lon="5.3992529">
<ele>1044.99</ele>
<time>2019-07-25T10:52:00Z</time>
</trkpt>
<trkpt lat="44.9291287" lon="5.3992458">
<ele>1045.04</ele>
<time>2019-07-25T10:52:01Z</time>
</trkpt>
<trkpt lat="44.9291275" lon="5.3992431">
<ele>1045.04</ele>
<time>2019-07-25T10:52:02Z</time>
</trkpt>
<trkpt lat="44.9291286" lon="5.3992445">
<ele>1045.05</ele>
<time>2019-07-25T10:52:03Z</time>
</trkpt>
<trkpt lat="44.9291292" lon="5.3992443">
<ele>1045.05</ele>
<time>2019-07-25T10:52:04Z</time>
</trkpt>
<trkpt lat="44.9291293" lon="5.3992441">
<ele>1045.06</ele>
<time>2019-07-25T10:52:05Z</time>
</trkpt>
<trkpt lat="44.9291320" lon="5.3992420">
<ele>1045.10</ele>
<time>2019-07-25T10:52:06Z</time>
</trkpt>
<trkpt lat="44.9291350" lon="5.3992420">
<ele>1045.14</ele>
<time>2019-07-25T10:52:07Z</time>
</trkpt>
<trkpt lat="44.9291402" lon="5.3992421">
<ele>1045.18</ele>
<time>2019-07-25T10:52:08Z</time>
</trkpt>
<trkpt lat="44.9291413" lon="5.3992430">
<ele>1045.18</ele>
<time>2019-07-25T10:52:09Z</time>
</trkpt>
<trkpt lat="44.9291411" lon="5.3992395">
<ele>1045.19</ele>
<time>2019-07-25T10:52:10Z</time>
</trkpt>
<trkpt lat="44.9291388" lon="5.3992226">
<ele>1045.22</ele>
<time>2019-07-25T10:52:11Z</time>
</trkpt>
<trkpt lat="44.9291586" lon="5.3992120">
<ele>1045.22</ele>
<time>2019-07-25T10:52:12Z</time>
</trkpt>
<trkpt lat="44.9291458" lon="5.3992315">
<ele>1045.26</ele>
<time>2019-07-25T10:52:13Z</time>
</trkpt>
<trkpt lat="44.9291323" lon="5.3992515">
<ele>1045.29</ele>
<time>2019-07-25T10:52:14Z</time>
</trkpt>
<trkpt lat="44.9291297" lon="5.3992470">
<ele>1045.32</ele>
<time>2019-07-25T10:52:15Z</time>
</trkpt>
<trkpt lat="44.9291295" lon="5.3992494">
<ele>1045.32</ele>
<time>2019-07-25T10:52:16Z</time>
</trkpt>
<trkpt lat="44.9291320" lon="5.3992476">
<ele>1045.32</ele>
<time>2019-07-25T10:52:17Z</time>
</trkpt>
<trkpt lat="44.9291320" lon="5.3992465">
<ele>1045.33</ele>
<time>2019-07-25T10:52:18Z</time>
</trkpt>
<trkpt lat="44.9291314" lon="5.3992463">
<ele>1045.33</ele>
<time>2019-07-25T10:52:19Z</time>
</trkpt>
<trkpt lat="44.9291325" lon="5.3992452">
<ele>1045.34</ele>
<time>2019-07-25T10:52:20Z</time>
</trkpt>
<trkpt lat="44.9291327" lon="5.3992449">
<ele>1045.34</ele>
<time>2019-07-25T10:52:21Z</time>
</trkpt>
<trkpt lat="44.9291324" lon="5.3992440">
<ele>1045.34</ele>
<time>2019-07-25T10:52:22Z</time>
</trkpt>
<trkpt lat="44.9291331" lon="5.3992501">
<ele>1045.37</ele>
<time>2019-07-25T10:52:23Z</time>
</trkpt>
<trkpt lat="44.9291357" lon="5.3992515">
<ele>1045.39</ele>
<time>2019-07-25T10:52:24Z</time>
</trkpt>
<trkpt lat="44.9291357" lon="5.3992528">
<ele>1045.40</ele>
<time>2019-07-25T10:52:25Z</time>
</trkpt>
<trkpt lat="44.9291358" lon="5.3992516">
<ele>1045.40</ele>
<time>2019-07-25T10:52:26Z</time>
</trkpt>
<trkpt lat="44.9291350" lon="5.3992499">
<ele>1045.40</ele>
<time>2019-07-25T10:52:27Z</time>
</trkpt>
<trkpt lat="44.9291359" lon="5.3992474">
<ele>1045.39</ele>
<time>2019-07-25T10:52:28Z</time>
</trkpt>
<trkpt lat="44.9291359" lon="5.3992467">
<ele>1045.39</ele>
<time>2019-07-25T10:52:29Z</time>
</trkpt>
<trkpt lat="44.9291358" lon="5.3992467">
<ele>1045.39</ele>
<time>2019-07-25T10:52:30Z</time>
</trkpt>
<trkpt lat="44.9291358" lon="5.3992455">
<ele>1045.38</ele>
<time>2019-07-25T10:52:31Z</time>
</trkpt>
<trkpt lat="44.9291358" lon="5.3992453">
<ele>1045.38</ele>
<time>2019-07-25T10:52:32Z</time>
</trkpt>
<trkpt lat="44.9291358" lon="5.3992450">
<ele>1045.38</ele>
<time>2019-07-25T10:52:33Z</time>
</trkpt>
<trkpt lat="44.9291358" lon="5.3992448">
<ele>1045.38</ele>
<time>2019-07-25T10:52:34Z</time>
</trkpt>
<trkpt lat="44.9291359" lon="5.3992442">
<ele>1045.37</ele>
<time>2019-07-25T10:52:35Z</time>
</trkpt>
<trkpt lat="44.9291359" lon="5.3992441">
<ele>1045.37</ele>
<time>2019-07-25T10:52:36Z</time>
</trkpt>
<trkpt lat="44.9291359" lon="5.3992439">
<ele>1045.37</ele>
<time>2019-07-25T10:52:37Z</time>
</trkpt>
<trkpt lat="44.9291359" lon="5.3992434">
<ele>1045.36</ele>
<time>2019-07-25T10:52:38Z</time>
</trkpt>
<trkpt lat="44.9291356" lon="5.3992438">
<ele>1045.36</ele>
<time>2019-07-25T10:52:39Z</time>
</trkpt>
<trkpt lat="44.9291352" lon="5.3992442">
<ele>1045.36</ele>
<time>2019-07-25T10:52:40Z</time>
</trkpt>
<trkpt lat="44.9291382" lon="5.3992441">
<ele>1045.32</ele>
<time>2019-07-25T10:52:41Z</time>
</trkpt>
<trkpt lat="44.9291330" lon="5.3992393">
<ele>1045.29</ele>
<time>2019-07-25T10:52:42Z</time>
</trkpt>
<trkpt lat="44.9291157" lon="5.3992251">
<ele>1045.27</ele>
<time>2019-07-25T10:52:43Z</time>
</trkpt>
<trkpt lat="44.9290956" lon="5.3992093">
<ele>1045.25</ele>
<time>2019-07-25T10:52:44Z</time>
</trkpt>
<trkpt lat="44.9290784" lon="5.3991939">
<ele>1045.23</ele>
<time>2019-07-25T10:52:45Z</time>
</trkpt>
<trkpt lat="44.9290580" lon="5.3991775">
<ele>1045.22</ele>
<time>2019-07-25T10:52:46Z</time>
</trkpt>
<trkpt lat="44.9290375" lon="5.3991691">
<ele>1045.20</ele>
<time>2019-07-25T10:52:47Z</time>
</trkpt>
<trkpt lat="44.9290176" lon="5.3991638">
<ele>1045.17</ele>
<time>2019-07-25T10:52:48Z</time>
</trkpt>
<trkpt lat="44.9289970" lon="5.3991520">
<ele>1045.14</ele>
<time>2019-07-25T10:52:49Z</time>
</trkpt>
<trkpt lat="44.9289753" lon="5.3991392">
<ele>1045.10</ele>
<time>2019-07-25T10:52:50Z</time>
</trkpt>
<trkpt lat="44.9289573" lon="5.3991294">
<ele>1045.06</ele>
<time>2019-07-25T10:52:51Z</time>
</trkpt>
<trkpt lat="44.9289363" lon="5.3991173">
<ele>1045.02</ele>
<time>2019-07-25T10:52:52Z</time>
</trkpt>
<trkpt lat="44.9289121" lon="5.3991035">
<ele>1044.97</ele>
<time>2019-07-25T10:52:53Z</time>
</trkpt>
<trkpt lat="44.9288917" lon="5.3990837">
<ele>1044.93</ele>
<time>2019-07-25T10:52:54Z</time>
</trkpt>
<trkpt lat="44.9288844" lon="5.3990606">
<ele>1044.88</ele>
<time>2019-07-25T10:52:55Z</time>
</trkpt>
<trkpt lat="44.9288855" lon="5.3990275">
<ele>1044.85</ele>
<time>2019-07-25T10:52:56Z</time>
</trkpt>
<trkpt lat="44.9288784" lon="5.3989981">
<ele>1044.81</ele>
<time>2019-07-25T10:52:57Z</time>
</trkpt>
<trkpt lat="44.9288638" lon="5.3989767">
<ele>1044.77</ele>
<time>2019-07-25T10:52:58Z</time>
</trkpt>
<trkpt lat="44.9288490" lon="5.3989646">
<ele>1044.74</ele>
<time>2019-07-25T10:52:59Z</time>
</trkpt>
<trkpt lat="44.9288342" lon="5.3989491">
<ele>1044.71</ele>
<time>2019-07-25T10:53:00Z</time>
</trkpt>
<trkpt lat="44.9288218" lon="5.3989360">
<ele>1044.67</ele>
<time>2019-07-25T10:53:01Z</time>
</trkpt>
<trkpt lat="44.9288024" lon="5.3989267">
<ele>1044.63</ele>
<time>2019-07-25T10:53:02Z</time>
</trkpt>
<trkpt lat="44.9287753" lon="5.3989137">
<ele>1044.58</ele>
<time>2019-07-25T10:53:03Z</time>
</trkpt>
<trkpt lat="44.9287478" lon="5.3989046">
<ele>1044.54</ele>
<time>2019-07-25T10:53:04Z</time>
</trkpt>
<trkpt lat="44.9287182" lon="5.3988953">
<ele>1044.49</ele>
<time>2019-07-25T10:53:05Z</time>
</trkpt>
<trkpt lat="44.9286869" lon="5.3988911">
<ele>1044.44</ele>
<time>2019-07-25T10:53:06Z</time>
</trkpt>
<trkpt lat="44.9286569" lon="5.3988904">
<ele>1044.39</ele>
<time>2019-07-25T10:53:07Z</time>
</trkpt>
<trkpt lat="44.9286183" lon="5.3988858">
<ele>1044.34</ele>
<time>2019-07-25T10:53:08Z</time>
</trkpt>
<trkpt lat="44.9285826" lon="5.3988822">
<ele>1044.29</ele>
<time>2019-07-25T10:53:09Z</time>
</trkpt>
<trkpt lat="44.9285455" lon="5.3988835">
<ele>1044.24</ele>
<time>2019-07-25T10:53:10Z</time>
</trkpt>
<trkpt lat="44.9285157" lon="5.3988818">
<ele>1044.18</ele>
<time>2019-07-25T10:53:11Z</time>
</trkpt>
<trkpt lat="44.9284789" lon="5.3988877">
<ele>1044.12</ele>
<time>2019-07-25T10:53:12Z</time>
</trkpt>
<trkpt lat="44.9284508" lon="5.3988936">
<ele>1044.07</ele>
<time>2019-07-25T10:53:13Z</time>
</trkpt>
<trkpt lat="44.9284241" lon="5.3989034">
<ele>1044.00</ele>
<time>2019-07-25T10:53:14Z</time>
</trkpt>
<trkpt lat="44.9283991" lon="5.3989176">
<ele>1043.94</ele>
<time>2019-07-25T10:53:15Z</time>
</trkpt>
<trkpt lat="44.9283788" lon="5.3989410">
<ele>1043.87</ele>
<time>2019-07-25T10:53:16Z</time>
</trkpt>
<trkpt lat="44.9283550" lon="5.3989728">
<ele>1043.80</ele>
<time>2019-07-25T10:53:17Z</time>
</trkpt>
<trkpt lat="44.9283343" lon="5.3989923">
<ele>1043.75</ele>
<time>2019-07-25T10:53:18Z</time>
</trkpt>
<trkpt lat="44.9283153" lon="5.3990116">
<ele>1043.69</ele>
<time>2019-07-25T10:53:19Z</time>
</trkpt>
<trkpt lat="44.9282927" lon="5.3990251">
<ele>1043.64</ele>
<time>2019-07-25T10:53:20Z</time>
</trkpt>
<trkpt lat="44.9282841" lon="5.3990293">
<ele>1043.59</ele>
<time>2019-07-25T10:53:21Z</time>
</trkpt>
<trkpt lat="44.9282823" lon="5.3990313">
<ele>1043.53</ele>
<time>2019-07-25T10:53:22Z</time>
</trkpt>
<trkpt lat="44.9282824" lon="5.3990351">
<ele>1043.53</ele>
<time>2019-07-25T10:53:23Z</time>
</trkpt>
<trkpt lat="44.9282770" lon="5.3990387">
<ele>1043.52</ele>
<time>2019-07-25T10:53:24Z</time>
</trkpt>
<trkpt lat="44.9282752" lon="5.3990388">
<ele>1043.52</ele>
<time>2019-07-25T10:53:25Z</time>
</trkpt>
<trkpt lat="44.9282752" lon="5.3990380">
<ele>1043.51</ele>
<time>2019-07-25T10:53:26Z</time>
</trkpt>
<trkpt lat="44.9282560" lon="5.3990298">
<ele>1043.51</ele>
<time>2019-07-25T10:53:27Z</time>
</trkpt>
<trkpt lat="44.9282543" lon="5.3990382">
<ele>1043.47</ele>
<time>2019-07-25T10:53:28Z</time>
</trkpt>
<trkpt lat="44.9282447" lon="5.3990080">
<ele>1043.43</ele>
<time>2019-07-25T10:53:29Z</time>
</trkpt>
<trkpt lat="44.9282464" lon="5.3989916">
<ele>1043.39</ele>
<time>2019-07-25T10:53:30Z</time>
</trkpt>
<trkpt lat="44.9282496" lon="5.3989794">
<ele>1043.35</ele>
<time>2019-07-25T10:53:31Z</time>
</trkpt>
<trkpt lat="44.9282523" lon="5.3989584">
<ele>1043.30</ele>
<time>2019-07-25T10:53:32Z</time>
</trkpt>
<trkpt lat="44.9282459" lon="5.3989511">
<ele>1043.24</ele>
<time>2019-07-25T10:53:33Z</time>
</trkpt>
<trkpt lat="44.9282446" lon="5.3989375">
<ele>1043.18</ele>
<time>2019-07-25T10:53:34Z</time>
</trkpt>
<trkpt lat="44.9282408" lon="5.3989273">
<ele>1043.11</ele>
<time>2019-07-25T10:53:35Z</time>
</trkpt>
<trkpt lat="44.9282226" lon="5.3989321">
<ele>1043.04</ele>
<time>2019-07-25T10:53:36Z</time>
</trkpt>
<trkpt lat="44.9282122" lon="5.3989337">
<ele>1042.97</ele>
<time>2019-07-25T10:53:37Z</time>
</trkpt>
<trkpt lat="44.9282022" lon="5.3989336">
<ele>1042.91</ele>
<time>2019-07-25T10:53:38Z</time>
</trkpt>
<trkpt lat="44.9282005" lon="5.3989353">
<ele>1042.84</ele>
<time>2019-07-25T10:53:39Z</time>
</trkpt>
<trkpt lat="44.9281962" lon="5.3989409">
<ele>1042.77</ele>
<time>2019-07-25T10:53:40Z</time>
</trkpt>
<trkpt lat="44.9281865" lon="5.3989490">
<ele>1042.69</ele>
<time>2019-07-25T10:53:41Z</time>
</trkpt>
<trkpt lat="44.9281641" lon="5.3989549">
<ele>1042.61</ele>
<time>2019-07-25T10:53:42Z</time>
</trkpt>
<trkpt lat="44.9281442" lon="5.3989611">
<ele>1042.53</ele>
<time>2019-07-25T10:53:43Z</time>
</trkpt>
<trkpt lat="44.9281253" lon="5.3989598">
<ele>1042.44</ele>
<time>2019-07-25T10:53:44Z</time>
</trkpt>
<trkpt lat="44.9281066" lon="5.3989601">
<ele>1042.34</ele>
<time>2019-07-25T10:53:45Z</time>
</trkpt>
<trkpt lat="44.9280938" lon="5.3989614">
<ele>1042.24</ele>
<time>2019-07-25T10:53:46Z</time>
</trkpt>
<trkpt lat="44.9280801" lon="5.3989720">
<ele>1042.14</ele>
<time>2019-07-25T10:53:47Z</time>
</trkpt>
<trkpt lat="44.9280611" lon="5.3989876">
<ele>1042.03</ele>
<time>2019-07-25T10:53:48Z</time>
</trkpt>
<trkpt lat="44.9280329" lon="5.3990166">
<ele>1041.92</ele>
<time>2019-07-25T10:53:49Z</time>
</trkpt>
<trkpt lat="44.9280014" lon="5.3990301">
<ele>1041.81</ele>
<time>2019-07-25T10:53:50Z</time>
</trkpt>
<trkpt lat="44.9279713" lon="5.3990494">
<ele>1041.71</ele>
<time>2019-07-25T10:53:51Z</time>
</trkpt>
<trkpt lat="44.9279493" lon="5.3990761">
<ele>1041.60</ele>
<time>2019-07-25T10:53:52Z</time>
</trkpt>
<trkpt lat="44.9279370" lon="5.3991127">
<ele>1041.50</ele>
<time>2019-07-25T10:53:53Z</time>
</trkpt>
<trkpt lat="44.9279281" lon="5.3991441">
<ele>1041.40</ele>
<time>2019-07-25T10:53:54Z</time>
</trkpt>
<trkpt lat="44.9279239" lon="5.3991781">
<ele>1041.30</ele>
<time>2019-07-25T10:53:55Z</time>
</trkpt>
<trkpt lat="44.9279209" lon="5.3992117">
<ele>1041.21</ele>
<time>2019-07-25T10:53:56Z</time>
</trkpt>
<trkpt lat="44.9279206" lon="5.3992409">
<ele>1041.13</ele>
<time>2019-07-25T10:53:57Z</time>
</trkpt>
<trkpt lat="44.9279208" lon="5.3992726">
<ele>1041.06</ele>
<time>2019-07-25T10:53:58Z</time>
</trkpt>
<trkpt lat="44.9279199" lon="5.3992949">
<ele>1041.00</ele>
<time>2019-07-25T10:53:59Z</time>
</trkpt>
<trkpt lat="44.9279181" lon="5.3993218">
<ele>1040.94</ele>
<time>2019-07-25T10:54:00Z</time>
</trkpt>
<trkpt lat="44.9279333" lon="5.3993160">
<ele>1040.88</ele>
<time>2019-07-25T10:54:01Z</time>
</trkpt>
<trkpt lat="44.9279351" lon="5.3993269">
<ele>1040.82</ele>
<time>2019-07-25T10:54:02Z</time>
</trkpt>
<trkpt lat="44.9279200" lon="5.3993366">
<ele>1040.76</ele>
<time>2019-07-25T10:54:03Z</time>
</trkpt>
<trkpt lat="44.9279149" lon="5.3993544">
<ele>1040.70</ele>
<time>2019-07-25T10:54:04Z</time>
</trkpt>
<trkpt lat="44.9279073" lon="5.3993765">
<ele>1040.65</ele>
<time>2019-07-25T10:54:05Z</time>
</trkpt>
<trkpt lat="44.9278897" lon="5.3994072">
<ele>1040.60</ele>
<time>2019-07-25T10:54:06Z</time>
</trkpt>
<trkpt lat="44.9278647" lon="5.3994268">
<ele>1040.55</ele>
<time>2019-07-25T10:54:07Z</time>
</trkpt>
<trkpt lat="44.9278411" lon="5.3994557">
<ele>1040.50</ele>
<time>2019-07-25T10:54:08Z</time>
</trkpt>
<trkpt lat="44.9278162" lon="5.3994866">
<ele>1040.45</ele>
<time>2019-07-25T10:54:09Z</time>
</trkpt>
<trkpt lat="44.9277958" lon="5.3995046">
<ele>1040.41</ele>
<time>2019-07-25T10:54:10Z</time>
</trkpt>
<trkpt lat="44.9277787" lon="5.3995264">
<ele>1040.37</ele>
<time>2019-07-25T10:54:11Z</time>
</trkpt>
<trkpt lat="44.9277715" lon="5.3995530">
<ele>1040.33</ele>
<time>2019-07-25T10:54:12Z</time>
</trkpt>
<trkpt lat="44.9277723" lon="5.3995830">
<ele>1040.29</ele>
<time>2019-07-25T10:54:13Z</time>
</trkpt>
<trkpt lat="44.9277652" lon="5.3996156">
<ele>1040.26</ele>
<time>2019-07-25T10:54:14Z</time>
</trkpt>
<trkpt lat="44.9277606" lon="5.3996274">
<ele>1040.23</ele>
<time>2019-07-25T10:54:15Z</time>
</trkpt>
<trkpt lat="44.9277610" lon="5.3996247">
<ele>1040.20</ele>
<time>2019-07-25T10:54:16Z</time>
</trkpt>
<trkpt lat="44.9277627" lon="5.3996304">
<ele>1040.19</ele>
<time>2019-07-25T10:54:17Z</time>
</trkpt>
<trkpt lat="44.9277663" lon="5.3996318">
<ele>1040.16</ele>
<time>2019-07-25T10:54:18Z</time>
</trkpt>
<trkpt lat="44.9277661" lon="5.3996351">
<ele>1040.15</ele>
<time>2019-07-25T10:54:19Z</time>
</trkpt>
<trkpt lat="44.9277664" lon="5.3996354">
<ele>1040.15</ele>
<time>2019-07-25T10:54:20Z</time>
</trkpt>
<trkpt lat="44.9277668" lon="5.3996364">
<ele>1040.14</ele>
<time>2019-07-25T10:54:21Z</time>
</trkpt>
<trkpt lat="44.9277678" lon="5.3996363">
<ele>1040.14</ele>
<time>2019-07-25T10:54:22Z</time>
</trkpt>
<trkpt lat="44.9277682" lon="5.3996365">
<ele>1040.13</ele>
<time>2019-07-25T10:54:23Z</time>
</trkpt>
<trkpt lat="44.9277685" lon="5.3996365">
<ele>1040.12</ele>
<time>2019-07-25T10:54:24Z</time>
</trkpt>
<trkpt lat="44.9277694" lon="5.3996361">
<ele>1040.12</ele>
<time>2019-07-25T10:54:25Z</time>
</trkpt>
<trkpt lat="44.9277710" lon="5.3996360">
<ele>1040.11</ele>
<time>2019-07-25T10:54:26Z</time>
</trkpt>
<trkpt lat="44.9277718" lon="5.3996359">
<ele>1040.11</ele>
<time>2019-07-25T10:54:27Z</time>
</trkpt>
<trkpt lat="44.9277720" lon="5.3996365">
<ele>1040.10</ele>
<time>2019-07-25T10:54:28Z</time>
</trkpt>
<trkpt lat="44.9277728" lon="5.3996360">
<ele>1040.10</ele>
<time>2019-07-25T10:54:29Z</time>
</trkpt>
<trkpt lat="44.9277724" lon="5.3996362">
<ele>1040.09</ele>
<time>2019-07-25T10:54:30Z</time>
</trkpt>
<trkpt lat="44.9277724" lon="5.3996364">
<ele>1040.08</ele>
<time>2019-07-25T10:54:31Z</time>
</trkpt>
<trkpt lat="44.9277721" lon="5.3996367">
<ele>1040.08</ele>
<time>2019-07-25T10:54:32Z</time>
</trkpt>
<trkpt lat="44.9277720" lon="5.3996367">
<ele>1040.07</ele>
<time>2019-07-25T10:54:33Z</time>
</trkpt>
<trkpt lat="44.9277722" lon="5.3996367">
<ele>1040.06</ele>
<time>2019-07-25T10:54:34Z</time>
</trkpt>
<trkpt lat="44.9277714" lon="5.3996375">
<ele>1040.06</ele>
<time>2019-07-25T10:54:35Z</time>
</trkpt>
<trkpt lat="44.9277719" lon="5.3996372">
<ele>1040.05</ele>
<time>2019-07-25T10:54:36Z</time>
</trkpt>
<trkpt lat="44.9277743" lon="5.3996350">
<ele>1040.04</ele>
<time>2019-07-25T10:54:37Z</time>
</trkpt>
<trkpt lat="44.9277747" lon="5.3996346">
<ele>1040.04</ele>
<time>2019-07-25T10:54:38Z</time>
</trkpt>
<trkpt lat="44.9277753" lon="5.3996341">
<ele>1040.03</ele>
<time>2019-07-25T10:54:39Z</time>
</trkpt>
<trkpt lat="44.9277759" lon="5.3996349">
<ele>1040.02</ele>
<time>2019-07-25T10:54:40Z</time>
</trkpt>
<trkpt lat="44.9277769" lon="5.3996350">
<ele>1040.01</ele>
<time>2019-07-25T10:54:41Z</time>
</trkpt>
<trkpt lat="44.9277773" lon="5.3996351">
<ele>1040.00</ele>
<time>2019-07-25T10:54:42Z</time>
</trkpt>
<trkpt lat="44.9277773" lon="5.3996355">
<ele>1039.99</ele>
<time>2019-07-25T10:54:43Z</time>
</trkpt>
<trkpt lat="44.9277777" lon="5.3996365">
<ele>1039.98</ele>
<time>2019-07-25T10:54:44Z</time>
</trkpt>
<trkpt lat="44.9277770" lon="5.3996385">
<ele>1039.97</ele>
<time>2019-07-25T10:54:45Z</time>
</trkpt>
<trkpt lat="44.9277771" lon="5.3996388">
<ele>1039.95</ele>
<time>2019-07-25T10:54:46Z</time>
</trkpt>
<trkpt lat="44.9277769" lon="5.3996392">
<ele>1039.94</ele>
<time>2019-07-25T10:54:47Z</time>
</trkpt>
<trkpt lat="44.9277757" lon="5.3996408">
<ele>1039.93</ele>
<time>2019-07-25T10:54:48Z</time>
</trkpt>
<trkpt lat="44.9277753" lon="5.3996417">
<ele>1039.92</ele>
<time>2019-07-25T10:54:49Z</time>
</trkpt>
<trkpt lat="44.9277734" lon="5.3996434">
<ele>1039.91</ele>
<time>2019-07-25T10:54:50Z</time>
</trkpt>
<trkpt lat="44.9277720" lon="5.3996450">
<ele>1039.90</ele>
<time>2019-07-25T10:54:51Z</time>
</trkpt>
<trkpt lat="44.9277718" lon="5.3996454">
<ele>1039.88</ele>
<time>2019-07-25T10:54:52Z</time>
</trkpt>
<trkpt lat="44.9277718" lon="5.3996459">
<ele>1039.87</ele>
<time>2019-07-25T10:54:53Z</time>
</trkpt>
<trkpt lat="44.9277722" lon="5.3996459">
<ele>1039.86</ele>
<time>2019-07-25T10:54:54Z</time>
</trkpt>
<trkpt lat="44.9277723" lon="5.3996459">
<ele>1039.85</ele>
<time>2019-07-25T10:54:55Z</time>
</trkpt>
<trkpt lat="44.9277730" lon="5.3996452">
<ele>1039.84</ele>
<time>2019-07-25T10:54:56Z</time>
</trkpt>
<trkpt lat="44.9277699" lon="5.3996481">
<ele>1039.83</ele>
<time>2019-07-25T10:54:57Z</time>
</trkpt>
<trkpt lat="44.9277611" lon="5.3996602">
<ele>1039.73</ele>
<time>2019-07-25T10:54:58Z</time>
</trkpt>
<trkpt lat="44.9277543" lon="5.3996689">
<ele>1039.63</ele>
<time>2019-07-25T10:54:59Z</time>
</trkpt>
<trkpt lat="44.9277524" lon="5.3996718">
<ele>1039.62</ele>
<time>2019-07-25T10:55:00Z</time>
</trkpt>
<trkpt lat="44.9277524" lon="5.3996718">
<ele>1039.61</ele>
<time>2019-07-25T10:55:01Z</time>
</trkpt>
<trkpt lat="44.9277519" lon="5.3996723">
<ele>1039.60</ele>
<time>2019-07-25T10:55:02Z</time>
</trkpt>
<trkpt lat="44.9277510" lon="5.3996729">
<ele>1039.60</ele>
<time>2019-07-25T10:55:03Z</time>
</trkpt>
<trkpt lat="44.9277498" lon="5.3996734">
<ele>1039.59</ele>
<time>2019-07-25T10:55:04Z</time>
</trkpt>
<trkpt lat="44.9277492" lon="5.3996739">
<ele>1039.59</ele>
<time>2019-07-25T10:55:05Z</time>
</trkpt>
<trkpt lat="44.9277413" lon="5.3996819">
<ele>1039.54</ele>
<time>2019-07-25T10:55:06Z</time>
</trkpt>
<trkpt lat="44.9277340" lon="5.3996860">
<ele>1039.50</ele>
<time>2019-07-25T10:55:07Z</time>
</trkpt>
<trkpt lat="44.9277236" lon="5.3996910">
<ele>1039.47</ele>
<time>2019-07-25T10:55:08Z</time>
</trkpt>
<trkpt lat="44.9277144" lon="5.3996967">
<ele>1039.44</ele>
<time>2019-07-25T10:55:09Z</time>
</trkpt>
<trkpt lat="44.9277014" lon="5.3997048">
<ele>1039.41</ele>
<time>2019-07-25T10:55:10Z</time>
</trkpt>
<trkpt lat="44.9276911" lon="5.3997128">
<ele>1039.39</ele>
<time>2019-07-25T10:55:11Z</time>
</trkpt>
<trkpt lat="44.9276809" lon="5.3997219">
<ele>1039.38</ele>
<time>2019-07-25T10:55:12Z</time>
</trkpt>
<trkpt lat="44.9276702" lon="5.3997323">
<ele>1039.37</ele>
<time>2019-07-25T10:55:13Z</time>
</trkpt>
<trkpt lat="44.9276576" lon="5.3997485">
<ele>1039.36</ele>
<time>2019-07-25T10:55:14Z</time>
</trkpt>
<trkpt lat="44.9276463" lon="5.3997672">
<ele>1039.36</ele>
<time>2019-07-25T10:55:15Z</time>
</trkpt>
<trkpt lat="44.9276297" lon="5.3997927">
<ele>1039.37</ele>
<time>2019-07-25T10:55:16Z</time>
</trkpt>
<trkpt lat="44.9276117" lon="5.3998179">
<ele>1039.37</ele>
<time>2019-07-25T10:55:17Z</time>
</trkpt>
<trkpt lat="44.9275917" lon="5.3998431">
<ele>1039.38</ele>
<time>2019-07-25T10:55:18Z</time>
</trkpt>
<trkpt lat="44.9275746" lon="5.3998605">
<ele>1039.39</ele>
<time>2019-07-25T10:55:19Z</time>
</trkpt>
<trkpt lat="44.9275582" lon="5.3998788">
<ele>1039.40</ele>
<time>2019-07-25T10:55:20Z</time>
</trkpt>
<trkpt lat="44.9275410" lon="5.3998979">
<ele>1039.42</ele>
<time>2019-07-25T10:55:21Z</time>
</trkpt>
<trkpt lat="44.9275301" lon="5.3999083">
<ele>1039.44</ele>
<time>2019-07-25T10:55:22Z</time>
</trkpt>
<trkpt lat="44.9275171" lon="5.3999206">
<ele>1039.46</ele>
<time>2019-07-25T10:55:23Z</time>
</trkpt>
<trkpt lat="44.9275012" lon="5.3999386">
<ele>1039.48</ele>
<time>2019-07-25T10:55:24Z</time>
</trkpt>
<trkpt lat="44.9274871" lon="5.3999525">
<ele>1039.51</ele>
<time>2019-07-25T10:55:25Z</time>
</trkpt>
<trkpt lat="44.9274738" lon="5.3999650">
<ele>1039.53</ele>
<time>2019-07-25T10:55:26Z</time>
</trkpt>
<trkpt lat="44.9274618" lon="5.3999804">
<ele>1039.57</ele>
<time>2019-07-25T10:55:27Z</time>
</trkpt>
<trkpt lat="44.9274560" lon="5.3999853">
<ele>1039.60</ele>
<time>2019-07-25T10:55:28Z</time>
</trkpt>
<trkpt lat="44.9274516" lon="5.3999887">
<ele>1039.64</ele>
<time>2019-07-25T10:55:29Z</time>
</trkpt>
<trkpt lat="44.9274446" lon="5.3999902">
<ele>1039.68</ele>
<time>2019-07-25T10:55:30Z</time>
</trkpt>
<trkpt lat="44.9274320" lon="5.4000028">
<ele>1039.73</ele>
<time>2019-07-25T10:55:31Z</time>
</trkpt>
<trkpt lat="44.9274084" lon="5.4000229">
<ele>1039.76</ele>
<time>2019-07-25T10:55:32Z</time>
</trkpt>
<trkpt lat="44.9273856" lon="5.4000398">
<ele>1039.80</ele>
<time>2019-07-25T10:55:33Z</time>
</trkpt>
<trkpt lat="44.9273655" lon="5.4000562">
<ele>1039.83</ele>
<time>2019-07-25T10:55:34Z</time>
</trkpt>
<trkpt lat="44.9273445" lon="5.4000525">
<ele>1039.86</ele>
<time>2019-07-25T10:55:35Z</time>
</trkpt>
<trkpt lat="44.9273210" lon="5.4000515">
<ele>1039.89</ele>
<time>2019-07-25T10:55:36Z</time>
</trkpt>
<trkpt lat="44.9272916" lon="5.4000789">
<ele>1039.91</ele>
<time>2019-07-25T10:55:37Z</time>
</trkpt>
<trkpt lat="44.9272708" lon="5.4001014">
<ele>1039.92</ele>
<time>2019-07-25T10:55:38Z</time>
</trkpt>
<trkpt lat="44.9272606" lon="5.4001128">
<ele>1039.94</ele>
<time>2019-07-25T10:55:39Z</time>
</trkpt>
<trkpt lat="44.9272537" lon="5.4001187">
<ele>1039.96</ele>
<time>2019-07-25T10:55:40Z</time>
</trkpt>
<trkpt lat="44.9272532" lon="5.4001200">
<ele>1039.99</ele>
<time>2019-07-25T10:55:41Z</time>
</trkpt>
<trkpt lat="44.9272578" lon="5.4001186">
<ele>1040.01</ele>
<time>2019-07-25T10:55:42Z</time>
</trkpt>
<trkpt lat="44.9272586" lon="5.4001190">
<ele>1040.01</ele>
<time>2019-07-25T10:55:43Z</time>
</trkpt>
<trkpt lat="44.9272591" lon="5.4001186">
<ele>1040.01</ele>
<time>2019-07-25T10:55:44Z</time>
</trkpt>
<trkpt lat="44.9272594" lon="5.4001179">
<ele>1040.01</ele>
<time>2019-07-25T10:55:45Z</time>
</trkpt>
<trkpt lat="44.9272666" lon="5.4001100">
<ele>1040.02</ele>
<time>2019-07-25T10:55:46Z</time>
</trkpt>
<trkpt lat="44.9272658" lon="5.4001146">
<ele>1040.02</ele>
<time>2019-07-25T10:55:47Z</time>
</trkpt>
<trkpt lat="44.9272645" lon="5.4001244">
<ele>1040.04</ele>
<time>2019-07-25T10:55:48Z</time>
</trkpt>
<trkpt lat="44.9272639" lon="5.4001257">
<ele>1040.04</ele>
<time>2019-07-25T10:55:49Z</time>
</trkpt>
<trkpt lat="44.9272642" lon="5.4001265">
<ele>1040.05</ele>
<time>2019-07-25T10:55:50Z</time>
</trkpt>
<trkpt lat="44.9272647" lon="5.4001260">
<ele>1040.05</ele>
<time>2019-07-25T10:55:51Z</time>
</trkpt>
<trkpt lat="44.9272651" lon="5.4001258">
<ele>1040.05</ele>
<time>2019-07-25T10:55:52Z</time>
</trkpt>
<trkpt lat="44.9272655" lon="5.4001251">
<ele>1040.06</ele>
<time>2019-07-25T10:55:53Z</time>
</trkpt>
<trkpt lat="44.9272653" lon="5.4001251">
<ele>1040.06</ele>
<time>2019-07-25T10:55:54Z</time>
</trkpt>
<trkpt lat="44.9272648" lon="5.4001264">
<ele>1040.06</ele>
<time>2019-07-25T10:55:55Z</time>
</trkpt>
<trkpt lat="44.9272641" lon="5.4001275">
<ele>1040.09</ele>
<time>2019-07-25T10:55:56Z</time>
</trkpt>
<trkpt lat="44.9272576" lon="5.4001430">
<ele>1040.11</ele>
<time>2019-07-25T10:55:57Z</time>
</trkpt>
<trkpt lat="44.9272555" lon="5.4001649">
<ele>1040.14</ele>
<time>2019-07-25T10:55:58Z</time>
</trkpt>
<trkpt lat="44.9272324" lon="5.4001939">
<ele>1040.18</ele>
<time>2019-07-25T10:55:59Z</time>
</trkpt>
<trkpt lat="44.9272132" lon="5.4002287">
<ele>1040.21</ele>
<time>2019-07-25T10:56:00Z</time>
</trkpt>
<trkpt lat="44.9271975" lon="5.4002659">
<ele>1040.25</ele>
<time>2019-07-25T10:56:01Z</time>
</trkpt>
<trkpt lat="44.9271891" lon="5.4003130">
<ele>1040.29</ele>
<time>2019-07-25T10:56:02Z</time>
</trkpt>
<trkpt lat="44.9271732" lon="5.4003487">
<ele>1040.33</ele>
<time>2019-07-25T10:56:03Z</time>
</trkpt>
<trkpt lat="44.9271589" lon="5.4003743">
<ele>1040.37</ele>
<time>2019-07-25T10:56:04Z</time>
</trkpt>
<trkpt lat="44.9271379" lon="5.4004031">
<ele>1040.41</ele>
<time>2019-07-25T10:56:05Z</time>
</trkpt>
<trkpt lat="44.9271212" lon="5.4004323">
<ele>1040.45</ele>
<time>2019-07-25T10:56:06Z</time>
</trkpt>
<trkpt lat="44.9271099" lon="5.4004593">
<ele>1040.50</ele>
<time>2019-07-25T10:56:07Z</time>
</trkpt>
<trkpt lat="44.9270929" lon="5.4004935">
<ele>1040.54</ele>
<time>2019-07-25T10:56:08Z</time>
</trkpt>
<trkpt lat="44.9270729" lon="5.4005201">
<ele>1040.58</ele>
<time>2019-07-25T10:56:09Z</time>
</trkpt>
<trkpt lat="44.9270514" lon="5.4005411">
<ele>1040.62</ele>
<time>2019-07-25T10:56:10Z</time>
</trkpt>
<trkpt lat="44.9270342" lon="5.4005661">
<ele>1040.66</ele>
<time>2019-07-25T10:56:11Z</time>
</trkpt>
<trkpt lat="44.9270132" lon="5.4005817">
<ele>1040.69</ele>
<time>2019-07-25T10:56:12Z</time>
</trkpt>
<trkpt lat="44.9269940" lon="5.4005921">
<ele>1040.72</ele>
<time>2019-07-25T10:56:13Z</time>
</trkpt>
<trkpt lat="44.9269791" lon="5.4005946">
<ele>1040.74</ele>
<time>2019-07-25T10:56:14Z</time>
</trkpt>
<trkpt lat="44.9269624" lon="5.4006039">
<ele>1040.75</ele>
<time>2019-07-25T10:56:15Z</time>
</trkpt>
<trkpt lat="44.9269453" lon="5.4006131">
<ele>1040.76</ele>
<time>2019-07-25T10:56:16Z</time>
</trkpt>
<trkpt lat="44.9269256" lon="5.4006138">
<ele>1040.77</ele>
<time>2019-07-25T10:56:17Z</time>
</trkpt>
<trkpt lat="44.9269102" lon="5.4006046">
<ele>1040.78</ele>
<time>2019-07-25T10:56:18Z</time>
</trkpt>
<trkpt lat="44.9268959" lon="5.4005908">
<ele>1040.78</ele>
<time>2019-07-25T10:56:19Z</time>
</trkpt>
<trkpt lat="44.9268799" lon="5.4005764">
<ele>1040.78</ele>
<time>2019-07-25T10:56:20Z</time>
</trkpt>
<trkpt lat="44.9268625" lon="5.4005559">
<ele>1040.78</ele>
<time>2019-07-25T10:56:21Z</time>
</trkpt>
<trkpt lat="44.9268519" lon="5.4005277">
<ele>1040.78</ele>
<time>2019-07-25T10:56:22Z</time>
</trkpt>
<trkpt lat="44.9268401" lon="5.4004994">
<ele>1040.78</ele>
<time>2019-07-25T10:56:23Z</time>
</trkpt>
<trkpt lat="44.9268175" lon="5.4004864">
<ele>1040.78</ele>
<time>2019-07-25T10:56:24Z</time>
</trkpt>
<trkpt lat="44.9267973" lon="5.4004912">
<ele>1040.77</ele>
<time>2019-07-25T10:56:25Z</time>
</trkpt>
<trkpt lat="44.9267792" lon="5.4004983">
<ele>1040.76</ele>
<time>2019-07-25T10:56:26Z</time>
</trkpt>
<trkpt lat="44.9267560" lon="5.4004978">
<ele>1040.74</ele>
<time>2019-07-25T10:56:27Z</time>
</trkpt>
<trkpt lat="44.9267321" lon="5.4004988">
<ele>1040.72</ele>
<time>2019-07-25T10:56:28Z</time>
</trkpt>
<trkpt lat="44.9267090" lon="5.4005030">
<ele>1040.70</ele>
<time>2019-07-25T10:56:29Z</time>
</trkpt>
<trkpt lat="44.9266916" lon="5.4005074">
<ele>1040.68</ele>
<time>2019-07-25T10:56:30Z</time>
</trkpt>
<trkpt lat="44.9266794" lon="5.4005118">
<ele>1040.64</ele>
<time>2019-07-25T10:56:31Z</time>
</trkpt>
<trkpt lat="44.9266636" lon="5.4005269">
<ele>1040.60</ele>
<time>2019-07-25T10:56:32Z</time>
</trkpt>
<trkpt lat="44.9266473" lon="5.4005455">
<ele>1040.56</ele>
<time>2019-07-25T10:56:33Z</time>
</trkpt>
<trkpt lat="44.9266309" lon="5.4005661">
<ele>1040.52</ele>
<time>2019-07-25T10:56:34Z</time>
</trkpt>
<trkpt lat="44.9266156" lon="5.4005814">
<ele>1040.48</ele>
<time>2019-07-25T10:56:35Z</time>
</trkpt>
<trkpt lat="44.9266012" lon="5.4005972">
<ele>1040.45</ele>
<time>2019-07-25T10:56:36Z</time>
</trkpt>
<trkpt lat="44.9265903" lon="5.4006122">
<ele>1040.42</ele>
<time>2019-07-25T10:56:37Z</time>
</trkpt>
<trkpt lat="44.9265822" lon="5.4006250">
<ele>1040.40</ele>
<time>2019-07-25T10:56:38Z</time>
</trkpt>
<trkpt lat="44.9265824" lon="5.4006286">
<ele>1040.38</ele>
<time>2019-07-25T10:56:39Z</time>
</trkpt>
<trkpt lat="44.9265861" lon="5.4006298">
<ele>1040.37</ele>
<time>2019-07-25T10:56:40Z</time>
</trkpt>
<trkpt lat="44.9265898" lon="5.4006281">
<ele>1040.36</ele>
<time>2019-07-25T10:56:41Z</time>
</trkpt>
<trkpt lat="44.9265925" lon="5.4006265">
<ele>1040.36</ele>
<time>2019-07-25T10:56:42Z</time>
</trkpt>
<trkpt lat="44.9265986" lon="5.4006135">
<ele>1040.36</ele>
<time>2019-07-25T10:56:43Z</time>
</trkpt>
<trkpt lat="44.9266004" lon="5.4006108">
<ele>1040.36</ele>
<time>2019-07-25T10:56:44Z</time>
</trkpt>
<trkpt lat="44.9265992" lon="5.4006176">
<ele>1040.35</ele>
<time>2019-07-25T10:56:45Z</time>
</trkpt>
<trkpt lat="44.9265952" lon="5.4006267">
<ele>1040.35</ele>
<time>2019-07-25T10:56:46Z</time>
</trkpt>
<trkpt lat="44.9265946" lon="5.4006272">
<ele>1040.35</ele>
<time>2019-07-25T10:56:47Z</time>
</trkpt>
<trkpt lat="44.9265945" lon="5.4006274">
<ele>1040.35</ele>
<time>2019-07-25T10:56:48Z</time>
</trkpt>
<trkpt lat="44.9265939" lon="5.4006295">
<ele>1040.35</ele>
<time>2019-07-25T10:56:49Z</time>
</trkpt>
<trkpt lat="44.9265952" lon="5.4006332">
<ele>1040.35</ele>
<time>2019-07-25T10:56:50Z</time>
</trkpt>
<trkpt lat="44.9265979" lon="5.4006332">
<ele>1040.34</ele>
<time>2019-07-25T10:56:51Z</time>
</trkpt>
<trkpt lat="44.9265979" lon="5.4006330">
<ele>1040.34</ele>
<time>2019-07-25T10:56:52Z</time>
</trkpt>
<trkpt lat="44.9265977" lon="5.4006333">
<ele>1040.34</ele>
<time>2019-07-25T10:56:53Z</time>
</trkpt>
<trkpt lat="44.9265979" lon="5.4006350">
<ele>1040.34</ele>
<time>2019-07-25T10:56:54Z</time>
</trkpt>
<trkpt lat="44.9265983" lon="5.4006390">
<ele>1040.33</ele>
<time>2019-07-25T10:56:55Z</time>
</trkpt>
<trkpt lat="44.9265975" lon="5.4006414">
<ele>1040.32</ele>
<time>2019-07-25T10:56:56Z</time>
</trkpt>
<trkpt lat="44.9265972" lon="5.4006435">
<ele>1040.32</ele>
<time>2019-07-25T10:56:57Z</time>
</trkpt>
<trkpt lat="44.9265975" lon="5.4006439">
<ele>1040.31</ele>
<time>2019-07-25T10:56:58Z</time>
</trkpt>
<trkpt lat="44.9265975" lon="5.4006444">
<ele>1040.30</ele>
<time>2019-07-25T10:56:59Z</time>
</trkpt>
<trkpt lat="44.9265982" lon="5.4006435">
<ele>1040.29</ele>
<time>2019-07-25T10:57:00Z</time>
</trkpt>
<trkpt lat="44.9265985" lon="5.4006436">
<ele>1040.28</ele>
<time>2019-07-25T10:57:01Z</time>
</trkpt>
<trkpt lat="44.9265947" lon="5.4006514">
<ele>1040.18</ele>
<time>2019-07-25T10:57:02Z</time>
</trkpt>
<trkpt lat="44.9265879" lon="5.4006538">
<ele>1040.07</ele>
<time>2019-07-25T10:57:03Z</time>
</trkpt>
<trkpt lat="44.9265752" lon="5.4006529">
<ele>1039.97</ele>
<time>2019-07-25T10:57:04Z</time>
</trkpt>
<trkpt lat="44.9265594" lon="5.4006439">
<ele>1039.87</ele>
<time>2019-07-25T10:57:05Z</time>
</trkpt>
<trkpt lat="44.9265342" lon="5.4006420">
<ele>1039.77</ele>
<time>2019-07-25T10:57:06Z</time>
</trkpt>
<trkpt lat="44.9264989" lon="5.4006501">
<ele>1039.66</ele>
<time>2019-07-25T10:57:07Z</time>
</trkpt>
<trkpt lat="44.9264739" lon="5.4006621">
<ele>1039.56</ele>
<time>2019-07-25T10:57:08Z</time>
</trkpt>
<trkpt lat="44.9264442" lon="5.4006631">
<ele>1039.45</ele>
<time>2019-07-25T10:57:09Z</time>
</trkpt>
<trkpt lat="44.9264164" lon="5.4006416">
<ele>1039.34</ele>
<time>2019-07-25T10:57:10Z</time>
</trkpt>
<trkpt lat="44.9263907" lon="5.4006178">
<ele>1039.24</ele>
<time>2019-07-25T10:57:11Z</time>
</trkpt>
<trkpt lat="44.9263696" lon="5.4005742">
<ele>1039.14</ele>
<time>2019-07-25T10:57:12Z</time>
</trkpt>
<trkpt lat="44.9263486" lon="5.4005306">
<ele>1039.04</ele>
<time>2019-07-25T10:57:13Z</time>
</trkpt>
<trkpt lat="44.9263192" lon="5.4004913">
<ele>1038.94</ele>
<time>2019-07-25T10:57:14Z</time>
</trkpt>
<trkpt lat="44.9262834" lon="5.4004716">
<ele>1038.85</ele>
<time>2019-07-25T10:57:15Z</time>
</trkpt>
<trkpt lat="44.9262592" lon="5.4004485">
<ele>1038.76</ele>
<time>2019-07-25T10:57:16Z</time>
</trkpt>
<trkpt lat="44.9262381" lon="5.4004250">
<ele>1038.67</ele>
<time>2019-07-25T10:57:17Z</time>
</trkpt>
<trkpt lat="44.9262173" lon="5.4004118">
<ele>1038.59</ele>
<time>2019-07-25T10:57:18Z</time>
</trkpt>
<trkpt lat="44.9261945" lon="5.4004076">
<ele>1038.51</ele>
<time>2019-07-25T10:57:19Z</time>
</trkpt>
<trkpt lat="44.9261800" lon="5.4004046">
<ele>1038.43</ele>
<time>2019-07-25T10:57:20Z</time>
</trkpt>
<trkpt lat="44.9261642" lon="5.4004021">
<ele>1038.35</ele>
<time>2019-07-25T10:57:21Z</time>
</trkpt>
<trkpt lat="44.9261536" lon="5.4004032">
<ele>1038.27</ele>
<time>2019-07-25T10:57:22Z</time>
</trkpt>
<trkpt lat="44.9261484" lon="5.4004060">
<ele>1038.19</ele>
<time>2019-07-25T10:57:23Z</time>
</trkpt>
<trkpt lat="44.9261517" lon="5.4004031">
<ele>1038.11</ele>
<time>2019-07-25T10:57:24Z</time>
</trkpt>
<trkpt lat="44.9261544" lon="5.4004038">
<ele>1038.10</ele>
<time>2019-07-25T10:57:25Z</time>
</trkpt>
<trkpt lat="44.9261546" lon="5.4004028">
<ele>1038.10</ele>
<time>2019-07-25T10:57:26Z</time>
</trkpt>
<trkpt lat="44.9261558" lon="5.4004018">
<ele>1038.09</ele>
<time>2019-07-25T10:57:27Z</time>
</trkpt>
<trkpt lat="44.9261592" lon="5.4003975">
<ele>1038.02</ele>
<time>2019-07-25T10:57:28Z</time>
</trkpt>
<trkpt lat="44.9261604" lon="5.4003942">
<ele>1038.01</ele>
<time>2019-07-25T10:57:29Z</time>
</trkpt>
<trkpt lat="44.9261662" lon="5.4003930">
<ele>1037.96</ele>
<time>2019-07-25T10:57:30Z</time>
</trkpt>
<trkpt lat="44.9261681" lon="5.4003918">
<ele>1037.95</ele>
<time>2019-07-25T10:57:31Z</time>
</trkpt>
<trkpt lat="44.9261691" lon="5.4003915">
<ele>1037.95</ele>
<time>2019-07-25T10:57:32Z</time>
</trkpt>
<trkpt lat="44.9261691" lon="5.4003916">
<ele>1037.94</ele>
<time>2019-07-25T10:57:33Z</time>
</trkpt>
<trkpt lat="44.9261689" lon="5.4003918">
<ele>1037.94</ele>
<time>2019-07-25T10:57:34Z</time>
</trkpt>
<trkpt lat="44.9261690" lon="5.4003920">
<ele>1037.93</ele>
<time>2019-07-25T10:57:35Z</time>
</trkpt>
<trkpt lat="44.9261689" lon="5.4003923">
<ele>1037.93</ele>
<time>2019-07-25T10:57:36Z</time>
</trkpt>
<trkpt lat="44.9261685" lon="5.4003925">
<ele>1037.93</ele>
<time>2019-07-25T10:57:37Z</time>
</trkpt>
<trkpt lat="44.9261685" lon="5.4003926">
<ele>1037.93</ele>
<time>2019-07-25T10:57:38Z</time>
</trkpt>
<trkpt lat="44.9261685" lon="5.4003926">
<ele>1037.93</ele>
<time>2019-07-25T10:57:39Z</time>
</trkpt>
<trkpt lat="44.9261688" lon="5.4003924">
<ele>1037.93</ele>
<time>2019-07-25T10:57:40Z</time>
</trkpt>
<trkpt lat="44.9261692" lon="5.4003923">
<ele>1037.93</ele>
<time>2019-07-25T10:57:41Z</time>
</trkpt>
<trkpt lat="44.9261695" lon="5.4003922">
<ele>1037.93</ele>
<time>2019-07-25T10:57:42Z</time>
</trkpt>
<trkpt lat="44.9261696" lon="5.4003922">
<ele>1037.93</ele>
<time>2019-07-25T10:57:43Z</time>
</trkpt>
<trkpt lat="44.9261697" lon="5.4003921">
<ele>1037.94</ele>
<time>2019-07-25T10:57:44Z</time>
</trkpt>
<trkpt lat="44.9261699" lon="5.4003922">
<ele>1037.94</ele>
<time>2019-07-25T10:57:45Z</time>
</trkpt>
<trkpt lat="44.9261700" lon="5.4003922">
<ele>1037.95</ele>
<time>2019-07-25T10:57:46Z</time>
</trkpt>
<trkpt lat="44.9261702" lon="5.4003923">
<ele>1037.96</ele>
<time>2019-07-25T10:57:47Z</time>
</trkpt>
<trkpt lat="44.9261703" lon="5.4003927">
<ele>1037.96</ele>
<time>2019-07-25T10:57:48Z</time>
</trkpt>
<trkpt lat="44.9261700" lon="5.4003933">
<ele>1037.97</ele>
<time>2019-07-25T10:57:49Z</time>
</trkpt>
<trkpt lat="44.9261699" lon="5.4003936">
<ele>1037.98</ele>
<time>2019-07-25T10:57:50Z</time>
</trkpt>
<trkpt lat="44.9261697" lon="5.4003938">
<ele>1037.99</ele>
<time>2019-07-25T10:57:51Z</time>
</trkpt>
<trkpt lat="44.9261693" lon="5.4003940">
<ele>1037.99</ele>
<time>2019-07-25T10:57:52Z</time>
</trkpt>
<trkpt lat="44.9261693" lon="5.4003940">
<ele>1038.00</ele>
<time>2019-07-25T10:57:53Z</time>
</trkpt>
<trkpt lat="44.9261692" lon="5.4003941">
<ele>1038.01</ele>
<time>2019-07-25T10:57:54Z</time>
</trkpt>
<trkpt lat="44.9261693" lon="5.4003940">
<ele>1038.02</ele>
<time>2019-07-25T10:57:55Z</time>
</trkpt>
<trkpt lat="44.9261694" lon="5.4003939">
<ele>1038.03</ele>
<time>2019-07-25T10:57:56Z</time>
</trkpt>
<trkpt lat="44.9261695" lon="5.4003938">
<ele>1038.04</ele>
<time>2019-07-25T10:57:57Z</time>
</trkpt>
<trkpt lat="44.9261695" lon="5.4003937">
<ele>1038.05</ele>
<time>2019-07-25T10:57:58Z</time>
</trkpt>
<trkpt lat="44.9261697" lon="5.4003935">
<ele>1038.06</ele>
<time>2019-07-25T10:57:59Z</time>
</trkpt>
<trkpt lat="44.9261698" lon="5.4003935">
<ele>1038.07</ele>
<time>2019-07-25T10:58:00Z</time>
</trkpt>
<trkpt lat="44.9261700" lon="5.4003937">
<ele>1038.08</ele>
<time>2019-07-25T10:58:01Z</time>
</trkpt>
<trkpt lat="44.9261700" lon="5.4003937">
<ele>1038.09</ele>
<time>2019-07-25T10:58:02Z</time>
</trkpt>
<trkpt lat="44.9261700" lon="5.4003939">
<ele>1038.10</ele>
<time>2019-07-25T10:58:03Z</time>
</trkpt>
<trkpt lat="44.9261700" lon="5.4003939">
<ele>1038.11</ele>
<time>2019-07-25T10:58:04Z</time>
</trkpt>
<trkpt lat="44.9261701" lon="5.4003939">
<ele>1038.12</ele>
<time>2019-07-25T10:58:05Z</time>
</trkpt>
<trkpt lat="44.9261702" lon="5.4003936">
<ele>1038.13</ele>
<time>2019-07-25T10:58:06Z</time>
</trkpt>
<trkpt lat="44.9261702" lon="5.4003937">
<ele>1038.14</ele>
<time>2019-07-25T10:58:07Z</time>
</trkpt>
<trkpt lat="44.9261700" lon="5.4003939">
<ele>1038.16</ele>
<time>2019-07-25T10:58:08Z</time>
</trkpt>
<trkpt lat="44.9261700" lon="5.4003940">
<ele>1038.17</ele>
<time>2019-07-25T10:58:09Z</time>
</trkpt>
<trkpt lat="44.9261696" lon="5.4003946">
<ele>1038.18</ele>
<time>2019-07-25T10:58:10Z</time>
</trkpt>
<trkpt lat="44.9261693" lon="5.4003949">
<ele>1038.19</ele>
<time>2019-07-25T10:58:11Z</time>
</trkpt>
<trkpt lat="44.9261689" lon="5.4003954">
<ele>1038.20</ele>
<time>2019-07-25T10:58:12Z</time>
</trkpt>
<trkpt lat="44.9261685" lon="5.4003959">
<ele>1038.21</ele>
<time>2019-07-25T10:58:13Z</time>
</trkpt>
<trkpt lat="44.9261681" lon="5.4003963">
<ele>1038.21</ele>
<time>2019-07-25T10:58:14Z</time>
</trkpt>
<trkpt lat="44.9261678" lon="5.4003968">
<ele>1038.22</ele>
<time>2019-07-25T10:58:15Z</time>
</trkpt>
<trkpt lat="44.9261677" lon="5.4003971">
<ele>1038.23</ele>
<time>2019-07-25T10:58:16Z</time>
</trkpt>
<trkpt lat="44.9261674" lon="5.4003974">
<ele>1038.24</ele>
<time>2019-07-25T10:58:17Z</time>
</trkpt>
<trkpt lat="44.9261672" lon="5.4003977">
<ele>1038.25</ele>
<time>2019-07-25T10:58:18Z</time>
</trkpt>
<trkpt lat="44.9261670" lon="5.4003981">
<ele>1038.26</ele>
<time>2019-07-25T10:58:19Z</time>
</trkpt>
<trkpt lat="44.9261667" lon="5.4003984">
<ele>1038.27</ele>
<time>2019-07-25T10:58:20Z</time>
</trkpt>
<trkpt lat="44.9261665" lon="5.4003986">
<ele>1038.28</ele>
<time>2019-07-25T10:58:21Z</time>
</trkpt>
<trkpt lat="44.9261663" lon="5.4003988">
<ele>1038.28</ele>
<time>2019-07-25T10:58:22Z</time>
</trkpt>
<trkpt lat="44.9261663" lon="5.4003987">
<ele>1038.29</ele>
<time>2019-07-25T10:58:23Z</time>
</trkpt>
<trkpt lat="44.9261662" lon="5.4003983">
<ele>1038.30</ele>
<time>2019-07-25T10:58:24Z</time>
</trkpt>
<trkpt lat="44.9261661" lon="5.4003982">
<ele>1038.30</ele>
<time>2019-07-25T10:58:25Z</time>
</trkpt>
<trkpt lat="44.9261661" lon="5.4003980">
<ele>1038.31</ele>
<time>2019-07-25T10:58:26Z</time>
</trkpt>
<trkpt lat="44.9261659" lon="5.4003981">
<ele>1038.32</ele>
<time>2019-07-25T10:58:27Z</time>
</trkpt>
<trkpt lat="44.9261658" lon="5.4003981">
<ele>1038.32</ele>
<time>2019-07-25T10:58:28Z</time>
</trkpt>
<trkpt lat="44.9261659" lon="5.4003978">
<ele>1038.33</ele>
<time>2019-07-25T10:58:29Z</time>
</trkpt>
<trkpt lat="44.9261653" lon="5.4003957">
<ele>1038.33</ele>
<time>2019-07-25T10:58:30Z</time>
</trkpt>
<trkpt lat="44.9261648" lon="5.4003937">
<ele>1038.34</ele>
<time>2019-07-25T10:58:31Z</time>
</trkpt>
<trkpt lat="44.9261651" lon="5.4003907">
<ele>1038.34</ele>
<time>2019-07-25T10:58:32Z</time>
</trkpt>
<trkpt lat="44.9261684" lon="5.4003765">
<ele>1038.36</ele>
<time>2019-07-25T10:58:33Z</time>
</trkpt>
<trkpt lat="44.9261759" lon="5.4003583">
<ele>1038.38</ele>
<time>2019-07-25T10:58:34Z</time>
</trkpt>
<trkpt lat="44.9261706" lon="5.4003593">
<ele>1038.40</ele>
<time>2019-07-25T10:58:35Z</time>
</trkpt>
<trkpt lat="44.9261664" lon="5.4003574">
<ele>1038.40</ele>
<time>2019-07-25T10:58:36Z</time>
</trkpt>
<trkpt lat="44.9261585" lon="5.4003663">
<ele>1038.42</ele>
<time>2019-07-25T10:58:37Z</time>
</trkpt>
<trkpt lat="44.9261486" lon="5.4003642">
<ele>1038.43</ele>
<time>2019-07-25T10:58:38Z</time>
</trkpt>
<trkpt lat="44.9261370" lon="5.4003621">
<ele>1038.44</ele>
<time>2019-07-25T10:58:39Z</time>
</trkpt>
<trkpt lat="44.9261224" lon="5.4003637">
<ele>1038.46</ele>
<time>2019-07-25T10:58:40Z</time>
</trkpt>
<trkpt lat="44.9261099" lon="5.4003643">
<ele>1038.46</ele>
<time>2019-07-25T10:58:41Z</time>
</trkpt>
<trkpt lat="44.9261008" lon="5.4003567">
<ele>1038.46</ele>
<time>2019-07-25T10:58:42Z</time>
</trkpt>
<trkpt lat="44.9261006" lon="5.4003541">
<ele>1038.46</ele>
<time>2019-07-25T10:58:43Z</time>
</trkpt>
<trkpt lat="44.9260948" lon="5.4003305">
<ele>1038.48</ele>
<time>2019-07-25T10:58:44Z</time>
</trkpt>
<trkpt lat="44.9260666" lon="5.4002867">
<ele>1038.51</ele>
<time>2019-07-25T10:58:45Z</time>
</trkpt>
<trkpt lat="44.9260429" lon="5.4002559">
<ele>1038.53</ele>
<time>2019-07-25T10:58:46Z</time>
</trkpt>
<trkpt lat="44.9260168" lon="5.4002257">
<ele>1038.56</ele>
<time>2019-07-25T10:58:47Z</time>
</trkpt>
<trkpt lat="44.9259940" lon="5.4001873">
<ele>1038.58</ele>
<time>2019-07-25T10:58:48Z</time>
</trkpt>
<trkpt lat="44.9259682" lon="5.4001422">
<ele>1038.61</ele>
<time>2019-07-25T10:58:49Z</time>
</trkpt>
<trkpt lat="44.9259529" lon="5.4001025">
<ele>1038.63</ele>
<time>2019-07-25T10:58:50Z</time>
</trkpt>
<trkpt lat="44.9259334" lon="5.4000601">
<ele>1038.64</ele>
<time>2019-07-25T10:58:51Z</time>
</trkpt>
<trkpt lat="44.9259091" lon="5.4000143">
<ele>1038.66</ele>
<time>2019-07-25T10:58:52Z</time>
</trkpt>
<trkpt lat="44.9258831" lon="5.3999612">
<ele>1038.79</ele>
<time>2019-07-25T10:58:53Z</time>
</trkpt>
<trkpt lat="44.9258500" lon="5.3998938">
<ele>1038.80</ele>
<time>2019-07-25T10:58:54Z</time>
</trkpt>
<trkpt lat="44.9258198" lon="5.3998505">
<ele>1038.80</ele>
<time>2019-07-25T10:58:55Z</time>
</trkpt>
<trkpt lat="44.9257992" lon="5.3998276">
<ele>1038.81</ele>
<time>2019-07-25T10:58:56Z</time>
</trkpt>
<trkpt lat="44.9257782" lon="5.3997935">
<ele>1038.81</ele>
<time>2019-07-25T10:58:57Z</time>
</trkpt>
<trkpt lat="44.9257593" lon="5.3997524">
<ele>1038.81</ele>
<time>2019-07-25T10:58:58Z</time>
</trkpt>
<trkpt lat="44.9257420" lon="5.3997040">
<ele>1038.80</ele>
<time>2019-07-25T10:58:59Z</time>
</trkpt>
<trkpt lat="44.9257319" lon="5.3996564">
<ele>1038.80</ele>
<time>2019-07-25T10:59:00Z</time>
</trkpt>
<trkpt lat="44.9257212" lon="5.3996133">
<ele>1038.80</ele>
<time>2019-07-25T10:59:01Z</time>
</trkpt>
<trkpt lat="44.9257088" lon="5.3995650">
<ele>1038.80</ele>
<time>2019-07-25T10:59:02Z</time>
</trkpt>
<trkpt lat="44.9256964" lon="5.3995227">
<ele>1038.80</ele>
<time>2019-07-25T10:59:03Z</time>
</trkpt>
<trkpt lat="44.9256807" lon="5.3994880">
<ele>1038.80</ele>
<time>2019-07-25T10:59:04Z</time>
</trkpt>
<trkpt lat="44.9256622" lon="5.3994632">
<ele>1038.80</ele>
<time>2019-07-25T10:59:05Z</time>
</trkpt>
<trkpt lat="44.9256469" lon="5.3994343">
<ele>1038.80</ele>
<time>2019-07-25T10:59:06Z</time>
</trkpt>
<trkpt lat="44.9256315" lon="5.3994141">
<ele>1038.81</ele>
<time>2019-07-25T10:59:07Z</time>
</trkpt>
<trkpt lat="44.9256135" lon="5.3993889">
<ele>1038.81</ele>
<time>2019-07-25T10:59:08Z</time>
</trkpt>
<trkpt lat="44.9256024" lon="5.3993685">
<ele>1038.81</ele>
<time>2019-07-25T10:59:09Z</time>
</trkpt>
<trkpt lat="44.9255908" lon="5.3993574">
<ele>1038.80</ele>
<time>2019-07-25T10:59:10Z</time>
</trkpt>
<trkpt lat="44.9255796" lon="5.3993350">
<ele>1038.80</ele>
<time>2019-07-25T10:59:11Z</time>
</trkpt>
<trkpt lat="44.9255629" lon="5.3993044">
<ele>1038.80</ele>
<time>2019-07-25T10:59:12Z</time>
</trkpt>
<trkpt lat="44.9255434" lon="5.3992754">
<ele>1038.79</ele>
<time>2019-07-25T10:59:13Z</time>
</trkpt>
<trkpt lat="44.9255285" lon="5.3992621">
<ele>1038.77</ele>
<time>2019-07-25T10:59:14Z</time>
</trkpt>
<trkpt lat="44.9255163" lon="5.3992571">
<ele>1038.75</ele>
<time>2019-07-25T10:59:15Z</time>
</trkpt>
<trkpt lat="44.9254981" lon="5.3992522">
<ele>1038.73</ele>
<time>2019-07-25T10:59:16Z</time>
</trkpt>
<trkpt lat="44.9254821" lon="5.3992317">
<ele>1038.70</ele>
<time>2019-07-25T10:59:17Z</time>
</trkpt>
<trkpt lat="44.9254639" lon="5.3992118">
<ele>1038.67</ele>
<time>2019-07-25T10:59:18Z</time>
</trkpt>
<trkpt lat="44.9254426" lon="5.3991957">
<ele>1038.64</ele>
<time>2019-07-25T10:59:19Z</time>
</trkpt>
<trkpt lat="44.9254230" lon="5.3991825">
<ele>1038.60</ele>
<time>2019-07-25T10:59:20Z</time>
</trkpt>
<trkpt lat="44.9254007" lon="5.3991703">
<ele>1038.55</ele>
<time>2019-07-25T10:59:21Z</time>
</trkpt>
<trkpt lat="44.9253739" lon="5.3991577">
<ele>1038.50</ele>
<time>2019-07-25T10:59:22Z</time>
</trkpt>
<trkpt lat="44.9253464" lon="5.3991428">
<ele>1038.46</ele>
<time>2019-07-25T10:59:23Z</time>
</trkpt>
<trkpt lat="44.9253211" lon="5.3991240">
<ele>1038.42</ele>
<time>2019-07-25T10:59:24Z</time>
</trkpt>
<trkpt lat="44.9252976" lon="5.3991068">
<ele>1038.39</ele>
<time>2019-07-25T10:59:25Z</time>
</trkpt>
<trkpt lat="44.9252753" lon="5.3990858">
<ele>1038.36</ele>
<time>2019-07-25T10:59:26Z</time>
</trkpt>
<trkpt lat="44.9252563" lon="5.3990613">
<ele>1038.34</ele>
<time>2019-07-25T10:59:27Z</time>
</trkpt>
<trkpt lat="44.9252348" lon="5.3990326">
<ele>1038.32</ele>
<time>2019-07-25T10:59:28Z</time>
</trkpt>
<trkpt lat="44.9252165" lon="5.3990059">
<ele>1038.31</ele>
<time>2019-07-25T10:59:29Z</time>
</trkpt>
<trkpt lat="44.9251999" lon="5.3989820">
<ele>1038.30</ele>
<time>2019-07-25T10:59:30Z</time>
</trkpt>
<trkpt lat="44.9251783" lon="5.3989501">
<ele>1038.29</ele>
<time>2019-07-25T10:59:31Z</time>
</trkpt>
<trkpt lat="44.9251527" lon="5.3989058">
<ele>1038.29</ele>
<time>2019-07-25T10:59:32Z</time>
</trkpt>
<trkpt lat="44.9251240" lon="5.3988716">
<ele>1038.29</ele>
<time>2019-07-25T10:59:33Z</time>
</trkpt>
<trkpt lat="44.9250996" lon="5.3988509">
<ele>1038.29</ele>
<time>2019-07-25T10:59:34Z</time>
</trkpt>
<trkpt lat="44.9250745" lon="5.3988237">
<ele>1038.28</ele>
<time>2019-07-25T10:59:35Z</time>
</trkpt>
<trkpt lat="44.9250509" lon="5.3987963">
<ele>1038.28</ele>
<time>2019-07-25T10:59:36Z</time>
</trkpt>
<trkpt lat="44.9250258" lon="5.3987673">
<ele>1038.28</ele>
<time>2019-07-25T10:59:37Z</time>
</trkpt>
<trkpt lat="44.9250008" lon="5.3987477">
<ele>1038.27</ele>
<time>2019-07-25T10:59:38Z</time>
</trkpt>
<trkpt lat="44.9249757" lon="5.3987408">
<ele>1038.25</ele>
<time>2019-07-25T10:59:39Z</time>
</trkpt>
<trkpt lat="44.9249469" lon="5.3987311">
<ele>1038.24</ele>
<time>2019-07-25T10:59:40Z</time>
</trkpt>
<trkpt lat="44.9249132" lon="5.3987194">
<ele>1038.22</ele>
<time>2019-07-25T10:59:41Z</time>
</trkpt>
<trkpt lat="44.9248823" lon="5.3987142">
<ele>1038.21</ele>
<time>2019-07-25T10:59:42Z</time>
</trkpt>
<trkpt lat="44.9248503" lon="5.3987041">
<ele>1038.19</ele>
<time>2019-07-25T10:59:43Z</time>
</trkpt>
<trkpt lat="44.9248127" lon="5.3986907">
<ele>1037.99</ele>
<time>2019-07-25T10:59:44Z</time>
</trkpt>
<trkpt lat="44.9247679" lon="5.3986728">
<ele>1037.85</ele>
<time>2019-07-25T10:59:45Z</time>
</trkpt>
<trkpt lat="44.9247253" lon="5.3986471">
<ele>1037.71</ele>
<time>2019-07-25T10:59:46Z</time>
</trkpt>
<trkpt lat="44.9246830" lon="5.3986169">
<ele>1037.62</ele>
<time>2019-07-25T10:59:47Z</time>
</trkpt>
<trkpt lat="44.9246474" lon="5.3985904">
<ele>1037.61</ele>
<time>2019-07-25T10:59:48Z</time>
</trkpt>
<trkpt lat="44.9246163" lon="5.3985637">
<ele>1037.59</ele>
<time>2019-07-25T10:59:49Z</time>
</trkpt>
<trkpt lat="44.9245860" lon="5.3985360">
<ele>1037.43</ele>
<time>2019-07-25T10:59:50Z</time>
</trkpt>
<trkpt lat="44.9245566" lon="5.3985077">
<ele>1037.41</ele>
<time>2019-07-25T10:59:51Z</time>
</trkpt>
<trkpt lat="44.9245297" lon="5.3984861">
<ele>1037.40</ele>
<time>2019-07-25T10:59:52Z</time>
</trkpt>
<trkpt lat="44.9245054" lon="5.3984752">
<ele>1037.38</ele>
<time>2019-07-25T10:59:53Z</time>
</trkpt>
<trkpt lat="44.9244810" lon="5.3984632">
<ele>1037.36</ele>
<time>2019-07-25T10:59:54Z</time>
</trkpt>
<trkpt lat="44.9244571" lon="5.3984535">
<ele>1037.35</ele>
<time>2019-07-25T10:59:55Z</time>
</trkpt>
<trkpt lat="44.9244303" lon="5.3984448">
<ele>1037.33</ele>
<time>2019-07-25T10:59:56Z</time>
</trkpt>
<trkpt lat="44.9244067" lon="5.3984315">
<ele>1037.31</ele>
<time>2019-07-25T10:59:57Z</time>
</trkpt>
<trkpt lat="44.9243771" lon="5.3984168">
<ele>1037.29</ele>
<time>2019-07-25T10:59:58Z</time>
</trkpt>
<trkpt lat="44.9243459" lon="5.3984028">
<ele>1037.27</ele>
<time>2019-07-25T10:59:59Z</time>
</trkpt>
<trkpt lat="44.9243116" lon="5.3983936">
<ele>1037.24</ele>
<time>2019-07-25T11:00:00Z</time>
</trkpt>
<trkpt lat="44.9242693" lon="5.3983802">
<ele>1037.22</ele>
<time>2019-07-25T11:00:01Z</time>
</trkpt>
<trkpt lat="44.9242348" lon="5.3983745">
<ele>1037.19</ele>
<time>2019-07-25T11:00:02Z</time>
</trkpt>
<trkpt lat="44.9242038" lon="5.3983733">
<ele>1037.16</ele>
<time>2019-07-25T11:00:03Z</time>
</trkpt>
<trkpt lat="44.9241721" lon="5.3983714">
<ele>1037.14</ele>
<time>2019-07-25T11:00:04Z</time>
</trkpt>
<trkpt lat="44.9241411" lon="5.3983694">
<ele>1037.12</ele>
<time>2019-07-25T11:00:05Z</time>
</trkpt>
<trkpt lat="44.9241138" lon="5.3983534">
<ele>1037.09</ele>
<time>2019-07-25T11:00:06Z</time>
</trkpt>
<trkpt lat="44.9240849" lon="5.3983383">
<ele>1037.07</ele>
<time>2019-07-25T11:00:07Z</time>
</trkpt>
<trkpt lat="44.9240539" lon="5.3983249">
<ele>1037.04</ele>
<time>2019-07-25T11:00:08Z</time>
</trkpt>
<trkpt lat="44.9240198" lon="5.3983158">
<ele>1036.70</ele>
<time>2019-07-25T11:00:09Z</time>
</trkpt>
<trkpt lat="44.9239788" lon="5.3983174">
<ele>1036.41</ele>
<time>2019-07-25T11:00:10Z</time>
</trkpt>
<trkpt lat="44.9239338" lon="5.3983241">
<ele>1036.18</ele>
<time>2019-07-25T11:00:11Z</time>
</trkpt>
<trkpt lat="44.9238908" lon="5.3983380">
<ele>1036.03</ele>
<time>2019-07-25T11:00:12Z</time>
</trkpt>
<trkpt lat="44.9238559" lon="5.3983669">
<ele>1035.92</ele>
<time>2019-07-25T11:00:13Z</time>
</trkpt>
<trkpt lat="44.9238307" lon="5.3984088">
<ele>1035.92</ele>
<time>2019-07-25T11:00:14Z</time>
</trkpt>
<trkpt lat="44.9238138" lon="5.3984466">
<ele>1035.91</ele>
<time>2019-07-25T11:00:15Z</time>
</trkpt>
<trkpt lat="44.9237998" lon="5.3984721">
<ele>1035.90</ele>
<time>2019-07-25T11:00:16Z</time>
</trkpt>
<trkpt lat="44.9237903" lon="5.3984909">
<ele>1035.90</ele>
<time>2019-07-25T11:00:17Z</time>
</trkpt>
<trkpt lat="44.9237780" lon="5.3985255">
<ele>1035.90</ele>
<time>2019-07-25T11:00:18Z</time>
</trkpt>
<trkpt lat="44.9237654" lon="5.3985628">
<ele>1035.91</ele>
<time>2019-07-25T11:00:19Z</time>
</trkpt>
<trkpt lat="44.9237478" lon="5.3986012">
<ele>1035.92</ele>
<time>2019-07-25T11:00:20Z</time>
</trkpt>
<trkpt lat="44.9237332" lon="5.3986426">
<ele>1035.92</ele>
<time>2019-07-25T11:00:21Z</time>
</trkpt>
<trkpt lat="44.9237209" lon="5.3986837">
<ele>1035.92</ele>
<time>2019-07-25T11:00:22Z</time>
</trkpt>
<trkpt lat="44.9237062" lon="5.3987365">
<ele>1035.93</ele>
<time>2019-07-25T11:00:23Z</time>
</trkpt>
<trkpt lat="44.9236954" lon="5.3987830">
<ele>1035.94</ele>
<time>2019-07-25T11:00:24Z</time>
</trkpt>
<trkpt lat="44.9236835" lon="5.3988303">
<ele>1035.95</ele>
<time>2019-07-25T11:00:25Z</time>
</trkpt>
<trkpt lat="44.9236724" lon="5.3988751">
<ele>1035.96</ele>
<time>2019-07-25T11:00:26Z</time>
</trkpt>
<trkpt lat="44.9236582" lon="5.3989273">
<ele>1035.98</ele>
<time>2019-07-25T11:00:27Z</time>
</trkpt>
<trkpt lat="44.9236474" lon="5.3989669">
<ele>1036.00</ele>
<time>2019-07-25T11:00:28Z</time>
</trkpt>
<trkpt lat="44.9236334" lon="5.3990099">
<ele>1036.03</ele>
<time>2019-07-25T11:00:29Z</time>
</trkpt>
<trkpt lat="44.9236159" lon="5.3990473">
<ele>1036.07</ele>
<time>2019-07-25T11:00:30Z</time>
</trkpt>
<trkpt lat="44.9235986" lon="5.3990818">
<ele>1036.10</ele>
<time>2019-07-25T11:00:31Z</time>
</trkpt>
<trkpt lat="44.9235833" lon="5.3991095">
<ele>1036.14</ele>
<time>2019-07-25T11:00:32Z</time>
</trkpt>
<trkpt lat="44.9235621" lon="5.3991410">
<ele>1036.18</ele>
<time>2019-07-25T11:00:33Z</time>
</trkpt>
<trkpt lat="44.9235311" lon="5.3991743">
<ele>1036.22</ele>
<time>2019-07-25T11:00:34Z</time>
</trkpt>
<trkpt lat="44.9234959" lon="5.3992069">
<ele>1036.26</ele>
<time>2019-07-25T11:00:35Z</time>
</trkpt>
<trkpt lat="44.9234608" lon="5.3992311">
<ele>1036.29</ele>
<time>2019-07-25T11:00:36Z</time>
</trkpt>
<trkpt lat="44.9234246" lon="5.3992557">
<ele>1036.32</ele>
<time>2019-07-25T11:00:37Z</time>
</trkpt>
<trkpt lat="44.9233925" lon="5.3992803">
<ele>1036.35</ele>
<time>2019-07-25T11:00:38Z</time>
</trkpt>
<trkpt lat="44.9233672" lon="5.3993088">
<ele>1036.38</ele>
<time>2019-07-25T11:00:39Z</time>
</trkpt>
<trkpt lat="44.9233456" lon="5.3993493">
<ele>1036.41</ele>
<time>2019-07-25T11:00:40Z</time>
</trkpt>
<trkpt lat="44.9233300" lon="5.3993858">
<ele>1036.45</ele>
<time>2019-07-25T11:00:41Z</time>
</trkpt>
<trkpt lat="44.9233167" lon="5.3994109">
<ele>1036.48</ele>
<time>2019-07-25T11:00:42Z</time>
</trkpt>
<trkpt lat="44.9233034" lon="5.3994352">
<ele>1036.51</ele>
<time>2019-07-25T11:00:43Z</time>
</trkpt>
<trkpt lat="44.9232798" lon="5.3994634">
<ele>1036.54</ele>
<time>2019-07-25T11:00:44Z</time>
</trkpt>
<trkpt lat="44.9232565" lon="5.3994911">
<ele>1036.57</ele>
<time>2019-07-25T11:00:45Z</time>
</trkpt>
<trkpt lat="44.9232378" lon="5.3995191">
<ele>1036.60</ele>
<time>2019-07-25T11:00:46Z</time>
</trkpt>
<trkpt lat="44.9232225" lon="5.3995503">
<ele>1036.63</ele>
<time>2019-07-25T11:00:47Z</time>
</trkpt>
<trkpt lat="44.9232047" lon="5.3995917">
<ele>1036.65</ele>
<time>2019-07-25T11:00:48Z</time>
</trkpt>
<trkpt lat="44.9231840" lon="5.3996312">
<ele>1036.67</ele>
<time>2019-07-25T11:00:49Z</time>
</trkpt>
<trkpt lat="44.9231569" lon="5.3996752">
<ele>1036.70</ele>
<time>2019-07-25T11:00:50Z</time>
</trkpt>
<trkpt lat="44.9231217" lon="5.3997164">
<ele>1036.81</ele>
<time>2019-07-25T11:00:51Z</time>
</trkpt>
<trkpt lat="44.9230873" lon="5.3997540">
<ele>1036.90</ele>
<time>2019-07-25T11:00:52Z</time>
</trkpt>
<trkpt lat="44.9230521" lon="5.3998004">
<ele>1036.97</ele>
<time>2019-07-25T11:00:53Z</time>
</trkpt>
<trkpt lat="44.9230258" lon="5.3998515">
<ele>1037.02</ele>
<time>2019-07-25T11:00:54Z</time>
</trkpt>
<trkpt lat="44.9230072" lon="5.3999079">
<ele>1037.12</ele>
<time>2019-07-25T11:00:55Z</time>
</trkpt>
<trkpt lat="44.9229925" lon="5.3999678">
<ele>1037.26</ele>
<time>2019-07-25T11:00:56Z</time>
</trkpt>
<trkpt lat="44.9229827" lon="5.4000167">
<ele>1037.27</ele>
<time>2019-07-25T11:00:57Z</time>
</trkpt>
<trkpt lat="44.9229779" lon="5.4000566">
<ele>1037.29</ele>
<time>2019-07-25T11:00:58Z</time>
</trkpt>
<trkpt lat="44.9229766" lon="5.4000902">
<ele>1037.32</ele>
<time>2019-07-25T11:00:59Z</time>
</trkpt>
<trkpt lat="44.9229741" lon="5.4001410">
<ele>1037.35</ele>
<time>2019-07-25T11:01:00Z</time>
</trkpt>
<trkpt lat="44.9229728" lon="5.4001818">
<ele>1037.39</ele>
<time>2019-07-25T11:01:01Z</time>
</trkpt>
<trkpt lat="44.9229712" lon="5.4002218">
<ele>1037.44</ele>
<time>2019-07-25T11:01:02Z</time>
</trkpt>
<trkpt lat="44.9229701" lon="5.4002533">
<ele>1037.49</ele>
<time>2019-07-25T11:01:03Z</time>
</trkpt>
<trkpt lat="44.9229741" lon="5.4002897">
<ele>1037.54</ele>
<time>2019-07-25T11:01:04Z</time>
</trkpt>
<trkpt lat="44.9229750" lon="5.4003373">
<ele>1037.60</ele>
<time>2019-07-25T11:01:05Z</time>
</trkpt>
<trkpt lat="44.9229717" lon="5.4003804">
<ele>1037.66</ele>
<time>2019-07-25T11:01:06Z</time>
</trkpt>
<trkpt lat="44.9229636" lon="5.4004160">
<ele>1037.72</ele>
<time>2019-07-25T11:01:07Z</time>
</trkpt>
<trkpt lat="44.9229591" lon="5.4004473">
<ele>1037.77</ele>
<time>2019-07-25T11:01:08Z</time>
</trkpt>
<trkpt lat="44.9229555" lon="5.4004789">
<ele>1037.83</ele>
<time>2019-07-25T11:01:09Z</time>
</trkpt>
<trkpt lat="44.9229554" lon="5.4005127">
<ele>1037.89</ele>
<time>2019-07-25T11:01:10Z</time>
</trkpt>
<trkpt lat="44.9229506" lon="5.4005512">
<ele>1037.96</ele>
<time>2019-07-25T11:01:11Z</time>
</trkpt>
<trkpt lat="44.9229447" lon="5.4005881">
<ele>1038.03</ele>
<time>2019-07-25T11:01:12Z</time>
</trkpt>
<trkpt lat="44.9229276" lon="5.4006325">
<ele>1038.10</ele>
<time>2019-07-25T11:01:13Z</time>
</trkpt>
<trkpt lat="44.9229098" lon="5.4006827">
<ele>1038.83</ele>
<time>2019-07-25T11:01:14Z</time>
</trkpt>
<trkpt lat="44.9228795" lon="5.4007413">
<ele>1039.41</ele>
<time>2019-07-25T11:01:15Z</time>
</trkpt>
<trkpt lat="44.9228441" lon="5.4007870">
<ele>1039.45</ele>
<time>2019-07-25T11:01:16Z</time>
</trkpt>
<trkpt lat="44.9228096" lon="5.4008195">
<ele>1039.49</ele>
<time>2019-07-25T11:01:17Z</time>
</trkpt>
<trkpt lat="44.9227783" lon="5.4008446">
<ele>1039.52</ele>
<time>2019-07-25T11:01:18Z</time>
</trkpt>
<trkpt lat="44.9227467" lon="5.4008602">
<ele>1039.56</ele>
<time>2019-07-25T11:01:19Z</time>
</trkpt>
<trkpt lat="44.9227177" lon="5.4008770">
<ele>1039.58</ele>
<time>2019-07-25T11:01:20Z</time>
</trkpt>
<trkpt lat="44.9226868" lon="5.4008821">
<ele>1039.60</ele>
<time>2019-07-25T11:01:21Z</time>
</trkpt>
<trkpt lat="44.9226559" lon="5.4008894">
<ele>1039.61</ele>
<time>2019-07-25T11:01:22Z</time>
</trkpt>
<trkpt lat="44.9226254" lon="5.4008994">
<ele>1039.62</ele>
<time>2019-07-25T11:01:23Z</time>
</trkpt>
<trkpt lat="44.9225958" lon="5.4009117">
<ele>1039.61</ele>
<time>2019-07-25T11:01:24Z</time>
</trkpt>
<trkpt lat="44.9225661" lon="5.4009221">
<ele>1039.60</ele>
<time>2019-07-25T11:01:25Z</time>
</trkpt>
<trkpt lat="44.9225402" lon="5.4009308">
<ele>1039.59</ele>
<time>2019-07-25T11:01:26Z</time>
</trkpt>
<trkpt lat="44.9225158" lon="5.4009400">
<ele>1039.57</ele>
<time>2019-07-25T11:01:27Z</time>
</trkpt>
<trkpt lat="44.9224881" lon="5.4009456">
<ele>1039.56</ele>
<time>2019-07-25T11:01:28Z</time>
</trkpt>
<trkpt lat="44.9224562" lon="5.4009504">
<ele>1039.55</ele>
<time>2019-07-25T11:01:29Z</time>
</trkpt>
<trkpt lat="44.9224258" lon="5.4009574">
<ele>1039.54</ele>
<time>2019-07-25T11:01:30Z</time>
</trkpt>
<trkpt lat="44.9223971" lon="5.4009668">
<ele>1039.52</ele>
<time>2019-07-25T11:01:31Z</time>
</trkpt>
<trkpt lat="44.9223713" lon="5.4009761">
<ele>1039.50</ele>
<time>2019-07-25T11:01:32Z</time>
</trkpt>
<trkpt lat="44.9223493" lon="5.4009847">
<ele>1039.48</ele>
<time>2019-07-25T11:01:33Z</time>
</trkpt>
<trkpt lat="44.9223265" lon="5.4009938">
<ele>1039.46</ele>
<time>2019-07-25T11:01:34Z</time>
</trkpt>
<trkpt lat="44.9223024" lon="5.4010000">
<ele>1039.43</ele>
<time>2019-07-25T11:01:35Z</time>
</trkpt>
<trkpt lat="44.9222716" lon="5.4010034">
<ele>1039.41</ele>
<time>2019-07-25T11:01:36Z</time>
</trkpt>
<trkpt lat="44.9222385" lon="5.4009970">
<ele>1039.37</ele>
<time>2019-07-25T11:01:37Z</time>
</trkpt>
<trkpt lat="44.9222066" lon="5.4009870">
<ele>1039.34</ele>
<time>2019-07-25T11:01:38Z</time>
</trkpt>
<trkpt lat="44.9221749" lon="5.4009812">
<ele>1039.31</ele>
<time>2019-07-25T11:01:39Z</time>
</trkpt>
<trkpt lat="44.9221466" lon="5.4009689">
<ele>1039.29</ele>
<time>2019-07-25T11:01:40Z</time>
</trkpt>
<trkpt lat="44.9221197" lon="5.4009513">
<ele>1039.27</ele>
<time>2019-07-25T11:01:41Z</time>
</trkpt>
<trkpt lat="44.9220889" lon="5.4009314">
<ele>1039.25</ele>
<time>2019-07-25T11:01:42Z</time>
</trkpt>
<trkpt lat="44.9220584" lon="5.4009148">
<ele>1039.22</ele>
<time>2019-07-25T11:01:43Z</time>
</trkpt>
<trkpt lat="44.9220308" lon="5.4009016">
<ele>1039.20</ele>
<time>2019-07-25T11:01:44Z</time>
</trkpt>
<trkpt lat="44.9220013" lon="5.4008846">
<ele>1039.18</ele>
<time>2019-07-25T11:01:45Z</time>
</trkpt>
<trkpt lat="44.9219693" lon="5.4008660">
<ele>1039.15</ele>
<time>2019-07-25T11:01:46Z</time>
</trkpt>
<trkpt lat="44.9219422" lon="5.4008437">
<ele>1039.13</ele>
<time>2019-07-25T11:01:47Z</time>
</trkpt>
<trkpt lat="44.9219176" lon="5.4008176">
<ele>1039.10</ele>
<time>2019-07-25T11:01:48Z</time>
</trkpt>
<trkpt lat="44.9218949" lon="5.4007980">
<ele>1039.08</ele>
<time>2019-07-25T11:01:49Z</time>
</trkpt>
<trkpt lat="44.9218806" lon="5.4007746">
<ele>1039.05</ele>
<time>2019-07-25T11:01:50Z</time>
</trkpt>
<trkpt lat="44.9218659" lon="5.4007522">
<ele>1039.03</ele>
<time>2019-07-25T11:01:51Z</time>
</trkpt>
<trkpt lat="44.9218527" lon="5.4007288">
<ele>1039.02</ele>
<time>2019-07-25T11:01:52Z</time>
</trkpt>
<trkpt lat="44.9218406" lon="5.4007020">
<ele>1039.01</ele>
<time>2019-07-25T11:01:53Z</time>
</trkpt>
<trkpt lat="44.9218239" lon="5.4006713">
<ele>1038.99</ele>
<time>2019-07-25T11:01:54Z</time>
</trkpt>
<trkpt lat="44.9217994" lon="5.4006284">
<ele>1038.97</ele>
<time>2019-07-25T11:01:55Z</time>
</trkpt>
<trkpt lat="44.9217797" lon="5.4005848">
<ele>1038.95</ele>
<time>2019-07-25T11:01:56Z</time>
</trkpt>
<trkpt lat="44.9217635" lon="5.4005523">
<ele>1038.93</ele>
<time>2019-07-25T11:01:57Z</time>
</trkpt>
<trkpt lat="44.9217542" lon="5.4005321">
<ele>1038.90</ele>
<time>2019-07-25T11:01:58Z</time>
</trkpt>
<trkpt lat="44.9217430" lon="5.4005100">
<ele>1038.87</ele>
<time>2019-07-25T11:01:59Z</time>
</trkpt>
<trkpt lat="44.9217331" lon="5.4004782">
<ele>1038.83</ele>
<time>2019-07-25T11:02:00Z</time>
</trkpt>
<trkpt lat="44.9217228" lon="5.4004529">
<ele>1038.80</ele>
<time>2019-07-25T11:02:01Z</time>
</trkpt>
<trkpt lat="44.9217143" lon="5.4004331">
<ele>1038.77</ele>
<time>2019-07-25T11:02:02Z</time>
</trkpt>
<trkpt lat="44.9217012" lon="5.4004105">
<ele>1038.73</ele>
<time>2019-07-25T11:02:03Z</time>
</trkpt>
<trkpt lat="44.9216845" lon="5.4003881">
<ele>1038.69</ele>
<time>2019-07-25T11:02:04Z</time>
</trkpt>
<trkpt lat="44.9216655" lon="5.4003622">
<ele>1038.65</ele>
<time>2019-07-25T11:02:05Z</time>
</trkpt>
<trkpt lat="44.9216517" lon="5.4003433">
<ele>1038.61</ele>
<time>2019-07-25T11:02:06Z</time>
</trkpt>
<trkpt lat="44.9216354" lon="5.4003228">
<ele>1038.56</ele>
<time>2019-07-25T11:02:07Z</time>
</trkpt>
<trkpt lat="44.9216171" lon="5.4002971">
<ele>1038.52</ele>
<time>2019-07-25T11:02:08Z</time>
</trkpt>
<trkpt lat="44.9215939" lon="5.4002754">
<ele>1038.49</ele>
<time>2019-07-25T11:02:09Z</time>
</trkpt>
<trkpt lat="44.9215757" lon="5.4002587">
<ele>1038.46</ele>
<time>2019-07-25T11:02:10Z</time>
</trkpt>
<trkpt lat="44.9215575" lon="5.4002565">
<ele>1038.43</ele>
<time>2019-07-25T11:02:11Z</time>
</trkpt>
<trkpt lat="44.9215377" lon="5.4002531">
<ele>1038.40</ele>
<time>2019-07-25T11:02:12Z</time>
</trkpt>
<trkpt lat="44.9215144" lon="5.4002534">
<ele>1038.38</ele>
<time>2019-07-25T11:02:13Z</time>
</trkpt>
<trkpt lat="44.9214952" lon="5.4002585">
<ele>1038.35</ele>
<time>2019-07-25T11:02:14Z</time>
</trkpt>
<trkpt lat="44.9214739" lon="5.4002624">
<ele>1038.33</ele>
<time>2019-07-25T11:02:15Z</time>
</trkpt>
<trkpt lat="44.9214484" lon="5.4002710">
<ele>1038.32</ele>
<time>2019-07-25T11:02:16Z</time>
</trkpt>
<trkpt lat="44.9214222" lon="5.4002643">
<ele>1038.31</ele>
<time>2019-07-25T11:02:17Z</time>
</trkpt>
<trkpt lat="44.9214048" lon="5.4002535">
<ele>1038.31</ele>
<time>2019-07-25T11:02:18Z</time>
</trkpt>
<trkpt lat="44.9213817" lon="5.4002417">
<ele>1038.31</ele>
<time>2019-07-25T11:02:19Z</time>
</trkpt>
<trkpt lat="44.9213548" lon="5.4002272">
<ele>1038.31</ele>
<time>2019-07-25T11:02:20Z</time>
</trkpt>
<trkpt lat="44.9213282" lon="5.4002172">
<ele>1038.33</ele>
<time>2019-07-25T11:02:21Z</time>
</trkpt>
<trkpt lat="44.9213043" lon="5.4002041">
<ele>1038.35</ele>
<time>2019-07-25T11:02:22Z</time>
</trkpt>
<trkpt lat="44.9212797" lon="5.4001897">
<ele>1038.39</ele>
<time>2019-07-25T11:02:23Z</time>
</trkpt>
<trkpt lat="44.9212478" lon="5.4001680">
<ele>1038.42</ele>
<time>2019-07-25T11:02:24Z</time>
</trkpt>
<trkpt lat="44.9212244" lon="5.4001429">
<ele>1038.47</ele>
<time>2019-07-25T11:02:25Z</time>
</trkpt>
<trkpt lat="44.9212011" lon="5.4001192">
<ele>1038.52</ele>
<time>2019-07-25T11:02:26Z</time>
</trkpt>
<trkpt lat="44.9211764" lon="5.4000993">
<ele>1038.58</ele>
<time>2019-07-25T11:02:27Z</time>
</trkpt>
<trkpt lat="44.9211492" lon="5.4000783">
<ele>1038.65</ele>
<time>2019-07-25T11:02:28Z</time>
</trkpt>
<trkpt lat="44.9211280" lon="5.4000623">
<ele>1038.72</ele>
<time>2019-07-25T11:02:29Z</time>
</trkpt>
<trkpt lat="44.9211038" lon="5.4000423">
<ele>1038.78</ele>
<time>2019-07-25T11:02:30Z</time>
</trkpt>
<trkpt lat="44.9210781" lon="5.4000182">
<ele>1038.85</ele>
<time>2019-07-25T11:02:31Z</time>
</trkpt>
<trkpt lat="44.9210554" lon="5.3999961">
<ele>1038.92</ele>
<time>2019-07-25T11:02:32Z</time>
</trkpt>
<trkpt lat="44.9210278" lon="5.3999832">
<ele>1038.99</ele>
<time>2019-07-25T11:02:33Z</time>
</trkpt>
<trkpt lat="44.9209977" lon="5.3999730">
<ele>1039.06</ele>
<time>2019-07-25T11:02:34Z</time>
</trkpt>
<trkpt lat="44.9209665" lon="5.3999621">
<ele>1039.13</ele>
<time>2019-07-25T11:02:35Z</time>
</trkpt>
<trkpt lat="44.9209400" lon="5.3999492">
<ele>1039.21</ele>
<time>2019-07-25T11:02:36Z</time>
</trkpt>
<trkpt lat="44.9209125" lon="5.3999378">
<ele>1039.28</ele>
<time>2019-07-25T11:02:37Z</time>
</trkpt>
<trkpt lat="44.9208798" lon="5.3999325">
<ele>1039.34</ele>
<time>2019-07-25T11:02:38Z</time>
</trkpt>
<trkpt lat="44.9208499" lon="5.3999257">
<ele>1039.41</ele>
<time>2019-07-25T11:02:39Z</time>
</trkpt>
<trkpt lat="44.9208202" lon="5.3999131">
<ele>1039.48</ele>
<time>2019-07-25T11:02:40Z</time>
</trkpt>
<trkpt lat="44.9207927" lon="5.3998980">
<ele>1039.56</ele>
<time>2019-07-25T11:02:41Z</time>
</trkpt>
<trkpt lat="44.9207687" lon="5.3998818">
<ele>1039.63</ele>
<time>2019-07-25T11:02:42Z</time>
</trkpt>
<trkpt lat="44.9207399" lon="5.3998741">
<ele>1039.71</ele>
<time>2019-07-25T11:02:43Z</time>
</trkpt>
<trkpt lat="44.9207055" lon="5.3998621">
<ele>1039.79</ele>
<time>2019-07-25T11:02:44Z</time>
</trkpt>
<trkpt lat="44.9206791" lon="5.3998430">
<ele>1039.86</ele>
<time>2019-07-25T11:02:45Z</time>
</trkpt>
<trkpt lat="44.9206550" lon="5.3998308">
<ele>1039.94</ele>
<time>2019-07-25T11:02:46Z</time>
</trkpt>
<trkpt lat="44.9206345" lon="5.3998133">
<ele>1040.00</ele>
<time>2019-07-25T11:02:47Z</time>
</trkpt>
<trkpt lat="44.9206172" lon="5.3998033">
<ele>1040.07</ele>
<time>2019-07-25T11:02:48Z</time>
</trkpt>
<trkpt lat="44.9205987" lon="5.3997951">
<ele>1040.13</ele>
<time>2019-07-25T11:02:49Z</time>
</trkpt>
<trkpt lat="44.9205772" lon="5.3997838">
<ele>1040.18</ele>
<time>2019-07-25T11:02:50Z</time>
</trkpt>
<trkpt lat="44.9205530" lon="5.3997722">
<ele>1040.24</ele>
<time>2019-07-25T11:02:51Z</time>
</trkpt>
<trkpt lat="44.9205161" lon="5.3997537">
<ele>1040.73</ele>
<time>2019-07-25T11:02:52Z</time>
</trkpt>
<trkpt lat="44.9204715" lon="5.3997325">
<ele>1041.12</ele>
<time>2019-07-25T11:02:53Z</time>
</trkpt>
<trkpt lat="44.9204302" lon="5.3997048">
<ele>1041.15</ele>
<time>2019-07-25T11:02:54Z</time>
</trkpt>
<trkpt lat="44.9204039" lon="5.3996777">
<ele>1041.18</ele>
<time>2019-07-25T11:02:55Z</time>
</trkpt>
<trkpt lat="44.9203693" lon="5.3996608">
<ele>1041.21</ele>
<time>2019-07-25T11:02:56Z</time>
</trkpt>
<trkpt lat="44.9203423" lon="5.3996326">
<ele>1041.24</ele>
<time>2019-07-25T11:02:57Z</time>
</trkpt>
<trkpt lat="44.9203152" lon="5.3995833">
<ele>1041.27</ele>
<time>2019-07-25T11:02:58Z</time>
</trkpt>
<trkpt lat="44.9202826" lon="5.3995446">
<ele>1041.60</ele>
<time>2019-07-25T11:02:59Z</time>
</trkpt>
<trkpt lat="44.9202312" lon="5.3995100">
<ele>1041.83</ele>
<time>2019-07-25T11:03:00Z</time>
</trkpt>
<trkpt lat="44.9201749" lon="5.3994905">
<ele>1042.05</ele>
<time>2019-07-25T11:03:01Z</time>
</trkpt>
<trkpt lat="44.9201254" lon="5.3994719">
<ele>1042.16</ele>
<time>2019-07-25T11:03:02Z</time>
</trkpt>
<trkpt lat="44.9200849" lon="5.3994786">
<ele>1042.25</ele>
<time>2019-07-25T11:03:03Z</time>
</trkpt>
<trkpt lat="44.9200458" lon="5.3994853">
<ele>1042.31</ele>
<time>2019-07-25T11:03:04Z</time>
</trkpt>
<trkpt lat="44.9200056" lon="5.3994837">
<ele>1042.39</ele>
<time>2019-07-25T11:03:05Z</time>
</trkpt>
<trkpt lat="44.9199671" lon="5.3994753">
<ele>1042.40</ele>
<time>2019-07-25T11:03:06Z</time>
</trkpt>
<trkpt lat="44.9199319" lon="5.3994645">
<ele>1042.40</ele>
<time>2019-07-25T11:03:07Z</time>
</trkpt>
<trkpt lat="44.9199013" lon="5.3994471">
<ele>1042.41</ele>
<time>2019-07-25T11:03:08Z</time>
</trkpt>
<trkpt lat="44.9198738" lon="5.3994302">
<ele>1042.42</ele>
<time>2019-07-25T11:03:09Z</time>
</trkpt>
<trkpt lat="44.9198468" lon="5.3994167">
<ele>1042.43</ele>
<time>2019-07-25T11:03:10Z</time>
</trkpt>
<trkpt lat="44.9198212" lon="5.3993998">
<ele>1042.45</ele>
<time>2019-07-25T11:03:11Z</time>
</trkpt>
<trkpt lat="44.9197939" lon="5.3993855">
<ele>1042.46</ele>
<time>2019-07-25T11:03:12Z</time>
</trkpt>
<trkpt lat="44.9197623" lon="5.3993742">
<ele>1042.47</ele>
<time>2019-07-25T11:03:13Z</time>
</trkpt>
<trkpt lat="44.9197306" lon="5.3993622">
<ele>1042.49</ele>
<time>2019-07-25T11:03:14Z</time>
</trkpt>
<trkpt lat="44.9197034" lon="5.3993498">
<ele>1042.50</ele>
<time>2019-07-25T11:03:15Z</time>
</trkpt>
<trkpt lat="44.9196743" lon="5.3993464">
<ele>1042.51</ele>
<time>2019-07-25T11:03:16Z</time>
</trkpt>
<trkpt lat="44.9196449" lon="5.3993486">
<ele>1042.52</ele>
<time>2019-07-25T11:03:17Z</time>
</trkpt>
<trkpt lat="44.9196105" lon="5.3993491">
<ele>1042.53</ele>
<time>2019-07-25T11:03:18Z</time>
</trkpt>
<trkpt lat="44.9195716" lon="5.3993514">
<ele>1042.54</ele>
<time>2019-07-25T11:03:19Z</time>
</trkpt>
<trkpt lat="44.9195359" lon="5.3993538">
<ele>1042.55</ele>
<time>2019-07-25T11:03:20Z</time>
</trkpt>
<trkpt lat="44.9195060" lon="5.3993553">
<ele>1042.55</ele>
<time>2019-07-25T11:03:21Z</time>
</trkpt>
<trkpt lat="44.9194909" lon="5.3993564">
<ele>1042.55</ele>
<time>2019-07-25T11:03:22Z</time>
</trkpt>
<trkpt lat="44.9194834" lon="5.3993605">
<ele>1042.55</ele>
<time>2019-07-25T11:03:23Z</time>
</trkpt>
<trkpt lat="44.9194799" lon="5.3993713">
<ele>1042.55</ele>
<time>2019-07-25T11:03:24Z</time>
</trkpt>
<trkpt lat="44.9194809" lon="5.3993712">
<ele>1042.55</ele>
<time>2019-07-25T11:03:25Z</time>
</trkpt>
<trkpt lat="44.9194817" lon="5.3993712">
<ele>1042.55</ele>
<time>2019-07-25T11:03:26Z</time>
</trkpt>
<trkpt lat="44.9194857" lon="5.3993721">
<ele>1042.55</ele>
<time>2019-07-25T11:03:27Z</time>
</trkpt>
<trkpt lat="44.9194859" lon="5.3993713">
<ele>1042.56</ele>
<time>2019-07-25T11:03:28Z</time>
</trkpt>
<trkpt lat="44.9194621" lon="5.3993707">
<ele>1042.57</ele>
<time>2019-07-25T11:03:29Z</time>
</trkpt>
<trkpt lat="44.9194336" lon="5.3993674">
<ele>1042.58</ele>
<time>2019-07-25T11:03:30Z</time>
</trkpt>
<trkpt lat="44.9193986" lon="5.3993631">
<ele>1042.60</ele>
<time>2019-07-25T11:03:31Z</time>
</trkpt>
<trkpt lat="44.9193602" lon="5.3993562">
<ele>1042.61</ele>
<time>2019-07-25T11:03:32Z</time>
</trkpt>
<trkpt lat="44.9193178" lon="5.3993469">
<ele>1042.84</ele>
<time>2019-07-25T11:03:33Z</time>
</trkpt>
<trkpt lat="44.9192733" lon="5.3993348">
<ele>1043.04</ele>
<time>2019-07-25T11:03:34Z</time>
</trkpt>
<trkpt lat="44.9192260" lon="5.3993104">
<ele>1043.17</ele>
<time>2019-07-25T11:03:35Z</time>
</trkpt>
<trkpt lat="44.9191749" lon="5.3992920">
<ele>1043.31</ele>
<time>2019-07-25T11:03:36Z</time>
</trkpt>
<trkpt lat="44.9191240" lon="5.3992759">
<ele>1043.51</ele>
<time>2019-07-25T11:03:37Z</time>
</trkpt>
<trkpt lat="44.9190752" lon="5.3992604">
<ele>1043.72</ele>
<time>2019-07-25T11:03:38Z</time>
</trkpt>
<trkpt lat="44.9190292" lon="5.3992471">
<ele>1043.92</ele>
<time>2019-07-25T11:03:39Z</time>
</trkpt>
<trkpt lat="44.9189897" lon="5.3992353">
<ele>1043.94</ele>
<time>2019-07-25T11:03:40Z</time>
</trkpt>
<trkpt lat="44.9189536" lon="5.3992288">
<ele>1043.96</ele>
<time>2019-07-25T11:03:41Z</time>
</trkpt>
<trkpt lat="44.9189226" lon="5.3992320">
<ele>1043.98</ele>
<time>2019-07-25T11:03:42Z</time>
</trkpt>
<trkpt lat="44.9188951" lon="5.3992411">
<ele>1044.00</ele>
<time>2019-07-25T11:03:43Z</time>
</trkpt>
<trkpt lat="44.9188710" lon="5.3992449">
<ele>1044.02</ele>
<time>2019-07-25T11:03:44Z</time>
</trkpt>
<trkpt lat="44.9188504" lon="5.3992472">
<ele>1044.04</ele>
<time>2019-07-25T11:03:45Z</time>
</trkpt>
<trkpt lat="44.9188425" lon="5.3992495">
<ele>1044.05</ele>
<time>2019-07-25T11:03:46Z</time>
</trkpt>
<trkpt lat="44.9188348" lon="5.3992514">
<ele>1044.08</ele>
<time>2019-07-25T11:03:47Z</time>
</trkpt>
<trkpt lat="44.9188289" lon="5.3992569">
<ele>1044.08</ele>
<time>2019-07-25T11:03:48Z</time>
</trkpt>
<trkpt lat="44.9188248" lon="5.3992588">
<ele>1044.08</ele>
<time>2019-07-25T11:03:49Z</time>
</trkpt>
<trkpt lat="44.9188252" lon="5.3992582">
<ele>1044.08</ele>
<time>2019-07-25T11:03:50Z</time>
</trkpt>
<trkpt lat="44.9188245" lon="5.3992587">
<ele>1044.08</ele>
<time>2019-07-25T11:03:51Z</time>
</trkpt>
<trkpt lat="44.9188247" lon="5.3992586">
<ele>1044.08</ele>
<time>2019-07-25T11:03:52Z</time>
</trkpt>
<trkpt lat="44.9188247" lon="5.3992589">
<ele>1044.09</ele>
<time>2019-07-25T11:03:53Z</time>
</trkpt>
<trkpt lat="44.9188254" lon="5.3992589">
<ele>1044.09</ele>
<time>2019-07-25T11:03:54Z</time>
</trkpt>
<trkpt lat="44.9188265" lon="5.3992596">
<ele>1044.09</ele>
<time>2019-07-25T11:03:55Z</time>
</trkpt>
<trkpt lat="44.9188279" lon="5.3992613">
<ele>1044.09</ele>
<time>2019-07-25T11:03:56Z</time>
</trkpt>
<trkpt lat="44.9188324" lon="5.3992631">
<ele>1044.12</ele>
<time>2019-07-25T11:03:57Z</time>
</trkpt>
<trkpt lat="44.9188349" lon="5.3992637">
<ele>1044.13</ele>
<time>2019-07-25T11:03:58Z</time>
</trkpt>
<trkpt lat="44.9188371" lon="5.3992668">
<ele>1044.13</ele>
<time>2019-07-25T11:03:59Z</time>
</trkpt>
<trkpt lat="44.9188459" lon="5.3992584">
<ele>1044.13</ele>
<time>2019-07-25T11:04:00Z</time>
</trkpt>
<trkpt lat="44.9188553" lon="5.3992502">
<ele>1044.14</ele>
<time>2019-07-25T11:04:01Z</time>
</trkpt>
<trkpt lat="44.9188558" lon="5.3992501">
<ele>1044.14</ele>
<time>2019-07-25T11:04:02Z</time>
</trkpt>
<trkpt lat="44.9188547" lon="5.3992515">
<ele>1044.15</ele>
<time>2019-07-25T11:04:03Z</time>
</trkpt>
<trkpt lat="44.9188552" lon="5.3992525">
<ele>1044.15</ele>
<time>2019-07-25T11:04:04Z</time>
</trkpt>
<trkpt lat="44.9188544" lon="5.3992539">
<ele>1044.16</ele>
<time>2019-07-25T11:04:05Z</time>
</trkpt>
<trkpt lat="44.9188526" lon="5.3992582">
<ele>1044.16</ele>
<time>2019-07-25T11:04:06Z</time>
</trkpt>
<trkpt lat="44.9188495" lon="5.3992645">
<ele>1044.17</ele>
<time>2019-07-25T11:04:07Z</time>
</trkpt>
<trkpt lat="44.9188409" lon="5.3992715">
<ele>1044.17</ele>
<time>2019-07-25T11:04:08Z</time>
</trkpt>
<trkpt lat="44.9188408" lon="5.3992716">
<ele>1044.18</ele>
<time>2019-07-25T11:04:09Z</time>
</trkpt>
<trkpt lat="44.9188395" lon="5.3992723">
<ele>1044.19</ele>
<time>2019-07-25T11:04:10Z</time>
</trkpt>
<trkpt lat="44.9188303" lon="5.3992805">
<ele>1044.19</ele>
<time>2019-07-25T11:04:11Z</time>
</trkpt>
<trkpt lat="44.9188391" lon="5.3992754">
<ele>1044.20</ele>
<time>2019-07-25T11:04:12Z</time>
</trkpt>
<trkpt lat="44.9188511" lon="5.3992826">
<ele>1044.27</ele>
<time>2019-07-25T11:04:13Z</time>
</trkpt>
<trkpt lat="44.9188511" lon="5.3992827">
<ele>1044.28</ele>
<time>2019-07-25T11:04:14Z</time>
</trkpt>
<trkpt lat="44.9188529" lon="5.3992838">
<ele>1044.28</ele>
<time>2019-07-25T11:04:15Z</time>
</trkpt>
<trkpt lat="44.9188598" lon="5.3992807">
<ele>1044.29</ele>
<time>2019-07-25T11:04:16Z</time>
</trkpt>
<trkpt lat="44.9188610" lon="5.3992805">
<ele>1044.30</ele>
<time>2019-07-25T11:04:17Z</time>
</trkpt>
<trkpt lat="44.9188631" lon="5.3992796">
<ele>1044.31</ele>
<time>2019-07-25T11:04:18Z</time>
</trkpt>
<trkpt lat="44.9188637" lon="5.3992792">
<ele>1044.32</ele>
<time>2019-07-25T11:04:19Z</time>
</trkpt>
<trkpt lat="44.9188641" lon="5.3992795">
<ele>1044.32</ele>
<time>2019-07-25T11:04:20Z</time>
</trkpt>
<trkpt lat="44.9188652" lon="5.3992792">
<ele>1044.33</ele>
<time>2019-07-25T11:04:21Z</time>
</trkpt>
<trkpt lat="44.9188661" lon="5.3992789">
<ele>1044.34</ele>
<time>2019-07-25T11:04:22Z</time>
</trkpt>
<trkpt lat="44.9188661" lon="5.3992788">
<ele>1044.35</ele>
<time>2019-07-25T11:04:23Z</time>
</trkpt>
<trkpt lat="44.9188662" lon="5.3992786">
<ele>1044.36</ele>
<time>2019-07-25T11:04:24Z</time>
</trkpt>
<trkpt lat="44.9188664" lon="5.3992784">
<ele>1044.36</ele>
<time>2019-07-25T11:04:25Z</time>
</trkpt>
<trkpt lat="44.9188663" lon="5.3992786">
<ele>1044.37</ele>
<time>2019-07-25T11:04:26Z</time>
</trkpt>
<trkpt lat="44.9188670" lon="5.3992785">
<ele>1044.38</ele>
<time>2019-07-25T11:04:27Z</time>
</trkpt>
<trkpt lat="44.9188681" lon="5.3992791">
<ele>1044.39</ele>
<time>2019-07-25T11:04:28Z</time>
</trkpt>
<trkpt lat="44.9188671" lon="5.3992785">
<ele>1044.40</ele>
<time>2019-07-25T11:04:29Z</time>
</trkpt>
<trkpt lat="44.9188668" lon="5.3992784">
<ele>1044.41</ele>
<time>2019-07-25T11:04:30Z</time>
</trkpt>
<trkpt lat="44.9188669" lon="5.3992784">
<ele>1044.42</ele>
<time>2019-07-25T11:04:31Z</time>
</trkpt>
<trkpt lat="44.9188668" lon="5.3992785">
<ele>1044.43</ele>
<time>2019-07-25T11:04:32Z</time>
</trkpt>
<trkpt lat="44.9188668" lon="5.3992784">
<ele>1044.44</ele>
<time>2019-07-25T11:04:33Z</time>
</trkpt>
<trkpt lat="44.9188668" lon="5.3992784">
<ele>1044.45</ele>
<time>2019-07-25T11:04:34Z</time>
</trkpt>
<trkpt lat="44.9188679" lon="5.3992791">
<ele>1044.46</ele>
<time>2019-07-25T11:04:35Z</time>
</trkpt>
<trkpt lat="44.9188692" lon="5.3992793">
<ele>1044.47</ele>
<time>2019-07-25T11:04:36Z</time>
</trkpt>
<trkpt lat="44.9188712" lon="5.3992789">
<ele>1044.48</ele>
<time>2019-07-25T11:04:37Z</time>
</trkpt>
<trkpt lat="44.9188712" lon="5.3992779">
<ele>1044.49</ele>
<time>2019-07-25T11:04:38Z</time>
</trkpt>
<trkpt lat="44.9188715" lon="5.3992772">
<ele>1044.50</ele>
<time>2019-07-25T11:04:39Z</time>
</trkpt>
<trkpt lat="44.9188722" lon="5.3992763">
<ele>1044.51</ele>
<time>2019-07-25T11:04:40Z</time>
</trkpt>
<trkpt lat="44.9188728" lon="5.3992762">
<ele>1044.52</ele>
<time>2019-07-25T11:04:41Z</time>
</trkpt>
<trkpt lat="44.9188729" lon="5.3992760">
<ele>1044.54</ele>
<time>2019-07-25T11:04:42Z</time>
</trkpt>
<trkpt lat="44.9188729" lon="5.3992762">
<ele>1044.55</ele>
<time>2019-07-25T11:04:43Z</time>
</trkpt>
<trkpt lat="44.9188728" lon="5.3992762">
<ele>1044.56</ele>
<time>2019-07-25T11:04:44Z</time>
</trkpt>
<trkpt lat="44.9188724" lon="5.3992765">
<ele>1044.57</ele>
<time>2019-07-25T11:04:45Z</time>
</trkpt>
<trkpt lat="44.9188704" lon="5.3992789">
<ele>1044.58</ele>
<time>2019-07-25T11:04:46Z</time>
</trkpt>
<trkpt lat="44.9188718" lon="5.3992792">
<ele>1044.59</ele>
<time>2019-07-25T11:04:47Z</time>
</trkpt>
<trkpt lat="44.9188738" lon="5.3992786">
<ele>1044.60</ele>
<time>2019-07-25T11:04:48Z</time>
</trkpt>
<trkpt lat="44.9188740" lon="5.3992788">
<ele>1044.61</ele>
<time>2019-07-25T11:04:49Z</time>
</trkpt>
<trkpt lat="44.9188748" lon="5.3992797">
<ele>1044.62</ele>
<time>2019-07-25T11:04:50Z</time>
</trkpt>
<trkpt lat="44.9188768" lon="5.3992814">
<ele>1044.63</ele>
<time>2019-07-25T11:04:51Z</time>
</trkpt>
<trkpt lat="44.9188770" lon="5.3992821">
<ele>1044.64</ele>
<time>2019-07-25T11:04:52Z</time>
</trkpt>
<trkpt lat="44.9188763" lon="5.3992825">
<ele>1044.65</ele>
<time>2019-07-25T11:04:53Z</time>
</trkpt>
<trkpt lat="44.9188765" lon="5.3992829">
<ele>1044.66</ele>
<time>2019-07-25T11:04:54Z</time>
</trkpt>
<trkpt lat="44.9188762" lon="5.3992839">
<ele>1044.67</ele>
<time>2019-07-25T11:04:55Z</time>
</trkpt>
<trkpt lat="44.9188759" lon="5.3992840">
<ele>1044.68</ele>
<time>2019-07-25T11:04:56Z</time>
</trkpt>
<trkpt lat="44.9188755" lon="5.3992845">
<ele>1044.69</ele>
<time>2019-07-25T11:04:57Z</time>
</trkpt>
<trkpt lat="44.9188761" lon="5.3992843">
<ele>1044.70</ele>
<time>2019-07-25T11:04:58Z</time>
</trkpt>
<trkpt lat="44.9188760" lon="5.3992845">
<ele>1044.71</ele>
<time>2019-07-25T11:04:59Z</time>
</trkpt>
<trkpt lat="44.9188765" lon="5.3992846">
<ele>1044.72</ele>
<time>2019-07-25T11:05:00Z</time>
</trkpt>
<trkpt lat="44.9188763" lon="5.3992843">
<ele>1044.73</ele>
<time>2019-07-25T11:05:01Z</time>
</trkpt>
<trkpt lat="44.9188767" lon="5.3992844">
<ele>1044.75</ele>
<time>2019-07-25T11:05:02Z</time>
</trkpt>
<trkpt lat="44.9188772" lon="5.3992854">
<ele>1044.76</ele>
<time>2019-07-25T11:05:03Z</time>
</trkpt>
<trkpt lat="44.9188783" lon="5.3992873">
<ele>1044.77</ele>
<time>2019-07-25T11:05:04Z</time>
</trkpt>
<trkpt lat="44.9188792" lon="5.3992876">
<ele>1044.79</ele>
<time>2019-07-25T11:05:05Z</time>
</trkpt>
<trkpt lat="44.9188830" lon="5.3992869">
<ele>1044.80</ele>
<time>2019-07-25T11:05:06Z</time>
</trkpt>
<trkpt lat="44.9188833" lon="5.3992863">
<ele>1044.82</ele>
<time>2019-07-25T11:05:07Z</time>
</trkpt>
<trkpt lat="44.9188829" lon="5.3992860">
<ele>1044.83</ele>
<time>2019-07-25T11:05:08Z</time>
</trkpt>
<trkpt lat="44.9188826" lon="5.3992858">
<ele>1044.85</ele>
<time>2019-07-25T11:05:09Z</time>
</trkpt>
<trkpt lat="44.9188820" lon="5.3992864">
<ele>1044.86</ele>
<time>2019-07-25T11:05:10Z</time>
</trkpt>
<trkpt lat="44.9188822" lon="5.3992872">
<ele>1044.88</ele>
<time>2019-07-25T11:05:11Z</time>
</trkpt>
<trkpt lat="44.9188817" lon="5.3992876">
<ele>1044.90</ele>
<time>2019-07-25T11:05:12Z</time>
</trkpt>
<trkpt lat="44.9188814" lon="5.3992885">
<ele>1044.91</ele>
<time>2019-07-25T11:05:13Z</time>
</trkpt>
<trkpt lat="44.9188812" lon="5.3992892">
<ele>1044.93</ele>
<time>2019-07-25T11:05:14Z</time>
</trkpt>
<trkpt lat="44.9188793" lon="5.3992903">
<ele>1044.95</ele>
<time>2019-07-25T11:05:15Z</time>
</trkpt>
<trkpt lat="44.9188786" lon="5.3992902">
<ele>1044.96</ele>
<time>2019-07-25T11:05:16Z</time>
</trkpt>
<trkpt lat="44.9188783" lon="5.3992901">
<ele>1044.98</ele>
<time>2019-07-25T11:05:17Z</time>
</trkpt>
<trkpt lat="44.9188776" lon="5.3992903">
<ele>1044.99</ele>
<time>2019-07-25T11:05:18Z</time>
</trkpt>
<trkpt lat="44.9188773" lon="5.3992908">
<ele>1045.01</ele>
<time>2019-07-25T11:05:19Z</time>
</trkpt>
<trkpt lat="44.9188765" lon="5.3992918">
<ele>1045.03</ele>
<time>2019-07-25T11:05:20Z</time>
</trkpt>
<trkpt lat="44.9188759" lon="5.3992946">
<ele>1045.05</ele>
<time>2019-07-25T11:05:21Z</time>
</trkpt>
<trkpt lat="44.9188677" lon="5.3992974">
<ele>1045.22</ele>
<time>2019-07-25T11:05:22Z</time>
</trkpt>
<trkpt lat="44.9188707" lon="5.3993001">
<ele>1045.40</ele>
<time>2019-07-25T11:05:23Z</time>
</trkpt>
<trkpt lat="44.9188672" lon="5.3993071">
<ele>1045.58</ele>
<time>2019-07-25T11:05:24Z</time>
</trkpt>
<trkpt lat="44.9188588" lon="5.3993241">
<ele>1045.60</ele>
<time>2019-07-25T11:05:25Z</time>
</trkpt>
<trkpt lat="44.9188579" lon="5.3993249">
<ele>1045.62</ele>
<time>2019-07-25T11:05:26Z</time>
</trkpt>
<trkpt lat="44.9188567" lon="5.3993252">
<ele>1045.64</ele>
<time>2019-07-25T11:05:27Z</time>
</trkpt>
<trkpt lat="44.9188568" lon="5.3993229">
<ele>1045.66</ele>
<time>2019-07-25T11:05:28Z</time>
</trkpt>
<trkpt lat="44.9188567" lon="5.3993229">
<ele>1045.67</ele>
<time>2019-07-25T11:05:29Z</time>
</trkpt>
<trkpt lat="44.9188585" lon="5.3993191">
<ele>1045.69</ele>
<time>2019-07-25T11:05:30Z</time>
</trkpt>
<trkpt lat="44.9188569" lon="5.3993189">
<ele>1045.71</ele>
<time>2019-07-25T11:05:31Z</time>
</trkpt>
<trkpt lat="44.9188563" lon="5.3993198">
<ele>1045.73</ele>
<time>2019-07-25T11:05:32Z</time>
</trkpt>
<trkpt lat="44.9188554" lon="5.3993199">
<ele>1045.75</ele>
<time>2019-07-25T11:05:33Z</time>
</trkpt>
<trkpt lat="44.9188550" lon="5.3993197">
<ele>1045.76</ele>
<time>2019-07-25T11:05:34Z</time>
</trkpt>
<trkpt lat="44.9188544" lon="5.3993195">
<ele>1045.78</ele>
<time>2019-07-25T11:05:35Z</time>
</trkpt>
<trkpt lat="44.9188537" lon="5.3993195">
<ele>1045.80</ele>
<time>2019-07-25T11:05:36Z</time>
</trkpt>
<trkpt lat="44.9188531" lon="5.3993196">
<ele>1045.82</ele>
<time>2019-07-25T11:05:37Z</time>
</trkpt>
<trkpt lat="44.9188532" lon="5.3993191">
<ele>1045.83</ele>
<time>2019-07-25T11:05:38Z</time>
</trkpt>
<trkpt lat="44.9188536" lon="5.3993177">
<ele>1045.85</ele>
<time>2019-07-25T11:05:39Z</time>
</trkpt>
<trkpt lat="44.9188541" lon="5.3993136">
<ele>1046.03</ele>
<time>2019-07-25T11:05:40Z</time>
</trkpt>
<trkpt lat="44.9188459" lon="5.3993087">
<ele>1046.21</ele>
<time>2019-07-25T11:05:41Z</time>
</trkpt>
<trkpt lat="44.9188476" lon="5.3992985">
<ele>1046.39</ele>
<time>2019-07-25T11:05:42Z</time>
</trkpt>
<trkpt lat="44.9188486" lon="5.3993002">
<ele>1046.41</ele>
<time>2019-07-25T11:05:43Z</time>
</trkpt>
<trkpt lat="44.9188496" lon="5.3992984">
<ele>1046.42</ele>
<time>2019-07-25T11:05:44Z</time>
</trkpt>
<trkpt lat="44.9188502" lon="5.3992973">
<ele>1046.44</ele>
<time>2019-07-25T11:05:45Z</time>
</trkpt>
<trkpt lat="44.9188517" lon="5.3992955">
<ele>1046.46</ele>
<time>2019-07-25T11:05:46Z</time>
</trkpt>
<trkpt lat="44.9188523" lon="5.3992941">
<ele>1046.48</ele>
<time>2019-07-25T11:05:47Z</time>
</trkpt>
<trkpt lat="44.9188538" lon="5.3992924">
<ele>1046.50</ele>
<time>2019-07-25T11:05:48Z</time>
</trkpt>
<trkpt lat="44.9188545" lon="5.3992915">
<ele>1046.52</ele>
<time>2019-07-25T11:05:49Z</time>
</trkpt>
<trkpt lat="44.9188569" lon="5.3992884">
<ele>1046.54</ele>
<time>2019-07-25T11:05:50Z</time>
</trkpt>
<trkpt lat="44.9188588" lon="5.3992862">
<ele>1046.56</ele>
<time>2019-07-25T11:05:51Z</time>
</trkpt>
<trkpt lat="44.9188589" lon="5.3992871">
<ele>1046.58</ele>
<time>2019-07-25T11:05:52Z</time>
</trkpt>
<trkpt lat="44.9188588" lon="5.3992867">
<ele>1046.60</ele>
<time>2019-07-25T11:05:53Z</time>
</trkpt>
<trkpt lat="44.9188587" lon="5.3992863">
<ele>1046.62</ele>
<time>2019-07-25T11:05:54Z</time>
</trkpt>
<trkpt lat="44.9188577" lon="5.3992861">
<ele>1046.64</ele>
<time>2019-07-25T11:05:55Z</time>
</trkpt>
<trkpt lat="44.9188582" lon="5.3992858">
<ele>1046.66</ele>
<time>2019-07-25T11:05:56Z</time>
</trkpt>
<trkpt lat="44.9188590" lon="5.3992858">
<ele>1046.68</ele>
<time>2019-07-25T11:05:57Z</time>
</trkpt>
<trkpt lat="44.9188589" lon="5.3992852">
<ele>1046.70</ele>
<time>2019-07-25T11:05:58Z</time>
</trkpt>
<trkpt lat="44.9188591" lon="5.3992848">
<ele>1046.72</ele>
<time>2019-07-25T11:05:59Z</time>
</trkpt>
<trkpt lat="44.9188592" lon="5.3992844">
<ele>1046.74</ele>
<time>2019-07-25T11:06:00Z</time>
</trkpt>
<trkpt lat="44.9188595" lon="5.3992841">
<ele>1046.76</ele>
<time>2019-07-25T11:06:01Z</time>
</trkpt>
<trkpt lat="44.9188601" lon="5.3992832">
<ele>1046.78</ele>
<time>2019-07-25T11:06:02Z</time>
</trkpt>
<trkpt lat="44.9188607" lon="5.3992827">
<ele>1046.80</ele>
<time>2019-07-25T11:06:03Z</time>
</trkpt>
<trkpt lat="44.9188615" lon="5.3992836">
<ele>1046.82</ele>
<time>2019-07-25T11:06:04Z</time>
</trkpt>
<trkpt lat="44.9188623" lon="5.3992841">
<ele>1046.84</ele>
<time>2019-07-25T11:06:05Z</time>
</trkpt>
<trkpt lat="44.9188621" lon="5.3992846">
<ele>1046.86</ele>
<time>2019-07-25T11:06:06Z</time>
</trkpt>
<trkpt lat="44.9188622" lon="5.3992860">
<ele>1046.88</ele>
<time>2019-07-25T11:06:07Z</time>
</trkpt>
<trkpt lat="44.9188615" lon="5.3992869">
<ele>1046.90</ele>
<time>2019-07-25T11:06:08Z</time>
</trkpt>
<trkpt lat="44.9188607" lon="5.3992888">
<ele>1046.92</ele>
<time>2019-07-25T11:06:09Z</time>
</trkpt>
<trkpt lat="44.9188590" lon="5.3992970">
<ele>1046.94</ele>
<time>2019-07-25T11:06:10Z</time>
</trkpt>
<trkpt lat="44.9188631" lon="5.3992987">
<ele>1047.13</ele>
<time>2019-07-25T11:06:11Z</time>
</trkpt>
<trkpt lat="44.9188663" lon="5.3993017">
<ele>1047.33</ele>
<time>2019-07-25T11:06:12Z</time>
</trkpt>
<trkpt lat="44.9188624" lon="5.3992986">
<ele>1047.52</ele>
<time>2019-07-25T11:06:13Z</time>
</trkpt>
<trkpt lat="44.9188656" lon="5.3992995">
<ele>1047.71</ele>
<time>2019-07-25T11:06:14Z</time>
</trkpt>
<trkpt lat="44.9188700" lon="5.3993029">
<ele>1047.89</ele>
<time>2019-07-25T11:06:15Z</time>
</trkpt>
<trkpt lat="44.9188695" lon="5.3993036">
<ele>1047.91</ele>
<time>2019-07-25T11:06:16Z</time>
</trkpt>
<trkpt lat="44.9188643" lon="5.3993017">
<ele>1048.09</ele>
<time>2019-07-25T11:06:17Z</time>
</trkpt>
<trkpt lat="44.9188610" lon="5.3993002">
<ele>1048.11</ele>
<time>2019-07-25T11:06:18Z</time>
</trkpt>
<trkpt lat="44.9188588" lon="5.3992983">
<ele>1048.29</ele>
<time>2019-07-25T11:06:19Z</time>
</trkpt>
<trkpt lat="44.9188596" lon="5.3992990">
<ele>1048.30</ele>
<time>2019-07-25T11:06:20Z</time>
</trkpt>
<trkpt lat="44.9188593" lon="5.3992987">
<ele>1048.32</ele>
<time>2019-07-25T11:06:21Z</time>
</trkpt>
<trkpt lat="44.9188590" lon="5.3992983">
<ele>1048.34</ele>
<time>2019-07-25T11:06:22Z</time>
</trkpt>
<trkpt lat="44.9188585" lon="5.3992990">
<ele>1048.35</ele>
<time>2019-07-25T11:06:23Z</time>
</trkpt>
<trkpt lat="44.9188581" lon="5.3992993">
<ele>1048.37</ele>
<time>2019-07-25T11:06:24Z</time>
</trkpt>
<trkpt lat="44.9188579" lon="5.3992995">
<ele>1048.39</ele>
<time>2019-07-25T11:06:25Z</time>
</trkpt>
<trkpt lat="44.9188568" lon="5.3992991">
<ele>1048.40</ele>
<time>2019-07-25T11:06:26Z</time>
</trkpt>
<trkpt lat="44.9188565" lon="5.3992987">
<ele>1048.42</ele>
<time>2019-07-25T11:06:27Z</time>
</trkpt>
<trkpt lat="44.9188559" lon="5.3992981">
<ele>1048.43</ele>
<time>2019-07-25T11:06:28Z</time>
</trkpt>
<trkpt lat="44.9188554" lon="5.3992979">
<ele>1048.45</ele>
<time>2019-07-25T11:06:29Z</time>
</trkpt>
<trkpt lat="44.9188552" lon="5.3992977">
<ele>1048.47</ele>
<time>2019-07-25T11:06:30Z</time>
</trkpt>
<trkpt lat="44.9188548" lon="5.3992976">
<ele>1048.48</ele>
<time>2019-07-25T11:06:31Z</time>
</trkpt>
<trkpt lat="44.9188546" lon="5.3992972">
<ele>1048.50</ele>
<time>2019-07-25T11:06:32Z</time>
</trkpt>
<trkpt lat="44.9188545" lon="5.3992968">
<ele>1048.52</ele>
<time>2019-07-25T11:06:33Z</time>
</trkpt>
<trkpt lat="44.9188543" lon="5.3992964">
<ele>1048.54</ele>
<time>2019-07-25T11:06:34Z</time>
</trkpt>
<trkpt lat="44.9188538" lon="5.3992962">
<ele>1048.56</ele>
<time>2019-07-25T11:06:35Z</time>
</trkpt>
<trkpt lat="44.9188535" lon="5.3992957">
<ele>1048.57</ele>
<time>2019-07-25T11:06:36Z</time>
</trkpt>
<trkpt lat="44.9188538" lon="5.3992955">
<ele>1048.59</ele>
<time>2019-07-25T11:06:37Z</time>
</trkpt>
<trkpt lat="44.9188538" lon="5.3992954">
<ele>1048.61</ele>
<time>2019-07-25T11:06:38Z</time>
</trkpt>
<trkpt lat="44.9188536" lon="5.3992957">
<ele>1048.63</ele>
<time>2019-07-25T11:06:39Z</time>
</trkpt>
<trkpt lat="44.9188541" lon="5.3992967">
<ele>1048.65</ele>
<time>2019-07-25T11:06:40Z</time>
</trkpt>
<trkpt lat="44.9188547" lon="5.3992962">
<ele>1048.67</ele>
<time>2019-07-25T11:06:41Z</time>
</trkpt>
<trkpt lat="44.9188563" lon="5.3993039">
<ele>1048.89</ele>
<time>2019-07-25T11:06:42Z</time>
</trkpt>
<trkpt lat="44.9188607" lon="5.3993064">
<ele>1049.10</ele>
<time>2019-07-25T11:06:43Z</time>
</trkpt>
<trkpt lat="44.9188656" lon="5.3992976">
<ele>1049.12</ele>
<time>2019-07-25T11:06:44Z</time>
</trkpt>
<trkpt lat="44.9188950" lon="5.3992687">
<ele>1049.15</ele>
<time>2019-07-25T11:06:45Z</time>
</trkpt>
<trkpt lat="44.9189192" lon="5.3992420">
<ele>1049.38</ele>
<time>2019-07-25T11:06:46Z</time>
</trkpt>
<trkpt lat="44.9189204" lon="5.3992427">
<ele>1049.40</ele>
<time>2019-07-25T11:06:47Z</time>
</trkpt>
<trkpt lat="44.9189217" lon="5.3992412">
<ele>1049.42</ele>
<time>2019-07-25T11:06:48Z</time>
</trkpt>
<trkpt lat="44.9189223" lon="5.3992423">
<ele>1049.45</ele>
<time>2019-07-25T11:06:49Z</time>
</trkpt>
<trkpt lat="44.9189212" lon="5.3992440">
<ele>1049.47</ele>
<time>2019-07-25T11:06:50Z</time>
</trkpt>
<trkpt lat="44.9189211" lon="5.3992429">
<ele>1049.49</ele>
<time>2019-07-25T11:06:51Z</time>
</trkpt>
<trkpt lat="44.9189210" lon="5.3992429">
<ele>1049.52</ele>
<time>2019-07-25T11:06:52Z</time>
</trkpt>
<trkpt lat="44.9189212" lon="5.3992427">
<ele>1049.54</ele>
<time>2019-07-25T11:06:53Z</time>
</trkpt>
<trkpt lat="44.9189231" lon="5.3992404">
<ele>1049.57</ele>
<time>2019-07-25T11:06:54Z</time>
</trkpt>
<trkpt lat="44.9189236" lon="5.3992387">
<ele>1049.59</ele>
<time>2019-07-25T11:06:55Z</time>
</trkpt>
<trkpt lat="44.9189237" lon="5.3992374">
<ele>1049.61</ele>
<time>2019-07-25T11:06:56Z</time>
</trkpt>
<trkpt lat="44.9189240" lon="5.3992373">
<ele>1049.64</ele>
<time>2019-07-25T11:06:57Z</time>
</trkpt>
<trkpt lat="44.9189239" lon="5.3992373">
<ele>1049.67</ele>
<time>2019-07-25T11:06:58Z</time>
</trkpt>
<trkpt lat="44.9189239" lon="5.3992374">
<ele>1049.69</ele>
<time>2019-07-25T11:06:59Z</time>
</trkpt>
<trkpt lat="44.9189236" lon="5.3992378">
<ele>1049.71</ele>
<time>2019-07-25T11:07:00Z</time>
</trkpt>
<trkpt lat="44.9189241" lon="5.3992374">
<ele>1049.74</ele>
<time>2019-07-25T11:07:01Z</time>
</trkpt>
<trkpt lat="44.9189224" lon="5.3992379">
<ele>1049.97</ele>
<time>2019-07-25T11:07:02Z</time>
</trkpt>
<trkpt lat="44.9189090" lon="5.3992236">
<ele>1050.20</ele>
<time>2019-07-25T11:07:03Z</time>
</trkpt>
<trkpt lat="44.9189031" lon="5.3992165">
<ele>1050.41</ele>
<time>2019-07-25T11:07:04Z</time>
</trkpt>
<trkpt lat="44.9188888" lon="5.3992138">
<ele>1050.43</ele>
<time>2019-07-25T11:07:05Z</time>
</trkpt>
<trkpt lat="44.9188898" lon="5.3992002">
<ele>1050.64</ele>
<time>2019-07-25T11:07:06Z</time>
</trkpt>
<trkpt lat="44.9188877" lon="5.3992013">
<ele>1050.66</ele>
<time>2019-07-25T11:07:07Z</time>
</trkpt>
<trkpt lat="44.9188877" lon="5.3992013">
<ele>1050.68</ele>
<time>2019-07-25T11:07:08Z</time>
</trkpt>
<trkpt lat="44.9188878" lon="5.3992014">
<ele>1050.70</ele>
<time>2019-07-25T11:07:09Z</time>
</trkpt>
<trkpt lat="44.9188881" lon="5.3992010">
<ele>1050.72</ele>
<time>2019-07-25T11:07:10Z</time>
</trkpt>
<trkpt lat="44.9188880" lon="5.3992003">
<ele>1050.74</ele>
<time>2019-07-25T11:07:11Z</time>
</trkpt>
<trkpt lat="44.9188877" lon="5.3991995">
<ele>1050.76</ele>
<time>2019-07-25T11:07:12Z</time>
</trkpt>
<trkpt lat="44.9188874" lon="5.3991989">
<ele>1050.78</ele>
<time>2019-07-25T11:07:13Z</time>
</trkpt>
<trkpt lat="44.9188871" lon="5.3991982">
<ele>1050.79</ele>
<time>2019-07-25T11:07:14Z</time>
</trkpt>
<trkpt lat="44.9188871" lon="5.3991983">
<ele>1050.81</ele>
<time>2019-07-25T11:07:15Z</time>
</trkpt>
<trkpt lat="44.9188870" lon="5.3991984">
<ele>1050.83</ele>
<time>2019-07-25T11:07:16Z</time>
</trkpt>
<trkpt lat="44.9188871" lon="5.3991982">
<ele>1050.85</ele>
<time>2019-07-25T11:07:17Z</time>
</trkpt>
<trkpt lat="44.9188882" lon="5.3991996">
<ele>1050.86</ele>
<time>2019-07-25T11:07:18Z</time>
</trkpt>
<trkpt lat="44.9188884" lon="5.3992033">
<ele>1050.88</ele>
<time>2019-07-25T11:07:19Z</time>
</trkpt>
<trkpt lat="44.9188888" lon="5.3992046">
<ele>1050.89</ele>
<time>2019-07-25T11:07:20Z</time>
</trkpt>
<trkpt lat="44.9188877" lon="5.3992024">
<ele>1050.91</ele>
<time>2019-07-25T11:07:21Z</time>
</trkpt>
<trkpt lat="44.9188879" lon="5.3992028">
<ele>1050.92</ele>
<time>2019-07-25T11:07:22Z</time>
</trkpt>
<trkpt lat="44.9188885" lon="5.3992040">
<ele>1050.94</ele>
<time>2019-07-25T11:07:23Z</time>
</trkpt>
<trkpt lat="44.9188889" lon="5.3992049">
<ele>1050.95</ele>
<time>2019-07-25T11:07:24Z</time>
</trkpt>
<trkpt lat="44.9188895" lon="5.3992054">
<ele>1050.97</ele>
<time>2019-07-25T11:07:25Z</time>
</trkpt>
<trkpt lat="44.9188904" lon="5.3992063">
<ele>1050.98</ele>
<time>2019-07-25T11:07:26Z</time>
</trkpt>
<trkpt lat="44.9188901" lon="5.3992060">
<ele>1051.00</ele>
<time>2019-07-25T11:07:27Z</time>
</trkpt>
<trkpt lat="44.9188948" lon="5.3992051">
<ele>1051.02</ele>
<time>2019-07-25T11:07:28Z</time>
</trkpt>
<trkpt lat="44.9189001" lon="5.3992107">
<ele>1051.18</ele>
<time>2019-07-25T11:07:29Z</time>
</trkpt>
<trkpt lat="44.9189034" lon="5.3992119">
<ele>1051.34</ele>
<time>2019-07-25T11:07:30Z</time>
</trkpt>
<trkpt lat="44.9189036" lon="5.3992138">
<ele>1051.35</ele>
<time>2019-07-25T11:07:31Z</time>
</trkpt>
<trkpt lat="44.9189035" lon="5.3992142">
<ele>1051.37</ele>
<time>2019-07-25T11:07:32Z</time>
</trkpt>
<trkpt lat="44.9189032" lon="5.3992148">
<ele>1051.38</ele>
<time>2019-07-25T11:07:33Z</time>
</trkpt>
<trkpt lat="44.9189028" lon="5.3992159">
<ele>1051.40</ele>
<time>2019-07-25T11:07:34Z</time>
</trkpt>
<trkpt lat="44.9189030" lon="5.3992173">
<ele>1051.41</ele>
<time>2019-07-25T11:07:35Z</time>
</trkpt>
<trkpt lat="44.9189011" lon="5.3992230">
<ele>1051.43</ele>
<time>2019-07-25T11:07:36Z</time>
</trkpt>
<trkpt lat="44.9188921" lon="5.3992441">
<ele>1051.57</ele>
<time>2019-07-25T11:07:37Z</time>
</trkpt>
<trkpt lat="44.9188904" lon="5.3992586">
<ele>1051.70</ele>
<time>2019-07-25T11:07:38Z</time>
</trkpt>
<trkpt lat="44.9188883" lon="5.3992647">
<ele>1051.82</ele>
<time>2019-07-25T11:07:39Z</time>
</trkpt>
<trkpt lat="44.9188849" lon="5.3992701">
<ele>1051.94</ele>
<time>2019-07-25T11:07:40Z</time>
</trkpt>
<trkpt lat="44.9188849" lon="5.3992733">
<ele>1051.95</ele>
<time>2019-07-25T11:07:41Z</time>
</trkpt>
<trkpt lat="44.9188846" lon="5.3992735">
<ele>1051.96</ele>
<time>2019-07-25T11:07:42Z</time>
</trkpt>
<trkpt lat="44.9188838" lon="5.3992726">
<ele>1051.97</ele>
<time>2019-07-25T11:07:43Z</time>
</trkpt>
<trkpt lat="44.9188836" lon="5.3992720">
<ele>1051.98</ele>
<time>2019-07-25T11:07:44Z</time>
</trkpt>
<trkpt lat="44.9188833" lon="5.3992704">
<ele>1051.99</ele>
<time>2019-07-25T11:07:45Z</time>
</trkpt>
<trkpt lat="44.9188833" lon="5.3992677">
<ele>1052.00</ele>
<time>2019-07-25T11:07:46Z</time>
</trkpt>
<trkpt lat="44.9188826" lon="5.3992662">
<ele>1052.02</ele>
<time>2019-07-25T11:07:47Z</time>
</trkpt>
<trkpt lat="44.9188821" lon="5.3992642">
<ele>1052.03</ele>
<time>2019-07-25T11:07:48Z</time>
</trkpt>
<trkpt lat="44.9188815" lon="5.3992629">
<ele>1052.04</ele>
<time>2019-07-25T11:07:49Z</time>
</trkpt>
<trkpt lat="44.9188811" lon="5.3992608">
<ele>1052.05</ele>
<time>2019-07-25T11:07:50Z</time>
</trkpt>
<trkpt lat="44.9188813" lon="5.3992575">
<ele>1052.06</ele>
<time>2019-07-25T11:07:51Z</time>
</trkpt>
<trkpt lat="44.9188808" lon="5.3992560">
<ele>1052.07</ele>
<time>2019-07-25T11:07:52Z</time>
</trkpt>
<trkpt lat="44.9188806" lon="5.3992541">
<ele>1052.08</ele>
<time>2019-07-25T11:07:53Z</time>
</trkpt>
<trkpt lat="44.9188805" lon="5.3992532">
<ele>1052.09</ele>
<time>2019-07-25T11:07:54Z</time>
</trkpt>
<trkpt lat="44.9188794" lon="5.3992535">
<ele>1052.10</ele>
<time>2019-07-25T11:07:55Z</time>
</trkpt>
<trkpt lat="44.9188794" lon="5.3992529">
<ele>1052.11</ele>
<time>2019-07-25T11:07:56Z</time>
</trkpt>
<trkpt lat="44.9188789" lon="5.3992524">
<ele>1052.12</ele>
<time>2019-07-25T11:07:57Z</time>
</trkpt>
<trkpt lat="44.9188785" lon="5.3992518">
<ele>1052.13</ele>
<time>2019-07-25T11:07:58Z</time>
</trkpt>
<trkpt lat="44.9188771" lon="5.3992501">
<ele>1052.14</ele>
<time>2019-07-25T11:07:59Z</time>
</trkpt>
<trkpt lat="44.9188762" lon="5.3992489">
<ele>1052.15</ele>
<time>2019-07-25T11:08:00Z</time>
</trkpt>
<trkpt lat="44.9188751" lon="5.3992485">
<ele>1052.16</ele>
<time>2019-07-25T11:08:01Z</time>
</trkpt>
<trkpt lat="44.9188737" lon="5.3992481">
<ele>1052.17</ele>
<time>2019-07-25T11:08:02Z</time>
</trkpt>
<trkpt lat="44.9188734" lon="5.3992472">
<ele>1052.17</ele>
<time>2019-07-25T11:08:03Z</time>
</trkpt>
<trkpt lat="44.9188743" lon="5.3992458">
<ele>1052.18</ele>
<time>2019-07-25T11:08:04Z</time>
</trkpt>
<trkpt lat="44.9188741" lon="5.3992470">
<ele>1052.19</ele>
<time>2019-07-25T11:08:05Z</time>
</trkpt>
<trkpt lat="44.9188734" lon="5.3992478">
<ele>1052.20</ele>
<time>2019-07-25T11:08:06Z</time>
</trkpt>
<trkpt lat="44.9188728" lon="5.3992497">
<ele>1052.21</ele>
<time>2019-07-25T11:08:07Z</time>
</trkpt>
<trkpt lat="44.9188693" lon="5.3992510">
<ele>1052.22</ele>
<time>2019-07-25T11:08:08Z</time>
</trkpt>
<trkpt lat="44.9188686" lon="5.3992476">
<ele>1052.23</ele>
<time>2019-07-25T11:08:09Z</time>
</trkpt>
<trkpt lat="44.9188705" lon="5.3992431">
<ele>1052.24</ele>
<time>2019-07-25T11:08:10Z</time>
</trkpt>
<trkpt lat="44.9188707" lon="5.3992461">
<ele>1052.25</ele>
<time>2019-07-25T11:08:11Z</time>
</trkpt>
<trkpt lat="44.9188747" lon="5.3992528">
<ele>1052.26</ele>
<time>2019-07-25T11:08:12Z</time>
</trkpt>
<trkpt lat="44.9188757" lon="5.3992543">
<ele>1052.26</ele>
<time>2019-07-25T11:08:13Z</time>
</trkpt>
<trkpt lat="44.9188756" lon="5.3992539">
<ele>1052.27</ele>
<time>2019-07-25T11:08:14Z</time>
</trkpt>
<trkpt lat="44.9188751" lon="5.3992525">
<ele>1052.28</ele>
<time>2019-07-25T11:08:15Z</time>
</trkpt>
<trkpt lat="44.9188741" lon="5.3992508">
<ele>1052.29</ele>
<time>2019-07-25T11:08:16Z</time>
</trkpt>
<trkpt lat="44.9188730" lon="5.3992511">
<ele>1052.30</ele>
<time>2019-07-25T11:08:17Z</time>
</trkpt>
<trkpt lat="44.9188731" lon="5.3992524">
<ele>1052.31</ele>
<time>2019-07-25T11:08:18Z</time>
</trkpt>
<trkpt lat="44.9188740" lon="5.3992514">
<ele>1052.32</ele>
<time>2019-07-25T11:08:19Z</time>
</trkpt>
<trkpt lat="44.9188755" lon="5.3992503">
<ele>1052.33</ele>
<time>2019-07-25T11:08:20Z</time>
</trkpt>
<trkpt lat="44.9188757" lon="5.3992494">
<ele>1052.34</ele>
<time>2019-07-25T11:08:21Z</time>
</trkpt>
<trkpt lat="44.9188770" lon="5.3992463">
<ele>1052.35</ele>
<time>2019-07-25T11:08:22Z</time>
</trkpt>
<trkpt lat="44.9188776" lon="5.3992430">
<ele>1052.36</ele>
<time>2019-07-25T11:08:23Z</time>
</trkpt>
<trkpt lat="44.9188778" lon="5.3992420">
<ele>1052.37</ele>
<time>2019-07-25T11:08:24Z</time>
</trkpt>
<trkpt lat="44.9188768" lon="5.3992405">
<ele>1052.38</ele>
<time>2019-07-25T11:08:25Z</time>
</trkpt>
<trkpt lat="44.9188743" lon="5.3992380">
<ele>1052.48</ele>
<time>2019-07-25T11:08:26Z</time>
</trkpt>
<trkpt lat="44.9188771" lon="5.3992410">
<ele>1052.48</ele>
<time>2019-07-25T11:08:27Z</time>
</trkpt>
<trkpt lat="44.9188773" lon="5.3992470">
<ele>1052.57</ele>
<time>2019-07-25T11:08:28Z</time>
</trkpt>
<trkpt lat="44.9188800" lon="5.3992514">
<ele>1052.58</ele>
<time>2019-07-25T11:08:29Z</time>
</trkpt>
<trkpt lat="44.9188798" lon="5.3992527">
<ele>1052.65</ele>
<time>2019-07-25T11:08:30Z</time>
</trkpt>
<trkpt lat="44.9188831" lon="5.3992562">
<ele>1052.72</ele>
<time>2019-07-25T11:08:31Z</time>
</trkpt>
<trkpt lat="44.9188777" lon="5.3992702">
<ele>1052.77</ele>
<time>2019-07-25T11:08:32Z</time>
</trkpt>
<trkpt lat="44.9188811" lon="5.3992660">
<ele>1052.83</ele>
<time>2019-07-25T11:08:33Z</time>
</trkpt>
<trkpt lat="44.9188829" lon="5.3992635">
<ele>1052.88</ele>
<time>2019-07-25T11:08:34Z</time>
</trkpt>
<trkpt lat="44.9188849" lon="5.3992601">
<ele>1052.89</ele>
<time>2019-07-25T11:08:35Z</time>
</trkpt>
<trkpt lat="44.9188847" lon="5.3992602">
<ele>1052.94</ele>
<time>2019-07-25T11:08:36Z</time>
</trkpt>
<trkpt lat="44.9188861" lon="5.3992631">
<ele>1052.99</ele>
<time>2019-07-25T11:08:37Z</time>
</trkpt>
<trkpt lat="44.9188946" lon="5.3992551">
<ele>1053.04</ele>
<time>2019-07-25T11:08:38Z</time>
</trkpt>
<trkpt lat="44.9188944" lon="5.3992563">
<ele>1053.04</ele>
<time>2019-07-25T11:08:39Z</time>
</trkpt>
<trkpt lat="44.9188949" lon="5.3992553">
<ele>1053.05</ele>
<time>2019-07-25T11:08:40Z</time>
</trkpt>
<trkpt lat="44.9188951" lon="5.3992547">
<ele>1053.05</ele>
<time>2019-07-25T11:08:41Z</time>
</trkpt>
<trkpt lat="44.9188955" lon="5.3992537">
<ele>1053.06</ele>
<time>2019-07-25T11:08:42Z</time>
</trkpt>
<trkpt lat="44.9188959" lon="5.3992527">
<ele>1053.07</ele>
<time>2019-07-25T11:08:43Z</time>
</trkpt>
<trkpt lat="44.9188961" lon="5.3992522">
<ele>1053.07</ele>
<time>2019-07-25T11:08:44Z</time>
</trkpt>
<trkpt lat="44.9188964" lon="5.3992516">
<ele>1053.08</ele>
<time>2019-07-25T11:08:45Z</time>
</trkpt>
<trkpt lat="44.9188967" lon="5.3992512">
<ele>1053.09</ele>
<time>2019-07-25T11:08:46Z</time>
</trkpt>
<trkpt lat="44.9188968" lon="5.3992508">
<ele>1053.09</ele>
<time>2019-07-25T11:08:47Z</time>
</trkpt>
<trkpt lat="44.9188970" lon="5.3992506">
<ele>1053.10</ele>
<time>2019-07-25T11:08:48Z</time>
</trkpt>
<trkpt lat="44.9188971" lon="5.3992502">
<ele>1053.11</ele>
<time>2019-07-25T11:08:49Z</time>
</trkpt>
<trkpt lat="44.9188972" lon="5.3992499">
<ele>1053.11</ele>
<time>2019-07-25T11:08:50Z</time>
</trkpt>
<trkpt lat="44.9188973" lon="5.3992496">
<ele>1053.12</ele>
<time>2019-07-25T11:08:51Z</time>
</trkpt>
<trkpt lat="44.9188973" lon="5.3992494">
<ele>1053.13</ele>
<time>2019-07-25T11:08:52Z</time>
</trkpt>
<trkpt lat="44.9188974" lon="5.3992492">
<ele>1053.13</ele>
<time>2019-07-25T11:08:53Z</time>
</trkpt>
<trkpt lat="44.9188976" lon="5.3992489">
<ele>1053.14</ele>
<time>2019-07-25T11:08:54Z</time>
</trkpt>
<trkpt lat="44.9188975" lon="5.3992489">
<ele>1053.15</ele>
<time>2019-07-25T11:08:55Z</time>
</trkpt>
<trkpt lat="44.9188974" lon="5.3992488">
<ele>1053.15</ele>
<time>2019-07-25T11:08:56Z</time>
</trkpt>
<trkpt lat="44.9188973" lon="5.3992488">
<ele>1053.16</ele>
<time>2019-07-25T11:08:57Z</time>
</trkpt>
<trkpt lat="44.9188972" lon="5.3992490">
<ele>1053.16</ele>
<time>2019-07-25T11:08:58Z</time>
</trkpt>
<trkpt lat="44.9188972" lon="5.3992487">
<ele>1053.17</ele>
<time>2019-07-25T11:08:59Z</time>
</trkpt>
<trkpt lat="44.9188972" lon="5.3992485">
<ele>1053.18</ele>
<time>2019-07-25T11:09:00Z</time>
</trkpt>
<trkpt lat="44.9188971" lon="5.3992480">
<ele>1053.19</ele>
<time>2019-07-25T11:09:01Z</time>
</trkpt>
<trkpt lat="44.9188972" lon="5.3992476">
<ele>1053.19</ele>
<time>2019-07-25T11:09:02Z</time>
</trkpt>
<trkpt lat="44.9188974" lon="5.3992465">
<ele>1053.20</ele>
<time>2019-07-25T11:09:03Z</time>
</trkpt>
<trkpt lat="44.9188975" lon="5.3992453">
<ele>1053.21</ele>
<time>2019-07-25T11:09:04Z</time>
</trkpt>
<trkpt lat="44.9188975" lon="5.3992449">
<ele>1053.22</ele>
<time>2019-07-25T11:09:05Z</time>
</trkpt>
<trkpt lat="44.9188974" lon="5.3992447">
<ele>1053.23</ele>
<time>2019-07-25T11:09:06Z</time>
</trkpt>
<trkpt lat="44.9188976" lon="5.3992444">
<ele>1053.24</ele>
<time>2019-07-25T11:09:07Z</time>
</trkpt>
<trkpt lat="44.9188977" lon="5.3992444">
<ele>1053.24</ele>
<time>2019-07-25T11:09:08Z</time>
</trkpt>
<trkpt lat="44.9188977" lon="5.3992444">
<ele>1053.25</ele>
<time>2019-07-25T11:09:09Z</time>
</trkpt>
<trkpt lat="44.9188979" lon="5.3992445">
<ele>1053.26</ele>
<time>2019-07-25T11:09:10Z</time>
</trkpt>
<trkpt lat="44.9188979" lon="5.3992446">
<ele>1053.27</ele>
<time>2019-07-25T11:09:11Z</time>
</trkpt>
<trkpt lat="44.9188980" lon="5.3992445">
<ele>1053.28</ele>
<time>2019-07-25T11:09:12Z</time>
</trkpt>
<trkpt lat="44.9188980" lon="5.3992449">
<ele>1053.29</ele>
<time>2019-07-25T11:09:13Z</time>
</trkpt>
<trkpt lat="44.9188979" lon="5.3992450">
<ele>1053.30</ele>
<time>2019-07-25T11:09:14Z</time>
</trkpt>
<trkpt lat="44.9188979" lon="5.3992451">
<ele>1053.31</ele>
<time>2019-07-25T11:09:15Z</time>
</trkpt>
<trkpt lat="44.9188979" lon="5.3992453">
<ele>1053.33</ele>
<time>2019-07-25T11:09:16Z</time>
</trkpt>
<trkpt lat="44.9188981" lon="5.3992453">
<ele>1053.34</ele>
<time>2019-07-25T11:09:17Z</time>
</trkpt>
<trkpt lat="44.9188981" lon="5.3992452">
<ele>1053.35</ele>
<time>2019-07-25T11:09:18Z</time>
</trkpt>
<trkpt lat="44.9188984" lon="5.3992448">
<ele>1053.36</ele>
<time>2019-07-25T11:09:19Z</time>
</trkpt>
<trkpt lat="44.9188987" lon="5.3992446">
<ele>1053.37</ele>
<time>2019-07-25T11:09:20Z</time>
</trkpt>
<trkpt lat="44.9188989" lon="5.3992444">
<ele>1053.39</ele>
<time>2019-07-25T11:09:21Z</time>
</trkpt>
<trkpt lat="44.9188990" lon="5.3992442">
<ele>1053.40</ele>
<time>2019-07-25T11:09:22Z</time>
</trkpt>
<trkpt lat="44.9188992" lon="5.3992441">
<ele>1053.41</ele>
<time>2019-07-25T11:09:23Z</time>
</trkpt>
<trkpt lat="44.9188993" lon="5.3992436">
<ele>1053.43</ele>
<time>2019-07-25T11:09:24Z</time>
</trkpt>
<trkpt lat="44.9188995" lon="5.3992430">
<ele>1053.44</ele>
<time>2019-07-25T11:09:25Z</time>
</trkpt>
<trkpt lat="44.9188996" lon="5.3992429">
<ele>1053.46</ele>
<time>2019-07-25T11:09:26Z</time>
</trkpt>
<trkpt lat="44.9188997" lon="5.3992425">
<ele>1053.47</ele>
<time>2019-07-25T11:09:27Z</time>
</trkpt>
<trkpt lat="44.9188998" lon="5.3992421">
<ele>1053.48</ele>
<time>2019-07-25T11:09:28Z</time>
</trkpt>
<trkpt lat="44.9188999" lon="5.3992417">
<ele>1053.50</ele>
<time>2019-07-25T11:09:29Z</time>
</trkpt>
<trkpt lat="44.9188999" lon="5.3992415">
<ele>1053.51</ele>
<time>2019-07-25T11:09:30Z</time>
</trkpt>
<trkpt lat="44.9188999" lon="5.3992413">
<ele>1053.53</ele>
<time>2019-07-25T11:09:31Z</time>
</trkpt>
<trkpt lat="44.9188999" lon="5.3992411">
<ele>1053.54</ele>
<time>2019-07-25T11:09:32Z</time>
</trkpt>
<trkpt lat="44.9188998" lon="5.3992409">
<ele>1053.55</ele>
<time>2019-07-25T11:09:33Z</time>
</trkpt>
<trkpt lat="44.9188999" lon="5.3992410">
<ele>1053.57</ele>
<time>2019-07-25T11:09:34Z</time>
</trkpt>
<trkpt lat="44.9189000" lon="5.3992410">
<ele>1053.58</ele>
<time>2019-07-25T11:09:35Z</time>
</trkpt>
<trkpt lat="44.9188998" lon="5.3992408">
<ele>1053.59</ele>
<time>2019-07-25T11:09:36Z</time>
</trkpt>
<trkpt lat="44.9188995" lon="5.3992406">
<ele>1053.60</ele>
<time>2019-07-25T11:09:37Z</time>
</trkpt>
<trkpt lat="44.9188992" lon="5.3992402">
<ele>1053.61</ele>
<time>2019-07-25T11:09:38Z</time>
</trkpt>
<trkpt lat="44.9188988" lon="5.3992402">
<ele>1053.63</ele>
<time>2019-07-25T11:09:39Z</time>
</trkpt>
<trkpt lat="44.9188985" lon="5.3992403">
<ele>1053.64</ele>
<time>2019-07-25T11:09:40Z</time>
</trkpt>
<trkpt lat="44.9188982" lon="5.3992397">
<ele>1053.65</ele>
<time>2019-07-25T11:09:41Z</time>
</trkpt>
<trkpt lat="44.9188980" lon="5.3992397">
<ele>1053.66</ele>
<time>2019-07-25T11:09:42Z</time>
</trkpt>
<trkpt lat="44.9188981" lon="5.3992396">
<ele>1053.67</ele>
<time>2019-07-25T11:09:43Z</time>
</trkpt>
<trkpt lat="44.9188981" lon="5.3992394">
<ele>1053.68</ele>
<time>2019-07-25T11:09:44Z</time>
</trkpt>
<trkpt lat="44.9188980" lon="5.3992389">
<ele>1053.70</ele>
<time>2019-07-25T11:09:45Z</time>
</trkpt>
<trkpt lat="44.9188979" lon="5.3992386">
<ele>1053.71</ele>
<time>2019-07-25T11:09:46Z</time>
</trkpt>
<trkpt lat="44.9188979" lon="5.3992381">
<ele>1053.72</ele>
<time>2019-07-25T11:09:47Z</time>
</trkpt>
<trkpt lat="44.9188979" lon="5.3992377">
<ele>1053.73</ele>
<time>2019-07-25T11:09:48Z</time>
</trkpt>
<trkpt lat="44.9188980" lon="5.3992372">
<ele>1053.74</ele>
<time>2019-07-25T11:09:49Z</time>
</trkpt>
<trkpt lat="44.9188981" lon="5.3992368">
<ele>1053.75</ele>
<time>2019-07-25T11:09:50Z</time>
</trkpt>
<trkpt lat="44.9188984" lon="5.3992364">
<ele>1053.76</ele>
<time>2019-07-25T11:09:51Z</time>
</trkpt>
<trkpt lat="44.9188986" lon="5.3992363">
<ele>1053.78</ele>
<time>2019-07-25T11:09:52Z</time>
</trkpt>
<trkpt lat="44.9188990" lon="5.3992355">
<ele>1053.79</ele>
<time>2019-07-25T11:09:53Z</time>
</trkpt>
<trkpt lat="44.9188992" lon="5.3992349">
<ele>1053.80</ele>
<time>2019-07-25T11:09:54Z</time>
</trkpt>
<trkpt lat="44.9188993" lon="5.3992349">
<ele>1053.81</ele>
<time>2019-07-25T11:09:55Z</time>
</trkpt>
<trkpt lat="44.9188996" lon="5.3992340">
<ele>1053.82</ele>
<time>2019-07-25T11:09:56Z</time>
</trkpt>
<trkpt lat="44.9188999" lon="5.3992328">
<ele>1053.83</ele>
<time>2019-07-25T11:09:57Z</time>
</trkpt>
<trkpt lat="44.9189002" lon="5.3992322">
<ele>1053.84</ele>
<time>2019-07-25T11:09:58Z</time>
</trkpt>
<trkpt lat="44.9189004" lon="5.3992315">
<ele>1053.85</ele>
<time>2019-07-25T11:09:59Z</time>
</trkpt>
<trkpt lat="44.9189005" lon="5.3992310">
<ele>1053.86</ele>
<time>2019-07-25T11:10:00Z</time>
</trkpt>
<trkpt lat="44.9189007" lon="5.3992304">
<ele>1053.87</ele>
<time>2019-07-25T11:10:01Z</time>
</trkpt>
<trkpt lat="44.9189008" lon="5.3992300">
<ele>1053.88</ele>
<time>2019-07-25T11:10:02Z</time>
</trkpt>
<trkpt lat="44.9189008" lon="5.3992295">
<ele>1053.89</ele>
<time>2019-07-25T11:10:03Z</time>
</trkpt>
<trkpt lat="44.9189007" lon="5.3992294">
<ele>1053.90</ele>
<time>2019-07-25T11:10:04Z</time>
</trkpt>
<trkpt lat="44.9189007" lon="5.3992290">
<ele>1053.92</ele>
<time>2019-07-25T11:10:05Z</time>
</trkpt>
<trkpt lat="44.9189005" lon="5.3992287">
<ele>1053.93</ele>
<time>2019-07-25T11:10:06Z</time>
</trkpt>
<trkpt lat="44.9189003" lon="5.3992285">
<ele>1053.94</ele>
<time>2019-07-25T11:10:07Z</time>
</trkpt>
<trkpt lat="44.9189002" lon="5.3992282">
<ele>1053.95</ele>
<time>2019-07-25T11:10:08Z</time>
</trkpt>
<trkpt lat="44.9189001" lon="5.3992278">
<ele>1053.96</ele>
<time>2019-07-25T11:10:09Z</time>
</trkpt>
<trkpt lat="44.9189001" lon="5.3992275">
<ele>1053.97</ele>
<time>2019-07-25T11:10:10Z</time>
</trkpt>
<trkpt lat="44.9189001" lon="5.3992272">
<ele>1053.98</ele>
<time>2019-07-25T11:10:11Z</time>
</trkpt>
<trkpt lat="44.9189000" lon="5.3992268">
<ele>1054.00</ele>
<time>2019-07-25T11:10:12Z</time>
</trkpt>
<trkpt lat="44.9189000" lon="5.3992266">
<ele>1054.01</ele>
<time>2019-07-25T11:10:13Z</time>
</trkpt>
<trkpt lat="44.9189000" lon="5.3992264">
<ele>1054.02</ele>
<time>2019-07-25T11:10:14Z</time>
</trkpt>
<trkpt lat="44.9189000" lon="5.3992259">
<ele>1054.03</ele>
<time>2019-07-25T11:10:15Z</time>
</trkpt>
<trkpt lat="44.9188999" lon="5.3992257">
<ele>1054.04</ele>
<time>2019-07-25T11:10:16Z</time>
</trkpt>
<trkpt lat="44.9189000" lon="5.3992254">
<ele>1054.05</ele>
<time>2019-07-25T11:10:17Z</time>
</trkpt>
<trkpt lat="44.9189000" lon="5.3992247">
<ele>1054.06</ele>
<time>2019-07-25T11:10:18Z</time>
</trkpt>
<trkpt lat="44.9189001" lon="5.3992247">
<ele>1054.07</ele>
<time>2019-07-25T11:10:19Z</time>
</trkpt>
<trkpt lat="44.9189003" lon="5.3992244">
<ele>1054.08</ele>
<time>2019-07-25T11:10:20Z</time>
</trkpt>
<trkpt lat="44.9189004" lon="5.3992241">
<ele>1054.09</ele>
<time>2019-07-25T11:10:21Z</time>
</trkpt>
<trkpt lat="44.9189006" lon="5.3992236">
<ele>1054.10</ele>
<time>2019-07-25T11:10:22Z</time>
</trkpt>
<trkpt lat="44.9189008" lon="5.3992232">
<ele>1054.11</ele>
<time>2019-07-25T11:10:23Z</time>
</trkpt>
<trkpt lat="44.9189009" lon="5.3992226">
<ele>1054.13</ele>
<time>2019-07-25T11:10:24Z</time>
</trkpt>
<trkpt lat="44.9189011" lon="5.3992221">
<ele>1054.14</ele>
<time>2019-07-25T11:10:25Z</time>
</trkpt>
<trkpt lat="44.9189013" lon="5.3992216">
<ele>1054.15</ele>
<time>2019-07-25T11:10:26Z</time>
</trkpt>
<trkpt lat="44.9189013" lon="5.3992211">
<ele>1054.16</ele>
<time>2019-07-25T11:10:27Z</time>
</trkpt>
<trkpt lat="44.9189012" lon="5.3992211">
<ele>1054.17</ele>
<time>2019-07-25T11:10:28Z</time>
</trkpt>
<trkpt lat="44.9189012" lon="5.3992207">
<ele>1054.18</ele>
<time>2019-07-25T11:10:29Z</time>
</trkpt>
<trkpt lat="44.9189012" lon="5.3992199">
<ele>1054.19</ele>
<time>2019-07-25T11:10:30Z</time>
</trkpt>
<trkpt lat="44.9189013" lon="5.3992195">
<ele>1054.20</ele>
<time>2019-07-25T11:10:31Z</time>
</trkpt>
<trkpt lat="44.9189013" lon="5.3992188">
<ele>1054.21</ele>
<time>2019-07-25T11:10:32Z</time>
</trkpt>
<trkpt lat="44.9189013" lon="5.3992185">
<ele>1054.22</ele>
<time>2019-07-25T11:10:33Z</time>
</trkpt>
<trkpt lat="44.9189014" lon="5.3992178">
<ele>1054.23</ele>
<time>2019-07-25T11:10:34Z</time>
</trkpt>
<trkpt lat="44.9189015" lon="5.3992186">
<ele>1054.24</ele>
<time>2019-07-25T11:10:35Z</time>
</trkpt>
<trkpt lat="44.9189016" lon="5.3992187">
<ele>1054.25</ele>
<time>2019-07-25T11:10:36Z</time>
</trkpt>
<trkpt lat="44.9189017" lon="5.3992170">
<ele>1054.26</ele>
<time>2019-07-25T11:10:37Z</time>
</trkpt>
<trkpt lat="44.9188999" lon="5.3992199">
<ele>1054.36</ele>
<time>2019-07-25T11:10:38Z</time>
</trkpt>
<trkpt lat="44.9189006" lon="5.3992220">
<ele>1054.45</ele>
<time>2019-07-25T11:10:39Z</time>
</trkpt>
<trkpt lat="44.9188989" lon="5.3992254">
<ele>1054.55</ele>
<time>2019-07-25T11:10:40Z</time>
</trkpt>
<trkpt lat="44.9188981" lon="5.3992309">
<ele>1054.64</ele>
<time>2019-07-25T11:10:41Z</time>
</trkpt>
<trkpt lat="44.9188972" lon="5.3992321">
<ele>1054.65</ele>
<time>2019-07-25T11:10:42Z</time>
</trkpt>
<trkpt lat="44.9188976" lon="5.3992319">
<ele>1054.65</ele>
<time>2019-07-25T11:10:43Z</time>
</trkpt>
<trkpt lat="44.9189002" lon="5.3992304">
<ele>1054.66</ele>
<time>2019-07-25T11:10:44Z</time>
</trkpt>
<trkpt lat="44.9189024" lon="5.3992318">
<ele>1054.74</ele>
<time>2019-07-25T11:10:45Z</time>
</trkpt>
<trkpt lat="44.9189106" lon="5.3992296">
<ele>1054.82</ele>
<time>2019-07-25T11:10:46Z</time>
</trkpt>
<trkpt lat="44.9189152" lon="5.3992263">
<ele>1054.89</ele>
<time>2019-07-25T11:10:47Z</time>
</trkpt>
<trkpt lat="44.9189147" lon="5.3992274">
<ele>1054.90</ele>
<time>2019-07-25T11:10:48Z</time>
</trkpt>
<trkpt lat="44.9189139" lon="5.3992296">
<ele>1054.97</ele>
<time>2019-07-25T11:10:49Z</time>
</trkpt>
<trkpt lat="44.9189162" lon="5.3992327">
<ele>1054.98</ele>
<time>2019-07-25T11:10:50Z</time>
</trkpt>
<trkpt lat="44.9189154" lon="5.3992352">
<ele>1055.04</ele>
<time>2019-07-25T11:10:51Z</time>
</trkpt>
<trkpt lat="44.9189122" lon="5.3992421">
<ele>1055.05</ele>
<time>2019-07-25T11:10:52Z</time>
</trkpt>
<trkpt lat="44.9189182" lon="5.3992339">
<ele>1055.05</ele>
<time>2019-07-25T11:10:53Z</time>
</trkpt>
<trkpt lat="44.9189147" lon="5.3992496">
<ele>1055.11</ele>
<time>2019-07-25T11:10:54Z</time>
</trkpt>
<trkpt lat="44.9189144" lon="5.3992504">
<ele>1055.12</ele>
<time>2019-07-25T11:10:55Z</time>
</trkpt>
<trkpt lat="44.9189145" lon="5.3992505">
<ele>1055.12</ele>
<time>2019-07-25T11:10:56Z</time>
</trkpt>
<trkpt lat="44.9189142" lon="5.3992505">
<ele>1055.13</ele>
<time>2019-07-25T11:10:57Z</time>
</trkpt>
<trkpt lat="44.9189141" lon="5.3992505">
<ele>1055.14</ele>
<time>2019-07-25T11:10:58Z</time>
</trkpt>
<trkpt lat="44.9189138" lon="5.3992509">
<ele>1055.14</ele>
<time>2019-07-25T11:10:59Z</time>
</trkpt>
<trkpt lat="44.9189134" lon="5.3992513">
<ele>1055.15</ele>
<time>2019-07-25T11:11:00Z</time>
</trkpt>
<trkpt lat="44.9189134" lon="5.3992513">
<ele>1055.16</ele>
<time>2019-07-25T11:11:01Z</time>
</trkpt>
<trkpt lat="44.9189128" lon="5.3992518">
<ele>1055.16</ele>
<time>2019-07-25T11:11:02Z</time>
</trkpt>
<trkpt lat="44.9189127" lon="5.3992519">
<ele>1055.17</ele>
<time>2019-07-25T11:11:03Z</time>
</trkpt>
<trkpt lat="44.9189127" lon="5.3992514">
<ele>1055.17</ele>
<time>2019-07-25T11:11:04Z</time>
</trkpt>
<trkpt lat="44.9189130" lon="5.3992505">
<ele>1055.18</ele>
<time>2019-07-25T11:11:05Z</time>
</trkpt>
<trkpt lat="44.9189134" lon="5.3992491">
<ele>1055.19</ele>
<time>2019-07-25T11:11:06Z</time>
</trkpt>
<trkpt lat="44.9189134" lon="5.3992486">
<ele>1055.19</ele>
<time>2019-07-25T11:11:07Z</time>
</trkpt>
<trkpt lat="44.9189139" lon="5.3992475">
<ele>1055.20</ele>
<time>2019-07-25T11:11:08Z</time>
</trkpt>
<trkpt lat="44.9189142" lon="5.3992467">
<ele>1055.20</ele>
<time>2019-07-25T11:11:09Z</time>
</trkpt>
<trkpt lat="44.9189144" lon="5.3992458">
<ele>1055.21</ele>
<time>2019-07-25T11:11:10Z</time>
</trkpt>
<trkpt lat="44.9189144" lon="5.3992452">
<ele>1055.21</ele>
<time>2019-07-25T11:11:11Z</time>
</trkpt>
<trkpt lat="44.9189130" lon="5.3992472">
<ele>1055.21</ele>
<time>2019-07-25T11:11:12Z</time>
</trkpt>
<trkpt lat="44.9189124" lon="5.3992470">
<ele>1055.22</ele>
<time>2019-07-25T11:11:13Z</time>
</trkpt>
<trkpt lat="44.9189112" lon="5.3992480">
<ele>1055.22</ele>
<time>2019-07-25T11:11:14Z</time>
</trkpt>
<trkpt lat="44.9189102" lon="5.3992482">
<ele>1055.23</ele>
<time>2019-07-25T11:11:15Z</time>
</trkpt>
<trkpt lat="44.9189112" lon="5.3992476">
<ele>1055.23</ele>
<time>2019-07-25T11:11:16Z</time>
</trkpt>
<trkpt lat="44.9189116" lon="5.3992470">
<ele>1055.23</ele>
<time>2019-07-25T11:11:17Z</time>
</trkpt>
<trkpt lat="44.9189163" lon="5.3992459">
<ele>1055.24</ele>
<time>2019-07-25T11:11:18Z</time>
</trkpt>
<trkpt lat="44.9189172" lon="5.3992456">
<ele>1055.24</ele>
<time>2019-07-25T11:11:19Z</time>
</trkpt>
<trkpt lat="44.9189180" lon="5.3992456">
<ele>1055.24</ele>
<time>2019-07-25T11:11:20Z</time>
</trkpt>
<trkpt lat="44.9189192" lon="5.3992452">
<ele>1055.25</ele>
<time>2019-07-25T11:11:21Z</time>
</trkpt>
<trkpt lat="44.9189190" lon="5.3992455">
<ele>1055.25</ele>
<time>2019-07-25T11:11:22Z</time>
</trkpt>
<trkpt lat="44.9189188" lon="5.3992479">
<ele>1055.26</ele>
<time>2019-07-25T11:11:23Z</time>
</trkpt>
<trkpt lat="44.9189189" lon="5.3992486">
<ele>1055.26</ele>
<time>2019-07-25T11:11:24Z</time>
</trkpt>
<trkpt lat="44.9189186" lon="5.3992487">
<ele>1055.26</ele>
<time>2019-07-25T11:11:25Z</time>
</trkpt>
<trkpt lat="44.9189179" lon="5.3992496">
<ele>1055.27</ele>
<time>2019-07-25T11:11:26Z</time>
</trkpt>
<trkpt lat="44.9189176" lon="5.3992495">
<ele>1055.27</ele>
<time>2019-07-25T11:11:27Z</time>
</trkpt>
<trkpt lat="44.9189173" lon="5.3992491">
<ele>1055.27</ele>
<time>2019-07-25T11:11:28Z</time>
</trkpt>
<trkpt lat="44.9189182" lon="5.3992492">
<ele>1055.28</ele>
<time>2019-07-25T11:11:29Z</time>
</trkpt>
<trkpt lat="44.9189256" lon="5.3992529">
<ele>1055.28</ele>
<time>2019-07-25T11:11:30Z</time>
</trkpt>
<trkpt lat="44.9189190" lon="5.3992633">
<ele>1055.28</ele>
<time>2019-07-25T11:11:31Z</time>
</trkpt>
<trkpt lat="44.9189196" lon="5.3992589">
<ele>1055.32</ele>
<time>2019-07-25T11:11:32Z</time>
</trkpt>
<trkpt lat="44.9189200" lon="5.3992550">
<ele>1055.32</ele>
<time>2019-07-25T11:11:33Z</time>
</trkpt>
<trkpt lat="44.9189203" lon="5.3992564">
<ele>1055.32</ele>
<time>2019-07-25T11:11:34Z</time>
</trkpt>
<trkpt lat="44.9189205" lon="5.3992568">
<ele>1055.32</ele>
<time>2019-07-25T11:11:35Z</time>
</trkpt>
<trkpt lat="44.9189213" lon="5.3992574">
<ele>1055.33</ele>
<time>2019-07-25T11:11:36Z</time>
</trkpt>
<trkpt lat="44.9189214" lon="5.3992581">
<ele>1055.33</ele>
<time>2019-07-25T11:11:37Z</time>
</trkpt>
<trkpt lat="44.9189215" lon="5.3992581">
<ele>1055.33</ele>
<time>2019-07-25T11:11:38Z</time>
</trkpt>
<trkpt lat="44.9189198" lon="5.3992593">
<ele>1055.34</ele>
<time>2019-07-25T11:11:39Z</time>
</trkpt>
<trkpt lat="44.9189194" lon="5.3992585">
<ele>1055.34</ele>
<time>2019-07-25T11:11:40Z</time>
</trkpt>
<trkpt lat="44.9189191" lon="5.3992579">
<ele>1055.34</ele>
<time>2019-07-25T11:11:41Z</time>
</trkpt>
<trkpt lat="44.9189185" lon="5.3992570">
<ele>1055.35</ele>
<time>2019-07-25T11:11:42Z</time>
</trkpt>
<trkpt lat="44.9189180" lon="5.3992576">
<ele>1055.35</ele>
<time>2019-07-25T11:11:43Z</time>
</trkpt>
<trkpt lat="44.9189098" lon="5.3992736">
<ele>1055.35</ele>
<time>2019-07-25T11:11:44Z</time>
</trkpt>
<trkpt lat="44.9188949" lon="5.3992898">
<ele>1055.36</ele>
<time>2019-07-25T11:11:45Z</time>
</trkpt>
<trkpt lat="44.9188963" lon="5.3992850">
<ele>1055.39</ele>
<time>2019-07-25T11:11:46Z</time>
</trkpt>
<trkpt lat="44.9188922" lon="5.3992855">
<ele>1055.42</ele>
<time>2019-07-25T11:11:47Z</time>
</trkpt>
<trkpt lat="44.9189091" lon="5.3992252">
<ele>1055.45</ele>
<time>2019-07-25T11:11:48Z</time>
</trkpt>
<trkpt lat="44.9189196" lon="5.3991790">
<ele>1055.48</ele>
<time>2019-07-25T11:11:49Z</time>
</trkpt>
<trkpt lat="44.9189192" lon="5.3991801">
<ele>1055.48</ele>
<time>2019-07-25T11:11:50Z</time>
</trkpt>
<trkpt lat="44.9189194" lon="5.3991794">
<ele>1055.48</ele>
<time>2019-07-25T11:11:51Z</time>
</trkpt>
<trkpt lat="44.9189193" lon="5.3991791">
<ele>1055.49</ele>
<time>2019-07-25T11:11:52Z</time>
</trkpt>
<trkpt lat="44.9189192" lon="5.3991793">
<ele>1055.49</ele>
<time>2019-07-25T11:11:53Z</time>
</trkpt>
<trkpt lat="44.9189159" lon="5.3991833">
<ele>1055.49</ele>
<time>2019-07-25T11:11:54Z</time>
</trkpt>
<trkpt lat="44.9189181" lon="5.3991863">
<ele>1055.49</ele>
<time>2019-07-25T11:11:55Z</time>
</trkpt>
<trkpt lat="44.9189186" lon="5.3991880">
<ele>1055.50</ele>
<time>2019-07-25T11:11:56Z</time>
</trkpt>
<trkpt lat="44.9189190" lon="5.3991880">
<ele>1055.50</ele>
<time>2019-07-25T11:11:57Z</time>
</trkpt>
<trkpt lat="44.9189194" lon="5.3991890">
<ele>1055.50</ele>
<time>2019-07-25T11:11:58Z</time>
</trkpt>
<trkpt lat="44.9189202" lon="5.3991892">
<ele>1055.51</ele>
<time>2019-07-25T11:11:59Z</time>
</trkpt>
<trkpt lat="44.9189197" lon="5.3991896">
<ele>1055.51</ele>
<time>2019-07-25T11:12:00Z</time>
</trkpt>
<trkpt lat="44.9189195" lon="5.3991900">
<ele>1055.51</ele>
<time>2019-07-25T11:12:01Z</time>
</trkpt>
<trkpt lat="44.9189194" lon="5.3991901">
<ele>1055.51</ele>
<time>2019-07-25T11:12:02Z</time>
</trkpt>
<trkpt lat="44.9189197" lon="5.3991899">
<ele>1055.51</ele>
<time>2019-07-25T11:12:03Z</time>
</trkpt>
<trkpt lat="44.9189199" lon="5.3991897">
<ele>1055.51</ele>
<time>2019-07-25T11:12:04Z</time>
</trkpt>
<trkpt lat="44.9189201" lon="5.3991896">
<ele>1055.52</ele>
<time>2019-07-25T11:12:05Z</time>
</trkpt>
<trkpt lat="44.9189202" lon="5.3991895">
<ele>1055.52</ele>
<time>2019-07-25T11:12:06Z</time>
</trkpt>
<trkpt lat="44.9189204" lon="5.3991893">
<ele>1055.52</ele>
<time>2019-07-25T11:12:07Z</time>
</trkpt>
<trkpt lat="44.9189203" lon="5.3991888">
<ele>1055.52</ele>
<time>2019-07-25T11:12:08Z</time>
</trkpt>
<trkpt lat="44.9189203" lon="5.3991886">
<ele>1055.52</ele>
<time>2019-07-25T11:12:09Z</time>
</trkpt>
<trkpt lat="44.9189204" lon="5.3991879">
<ele>1055.52</ele>
<time>2019-07-25T11:12:10Z</time>
</trkpt>
<trkpt lat="44.9189202" lon="5.3991871">
<ele>1055.52</ele>
<time>2019-07-25T11:12:11Z</time>
</trkpt>
<trkpt lat="44.9189199" lon="5.3991886">
<ele>1055.52</ele>
<time>2019-07-25T11:12:12Z</time>
</trkpt>
<trkpt lat="44.9189206" lon="5.3991888">
<ele>1055.53</ele>
<time>2019-07-25T11:12:13Z</time>
</trkpt>
<trkpt lat="44.9189212" lon="5.3991895">
<ele>1055.53</ele>
<time>2019-07-25T11:12:14Z</time>
</trkpt>
<trkpt lat="44.9189216" lon="5.3991896">
<ele>1055.53</ele>
<time>2019-07-25T11:12:15Z</time>
</trkpt>
<trkpt lat="44.9189225" lon="5.3991889">
<ele>1055.53</ele>
<time>2019-07-25T11:12:16Z</time>
</trkpt>
<trkpt lat="44.9189226" lon="5.3991897">
<ele>1055.53</ele>
<time>2019-07-25T11:12:17Z</time>
</trkpt>
<trkpt lat="44.9189227" lon="5.3991901">
<ele>1055.54</ele>
<time>2019-07-25T11:12:18Z</time>
</trkpt>
<trkpt lat="44.9189217" lon="5.3991921">
<ele>1055.54</ele>
<time>2019-07-25T11:12:19Z</time>
</trkpt>
<trkpt lat="44.9189210" lon="5.3991932">
<ele>1055.54</ele>
<time>2019-07-25T11:12:20Z</time>
</trkpt>
<trkpt lat="44.9189204" lon="5.3991942">
<ele>1055.54</ele>
<time>2019-07-25T11:12:21Z</time>
</trkpt>
<trkpt lat="44.9189186" lon="5.3991942">
<ele>1055.54</ele>
<time>2019-07-25T11:12:22Z</time>
</trkpt>
<trkpt lat="44.9189186" lon="5.3991942">
<ele>1055.54</ele>
<time>2019-07-25T11:12:23Z</time>
</trkpt>
<trkpt lat="44.9189186" lon="5.3991943">
<ele>1055.54</ele>
<time>2019-07-25T11:12:24Z</time>
</trkpt>
<trkpt lat="44.9189183" lon="5.3991944">
<ele>1055.54</ele>
<time>2019-07-25T11:12:25Z</time>
</trkpt>
<trkpt lat="44.9189185" lon="5.3991941">
<ele>1055.54</ele>
<time>2019-07-25T11:12:26Z</time>
</trkpt>
<trkpt lat="44.9189189" lon="5.3991933">
<ele>1055.54</ele>
<time>2019-07-25T11:12:27Z</time>
</trkpt>
<trkpt lat="44.9189193" lon="5.3991927">
<ele>1055.55</ele>
<time>2019-07-25T11:12:28Z</time>
</trkpt>
<trkpt lat="44.9189184" lon="5.3991930">
<ele>1055.55</ele>
<time>2019-07-25T11:12:29Z</time>
</trkpt>
<trkpt lat="44.9189177" lon="5.3991936">
<ele>1055.55</ele>
<time>2019-07-25T11:12:30Z</time>
</trkpt>
<trkpt lat="44.9189176" lon="5.3991934">
<ele>1055.55</ele>
<time>2019-07-25T11:12:31Z</time>
</trkpt>
<trkpt lat="44.9189170" lon="5.3991936">
<ele>1055.55</ele>
<time>2019-07-25T11:12:32Z</time>
</trkpt>
<trkpt lat="44.9189171" lon="5.3991932">
<ele>1055.55</ele>
<time>2019-07-25T11:12:33Z</time>
</trkpt>
<trkpt lat="44.9189177" lon="5.3991924">
<ele>1055.55</ele>
<time>2019-07-25T11:12:34Z</time>
</trkpt>
<trkpt lat="44.9189176" lon="5.3991925">
<ele>1055.56</ele>
<time>2019-07-25T11:12:35Z</time>
</trkpt>
<trkpt lat="44.9189191" lon="5.3991931">
<ele>1055.56</ele>
<time>2019-07-25T11:12:36Z</time>
</trkpt>
<trkpt lat="44.9189200" lon="5.3991937">
<ele>1055.56</ele>
<time>2019-07-25T11:12:37Z</time>
</trkpt>
<trkpt lat="44.9189208" lon="5.3991938">
<ele>1055.56</ele>
<time>2019-07-25T11:12:38Z</time>
</trkpt>
<trkpt lat="44.9189221" lon="5.3991933">
<ele>1055.56</ele>
<time>2019-07-25T11:12:39Z</time>
</trkpt>
<trkpt lat="44.9189226" lon="5.3991945">
<ele>1055.56</ele>
<time>2019-07-25T11:12:40Z</time>
</trkpt>
<trkpt lat="44.9189227" lon="5.3991955">
<ele>1055.56</ele>
<time>2019-07-25T11:12:41Z</time>
</trkpt>
<trkpt lat="44.9189225" lon="5.3991982">
<ele>1055.56</ele>
<time>2019-07-25T11:12:42Z</time>
</trkpt>
<trkpt lat="44.9189217" lon="5.3991997">
<ele>1055.56</ele>
<time>2019-07-25T11:12:43Z</time>
</trkpt>
<trkpt lat="44.9189213" lon="5.3992008">
<ele>1055.57</ele>
<time>2019-07-25T11:12:44Z</time>
</trkpt>
<trkpt lat="44.9189185" lon="5.3992043">
<ele>1055.57</ele>
<time>2019-07-25T11:12:45Z</time>
</trkpt>
<trkpt lat="44.9189197" lon="5.3992042">
<ele>1055.57</ele>
<time>2019-07-25T11:12:46Z</time>
</trkpt>
<trkpt lat="44.9189196" lon="5.3992051">
<ele>1055.57</ele>
<time>2019-07-25T11:12:47Z</time>
</trkpt>
<trkpt lat="44.9189217" lon="5.3992039">
<ele>1055.57</ele>
<time>2019-07-25T11:12:48Z</time>
</trkpt>
<trkpt lat="44.9189212" lon="5.3992038">
<ele>1055.57</ele>
<time>2019-07-25T11:12:49Z</time>
</trkpt>
<trkpt lat="44.9189204" lon="5.3992040">
<ele>1055.57</ele>
<time>2019-07-25T11:12:50Z</time>
</trkpt>
<trkpt lat="44.9189198" lon="5.3992032">
<ele>1055.57</ele>
<time>2019-07-25T11:12:51Z</time>
</trkpt>
<trkpt lat="44.9189047" lon="5.3992134">
<ele>1055.57</ele>
<time>2019-07-25T11:12:52Z</time>
</trkpt>
<trkpt lat="44.9189078" lon="5.3992050">
<ele>1055.57</ele>
<time>2019-07-25T11:12:53Z</time>
</trkpt>
<trkpt lat="44.9189110" lon="5.3992029">
<ele>1055.57</ele>
<time>2019-07-25T11:12:54Z</time>
</trkpt>
<trkpt lat="44.9189090" lon="5.3992059">
<ele>1055.57</ele>
<time>2019-07-25T11:12:55Z</time>
</trkpt>
<trkpt lat="44.9189066" lon="5.3992106">
<ele>1055.57</ele>
<time>2019-07-25T11:12:56Z</time>
</trkpt>
<trkpt lat="44.9189054" lon="5.3992224">
<ele>1055.56</ele>
<time>2019-07-25T11:12:57Z</time>
</trkpt>
<trkpt lat="44.9189019" lon="5.3992340">
<ele>1055.55</ele>
<time>2019-07-25T11:12:58Z</time>
</trkpt>
<trkpt lat="44.9189126" lon="5.3992584">
<ele>1055.54</ele>
<time>2019-07-25T11:12:59Z</time>
</trkpt>
<trkpt lat="44.9189122" lon="5.3992591">
<ele>1055.54</ele>
<time>2019-07-25T11:13:00Z</time>
</trkpt>
<trkpt lat="44.9189118" lon="5.3992585">
<ele>1055.54</ele>
<time>2019-07-25T11:13:01Z</time>
</trkpt>
<trkpt lat="44.9189115" lon="5.3992584">
<ele>1055.54</ele>
<time>2019-07-25T11:13:02Z</time>
</trkpt>
<trkpt lat="44.9189112" lon="5.3992580">
<ele>1055.53</ele>
<time>2019-07-25T11:13:03Z</time>
</trkpt>
<trkpt lat="44.9189118" lon="5.3992573">
<ele>1055.53</ele>
<time>2019-07-25T11:13:04Z</time>
</trkpt>
<trkpt lat="44.9189105" lon="5.3992595">
<ele>1055.52</ele>
<time>2019-07-25T11:13:05Z</time>
</trkpt>
<trkpt lat="44.9189105" lon="5.3992603">
<ele>1055.52</ele>
<time>2019-07-25T11:13:06Z</time>
</trkpt>
<trkpt lat="44.9189082" lon="5.3992626">
<ele>1055.51</ele>
<time>2019-07-25T11:13:07Z</time>
</trkpt>
<trkpt lat="44.9189082" lon="5.3992617">
<ele>1055.50</ele>
<time>2019-07-25T11:13:08Z</time>
</trkpt>
<trkpt lat="44.9189091" lon="5.3992599">
<ele>1055.50</ele>
<time>2019-07-25T11:13:09Z</time>
</trkpt>
<trkpt lat="44.9189081" lon="5.3992601">
<ele>1055.49</ele>
<time>2019-07-25T11:13:10Z</time>
</trkpt>
<trkpt lat="44.9189062" lon="5.3992610">
<ele>1055.48</ele>
<time>2019-07-25T11:13:11Z</time>
</trkpt>
<trkpt lat="44.9189058" lon="5.3992607">
<ele>1055.48</ele>
<time>2019-07-25T11:13:12Z</time>
</trkpt>
<trkpt lat="44.9189053" lon="5.3992595">
<ele>1055.47</ele>
<time>2019-07-25T11:13:13Z</time>
</trkpt>
<trkpt lat="44.9189043" lon="5.3992589">
<ele>1055.46</ele>
<time>2019-07-25T11:13:14Z</time>
</trkpt>
<trkpt lat="44.9189024" lon="5.3992670">
<ele>1055.38</ele>
<time>2019-07-25T11:13:15Z</time>
</trkpt>
<trkpt lat="44.9189001" lon="5.3992763">
<ele>1055.38</ele>
<time>2019-07-25T11:13:16Z</time>
</trkpt>
<trkpt lat="44.9188981" lon="5.3992819">
<ele>1055.37</ele>
<time>2019-07-25T11:13:17Z</time>
</trkpt>
<trkpt lat="44.9189040" lon="5.3992751">
<ele>1055.29</ele>
<time>2019-07-25T11:13:18Z</time>
</trkpt>
<trkpt lat="44.9189043" lon="5.3992765">
<ele>1055.23</ele>
<time>2019-07-25T11:13:19Z</time>
</trkpt>
<trkpt lat="44.9189049" lon="5.3992787">
<ele>1055.22</ele>
<time>2019-07-25T11:13:20Z</time>
</trkpt>
<trkpt lat="44.9189052" lon="5.3992796">
<ele>1055.21</ele>
<time>2019-07-25T11:13:21Z</time>
</trkpt>
<trkpt lat="44.9189058" lon="5.3992802">
<ele>1055.21</ele>
<time>2019-07-25T11:13:22Z</time>
</trkpt>
<trkpt lat="44.9189064" lon="5.3992801">
<ele>1055.20</ele>
<time>2019-07-25T11:13:23Z</time>
</trkpt>
<trkpt lat="44.9189068" lon="5.3992799">
<ele>1055.19</ele>
<time>2019-07-25T11:13:24Z</time>
</trkpt>
<trkpt lat="44.9189071" lon="5.3992788">
<ele>1055.18</ele>
<time>2019-07-25T11:13:25Z</time>
</trkpt>
<trkpt lat="44.9189073" lon="5.3992779">
<ele>1055.17</ele>
<time>2019-07-25T11:13:26Z</time>
</trkpt>
<trkpt lat="44.9189077" lon="5.3992771">
<ele>1055.17</ele>
<time>2019-07-25T11:13:27Z</time>
</trkpt>
<trkpt lat="44.9189079" lon="5.3992765">
<ele>1055.16</ele>
<time>2019-07-25T11:13:28Z</time>
</trkpt>
<trkpt lat="44.9189079" lon="5.3992762">
<ele>1055.15</ele>
<time>2019-07-25T11:13:29Z</time>
</trkpt>
<trkpt lat="44.9189080" lon="5.3992759">
<ele>1055.14</ele>
<time>2019-07-25T11:13:30Z</time>
</trkpt>
<trkpt lat="44.9189082" lon="5.3992752">
<ele>1055.13</ele>
<time>2019-07-25T11:13:31Z</time>
</trkpt>
<trkpt lat="44.9189083" lon="5.3992745">
<ele>1055.13</ele>
<time>2019-07-25T11:13:32Z</time>
</trkpt>
<trkpt lat="44.9189084" lon="5.3992745">
<ele>1055.12</ele>
<time>2019-07-25T11:13:33Z</time>
</trkpt>
<trkpt lat="44.9189084" lon="5.3992745">
<ele>1055.11</ele>
<time>2019-07-25T11:13:34Z</time>
</trkpt>
<trkpt lat="44.9189084" lon="5.3992742">
<ele>1055.10</ele>
<time>2019-07-25T11:13:35Z</time>
</trkpt>
<trkpt lat="44.9189087" lon="5.3992736">
<ele>1055.09</ele>
<time>2019-07-25T11:13:36Z</time>
</trkpt>
<trkpt lat="44.9189087" lon="5.3992732">
<ele>1055.08</ele>
<time>2019-07-25T11:13:37Z</time>
</trkpt>
<trkpt lat="44.9189087" lon="5.3992730">
<ele>1055.08</ele>
<time>2019-07-25T11:13:38Z</time>
</trkpt>
<trkpt lat="44.9189092" lon="5.3992713">
<ele>1055.07</ele>
<time>2019-07-25T11:13:39Z</time>
</trkpt>
<trkpt lat="44.9189100" lon="5.3992684">
<ele>1055.06</ele>
<time>2019-07-25T11:13:40Z</time>
</trkpt>
<trkpt lat="44.9189078" lon="5.3992790">
<ele>1054.99</ele>
<time>2019-07-25T11:13:41Z</time>
</trkpt>
<trkpt lat="44.9189076" lon="5.3992805">
<ele>1054.98</ele>
<time>2019-07-25T11:13:42Z</time>
</trkpt>
<trkpt lat="44.9189082" lon="5.3992805">
<ele>1054.97</ele>
<time>2019-07-25T11:13:43Z</time>
</trkpt>
<trkpt lat="44.9189079" lon="5.3992820">
<ele>1054.96</ele>
<time>2019-07-25T11:13:44Z</time>
</trkpt>
<trkpt lat="44.9189073" lon="5.3992844">
<ele>1054.95</ele>
<time>2019-07-25T11:13:45Z</time>
</trkpt>
<trkpt lat="44.9189073" lon="5.3992856">
<ele>1054.95</ele>
<time>2019-07-25T11:13:46Z</time>
</trkpt>
<trkpt lat="44.9189075" lon="5.3992857">
<ele>1054.94</ele>
<time>2019-07-25T11:13:47Z</time>
</trkpt>
<trkpt lat="44.9189081" lon="5.3992858">
<ele>1054.93</ele>
<time>2019-07-25T11:13:48Z</time>
</trkpt>
<trkpt lat="44.9189075" lon="5.3992894">
<ele>1054.84</ele>
<time>2019-07-25T11:13:49Z</time>
</trkpt>
<trkpt lat="44.9189058" lon="5.3992959">
<ele>1054.83</ele>
<time>2019-07-25T11:13:50Z</time>
</trkpt>
<trkpt lat="44.9189062" lon="5.3992979">
<ele>1054.73</ele>
<time>2019-07-25T11:13:51Z</time>
</trkpt>
<trkpt lat="44.9189052" lon="5.3992958">
<ele>1054.63</ele>
<time>2019-07-25T11:13:52Z</time>
</trkpt>
<trkpt lat="44.9189054" lon="5.3992980">
<ele>1054.53</ele>
<time>2019-07-25T11:13:53Z</time>
</trkpt>
<trkpt lat="44.9189059" lon="5.3992959">
<ele>1054.43</ele>
<time>2019-07-25T11:13:54Z</time>
</trkpt>
<trkpt lat="44.9189079" lon="5.3992940">
<ele>1054.33</ele>
<time>2019-07-25T11:13:55Z</time>
</trkpt>
<trkpt lat="44.9189035" lon="5.3992948">
<ele>1054.24</ele>
<time>2019-07-25T11:13:56Z</time>
</trkpt>
<trkpt lat="44.9189047" lon="5.3992865">
<ele>1054.15</ele>
<time>2019-07-25T11:13:57Z</time>
</trkpt>
<trkpt lat="44.9189047" lon="5.3992880">
<ele>1054.14</ele>
<time>2019-07-25T11:13:58Z</time>
</trkpt>
<trkpt lat="44.9189044" lon="5.3992882">
<ele>1054.13</ele>
<time>2019-07-25T11:13:59Z</time>
</trkpt>
<trkpt lat="44.9189033" lon="5.3992869">
<ele>1054.12</ele>
<time>2019-07-25T11:14:00Z</time>
</trkpt>
<trkpt lat="44.9189024" lon="5.3992829">
<ele>1054.11</ele>
<time>2019-07-25T11:14:01Z</time>
</trkpt>
<trkpt lat="44.9189021" lon="5.3992826">
<ele>1054.10</ele>
<time>2019-07-25T11:14:02Z</time>
</trkpt>
<trkpt lat="44.9189019" lon="5.3992822">
<ele>1054.09</ele>
<time>2019-07-25T11:14:03Z</time>
</trkpt>
<trkpt lat="44.9189020" lon="5.3992815">
<ele>1054.08</ele>
<time>2019-07-25T11:14:04Z</time>
</trkpt>
<trkpt lat="44.9189019" lon="5.3992810">
<ele>1054.08</ele>
<time>2019-07-25T11:14:05Z</time>
</trkpt>
<trkpt lat="44.9189017" lon="5.3992807">
<ele>1054.07</ele>
<time>2019-07-25T11:14:06Z</time>
</trkpt>
<trkpt lat="44.9189017" lon="5.3992801">
<ele>1054.06</ele>
<time>2019-07-25T11:14:07Z</time>
</trkpt>
<trkpt lat="44.9189016" lon="5.3992796">
<ele>1054.05</ele>
<time>2019-07-25T11:14:08Z</time>
</trkpt>
<trkpt lat="44.9189015" lon="5.3992788">
<ele>1054.04</ele>
<time>2019-07-25T11:14:09Z</time>
</trkpt>
<trkpt lat="44.9189013" lon="5.3992783">
<ele>1054.03</ele>
<time>2019-07-25T11:14:10Z</time>
</trkpt>
<trkpt lat="44.9189013" lon="5.3992778">
<ele>1054.02</ele>
<time>2019-07-25T11:14:11Z</time>
</trkpt>
<trkpt lat="44.9189012" lon="5.3992764">
<ele>1054.01</ele>
<time>2019-07-25T11:14:12Z</time>
</trkpt>
<trkpt lat="44.9189012" lon="5.3992760">
<ele>1054.00</ele>
<time>2019-07-25T11:14:13Z</time>
</trkpt>
<trkpt lat="44.9189011" lon="5.3992761">
<ele>1054.00</ele>
<time>2019-07-25T11:14:14Z</time>
</trkpt>
<trkpt lat="44.9189010" lon="5.3992748">
<ele>1053.99</ele>
<time>2019-07-25T11:14:15Z</time>
</trkpt>
<trkpt lat="44.9189006" lon="5.3992726">
<ele>1053.98</ele>
<time>2019-07-25T11:14:16Z</time>
</trkpt>
<trkpt lat="44.9189003" lon="5.3992732">
<ele>1053.97</ele>
<time>2019-07-25T11:14:17Z</time>
</trkpt>
<trkpt lat="44.9189004" lon="5.3992834">
<ele>1053.89</ele>
<time>2019-07-25T11:14:18Z</time>
</trkpt>
<trkpt lat="44.9189019" lon="5.3992797">
<ele>1053.88</ele>
<time>2019-07-25T11:14:19Z</time>
</trkpt>
<trkpt lat="44.9189042" lon="5.3992834">
<ele>1053.80</ele>
<time>2019-07-25T11:14:20Z</time>
</trkpt>
<trkpt lat="44.9189064" lon="5.3992858">
<ele>1053.72</ele>
<time>2019-07-25T11:14:21Z</time>
</trkpt>
<trkpt lat="44.9189083" lon="5.3992969">
<ele>1053.65</ele>
<time>2019-07-25T11:14:22Z</time>
</trkpt>
<trkpt lat="44.9189082" lon="5.3992990">
<ele>1053.64</ele>
<time>2019-07-25T11:14:23Z</time>
</trkpt>
<trkpt lat="44.9189082" lon="5.3992986">
<ele>1053.63</ele>
<time>2019-07-25T11:14:24Z</time>
</trkpt>
<trkpt lat="44.9189080" lon="5.3992993">
<ele>1053.62</ele>
<time>2019-07-25T11:14:25Z</time>
</trkpt>
<trkpt lat="44.9189089" lon="5.3992987">
<ele>1053.62</ele>
<time>2019-07-25T11:14:26Z</time>
</trkpt>
<trkpt lat="44.9189074" lon="5.3993004">
<ele>1053.61</ele>
<time>2019-07-25T11:14:27Z</time>
</trkpt>
<trkpt lat="44.9189086" lon="5.3992983">
<ele>1053.60</ele>
<time>2019-07-25T11:14:28Z</time>
</trkpt>
<trkpt lat="44.9189090" lon="5.3992973">
<ele>1053.60</ele>
<time>2019-07-25T11:14:29Z</time>
</trkpt>
<trkpt lat="44.9189090" lon="5.3992951">
<ele>1053.59</ele>
<time>2019-07-25T11:14:30Z</time>
</trkpt>
<trkpt lat="44.9189093" lon="5.3992918">
<ele>1053.58</ele>
<time>2019-07-25T11:14:31Z</time>
</trkpt>
<trkpt lat="44.9189098" lon="5.3992884">
<ele>1053.58</ele>
<time>2019-07-25T11:14:32Z</time>
</trkpt>
<trkpt lat="44.9189111" lon="5.3992869">
<ele>1053.57</ele>
<time>2019-07-25T11:14:33Z</time>
</trkpt>
<trkpt lat="44.9189121" lon="5.3992866">
<ele>1053.57</ele>
<time>2019-07-25T11:14:34Z</time>
</trkpt>
<trkpt lat="44.9189128" lon="5.3992861">
<ele>1053.56</ele>
<time>2019-07-25T11:14:35Z</time>
</trkpt>
<trkpt lat="44.9189145" lon="5.3992845">
<ele>1053.55</ele>
<time>2019-07-25T11:14:36Z</time>
</trkpt>
<trkpt lat="44.9189155" lon="5.3992832">
<ele>1053.55</ele>
<time>2019-07-25T11:14:37Z</time>
</trkpt>
<trkpt lat="44.9189166" lon="5.3992819">
<ele>1053.54</ele>
<time>2019-07-25T11:14:38Z</time>
</trkpt>
<trkpt lat="44.9189166" lon="5.3992817">
<ele>1053.54</ele>
<time>2019-07-25T11:14:39Z</time>
</trkpt>
<trkpt lat="44.9189171" lon="5.3992805">
<ele>1053.54</ele>
<time>2019-07-25T11:14:40Z</time>
</trkpt>
<trkpt lat="44.9189177" lon="5.3992789">
<ele>1053.53</ele>
<time>2019-07-25T11:14:41Z</time>
</trkpt>
<trkpt lat="44.9189180" lon="5.3992778">
<ele>1053.53</ele>
<time>2019-07-25T11:14:42Z</time>
</trkpt>
<trkpt lat="44.9189181" lon="5.3992760">
<ele>1053.52</ele>
<time>2019-07-25T11:14:43Z</time>
</trkpt>
<trkpt lat="44.9189186" lon="5.3992746">
<ele>1053.52</ele>
<time>2019-07-25T11:14:44Z</time>
</trkpt>
<trkpt lat="44.9189189" lon="5.3992736">
<ele>1053.51</ele>
<time>2019-07-25T11:14:45Z</time>
</trkpt>
<trkpt lat="44.9189188" lon="5.3992711">
<ele>1053.51</ele>
<time>2019-07-25T11:14:46Z</time>
</trkpt>
<trkpt lat="44.9189185" lon="5.3992691">
<ele>1053.50</ele>
<time>2019-07-25T11:14:47Z</time>
</trkpt>
<trkpt lat="44.9189187" lon="5.3992673">
<ele>1053.50</ele>
<time>2019-07-25T11:14:48Z</time>
</trkpt>
<trkpt lat="44.9189188" lon="5.3992661">
<ele>1053.49</ele>
<time>2019-07-25T11:14:49Z</time>
</trkpt>
<trkpt lat="44.9189190" lon="5.3992655">
<ele>1053.49</ele>
<time>2019-07-25T11:14:50Z</time>
</trkpt>
<trkpt lat="44.9189192" lon="5.3992647">
<ele>1053.48</ele>
<time>2019-07-25T11:14:51Z</time>
</trkpt>
<trkpt lat="44.9189193" lon="5.3992630">
<ele>1053.47</ele>
<time>2019-07-25T11:14:52Z</time>
</trkpt>
<trkpt lat="44.9189193" lon="5.3992626">
<ele>1053.47</ele>
<time>2019-07-25T11:14:53Z</time>
</trkpt>
<trkpt lat="44.9189193" lon="5.3992621">
<ele>1053.46</ele>
<time>2019-07-25T11:14:54Z</time>
</trkpt>
<trkpt lat="44.9189197" lon="5.3992621">
<ele>1053.46</ele>
<time>2019-07-25T11:14:55Z</time>
</trkpt>
<trkpt lat="44.9189201" lon="5.3992619">
<ele>1053.45</ele>
<time>2019-07-25T11:14:56Z</time>
</trkpt>
<trkpt lat="44.9189202" lon="5.3992619">
<ele>1053.45</ele>
<time>2019-07-25T11:14:57Z</time>
</trkpt>
<trkpt lat="44.9189205" lon="5.3992623">
<ele>1053.44</ele>
<time>2019-07-25T11:14:58Z</time>
</trkpt>
<trkpt lat="44.9189219" lon="5.3992631">
<ele>1053.44</ele>
<time>2019-07-25T11:14:59Z</time>
</trkpt>
<trkpt lat="44.9189228" lon="5.3992619">
<ele>1053.43</ele>
<time>2019-07-25T11:15:00Z</time>
</trkpt>
<trkpt lat="44.9189229" lon="5.3992618">
<ele>1053.43</ele>
<time>2019-07-25T11:15:01Z</time>
</trkpt>
<trkpt lat="44.9189238" lon="5.3992611">
<ele>1053.42</ele>
<time>2019-07-25T11:15:02Z</time>
</trkpt>
<trkpt lat="44.9189240" lon="5.3992608">
<ele>1053.42</ele>
<time>2019-07-25T11:15:03Z</time>
</trkpt>
<trkpt lat="44.9189240" lon="5.3992612">
<ele>1053.42</ele>
<time>2019-07-25T11:15:04Z</time>
</trkpt>
<trkpt lat="44.9189240" lon="5.3992611">
<ele>1053.41</ele>
<time>2019-07-25T11:15:05Z</time>
</trkpt>
<trkpt lat="44.9189239" lon="5.3992607">
<ele>1053.41</ele>
<time>2019-07-25T11:15:06Z</time>
</trkpt>
<trkpt lat="44.9189238" lon="5.3992604">
<ele>1053.41</ele>
<time>2019-07-25T11:15:07Z</time>
</trkpt>
<trkpt lat="44.9189233" lon="5.3992601">
<ele>1053.40</ele>
<time>2019-07-25T11:15:08Z</time>
</trkpt>
<trkpt lat="44.9189227" lon="5.3992600">
<ele>1053.40</ele>
<time>2019-07-25T11:15:09Z</time>
</trkpt>
<trkpt lat="44.9189217" lon="5.3992605">
<ele>1053.40</ele>
<time>2019-07-25T11:15:10Z</time>
</trkpt>
<trkpt lat="44.9189214" lon="5.3992606">
<ele>1053.40</ele>
<time>2019-07-25T11:15:11Z</time>
</trkpt>
<trkpt lat="44.9189206" lon="5.3992611">
<ele>1053.39</ele>
<time>2019-07-25T11:15:12Z</time>
</trkpt>
<trkpt lat="44.9189194" lon="5.3992612">
<ele>1053.39</ele>
<time>2019-07-25T11:15:13Z</time>
</trkpt>
<trkpt lat="44.9189192" lon="5.3992620">
<ele>1053.39</ele>
<time>2019-07-25T11:15:14Z</time>
</trkpt>
<trkpt lat="44.9189180" lon="5.3992629">
<ele>1053.39</ele>
<time>2019-07-25T11:15:15Z</time>
</trkpt>
<trkpt lat="44.9189184" lon="5.3992626">
<ele>1053.39</ele>
<time>2019-07-25T11:15:16Z</time>
</trkpt>
<trkpt lat="44.9189197" lon="5.3992617">
<ele>1053.38</ele>
<time>2019-07-25T11:15:17Z</time>
</trkpt>
<trkpt lat="44.9189198" lon="5.3992616">
<ele>1053.38</ele>
<time>2019-07-25T11:15:18Z</time>
</trkpt>
<trkpt lat="44.9189202" lon="5.3992617">
<ele>1053.38</ele>
<time>2019-07-25T11:15:19Z</time>
</trkpt>
<trkpt lat="44.9189200" lon="5.3992619">
<ele>1053.38</ele>
<time>2019-07-25T11:15:20Z</time>
</trkpt>
<trkpt lat="44.9189188" lon="5.3992630">
<ele>1053.36</ele>
<time>2019-07-25T11:15:21Z</time>
</trkpt>
<trkpt lat="44.9189237" lon="5.3992593">
<ele>1053.34</ele>
<time>2019-07-25T11:15:22Z</time>
</trkpt>
<trkpt lat="44.9189209" lon="5.3992696">
<ele>1053.33</ele>
<time>2019-07-25T11:15:23Z</time>
</trkpt>
<trkpt lat="44.9189203" lon="5.3992701">
<ele>1053.33</ele>
<time>2019-07-25T11:15:24Z</time>
</trkpt>
<trkpt lat="44.9189201" lon="5.3992705">
<ele>1053.33</ele>
<time>2019-07-25T11:15:25Z</time>
</trkpt>
<trkpt lat="44.9189199" lon="5.3992712">
<ele>1053.33</ele>
<time>2019-07-25T11:15:26Z</time>
</trkpt>
<trkpt lat="44.9189209" lon="5.3992713">
<ele>1053.33</ele>
<time>2019-07-25T11:15:27Z</time>
</trkpt>
<trkpt lat="44.9189207" lon="5.3992719">
<ele>1053.33</ele>
<time>2019-07-25T11:15:28Z</time>
</trkpt>
<trkpt lat="44.9189214" lon="5.3992714">
<ele>1053.33</ele>
<time>2019-07-25T11:15:29Z</time>
</trkpt>
<trkpt lat="44.9189224" lon="5.3992708">
<ele>1053.33</ele>
<time>2019-07-25T11:15:30Z</time>
</trkpt>
<trkpt lat="44.9189241" lon="5.3992710">
<ele>1053.32</ele>
<time>2019-07-25T11:15:31Z</time>
</trkpt>
<trkpt lat="44.9189252" lon="5.3992703">
<ele>1053.32</ele>
<time>2019-07-25T11:15:32Z</time>
</trkpt>
<trkpt lat="44.9189259" lon="5.3992697">
<ele>1053.32</ele>
<time>2019-07-25T11:15:33Z</time>
</trkpt>
<trkpt lat="44.9189264" lon="5.3992697">
<ele>1053.32</ele>
<time>2019-07-25T11:15:34Z</time>
</trkpt>
<trkpt lat="44.9189273" lon="5.3992693">
<ele>1053.32</ele>
<time>2019-07-25T11:15:35Z</time>
</trkpt>
<trkpt lat="44.9189291" lon="5.3992696">
<ele>1053.31</ele>
<time>2019-07-25T11:15:36Z</time>
</trkpt>
<trkpt lat="44.9189295" lon="5.3992694">
<ele>1053.31</ele>
<time>2019-07-25T11:15:37Z</time>
</trkpt>
<trkpt lat="44.9189302" lon="5.3992695">
<ele>1053.31</ele>
<time>2019-07-25T11:15:38Z</time>
</trkpt>
<trkpt lat="44.9189309" lon="5.3992696">
<ele>1053.31</ele>
<time>2019-07-25T11:15:39Z</time>
</trkpt>
<trkpt lat="44.9189328" lon="5.3992689">
<ele>1053.30</ele>
<time>2019-07-25T11:15:40Z</time>
</trkpt>
<trkpt lat="44.9189333" lon="5.3992691">
<ele>1053.30</ele>
<time>2019-07-25T11:15:41Z</time>
</trkpt>
<trkpt lat="44.9189332" lon="5.3992695">
<ele>1053.30</ele>
<time>2019-07-25T11:15:42Z</time>
</trkpt>
<trkpt lat="44.9189325" lon="5.3992725">
<ele>1053.30</ele>
<time>2019-07-25T11:15:43Z</time>
</trkpt>
<trkpt lat="44.9189315" lon="5.3992812">
<ele>1053.26</ele>
<time>2019-07-25T11:15:44Z</time>
</trkpt>
<trkpt lat="44.9189316" lon="5.3992840">
<ele>1053.23</ele>
<time>2019-07-25T11:15:45Z</time>
</trkpt>
<trkpt lat="44.9189322" lon="5.3992845">
<ele>1053.23</ele>
<time>2019-07-25T11:15:46Z</time>
</trkpt>
<trkpt lat="44.9189321" lon="5.3992842">
<ele>1053.22</ele>
<time>2019-07-25T11:15:47Z</time>
</trkpt>
<trkpt lat="44.9189323" lon="5.3992844">
<ele>1053.22</ele>
<time>2019-07-25T11:15:48Z</time>
</trkpt>
<trkpt lat="44.9189335" lon="5.3992848">
<ele>1053.21</ele>
<time>2019-07-25T11:15:49Z</time>
</trkpt>
<trkpt lat="44.9189339" lon="5.3992847">
<ele>1053.21</ele>
<time>2019-07-25T11:15:50Z</time>
</trkpt>
<trkpt lat="44.9189345" lon="5.3992828">
<ele>1053.20</ele>
<time>2019-07-25T11:15:51Z</time>
</trkpt>
<trkpt lat="44.9189353" lon="5.3992814">
<ele>1053.20</ele>
<time>2019-07-25T11:15:52Z</time>
</trkpt>
<trkpt lat="44.9189348" lon="5.3992847">
<ele>1053.19</ele>
<time>2019-07-25T11:15:53Z</time>
</trkpt>
<trkpt lat="44.9189390" lon="5.3993098">
<ele>1053.14</ele>
<time>2019-07-25T11:15:54Z</time>
</trkpt>
<trkpt lat="44.9189434" lon="5.3993113">
<ele>1053.09</ele>
<time>2019-07-25T11:15:55Z</time>
</trkpt>
<trkpt lat="44.9189467" lon="5.3993169">
<ele>1053.08</ele>
<time>2019-07-25T11:15:56Z</time>
</trkpt>
<trkpt lat="44.9189481" lon="5.3993147">
<ele>1053.07</ele>
<time>2019-07-25T11:15:57Z</time>
</trkpt>
<trkpt lat="44.9189508" lon="5.3993107">
<ele>1053.07</ele>
<time>2019-07-25T11:15:58Z</time>
</trkpt>
<trkpt lat="44.9189513" lon="5.3993102">
<ele>1053.06</ele>
<time>2019-07-25T11:15:59Z</time>
</trkpt>
<trkpt lat="44.9189525" lon="5.3993088">
<ele>1053.06</ele>
<time>2019-07-25T11:16:00Z</time>
</trkpt>
<trkpt lat="44.9189529" lon="5.3993076">
<ele>1053.05</ele>
<time>2019-07-25T11:16:01Z</time>
</trkpt>
<trkpt lat="44.9189537" lon="5.3993063">
<ele>1053.05</ele>
<time>2019-07-25T11:16:02Z</time>
</trkpt>
<trkpt lat="44.9189534" lon="5.3993059">
<ele>1053.04</ele>
<time>2019-07-25T11:16:03Z</time>
</trkpt>
<trkpt lat="44.9189546" lon="5.3993046">
<ele>1053.04</ele>
<time>2019-07-25T11:16:04Z</time>
</trkpt>
<trkpt lat="44.9189546" lon="5.3993051">
<ele>1053.03</ele>
<time>2019-07-25T11:16:05Z</time>
</trkpt>
<trkpt lat="44.9189537" lon="5.3993058">
<ele>1053.03</ele>
<time>2019-07-25T11:16:06Z</time>
</trkpt>
<trkpt lat="44.9189535" lon="5.3993053">
<ele>1053.02</ele>
<time>2019-07-25T11:16:07Z</time>
</trkpt>
<trkpt lat="44.9189532" lon="5.3993050">
<ele>1053.02</ele>
<time>2019-07-25T11:16:08Z</time>
</trkpt>
<trkpt lat="44.9189530" lon="5.3993047">
<ele>1053.01</ele>
<time>2019-07-25T11:16:09Z</time>
</trkpt>
<trkpt lat="44.9189525" lon="5.3993051">
<ele>1053.00</ele>
<time>2019-07-25T11:16:10Z</time>
</trkpt>
<trkpt lat="44.9189518" lon="5.3993051">
<ele>1053.00</ele>
<time>2019-07-25T11:16:11Z</time>
</trkpt>
<trkpt lat="44.9189517" lon="5.3993042">
<ele>1053.00</ele>
<time>2019-07-25T11:16:12Z</time>
</trkpt>
<trkpt lat="44.9189507" lon="5.3993048">
<ele>1052.99</ele>
<time>2019-07-25T11:16:13Z</time>
</trkpt>
<trkpt lat="44.9189523" lon="5.3993038">
<ele>1052.99</ele>
<time>2019-07-25T11:16:14Z</time>
</trkpt>
<trkpt lat="44.9189536" lon="5.3993026">
<ele>1052.98</ele>
<time>2019-07-25T11:16:15Z</time>
</trkpt>
<trkpt lat="44.9189542" lon="5.3993050">
<ele>1052.98</ele>
<time>2019-07-25T11:16:16Z</time>
</trkpt>
<trkpt lat="44.9189547" lon="5.3993045">
<ele>1052.97</ele>
<time>2019-07-25T11:16:17Z</time>
</trkpt>
<trkpt lat="44.9189546" lon="5.3993042">
<ele>1052.97</ele>
<time>2019-07-25T11:16:18Z</time>
</trkpt>
<trkpt lat="44.9189545" lon="5.3993036">
<ele>1052.96</ele>
<time>2019-07-25T11:16:19Z</time>
</trkpt>
<trkpt lat="44.9189550" lon="5.3993019">
<ele>1052.96</ele>
<time>2019-07-25T11:16:20Z</time>
</trkpt>
<trkpt lat="44.9189550" lon="5.3993006">
<ele>1052.96</ele>
<time>2019-07-25T11:16:21Z</time>
</trkpt>
<trkpt lat="44.9189549" lon="5.3992999">
<ele>1052.95</ele>
<time>2019-07-25T11:16:22Z</time>
</trkpt>
<trkpt lat="44.9189544" lon="5.3992975">
<ele>1052.95</ele>
<time>2019-07-25T11:16:23Z</time>
</trkpt>
<trkpt lat="44.9189544" lon="5.3992966">
<ele>1052.94</ele>
<time>2019-07-25T11:16:24Z</time>
</trkpt>
<trkpt lat="44.9189549" lon="5.3992951">
<ele>1052.94</ele>
<time>2019-07-25T11:16:25Z</time>
</trkpt>
<trkpt lat="44.9189551" lon="5.3992929">
<ele>1052.93</ele>
<time>2019-07-25T11:16:26Z</time>
</trkpt>
<trkpt lat="44.9189549" lon="5.3992912">
<ele>1052.93</ele>
<time>2019-07-25T11:16:27Z</time>
</trkpt>
<trkpt lat="44.9189537" lon="5.3992902">
<ele>1052.93</ele>
<time>2019-07-25T11:16:28Z</time>
</trkpt>
<trkpt lat="44.9189486" lon="5.3992911">
<ele>1052.90</ele>
<time>2019-07-25T11:16:29Z</time>
</trkpt>
<trkpt lat="44.9189516" lon="5.3992953">
<ele>1052.90</ele>
<time>2019-07-25T11:16:30Z</time>
</trkpt>
<trkpt lat="44.9189498" lon="5.3992979">
<ele>1052.90</ele>
<time>2019-07-25T11:16:31Z</time>
</trkpt>
<trkpt lat="44.9189495" lon="5.3992978">
<ele>1052.89</ele>
<time>2019-07-25T11:16:32Z</time>
</trkpt>
<trkpt lat="44.9189494" lon="5.3992973">
<ele>1052.89</ele>
<time>2019-07-25T11:16:33Z</time>
</trkpt>
<trkpt lat="44.9189497" lon="5.3992966">
<ele>1052.89</ele>
<time>2019-07-25T11:16:34Z</time>
</trkpt>
<trkpt lat="44.9189502" lon="5.3992957">
<ele>1052.89</ele>
<time>2019-07-25T11:16:35Z</time>
</trkpt>
<trkpt lat="44.9189503" lon="5.3992945">
<ele>1052.89</ele>
<time>2019-07-25T11:16:36Z</time>
</trkpt>
<trkpt lat="44.9189503" lon="5.3992941">
<ele>1052.89</ele>
<time>2019-07-25T11:16:37Z</time>
</trkpt>
<trkpt lat="44.9189503" lon="5.3992935">
<ele>1052.89</ele>
<time>2019-07-25T11:16:38Z</time>
</trkpt>
<trkpt lat="44.9189494" lon="5.3992942">
<ele>1052.89</ele>
<time>2019-07-25T11:16:39Z</time>
</trkpt>
<trkpt lat="44.9189485" lon="5.3992958">
<ele>1052.89</ele>
<time>2019-07-25T11:16:40Z</time>
</trkpt>
<trkpt lat="44.9189499" lon="5.3992963">
<ele>1052.89</ele>
<time>2019-07-25T11:16:41Z</time>
</trkpt>
<trkpt lat="44.9189502" lon="5.3992971">
<ele>1052.89</ele>
<time>2019-07-25T11:16:42Z</time>
</trkpt>
<trkpt lat="44.9189502" lon="5.3992972">
<ele>1052.89</ele>
<time>2019-07-25T11:16:43Z</time>
</trkpt>
<trkpt lat="44.9189503" lon="5.3992966">
<ele>1052.89</ele>
<time>2019-07-25T11:16:44Z</time>
</trkpt>
<trkpt lat="44.9189505" lon="5.3992964">
<ele>1052.88</ele>
<time>2019-07-25T11:16:45Z</time>
</trkpt>
<trkpt lat="44.9189515" lon="5.3992959">
<ele>1052.88</ele>
<time>2019-07-25T11:16:46Z</time>
</trkpt>
<trkpt lat="44.9189523" lon="5.3992974">
<ele>1052.88</ele>
<time>2019-07-25T11:16:47Z</time>
</trkpt>
<trkpt lat="44.9189524" lon="5.3992977">
<ele>1052.88</ele>
<time>2019-07-25T11:16:48Z</time>
</trkpt>
<trkpt lat="44.9189522" lon="5.3992979">
<ele>1052.87</ele>
<time>2019-07-25T11:16:49Z</time>
</trkpt>
<trkpt lat="44.9189520" lon="5.3992987">
<ele>1052.87</ele>
<time>2019-07-25T11:16:50Z</time>
</trkpt>
<trkpt lat="44.9189522" lon="5.3992989">
<ele>1052.87</ele>
<time>2019-07-25T11:16:51Z</time>
</trkpt>
<trkpt lat="44.9189522" lon="5.3992990">
<ele>1052.87</ele>
<time>2019-07-25T11:16:52Z</time>
</trkpt>
<trkpt lat="44.9189523" lon="5.3992982">
<ele>1052.87</ele>
<time>2019-07-25T11:16:53Z</time>
</trkpt>
<trkpt lat="44.9189522" lon="5.3992979">
<ele>1052.87</ele>
<time>2019-07-25T11:16:54Z</time>
</trkpt>
<trkpt lat="44.9189530" lon="5.3992981">
<ele>1052.86</ele>
<time>2019-07-25T11:16:55Z</time>
</trkpt>
<trkpt lat="44.9189533" lon="5.3992979">
<ele>1052.86</ele>
<time>2019-07-25T11:16:56Z</time>
</trkpt>
<trkpt lat="44.9189535" lon="5.3992973">
<ele>1052.86</ele>
<time>2019-07-25T11:16:57Z</time>
</trkpt>
<trkpt lat="44.9189539" lon="5.3992970">
<ele>1052.86</ele>
<time>2019-07-25T11:16:58Z</time>
</trkpt>
<trkpt lat="44.9189548" lon="5.3992978">
<ele>1052.86</ele>
<time>2019-07-25T11:16:59Z</time>
</trkpt>
<trkpt lat="44.9189548" lon="5.3992983">
<ele>1052.85</ele>
<time>2019-07-25T11:17:00Z</time>
</trkpt>
<trkpt lat="44.9189543" lon="5.3992989">
<ele>1052.85</ele>
<time>2019-07-25T11:17:01Z</time>
</trkpt>
<trkpt lat="44.9189525" lon="5.3993005">
<ele>1052.85</ele>
<time>2019-07-25T11:17:02Z</time>
</trkpt>
<trkpt lat="44.9189518" lon="5.3993007">
<ele>1052.85</ele>
<time>2019-07-25T11:17:03Z</time>
</trkpt>
<trkpt lat="44.9189511" lon="5.3993014">
<ele>1052.85</ele>
<time>2019-07-25T11:17:04Z</time>
</trkpt>
<trkpt lat="44.9189511" lon="5.3993017">
<ele>1052.85</ele>
<time>2019-07-25T11:17:05Z</time>
</trkpt>
<trkpt lat="44.9189509" lon="5.3993019">
<ele>1052.85</ele>
<time>2019-07-25T11:17:06Z</time>
</trkpt>
<trkpt lat="44.9189455" lon="5.3993039">
<ele>1052.85</ele>
<time>2019-07-25T11:17:07Z</time>
</trkpt>
<trkpt lat="44.9189349" lon="5.3992961">
<ele>1052.84</ele>
<time>2019-07-25T11:17:08Z</time>
</trkpt>
<trkpt lat="44.9189266" lon="5.3992955">
<ele>1052.84</ele>
<time>2019-07-25T11:17:09Z</time>
</trkpt>
<trkpt lat="44.9189244" lon="5.3993009">
<ele>1052.84</ele>
<time>2019-07-25T11:17:10Z</time>
</trkpt>
<trkpt lat="44.9189252" lon="5.3992981">
<ele>1052.84</ele>
<time>2019-07-25T11:17:11Z</time>
</trkpt>
<trkpt lat="44.9189257" lon="5.3992978">
<ele>1052.84</ele>
<time>2019-07-25T11:17:12Z</time>
</trkpt>
<trkpt lat="44.9189265" lon="5.3992994">
<ele>1052.84</ele>
<time>2019-07-25T11:17:13Z</time>
</trkpt>
<trkpt lat="44.9189298" lon="5.3993048">
<ele>1052.84</ele>
<time>2019-07-25T11:17:14Z</time>
</trkpt>
<trkpt lat="44.9189310" lon="5.3993063">
<ele>1052.84</ele>
<time>2019-07-25T11:17:15Z</time>
</trkpt>
<trkpt lat="44.9189330" lon="5.3993060">
<ele>1052.84</ele>
<time>2019-07-25T11:17:16Z</time>
</trkpt>
<trkpt lat="44.9189324" lon="5.3993073">
<ele>1052.85</ele>
<time>2019-07-25T11:17:17Z</time>
</trkpt>
<trkpt lat="44.9189299" lon="5.3993144">
<ele>1052.85</ele>
<time>2019-07-25T11:17:18Z</time>
</trkpt>
<trkpt lat="44.9189330" lon="5.3993089">
<ele>1052.86</ele>
<time>2019-07-25T11:17:19Z</time>
</trkpt>
<trkpt lat="44.9189317" lon="5.3993180">
<ele>1052.86</ele>
<time>2019-07-25T11:17:20Z</time>
</trkpt>
<trkpt lat="44.9189315" lon="5.3993181">
<ele>1052.87</ele>
<time>2019-07-25T11:17:21Z</time>
</trkpt>
<trkpt lat="44.9189316" lon="5.3993182">
<ele>1052.87</ele>
<time>2019-07-25T11:17:22Z</time>
</trkpt>
<trkpt lat="44.9189304" lon="5.3993200">
<ele>1052.87</ele>
<time>2019-07-25T11:17:23Z</time>
</trkpt>
<trkpt lat="44.9189309" lon="5.3993208">
<ele>1052.87</ele>
<time>2019-07-25T11:17:24Z</time>
</trkpt>
<trkpt lat="44.9189306" lon="5.3993213">
<ele>1052.87</ele>
<time>2019-07-25T11:17:25Z</time>
</trkpt>
<trkpt lat="44.9189305" lon="5.3993224">
<ele>1052.87</ele>
<time>2019-07-25T11:17:26Z</time>
</trkpt>
<trkpt lat="44.9189305" lon="5.3993228">
<ele>1052.87</ele>
<time>2019-07-25T11:17:27Z</time>
</trkpt>
<trkpt lat="44.9189303" lon="5.3993235">
<ele>1052.87</ele>
<time>2019-07-25T11:17:28Z</time>
</trkpt>
<trkpt lat="44.9189269" lon="5.3993270">
<ele>1052.88</ele>
<time>2019-07-25T11:17:29Z</time>
</trkpt>
<trkpt lat="44.9189270" lon="5.3993267">
<ele>1052.88</ele>
<time>2019-07-25T11:17:30Z</time>
</trkpt>
<trkpt lat="44.9189264" lon="5.3993259">
<ele>1052.88</ele>
<time>2019-07-25T11:17:31Z</time>
</trkpt>
<trkpt lat="44.9189271" lon="5.3993245">
<ele>1052.88</ele>
<time>2019-07-25T11:17:32Z</time>
</trkpt>
<trkpt lat="44.9189271" lon="5.3993235">
<ele>1052.88</ele>
<time>2019-07-25T11:17:33Z</time>
</trkpt>
<trkpt lat="44.9189275" lon="5.3993231">
<ele>1052.89</ele>
<time>2019-07-25T11:17:34Z</time>
</trkpt>
<trkpt lat="44.9189279" lon="5.3993230">
<ele>1052.89</ele>
<time>2019-07-25T11:17:35Z</time>
</trkpt>
<trkpt lat="44.9189289" lon="5.3993221">
<ele>1052.89</ele>
<time>2019-07-25T11:17:36Z</time>
</trkpt>
<trkpt lat="44.9189291" lon="5.3993218">
<ele>1052.90</ele>
<time>2019-07-25T11:17:37Z</time>
</trkpt>
<trkpt lat="44.9189294" lon="5.3993212">
<ele>1052.90</ele>
<time>2019-07-25T11:17:38Z</time>
</trkpt>
<trkpt lat="44.9189297" lon="5.3993210">
<ele>1052.90</ele>
<time>2019-07-25T11:17:39Z</time>
</trkpt>
<trkpt lat="44.9189303" lon="5.3993217">
<ele>1052.91</ele>
<time>2019-07-25T11:17:40Z</time>
</trkpt>
<trkpt lat="44.9189304" lon="5.3993218">
<ele>1052.91</ele>
<time>2019-07-25T11:17:41Z</time>
</trkpt>
<trkpt lat="44.9189302" lon="5.3993216">
<ele>1052.92</ele>
<time>2019-07-25T11:17:42Z</time>
</trkpt>
<trkpt lat="44.9189306" lon="5.3993220">
<ele>1052.92</ele>
<time>2019-07-25T11:17:43Z</time>
</trkpt>
<trkpt lat="44.9189307" lon="5.3993208">
<ele>1052.92</ele>
<time>2019-07-25T11:17:44Z</time>
</trkpt>
<trkpt lat="44.9189308" lon="5.3993210">
<ele>1052.93</ele>
<time>2019-07-25T11:17:45Z</time>
</trkpt>
<trkpt lat="44.9189306" lon="5.3993214">
<ele>1052.93</ele>
<time>2019-07-25T11:17:46Z</time>
</trkpt>
<trkpt lat="44.9189304" lon="5.3993215">
<ele>1052.94</ele>
<time>2019-07-25T11:17:47Z</time>
</trkpt>
<trkpt lat="44.9189305" lon="5.3993216">
<ele>1052.94</ele>
<time>2019-07-25T11:17:48Z</time>
</trkpt>
<trkpt lat="44.9189309" lon="5.3993221">
<ele>1052.95</ele>
<time>2019-07-25T11:17:49Z</time>
</trkpt>
<trkpt lat="44.9189312" lon="5.3993226">
<ele>1052.95</ele>
<time>2019-07-25T11:17:50Z</time>
</trkpt>
<trkpt lat="44.9189335" lon="5.3993218">
<ele>1052.96</ele>
<time>2019-07-25T11:17:51Z</time>
</trkpt>
<trkpt lat="44.9189345" lon="5.3993216">
<ele>1052.97</ele>
<time>2019-07-25T11:17:52Z</time>
</trkpt>
<trkpt lat="44.9189352" lon="5.3993211">
<ele>1052.97</ele>
<time>2019-07-25T11:17:53Z</time>
</trkpt>
<trkpt lat="44.9189355" lon="5.3993216">
<ele>1052.98</ele>
<time>2019-07-25T11:17:54Z</time>
</trkpt>
<trkpt lat="44.9189360" lon="5.3993214">
<ele>1052.99</ele>
<time>2019-07-25T11:17:55Z</time>
</trkpt>
<trkpt lat="44.9189360" lon="5.3993208">
<ele>1052.99</ele>
<time>2019-07-25T11:17:56Z</time>
</trkpt>
<trkpt lat="44.9189360" lon="5.3993200">
<ele>1053.00</ele>
<time>2019-07-25T11:17:57Z</time>
</trkpt>
<trkpt lat="44.9189359" lon="5.3993187">
<ele>1053.01</ele>
<time>2019-07-25T11:17:58Z</time>
</trkpt>
<trkpt lat="44.9189355" lon="5.3993165">
<ele>1053.02</ele>
<time>2019-07-25T11:17:59Z</time>
</trkpt>
<trkpt lat="44.9189354" lon="5.3993156">
<ele>1053.02</ele>
<time>2019-07-25T11:18:00Z</time>
</trkpt>
<trkpt lat="44.9189353" lon="5.3993149">
<ele>1053.03</ele>
<time>2019-07-25T11:18:01Z</time>
</trkpt>
<trkpt lat="44.9189357" lon="5.3993153">
<ele>1053.04</ele>
<time>2019-07-25T11:18:02Z</time>
</trkpt>
<trkpt lat="44.9189361" lon="5.3993158">
<ele>1053.05</ele>
<time>2019-07-25T11:18:03Z</time>
</trkpt>
<trkpt lat="44.9189362" lon="5.3993161">
<ele>1053.06</ele>
<time>2019-07-25T11:18:04Z</time>
</trkpt>
<trkpt lat="44.9189364" lon="5.3993163">
<ele>1053.06</ele>
<time>2019-07-25T11:18:05Z</time>
</trkpt>
<trkpt lat="44.9189368" lon="5.3993168">
<ele>1053.07</ele>
<time>2019-07-25T11:18:06Z</time>
</trkpt>
<trkpt lat="44.9189368" lon="5.3993166">
<ele>1053.08</ele>
<time>2019-07-25T11:18:07Z</time>
</trkpt>
<trkpt lat="44.9189366" lon="5.3993158">
<ele>1053.09</ele>
<time>2019-07-25T11:18:08Z</time>
</trkpt>
<trkpt lat="44.9189367" lon="5.3993157">
<ele>1053.10</ele>
<time>2019-07-25T11:18:09Z</time>
</trkpt>
<trkpt lat="44.9189364" lon="5.3993147">
<ele>1053.11</ele>
<time>2019-07-25T11:18:10Z</time>
</trkpt>
<trkpt lat="44.9189362" lon="5.3993133">
<ele>1053.12</ele>
<time>2019-07-25T11:18:11Z</time>
</trkpt>
<trkpt lat="44.9189361" lon="5.3993119">
<ele>1053.13</ele>
<time>2019-07-25T11:18:12Z</time>
</trkpt>
<trkpt lat="44.9189364" lon="5.3993114">
<ele>1053.13</ele>
<time>2019-07-25T11:18:13Z</time>
</trkpt>
<trkpt lat="44.9189366" lon="5.3993108">
<ele>1053.14</ele>
<time>2019-07-25T11:18:14Z</time>
</trkpt>
<trkpt lat="44.9189362" lon="5.3993097">
<ele>1053.15</ele>
<time>2019-07-25T11:18:15Z</time>
</trkpt>
<trkpt lat="44.9189361" lon="5.3993094">
<ele>1053.16</ele>
<time>2019-07-25T11:18:16Z</time>
</trkpt>
<trkpt lat="44.9189361" lon="5.3993100">
<ele>1053.17</ele>
<time>2019-07-25T11:18:17Z</time>
</trkpt>
<trkpt lat="44.9189389" lon="5.3993114">
<ele>1053.18</ele>
<time>2019-07-25T11:18:18Z</time>
</trkpt>
<trkpt lat="44.9189390" lon="5.3993156">
<ele>1053.18</ele>
<time>2019-07-25T11:18:19Z</time>
</trkpt>
<trkpt lat="44.9189396" lon="5.3993187">
<ele>1053.19</ele>
<time>2019-07-25T11:18:20Z</time>
</trkpt>
<trkpt lat="44.9189395" lon="5.3993204">
<ele>1053.20</ele>
<time>2019-07-25T11:18:21Z</time>
</trkpt>
<trkpt lat="44.9189390" lon="5.3993214">
<ele>1053.21</ele>
<time>2019-07-25T11:18:22Z</time>
</trkpt>
<trkpt lat="44.9189391" lon="5.3993218">
<ele>1053.22</ele>
<time>2019-07-25T11:18:23Z</time>
</trkpt>
<trkpt lat="44.9189392" lon="5.3993223">
<ele>1053.22</ele>
<time>2019-07-25T11:18:24Z</time>
</trkpt>
<trkpt lat="44.9189392" lon="5.3993227">
<ele>1053.23</ele>
<time>2019-07-25T11:18:25Z</time>
</trkpt>
<trkpt lat="44.9189394" lon="5.3993226">
<ele>1053.24</ele>
<time>2019-07-25T11:18:26Z</time>
</trkpt>
<trkpt lat="44.9189400" lon="5.3993230">
<ele>1053.25</ele>
<time>2019-07-25T11:18:27Z</time>
</trkpt>
<trkpt lat="44.9189402" lon="5.3993231">
<ele>1053.26</ele>
<time>2019-07-25T11:18:28Z</time>
</trkpt>
<trkpt lat="44.9189405" lon="5.3993235">
<ele>1053.27</ele>
<time>2019-07-25T11:18:29Z</time>
</trkpt>
<trkpt lat="44.9189407" lon="5.3993235">
<ele>1053.27</ele>
<time>2019-07-25T11:18:30Z</time>
</trkpt>
<trkpt lat="44.9189408" lon="5.3993238">
<ele>1053.28</ele>
<time>2019-07-25T11:18:31Z</time>
</trkpt>
<trkpt lat="44.9189414" lon="5.3993234">
<ele>1053.29</ele>
<time>2019-07-25T11:18:32Z</time>
</trkpt>
<trkpt lat="44.9189409" lon="5.3993250">
<ele>1053.30</ele>
<time>2019-07-25T11:18:33Z</time>
</trkpt>
<trkpt lat="44.9189408" lon="5.3993253">
<ele>1053.31</ele>
<time>2019-07-25T11:18:34Z</time>
</trkpt>
<trkpt lat="44.9189409" lon="5.3993251">
<ele>1053.32</ele>
<time>2019-07-25T11:18:35Z</time>
</trkpt>
<trkpt lat="44.9189405" lon="5.3993252">
<ele>1053.33</ele>
<time>2019-07-25T11:18:36Z</time>
</trkpt>
<trkpt lat="44.9189405" lon="5.3993251">
<ele>1053.34</ele>
<time>2019-07-25T11:18:37Z</time>
</trkpt>
<trkpt lat="44.9189420" lon="5.3993260">
<ele>1053.35</ele>
<time>2019-07-25T11:18:38Z</time>
</trkpt>
<trkpt lat="44.9189434" lon="5.3993264">
<ele>1053.36</ele>
<time>2019-07-25T11:18:39Z</time>
</trkpt>
<trkpt lat="44.9189494" lon="5.3993295">
<ele>1053.47</ele>
<time>2019-07-25T11:18:40Z</time>
</trkpt>
<trkpt lat="44.9189508" lon="5.3993333">
<ele>1053.57</ele>
<time>2019-07-25T11:18:41Z</time>
</trkpt>
<trkpt lat="44.9189645" lon="5.3993141">
<ele>1053.58</ele>
<time>2019-07-25T11:18:42Z</time>
</trkpt>
<trkpt lat="44.9189761" lon="5.3993094">
<ele>1053.59</ele>
<time>2019-07-25T11:18:43Z</time>
</trkpt>
<trkpt lat="44.9189884" lon="5.3992999">
<ele>1053.60</ele>
<time>2019-07-25T11:18:44Z</time>
</trkpt>
<trkpt lat="44.9189849" lon="5.3993039">
<ele>1053.62</ele>
<time>2019-07-25T11:18:45Z</time>
</trkpt>
<trkpt lat="44.9189845" lon="5.3993046">
<ele>1053.63</ele>
<time>2019-07-25T11:18:46Z</time>
</trkpt>
<trkpt lat="44.9189846" lon="5.3993035">
<ele>1053.64</ele>
<time>2019-07-25T11:18:47Z</time>
</trkpt>
<trkpt lat="44.9189840" lon="5.3993021">
<ele>1053.65</ele>
<time>2019-07-25T11:18:48Z</time>
</trkpt>
<trkpt lat="44.9189834" lon="5.3993007">
<ele>1053.66</ele>
<time>2019-07-25T11:18:49Z</time>
</trkpt>
<trkpt lat="44.9189833" lon="5.3993005">
<ele>1053.67</ele>
<time>2019-07-25T11:18:50Z</time>
</trkpt>
<trkpt lat="44.9189845" lon="5.3993010">
<ele>1053.69</ele>
<time>2019-07-25T11:18:51Z</time>
</trkpt>
<trkpt lat="44.9189856" lon="5.3993008">
<ele>1053.70</ele>
<time>2019-07-25T11:18:52Z</time>
</trkpt>
<trkpt lat="44.9189852" lon="5.3993020">
<ele>1053.71</ele>
<time>2019-07-25T11:18:53Z</time>
</trkpt>
<trkpt lat="44.9189849" lon="5.3993028">
<ele>1053.72</ele>
<time>2019-07-25T11:18:54Z</time>
</trkpt>
<trkpt lat="44.9189858" lon="5.3993032">
<ele>1053.73</ele>
<time>2019-07-25T11:18:55Z</time>
</trkpt>
<trkpt lat="44.9189869" lon="5.3993020">
<ele>1053.75</ele>
<time>2019-07-25T11:18:56Z</time>
</trkpt>
<trkpt lat="44.9189922" lon="5.3993033">
<ele>1053.76</ele>
<time>2019-07-25T11:18:57Z</time>
</trkpt>
<trkpt lat="44.9189945" lon="5.3993060">
<ele>1053.77</ele>
<time>2019-07-25T11:18:58Z</time>
</trkpt>
<trkpt lat="44.9190047" lon="5.3993031">
<ele>1053.78</ele>
<time>2019-07-25T11:18:59Z</time>
</trkpt>
<trkpt lat="44.9190055" lon="5.3993025">
<ele>1053.80</ele>
<time>2019-07-25T11:19:00Z</time>
</trkpt>
<trkpt lat="44.9190053" lon="5.3993017">
<ele>1053.81</ele>
<time>2019-07-25T11:19:01Z</time>
</trkpt>
<trkpt lat="44.9190057" lon="5.3993010">
<ele>1053.82</ele>
<time>2019-07-25T11:19:02Z</time>
</trkpt>
<trkpt lat="44.9190054" lon="5.3993009">
<ele>1053.83</ele>
<time>2019-07-25T11:19:03Z</time>
</trkpt>
<trkpt lat="44.9190043" lon="5.3992996">
<ele>1053.85</ele>
<time>2019-07-25T11:19:04Z</time>
</trkpt>
<trkpt lat="44.9190046" lon="5.3993014">
<ele>1053.86</ele>
<time>2019-07-25T11:19:05Z</time>
</trkpt>
<trkpt lat="44.9190052" lon="5.3993029">
<ele>1053.87</ele>
<time>2019-07-25T11:19:06Z</time>
</trkpt>
<trkpt lat="44.9190051" lon="5.3993031">
<ele>1053.88</ele>
<time>2019-07-25T11:19:07Z</time>
</trkpt>
<trkpt lat="44.9190050" lon="5.3993046">
<ele>1053.89</ele>
<time>2019-07-25T11:19:08Z</time>
</trkpt>
<trkpt lat="44.9190052" lon="5.3993060">
<ele>1053.90</ele>
<time>2019-07-25T11:19:09Z</time>
</trkpt>
<trkpt lat="44.9190048" lon="5.3993071">
<ele>1053.91</ele>
<time>2019-07-25T11:19:10Z</time>
</trkpt>
<trkpt lat="44.9190048" lon="5.3993073">
<ele>1053.92</ele>
<time>2019-07-25T11:19:11Z</time>
</trkpt>
<trkpt lat="44.9190045" lon="5.3993059">
<ele>1053.93</ele>
<time>2019-07-25T11:19:12Z</time>
</trkpt>
<trkpt lat="44.9190033" lon="5.3993059">
<ele>1053.94</ele>
<time>2019-07-25T11:19:13Z</time>
</trkpt>
<trkpt lat="44.9190023" lon="5.3993038">
<ele>1053.95</ele>
<time>2019-07-25T11:19:14Z</time>
</trkpt>
<trkpt lat="44.9190021" lon="5.3993041">
<ele>1053.96</ele>
<time>2019-07-25T11:19:15Z</time>
</trkpt>
<trkpt lat="44.9190026" lon="5.3993061">
<ele>1053.97</ele>
<time>2019-07-25T11:19:16Z</time>
</trkpt>
<trkpt lat="44.9190025" lon="5.3993065">
<ele>1053.98</ele>
<time>2019-07-25T11:19:17Z</time>
</trkpt>
<trkpt lat="44.9190029" lon="5.3993074">
<ele>1053.98</ele>
<time>2019-07-25T11:19:18Z</time>
</trkpt>
<trkpt lat="44.9190033" lon="5.3993089">
<ele>1053.99</ele>
<time>2019-07-25T11:19:19Z</time>
</trkpt>
<trkpt lat="44.9190041" lon="5.3993115">
<ele>1054.00</ele>
<time>2019-07-25T11:19:20Z</time>
</trkpt>
<trkpt lat="44.9190047" lon="5.3993142">
<ele>1054.01</ele>
<time>2019-07-25T11:19:21Z</time>
</trkpt>
<trkpt lat="44.9190050" lon="5.3993162">
<ele>1054.01</ele>
<time>2019-07-25T11:19:22Z</time>
</trkpt>
<trkpt lat="44.9190054" lon="5.3993183">
<ele>1054.02</ele>
<time>2019-07-25T11:19:23Z</time>
</trkpt>
<trkpt lat="44.9190060" lon="5.3993210">
<ele>1054.03</ele>
<time>2019-07-25T11:19:24Z</time>
</trkpt>
<trkpt lat="44.9190065" lon="5.3993228">
<ele>1054.03</ele>
<time>2019-07-25T11:19:25Z</time>
</trkpt>
<trkpt lat="44.9190069" lon="5.3993237">
<ele>1054.04</ele>
<time>2019-07-25T11:19:26Z</time>
</trkpt>
<trkpt lat="44.9190072" lon="5.3993252">
<ele>1054.05</ele>
<time>2019-07-25T11:19:27Z</time>
</trkpt>
<trkpt lat="44.9190087" lon="5.3993302">
<ele>1054.05</ele>
<time>2019-07-25T11:19:28Z</time>
</trkpt>
<trkpt lat="44.9190051" lon="5.3993317">
<ele>1054.12</ele>
<time>2019-07-25T11:19:29Z</time>
</trkpt>
<trkpt lat="44.9189982" lon="5.3993353">
<ele>1054.13</ele>
<time>2019-07-25T11:19:30Z</time>
</trkpt>
<trkpt lat="44.9189976" lon="5.3993344">
<ele>1054.14</ele>
<time>2019-07-25T11:19:31Z</time>
</trkpt>
<trkpt lat="44.9189973" lon="5.3993341">
<ele>1054.14</ele>
<time>2019-07-25T11:19:32Z</time>
</trkpt>
<trkpt lat="44.9189969" lon="5.3993328">
<ele>1054.15</ele>
<time>2019-07-25T11:19:33Z</time>
</trkpt>
<trkpt lat="44.9189962" lon="5.3993311">
<ele>1054.16</ele>
<time>2019-07-25T11:19:34Z</time>
</trkpt>
<trkpt lat="44.9189956" lon="5.3993293">
<ele>1054.17</ele>
<time>2019-07-25T11:19:35Z</time>
</trkpt>
<trkpt lat="44.9189946" lon="5.3993280">
<ele>1054.17</ele>
<time>2019-07-25T11:19:36Z</time>
</trkpt>
<trkpt lat="44.9189925" lon="5.3993255">
<ele>1054.18</ele>
<time>2019-07-25T11:19:37Z</time>
</trkpt>
<trkpt lat="44.9189907" lon="5.3993221">
<ele>1054.19</ele>
<time>2019-07-25T11:19:38Z</time>
</trkpt>
<trkpt lat="44.9189896" lon="5.3993199">
<ele>1054.19</ele>
<time>2019-07-25T11:19:39Z</time>
</trkpt>
<trkpt lat="44.9189889" lon="5.3993190">
<ele>1054.20</ele>
<time>2019-07-25T11:19:40Z</time>
</trkpt>
<trkpt lat="44.9189897" lon="5.3993186">
<ele>1054.21</ele>
<time>2019-07-25T11:19:41Z</time>
</trkpt>
<trkpt lat="44.9189912" lon="5.3993183">
<ele>1054.21</ele>
<time>2019-07-25T11:19:42Z</time>
</trkpt>
<trkpt lat="44.9189899" lon="5.3993230">
<ele>1054.22</ele>
<time>2019-07-25T11:19:43Z</time>
</trkpt>
<trkpt lat="44.9189897" lon="5.3993240">
<ele>1054.23</ele>
<time>2019-07-25T11:19:44Z</time>
</trkpt>
<trkpt lat="44.9189863" lon="5.3993290">
<ele>1054.23</ele>
<time>2019-07-25T11:19:45Z</time>
</trkpt>
<trkpt lat="44.9189818" lon="5.3993266">
<ele>1054.30</ele>
<time>2019-07-25T11:19:46Z</time>
</trkpt>
<trkpt lat="44.9189763" lon="5.3993393">
<ele>1054.31</ele>
<time>2019-07-25T11:19:47Z</time>
</trkpt>
<trkpt lat="44.9189763" lon="5.3993402">
<ele>1054.31</ele>
<time>2019-07-25T11:19:48Z</time>
</trkpt>
<trkpt lat="44.9189762" lon="5.3993397">
<ele>1054.32</ele>
<time>2019-07-25T11:19:49Z</time>
</trkpt>
<trkpt lat="44.9189756" lon="5.3993398">
<ele>1054.33</ele>
<time>2019-07-25T11:19:50Z</time>
</trkpt>
<trkpt lat="44.9189754" lon="5.3993394">
<ele>1054.33</ele>
<time>2019-07-25T11:19:51Z</time>
</trkpt>
<trkpt lat="44.9189753" lon="5.3993390">
<ele>1054.34</ele>
<time>2019-07-25T11:19:52Z</time>
</trkpt>
<trkpt lat="44.9189751" lon="5.3993382">
<ele>1054.35</ele>
<time>2019-07-25T11:19:53Z</time>
</trkpt>
<trkpt lat="44.9189749" lon="5.3993375">
<ele>1054.35</ele>
<time>2019-07-25T11:19:54Z</time>
</trkpt>
<trkpt lat="44.9189748" lon="5.3993369">
<ele>1054.36</ele>
<time>2019-07-25T11:19:55Z</time>
</trkpt>
<trkpt lat="44.9189746" lon="5.3993372">
<ele>1054.37</ele>
<time>2019-07-25T11:19:56Z</time>
</trkpt>
<trkpt lat="44.9189735" lon="5.3993377">
<ele>1054.37</ele>
<time>2019-07-25T11:19:57Z</time>
</trkpt>
<trkpt lat="44.9189729" lon="5.3993377">
<ele>1054.38</ele>
<time>2019-07-25T11:19:58Z</time>
</trkpt>
<trkpt lat="44.9189722" lon="5.3993376">
<ele>1054.39</ele>
<time>2019-07-25T11:19:59Z</time>
</trkpt>
<trkpt lat="44.9189697" lon="5.3993351">
<ele>1054.39</ele>
<time>2019-07-25T11:20:00Z</time>
</trkpt>
<trkpt lat="44.9189688" lon="5.3993342">
<ele>1054.40</ele>
<time>2019-07-25T11:20:01Z</time>
</trkpt>
<trkpt lat="44.9189681" lon="5.3993343">
<ele>1054.41</ele>
<time>2019-07-25T11:20:02Z</time>
</trkpt>
<trkpt lat="44.9189651" lon="5.3993334">
<ele>1054.42</ele>
<time>2019-07-25T11:20:03Z</time>
</trkpt>
<trkpt lat="44.9189630" lon="5.3993334">
<ele>1054.43</ele>
<time>2019-07-25T11:20:04Z</time>
</trkpt>
<trkpt lat="44.9189603" lon="5.3993325">
<ele>1054.44</ele>
<time>2019-07-25T11:20:05Z</time>
</trkpt>
<trkpt lat="44.9189593" lon="5.3993324">
<ele>1054.45</ele>
<time>2019-07-25T11:20:06Z</time>
</trkpt>
<trkpt lat="44.9189564" lon="5.3993326">
<ele>1054.46</ele>
<time>2019-07-25T11:20:07Z</time>
</trkpt>
<trkpt lat="44.9189527" lon="5.3993327">
<ele>1054.47</ele>
<time>2019-07-25T11:20:08Z</time>
</trkpt>
<trkpt lat="44.9189508" lon="5.3993324">
<ele>1054.48</ele>
<time>2019-07-25T11:20:09Z</time>
</trkpt>
<trkpt lat="44.9189479" lon="5.3993306">
<ele>1054.50</ele>
<time>2019-07-25T11:20:10Z</time>
</trkpt>
<trkpt lat="44.9189474" lon="5.3993305">
<ele>1054.51</ele>
<time>2019-07-25T11:20:11Z</time>
</trkpt>
<trkpt lat="44.9189454" lon="5.3993307">
<ele>1054.52</ele>
<time>2019-07-25T11:20:12Z</time>
</trkpt>
<trkpt lat="44.9189444" lon="5.3993297">
<ele>1054.53</ele>
<time>2019-07-25T11:20:13Z</time>
</trkpt>
<trkpt lat="44.9189426" lon="5.3993282">
<ele>1054.54</ele>
<time>2019-07-25T11:20:14Z</time>
</trkpt>
<trkpt lat="44.9189414" lon="5.3993297">
<ele>1054.55</ele>
<time>2019-07-25T11:20:15Z</time>
</trkpt>
<trkpt lat="44.9189411" lon="5.3993316">
<ele>1054.56</ele>
<time>2019-07-25T11:20:16Z</time>
</trkpt>
<trkpt lat="44.9189408" lon="5.3993320">
<ele>1054.58</ele>
<time>2019-07-25T11:20:17Z</time>
</trkpt>
<trkpt lat="44.9189318" lon="5.3993380">
<ele>1054.59</ele>
<time>2019-07-25T11:20:18Z</time>
</trkpt>
<trkpt lat="44.9189236" lon="5.3993358">
<ele>1054.60</ele>
<time>2019-07-25T11:20:19Z</time>
</trkpt>
<trkpt lat="44.9189173" lon="5.3993336">
<ele>1054.61</ele>
<time>2019-07-25T11:20:20Z</time>
</trkpt>
<trkpt lat="44.9189168" lon="5.3993336">
<ele>1054.62</ele>
<time>2019-07-25T11:20:21Z</time>
</trkpt>
<trkpt lat="44.9189161" lon="5.3993321">
<ele>1054.63</ele>
<time>2019-07-25T11:20:22Z</time>
</trkpt>
<trkpt lat="44.9188937" lon="5.3993301">
<ele>1054.64</ele>
<time>2019-07-25T11:20:23Z</time>
</trkpt>
<trkpt lat="44.9188650" lon="5.3993337">
<ele>1054.66</ele>
<time>2019-07-25T11:20:24Z</time>
</trkpt>
<trkpt lat="44.9188557" lon="5.3993280">
<ele>1054.67</ele>
<time>2019-07-25T11:20:25Z</time>
</trkpt>
<trkpt lat="44.9188415" lon="5.3993330">
<ele>1054.68</ele>
<time>2019-07-25T11:20:26Z</time>
</trkpt>
<trkpt lat="44.9188388" lon="5.3993300">
<ele>1054.79</ele>
<time>2019-07-25T11:20:27Z</time>
</trkpt>
<trkpt lat="44.9188362" lon="5.3993234">
<ele>1054.90</ele>
<time>2019-07-25T11:20:28Z</time>
</trkpt>
<trkpt lat="44.9188320" lon="5.3993232">
<ele>1055.01</ele>
<time>2019-07-25T11:20:29Z</time>
</trkpt>
<trkpt lat="44.9188272" lon="5.3993267">
<ele>1055.11</ele>
<time>2019-07-25T11:20:30Z</time>
</trkpt>
<trkpt lat="44.9188329" lon="5.3993153">
<ele>1055.12</ele>
<time>2019-07-25T11:20:31Z</time>
</trkpt>
<trkpt lat="44.9188332" lon="5.3993156">
<ele>1055.13</ele>
<time>2019-07-25T11:20:32Z</time>
</trkpt>
<trkpt lat="44.9188337" lon="5.3993164">
<ele>1055.14</ele>
<time>2019-07-25T11:20:33Z</time>
</trkpt>
<trkpt lat="44.9188350" lon="5.3993231">
<ele>1055.15</ele>
<time>2019-07-25T11:20:34Z</time>
</trkpt>
<trkpt lat="44.9188355" lon="5.3993232">
<ele>1055.16</ele>
<time>2019-07-25T11:20:35Z</time>
</trkpt>
<trkpt lat="44.9188354" lon="5.3993220">
<ele>1055.17</ele>
<time>2019-07-25T11:20:36Z</time>
</trkpt>
<trkpt lat="44.9188352" lon="5.3993212">
<ele>1055.18</ele>
<time>2019-07-25T11:20:37Z</time>
</trkpt>
<trkpt lat="44.9188352" lon="5.3993207">
<ele>1055.19</ele>
<time>2019-07-25T11:20:38Z</time>
</trkpt>
<trkpt lat="44.9188352" lon="5.3993180">
<ele>1055.20</ele>
<time>2019-07-25T11:20:39Z</time>
</trkpt>
<trkpt lat="44.9188358" lon="5.3993187">
<ele>1055.21</ele>
<time>2019-07-25T11:20:40Z</time>
</trkpt>
<trkpt lat="44.9188371" lon="5.3993179">
<ele>1055.22</ele>
<time>2019-07-25T11:20:41Z</time>
</trkpt>
<trkpt lat="44.9188388" lon="5.3993175">
<ele>1055.23</ele>
<time>2019-07-25T11:20:42Z</time>
</trkpt>
<trkpt lat="44.9188411" lon="5.3993173">
<ele>1055.24</ele>
<time>2019-07-25T11:20:43Z</time>
</trkpt>
<trkpt lat="44.9188433" lon="5.3993173">
<ele>1055.25</ele>
<time>2019-07-25T11:20:44Z</time>
</trkpt>
<trkpt lat="44.9188444" lon="5.3993171">
<ele>1055.26</ele>
<time>2019-07-25T11:20:45Z</time>
</trkpt>
<trkpt lat="44.9188460" lon="5.3993168">
<ele>1055.27</ele>
<time>2019-07-25T11:20:46Z</time>
</trkpt>
<trkpt lat="44.9188470" lon="5.3993159">
<ele>1055.28</ele>
<time>2019-07-25T11:20:47Z</time>
</trkpt>
<trkpt lat="44.9188490" lon="5.3993162">
<ele>1055.29</ele>
<time>2019-07-25T11:20:48Z</time>
</trkpt>
<trkpt lat="44.9188496" lon="5.3993164">
<ele>1055.30</ele>
<time>2019-07-25T11:20:49Z</time>
</trkpt>
<trkpt lat="44.9188497" lon="5.3993166">
<ele>1055.31</ele>
<time>2019-07-25T11:20:50Z</time>
</trkpt>
<trkpt lat="44.9188499" lon="5.3993167">
<ele>1055.32</ele>
<time>2019-07-25T11:20:51Z</time>
</trkpt>
<trkpt lat="44.9188503" lon="5.3993166">
<ele>1055.33</ele>
<time>2019-07-25T11:20:52Z</time>
</trkpt>
<trkpt lat="44.9188504" lon="5.3993155">
<ele>1055.34</ele>
<time>2019-07-25T11:20:53Z</time>
</trkpt>
<trkpt lat="44.9188504" lon="5.3993143">
<ele>1055.35</ele>
<time>2019-07-25T11:20:54Z</time>
</trkpt>
<trkpt lat="44.9188510" lon="5.3993135">
<ele>1055.35</ele>
<time>2019-07-25T11:20:55Z</time>
</trkpt>
<trkpt lat="44.9188509" lon="5.3993127">
<ele>1055.36</ele>
<time>2019-07-25T11:20:56Z</time>
</trkpt>
<trkpt lat="44.9188509" lon="5.3993124">
<ele>1055.37</ele>
<time>2019-07-25T11:20:57Z</time>
</trkpt>
<trkpt lat="44.9188508" lon="5.3993128">
<ele>1055.38</ele>
<time>2019-07-25T11:20:58Z</time>
</trkpt>
<trkpt lat="44.9188509" lon="5.3993129">
<ele>1055.39</ele>
<time>2019-07-25T11:20:59Z</time>
</trkpt>
<trkpt lat="44.9188508" lon="5.3993133">
<ele>1055.40</ele>
<time>2019-07-25T11:21:00Z</time>
</trkpt>
<trkpt lat="44.9188529" lon="5.3993193">
<ele>1055.48</ele>
<time>2019-07-25T11:21:01Z</time>
</trkpt>
<trkpt lat="44.9188552" lon="5.3993193">
<ele>1055.49</ele>
<time>2019-07-25T11:21:02Z</time>
</trkpt>
<trkpt lat="44.9188602" lon="5.3993218">
<ele>1055.57</ele>
<time>2019-07-25T11:21:03Z</time>
</trkpt>
<trkpt lat="44.9188607" lon="5.3993236">
<ele>1055.58</ele>
<time>2019-07-25T11:21:04Z</time>
</trkpt>
<trkpt lat="44.9188607" lon="5.3993232">
<ele>1055.59</ele>
<time>2019-07-25T11:21:05Z</time>
</trkpt>
<trkpt lat="44.9188606" lon="5.3993233">
<ele>1055.60</ele>
<time>2019-07-25T11:21:06Z</time>
</trkpt>
<trkpt lat="44.9188607" lon="5.3993235">
<ele>1055.60</ele>
<time>2019-07-25T11:21:07Z</time>
</trkpt>
<trkpt lat="44.9188607" lon="5.3993235">
<ele>1055.61</ele>
<time>2019-07-25T11:21:08Z</time>
</trkpt>
<trkpt lat="44.9188608" lon="5.3993232">
<ele>1055.62</ele>
<time>2019-07-25T11:21:09Z</time>
</trkpt>
<trkpt lat="44.9188609" lon="5.3993234">
<ele>1055.63</ele>
<time>2019-07-25T11:21:10Z</time>
</trkpt>
<trkpt lat="44.9188610" lon="5.3993232">
<ele>1055.64</ele>
<time>2019-07-25T11:21:11Z</time>
</trkpt>
<trkpt lat="44.9188610" lon="5.3993227">
<ele>1055.65</ele>
<time>2019-07-25T11:21:12Z</time>
</trkpt>
<trkpt lat="44.9188610" lon="5.3993222">
<ele>1055.66</ele>
<time>2019-07-25T11:21:13Z</time>
</trkpt>
<trkpt lat="44.9188610" lon="5.3993218">
<ele>1055.67</ele>
<time>2019-07-25T11:21:14Z</time>
</trkpt>
<trkpt lat="44.9188611" lon="5.3993212">
<ele>1055.67</ele>
<time>2019-07-25T11:21:15Z</time>
</trkpt>
<trkpt lat="44.9188612" lon="5.3993205">
<ele>1055.68</ele>
<time>2019-07-25T11:21:16Z</time>
</trkpt>
<trkpt lat="44.9188612" lon="5.3993191">
<ele>1055.69</ele>
<time>2019-07-25T11:21:17Z</time>
</trkpt>
<trkpt lat="44.9188613" lon="5.3993171">
<ele>1055.70</ele>
<time>2019-07-25T11:21:18Z</time>
</trkpt>
<trkpt lat="44.9188614" lon="5.3993159">
<ele>1055.71</ele>
<time>2019-07-25T11:21:19Z</time>
</trkpt>
<trkpt lat="44.9188615" lon="5.3993153">
<ele>1055.72</ele>
<time>2019-07-25T11:21:20Z</time>
</trkpt>
<trkpt lat="44.9188616" lon="5.3993154">
<ele>1055.72</ele>
<time>2019-07-25T11:21:21Z</time>
</trkpt>
<trkpt lat="44.9188617" lon="5.3993160">
<ele>1055.73</ele>
<time>2019-07-25T11:21:22Z</time>
</trkpt>
<trkpt lat="44.9188619" lon="5.3993161">
<ele>1055.74</ele>
<time>2019-07-25T11:21:23Z</time>
</trkpt>
<trkpt lat="44.9188621" lon="5.3993162">
<ele>1055.75</ele>
<time>2019-07-25T11:21:24Z</time>
</trkpt>
<trkpt lat="44.9188623" lon="5.3993167">
<ele>1055.76</ele>
<time>2019-07-25T11:21:25Z</time>
</trkpt>
<trkpt lat="44.9188625" lon="5.3993165">
<ele>1055.77</ele>
<time>2019-07-25T11:21:26Z</time>
</trkpt>
<trkpt lat="44.9188626" lon="5.3993161">
<ele>1055.78</ele>
<time>2019-07-25T11:21:27Z</time>
</trkpt>
<trkpt lat="44.9188628" lon="5.3993162">
<ele>1055.79</ele>
<time>2019-07-25T11:21:28Z</time>
</trkpt>
<trkpt lat="44.9188633" lon="5.3993167">
<ele>1055.80</ele>
<time>2019-07-25T11:21:29Z</time>
</trkpt>
<trkpt lat="44.9188636" lon="5.3993159">
<ele>1055.81</ele>
<time>2019-07-25T11:21:30Z</time>
</trkpt>
<trkpt lat="44.9188639" lon="5.3993151">
<ele>1055.81</ele>
<time>2019-07-25T11:21:31Z</time>
</trkpt>
<trkpt lat="44.9188641" lon="5.3993144">
<ele>1055.82</ele>
<time>2019-07-25T11:21:32Z</time>
</trkpt>
<trkpt lat="44.9188645" lon="5.3993140">
<ele>1055.83</ele>
<time>2019-07-25T11:21:33Z</time>
</trkpt>
<trkpt lat="44.9188652" lon="5.3993130">
<ele>1055.84</ele>
<time>2019-07-25T11:21:34Z</time>
</trkpt>
<trkpt lat="44.9188657" lon="5.3993126">
<ele>1055.85</ele>
<time>2019-07-25T11:21:35Z</time>
</trkpt>
<trkpt lat="44.9188661" lon="5.3993123">
<ele>1055.86</ele>
<time>2019-07-25T11:21:36Z</time>
</trkpt>
<trkpt lat="44.9188666" lon="5.3993116">
<ele>1055.87</ele>
<time>2019-07-25T11:21:37Z</time>
</trkpt>
<trkpt lat="44.9188671" lon="5.3993113">
<ele>1055.88</ele>
<time>2019-07-25T11:21:38Z</time>
</trkpt>
<trkpt lat="44.9188675" lon="5.3993113">
<ele>1055.89</ele>
<time>2019-07-25T11:21:39Z</time>
</trkpt>
<trkpt lat="44.9188683" lon="5.3993109">
<ele>1055.90</ele>
<time>2019-07-25T11:21:40Z</time>
</trkpt>
<trkpt lat="44.9188692" lon="5.3993106">
<ele>1055.91</ele>
<time>2019-07-25T11:21:41Z</time>
</trkpt>
<trkpt lat="44.9188703" lon="5.3993102">
<ele>1055.92</ele>
<time>2019-07-25T11:21:42Z</time>
</trkpt>
<trkpt lat="44.9188710" lon="5.3993102">
<ele>1055.93</ele>
<time>2019-07-25T11:21:43Z</time>
</trkpt>
<trkpt lat="44.9188715" lon="5.3993101">
<ele>1055.94</ele>
<time>2019-07-25T11:21:44Z</time>
</trkpt>
<trkpt lat="44.9188720" lon="5.3993092">
<ele>1055.95</ele>
<time>2019-07-25T11:21:45Z</time>
</trkpt>
<trkpt lat="44.9188737" lon="5.3993092">
<ele>1055.96</ele>
<time>2019-07-25T11:21:46Z</time>
</trkpt>
<trkpt lat="44.9188766" lon="5.3993081">
<ele>1055.97</ele>
<time>2019-07-25T11:21:47Z</time>
</trkpt>
<trkpt lat="44.9188810" lon="5.3993151">
<ele>1056.06</ele>
<time>2019-07-25T11:21:48Z</time>
</trkpt>
<trkpt lat="44.9188818" lon="5.3993239">
<ele>1056.15</ele>
<time>2019-07-25T11:21:49Z</time>
</trkpt>
<trkpt lat="44.9188855" lon="5.3993277">
<ele>1056.24</ele>
<time>2019-07-25T11:21:50Z</time>
</trkpt>
<trkpt lat="44.9188893" lon="5.3993238">
<ele>1056.25</ele>
<time>2019-07-25T11:21:51Z</time>
</trkpt>
<trkpt lat="44.9188894" lon="5.3993241">
<ele>1056.26</ele>
<time>2019-07-25T11:21:52Z</time>
</trkpt>
<trkpt lat="44.9188894" lon="5.3993233">
<ele>1056.26</ele>
<time>2019-07-25T11:21:53Z</time>
</trkpt>
<trkpt lat="44.9188897" lon="5.3993219">
<ele>1056.27</ele>
<time>2019-07-25T11:21:54Z</time>
</trkpt>
<trkpt lat="44.9188895" lon="5.3993222">
<ele>1056.28</ele>
<time>2019-07-25T11:21:55Z</time>
</trkpt>
<trkpt lat="44.9188887" lon="5.3993130">
<ele>1056.37</ele>
<time>2019-07-25T11:21:56Z</time>
</trkpt>
<trkpt lat="44.9188882" lon="5.3993086">
<ele>1056.45</ele>
<time>2019-07-25T11:21:57Z</time>
</trkpt>
<trkpt lat="44.9188827" lon="5.3993099">
<ele>1056.53</ele>
<time>2019-07-25T11:21:58Z</time>
</trkpt>
<trkpt lat="44.9188823" lon="5.3993126">
<ele>1056.54</ele>
<time>2019-07-25T11:21:59Z</time>
</trkpt>
<trkpt lat="44.9188822" lon="5.3993125">
<ele>1056.55</ele>
<time>2019-07-25T11:22:00Z</time>
</trkpt>
<trkpt lat="44.9188825" lon="5.3993120">
<ele>1056.56</ele>
<time>2019-07-25T11:22:01Z</time>
</trkpt>
<trkpt lat="44.9188829" lon="5.3993123">
<ele>1056.56</ele>
<time>2019-07-25T11:22:02Z</time>
</trkpt>
<trkpt lat="44.9188832" lon="5.3993119">
<ele>1056.57</ele>
<time>2019-07-25T11:22:03Z</time>
</trkpt>
<trkpt lat="44.9188834" lon="5.3993112">
<ele>1056.58</ele>
<time>2019-07-25T11:22:04Z</time>
</trkpt>
<trkpt lat="44.9188836" lon="5.3993105">
<ele>1056.59</ele>
<time>2019-07-25T11:22:05Z</time>
</trkpt>
<trkpt lat="44.9188838" lon="5.3993097">
<ele>1056.60</ele>
<time>2019-07-25T11:22:06Z</time>
</trkpt>
<trkpt lat="44.9188842" lon="5.3993079">
<ele>1056.61</ele>
<time>2019-07-25T11:22:07Z</time>
</trkpt>
<trkpt lat="44.9188844" lon="5.3993058">
<ele>1056.62</ele>
<time>2019-07-25T11:22:08Z</time>
</trkpt>
<trkpt lat="44.9188845" lon="5.3993037">
<ele>1056.63</ele>
<time>2019-07-25T11:22:09Z</time>
</trkpt>
<trkpt lat="44.9188844" lon="5.3993026">
<ele>1056.63</ele>
<time>2019-07-25T11:22:10Z</time>
</trkpt>
<trkpt lat="44.9188846" lon="5.3993024">
<ele>1056.64</ele>
<time>2019-07-25T11:22:11Z</time>
</trkpt>
<trkpt lat="44.9188847" lon="5.3993024">
<ele>1056.65</ele>
<time>2019-07-25T11:22:12Z</time>
</trkpt>
<trkpt lat="44.9188848" lon="5.3993024">
<ele>1056.66</ele>
<time>2019-07-25T11:22:13Z</time>
</trkpt>
<trkpt lat="44.9188849" lon="5.3993021">
<ele>1056.67</ele>
<time>2019-07-25T11:22:14Z</time>
</trkpt>
<trkpt lat="44.9188849" lon="5.3993014">
<ele>1056.67</ele>
<time>2019-07-25T11:22:15Z</time>
</trkpt>
<trkpt lat="44.9188849" lon="5.3993007">
<ele>1056.68</ele>
<time>2019-07-25T11:22:16Z</time>
</trkpt>
<trkpt lat="44.9188850" lon="5.3993003">
<ele>1056.69</ele>
<time>2019-07-25T11:22:17Z</time>
</trkpt>
<trkpt lat="44.9188851" lon="5.3992999">
<ele>1056.69</ele>
<time>2019-07-25T11:22:18Z</time>
</trkpt>
<trkpt lat="44.9188852" lon="5.3992993">
<ele>1056.70</ele>
<time>2019-07-25T11:22:19Z</time>
</trkpt>
<trkpt lat="44.9188854" lon="5.3992997">
<ele>1056.71</ele>
<time>2019-07-25T11:22:20Z</time>
</trkpt>
<trkpt lat="44.9188856" lon="5.3992999">
<ele>1056.71</ele>
<time>2019-07-25T11:22:21Z</time>
</trkpt>
<trkpt lat="44.9188857" lon="5.3993005">
<ele>1056.72</ele>
<time>2019-07-25T11:22:22Z</time>
</trkpt>
<trkpt lat="44.9188855" lon="5.3992998">
<ele>1056.73</ele>
<time>2019-07-25T11:22:23Z</time>
</trkpt>
<trkpt lat="44.9188854" lon="5.3992991">
<ele>1056.73</ele>
<time>2019-07-25T11:22:24Z</time>
</trkpt>
<trkpt lat="44.9188857" lon="5.3992981">
<ele>1056.74</ele>
<time>2019-07-25T11:22:25Z</time>
</trkpt>
<trkpt lat="44.9188854" lon="5.3992975">
<ele>1056.74</ele>
<time>2019-07-25T11:22:26Z</time>
</trkpt>
<trkpt lat="44.9188856" lon="5.3992969">
<ele>1056.75</ele>
<time>2019-07-25T11:22:27Z</time>
</trkpt>
<trkpt lat="44.9188857" lon="5.3992968">
<ele>1056.75</ele>
<time>2019-07-25T11:22:28Z</time>
</trkpt>
<trkpt lat="44.9188860" lon="5.3992965">
<ele>1056.76</ele>
<time>2019-07-25T11:22:29Z</time>
</trkpt>
<trkpt lat="44.9188858" lon="5.3992964">
<ele>1056.77</ele>
<time>2019-07-25T11:22:30Z</time>
</trkpt>
<trkpt lat="44.9188859" lon="5.3992954">
<ele>1056.77</ele>
<time>2019-07-25T11:22:31Z</time>
</trkpt>
<trkpt lat="44.9188864" lon="5.3992950">
<ele>1056.78</ele>
<time>2019-07-25T11:22:32Z</time>
</trkpt>
<trkpt lat="44.9188865" lon="5.3992950">
<ele>1056.78</ele>
<time>2019-07-25T11:22:33Z</time>
</trkpt>
<trkpt lat="44.9188866" lon="5.3992939">
<ele>1056.79</ele>
<time>2019-07-25T11:22:34Z</time>
</trkpt>
<trkpt lat="44.9188917" lon="5.3993055">
<ele>1056.84</ele>
<time>2019-07-25T11:22:35Z</time>
</trkpt>
<trkpt lat="44.9188869" lon="5.3993257">
<ele>1056.89</ele>
<time>2019-07-25T11:22:36Z</time>
</trkpt>
<trkpt lat="44.9188794" lon="5.3993328">
<ele>1056.93</ele>
<time>2019-07-25T11:22:37Z</time>
</trkpt>
<trkpt lat="44.9188746" lon="5.3993406">
<ele>1056.98</ele>
<time>2019-07-25T11:22:38Z</time>
</trkpt>
<trkpt lat="44.9188709" lon="5.3993430">
<ele>1057.02</ele>
<time>2019-07-25T11:22:39Z</time>
</trkpt>
<trkpt lat="44.9188656" lon="5.3993439">
<ele>1057.06</ele>
<time>2019-07-25T11:22:40Z</time>
</trkpt>
<trkpt lat="44.9188530" lon="5.3993475">
<ele>1057.10</ele>
<time>2019-07-25T11:22:41Z</time>
</trkpt>
<trkpt lat="44.9188380" lon="5.3993492">
<ele>1057.15</ele>
<time>2019-07-25T11:22:42Z</time>
</trkpt>
<trkpt lat="44.9188261" lon="5.3993443">
<ele>1057.20</ele>
<time>2019-07-25T11:22:43Z</time>
</trkpt>
<trkpt lat="44.9187919" lon="5.3993407">
<ele>1057.25</ele>
<time>2019-07-25T11:22:44Z</time>
</trkpt>
<trkpt lat="44.9187652" lon="5.3993403">
<ele>1057.29</ele>
<time>2019-07-25T11:22:45Z</time>
</trkpt>
<trkpt lat="44.9187317" lon="5.3993429">
<ele>1057.34</ele>
<time>2019-07-25T11:22:46Z</time>
</trkpt>
<trkpt lat="44.9186960" lon="5.3993497">
<ele>1057.38</ele>
<time>2019-07-25T11:22:47Z</time>
</trkpt>
<trkpt lat="44.9186588" lon="5.3993567">
<ele>1057.42</ele>
<time>2019-07-25T11:22:48Z</time>
</trkpt>
<trkpt lat="44.9186267" lon="5.3993615">
<ele>1057.46</ele>
<time>2019-07-25T11:22:49Z</time>
</trkpt>
<trkpt lat="44.9186006" lon="5.3993693">
<ele>1057.49</ele>
<time>2019-07-25T11:22:50Z</time>
</trkpt>
<trkpt lat="44.9185733" lon="5.3993772">
<ele>1057.53</ele>
<time>2019-07-25T11:22:51Z</time>
</trkpt>
<trkpt lat="44.9185482" lon="5.3993832">
<ele>1057.56</ele>
<time>2019-07-25T11:22:52Z</time>
</trkpt>
<trkpt lat="44.9185254" lon="5.3993863">
<ele>1057.58</ele>
<time>2019-07-25T11:22:53Z</time>
</trkpt>
<trkpt lat="44.9185021" lon="5.3993920">
<ele>1057.60</ele>
<time>2019-07-25T11:22:54Z</time>
</trkpt>
<trkpt lat="44.9184759" lon="5.3994084">
<ele>1057.62</ele>
<time>2019-07-25T11:22:55Z</time>
</trkpt>
<trkpt lat="44.9184501" lon="5.3994108">
<ele>1057.64</ele>
<time>2019-07-25T11:22:56Z</time>
</trkpt>
<trkpt lat="44.9184226" lon="5.3994030">
<ele>1057.65</ele>
<time>2019-07-25T11:22:57Z</time>
</trkpt>
<trkpt lat="44.9183921" lon="5.3994011">
<ele>1057.66</ele>
<time>2019-07-25T11:22:58Z</time>
</trkpt>
<trkpt lat="44.9183561" lon="5.3994007">
<ele>1057.67</ele>
<time>2019-07-25T11:22:59Z</time>
</trkpt>
<trkpt lat="44.9183192" lon="5.3993975">
<ele>1057.68</ele>
<time>2019-07-25T11:23:00Z</time>
</trkpt>
<trkpt lat="44.9182852" lon="5.3993914">
<ele>1057.68</ele>
<time>2019-07-25T11:23:01Z</time>
</trkpt>
<trkpt lat="44.9182512" lon="5.3993865">
<ele>1057.68</ele>
<time>2019-07-25T11:23:02Z</time>
</trkpt>
<trkpt lat="44.9182137" lon="5.3993833">
<ele>1057.68</ele>
<time>2019-07-25T11:23:03Z</time>
</trkpt>
<trkpt lat="44.9181770" lon="5.3993854">
<ele>1057.67</ele>
<time>2019-07-25T11:23:04Z</time>
</trkpt>
<trkpt lat="44.9181400" lon="5.3993858">
<ele>1057.67</ele>
<time>2019-07-25T11:23:05Z</time>
</trkpt>
<trkpt lat="44.9181045" lon="5.3993853">
<ele>1057.66</ele>
<time>2019-07-25T11:23:06Z</time>
</trkpt>
<trkpt lat="44.9180744" lon="5.3993852">
<ele>1057.65</ele>
<time>2019-07-25T11:23:07Z</time>
</trkpt>
<trkpt lat="44.9180355" lon="5.3993840">
<ele>1057.63</ele>
<time>2019-07-25T11:23:08Z</time>
</trkpt>
<trkpt lat="44.9179990" lon="5.3993854">
<ele>1057.62</ele>
<time>2019-07-25T11:23:09Z</time>
</trkpt>
<trkpt lat="44.9179688" lon="5.3993887">
<ele>1057.60</ele>
<time>2019-07-25T11:23:10Z</time>
</trkpt>
<trkpt lat="44.9179342" lon="5.3993926">
<ele>1057.58</ele>
<time>2019-07-25T11:23:11Z</time>
</trkpt>
<trkpt lat="44.9179032" lon="5.3993959">
<ele>1057.56</ele>
<time>2019-07-25T11:23:12Z</time>
</trkpt>
<trkpt lat="44.9178802" lon="5.3993991">
<ele>1057.53</ele>
<time>2019-07-25T11:23:13Z</time>
</trkpt>
<trkpt lat="44.9178646" lon="5.3994042">
<ele>1057.50</ele>
<time>2019-07-25T11:23:14Z</time>
</trkpt>
<trkpt lat="44.9178457" lon="5.3994201">
<ele>1057.46</ele>
<time>2019-07-25T11:23:15Z</time>
</trkpt>
<trkpt lat="44.9178253" lon="5.3994591">
<ele>1057.42</ele>
<time>2019-07-25T11:23:16Z</time>
</trkpt>
<trkpt lat="44.9178048" lon="5.3995004">
<ele>1057.38</ele>
<time>2019-07-25T11:23:17Z</time>
</trkpt>
<trkpt lat="44.9177861" lon="5.3995563">
<ele>1056.96</ele>
<time>2019-07-25T11:23:18Z</time>
</trkpt>
<trkpt lat="44.9177634" lon="5.3996270">
<ele>1056.64</ele>
<time>2019-07-25T11:23:19Z</time>
</trkpt>
<trkpt lat="44.9177326" lon="5.3997132">
<ele>1056.40</ele>
<time>2019-07-25T11:23:20Z</time>
</trkpt>
<trkpt lat="44.9177064" lon="5.3998025">
<ele>1056.21</ele>
<time>2019-07-25T11:23:21Z</time>
</trkpt>
<trkpt lat="44.9176838" lon="5.3998855">
<ele>1056.04</ele>
<time>2019-07-25T11:23:22Z</time>
</trkpt>
<trkpt lat="44.9176630" lon="5.3999587">
<ele>1055.93</ele>
<time>2019-07-25T11:23:23Z</time>
</trkpt>
<trkpt lat="44.9176388" lon="5.4000203">
<ele>1055.86</ele>
<time>2019-07-25T11:23:24Z</time>
</trkpt>
<trkpt lat="44.9176059" lon="5.4000663">
<ele>1055.80</ele>
<time>2019-07-25T11:23:25Z</time>
</trkpt>
<trkpt lat="44.9175762" lon="5.4001102">
<ele>1055.74</ele>
<time>2019-07-25T11:23:26Z</time>
</trkpt>
<trkpt lat="44.9175439" lon="5.4001557">
<ele>1055.65</ele>
<time>2019-07-25T11:23:27Z</time>
</trkpt>
<trkpt lat="44.9174935" lon="5.4002068">
<ele>1055.57</ele>
<time>2019-07-25T11:23:28Z</time>
</trkpt>
<trkpt lat="44.9174402" lon="5.4002566">
<ele>1055.45</ele>
<time>2019-07-25T11:23:29Z</time>
</trkpt>
<trkpt lat="44.9173871" lon="5.4002975">
<ele>1055.33</ele>
<time>2019-07-25T11:23:30Z</time>
</trkpt>
<trkpt lat="44.9173403" lon="5.4003332">
<ele>1055.25</ele>
<time>2019-07-25T11:23:31Z</time>
</trkpt>
<trkpt lat="44.9172955" lon="5.4003733">
<ele>1055.18</ele>
<time>2019-07-25T11:23:32Z</time>
</trkpt>
<trkpt lat="44.9172594" lon="5.4004089">
<ele>1055.12</ele>
<time>2019-07-25T11:23:33Z</time>
</trkpt>
<trkpt lat="44.9172295" lon="5.4004391">
<ele>1055.11</ele>
<time>2019-07-25T11:23:34Z</time>
</trkpt>
<trkpt lat="44.9172024" lon="5.4004636">
<ele>1055.11</ele>
<time>2019-07-25T11:23:35Z</time>
</trkpt>
<trkpt lat="44.9171814" lon="5.4005054">
<ele>1055.06</ele>
<time>2019-07-25T11:23:36Z</time>
</trkpt>
<trkpt lat="44.9171586" lon="5.4005453">
<ele>1055.05</ele>
<time>2019-07-25T11:23:37Z</time>
</trkpt>
<trkpt lat="44.9171334" lon="5.4005745">
<ele>1055.05</ele>
<time>2019-07-25T11:23:38Z</time>
</trkpt>
<trkpt lat="44.9171118" lon="5.4006110">
<ele>1055.04</ele>
<time>2019-07-25T11:23:39Z</time>
</trkpt>
<trkpt lat="44.9170894" lon="5.4006525">
<ele>1055.02</ele>
<time>2019-07-25T11:23:40Z</time>
</trkpt>
<trkpt lat="44.9170638" lon="5.4006789">
<ele>1055.00</ele>
<time>2019-07-25T11:23:41Z</time>
</trkpt>
<trkpt lat="44.9170379" lon="5.4006995">
<ele>1054.97</ele>
<time>2019-07-25T11:23:42Z</time>
</trkpt>
<trkpt lat="44.9170157" lon="5.4007181">
<ele>1054.94</ele>
<time>2019-07-25T11:23:43Z</time>
</trkpt>
<trkpt lat="44.9170010" lon="5.4007408">
<ele>1054.91</ele>
<time>2019-07-25T11:23:44Z</time>
</trkpt>
<trkpt lat="44.9169976" lon="5.4007459">
<ele>1054.91</ele>
<time>2019-07-25T11:23:45Z</time>
</trkpt>
<trkpt lat="44.9170000" lon="5.4007335">
<ele>1054.91</ele>
<time>2019-07-25T11:23:46Z</time>
</trkpt>
<trkpt lat="44.9170002" lon="5.4007316">
<ele>1054.89</ele>
<time>2019-07-25T11:23:47Z</time>
</trkpt>
<trkpt lat="44.9169997" lon="5.4007334">
<ele>1054.89</ele>
<time>2019-07-25T11:23:48Z</time>
</trkpt>
<trkpt lat="44.9170004" lon="5.4007333">
<ele>1054.88</ele>
<time>2019-07-25T11:23:49Z</time>
</trkpt>
<trkpt lat="44.9170008" lon="5.4007330">
<ele>1054.88</ele>
<time>2019-07-25T11:23:50Z</time>
</trkpt>
<trkpt lat="44.9170014" lon="5.4007327">
<ele>1054.88</ele>
<time>2019-07-25T11:23:51Z</time>
</trkpt>
<trkpt lat="44.9170020" lon="5.4007326">
<ele>1054.88</ele>
<time>2019-07-25T11:23:52Z</time>
</trkpt>
<trkpt lat="44.9170026" lon="5.4007319">
<ele>1054.87</ele>
<time>2019-07-25T11:23:53Z</time>
</trkpt>
<trkpt lat="44.9170035" lon="5.4007310">
<ele>1054.87</ele>
<time>2019-07-25T11:23:54Z</time>
</trkpt>
<trkpt lat="44.9170044" lon="5.4007310">
<ele>1054.87</ele>
<time>2019-07-25T11:23:55Z</time>
</trkpt>
<trkpt lat="44.9170044" lon="5.4007318">
<ele>1054.86</ele>
<time>2019-07-25T11:23:56Z</time>
</trkpt>
<trkpt lat="44.9170042" lon="5.4007339">
<ele>1054.86</ele>
<time>2019-07-25T11:23:57Z</time>
</trkpt>
<trkpt lat="44.9170109" lon="5.4007322">
<ele>1054.80</ele>
<time>2019-07-25T11:23:58Z</time>
</trkpt>
<trkpt lat="44.9170106" lon="5.4007369">
<ele>1054.74</ele>
<time>2019-07-25T11:23:59Z</time>
</trkpt>
<trkpt lat="44.9170085" lon="5.4007421">
<ele>1054.68</ele>
<time>2019-07-25T11:24:00Z</time>
</trkpt>
<trkpt lat="44.9170014" lon="5.4007464">
<ele>1054.62</ele>
<time>2019-07-25T11:24:01Z</time>
</trkpt>
<trkpt lat="44.9169817" lon="5.4007553">
<ele>1054.56</ele>
<time>2019-07-25T11:24:02Z</time>
</trkpt>
<trkpt lat="44.9169529" lon="5.4007789">
<ele>1054.49</ele>
<time>2019-07-25T11:24:03Z</time>
</trkpt>
<trkpt lat="44.9169161" lon="5.4008098">
<ele>1053.79</ele>
<time>2019-07-25T11:24:04Z</time>
</trkpt>
<trkpt lat="44.9168773" lon="5.4008500">
<ele>1053.15</ele>
<time>2019-07-25T11:24:05Z</time>
</trkpt>
<trkpt lat="44.9168353" lon="5.4008945">
<ele>1052.60</ele>
<time>2019-07-25T11:24:06Z</time>
</trkpt>
<trkpt lat="44.9167959" lon="5.4009644">
<ele>1052.16</ele>
<time>2019-07-25T11:24:07Z</time>
</trkpt>
<trkpt lat="44.9167517" lon="5.4010274">
<ele>1051.79</ele>
<time>2019-07-25T11:24:08Z</time>
</trkpt>
<trkpt lat="44.9167087" lon="5.4010838">
<ele>1051.50</ele>
<time>2019-07-25T11:24:09Z</time>
</trkpt>
<trkpt lat="44.9166699" lon="5.4011423">
<ele>1051.25</ele>
<time>2019-07-25T11:24:10Z</time>
</trkpt>
<trkpt lat="44.9166262" lon="5.4011862">
<ele>1051.07</ele>
<time>2019-07-25T11:24:11Z</time>
</trkpt>
<trkpt lat="44.9165892" lon="5.4012260">
<ele>1050.95</ele>
<time>2019-07-25T11:24:12Z</time>
</trkpt>
<trkpt lat="44.9165500" lon="5.4012718">
<ele>1050.82</ele>
<time>2019-07-25T11:24:13Z</time>
</trkpt>
<trkpt lat="44.9165147" lon="5.4013351">
<ele>1050.71</ele>
<time>2019-07-25T11:24:14Z</time>
</trkpt>
<trkpt lat="44.9164806" lon="5.4013869">
<ele>1050.54</ele>
<time>2019-07-25T11:24:15Z</time>
</trkpt>
<trkpt lat="44.9164439" lon="5.4014403">
<ele>1050.53</ele>
<time>2019-07-25T11:24:16Z</time>
</trkpt>
<trkpt lat="44.9164206" lon="5.4014779">
<ele>1050.51</ele>
<time>2019-07-25T11:24:17Z</time>
</trkpt>
<trkpt lat="44.9163973" lon="5.4015134">
<ele>1050.35</ele>
<time>2019-07-25T11:24:18Z</time>
</trkpt>
<trkpt lat="44.9163721" lon="5.4015577">
<ele>1050.20</ele>
<time>2019-07-25T11:24:19Z</time>
</trkpt>
<trkpt lat="44.9163425" lon="5.4016033">
<ele>1050.07</ele>
<time>2019-07-25T11:24:20Z</time>
</trkpt>
<trkpt lat="44.9163031" lon="5.4016397">
<ele>1050.01</ele>
<time>2019-07-25T11:24:21Z</time>
</trkpt>
<trkpt lat="44.9162622" lon="5.4016698">
<ele>1049.88</ele>
<time>2019-07-25T11:24:22Z</time>
</trkpt>
<trkpt lat="44.9162245" lon="5.4017138">
<ele>1049.72</ele>
<time>2019-07-25T11:24:23Z</time>
</trkpt>
<trkpt lat="44.9161919" lon="5.4017620">
<ele>1049.59</ele>
<time>2019-07-25T11:24:24Z</time>
</trkpt>
<trkpt lat="44.9161611" lon="5.4017849">
<ele>1049.58</ele>
<time>2019-07-25T11:24:25Z</time>
</trkpt>
<trkpt lat="44.9161217" lon="5.4017840">
<ele>1049.56</ele>
<time>2019-07-25T11:24:26Z</time>
</trkpt>
<trkpt lat="44.9160907" lon="5.4017809">
<ele>1049.55</ele>
<time>2019-07-25T11:24:27Z</time>
</trkpt>
<trkpt lat="44.9160586" lon="5.4017844">
<ele>1049.53</ele>
<time>2019-07-25T11:24:28Z</time>
</trkpt>
<trkpt lat="44.9160216" lon="5.4017949">
<ele>1049.52</ele>
<time>2019-07-25T11:24:29Z</time>
</trkpt>
<trkpt lat="44.9159910" lon="5.4018121">
<ele>1049.51</ele>
<time>2019-07-25T11:24:30Z</time>
</trkpt>
<trkpt lat="44.9159657" lon="5.4018338">
<ele>1049.50</ele>
<time>2019-07-25T11:24:31Z</time>
</trkpt>
<trkpt lat="44.9159482" lon="5.4018564">
<ele>1049.49</ele>
<time>2019-07-25T11:24:32Z</time>
</trkpt>
<trkpt lat="44.9159371" lon="5.4018873">
<ele>1049.48</ele>
<time>2019-07-25T11:24:33Z</time>
</trkpt>
<trkpt lat="44.9159272" lon="5.4019258">
<ele>1049.47</ele>
<time>2019-07-25T11:24:34Z</time>
</trkpt>
<trkpt lat="44.9159076" lon="5.4019630">
<ele>1049.46</ele>
<time>2019-07-25T11:24:35Z</time>
</trkpt>
<trkpt lat="44.9158853" lon="5.4019982">
<ele>1049.45</ele>
<time>2019-07-25T11:24:36Z</time>
</trkpt>
<trkpt lat="44.9158658" lon="5.4020350">
<ele>1049.44</ele>
<time>2019-07-25T11:24:37Z</time>
</trkpt>
<trkpt lat="44.9158457" lon="5.4020714">
<ele>1049.43</ele>
<time>2019-07-25T11:24:38Z</time>
</trkpt>
<trkpt lat="44.9158191" lon="5.4020959">
<ele>1049.42</ele>
<time>2019-07-25T11:24:39Z</time>
</trkpt>
<trkpt lat="44.9157905" lon="5.4021116">
<ele>1049.41</ele>
<time>2019-07-25T11:24:40Z</time>
</trkpt>
<trkpt lat="44.9157698" lon="5.4021219">
<ele>1049.41</ele>
<time>2019-07-25T11:24:41Z</time>
</trkpt>
<trkpt lat="44.9157508" lon="5.4021340">
<ele>1049.39</ele>
<time>2019-07-25T11:24:42Z</time>
</trkpt>
<trkpt lat="44.9157313" lon="5.4021380">
<ele>1049.38</ele>
<time>2019-07-25T11:24:43Z</time>
</trkpt>
<trkpt lat="44.9157130" lon="5.4021387">
<ele>1049.36</ele>
<time>2019-07-25T11:24:44Z</time>
</trkpt>
<trkpt lat="44.9156985" lon="5.4021337">
<ele>1049.33</ele>
<time>2019-07-25T11:24:45Z</time>
</trkpt>
<trkpt lat="44.9156929" lon="5.4021260">
<ele>1049.30</ele>
<time>2019-07-25T11:24:46Z</time>
</trkpt>
<trkpt lat="44.9156929" lon="5.4021073">
<ele>1049.25</ele>
<time>2019-07-25T11:24:47Z</time>
</trkpt>
<trkpt lat="44.9156937" lon="5.4020970">
<ele>1049.21</ele>
<time>2019-07-25T11:24:48Z</time>
</trkpt>
<trkpt lat="44.9157054" lon="5.4020962">
<ele>1049.16</ele>
<time>2019-07-25T11:24:49Z</time>
</trkpt>
<trkpt lat="44.9157170" lon="5.4021171">
<ele>1049.12</ele>
<time>2019-07-25T11:24:50Z</time>
</trkpt>
<trkpt lat="44.9157422" lon="5.4021385">
<ele>1049.07</ele>
<time>2019-07-25T11:24:51Z</time>
</trkpt>
<trkpt lat="44.9157678" lon="5.4021744">
<ele>1049.01</ele>
<time>2019-07-25T11:24:52Z</time>
</trkpt>
<trkpt lat="44.9157872" lon="5.4022096">
<ele>1048.96</ele>
<time>2019-07-25T11:24:53Z</time>
</trkpt>
<trkpt lat="44.9157996" lon="5.4022411">
<ele>1048.91</ele>
<time>2019-07-25T11:24:54Z</time>
</trkpt>
<trkpt lat="44.9158083" lon="5.4022795">
<ele>1048.85</ele>
<time>2019-07-25T11:24:55Z</time>
</trkpt>
<trkpt lat="44.9158262" lon="5.4023183">
<ele>1048.78</ele>
<time>2019-07-25T11:24:56Z</time>
</trkpt>
<trkpt lat="44.9158472" lon="5.4023490">
<ele>1048.72</ele>
<time>2019-07-25T11:24:57Z</time>
</trkpt>
<trkpt lat="44.9158665" lon="5.4023865">
<ele>1048.66</ele>
<time>2019-07-25T11:24:58Z</time>
</trkpt>
<trkpt lat="44.9158781" lon="5.4024199">
<ele>1048.61</ele>
<time>2019-07-25T11:24:59Z</time>
</trkpt>
<trkpt lat="44.9158900" lon="5.4024397">
<ele>1048.56</ele>
<time>2019-07-25T11:25:00Z</time>
</trkpt>
<trkpt lat="44.9159051" lon="5.4024655">
<ele>1048.51</ele>
<time>2019-07-25T11:25:01Z</time>
</trkpt>
<trkpt lat="44.9159175" lon="5.4025076">
<ele>1048.46</ele>
<time>2019-07-25T11:25:02Z</time>
</trkpt>
<trkpt lat="44.9159283" lon="5.4025565">
<ele>1047.87</ele>
<time>2019-07-25T11:25:03Z</time>
</trkpt>
<trkpt lat="44.9159374" lon="5.4026154">
<ele>1047.41</ele>
<time>2019-07-25T11:25:04Z</time>
</trkpt>
<trkpt lat="44.9159402" lon="5.4026795">
<ele>1047.04</ele>
<time>2019-07-25T11:25:05Z</time>
</trkpt>
<trkpt lat="44.9159497" lon="5.4027460">
<ele>1046.73</ele>
<time>2019-07-25T11:25:06Z</time>
</trkpt>
<trkpt lat="44.9159607" lon="5.4028233">
<ele>1046.43</ele>
<time>2019-07-25T11:25:07Z</time>
</trkpt>
<trkpt lat="44.9159687" lon="5.4029113">
<ele>1046.17</ele>
<time>2019-07-25T11:25:08Z</time>
</trkpt>
<trkpt lat="44.9159709" lon="5.4029838">
<ele>1045.99</ele>
<time>2019-07-25T11:25:09Z</time>
</trkpt>
<trkpt lat="44.9159734" lon="5.4030526">
<ele>1045.85</ele>
<time>2019-07-25T11:25:10Z</time>
</trkpt>
<trkpt lat="44.9159777" lon="5.4031093">
<ele>1045.84</ele>
<time>2019-07-25T11:25:11Z</time>
</trkpt>
<trkpt lat="44.9159746" lon="5.4031572">
<ele>1045.83</ele>
<time>2019-07-25T11:25:12Z</time>
</trkpt>
<trkpt lat="44.9159660" lon="5.4031940">
<ele>1045.83</ele>
<time>2019-07-25T11:25:13Z</time>
</trkpt>
<trkpt lat="44.9159584" lon="5.4032271">
<ele>1045.83</ele>
<time>2019-07-25T11:25:14Z</time>
</trkpt>
<trkpt lat="44.9159482" lon="5.4032621">
<ele>1045.84</ele>
<time>2019-07-25T11:25:15Z</time>
</trkpt>
<trkpt lat="44.9159348" lon="5.4032931">
<ele>1045.86</ele>
<time>2019-07-25T11:25:16Z</time>
</trkpt>
<trkpt lat="44.9159229" lon="5.4033260">
<ele>1045.87</ele>
<time>2019-07-25T11:25:17Z</time>
</trkpt>
<trkpt lat="44.9159164" lon="5.4033671">
<ele>1045.88</ele>
<time>2019-07-25T11:25:18Z</time>
</trkpt>
<trkpt lat="44.9159056" lon="5.4034017">
<ele>1045.90</ele>
<time>2019-07-25T11:25:19Z</time>
</trkpt>
<trkpt lat="44.9158965" lon="5.4034398">
<ele>1045.92</ele>
<time>2019-07-25T11:25:20Z</time>
</trkpt>
<trkpt lat="44.9158864" lon="5.4034733">
<ele>1045.95</ele>
<time>2019-07-25T11:25:21Z</time>
</trkpt>
<trkpt lat="44.9158835" lon="5.4035062">
<ele>1045.98</ele>
<time>2019-07-25T11:25:22Z</time>
</trkpt>
<trkpt lat="44.9158779" lon="5.4035409">
<ele>1046.01</ele>
<time>2019-07-25T11:25:23Z</time>
</trkpt>
<trkpt lat="44.9158696" lon="5.4035779">
<ele>1046.04</ele>
<time>2019-07-25T11:25:24Z</time>
</trkpt>
<trkpt lat="44.9158605" lon="5.4036155">
<ele>1046.07</ele>
<time>2019-07-25T11:25:25Z</time>
</trkpt>
<trkpt lat="44.9158546" lon="5.4036568">
<ele>1046.11</ele>
<time>2019-07-25T11:25:26Z</time>
</trkpt>
<trkpt lat="44.9158483" lon="5.4036904">
<ele>1046.15</ele>
<time>2019-07-25T11:25:27Z</time>
</trkpt>
<trkpt lat="44.9158365" lon="5.4037020">
<ele>1046.19</ele>
<time>2019-07-25T11:25:28Z</time>
</trkpt>
<trkpt lat="44.9158275" lon="5.4037152">
<ele>1046.24</ele>
<time>2019-07-25T11:25:29Z</time>
</trkpt>
<trkpt lat="44.9158218" lon="5.4037387">
<ele>1046.28</ele>
<time>2019-07-25T11:25:30Z</time>
</trkpt>
<trkpt lat="44.9158058" lon="5.4037564">
<ele>1046.33</ele>
<time>2019-07-25T11:25:31Z</time>
</trkpt>
<trkpt lat="44.9157978" lon="5.4037914">
<ele>1046.38</ele>
<time>2019-07-25T11:25:32Z</time>
</trkpt>
<trkpt lat="44.9157857" lon="5.4038259">
<ele>1046.43</ele>
<time>2019-07-25T11:25:33Z</time>
</trkpt>
<trkpt lat="44.9157763" lon="5.4038602">
<ele>1046.48</ele>
<time>2019-07-25T11:25:34Z</time>
</trkpt>
<trkpt lat="44.9157688" lon="5.4038874">
<ele>1046.54</ele>
<time>2019-07-25T11:25:35Z</time>
</trkpt>
<trkpt lat="44.9157674" lon="5.4039193">
<ele>1046.61</ele>
<time>2019-07-25T11:25:36Z</time>
</trkpt>
<trkpt lat="44.9157685" lon="5.4039480">
<ele>1046.69</ele>
<time>2019-07-25T11:25:37Z</time>
</trkpt>
<trkpt lat="44.9157629" lon="5.4039665">
<ele>1046.76</ele>
<time>2019-07-25T11:25:38Z</time>
</trkpt>
<trkpt lat="44.9157549" lon="5.4039936">
<ele>1046.83</ele>
<time>2019-07-25T11:25:39Z</time>
</trkpt>
<trkpt lat="44.9157517" lon="5.4040198">
<ele>1046.90</ele>
<time>2019-07-25T11:25:40Z</time>
</trkpt>
<trkpt lat="44.9157480" lon="5.4040425">
<ele>1046.98</ele>
<time>2019-07-25T11:25:41Z</time>
</trkpt>
<trkpt lat="44.9157479" lon="5.4040675">
<ele>1047.04</ele>
<time>2019-07-25T11:25:42Z</time>
</trkpt>
<trkpt lat="44.9157489" lon="5.4040975">
<ele>1047.11</ele>
<time>2019-07-25T11:25:43Z</time>
</trkpt>
<trkpt lat="44.9157423" lon="5.4041327">
<ele>1047.18</ele>
<time>2019-07-25T11:25:44Z</time>
</trkpt>
<trkpt lat="44.9157326" lon="5.4041613">
<ele>1047.24</ele>
<time>2019-07-25T11:25:45Z</time>
</trkpt>
<trkpt lat="44.9157182" lon="5.4042169">
<ele>1047.30</ele>
<time>2019-07-25T11:25:46Z</time>
</trkpt>
<trkpt lat="44.9156942" lon="5.4042553">
<ele>1047.36</ele>
<time>2019-07-25T11:25:47Z</time>
</trkpt>
<trkpt lat="44.9156659" lon="5.4042866">
<ele>1047.43</ele>
<time>2019-07-25T11:25:48Z</time>
</trkpt>
<trkpt lat="44.9156654" lon="5.4043219">
<ele>1047.50</ele>
<time>2019-07-25T11:25:49Z</time>
</trkpt>
<trkpt lat="44.9156694" lon="5.4043683">
<ele>1047.57</ele>
<time>2019-07-25T11:25:50Z</time>
</trkpt>
<trkpt lat="44.9156658" lon="5.4044130">
<ele>1047.62</ele>
<time>2019-07-25T11:25:51Z</time>
</trkpt>
<trkpt lat="44.9156576" lon="5.4044617">
<ele>1047.68</ele>
<time>2019-07-25T11:25:52Z</time>
</trkpt>
<trkpt lat="44.9156556" lon="5.4045039">
<ele>1047.73</ele>
<time>2019-07-25T11:25:53Z</time>
</trkpt>
<trkpt lat="44.9156337" lon="5.4045446">
<ele>1047.78</ele>
<time>2019-07-25T11:25:54Z</time>
</trkpt>
<trkpt lat="44.9156376" lon="5.4045957">
<ele>1047.82</ele>
<time>2019-07-25T11:25:55Z</time>
</trkpt>
<trkpt lat="44.9156404" lon="5.4046534">
<ele>1047.86</ele>
<time>2019-07-25T11:25:56Z</time>
</trkpt>
<trkpt lat="44.9156340" lon="5.4047025">
<ele>1047.91</ele>
<time>2019-07-25T11:25:57Z</time>
</trkpt>
<trkpt lat="44.9156158" lon="5.4047461">
<ele>1047.94</ele>
<time>2019-07-25T11:25:58Z</time>
</trkpt>
<trkpt lat="44.9155805" lon="5.4047890">
<ele>1047.98</ele>
<time>2019-07-25T11:25:59Z</time>
</trkpt>
<trkpt lat="44.9155452" lon="5.4048044">
<ele>1048.03</ele>
<time>2019-07-25T11:26:00Z</time>
</trkpt>
<trkpt lat="44.9155161" lon="5.4048311">
<ele>1048.10</ele>
<time>2019-07-25T11:26:01Z</time>
</trkpt>
<trkpt lat="44.9154936" lon="5.4048511">
<ele>1048.19</ele>
<time>2019-07-25T11:26:02Z</time>
</trkpt>
<trkpt lat="44.9154667" lon="5.4048690">
<ele>1048.31</ele>
<time>2019-07-25T11:26:03Z</time>
</trkpt>
<trkpt lat="44.9154423" lon="5.4048927">
<ele>1048.44</ele>
<time>2019-07-25T11:26:04Z</time>
</trkpt>
<trkpt lat="44.9154183" lon="5.4049296">
<ele>1048.59</ele>
<time>2019-07-25T11:26:05Z</time>
</trkpt>
<trkpt lat="44.9154007" lon="5.4049568">
<ele>1048.76</ele>
<time>2019-07-25T11:26:06Z</time>
</trkpt>
<trkpt lat="44.9153841" lon="5.4049819">
<ele>1048.95</ele>
<time>2019-07-25T11:26:07Z</time>
</trkpt>
<trkpt lat="44.9153652" lon="5.4050213">
<ele>1049.14</ele>
<time>2019-07-25T11:26:08Z</time>
</trkpt>
<trkpt lat="44.9153390" lon="5.4050510">
<ele>1049.34</ele>
<time>2019-07-25T11:26:09Z</time>
</trkpt>
<trkpt lat="44.9153091" lon="5.4050799">
<ele>1049.55</ele>
<time>2019-07-25T11:26:10Z</time>
</trkpt>
<trkpt lat="44.9152718" lon="5.4051141">
<ele>1049.76</ele>
<time>2019-07-25T11:26:11Z</time>
</trkpt>
<trkpt lat="44.9152491" lon="5.4051297">
<ele>1049.96</ele>
<time>2019-07-25T11:26:12Z</time>
</trkpt>
<trkpt lat="44.9152302" lon="5.4051384">
<ele>1050.16</ele>
<time>2019-07-25T11:26:13Z</time>
</trkpt>
<trkpt lat="44.9152181" lon="5.4051488">
<ele>1050.36</ele>
<time>2019-07-25T11:26:14Z</time>
</trkpt>
<trkpt lat="44.9152018" lon="5.4051626">
<ele>1050.57</ele>
<time>2019-07-25T11:26:15Z</time>
</trkpt>
<trkpt lat="44.9151816" lon="5.4051779">
<ele>1050.78</ele>
<time>2019-07-25T11:26:16Z</time>
</trkpt>
<trkpt lat="44.9151573" lon="5.4051925">
<ele>1050.98</ele>
<time>2019-07-25T11:26:17Z</time>
</trkpt>
<trkpt lat="44.9151414" lon="5.4052114">
<ele>1051.17</ele>
<time>2019-07-25T11:26:18Z</time>
</trkpt>
<trkpt lat="44.9151313" lon="5.4052229">
<ele>1051.36</ele>
<time>2019-07-25T11:26:19Z</time>
</trkpt>
<trkpt lat="44.9151049" lon="5.4052369">
<ele>1051.54</ele>
<time>2019-07-25T11:26:20Z</time>
</trkpt>
<trkpt lat="44.9150723" lon="5.4052543">
<ele>1051.72</ele>
<time>2019-07-25T11:26:21Z</time>
</trkpt>
<trkpt lat="44.9150414" lon="5.4052788">
<ele>1051.88</ele>
<time>2019-07-25T11:26:22Z</time>
</trkpt>
<trkpt lat="44.9150270" lon="5.4053038">
<ele>1052.03</ele>
<time>2019-07-25T11:26:23Z</time>
</trkpt>
<trkpt lat="44.9150148" lon="5.4053260">
<ele>1052.18</ele>
<time>2019-07-25T11:26:24Z</time>
</trkpt>
<trkpt lat="44.9150039" lon="5.4053498">
<ele>1052.33</ele>
<time>2019-07-25T11:26:25Z</time>
</trkpt>
<trkpt lat="44.9149910" lon="5.4053851">
<ele>1052.48</ele>
<time>2019-07-25T11:26:26Z</time>
</trkpt>
<trkpt lat="44.9149777" lon="5.4054242">
<ele>1052.62</ele>
<time>2019-07-25T11:26:27Z</time>
</trkpt>
<trkpt lat="44.9149661" lon="5.4054595">
<ele>1052.77</ele>
<time>2019-07-25T11:26:28Z</time>
</trkpt>
<trkpt lat="44.9149536" lon="5.4054881">
<ele>1052.90</ele>
<time>2019-07-25T11:26:29Z</time>
</trkpt>
<trkpt lat="44.9149404" lon="5.4055199">
<ele>1053.03</ele>
<time>2019-07-25T11:26:30Z</time>
</trkpt>
<trkpt lat="44.9149261" lon="5.4055491">
<ele>1053.16</ele>
<time>2019-07-25T11:26:31Z</time>
</trkpt>
<trkpt lat="44.9149118" lon="5.4055848">
<ele>1053.28</ele>
<time>2019-07-25T11:26:32Z</time>
</trkpt>
<trkpt lat="44.9148912" lon="5.4056210">
<ele>1053.40</ele>
<time>2019-07-25T11:26:33Z</time>
</trkpt>
<trkpt lat="44.9148651" lon="5.4056604">
<ele>1053.51</ele>
<time>2019-07-25T11:26:34Z</time>
</trkpt>
<trkpt lat="44.9148404" lon="5.4057007">
<ele>1053.62</ele>
<time>2019-07-25T11:26:35Z</time>
</trkpt>
<trkpt lat="44.9148116" lon="5.4057504">
<ele>1053.74</ele>
<time>2019-07-25T11:26:36Z</time>
</trkpt>
<trkpt lat="44.9147858" lon="5.4057918">
<ele>1053.87</ele>
<time>2019-07-25T11:26:37Z</time>
</trkpt>
<trkpt lat="44.9147590" lon="5.4058267">
<ele>1053.99</ele>
<time>2019-07-25T11:26:38Z</time>
</trkpt>
<trkpt lat="44.9147342" lon="5.4058574">
<ele>1054.12</ele>
<time>2019-07-25T11:26:39Z</time>
</trkpt>
<trkpt lat="44.9147168" lon="5.4058772">
<ele>1054.24</ele>
<time>2019-07-25T11:26:40Z</time>
</trkpt>
<trkpt lat="44.9146940" lon="5.4058915">
<ele>1054.36</ele>
<time>2019-07-25T11:26:41Z</time>
</trkpt>
<trkpt lat="44.9146782" lon="5.4059016">
<ele>1054.48</ele>
<time>2019-07-25T11:26:42Z</time>
</trkpt>
<trkpt lat="44.9146703" lon="5.4059127">
<ele>1054.61</ele>
<time>2019-07-25T11:26:43Z</time>
</trkpt>
<trkpt lat="44.9146685" lon="5.4059198">
<ele>1054.74</ele>
<time>2019-07-25T11:26:44Z</time>
</trkpt>
<trkpt lat="44.9146696" lon="5.4059256">
<ele>1054.88</ele>
<time>2019-07-25T11:26:45Z</time>
</trkpt>
<trkpt lat="44.9146641" lon="5.4059337">
<ele>1055.01</ele>
<time>2019-07-25T11:26:46Z</time>
</trkpt>
<trkpt lat="44.9146647" lon="5.4059307">
<ele>1055.14</ele>
<time>2019-07-25T11:26:47Z</time>
</trkpt>
<trkpt lat="44.9146641" lon="5.4059344">
<ele>1055.26</ele>
<time>2019-07-25T11:26:48Z</time>
</trkpt>
<trkpt lat="44.9146491" lon="5.4059651">
<ele>1055.39</ele>
<time>2019-07-25T11:26:49Z</time>
</trkpt>
<trkpt lat="44.9146230" lon="5.4060005">
<ele>1055.51</ele>
<time>2019-07-25T11:26:50Z</time>
</trkpt>
<trkpt lat="44.9146084" lon="5.4060275">
<ele>1055.64</ele>
<time>2019-07-25T11:26:51Z</time>
</trkpt>
<trkpt lat="44.9146040" lon="5.4060444">
<ele>1055.76</ele>
<time>2019-07-25T11:26:52Z</time>
</trkpt>
<trkpt lat="44.9145979" lon="5.4060857">
<ele>1055.87</ele>
<time>2019-07-25T11:26:53Z</time>
</trkpt>
<trkpt lat="44.9145756" lon="5.4061222">
<ele>1055.98</ele>
<time>2019-07-25T11:26:54Z</time>
</trkpt>
<trkpt lat="44.9145666" lon="5.4061875">
<ele>1056.07</ele>
<time>2019-07-25T11:26:55Z</time>
</trkpt>
<trkpt lat="44.9145452" lon="5.4062467">
<ele>1056.17</ele>
<time>2019-07-25T11:26:56Z</time>
</trkpt>
<trkpt lat="44.9145138" lon="5.4063371">
<ele>1056.27</ele>
<time>2019-07-25T11:26:57Z</time>
</trkpt>
<trkpt lat="44.9144882" lon="5.4063787">
<ele>1056.36</ele>
<time>2019-07-25T11:26:58Z</time>
</trkpt>
<trkpt lat="44.9144709" lon="5.4064619">
<ele>1056.45</ele>
<time>2019-07-25T11:26:59Z</time>
</trkpt>
<trkpt lat="44.9144339" lon="5.4065242">
<ele>1056.54</ele>
<time>2019-07-25T11:27:00Z</time>
</trkpt>
<trkpt lat="44.9144183" lon="5.4065625">
<ele>1056.63</ele>
<time>2019-07-25T11:27:01Z</time>
</trkpt>
<trkpt lat="44.9143953" lon="5.4066007">
<ele>1056.72</ele>
<time>2019-07-25T11:27:02Z</time>
</trkpt>
<trkpt lat="44.9143648" lon="5.4066353">
<ele>1056.81</ele>
<time>2019-07-25T11:27:03Z</time>
</trkpt>
<trkpt lat="44.9143388" lon="5.4066690">
<ele>1056.90</ele>
<time>2019-07-25T11:27:04Z</time>
</trkpt>
<trkpt lat="44.9143466" lon="5.4067378">
<ele>1057.00</ele>
<time>2019-07-25T11:27:05Z</time>
</trkpt>
<trkpt lat="44.9143407" lon="5.4067806">
<ele>1057.10</ele>
<time>2019-07-25T11:27:06Z</time>
</trkpt>
<trkpt lat="44.9143585" lon="5.4068531">
<ele>1057.20</ele>
<time>2019-07-25T11:27:07Z</time>
</trkpt>
<trkpt lat="44.9143525" lon="5.4068911">
<ele>1057.30</ele>
<time>2019-07-25T11:27:08Z</time>
</trkpt>
<trkpt lat="44.9143523" lon="5.4068981">
<ele>1057.41</ele>
<time>2019-07-25T11:27:09Z</time>
</trkpt>
<trkpt lat="44.9143436" lon="5.4068972">
<ele>1057.42</ele>
<time>2019-07-25T11:27:10Z</time>
</trkpt>
<trkpt lat="44.9143419" lon="5.4069057">
<ele>1057.50</ele>
<time>2019-07-25T11:27:11Z</time>
</trkpt>
<trkpt lat="44.9143342" lon="5.4068943">
<ele>1057.58</ele>
<time>2019-07-25T11:27:12Z</time>
</trkpt>
<trkpt lat="44.9143333" lon="5.4068836">
<ele>1057.66</ele>
<time>2019-07-25T11:27:13Z</time>
</trkpt>
<trkpt lat="44.9143406" lon="5.4068546">
<ele>1057.76</ele>
<time>2019-07-25T11:27:14Z</time>
</trkpt>
<trkpt lat="44.9143369" lon="5.4068257">
<ele>1057.86</ele>
<time>2019-07-25T11:27:15Z</time>
</trkpt>
<trkpt lat="44.9143368" lon="5.4068009">
<ele>1057.98</ele>
<time>2019-07-25T11:27:16Z</time>
</trkpt>
<trkpt lat="44.9143264" lon="5.4067941">
<ele>1058.07</ele>
<time>2019-07-25T11:27:17Z</time>
</trkpt>
<trkpt lat="44.9143191" lon="5.4067875">
<ele>1058.17</ele>
<time>2019-07-25T11:27:18Z</time>
</trkpt>
<trkpt lat="44.9143069" lon="5.4067933">
<ele>1058.26</ele>
<time>2019-07-25T11:27:19Z</time>
</trkpt>
<trkpt lat="44.9142933" lon="5.4068016">
<ele>1058.34</ele>
<time>2019-07-25T11:27:20Z</time>
</trkpt>
<trkpt lat="44.9142730" lon="5.4068103">
<ele>1058.44</ele>
<time>2019-07-25T11:27:21Z</time>
</trkpt>
<trkpt lat="44.9142537" lon="5.4068243">
<ele>1058.53</ele>
<time>2019-07-25T11:27:22Z</time>
</trkpt>
<trkpt lat="44.9142367" lon="5.4068355">
<ele>1058.62</ele>
<time>2019-07-25T11:27:23Z</time>
</trkpt>
<trkpt lat="44.9142181" lon="5.4068467">
<ele>1058.72</ele>
<time>2019-07-25T11:27:24Z</time>
</trkpt>
<trkpt lat="44.9142033" lon="5.4068753">
<ele>1058.80</ele>
<time>2019-07-25T11:27:25Z</time>
</trkpt>
<trkpt lat="44.9141859" lon="5.4068925">
<ele>1058.88</ele>
<time>2019-07-25T11:27:26Z</time>
</trkpt>
<trkpt lat="44.9141531" lon="5.4069113">
<ele>1058.94</ele>
<time>2019-07-25T11:27:27Z</time>
</trkpt>
<trkpt lat="44.9141284" lon="5.4069087">
<ele>1059.00</ele>
<time>2019-07-25T11:27:28Z</time>
</trkpt>
<trkpt lat="44.9140964" lon="5.4068980">
<ele>1059.05</ele>
<time>2019-07-25T11:27:29Z</time>
</trkpt>
<trkpt lat="44.9140687" lon="5.4068784">
<ele>1059.11</ele>
<time>2019-07-25T11:27:30Z</time>
</trkpt>
<trkpt lat="44.9140383" lon="5.4069065">
<ele>1059.17</ele>
<time>2019-07-25T11:27:31Z</time>
</trkpt>
<trkpt lat="44.9140195" lon="5.4069192">
<ele>1059.23</ele>
<time>2019-07-25T11:27:32Z</time>
</trkpt>
<trkpt lat="44.9140023" lon="5.4069228">
<ele>1059.28</ele>
<time>2019-07-25T11:27:33Z</time>
</trkpt>
<trkpt lat="44.9139756" lon="5.4069096">
<ele>1059.35</ele>
<time>2019-07-25T11:27:34Z</time>
</trkpt>
<trkpt lat="44.9139555" lon="5.4069053">
<ele>1059.42</ele>
<time>2019-07-25T11:27:35Z</time>
</trkpt>
<trkpt lat="44.9139284" lon="5.4068738">
<ele>1059.49</ele>
<time>2019-07-25T11:27:36Z</time>
</trkpt>
<trkpt lat="44.9139128" lon="5.4068677">
<ele>1059.54</ele>
<time>2019-07-25T11:27:37Z</time>
</trkpt>
<trkpt lat="44.9138941" lon="5.4068655">
<ele>1059.59</ele>
<time>2019-07-25T11:27:38Z</time>
</trkpt>
<trkpt lat="44.9138745" lon="5.4068563">
<ele>1059.65</ele>
<time>2019-07-25T11:27:39Z</time>
</trkpt>
<trkpt lat="44.9138482" lon="5.4068614">
<ele>1059.71</ele>
<time>2019-07-25T11:27:40Z</time>
</trkpt>
<trkpt lat="44.9138296" lon="5.4068389">
<ele>1059.77</ele>
<time>2019-07-25T11:27:41Z</time>
</trkpt>
<trkpt lat="44.9137922" lon="5.4068015">
<ele>1059.84</ele>
<time>2019-07-25T11:27:42Z</time>
</trkpt>
<trkpt lat="44.9137793" lon="5.4067976">
<ele>1059.92</ele>
<time>2019-07-25T11:27:43Z</time>
</trkpt>
<trkpt lat="44.9137582" lon="5.4068132">
<ele>1060.00</ele>
<time>2019-07-25T11:27:44Z</time>
</trkpt>
<trkpt lat="44.9137359" lon="5.4068348">
<ele>1060.09</ele>
<time>2019-07-25T11:27:45Z</time>
</trkpt>
<trkpt lat="44.9137356" lon="5.4068188">
<ele>1060.19</ele>
<time>2019-07-25T11:27:46Z</time>
</trkpt>
<trkpt lat="44.9136968" lon="5.4068068">
<ele>1060.29</ele>
<time>2019-07-25T11:27:47Z</time>
</trkpt>
<trkpt lat="44.9136692" lon="5.4067856">
<ele>1060.39</ele>
<time>2019-07-25T11:27:48Z</time>
</trkpt>
<trkpt lat="44.9136794" lon="5.4067661">
<ele>1060.48</ele>
<time>2019-07-25T11:27:49Z</time>
</trkpt>
<trkpt lat="44.9136998" lon="5.4067347">
<ele>1060.56</ele>
<time>2019-07-25T11:27:50Z</time>
</trkpt>
<trkpt lat="44.9136898" lon="5.4067155">
<ele>1060.65</ele>
<time>2019-07-25T11:27:51Z</time>
</trkpt>
<trkpt lat="44.9136875" lon="5.4066764">
<ele>1060.73</ele>
<time>2019-07-25T11:27:52Z</time>
</trkpt>
<trkpt lat="44.9136997" lon="5.4066401">
<ele>1060.80</ele>
<time>2019-07-25T11:27:53Z</time>
</trkpt>
<trkpt lat="44.9137102" lon="5.4065958">
<ele>1060.86</ele>
<time>2019-07-25T11:27:54Z</time>
</trkpt>
<trkpt lat="44.9137195" lon="5.4065656">
<ele>1060.92</ele>
<time>2019-07-25T11:27:55Z</time>
</trkpt>
<trkpt lat="44.9137182" lon="5.4065327">
<ele>1060.99</ele>
<time>2019-07-25T11:27:56Z</time>
</trkpt>
<trkpt lat="44.9137127" lon="5.4065057">
<ele>1061.05</ele>
<time>2019-07-25T11:27:57Z</time>
</trkpt>
<trkpt lat="44.9137079" lon="5.4064812">
<ele>1061.15</ele>
<time>2019-07-25T11:27:58Z</time>
</trkpt>
<trkpt lat="44.9136979" lon="5.4064517">
<ele>1061.26</ele>
<time>2019-07-25T11:27:59Z</time>
</trkpt>
<trkpt lat="44.9136847" lon="5.4064117">
<ele>1061.40</ele>
<time>2019-07-25T11:28:00Z</time>
</trkpt>
<trkpt lat="44.9136667" lon="5.4063950">
<ele>1061.51</ele>
<time>2019-07-25T11:28:01Z</time>
</trkpt>
<trkpt lat="44.9136508" lon="5.4063790">
<ele>1061.63</ele>
<time>2019-07-25T11:28:02Z</time>
</trkpt>
<trkpt lat="44.9136279" lon="5.4063669">
<ele>1061.72</ele>
<time>2019-07-25T11:28:03Z</time>
</trkpt>
<trkpt lat="44.9136075" lon="5.4063613">
<ele>1061.83</ele>
<time>2019-07-25T11:28:04Z</time>
</trkpt>
<trkpt lat="44.9135885" lon="5.4063527">
<ele>1061.95</ele>
<time>2019-07-25T11:28:05Z</time>
</trkpt>
<trkpt lat="44.9135681" lon="5.4063418">
<ele>1062.08</ele>
<time>2019-07-25T11:28:06Z</time>
</trkpt>
<trkpt lat="44.9135540" lon="5.4063352">
<ele>1062.19</ele>
<time>2019-07-25T11:28:07Z</time>
</trkpt>
<trkpt lat="44.9135328" lon="5.4063340">
<ele>1062.28</ele>
<time>2019-07-25T11:28:08Z</time>
</trkpt>
<trkpt lat="44.9135122" lon="5.4063249">
<ele>1062.37</ele>
<time>2019-07-25T11:28:09Z</time>
</trkpt>
<trkpt lat="44.9134928" lon="5.4063138">
<ele>1062.48</ele>
<time>2019-07-25T11:28:10Z</time>
</trkpt>
<trkpt lat="44.9134568" lon="5.4063144">
<ele>1062.59</ele>
<time>2019-07-25T11:28:11Z</time>
</trkpt>
<trkpt lat="44.9134325" lon="5.4063155">
<ele>1062.71</ele>
<time>2019-07-25T11:28:12Z</time>
</trkpt>
<trkpt lat="44.9134088" lon="5.4063177">
<ele>1062.82</ele>
<time>2019-07-25T11:28:13Z</time>
</trkpt>
<trkpt lat="44.9133933" lon="5.4063177">
<ele>1062.93</ele>
<time>2019-07-25T11:28:14Z</time>
</trkpt>
<trkpt lat="44.9133602" lon="5.4063269">
<ele>1063.04</ele>
<time>2019-07-25T11:28:15Z</time>
</trkpt>
<trkpt lat="44.9133376" lon="5.4063014">
<ele>1063.16</ele>
<time>2019-07-25T11:28:16Z</time>
</trkpt>
<trkpt lat="44.9133240" lon="5.4062634">
<ele>1063.29</ele>
<time>2019-07-25T11:28:17Z</time>
</trkpt>
<trkpt lat="44.9133155" lon="5.4062361">
<ele>1063.45</ele>
<time>2019-07-25T11:28:18Z</time>
</trkpt>
<trkpt lat="44.9132964" lon="5.4062182">
<ele>1063.59</ele>
<time>2019-07-25T11:28:19Z</time>
</trkpt>
<trkpt lat="44.9132845" lon="5.4062079">
<ele>1063.71</ele>
<time>2019-07-25T11:28:20Z</time>
</trkpt>
<trkpt lat="44.9132648" lon="5.4061928">
<ele>1063.83</ele>
<time>2019-07-25T11:28:21Z</time>
</trkpt>
<trkpt lat="44.9132395" lon="5.4061738">
<ele>1063.95</ele>
<time>2019-07-25T11:28:22Z</time>
</trkpt>
<trkpt lat="44.9132151" lon="5.4061713">
<ele>1064.08</ele>
<time>2019-07-25T11:28:23Z</time>
</trkpt>
<trkpt lat="44.9131987" lon="5.4061537">
<ele>1064.23</ele>
<time>2019-07-25T11:28:24Z</time>
</trkpt>
<trkpt lat="44.9131785" lon="5.4061307">
<ele>1064.39</ele>
<time>2019-07-25T11:28:25Z</time>
</trkpt>
<trkpt lat="44.9131563" lon="5.4061200">
<ele>1064.57</ele>
<time>2019-07-25T11:28:26Z</time>
</trkpt>
<trkpt lat="44.9131295" lon="5.4061004">
<ele>1064.76</ele>
<time>2019-07-25T11:28:27Z</time>
</trkpt>
<trkpt lat="44.9130950" lon="5.4060871">
<ele>1064.95</ele>
<time>2019-07-25T11:28:28Z</time>
</trkpt>
<trkpt lat="44.9130648" lon="5.4060777">
<ele>1065.15</ele>
<time>2019-07-25T11:28:29Z</time>
</trkpt>
<trkpt lat="44.9130341" lon="5.4060597">
<ele>1065.34</ele>
<time>2019-07-25T11:28:30Z</time>
</trkpt>
<trkpt lat="44.9130026" lon="5.4060333">
<ele>1065.53</ele>
<time>2019-07-25T11:28:31Z</time>
</trkpt>
<trkpt lat="44.9129708" lon="5.4060126">
<ele>1065.73</ele>
<time>2019-07-25T11:28:32Z</time>
</trkpt>
<trkpt lat="44.9129399" lon="5.4059849">
<ele>1065.92</ele>
<time>2019-07-25T11:28:33Z</time>
</trkpt>
<trkpt lat="44.9129108" lon="5.4059584">
<ele>1066.12</ele>
<time>2019-07-25T11:28:34Z</time>
</trkpt>
<trkpt lat="44.9128831" lon="5.4059370">
<ele>1066.32</ele>
<time>2019-07-25T11:28:35Z</time>
</trkpt>
<trkpt lat="44.9128548" lon="5.4059123">
<ele>1066.52</ele>
<time>2019-07-25T11:28:36Z</time>
</trkpt>
<trkpt lat="44.9128249" lon="5.4058852">
<ele>1066.73</ele>
<time>2019-07-25T11:28:37Z</time>
</trkpt>
<trkpt lat="44.9127917" lon="5.4058561">
<ele>1066.94</ele>
<time>2019-07-25T11:28:38Z</time>
</trkpt>
<trkpt lat="44.9127676" lon="5.4058340">
<ele>1067.13</ele>
<time>2019-07-25T11:28:39Z</time>
</trkpt>
<trkpt lat="44.9127496" lon="5.4058286">
<ele>1067.34</ele>
<time>2019-07-25T11:28:40Z</time>
</trkpt>
<trkpt lat="44.9127352" lon="5.4058236">
<ele>1067.54</ele>
<time>2019-07-25T11:28:41Z</time>
</trkpt>
<trkpt lat="44.9126956" lon="5.4058134">
<ele>1067.74</ele>
<time>2019-07-25T11:28:42Z</time>
</trkpt>
<trkpt lat="44.9126680" lon="5.4058037">
<ele>1067.92</ele>
<time>2019-07-25T11:28:43Z</time>
</trkpt>
<trkpt lat="44.9126405" lon="5.4058092">
<ele>1068.10</ele>
<time>2019-07-25T11:28:44Z</time>
</trkpt>
<trkpt lat="44.9126126" lon="5.4058182">
<ele>1068.31</ele>
<time>2019-07-25T11:28:45Z</time>
</trkpt>
<trkpt lat="44.9126005" lon="5.4058102">
<ele>1068.51</ele>
<time>2019-07-25T11:28:46Z</time>
</trkpt>
<trkpt lat="44.9125722" lon="5.4058150">
<ele>1068.73</ele>
<time>2019-07-25T11:28:47Z</time>
</trkpt>
<trkpt lat="44.9125487" lon="5.4058286">
<ele>1068.92</ele>
<time>2019-07-25T11:28:48Z</time>
</trkpt>
<trkpt lat="44.9125189" lon="5.4058456">
<ele>1069.12</ele>
<time>2019-07-25T11:28:49Z</time>
</trkpt>
<trkpt lat="44.9124734" lon="5.4058507">
<ele>1069.33</ele>
<time>2019-07-25T11:28:50Z</time>
</trkpt>
<trkpt lat="44.9124477" lon="5.4058482">
<ele>1069.55</ele>
<time>2019-07-25T11:28:51Z</time>
</trkpt>
<trkpt lat="44.9124212" lon="5.4058507">
<ele>1069.75</ele>
<time>2019-07-25T11:28:52Z</time>
</trkpt>
<trkpt lat="44.9123936" lon="5.4058579">
<ele>1069.93</ele>
<time>2019-07-25T11:28:53Z</time>
</trkpt>
<trkpt lat="44.9123683" lon="5.4058751">
<ele>1070.10</ele>
<time>2019-07-25T11:28:54Z</time>
</trkpt>
<trkpt lat="44.9123475" lon="5.4058987">
<ele>1070.26</ele>
<time>2019-07-25T11:28:55Z</time>
</trkpt>
<trkpt lat="44.9123195" lon="5.4059118">
<ele>1070.45</ele>
<time>2019-07-25T11:28:56Z</time>
</trkpt>
<trkpt lat="44.9122912" lon="5.4059282">
<ele>1070.63</ele>
<time>2019-07-25T11:28:57Z</time>
</trkpt>
<trkpt lat="44.9122737" lon="5.4059282">
<ele>1070.83</ele>
<time>2019-07-25T11:28:58Z</time>
</trkpt>
<trkpt lat="44.9122482" lon="5.4059334">
<ele>1071.03</ele>
<time>2019-07-25T11:28:59Z</time>
</trkpt>
<trkpt lat="44.9122246" lon="5.4059325">
<ele>1071.25</ele>
<time>2019-07-25T11:29:00Z</time>
</trkpt>
<trkpt lat="44.9122008" lon="5.4059246">
<ele>1071.47</ele>
<time>2019-07-25T11:29:01Z</time>
</trkpt>
<trkpt lat="44.9121635" lon="5.4059086">
<ele>1071.71</ele>
<time>2019-07-25T11:29:02Z</time>
</trkpt>
<trkpt lat="44.9121296" lon="5.4058971">
<ele>1071.94</ele>
<time>2019-07-25T11:29:03Z</time>
</trkpt>
<trkpt lat="44.9120853" lon="5.4058669">
<ele>1072.17</ele>
<time>2019-07-25T11:29:04Z</time>
</trkpt>
<trkpt lat="44.9120319" lon="5.4058594">
<ele>1074.41</ele>
<time>2019-07-25T11:29:05Z</time>
</trkpt>
<trkpt lat="44.9119828" lon="5.4058548">
<ele>1074.60</ele>
<time>2019-07-25T11:29:06Z</time>
</trkpt>
<trkpt lat="44.9119436" lon="5.4058461">
<ele>1074.78</ele>
<time>2019-07-25T11:29:07Z</time>
</trkpt>
<trkpt lat="44.9119071" lon="5.4058148">
<ele>1076.38</ele>
<time>2019-07-25T11:29:08Z</time>
</trkpt>
<trkpt lat="44.9118688" lon="5.4057762">
<ele>1076.50</ele>
<time>2019-07-25T11:29:09Z</time>
</trkpt>
<trkpt lat="44.9118362" lon="5.4057574">
<ele>1076.61</ele>
<time>2019-07-25T11:29:10Z</time>
</trkpt>
<trkpt lat="44.9118084" lon="5.4057506">
<ele>1076.72</ele>
<time>2019-07-25T11:29:11Z</time>
</trkpt>
<trkpt lat="44.9117838" lon="5.4057136">
<ele>1076.83</ele>
<time>2019-07-25T11:29:12Z</time>
</trkpt>
<trkpt lat="44.9117521" lon="5.4056662">
<ele>1076.94</ele>
<time>2019-07-25T11:29:13Z</time>
</trkpt>
<trkpt lat="44.9117172" lon="5.4056378">
<ele>1077.05</ele>
<time>2019-07-25T11:29:14Z</time>
</trkpt>
<trkpt lat="44.9116730" lon="5.4056232">
<ele>1077.16</ele>
<time>2019-07-25T11:29:15Z</time>
</trkpt>
<trkpt lat="44.9116421" lon="5.4055955">
<ele>1077.27</ele>
<time>2019-07-25T11:29:16Z</time>
</trkpt>
<trkpt lat="44.9116102" lon="5.4055864">
<ele>1077.38</ele>
<time>2019-07-25T11:29:17Z</time>
</trkpt>
<trkpt lat="44.9115835" lon="5.4055812">
<ele>1077.51</ele>
<time>2019-07-25T11:29:18Z</time>
</trkpt>
<trkpt lat="44.9115545" lon="5.4055685">
<ele>1077.64</ele>
<time>2019-07-25T11:29:19Z</time>
</trkpt>
<trkpt lat="44.9115179" lon="5.4055490">
<ele>1077.77</ele>
<time>2019-07-25T11:29:20Z</time>
</trkpt>
<trkpt lat="44.9114865" lon="5.4055397">
<ele>1077.92</ele>
<time>2019-07-25T11:29:21Z</time>
</trkpt>
<trkpt lat="44.9114589" lon="5.4055269">
<ele>1078.07</ele>
<time>2019-07-25T11:29:22Z</time>
</trkpt>
<trkpt lat="44.9114280" lon="5.4055230">
<ele>1078.21</ele>
<time>2019-07-25T11:29:23Z</time>
</trkpt>
<trkpt lat="44.9113945" lon="5.4055257">
<ele>1078.34</ele>
<time>2019-07-25T11:29:24Z</time>
</trkpt>
<trkpt lat="44.9113597" lon="5.4055229">
<ele>1078.47</ele>
<time>2019-07-25T11:29:25Z</time>
</trkpt>
<trkpt lat="44.9113325" lon="5.4055088">
<ele>1078.62</ele>
<time>2019-07-25T11:29:26Z</time>
</trkpt>
<trkpt lat="44.9113020" lon="5.4054990">
<ele>1078.79</ele>
<time>2019-07-25T11:29:27Z</time>
</trkpt>
<trkpt lat="44.9112789" lon="5.4054860">
<ele>1078.99</ele>
<time>2019-07-25T11:29:28Z</time>
</trkpt>
<trkpt lat="44.9112392" lon="5.4054390">
<ele>1079.23</ele>
<time>2019-07-25T11:29:29Z</time>
</trkpt>
<trkpt lat="44.9112152" lon="5.4053765">
<ele>1079.49</ele>
<time>2019-07-25T11:29:30Z</time>
</trkpt>
<trkpt lat="44.9111768" lon="5.4053493">
<ele>1079.75</ele>
<time>2019-07-25T11:29:31Z</time>
</trkpt>
<trkpt lat="44.9111515" lon="5.4053292">
<ele>1080.00</ele>
<time>2019-07-25T11:29:32Z</time>
</trkpt>
<trkpt lat="44.9111247" lon="5.4053051">
<ele>1080.25</ele>
<time>2019-07-25T11:29:33Z</time>
</trkpt>
<trkpt lat="44.9111043" lon="5.4052746">
<ele>1080.52</ele>
<time>2019-07-25T11:29:34Z</time>
</trkpt>
<trkpt lat="44.9110816" lon="5.4052612">
<ele>1080.78</ele>
<time>2019-07-25T11:29:35Z</time>
</trkpt>
<trkpt lat="44.9110534" lon="5.4052465">
<ele>1081.04</ele>
<time>2019-07-25T11:29:36Z</time>
</trkpt>
<trkpt lat="44.9110289" lon="5.4052358">
<ele>1081.28</ele>
<time>2019-07-25T11:29:37Z</time>
</trkpt>
<trkpt lat="44.9110112" lon="5.4052197">
<ele>1081.51</ele>
<time>2019-07-25T11:29:38Z</time>
</trkpt>
<trkpt lat="44.9109918" lon="5.4052044">
<ele>1081.72</ele>
<time>2019-07-25T11:29:39Z</time>
</trkpt>
<trkpt lat="44.9109577" lon="5.4051902">
<ele>1081.93</ele>
<time>2019-07-25T11:29:40Z</time>
</trkpt>
<trkpt lat="44.9109252" lon="5.4051810">
<ele>1082.14</ele>
<time>2019-07-25T11:29:41Z</time>
</trkpt>
<trkpt lat="44.9108983" lon="5.4051690">
<ele>1082.35</ele>
<time>2019-07-25T11:29:42Z</time>
</trkpt>
<trkpt lat="44.9108724" lon="5.4051575">
<ele>1082.56</ele>
<time>2019-07-25T11:29:43Z</time>
</trkpt>
<trkpt lat="44.9108443" lon="5.4051466">
<ele>1082.76</ele>
<time>2019-07-25T11:29:44Z</time>
</trkpt>
<trkpt lat="44.9108160" lon="5.4051353">
<ele>1082.96</ele>
<time>2019-07-25T11:29:45Z</time>
</trkpt>
<trkpt lat="44.9107898" lon="5.4051260">
<ele>1083.16</ele>
<time>2019-07-25T11:29:46Z</time>
</trkpt>
<trkpt lat="44.9107646" lon="5.4051186">
<ele>1083.35</ele>
<time>2019-07-25T11:29:47Z</time>
</trkpt>
<trkpt lat="44.9107451" lon="5.4051136">
<ele>1083.53</ele>
<time>2019-07-25T11:29:48Z</time>
</trkpt>
<trkpt lat="44.9107229" lon="5.4051109">
<ele>1083.71</ele>
<time>2019-07-25T11:29:49Z</time>
</trkpt>
<trkpt lat="44.9106972" lon="5.4051068">
<ele>1083.88</ele>
<time>2019-07-25T11:29:50Z</time>
</trkpt>
<trkpt lat="44.9106705" lon="5.4050951">
<ele>1084.06</ele>
<time>2019-07-25T11:29:51Z</time>
</trkpt>
<trkpt lat="44.9106540" lon="5.4050840">
<ele>1084.23</ele>
<time>2019-07-25T11:29:52Z</time>
</trkpt>
<trkpt lat="44.9106423" lon="5.4050808">
<ele>1084.40</ele>
<time>2019-07-25T11:29:53Z</time>
</trkpt>
<trkpt lat="44.9106297" lon="5.4050745">
<ele>1084.57</ele>
<time>2019-07-25T11:29:54Z</time>
</trkpt>
<trkpt lat="44.9106118" lon="5.4050654">
<ele>1084.74</ele>
<time>2019-07-25T11:29:55Z</time>
</trkpt>
<trkpt lat="44.9105912" lon="5.4050555">
<ele>1084.91</ele>
<time>2019-07-25T11:29:56Z</time>
</trkpt>
<trkpt lat="44.9105689" lon="5.4050448">
<ele>1085.08</ele>
<time>2019-07-25T11:29:57Z</time>
</trkpt>
<trkpt lat="44.9105407" lon="5.4050390">
<ele>1085.25</ele>
<time>2019-07-25T11:29:58Z</time>
</trkpt>
<trkpt lat="44.9105241" lon="5.4050295">
<ele>1085.42</ele>
<time>2019-07-25T11:29:59Z</time>
</trkpt>
<trkpt lat="44.9105028" lon="5.4050275">
<ele>1085.60</ele>
<time>2019-07-25T11:30:00Z</time>
</trkpt>
<trkpt lat="44.9104725" lon="5.4050255">
<ele>1085.77</ele>
<time>2019-07-25T11:30:01Z</time>
</trkpt>
<trkpt lat="44.9104515" lon="5.4050361">
<ele>1085.94</ele>
<time>2019-07-25T11:30:02Z</time>
</trkpt>
<trkpt lat="44.9104234" lon="5.4050246">
<ele>1086.11</ele>
<time>2019-07-25T11:30:03Z</time>
</trkpt>
<trkpt lat="44.9103955" lon="5.4050161">
<ele>1086.28</ele>
<time>2019-07-25T11:30:04Z</time>
</trkpt>
<trkpt lat="44.9103482" lon="5.4050219">
<ele>1086.43</ele>
<time>2019-07-25T11:30:05Z</time>
</trkpt>
<trkpt lat="44.9103182" lon="5.4050149">
<ele>1086.59</ele>
<time>2019-07-25T11:30:06Z</time>
</trkpt>
<trkpt lat="44.9103043" lon="5.4050342">
<ele>1086.75</ele>
<time>2019-07-25T11:30:07Z</time>
</trkpt>
<trkpt lat="44.9102910" lon="5.4050300">
<ele>1086.90</ele>
<time>2019-07-25T11:30:08Z</time>
</trkpt>
<trkpt lat="44.9102711" lon="5.4050186">
<ele>1087.05</ele>
<time>2019-07-25T11:30:09Z</time>
</trkpt>
<trkpt lat="44.9102556" lon="5.4050189">
<ele>1087.20</ele>
<time>2019-07-25T11:30:10Z</time>
</trkpt>
<trkpt lat="44.9102382" lon="5.4050263">
<ele>1087.36</ele>
<time>2019-07-25T11:30:11Z</time>
</trkpt>
<trkpt lat="44.9102230" lon="5.4050298">
<ele>1087.53</ele>
<time>2019-07-25T11:30:12Z</time>
</trkpt>
<trkpt lat="44.9102124" lon="5.4050326">
<ele>1087.70</ele>
<time>2019-07-25T11:30:13Z</time>
</trkpt>
<trkpt lat="44.9102021" lon="5.4050347">
<ele>1087.87</ele>
<time>2019-07-25T11:30:14Z</time>
</trkpt>
<trkpt lat="44.9101920" lon="5.4050381">
<ele>1088.05</ele>
<time>2019-07-25T11:30:15Z</time>
</trkpt>
<trkpt lat="44.9101847" lon="5.4050461">
<ele>1088.22</ele>
<time>2019-07-25T11:30:16Z</time>
</trkpt>
<trkpt lat="44.9101764" lon="5.4050579">
<ele>1088.39</ele>
<time>2019-07-25T11:30:17Z</time>
</trkpt>
<trkpt lat="44.9101599" lon="5.4050637">
<ele>1088.57</ele>
<time>2019-07-25T11:30:18Z</time>
</trkpt>
<trkpt lat="44.9101447" lon="5.4050591">
<ele>1088.75</ele>
<time>2019-07-25T11:30:19Z</time>
</trkpt>
<trkpt lat="44.9101181" lon="5.4050571">
<ele>1088.93</ele>
<time>2019-07-25T11:30:20Z</time>
</trkpt>
<trkpt lat="44.9100956" lon="5.4050553">
<ele>1089.11</ele>
<time>2019-07-25T11:30:21Z</time>
</trkpt>
<trkpt lat="44.9100685" lon="5.4050560">
<ele>1089.28</ele>
<time>2019-07-25T11:30:22Z</time>
</trkpt>
<trkpt lat="44.9100443" lon="5.4050634">
<ele>1089.45</ele>
<time>2019-07-25T11:30:23Z</time>
</trkpt>
<trkpt lat="44.9100142" lon="5.4050680">
<ele>1089.61</ele>
<time>2019-07-25T11:30:24Z</time>
</trkpt>
<trkpt lat="44.9099835" lon="5.4050809">
<ele>1089.77</ele>
<time>2019-07-25T11:30:25Z</time>
</trkpt>
<trkpt lat="44.9099534" lon="5.4051109">
<ele>1091.38</ele>
<time>2019-07-25T11:30:26Z</time>
</trkpt>
<trkpt lat="44.9099176" lon="5.4051527">
<ele>1092.72</ele>
<time>2019-07-25T11:30:27Z</time>
</trkpt>
<trkpt lat="44.9098785" lon="5.4051941">
<ele>1093.81</ele>
<time>2019-07-25T11:30:28Z</time>
</trkpt>
<trkpt lat="44.9098280" lon="5.4052308">
<ele>1094.57</ele>
<time>2019-07-25T11:30:29Z</time>
</trkpt>
<trkpt lat="44.9097699" lon="5.4052556">
<ele>1095.05</ele>
<time>2019-07-25T11:30:30Z</time>
</trkpt>
<trkpt lat="44.9097043" lon="5.4052752">
<ele>1095.50</ele>
<time>2019-07-25T11:30:31Z</time>
</trkpt>
<trkpt lat="44.9096346" lon="5.4052928">
<ele>1095.82</ele>
<time>2019-07-25T11:30:32Z</time>
</trkpt>
<trkpt lat="44.9095696" lon="5.4052976">
<ele>1096.07</ele>
<time>2019-07-25T11:30:33Z</time>
</trkpt>
<trkpt lat="44.9095107" lon="5.4052854">
<ele>1096.25</ele>
<time>2019-07-25T11:30:34Z</time>
</trkpt>
<trkpt lat="44.9094534" lon="5.4052648">
<ele>1096.40</ele>
<time>2019-07-25T11:30:35Z</time>
</trkpt>
<trkpt lat="44.9093958" lon="5.4052293">
<ele>1096.48</ele>
<time>2019-07-25T11:30:36Z</time>
</trkpt>
<trkpt lat="44.9093415" lon="5.4051927">
<ele>1096.57</ele>
<time>2019-07-25T11:30:37Z</time>
</trkpt>
<trkpt lat="44.9092921" lon="5.4051468">
<ele>1096.66</ele>
<time>2019-07-25T11:30:38Z</time>
</trkpt>
<trkpt lat="44.9092444" lon="5.4050942">
<ele>1096.80</ele>
<time>2019-07-25T11:30:39Z</time>
</trkpt>
<trkpt lat="44.9091906" lon="5.4050278">
<ele>1096.95</ele>
<time>2019-07-25T11:30:40Z</time>
</trkpt>
<trkpt lat="44.9091326" lon="5.4049520">
<ele>1097.00</ele>
<time>2019-07-25T11:30:41Z</time>
</trkpt>
<trkpt lat="44.9090838" lon="5.4048883">
<ele>1097.02</ele>
<time>2019-07-25T11:30:42Z</time>
</trkpt>
<trkpt lat="44.9090266" lon="5.4048175">
<ele>1096.97</ele>
<time>2019-07-25T11:30:43Z</time>
</trkpt>
<trkpt lat="44.9089736" lon="5.4047428">
<ele>1096.85</ele>
<time>2019-07-25T11:30:44Z</time>
</trkpt>
<trkpt lat="44.9089231" lon="5.4046682">
<ele>1096.76</ele>
<time>2019-07-25T11:30:45Z</time>
</trkpt>
<trkpt lat="44.9088758" lon="5.4045944">
<ele>1096.58</ele>
<time>2019-07-25T11:30:46Z</time>
</trkpt>
<trkpt lat="44.9088308" lon="5.4045265">
<ele>1096.16</ele>
<time>2019-07-25T11:30:47Z</time>
</trkpt>
<trkpt lat="44.9087902" lon="5.4044484">
<ele>1095.61</ele>
<time>2019-07-25T11:30:48Z</time>
</trkpt>
<trkpt lat="44.9087475" lon="5.4043842">
<ele>1095.09</ele>
<time>2019-07-25T11:30:49Z</time>
</trkpt>
<trkpt lat="44.9087052" lon="5.4043250">
<ele>1094.57</ele>
<time>2019-07-25T11:30:50Z</time>
</trkpt>
<trkpt lat="44.9086660" lon="5.4042732">
<ele>1094.13</ele>
<time>2019-07-25T11:30:51Z</time>
</trkpt>
<trkpt lat="44.9086314" lon="5.4042199">
<ele>1093.75</ele>
<time>2019-07-25T11:30:52Z</time>
</trkpt>
<trkpt lat="44.9085932" lon="5.4041604">
<ele>1093.39</ele>
<time>2019-07-25T11:30:53Z</time>
</trkpt>
<trkpt lat="44.9085506" lon="5.4040892">
<ele>1092.95</ele>
<time>2019-07-25T11:30:54Z</time>
</trkpt>
<trkpt lat="44.9085105" lon="5.4040261">
<ele>1092.51</ele>
<time>2019-07-25T11:30:55Z</time>
</trkpt>
<trkpt lat="44.9084680" lon="5.4039829">
<ele>1092.06</ele>
<time>2019-07-25T11:30:56Z</time>
</trkpt>
<trkpt lat="44.9084246" lon="5.4039657">
<ele>1091.62</ele>
<time>2019-07-25T11:30:57Z</time>
</trkpt>
<trkpt lat="44.9083935" lon="5.4039498">
<ele>1091.58</ele>
<time>2019-07-25T11:30:58Z</time>
</trkpt>
<trkpt lat="44.9083742" lon="5.4039349">
<ele>1091.53</ele>
<time>2019-07-25T11:30:59Z</time>
</trkpt>
<trkpt lat="44.9083456" lon="5.4039123">
<ele>1091.48</ele>
<time>2019-07-25T11:31:00Z</time>
</trkpt>
<trkpt lat="44.9083095" lon="5.4038949">
<ele>1090.98</ele>
<time>2019-07-25T11:31:01Z</time>
</trkpt>
<trkpt lat="44.9082696" lon="5.4038799">
<ele>1090.64</ele>
<time>2019-07-25T11:31:02Z</time>
</trkpt>
<trkpt lat="44.9082252" lon="5.4038649">
<ele>1090.44</ele>
<time>2019-07-25T11:31:03Z</time>
</trkpt>
<trkpt lat="44.9081828" lon="5.4038433">
<ele>1090.25</ele>
<time>2019-07-25T11:31:04Z</time>
</trkpt>
<trkpt lat="44.9081362" lon="5.4038246">
<ele>1090.02</ele>
<time>2019-07-25T11:31:05Z</time>
</trkpt>
<trkpt lat="44.9080858" lon="5.4038180">
<ele>1089.78</ele>
<time>2019-07-25T11:31:06Z</time>
</trkpt>
<trkpt lat="44.9080391" lon="5.4038091">
<ele>1089.60</ele>
<time>2019-07-25T11:31:07Z</time>
</trkpt>
<trkpt lat="44.9079886" lon="5.4038004">
<ele>1089.41</ele>
<time>2019-07-25T11:31:08Z</time>
</trkpt>
<trkpt lat="44.9079393" lon="5.4038152">
<ele>1089.13</ele>
<time>2019-07-25T11:31:09Z</time>
</trkpt>
<trkpt lat="44.9078830" lon="5.4038296">
<ele>1088.82</ele>
<time>2019-07-25T11:31:10Z</time>
</trkpt>
<trkpt lat="44.9078224" lon="5.4038426">
<ele>1088.54</ele>
<time>2019-07-25T11:31:11Z</time>
</trkpt>
<trkpt lat="44.9077633" lon="5.4038467">
<ele>1088.28</ele>
<time>2019-07-25T11:31:12Z</time>
</trkpt>
<trkpt lat="44.9076995" lon="5.4038577">
<ele>1087.99</ele>
<time>2019-07-25T11:31:13Z</time>
</trkpt>
<trkpt lat="44.9076330" lon="5.4038585">
<ele>1087.70</ele>
<time>2019-07-25T11:31:14Z</time>
</trkpt>
<trkpt lat="44.9075559" lon="5.4038643">
<ele>1087.51</ele>
<time>2019-07-25T11:31:15Z</time>
</trkpt>
<trkpt lat="44.9074878" lon="5.4038614">
<ele>1087.19</ele>
<time>2019-07-25T11:31:16Z</time>
</trkpt>
<trkpt lat="44.9074202" lon="5.4038531">
<ele>1086.97</ele>
<time>2019-07-25T11:31:17Z</time>
</trkpt>
<trkpt lat="44.9073563" lon="5.4038424">
<ele>1086.82</ele>
<time>2019-07-25T11:31:18Z</time>
</trkpt>
<trkpt lat="44.9072835" lon="5.4038278">
<ele>1086.67</ele>
<time>2019-07-25T11:31:19Z</time>
</trkpt>
<trkpt lat="44.9072028" lon="5.4038098">
<ele>1086.51</ele>
<time>2019-07-25T11:31:20Z</time>
</trkpt>
<trkpt lat="44.9071224" lon="5.4037852">
<ele>1086.30</ele>
<time>2019-07-25T11:31:21Z</time>
</trkpt>
<trkpt lat="44.9070320" lon="5.4037811">
<ele>1086.08</ele>
<time>2019-07-25T11:31:22Z</time>
</trkpt>
<trkpt lat="44.9069404" lon="5.4037744">
<ele>1085.81</ele>
<time>2019-07-25T11:31:23Z</time>
</trkpt>
<trkpt lat="44.9068459" lon="5.4037616">
<ele>1085.54</ele>
<time>2019-07-25T11:31:24Z</time>
</trkpt>
<trkpt lat="44.9067477" lon="5.4037375">
<ele>1085.28</ele>
<time>2019-07-25T11:31:25Z</time>
</trkpt>
<trkpt lat="44.9066418" lon="5.4037120">
<ele>1085.00</ele>
<time>2019-07-25T11:31:26Z</time>
</trkpt>
<trkpt lat="44.9065316" lon="5.4036831">
<ele>1084.71</ele>
<time>2019-07-25T11:31:27Z</time>
</trkpt>
<trkpt lat="44.9064156" lon="5.4036440">
<ele>1084.34</ele>
<time>2019-07-25T11:31:28Z</time>
</trkpt>
<trkpt lat="44.9063004" lon="5.4036120">
<ele>1084.05</ele>
<time>2019-07-25T11:31:29Z</time>
</trkpt>
<trkpt lat="44.9061905" lon="5.4036003">
<ele>1083.86</ele>
<time>2019-07-25T11:31:30Z</time>
</trkpt>
<trkpt lat="44.9061002" lon="5.4035793">
<ele>1083.76</ele>
<time>2019-07-25T11:31:31Z</time>
</trkpt>
<trkpt lat="44.9060170" lon="5.4035493">
<ele>1083.67</ele>
<time>2019-07-25T11:31:32Z</time>
</trkpt>
<trkpt lat="44.9059308" lon="5.4035205">
<ele>1083.59</ele>
<time>2019-07-25T11:31:33Z</time>
</trkpt>
<trkpt lat="44.9058528" lon="5.4035057">
<ele>1083.53</ele>
<time>2019-07-25T11:31:34Z</time>
</trkpt>
<trkpt lat="44.9057902" lon="5.4034879">
<ele>1083.49</ele>
<time>2019-07-25T11:31:35Z</time>
</trkpt>
<trkpt lat="44.9057410" lon="5.4034871">
<ele>1083.41</ele>
<time>2019-07-25T11:31:36Z</time>
</trkpt>
<trkpt lat="44.9057057" lon="5.4034819">
<ele>1083.40</ele>
<time>2019-07-25T11:31:37Z</time>
</trkpt>
<trkpt lat="44.9056826" lon="5.4034793">
<ele>1083.38</ele>
<time>2019-07-25T11:31:38Z</time>
</trkpt>
<trkpt lat="44.9056634" lon="5.4034728">
<ele>1083.36</ele>
<time>2019-07-25T11:31:39Z</time>
</trkpt>
<trkpt lat="44.9056387" lon="5.4034757">
<ele>1083.33</ele>
<time>2019-07-25T11:31:40Z</time>
</trkpt>
<trkpt lat="44.9056097" lon="5.4034853">
<ele>1083.29</ele>
<time>2019-07-25T11:31:41Z</time>
</trkpt>
<trkpt lat="44.9055840" lon="5.4035048">
<ele>1083.25</ele>
<time>2019-07-25T11:31:42Z</time>
</trkpt>
<trkpt lat="44.9055722" lon="5.4035391">
<ele>1083.21</ele>
<time>2019-07-25T11:31:43Z</time>
</trkpt>
<trkpt lat="44.9055814" lon="5.4035701">
<ele>1083.17</ele>
<time>2019-07-25T11:31:44Z</time>
</trkpt>
<trkpt lat="44.9055934" lon="5.4036024">
<ele>1083.14</ele>
<time>2019-07-25T11:31:45Z</time>
</trkpt>
<trkpt lat="44.9056005" lon="5.4036340">
<ele>1083.11</ele>
<time>2019-07-25T11:31:46Z</time>
</trkpt>
<trkpt lat="44.9055933" lon="5.4036573">
<ele>1083.07</ele>
<time>2019-07-25T11:31:47Z</time>
</trkpt>
<trkpt lat="44.9055897" lon="5.4036801">
<ele>1083.03</ele>
<time>2019-07-25T11:31:48Z</time>
</trkpt>
<trkpt lat="44.9055923" lon="5.4036987">
<ele>1082.98</ele>
<time>2019-07-25T11:31:49Z</time>
</trkpt>
<trkpt lat="44.9055946" lon="5.4037029">
<ele>1082.94</ele>
<time>2019-07-25T11:31:50Z</time>
</trkpt>
<trkpt lat="44.9055941" lon="5.4037096">
<ele>1082.88</ele>
<time>2019-07-25T11:31:51Z</time>
</trkpt>
<trkpt lat="44.9055934" lon="5.4037219">
<ele>1082.82</ele>
<time>2019-07-25T11:31:52Z</time>
</trkpt>
<trkpt lat="44.9055922" lon="5.4037444">
<ele>1082.76</ele>
<time>2019-07-25T11:31:53Z</time>
</trkpt>
<trkpt lat="44.9055867" lon="5.4037705">
<ele>1082.69</ele>
<time>2019-07-25T11:31:54Z</time>
</trkpt>
<trkpt lat="44.9055814" lon="5.4037964">
<ele>1082.62</ele>
<time>2019-07-25T11:31:55Z</time>
</trkpt>
<trkpt lat="44.9055776" lon="5.4038282">
<ele>1082.56</ele>
<time>2019-07-25T11:31:56Z</time>
</trkpt>
<trkpt lat="44.9055737" lon="5.4038613">
<ele>1082.50</ele>
<time>2019-07-25T11:31:57Z</time>
</trkpt>
<trkpt lat="44.9055670" lon="5.4039034">
<ele>1082.44</ele>
<time>2019-07-25T11:31:58Z</time>
</trkpt>
<trkpt lat="44.9055544" lon="5.4039418">
<ele>1082.40</ele>
<time>2019-07-25T11:31:59Z</time>
</trkpt>
<trkpt lat="44.9055391" lon="5.4039793">
<ele>1082.36</ele>
<time>2019-07-25T11:32:00Z</time>
</trkpt>
<trkpt lat="44.9055318" lon="5.4040178">
<ele>1082.33</ele>
<time>2019-07-25T11:32:01Z</time>
</trkpt>
<trkpt lat="44.9055224" lon="5.4040540">
<ele>1082.32</ele>
<time>2019-07-25T11:32:02Z</time>
</trkpt>
<trkpt lat="44.9055062" lon="5.4040798">
<ele>1082.31</ele>
<time>2019-07-25T11:32:03Z</time>
</trkpt>
<trkpt lat="44.9054906" lon="5.4041086">
<ele>1082.31</ele>
<time>2019-07-25T11:32:04Z</time>
</trkpt>
<trkpt lat="44.9054692" lon="5.4041405">
<ele>1082.32</ele>
<time>2019-07-25T11:32:05Z</time>
</trkpt>
<trkpt lat="44.9054493" lon="5.4041731">
<ele>1082.35</ele>
<time>2019-07-25T11:32:06Z</time>
</trkpt>
<trkpt lat="44.9054263" lon="5.4042037">
<ele>1082.39</ele>
<time>2019-07-25T11:32:07Z</time>
</trkpt>
<trkpt lat="44.9054010" lon="5.4042265">
<ele>1082.45</ele>
<time>2019-07-25T11:32:08Z</time>
</trkpt>
<trkpt lat="44.9053757" lon="5.4042459">
<ele>1082.50</ele>
<time>2019-07-25T11:32:09Z</time>
</trkpt>
<trkpt lat="44.9053456" lon="5.4042630">
<ele>1082.56</ele>
<time>2019-07-25T11:32:10Z</time>
</trkpt>
<trkpt lat="44.9053173" lon="5.4042795">
<ele>1082.63</ele>
<time>2019-07-25T11:32:11Z</time>
</trkpt>
<trkpt lat="44.9052878" lon="5.4042977">
<ele>1082.69</ele>
<time>2019-07-25T11:32:12Z</time>
</trkpt>
<trkpt lat="44.9052549" lon="5.4043159">
<ele>1082.74</ele>
<time>2019-07-25T11:32:13Z</time>
</trkpt>
<trkpt lat="44.9052235" lon="5.4043359">
<ele>1082.79</ele>
<time>2019-07-25T11:32:14Z</time>
</trkpt>
<trkpt lat="44.9051931" lon="5.4043578">
<ele>1082.83</ele>
<time>2019-07-25T11:32:15Z</time>
</trkpt>
<trkpt lat="44.9051633" lon="5.4043767">
<ele>1082.86</ele>
<time>2019-07-25T11:32:16Z</time>
</trkpt>
<trkpt lat="44.9051344" lon="5.4043889">
<ele>1082.88</ele>
<time>2019-07-25T11:32:17Z</time>
</trkpt>
<trkpt lat="44.9051037" lon="5.4044047">
<ele>1082.90</ele>
<time>2019-07-25T11:32:18Z</time>
</trkpt>
<trkpt lat="44.9050724" lon="5.4044222">
<ele>1082.91</ele>
<time>2019-07-25T11:32:19Z</time>
</trkpt>
<trkpt lat="44.9050439" lon="5.4044368">
<ele>1082.92</ele>
<time>2019-07-25T11:32:20Z</time>
</trkpt>
<trkpt lat="44.9050171" lon="5.4044494">
<ele>1082.92</ele>
<time>2019-07-25T11:32:21Z</time>
</trkpt>
<trkpt lat="44.9049884" lon="5.4044639">
<ele>1082.93</ele>
<time>2019-07-25T11:32:22Z</time>
</trkpt>
<trkpt lat="44.9049585" lon="5.4044803">
<ele>1082.94</ele>
<time>2019-07-25T11:32:23Z</time>
</trkpt>
<trkpt lat="44.9049309" lon="5.4045137">
<ele>1082.95</ele>
<time>2019-07-25T11:32:24Z</time>
</trkpt>
<trkpt lat="44.9049034" lon="5.4045380">
<ele>1082.96</ele>
<time>2019-07-25T11:32:25Z</time>
</trkpt>
<trkpt lat="44.9048743" lon="5.4045538">
<ele>1082.96</ele>
<time>2019-07-25T11:32:26Z</time>
</trkpt>
<trkpt lat="44.9048493" lon="5.4045707">
<ele>1082.96</ele>
<time>2019-07-25T11:32:27Z</time>
</trkpt>
<trkpt lat="44.9048242" lon="5.4045858">
<ele>1082.96</ele>
<time>2019-07-25T11:32:28Z</time>
</trkpt>
<trkpt lat="44.9047966" lon="5.4046130">
<ele>1082.96</ele>
<time>2019-07-25T11:32:29Z</time>
</trkpt>
<trkpt lat="44.9047672" lon="5.4046407">
<ele>1082.96</ele>
<time>2019-07-25T11:32:30Z</time>
</trkpt>
<trkpt lat="44.9047367" lon="5.4046551">
<ele>1082.95</ele>
<time>2019-07-25T11:32:31Z</time>
</trkpt>
<trkpt lat="44.9047068" lon="5.4046733">
<ele>1082.94</ele>
<time>2019-07-25T11:32:32Z</time>
</trkpt>
<trkpt lat="44.9046842" lon="5.4046815">
<ele>1082.94</ele>
<time>2019-07-25T11:32:33Z</time>
</trkpt>
<trkpt lat="44.9046561" lon="5.4046925">
<ele>1082.93</ele>
<time>2019-07-25T11:32:34Z</time>
</trkpt>
<trkpt lat="44.9046247" lon="5.4047004">
<ele>1082.92</ele>
<time>2019-07-25T11:32:35Z</time>
</trkpt>
<trkpt lat="44.9045923" lon="5.4047021">
<ele>1082.90</ele>
<time>2019-07-25T11:32:36Z</time>
</trkpt>
<trkpt lat="44.9045578" lon="5.4047089">
<ele>1082.89</ele>
<time>2019-07-25T11:32:37Z</time>
</trkpt>
<trkpt lat="44.9045226" lon="5.4047091">
<ele>1082.88</ele>
<time>2019-07-25T11:32:38Z</time>
</trkpt>
<trkpt lat="44.9044874" lon="5.4047089">
<ele>1082.87</ele>
<time>2019-07-25T11:32:39Z</time>
</trkpt>
<trkpt lat="44.9044603" lon="5.4047052">
<ele>1082.86</ele>
<time>2019-07-25T11:32:40Z</time>
</trkpt>
<trkpt lat="44.9044433" lon="5.4046978">
<ele>1082.85</ele>
<time>2019-07-25T11:32:41Z</time>
</trkpt>
<trkpt lat="44.9044116" lon="5.4046861">
<ele>1082.84</ele>
<time>2019-07-25T11:32:42Z</time>
</trkpt>
<trkpt lat="44.9043935" lon="5.4046671">
<ele>1082.83</ele>
<time>2019-07-25T11:32:43Z</time>
</trkpt>
<trkpt lat="44.9043548" lon="5.4046550">
<ele>1082.82</ele>
<time>2019-07-25T11:32:44Z</time>
</trkpt>
<trkpt lat="44.9043256" lon="5.4046382">
<ele>1082.82</ele>
<time>2019-07-25T11:32:45Z</time>
</trkpt>
<trkpt lat="44.9043067" lon="5.4046220">
<ele>1082.81</ele>
<time>2019-07-25T11:32:46Z</time>
</trkpt>
<trkpt lat="44.9042906" lon="5.4046043">
<ele>1082.81</ele>
<time>2019-07-25T11:32:47Z</time>
</trkpt>
<trkpt lat="44.9042591" lon="5.4045780">
<ele>1082.81</ele>
<time>2019-07-25T11:32:48Z</time>
</trkpt>
<trkpt lat="44.9042334" lon="5.4045703">
<ele>1082.81</ele>
<time>2019-07-25T11:32:49Z</time>
</trkpt>
<trkpt lat="44.9041876" lon="5.4045680">
<ele>1082.81</ele>
<time>2019-07-25T11:32:50Z</time>
</trkpt>
<trkpt lat="44.9041474" lon="5.4045492">
<ele>1082.81</ele>
<time>2019-07-25T11:32:51Z</time>
</trkpt>
<trkpt lat="44.9041274" lon="5.4045375">
<ele>1082.81</ele>
<time>2019-07-25T11:32:52Z</time>
</trkpt>
<trkpt lat="44.9041008" lon="5.4045225">
<ele>1082.81</ele>
<time>2019-07-25T11:32:53Z</time>
</trkpt>
<trkpt lat="44.9040747" lon="5.4045135">
<ele>1082.82</ele>
<time>2019-07-25T11:32:54Z</time>
</trkpt>
<trkpt lat="44.9040298" lon="5.4045117">
<ele>1082.82</ele>
<time>2019-07-25T11:32:55Z</time>
</trkpt>
<trkpt lat="44.9039919" lon="5.4044945">
<ele>1082.82</ele>
<time>2019-07-25T11:32:56Z</time>
</trkpt>
<trkpt lat="44.9039563" lon="5.4044807">
<ele>1082.82</ele>
<time>2019-07-25T11:32:57Z</time>
</trkpt>
<trkpt lat="44.9039322" lon="5.4044722">
<ele>1082.81</ele>
<time>2019-07-25T11:32:58Z</time>
</trkpt>
<trkpt lat="44.9039002" lon="5.4044534">
<ele>1082.81</ele>
<time>2019-07-25T11:32:59Z</time>
</trkpt>
<trkpt lat="44.9038768" lon="5.4044315">
<ele>1082.81</ele>
<time>2019-07-25T11:33:00Z</time>
</trkpt>
<trkpt lat="44.9038587" lon="5.4044019">
<ele>1082.82</ele>
<time>2019-07-25T11:33:01Z</time>
</trkpt>
<trkpt lat="44.9038361" lon="5.4043680">
<ele>1082.82</ele>
<time>2019-07-25T11:33:02Z</time>
</trkpt>
<trkpt lat="44.9038181" lon="5.4043391">
<ele>1082.82</ele>
<time>2019-07-25T11:33:03Z</time>
</trkpt>
<trkpt lat="44.9038035" lon="5.4043111">
<ele>1082.83</ele>
<time>2019-07-25T11:33:04Z</time>
</trkpt>
<trkpt lat="44.9037896" lon="5.4042748">
<ele>1082.84</ele>
<time>2019-07-25T11:33:05Z</time>
</trkpt>
<trkpt lat="44.9037795" lon="5.4042364">
<ele>1082.85</ele>
<time>2019-07-25T11:33:06Z</time>
</trkpt>
<trkpt lat="44.9037693" lon="5.4042015">
<ele>1082.86</ele>
<time>2019-07-25T11:33:07Z</time>
</trkpt>
<trkpt lat="44.9037598" lon="5.4041618">
<ele>1082.88</ele>
<time>2019-07-25T11:33:08Z</time>
</trkpt>
<trkpt lat="44.9037547" lon="5.4041179">
<ele>1082.89</ele>
<time>2019-07-25T11:33:09Z</time>
</trkpt>
<trkpt lat="44.9037563" lon="5.4040614">
<ele>1082.91</ele>
<time>2019-07-25T11:33:10Z</time>
</trkpt>
<trkpt lat="44.9037596" lon="5.4040077">
<ele>1082.92</ele>
<time>2019-07-25T11:33:11Z</time>
</trkpt>
<trkpt lat="44.9037575" lon="5.4039633">
<ele>1082.93</ele>
<time>2019-07-25T11:33:12Z</time>
</trkpt>
<trkpt lat="44.9037525" lon="5.4039194">
<ele>1082.95</ele>
<time>2019-07-25T11:33:13Z</time>
</trkpt>
<trkpt lat="44.9037530" lon="5.4038723">
<ele>1082.95</ele>
<time>2019-07-25T11:33:14Z</time>
</trkpt>
<trkpt lat="44.9037562" lon="5.4038295">
<ele>1082.96</ele>
<time>2019-07-25T11:33:15Z</time>
</trkpt>
<trkpt lat="44.9037580" lon="5.4037880">
<ele>1082.97</ele>
<time>2019-07-25T11:33:16Z</time>
</trkpt>
<trkpt lat="44.9037595" lon="5.4037487">
<ele>1082.97</ele>
<time>2019-07-25T11:33:17Z</time>
</trkpt>
<trkpt lat="44.9037596" lon="5.4037139">
<ele>1082.98</ele>
<time>2019-07-25T11:33:18Z</time>
</trkpt>
<trkpt lat="44.9037561" lon="5.4036760">
<ele>1082.99</ele>
<time>2019-07-25T11:33:19Z</time>
</trkpt>
<trkpt lat="44.9037540" lon="5.4036454">
<ele>1083.01</ele>
<time>2019-07-25T11:33:20Z</time>
</trkpt>
<trkpt lat="44.9037499" lon="5.4036092">
<ele>1083.02</ele>
<time>2019-07-25T11:33:21Z</time>
</trkpt>
<trkpt lat="44.9037475" lon="5.4035778">
<ele>1083.04</ele>
<time>2019-07-25T11:33:22Z</time>
</trkpt>
<trkpt lat="44.9037457" lon="5.4035435">
<ele>1083.06</ele>
<time>2019-07-25T11:33:23Z</time>
</trkpt>
<trkpt lat="44.9037450" lon="5.4035154">
<ele>1083.07</ele>
<time>2019-07-25T11:33:24Z</time>
</trkpt>
<trkpt lat="44.9037446" lon="5.4034857">
<ele>1083.10</ele>
<time>2019-07-25T11:33:25Z</time>
</trkpt>
<trkpt lat="44.9037454" lon="5.4034593">
<ele>1083.12</ele>
<time>2019-07-25T11:33:26Z</time>
</trkpt>
<trkpt lat="44.9037473" lon="5.4034282">
<ele>1083.15</ele>
<time>2019-07-25T11:33:27Z</time>
</trkpt>
<trkpt lat="44.9037485" lon="5.4033912">
<ele>1083.17</ele>
<time>2019-07-25T11:33:28Z</time>
</trkpt>
<trkpt lat="44.9037470" lon="5.4033532">
<ele>1083.20</ele>
<time>2019-07-25T11:33:29Z</time>
</trkpt>
<trkpt lat="44.9037440" lon="5.4033225">
<ele>1083.23</ele>
<time>2019-07-25T11:33:30Z</time>
</trkpt>
<trkpt lat="44.9037385" lon="5.4032816">
<ele>1083.25</ele>
<time>2019-07-25T11:33:31Z</time>
</trkpt>
<trkpt lat="44.9037350" lon="5.4032498">
<ele>1083.28</ele>
<time>2019-07-25T11:33:32Z</time>
</trkpt>
<trkpt lat="44.9037301" lon="5.4032216">
<ele>1083.32</ele>
<time>2019-07-25T11:33:33Z</time>
</trkpt>
<trkpt lat="44.9037231" lon="5.4031884">
<ele>1083.35</ele>
<time>2019-07-25T11:33:34Z</time>
</trkpt>
<trkpt lat="44.9037046" lon="5.4031571">
<ele>1083.39</ele>
<time>2019-07-25T11:33:35Z</time>
</trkpt>
<trkpt lat="44.9036822" lon="5.4031265">
<ele>1083.43</ele>
<time>2019-07-25T11:33:36Z</time>
</trkpt>
<trkpt lat="44.9036546" lon="5.4031022">
<ele>1083.47</ele>
<time>2019-07-25T11:33:37Z</time>
</trkpt>
<trkpt lat="44.9036241" lon="5.4030842">
<ele>1083.50</ele>
<time>2019-07-25T11:33:38Z</time>
</trkpt>
<trkpt lat="44.9035925" lon="5.4030666">
<ele>1083.55</ele>
<time>2019-07-25T11:33:39Z</time>
</trkpt>
<trkpt lat="44.9035602" lon="5.4030513">
<ele>1083.59</ele>
<time>2019-07-25T11:33:40Z</time>
</trkpt>
<trkpt lat="44.9035302" lon="5.4030401">
<ele>1083.62</ele>
<time>2019-07-25T11:33:41Z</time>
</trkpt>
<trkpt lat="44.9035026" lon="5.4030281">
<ele>1083.66</ele>
<time>2019-07-25T11:33:42Z</time>
</trkpt>
<trkpt lat="44.9034770" lon="5.4030193">
<ele>1083.71</ele>
<time>2019-07-25T11:33:43Z</time>
</trkpt>
<trkpt lat="44.9034511" lon="5.4030070">
<ele>1083.76</ele>
<time>2019-07-25T11:33:44Z</time>
</trkpt>
<trkpt lat="44.9034217" lon="5.4029928">
<ele>1083.81</ele>
<time>2019-07-25T11:33:45Z</time>
</trkpt>
<trkpt lat="44.9033911" lon="5.4029861">
<ele>1083.86</ele>
<time>2019-07-25T11:33:46Z</time>
</trkpt>
<trkpt lat="44.9033628" lon="5.4029785">
<ele>1083.91</ele>
<time>2019-07-25T11:33:47Z</time>
</trkpt>
<trkpt lat="44.9033355" lon="5.4029705">
<ele>1083.96</ele>
<time>2019-07-25T11:33:48Z</time>
</trkpt>
<trkpt lat="44.9033090" lon="5.4029619">
<ele>1084.01</ele>
<time>2019-07-25T11:33:49Z</time>
</trkpt>
<trkpt lat="44.9032802" lon="5.4029543">
<ele>1084.06</ele>
<time>2019-07-25T11:33:50Z</time>
</trkpt>
<trkpt lat="44.9032526" lon="5.4029477">
<ele>1084.11</ele>
<time>2019-07-25T11:33:51Z</time>
</trkpt>
<trkpt lat="44.9032281" lon="5.4029405">
<ele>1084.17</ele>
<time>2019-07-25T11:33:52Z</time>
</trkpt>
<trkpt lat="44.9032038" lon="5.4029302">
<ele>1084.22</ele>
<time>2019-07-25T11:33:53Z</time>
</trkpt>
<trkpt lat="44.9031811" lon="5.4029212">
<ele>1084.28</ele>
<time>2019-07-25T11:33:54Z</time>
</trkpt>
<trkpt lat="44.9031567" lon="5.4029134">
<ele>1084.34</ele>
<time>2019-07-25T11:33:55Z</time>
</trkpt>
<trkpt lat="44.9031299" lon="5.4029047">
<ele>1084.41</ele>
<time>2019-07-25T11:33:56Z</time>
</trkpt>
<trkpt lat="44.9031029" lon="5.4028983">
<ele>1084.48</ele>
<time>2019-07-25T11:33:57Z</time>
</trkpt>
<trkpt lat="44.9030791" lon="5.4028950">
<ele>1084.55</ele>
<time>2019-07-25T11:33:58Z</time>
</trkpt>
<trkpt lat="44.9030531" lon="5.4028872">
<ele>1084.63</ele>
<time>2019-07-25T11:33:59Z</time>
</trkpt>
<trkpt lat="44.9030252" lon="5.4028797">
<ele>1084.71</ele>
<time>2019-07-25T11:34:00Z</time>
</trkpt>
<trkpt lat="44.9029981" lon="5.4028699">
<ele>1084.79</ele>
<time>2019-07-25T11:34:01Z</time>
</trkpt>
<trkpt lat="44.9029696" lon="5.4028599">
<ele>1084.88</ele>
<time>2019-07-25T11:34:02Z</time>
</trkpt>
<trkpt lat="44.9029404" lon="5.4028464">
<ele>1084.97</ele>
<time>2019-07-25T11:34:03Z</time>
</trkpt>
<trkpt lat="44.9029136" lon="5.4028314">
<ele>1085.07</ele>
<time>2019-07-25T11:34:04Z</time>
</trkpt>
<trkpt lat="44.9028908" lon="5.4028230">
<ele>1085.17</ele>
<time>2019-07-25T11:34:05Z</time>
</trkpt>
<trkpt lat="44.9028663" lon="5.4028193">
<ele>1085.27</ele>
<time>2019-07-25T11:34:06Z</time>
</trkpt>
<trkpt lat="44.9028425" lon="5.4028159">
<ele>1085.36</ele>
<time>2019-07-25T11:34:07Z</time>
</trkpt>
<trkpt lat="44.9028163" lon="5.4028089">
<ele>1085.45</ele>
<time>2019-07-25T11:34:08Z</time>
</trkpt>
<trkpt lat="44.9027900" lon="5.4028054">
<ele>1085.54</ele>
<time>2019-07-25T11:34:09Z</time>
</trkpt>
<trkpt lat="44.9027621" lon="5.4027987">
<ele>1085.62</ele>
<time>2019-07-25T11:34:10Z</time>
</trkpt>
<trkpt lat="44.9027360" lon="5.4027980">
<ele>1085.70</ele>
<time>2019-07-25T11:34:11Z</time>
</trkpt>
<trkpt lat="44.9027070" lon="5.4027947">
<ele>1085.78</ele>
<time>2019-07-25T11:34:12Z</time>
</trkpt>
<trkpt lat="44.9026769" lon="5.4027919">
<ele>1085.85</ele>
<time>2019-07-25T11:34:13Z</time>
</trkpt>
<trkpt lat="44.9026458" lon="5.4027889">
<ele>1085.92</ele>
<time>2019-07-25T11:34:14Z</time>
</trkpt>
<trkpt lat="44.9026158" lon="5.4027830">
<ele>1085.99</ele>
<time>2019-07-25T11:34:15Z</time>
</trkpt>
<trkpt lat="44.9025848" lon="5.4027772">
<ele>1086.06</ele>
<time>2019-07-25T11:34:16Z</time>
</trkpt>
<trkpt lat="44.9025410" lon="5.4027735">
<ele>1086.12</ele>
<time>2019-07-25T11:34:17Z</time>
</trkpt>
<trkpt lat="44.9025036" lon="5.4027723">
<ele>1086.18</ele>
<time>2019-07-25T11:34:18Z</time>
</trkpt>
<trkpt lat="44.9024687" lon="5.4027718">
<ele>1086.25</ele>
<time>2019-07-25T11:34:19Z</time>
</trkpt>
<trkpt lat="44.9024392" lon="5.4027638">
<ele>1086.32</ele>
<time>2019-07-25T11:34:20Z</time>
</trkpt>
<trkpt lat="44.9024070" lon="5.4027577">
<ele>1086.38</ele>
<time>2019-07-25T11:34:21Z</time>
</trkpt>
<trkpt lat="44.9023784" lon="5.4027570">
<ele>1086.45</ele>
<time>2019-07-25T11:34:22Z</time>
</trkpt>
<trkpt lat="44.9023491" lon="5.4027517">
<ele>1086.52</ele>
<time>2019-07-25T11:34:23Z</time>
</trkpt>
<trkpt lat="44.9023202" lon="5.4027472">
<ele>1086.59</ele>
<time>2019-07-25T11:34:24Z</time>
</trkpt>
<trkpt lat="44.9022933" lon="5.4027463">
<ele>1086.65</ele>
<time>2019-07-25T11:34:25Z</time>
</trkpt>
<trkpt lat="44.9022668" lon="5.4027494">
<ele>1086.72</ele>
<time>2019-07-25T11:34:26Z</time>
</trkpt>
<trkpt lat="44.9022413" lon="5.4027375">
<ele>1086.79</ele>
<time>2019-07-25T11:34:27Z</time>
</trkpt>
<trkpt lat="44.9022160" lon="5.4027291">
<ele>1086.85</ele>
<time>2019-07-25T11:34:28Z</time>
</trkpt>
<trkpt lat="44.9021869" lon="5.4027205">
<ele>1086.92</ele>
<time>2019-07-25T11:34:29Z</time>
</trkpt>
<trkpt lat="44.9021550" lon="5.4027098">
<ele>1086.99</ele>
<time>2019-07-25T11:34:30Z</time>
</trkpt>
<trkpt lat="44.9021283" lon="5.4027026">
<ele>1087.07</ele>
<time>2019-07-25T11:34:31Z</time>
</trkpt>
<trkpt lat="44.9021008" lon="5.4026971">
<ele>1087.15</ele>
<time>2019-07-25T11:34:32Z</time>
</trkpt>
<trkpt lat="44.9020743" lon="5.4026919">
<ele>1087.23</ele>
<time>2019-07-25T11:34:33Z</time>
</trkpt>
<trkpt lat="44.9020453" lon="5.4026893">
<ele>1087.32</ele>
<time>2019-07-25T11:34:34Z</time>
</trkpt>
<trkpt lat="44.9020186" lon="5.4026838">
<ele>1087.40</ele>
<time>2019-07-25T11:34:35Z</time>
</trkpt>
<trkpt lat="44.9019925" lon="5.4026788">
<ele>1087.48</ele>
<time>2019-07-25T11:34:36Z</time>
</trkpt>
<trkpt lat="44.9019664" lon="5.4026649">
<ele>1087.57</ele>
<time>2019-07-25T11:34:37Z</time>
</trkpt>
<trkpt lat="44.9019426" lon="5.4026566">
<ele>1087.67</ele>
<time>2019-07-25T11:34:38Z</time>
</trkpt>
<trkpt lat="44.9019284" lon="5.4026413">
<ele>1087.77</ele>
<time>2019-07-25T11:34:39Z</time>
</trkpt>
<trkpt lat="44.9019270" lon="5.4026146">
<ele>1087.87</ele>
<time>2019-07-25T11:34:40Z</time>
</trkpt>
<trkpt lat="44.9019253" lon="5.4025887">
<ele>1087.98</ele>
<time>2019-07-25T11:34:41Z</time>
</trkpt>
<trkpt lat="44.9019259" lon="5.4025619">
<ele>1088.09</ele>
<time>2019-07-25T11:34:42Z</time>
</trkpt>
<trkpt lat="44.9019327" lon="5.4025453">
<ele>1088.20</ele>
<time>2019-07-25T11:34:43Z</time>
</trkpt>
<trkpt lat="44.9019382" lon="5.4025236">
<ele>1088.31</ele>
<time>2019-07-25T11:34:44Z</time>
</trkpt>
<trkpt lat="44.9019393" lon="5.4025047">
<ele>1088.42</ele>
<time>2019-07-25T11:34:45Z</time>
</trkpt>
<trkpt lat="44.9019348" lon="5.4024792">
<ele>1088.54</ele>
<time>2019-07-25T11:34:46Z</time>
</trkpt>
<trkpt lat="44.9019263" lon="5.4024614">
<ele>1088.66</ele>
<time>2019-07-25T11:34:47Z</time>
</trkpt>
<trkpt lat="44.9019128" lon="5.4024420">
<ele>1088.78</ele>
<time>2019-07-25T11:34:48Z</time>
</trkpt>
<trkpt lat="44.9018997" lon="5.4024200">
<ele>1088.91</ele>
<time>2019-07-25T11:34:49Z</time>
</trkpt>
<trkpt lat="44.9018915" lon="5.4023938">
<ele>1089.04</ele>
<time>2019-07-25T11:34:50Z</time>
</trkpt>
<trkpt lat="44.9018824" lon="5.4023618">
<ele>1089.16</ele>
<time>2019-07-25T11:34:51Z</time>
</trkpt>
<trkpt lat="44.9018698" lon="5.4023300">
<ele>1089.29</ele>
<time>2019-07-25T11:34:52Z</time>
</trkpt>
<trkpt lat="44.9018554" lon="5.4023014">
<ele>1089.42</ele>
<time>2019-07-25T11:34:53Z</time>
</trkpt>
<trkpt lat="44.9018399" lon="5.4022741">
<ele>1089.56</ele>
<time>2019-07-25T11:34:54Z</time>
</trkpt>
<trkpt lat="44.9018174" lon="5.4022384">
<ele>1089.68</ele>
<time>2019-07-25T11:34:55Z</time>
</trkpt>
<trkpt lat="44.9017935" lon="5.4021991">
<ele>1089.81</ele>
<time>2019-07-25T11:34:56Z</time>
</trkpt>
<trkpt lat="44.9017726" lon="5.4021572">
<ele>1089.93</ele>
<time>2019-07-25T11:34:57Z</time>
</trkpt>
<trkpt lat="44.9017459" lon="5.4021186">
<ele>1090.05</ele>
<time>2019-07-25T11:34:58Z</time>
</trkpt>
<trkpt lat="44.9017183" lon="5.4020840">
<ele>1090.17</ele>
<time>2019-07-25T11:34:59Z</time>
</trkpt>
<trkpt lat="44.9016917" lon="5.4020498">
<ele>1091.30</ele>
<time>2019-07-25T11:35:00Z</time>
</trkpt>
<trkpt lat="44.9016573" lon="5.4020052">
<ele>1092.24</ele>
<time>2019-07-25T11:35:01Z</time>
</trkpt>
<trkpt lat="44.9016253" lon="5.4019648">
<ele>1092.93</ele>
<time>2019-07-25T11:35:02Z</time>
</trkpt>
<trkpt lat="44.9015917" lon="5.4019243">
<ele>1093.44</ele>
<time>2019-07-25T11:35:03Z</time>
</trkpt>
<trkpt lat="44.9015547" lon="5.4018826">
<ele>1093.83</ele>
<time>2019-07-25T11:35:04Z</time>
</trkpt>
<trkpt lat="44.9015184" lon="5.4018410">
<ele>1094.09</ele>
<time>2019-07-25T11:35:05Z</time>
</trkpt>
<trkpt lat="44.9014849" lon="5.4018106">
<ele>1094.29</ele>
<time>2019-07-25T11:35:06Z</time>
</trkpt>
<trkpt lat="44.9014523" lon="5.4017770">
<ele>1094.40</ele>
<time>2019-07-25T11:35:07Z</time>
</trkpt>
<trkpt lat="44.9014203" lon="5.4017387">
<ele>1094.46</ele>
<time>2019-07-25T11:35:08Z</time>
</trkpt>
<trkpt lat="44.9013884" lon="5.4017018">
<ele>1094.51</ele>
<time>2019-07-25T11:35:09Z</time>
</trkpt>
<trkpt lat="44.9013561" lon="5.4016641">
<ele>1094.51</ele>
<time>2019-07-25T11:35:10Z</time>
</trkpt>
<trkpt lat="44.9013274" lon="5.4016314">
<ele>1094.51</ele>
<time>2019-07-25T11:35:11Z</time>
</trkpt>
<trkpt lat="44.9012974" lon="5.4015938">
<ele>1094.50</ele>
<time>2019-07-25T11:35:12Z</time>
</trkpt>
<trkpt lat="44.9012719" lon="5.4015589">
<ele>1094.50</ele>
<time>2019-07-25T11:35:13Z</time>
</trkpt>
<trkpt lat="44.9012437" lon="5.4015287">
<ele>1094.50</ele>
<time>2019-07-25T11:35:14Z</time>
</trkpt>
<trkpt lat="44.9012216" lon="5.4015020">
<ele>1094.49</ele>
<time>2019-07-25T11:35:15Z</time>
</trkpt>
<trkpt lat="44.9012142" lon="5.4014680">
<ele>1094.49</ele>
<time>2019-07-25T11:35:16Z</time>
</trkpt>
<trkpt lat="44.9012012" lon="5.4014238">
<ele>1094.49</ele>
<time>2019-07-25T11:35:17Z</time>
</trkpt>
<trkpt lat="44.9011879" lon="5.4013932">
<ele>1094.49</ele>
<time>2019-07-25T11:35:18Z</time>
</trkpt>
<trkpt lat="44.9011746" lon="5.4013668">
<ele>1094.49</ele>
<time>2019-07-25T11:35:19Z</time>
</trkpt>
<trkpt lat="44.9011575" lon="5.4013499">
<ele>1094.49</ele>
<time>2019-07-25T11:35:20Z</time>
</trkpt>
<trkpt lat="44.9011391" lon="5.4013355">
<ele>1094.49</ele>
<time>2019-07-25T11:35:21Z</time>
</trkpt>
<trkpt lat="44.9011251" lon="5.4013250">
<ele>1094.49</ele>
<time>2019-07-25T11:35:22Z</time>
</trkpt>
<trkpt lat="44.9011113" lon="5.4013185">
<ele>1094.49</ele>
<time>2019-07-25T11:35:23Z</time>
</trkpt>
<trkpt lat="44.9010917" lon="5.4013052">
<ele>1094.50</ele>
<time>2019-07-25T11:35:24Z</time>
</trkpt>
<trkpt lat="44.9010809" lon="5.4012934">
<ele>1094.50</ele>
<time>2019-07-25T11:35:25Z</time>
</trkpt>
<trkpt lat="44.9010673" lon="5.4012693">
<ele>1094.50</ele>
<time>2019-07-25T11:35:26Z</time>
</trkpt>
<trkpt lat="44.9010378" lon="5.4012448">
<ele>1094.51</ele>
<time>2019-07-25T11:35:27Z</time>
</trkpt>
<trkpt lat="44.9010029" lon="5.4012209">
<ele>1094.51</ele>
<time>2019-07-25T11:35:28Z</time>
</trkpt>
<trkpt lat="44.9009671" lon="5.4011917">
<ele>1094.52</ele>
<time>2019-07-25T11:35:29Z</time>
</trkpt>
<trkpt lat="44.9009304" lon="5.4011580">
<ele>1094.54</ele>
<time>2019-07-25T11:35:30Z</time>
</trkpt>
<trkpt lat="44.9008932" lon="5.4011296">
<ele>1094.55</ele>
<time>2019-07-25T11:35:31Z</time>
</trkpt>
<trkpt lat="44.9008532" lon="5.4011065">
<ele>1094.57</ele>
<time>2019-07-25T11:35:32Z</time>
</trkpt>
<trkpt lat="44.9008131" lon="5.4010815">
<ele>1094.58</ele>
<time>2019-07-25T11:35:33Z</time>
</trkpt>
<trkpt lat="44.9007758" lon="5.4010600">
<ele>1094.60</ele>
<time>2019-07-25T11:35:34Z</time>
</trkpt>
<trkpt lat="44.9007428" lon="5.4010394">
<ele>1094.61</ele>
<time>2019-07-25T11:35:35Z</time>
</trkpt>
<trkpt lat="44.9007106" lon="5.4010248">
<ele>1094.62</ele>
<time>2019-07-25T11:35:36Z</time>
</trkpt>
<trkpt lat="44.9006875" lon="5.4010091">
<ele>1094.64</ele>
<time>2019-07-25T11:35:37Z</time>
</trkpt>
<trkpt lat="44.9006716" lon="5.4009963">
<ele>1094.65</ele>
<time>2019-07-25T11:35:38Z</time>
</trkpt>
<trkpt lat="44.9006600" lon="5.4009862">
<ele>1094.67</ele>
<time>2019-07-25T11:35:39Z</time>
</trkpt>
<trkpt lat="44.9006445" lon="5.4009709">
<ele>1094.68</ele>
<time>2019-07-25T11:35:40Z</time>
</trkpt>
<trkpt lat="44.9006276" lon="5.4009591">
<ele>1094.69</ele>
<time>2019-07-25T11:35:41Z</time>
</trkpt>
<trkpt lat="44.9005992" lon="5.4009477">
<ele>1094.70</ele>
<time>2019-07-25T11:35:42Z</time>
</trkpt>
<trkpt lat="44.9005705" lon="5.4009439">
<ele>1094.70</ele>
<time>2019-07-25T11:35:43Z</time>
</trkpt>
<trkpt lat="44.9005240" lon="5.4009328">
<ele>1094.70</ele>
<time>2019-07-25T11:35:44Z</time>
</trkpt>
<trkpt lat="44.9004875" lon="5.4009126">
<ele>1094.71</ele>
<time>2019-07-25T11:35:45Z</time>
</trkpt>
<trkpt lat="44.9004555" lon="5.4008935">
<ele>1094.71</ele>
<time>2019-07-25T11:35:46Z</time>
</trkpt>
<trkpt lat="44.9004188" lon="5.4008686">
<ele>1094.71</ele>
<time>2019-07-25T11:35:47Z</time>
</trkpt>
<trkpt lat="44.9004031" lon="5.4008413">
<ele>1094.71</ele>
<time>2019-07-25T11:35:48Z</time>
</trkpt>
<trkpt lat="44.9004031" lon="5.4008165">
<ele>1094.71</ele>
<time>2019-07-25T11:35:49Z</time>
</trkpt>
<trkpt lat="44.9004161" lon="5.4007937">
<ele>1094.71</ele>
<time>2019-07-25T11:35:50Z</time>
</trkpt>
<trkpt lat="44.9004345" lon="5.4007689">
<ele>1094.72</ele>
<time>2019-07-25T11:35:51Z</time>
</trkpt>
<trkpt lat="44.9004513" lon="5.4007464">
<ele>1094.72</ele>
<time>2019-07-25T11:35:52Z</time>
</trkpt>
<trkpt lat="44.9004639" lon="5.4007165">
<ele>1094.72</ele>
<time>2019-07-25T11:35:53Z</time>
</trkpt>
<trkpt lat="44.9004881" lon="5.4006934">
<ele>1094.72</ele>
<time>2019-07-25T11:35:54Z</time>
</trkpt>
<trkpt lat="44.9005069" lon="5.4006667">
<ele>1094.73</ele>
<time>2019-07-25T11:35:55Z</time>
</trkpt>
<trkpt lat="44.9005208" lon="5.4006180">
<ele>1094.73</ele>
<time>2019-07-25T11:35:56Z</time>
</trkpt>
<trkpt lat="44.9005510" lon="5.4005924">
<ele>1094.73</ele>
<time>2019-07-25T11:35:57Z</time>
</trkpt>
<trkpt lat="44.9005797" lon="5.4005909">
<ele>1094.73</ele>
<time>2019-07-25T11:35:58Z</time>
</trkpt>
<trkpt lat="44.9005877" lon="5.4005777">
<ele>1094.72</ele>
<time>2019-07-25T11:35:59Z</time>
</trkpt>
<trkpt lat="44.9005893" lon="5.4005855">
<ele>1094.72</ele>
<time>2019-07-25T11:36:00Z</time>
</trkpt>
<trkpt lat="44.9005965" lon="5.4005975">
<ele>1094.72</ele>
<time>2019-07-25T11:36:01Z</time>
</trkpt>
<trkpt lat="44.9005923" lon="5.4006003">
<ele>1094.72</ele>
<time>2019-07-25T11:36:02Z</time>
</trkpt>
<trkpt lat="44.9005922" lon="5.4006005">
<ele>1094.72</ele>
<time>2019-07-25T11:36:03Z</time>
</trkpt>
<trkpt lat="44.9005924" lon="5.4006005">
<ele>1094.72</ele>
<time>2019-07-25T11:36:04Z</time>
</trkpt>
<trkpt lat="44.9005922" lon="5.4006005">
<ele>1094.72</ele>
<time>2019-07-25T11:36:05Z</time>
</trkpt>
<trkpt lat="44.9005906" lon="5.4005993">
<ele>1094.71</ele>
<time>2019-07-25T11:36:06Z</time>
</trkpt>
<trkpt lat="44.9005908" lon="5.4005986">
<ele>1094.71</ele>
<time>2019-07-25T11:36:07Z</time>
</trkpt>
<trkpt lat="44.9005907" lon="5.4005975">
<ele>1094.71</ele>
<time>2019-07-25T11:36:08Z</time>
</trkpt>
<trkpt lat="44.9005901" lon="5.4005967">
<ele>1094.71</ele>
<time>2019-07-25T11:36:09Z</time>
</trkpt>
<trkpt lat="44.9005876" lon="5.4005951">
<ele>1094.70</ele>
<time>2019-07-25T11:36:10Z</time>
</trkpt>
<trkpt lat="44.9005862" lon="5.4005931">
<ele>1094.70</ele>
<time>2019-07-25T11:36:11Z</time>
</trkpt>
<trkpt lat="44.9005851" lon="5.4005925">
<ele>1094.70</ele>
<time>2019-07-25T11:36:12Z</time>
</trkpt>
<trkpt lat="44.9005848" lon="5.4005900">
<ele>1094.70</ele>
<time>2019-07-25T11:36:13Z</time>
</trkpt>
<trkpt lat="44.9005849" lon="5.4005889">
<ele>1094.69</ele>
<time>2019-07-25T11:36:14Z</time>
</trkpt>
<trkpt lat="44.9005843" lon="5.4005879">
<ele>1094.69</ele>
<time>2019-07-25T11:36:15Z</time>
</trkpt>
<trkpt lat="44.9005842" lon="5.4005868">
<ele>1094.68</ele>
<time>2019-07-25T11:36:16Z</time>
</trkpt>
<trkpt lat="44.9005838" lon="5.4005861">
<ele>1094.68</ele>
<time>2019-07-25T11:36:17Z</time>
</trkpt>
<trkpt lat="44.9005831" lon="5.4005853">
<ele>1094.67</ele>
<time>2019-07-25T11:36:18Z</time>
</trkpt>
<trkpt lat="44.9005826" lon="5.4005839">
<ele>1094.66</ele>
<time>2019-07-25T11:36:19Z</time>
</trkpt>
<trkpt lat="44.9005820" lon="5.4005831">
<ele>1094.66</ele>
<time>2019-07-25T11:36:20Z</time>
</trkpt>
<trkpt lat="44.9005816" lon="5.4005824">
<ele>1094.65</ele>
<time>2019-07-25T11:36:21Z</time>
</trkpt>
<trkpt lat="44.9005806" lon="5.4005831">
<ele>1094.64</ele>
<time>2019-07-25T11:36:22Z</time>
</trkpt>
<trkpt lat="44.9005814" lon="5.4005802">
<ele>1094.63</ele>
<time>2019-07-25T11:36:23Z</time>
</trkpt>
<trkpt lat="44.9005818" lon="5.4005792">
<ele>1094.62</ele>
<time>2019-07-25T11:36:24Z</time>
</trkpt>
<trkpt lat="44.9005824" lon="5.4005777">
<ele>1094.62</ele>
<time>2019-07-25T11:36:25Z</time>
</trkpt>
<trkpt lat="44.9005829" lon="5.4005765">
<ele>1094.61</ele>
<time>2019-07-25T11:36:26Z</time>
</trkpt>
<trkpt lat="44.9005833" lon="5.4005750">
<ele>1094.60</ele>
<time>2019-07-25T11:36:27Z</time>
</trkpt>
<trkpt lat="44.9005854" lon="5.4005717">
<ele>1094.59</ele>
<time>2019-07-25T11:36:28Z</time>
</trkpt>
<trkpt lat="44.9005865" lon="5.4005695">
<ele>1094.58</ele>
<time>2019-07-25T11:36:29Z</time>
</trkpt>
<trkpt lat="44.9005887" lon="5.4005662">
<ele>1094.57</ele>
<time>2019-07-25T11:36:30Z</time>
</trkpt>
<trkpt lat="44.9005878" lon="5.4005644">
<ele>1094.56</ele>
<time>2019-07-25T11:36:31Z</time>
</trkpt>
<trkpt lat="44.9005872" lon="5.4005611">
<ele>1094.55</ele>
<time>2019-07-25T11:36:32Z</time>
</trkpt>
<trkpt lat="44.9005874" lon="5.4005586">
<ele>1094.54</ele>
<time>2019-07-25T11:36:33Z</time>
</trkpt>
<trkpt lat="44.9005874" lon="5.4005570">
<ele>1094.53</ele>
<time>2019-07-25T11:36:34Z</time>
</trkpt>
<trkpt lat="44.9005911" lon="5.4005385">
<ele>1094.41</ele>
<time>2019-07-25T11:36:35Z</time>
</trkpt>
<trkpt lat="44.9006093" lon="5.4005106">
<ele>1094.30</ele>
<time>2019-07-25T11:36:36Z</time>
</trkpt>
<trkpt lat="44.9006378" lon="5.4004776">
<ele>1094.19</ele>
<time>2019-07-25T11:36:37Z</time>
</trkpt>
<trkpt lat="44.9006638" lon="5.4004450">
<ele>1094.08</ele>
<time>2019-07-25T11:36:38Z</time>
</trkpt>
<trkpt lat="44.9006973" lon="5.4004084">
<ele>1092.99</ele>
<time>2019-07-25T11:36:39Z</time>
</trkpt>
<trkpt lat="44.9007375" lon="5.4003750">
<ele>1092.10</ele>
<time>2019-07-25T11:36:40Z</time>
</trkpt>
<trkpt lat="44.9007869" lon="5.4003318">
<ele>1091.39</ele>
<time>2019-07-25T11:36:41Z</time>
</trkpt>
<trkpt lat="44.9008331" lon="5.4002967">
<ele>1090.82</ele>
<time>2019-07-25T11:36:42Z</time>
</trkpt>
<trkpt lat="44.9008914" lon="5.4002679">
<ele>1090.38</ele>
<time>2019-07-25T11:36:43Z</time>
</trkpt>
<trkpt lat="44.9009480" lon="5.4002476">
<ele>1090.01</ele>
<time>2019-07-25T11:36:44Z</time>
</trkpt>
<trkpt lat="44.9010052" lon="5.4002284">
<ele>1089.68</ele>
<time>2019-07-25T11:36:45Z</time>
</trkpt>
<trkpt lat="44.9010559" lon="5.4002123">
<ele>1089.34</ele>
<time>2019-07-25T11:36:46Z</time>
</trkpt>
<trkpt lat="44.9011096" lon="5.4002132">
<ele>1089.07</ele>
<time>2019-07-25T11:36:47Z</time>
</trkpt>
<trkpt lat="44.9011532" lon="5.4002242">
<ele>1088.84</ele>
<time>2019-07-25T11:36:48Z</time>
</trkpt>
<trkpt lat="44.9012002" lon="5.4001999">
<ele>1088.64</ele>
<time>2019-07-25T11:36:49Z</time>
</trkpt>
<trkpt lat="44.9012388" lon="5.4001750">
<ele>1088.62</ele>
<time>2019-07-25T11:36:50Z</time>
</trkpt>
<trkpt lat="44.9012530" lon="5.4001355">
<ele>1088.31</ele>
<time>2019-07-25T11:36:51Z</time>
</trkpt>
<trkpt lat="44.9012512" lon="5.4000809">
<ele>1087.98</ele>
<time>2019-07-25T11:36:52Z</time>
</trkpt>
<trkpt lat="44.9012454" lon="5.4000184">
<ele>1087.68</ele>
<time>2019-07-25T11:36:53Z</time>
</trkpt>
<trkpt lat="44.9012370" lon="5.3999473">
<ele>1087.37</ele>
<time>2019-07-25T11:36:54Z</time>
</trkpt>
<trkpt lat="44.9012288" lon="5.3998805">
<ele>1087.09</ele>
<time>2019-07-25T11:36:55Z</time>
</trkpt>
<trkpt lat="44.9012121" lon="5.3998215">
<ele>1086.85</ele>
<time>2019-07-25T11:36:56Z</time>
</trkpt>
<trkpt lat="44.9011853" lon="5.3997822">
<ele>1086.66</ele>
<time>2019-07-25T11:36:57Z</time>
</trkpt>
<trkpt lat="44.9011618" lon="5.3997360">
<ele>1086.51</ele>
<time>2019-07-25T11:36:58Z</time>
</trkpt>
<trkpt lat="44.9011399" lon="5.3996601">
<ele>1086.34</ele>
<time>2019-07-25T11:36:59Z</time>
</trkpt>
<trkpt lat="44.9011209" lon="5.3995785">
<ele>1086.12</ele>
<time>2019-07-25T11:37:00Z</time>
</trkpt>
<trkpt lat="44.9010991" lon="5.3995120">
<ele>1085.91</ele>
<time>2019-07-25T11:37:01Z</time>
</trkpt>
<trkpt lat="44.9010890" lon="5.3994507">
<ele>1085.89</ele>
<time>2019-07-25T11:37:02Z</time>
</trkpt>
<trkpt lat="44.9011006" lon="5.3993947">
<ele>1085.87</ele>
<time>2019-07-25T11:37:03Z</time>
</trkpt>
<trkpt lat="44.9011150" lon="5.3993472">
<ele>1085.83</ele>
<time>2019-07-25T11:37:04Z</time>
</trkpt>
<trkpt lat="44.9011272" lon="5.3993040">
<ele>1085.79</ele>
<time>2019-07-25T11:37:05Z</time>
</trkpt>
<trkpt lat="44.9011353" lon="5.3992695">
<ele>1085.73</ele>
<time>2019-07-25T11:37:06Z</time>
</trkpt>
<trkpt lat="44.9011422" lon="5.3992340">
<ele>1085.67</ele>
<time>2019-07-25T11:37:07Z</time>
</trkpt>
<trkpt lat="44.9011468" lon="5.3992074">
<ele>1085.59</ele>
<time>2019-07-25T11:37:08Z</time>
</trkpt>
<trkpt lat="44.9011479" lon="5.3992055">
<ele>1085.52</ele>
<time>2019-07-25T11:37:09Z</time>
</trkpt>
<trkpt lat="44.9011442" lon="5.3992155">
<ele>1085.51</ele>
<time>2019-07-25T11:37:10Z</time>
</trkpt>
<trkpt lat="44.9011451" lon="5.3992109">
<ele>1085.50</ele>
<time>2019-07-25T11:37:11Z</time>
</trkpt>
<trkpt lat="44.9011457" lon="5.3992147">
<ele>1085.49</ele>
<time>2019-07-25T11:37:12Z</time>
</trkpt>
<trkpt lat="44.9011446" lon="5.3992167">
<ele>1085.48</ele>
<time>2019-07-25T11:37:13Z</time>
</trkpt>
<trkpt lat="44.9011431" lon="5.3992178">
<ele>1085.47</ele>
<time>2019-07-25T11:37:14Z</time>
</trkpt>
<trkpt lat="44.9011464" lon="5.3992108">
<ele>1085.36</ele>
<time>2019-07-25T11:37:15Z</time>
</trkpt>
<trkpt lat="44.9011490" lon="5.3992056">
<ele>1085.24</ele>
<time>2019-07-25T11:37:16Z</time>
</trkpt>
<trkpt lat="44.9011420" lon="5.3992058">
<ele>1085.23</ele>
<time>2019-07-25T11:37:17Z</time>
</trkpt>
<trkpt lat="44.9011427" lon="5.3991955">
<ele>1085.21</ele>
<time>2019-07-25T11:37:18Z</time>
</trkpt>
<trkpt lat="44.9011426" lon="5.3991952">
<ele>1085.20</ele>
<time>2019-07-25T11:37:19Z</time>
</trkpt>
<trkpt lat="44.9011423" lon="5.3991947">
<ele>1085.18</ele>
<time>2019-07-25T11:37:20Z</time>
</trkpt>
<trkpt lat="44.9011419" lon="5.3991945">
<ele>1085.17</ele>
<time>2019-07-25T11:37:21Z</time>
</trkpt>
<trkpt lat="44.9011419" lon="5.3991940">
<ele>1085.15</ele>
<time>2019-07-25T11:37:22Z</time>
</trkpt>
<trkpt lat="44.9011417" lon="5.3991932">
<ele>1085.14</ele>
<time>2019-07-25T11:37:23Z</time>
</trkpt>
<trkpt lat="44.9011413" lon="5.3991927">
<ele>1085.12</ele>
<time>2019-07-25T11:37:24Z</time>
</trkpt>
<trkpt lat="44.9011413" lon="5.3991921">
<ele>1085.10</ele>
<time>2019-07-25T11:37:25Z</time>
</trkpt>
<trkpt lat="44.9011414" lon="5.3991917">
<ele>1085.08</ele>
<time>2019-07-25T11:37:26Z</time>
</trkpt>
<trkpt lat="44.9011412" lon="5.3991906">
<ele>1085.07</ele>
<time>2019-07-25T11:37:27Z</time>
</trkpt>
<trkpt lat="44.9011413" lon="5.3991889">
<ele>1085.05</ele>
<time>2019-07-25T11:37:28Z</time>
</trkpt>
<trkpt lat="44.9011407" lon="5.3991889">
<ele>1085.03</ele>
<time>2019-07-25T11:37:29Z</time>
</trkpt>
<trkpt lat="44.9011400" lon="5.3991891">
<ele>1085.01</ele>
<time>2019-07-25T11:37:30Z</time>
</trkpt>
<trkpt lat="44.9011386" lon="5.3991883">
<ele>1084.99</ele>
<time>2019-07-25T11:37:31Z</time>
</trkpt>
<trkpt lat="44.9011387" lon="5.3991879">
<ele>1084.96</ele>
<time>2019-07-25T11:37:32Z</time>
</trkpt>
<trkpt lat="44.9011394" lon="5.3991868">
<ele>1084.94</ele>
<time>2019-07-25T11:37:33Z</time>
</trkpt>
<trkpt lat="44.9011403" lon="5.3991843">
<ele>1084.92</ele>
<time>2019-07-25T11:37:34Z</time>
</trkpt>
<trkpt lat="44.9011403" lon="5.3991836">
<ele>1084.90</ele>
<time>2019-07-25T11:37:35Z</time>
</trkpt>
<trkpt lat="44.9011410" lon="5.3991830">
<ele>1084.88</ele>
<time>2019-07-25T11:37:36Z</time>
</trkpt>
<trkpt lat="44.9011409" lon="5.3991832">
<ele>1084.86</ele>
<time>2019-07-25T11:37:37Z</time>
</trkpt>
<trkpt lat="44.9011409" lon="5.3991832">
<ele>1084.84</ele>
<time>2019-07-25T11:37:38Z</time>
</trkpt>
<trkpt lat="44.9011407" lon="5.3991836">
<ele>1084.81</ele>
<time>2019-07-25T11:37:39Z</time>
</trkpt>
<trkpt lat="44.9011409" lon="5.3991839">
<ele>1084.79</ele>
<time>2019-07-25T11:37:40Z</time>
</trkpt>
<trkpt lat="44.9011411" lon="5.3991837">
<ele>1084.77</ele>
<time>2019-07-25T11:37:41Z</time>
</trkpt>
<trkpt lat="44.9011361" lon="5.3991846">
<ele>1084.53</ele>
<time>2019-07-25T11:37:42Z</time>
</trkpt>
<trkpt lat="44.9011341" lon="5.3991744">
<ele>1084.29</ele>
<time>2019-07-25T11:37:43Z</time>
</trkpt>
<trkpt lat="44.9011328" lon="5.3991685">
<ele>1084.06</ele>
<time>2019-07-25T11:37:44Z</time>
</trkpt>
<trkpt lat="44.9011313" lon="5.3991686">
<ele>1084.03</ele>
<time>2019-07-25T11:37:45Z</time>
</trkpt>
<trkpt lat="44.9011308" lon="5.3991690">
<ele>1084.01</ele>
<time>2019-07-25T11:37:46Z</time>
</trkpt>
<trkpt lat="44.9011314" lon="5.3991689">
<ele>1083.98</ele>
<time>2019-07-25T11:37:47Z</time>
</trkpt>
<trkpt lat="44.9011324" lon="5.3991675">
<ele>1083.96</ele>
<time>2019-07-25T11:37:48Z</time>
</trkpt>
<trkpt lat="44.9011334" lon="5.3991661">
<ele>1083.93</ele>
<time>2019-07-25T11:37:49Z</time>
</trkpt>
<trkpt lat="44.9011377" lon="5.3991626">
<ele>1083.67</ele>
<time>2019-07-25T11:37:50Z</time>
</trkpt>
<trkpt lat="44.9011448" lon="5.3991517">
<ele>1083.41</ele>
<time>2019-07-25T11:37:51Z</time>
</trkpt>
<trkpt lat="44.9011498" lon="5.3991390">
<ele>1083.15</ele>
<time>2019-07-25T11:37:52Z</time>
</trkpt>
<trkpt lat="44.9011548" lon="5.3991250">
<ele>1082.88</ele>
<time>2019-07-25T11:37:53Z</time>
</trkpt>
<trkpt lat="44.9011563" lon="5.3991350">
<ele>1082.60</ele>
<time>2019-07-25T11:37:54Z</time>
</trkpt>
<trkpt lat="44.9011576" lon="5.3991445">
<ele>1082.32</ele>
<time>2019-07-25T11:37:55Z</time>
</trkpt>
<trkpt lat="44.9011581" lon="5.3991458">
<ele>1082.29</ele>
<time>2019-07-25T11:37:56Z</time>
</trkpt>
<trkpt lat="44.9011584" lon="5.3991475">
<ele>1082.26</ele>
<time>2019-07-25T11:37:57Z</time>
</trkpt>
<trkpt lat="44.9011583" lon="5.3991501">
<ele>1082.23</ele>
<time>2019-07-25T11:37:58Z</time>
</trkpt>
<trkpt lat="44.9011583" lon="5.3991603">
<ele>1082.20</ele>
<time>2019-07-25T11:37:59Z</time>
</trkpt>
<trkpt lat="44.9011585" lon="5.3991661">
<ele>1082.17</ele>
<time>2019-07-25T11:38:00Z</time>
</trkpt>
<trkpt lat="44.9011607" lon="5.3991642">
<ele>1081.85</ele>
<time>2019-07-25T11:38:01Z</time>
</trkpt>
<trkpt lat="44.9011610" lon="5.3991628">
<ele>1081.82</ele>
<time>2019-07-25T11:38:02Z</time>
</trkpt>
<trkpt lat="44.9011610" lon="5.3991641">
<ele>1081.79</ele>
<time>2019-07-25T11:38:03Z</time>
</trkpt>
<trkpt lat="44.9011622" lon="5.3991637">
<ele>1081.76</ele>
<time>2019-07-25T11:38:04Z</time>
</trkpt>
<trkpt lat="44.9011630" lon="5.3991630">
<ele>1081.72</ele>
<time>2019-07-25T11:38:05Z</time>
</trkpt>
<trkpt lat="44.9011634" lon="5.3991638">
<ele>1081.69</ele>
<time>2019-07-25T11:38:06Z</time>
</trkpt>
<trkpt lat="44.9011641" lon="5.3991637">
<ele>1081.66</ele>
<time>2019-07-25T11:38:07Z</time>
</trkpt>
<trkpt lat="44.9011643" lon="5.3991631">
<ele>1081.62</ele>
<time>2019-07-25T11:38:08Z</time>
</trkpt>
<trkpt lat="44.9011647" lon="5.3991637">
<ele>1081.59</ele>
<time>2019-07-25T11:38:09Z</time>
</trkpt>
<trkpt lat="44.9011649" lon="5.3991638">
<ele>1081.55</ele>
<time>2019-07-25T11:38:10Z</time>
</trkpt>
<trkpt lat="44.9011651" lon="5.3991632">
<ele>1081.51</ele>
<time>2019-07-25T11:38:11Z</time>
</trkpt>
<trkpt lat="44.9011662" lon="5.3991609">
<ele>1081.48</ele>
<time>2019-07-25T11:38:12Z</time>
</trkpt>
<trkpt lat="44.9011673" lon="5.3991581">
<ele>1081.44</ele>
<time>2019-07-25T11:38:13Z</time>
</trkpt>
<trkpt lat="44.9011677" lon="5.3991574">
<ele>1081.41</ele>
<time>2019-07-25T11:38:14Z</time>
</trkpt>
<trkpt lat="44.9011678" lon="5.3991577">
<ele>1081.37</ele>
<time>2019-07-25T11:38:15Z</time>
</trkpt>
<trkpt lat="44.9011677" lon="5.3991568">
<ele>1081.33</ele>
<time>2019-07-25T11:38:16Z</time>
</trkpt>
<trkpt lat="44.9011663" lon="5.3991551">
<ele>1080.97</ele>
<time>2019-07-25T11:38:17Z</time>
</trkpt>
<trkpt lat="44.9011647" lon="5.3991436">
<ele>1080.61</ele>
<time>2019-07-25T11:38:18Z</time>
</trkpt>
<trkpt lat="44.9011618" lon="5.3991299">
<ele>1080.26</ele>
<time>2019-07-25T11:38:19Z</time>
</trkpt>
<trkpt lat="44.9011605" lon="5.3991101">
<ele>1079.91</ele>
<time>2019-07-25T11:38:20Z</time>
</trkpt>
<trkpt lat="44.9011596" lon="5.3990810">
<ele>1079.57</ele>
<time>2019-07-25T11:38:21Z</time>
</trkpt>
<trkpt lat="44.9011600" lon="5.3990527">
<ele>1079.23</ele>
<time>2019-07-25T11:38:22Z</time>
</trkpt>
<trkpt lat="44.9011622" lon="5.3990183">
<ele>1078.90</ele>
<time>2019-07-25T11:38:23Z</time>
</trkpt>
<trkpt lat="44.9011645" lon="5.3989853">
<ele>1078.56</ele>
<time>2019-07-25T11:38:24Z</time>
</trkpt>
<trkpt lat="44.9011644" lon="5.3989499">
<ele>1078.24</ele>
<time>2019-07-25T11:38:25Z</time>
</trkpt>
<trkpt lat="44.9011628" lon="5.3989017">
<ele>1077.92</ele>
<time>2019-07-25T11:38:26Z</time>
</trkpt>
<trkpt lat="44.9011622" lon="5.3988533">
<ele>1077.60</ele>
<time>2019-07-25T11:38:27Z</time>
</trkpt>
<trkpt lat="44.9011602" lon="5.3988061">
<ele>1077.29</ele>
<time>2019-07-25T11:38:28Z</time>
</trkpt>
<trkpt lat="44.9011552" lon="5.3987578">
<ele>1076.99</ele>
<time>2019-07-25T11:38:29Z</time>
</trkpt>
<trkpt lat="44.9011528" lon="5.3987158">
<ele>1076.69</ele>
<time>2019-07-25T11:38:30Z</time>
</trkpt>
<trkpt lat="44.9011468" lon="5.3986775">
<ele>1076.40</ele>
<time>2019-07-25T11:38:31Z</time>
</trkpt>
<trkpt lat="44.9011402" lon="5.3986433">
<ele>1076.12</ele>
<time>2019-07-25T11:38:32Z</time>
</trkpt>
<trkpt lat="44.9011335" lon="5.3986052">
<ele>1075.85</ele>
<time>2019-07-25T11:38:33Z</time>
</trkpt>
<trkpt lat="44.9011209" lon="5.3985612">
<ele>1075.58</ele>
<time>2019-07-25T11:38:34Z</time>
</trkpt>
<trkpt lat="44.9011136" lon="5.3985313">
<ele>1075.31</ele>
<time>2019-07-25T11:38:35Z</time>
</trkpt>
<trkpt lat="44.9011071" lon="5.3984959">
<ele>1075.05</ele>
<time>2019-07-25T11:38:36Z</time>
</trkpt>
<trkpt lat="44.9011003" lon="5.3984639">
<ele>1074.80</ele>
<time>2019-07-25T11:38:37Z</time>
</trkpt>
<trkpt lat="44.9010953" lon="5.3984365">
<ele>1074.55</ele>
<time>2019-07-25T11:38:38Z</time>
</trkpt>
<trkpt lat="44.9010894" lon="5.3983948">
<ele>1074.31</ele>
<time>2019-07-25T11:38:39Z</time>
</trkpt>
<trkpt lat="44.9010840" lon="5.3983655">
<ele>1074.08</ele>
<time>2019-07-25T11:38:40Z</time>
</trkpt>
<trkpt lat="44.9010817" lon="5.3983581">
<ele>1073.85</ele>
<time>2019-07-25T11:38:41Z</time>
</trkpt>
<trkpt lat="44.9010804" lon="5.3983457">
<ele>1073.63</ele>
<time>2019-07-25T11:38:42Z</time>
</trkpt>
<trkpt lat="44.9010740" lon="5.3983168">
<ele>1073.41</ele>
<time>2019-07-25T11:38:43Z</time>
</trkpt>
<trkpt lat="44.9010705" lon="5.3982747">
<ele>1073.21</ele>
<time>2019-07-25T11:38:44Z</time>
</trkpt>
<trkpt lat="44.9010714" lon="5.3982321">
<ele>1073.01</ele>
<time>2019-07-25T11:38:45Z</time>
</trkpt>
<trkpt lat="44.9010706" lon="5.3981990">
<ele>1072.82</ele>
<time>2019-07-25T11:38:46Z</time>
</trkpt>
<trkpt lat="44.9010648" lon="5.3981780">
<ele>1072.63</ele>
<time>2019-07-25T11:38:47Z</time>
</trkpt>
<trkpt lat="44.9010534" lon="5.3981457">
<ele>1072.45</ele>
<time>2019-07-25T11:38:48Z</time>
</trkpt>
<trkpt lat="44.9010423" lon="5.3981179">
<ele>1072.27</ele>
<time>2019-07-25T11:38:49Z</time>
</trkpt>
<trkpt lat="44.9010321" lon="5.3980822">
<ele>1072.09</ele>
<time>2019-07-25T11:38:50Z</time>
</trkpt>
<trkpt lat="44.9010253" lon="5.3980497">
<ele>1071.92</ele>
<time>2019-07-25T11:38:51Z</time>
</trkpt>
<trkpt lat="44.9010197" lon="5.3980194">
<ele>1071.75</ele>
<time>2019-07-25T11:38:52Z</time>
</trkpt>
<trkpt lat="44.9010117" lon="5.3979799">
<ele>1071.59</ele>
<time>2019-07-25T11:38:53Z</time>
</trkpt>
<trkpt lat="44.9010041" lon="5.3979427">
<ele>1071.44</ele>
<time>2019-07-25T11:38:54Z</time>
</trkpt>
<trkpt lat="44.9009986" lon="5.3978990">
<ele>1071.29</ele>
<time>2019-07-25T11:38:55Z</time>
</trkpt>
<trkpt lat="44.9009995" lon="5.3978602">
<ele>1071.14</ele>
<time>2019-07-25T11:38:56Z</time>
</trkpt>
<trkpt lat="44.9009976" lon="5.3978197">
<ele>1071.00</ele>
<time>2019-07-25T11:38:57Z</time>
</trkpt>
<trkpt lat="44.9009910" lon="5.3977662">
<ele>1070.87</ele>
<time>2019-07-25T11:38:58Z</time>
</trkpt>
<trkpt lat="44.9009833" lon="5.3977130">
<ele>1070.73</ele>
<time>2019-07-25T11:38:59Z</time>
</trkpt>
<trkpt lat="44.9009744" lon="5.3976636">
<ele>1070.59</ele>
<time>2019-07-25T11:39:00Z</time>
</trkpt>
<trkpt lat="44.9009654" lon="5.3976307">
<ele>1070.45</ele>
<time>2019-07-25T11:39:01Z</time>
</trkpt>
<trkpt lat="44.9009500" lon="5.3975942">
<ele>1070.31</ele>
<time>2019-07-25T11:39:02Z</time>
</trkpt>
<trkpt lat="44.9009304" lon="5.3975580">
<ele>1070.16</ele>
<time>2019-07-25T11:39:03Z</time>
</trkpt>
<trkpt lat="44.9009043" lon="5.3975291">
<ele>1070.01</ele>
<time>2019-07-25T11:39:04Z</time>
</trkpt>
<trkpt lat="44.9008762" lon="5.3975025">
<ele>1069.85</ele>
<time>2019-07-25T11:39:05Z</time>
</trkpt>
<trkpt lat="44.9008513" lon="5.3974778">
<ele>1069.70</ele>
<time>2019-07-25T11:39:06Z</time>
</trkpt>
<trkpt lat="44.9008272" lon="5.3974514">
<ele>1069.55</ele>
<time>2019-07-25T11:39:07Z</time>
</trkpt>
<trkpt lat="44.9008027" lon="5.3974195">
<ele>1069.40</ele>
<time>2019-07-25T11:39:08Z</time>
</trkpt>
<trkpt lat="44.9007847" lon="5.3973959">
<ele>1069.24</ele>
<time>2019-07-25T11:39:09Z</time>
</trkpt>
<trkpt lat="44.9007721" lon="5.3973719">
<ele>1069.10</ele>
<time>2019-07-25T11:39:10Z</time>
</trkpt>
<trkpt lat="44.9007642" lon="5.3973561">
<ele>1068.95</ele>
<time>2019-07-25T11:39:11Z</time>
</trkpt>
<trkpt lat="44.9007567" lon="5.3973408">
<ele>1068.80</ele>
<time>2019-07-25T11:39:12Z</time>
</trkpt>
<trkpt lat="44.9007507" lon="5.3973178">
<ele>1068.65</ele>
<time>2019-07-25T11:39:13Z</time>
</trkpt>
<trkpt lat="44.9007468" lon="5.3972915">
<ele>1068.51</ele>
<time>2019-07-25T11:39:14Z</time>
</trkpt>
<trkpt lat="44.9007344" lon="5.3972631">
<ele>1068.37</ele>
<time>2019-07-25T11:39:15Z</time>
</trkpt>
<trkpt lat="44.9007299" lon="5.3972357">
<ele>1068.22</ele>
<time>2019-07-25T11:39:16Z</time>
</trkpt>
<trkpt lat="44.9007341" lon="5.3972010">
<ele>1068.08</ele>
<time>2019-07-25T11:39:17Z</time>
</trkpt>
<trkpt lat="44.9007436" lon="5.3971598">
<ele>1067.94</ele>
<time>2019-07-25T11:39:18Z</time>
</trkpt>
<trkpt lat="44.9007534" lon="5.3971147">
<ele>1067.81</ele>
<time>2019-07-25T11:39:19Z</time>
</trkpt>
<trkpt lat="44.9007610" lon="5.3970600">
<ele>1067.67</ele>
<time>2019-07-25T11:39:20Z</time>
</trkpt>
<trkpt lat="44.9007661" lon="5.3970012">
<ele>1067.54</ele>
<time>2019-07-25T11:39:21Z</time>
</trkpt>
<trkpt lat="44.9007679" lon="5.3969457">
<ele>1067.41</ele>
<time>2019-07-25T11:39:22Z</time>
</trkpt>
<trkpt lat="44.9007707" lon="5.3968909">
<ele>1067.28</ele>
<time>2019-07-25T11:39:23Z</time>
</trkpt>
<trkpt lat="44.9007736" lon="5.3968292">
<ele>1067.15</ele>
<time>2019-07-25T11:39:24Z</time>
</trkpt>
<trkpt lat="44.9007775" lon="5.3967650">
<ele>1065.78</ele>
<time>2019-07-25T11:39:25Z</time>
</trkpt>
<trkpt lat="44.9007757" lon="5.3967078">
<ele>1064.67</ele>
<time>2019-07-25T11:39:26Z</time>
</trkpt>
<trkpt lat="44.9007755" lon="5.3966483">
<ele>1063.73</ele>
<time>2019-07-25T11:39:27Z</time>
</trkpt>
<trkpt lat="44.9007762" lon="5.3965875">
<ele>1062.90</ele>
<time>2019-07-25T11:39:28Z</time>
</trkpt>
<trkpt lat="44.9007766" lon="5.3965343">
<ele>1062.13</ele>
<time>2019-07-25T11:39:29Z</time>
</trkpt>
<trkpt lat="44.9007781" lon="5.3964855">
<ele>1061.44</ele>
<time>2019-07-25T11:39:30Z</time>
</trkpt>
<trkpt lat="44.9007853" lon="5.3964247">
<ele>1060.80</ele>
<time>2019-07-25T11:39:31Z</time>
</trkpt>
<trkpt lat="44.9008028" lon="5.3963633">
<ele>1060.25</ele>
<time>2019-07-25T11:39:32Z</time>
</trkpt>
<trkpt lat="44.9008265" lon="5.3963068">
<ele>1059.74</ele>
<time>2019-07-25T11:39:33Z</time>
</trkpt>
<trkpt lat="44.9008505" lon="5.3962502">
<ele>1059.29</ele>
<time>2019-07-25T11:39:34Z</time>
</trkpt>
<trkpt lat="44.9008709" lon="5.3962011">
<ele>1058.88</ele>
<time>2019-07-25T11:39:35Z</time>
</trkpt>
<trkpt lat="44.9008900" lon="5.3961545">
<ele>1058.55</ele>
<time>2019-07-25T11:39:36Z</time>
</trkpt>
<trkpt lat="44.9009121" lon="5.3961007">
<ele>1058.52</ele>
<time>2019-07-25T11:39:37Z</time>
</trkpt>
<trkpt lat="44.9009268" lon="5.3960501">
<ele>1058.23</ele>
<time>2019-07-25T11:39:38Z</time>
</trkpt>
<trkpt lat="44.9009285" lon="5.3959975">
<ele>1058.02</ele>
<time>2019-07-25T11:39:39Z</time>
</trkpt>
<trkpt lat="44.9009344" lon="5.3959356">
<ele>1057.82</ele>
<time>2019-07-25T11:39:40Z</time>
</trkpt>
<trkpt lat="44.9009377" lon="5.3958785">
<ele>1057.68</ele>
<time>2019-07-25T11:39:41Z</time>
</trkpt>
<trkpt lat="44.9009423" lon="5.3958168">
<ele>1057.54</ele>
<time>2019-07-25T11:39:42Z</time>
</trkpt>
<trkpt lat="44.9009475" lon="5.3957569">
<ele>1057.52</ele>
<time>2019-07-25T11:39:43Z</time>
</trkpt>
<trkpt lat="44.9009567" lon="5.3957069">
<ele>1057.51</ele>
<time>2019-07-25T11:39:44Z</time>
</trkpt>
<trkpt lat="44.9009684" lon="5.3956598">
<ele>1057.34</ele>
<time>2019-07-25T11:39:45Z</time>
</trkpt>
<trkpt lat="44.9009788" lon="5.3956128">
<ele>1057.34</ele>
<time>2019-07-25T11:39:46Z</time>
</trkpt>
<trkpt lat="44.9009876" lon="5.3955650">
<ele>1057.26</ele>
<time>2019-07-25T11:39:47Z</time>
</trkpt>
<trkpt lat="44.9010042" lon="5.3955209">
<ele>1057.25</ele>
<time>2019-07-25T11:39:48Z</time>
</trkpt>
<trkpt lat="44.9010203" lon="5.3954772">
<ele>1057.23</ele>
<time>2019-07-25T11:39:49Z</time>
</trkpt>
<trkpt lat="44.9010393" lon="5.3954301">
<ele>1057.22</ele>
<time>2019-07-25T11:39:50Z</time>
</trkpt>
<trkpt lat="44.9010600" lon="5.3953891">
<ele>1057.21</ele>
<time>2019-07-25T11:39:51Z</time>
</trkpt>
<trkpt lat="44.9010795" lon="5.3953504">
<ele>1057.20</ele>
<time>2019-07-25T11:39:52Z</time>
</trkpt>
<trkpt lat="44.9011027" lon="5.3953085">
<ele>1057.08</ele>
<time>2019-07-25T11:39:53Z</time>
</trkpt>
<trkpt lat="44.9011315" lon="5.3952619">
<ele>1056.93</ele>
<time>2019-07-25T11:39:54Z</time>
</trkpt>
<trkpt lat="44.9011534" lon="5.3952000">
<ele>1056.77</ele>
<time>2019-07-25T11:39:55Z</time>
</trkpt>
<trkpt lat="44.9011721" lon="5.3951363">
<ele>1056.59</ele>
<time>2019-07-25T11:39:56Z</time>
</trkpt>
<trkpt lat="44.9011812" lon="5.3950703">
<ele>1056.39</ele>
<time>2019-07-25T11:39:57Z</time>
</trkpt>
<trkpt lat="44.9011873" lon="5.3950074">
<ele>1056.19</ele>
<time>2019-07-25T11:39:58Z</time>
</trkpt>
<trkpt lat="44.9011955" lon="5.3949464">
<ele>1056.01</ele>
<time>2019-07-25T11:39:59Z</time>
</trkpt>
<trkpt lat="44.9011984" lon="5.3948821">
<ele>1055.84</ele>
<time>2019-07-25T11:40:00Z</time>
</trkpt>
<trkpt lat="44.9012023" lon="5.3948245">
<ele>1055.66</ele>
<time>2019-07-25T11:40:01Z</time>
</trkpt>
<trkpt lat="44.9012058" lon="5.3947656">
<ele>1055.65</ele>
<time>2019-07-25T11:40:02Z</time>
</trkpt>
<trkpt lat="44.9012062" lon="5.3947097">
<ele>1055.63</ele>
<time>2019-07-25T11:40:03Z</time>
</trkpt>
<trkpt lat="44.9012065" lon="5.3946611">
<ele>1055.61</ele>
<time>2019-07-25T11:40:04Z</time>
</trkpt>
<trkpt lat="44.9012020" lon="5.3946135">
<ele>1055.59</ele>
<time>2019-07-25T11:40:05Z</time>
</trkpt>
<trkpt lat="44.9011987" lon="5.3945764">
<ele>1055.56</ele>
<time>2019-07-25T11:40:06Z</time>
</trkpt>
<trkpt lat="44.9011931" lon="5.3945383">
<ele>1055.53</ele>
<time>2019-07-25T11:40:07Z</time>
</trkpt>
<trkpt lat="44.9011891" lon="5.3945141">
<ele>1055.49</ele>
<time>2019-07-25T11:40:08Z</time>
</trkpt>
<trkpt lat="44.9011827" lon="5.3944861">
<ele>1055.46</ele>
<time>2019-07-25T11:40:09Z</time>
</trkpt>
<trkpt lat="44.9011692" lon="5.3944637">
<ele>1055.43</ele>
<time>2019-07-25T11:40:10Z</time>
</trkpt>
<trkpt lat="44.9011588" lon="5.3944437">
<ele>1055.39</ele>
<time>2019-07-25T11:40:11Z</time>
</trkpt>
<trkpt lat="44.9011462" lon="5.3944138">
<ele>1055.36</ele>
<time>2019-07-25T11:40:12Z</time>
</trkpt>
<trkpt lat="44.9011386" lon="5.3943872">
<ele>1055.32</ele>
<time>2019-07-25T11:40:13Z</time>
</trkpt>
<trkpt lat="44.9011276" lon="5.3943594">
<ele>1055.29</ele>
<time>2019-07-25T11:40:14Z</time>
</trkpt>
<trkpt lat="44.9011201" lon="5.3943295">
<ele>1055.25</ele>
<time>2019-07-25T11:40:15Z</time>
</trkpt>
<trkpt lat="44.9011227" lon="5.3942972">
<ele>1055.23</ele>
<time>2019-07-25T11:40:16Z</time>
</trkpt>
<trkpt lat="44.9011241" lon="5.3942654">
<ele>1055.22</ele>
<time>2019-07-25T11:40:17Z</time>
</trkpt>
<trkpt lat="44.9011256" lon="5.3942392">
<ele>1055.21</ele>
<time>2019-07-25T11:40:18Z</time>
</trkpt>
<trkpt lat="44.9011282" lon="5.3942192">
<ele>1055.21</ele>
<time>2019-07-25T11:40:19Z</time>
</trkpt>
<trkpt lat="44.9011320" lon="5.3942065">
<ele>1055.21</ele>
<time>2019-07-25T11:40:20Z</time>
</trkpt>
<trkpt lat="44.9011344" lon="5.3942022">
<ele>1055.21</ele>
<time>2019-07-25T11:40:21Z</time>
</trkpt>
<trkpt lat="44.9011334" lon="5.3942021">
<ele>1055.21</ele>
<time>2019-07-25T11:40:22Z</time>
</trkpt>
<trkpt lat="44.9011243" lon="5.3942147">
<ele>1055.21</ele>
<time>2019-07-25T11:40:23Z</time>
</trkpt>
<trkpt lat="44.9011217" lon="5.3942139">
<ele>1055.22</ele>
<time>2019-07-25T11:40:24Z</time>
</trkpt>
<trkpt lat="44.9011200" lon="5.3942067">
<ele>1055.22</ele>
<time>2019-07-25T11:40:25Z</time>
</trkpt>
<trkpt lat="44.9011192" lon="5.3941968">
<ele>1055.22</ele>
<time>2019-07-25T11:40:26Z</time>
</trkpt>
<trkpt lat="44.9011228" lon="5.3941950">
<ele>1055.22</ele>
<time>2019-07-25T11:40:27Z</time>
</trkpt>
<trkpt lat="44.9011232" lon="5.3941967">
<ele>1055.22</ele>
<time>2019-07-25T11:40:28Z</time>
</trkpt>
<trkpt lat="44.9011232" lon="5.3941984">
<ele>1055.22</ele>
<time>2019-07-25T11:40:29Z</time>
</trkpt>
<trkpt lat="44.9011229" lon="5.3941986">
<ele>1055.22</ele>
<time>2019-07-25T11:40:30Z</time>
</trkpt>
<trkpt lat="44.9011227" lon="5.3941991">
<ele>1055.22</ele>
<time>2019-07-25T11:40:31Z</time>
</trkpt>
<trkpt lat="44.9011229" lon="5.3941993">
<ele>1055.23</ele>
<time>2019-07-25T11:40:32Z</time>
</trkpt>
<trkpt lat="44.9011230" lon="5.3942000">
<ele>1055.25</ele>
<time>2019-07-25T11:40:33Z</time>
</trkpt>
<trkpt lat="44.9011230" lon="5.3942012">
<ele>1055.27</ele>
<time>2019-07-25T11:40:34Z</time>
</trkpt>
<trkpt lat="44.9011226" lon="5.3942056">
<ele>1055.30</ele>
<time>2019-07-25T11:40:35Z</time>
</trkpt>
<trkpt lat="44.9011188" lon="5.3942002">
<ele>1055.33</ele>
<time>2019-07-25T11:40:36Z</time>
</trkpt>
<trkpt lat="44.9011136" lon="5.3941986">
<ele>1055.37</ele>
<time>2019-07-25T11:40:37Z</time>
</trkpt>
<trkpt lat="44.9011111" lon="5.3941939">
<ele>1055.41</ele>
<time>2019-07-25T11:40:38Z</time>
</trkpt>
<trkpt lat="44.9011111" lon="5.3941899">
<ele>1055.41</ele>
<time>2019-07-25T11:40:39Z</time>
</trkpt>
<trkpt lat="44.9011118" lon="5.3941893">
<ele>1055.42</ele>
<time>2019-07-25T11:40:40Z</time>
</trkpt>
<trkpt lat="44.9011119" lon="5.3941885">
<ele>1055.42</ele>
<time>2019-07-25T11:40:41Z</time>
</trkpt>
<trkpt lat="44.9011120" lon="5.3941882">
<ele>1055.43</ele>
<time>2019-07-25T11:40:42Z</time>
</trkpt>
<trkpt lat="44.9011122" lon="5.3941879">
<ele>1055.43</ele>
<time>2019-07-25T11:40:43Z</time>
</trkpt>
<trkpt lat="44.9011124" lon="5.3941878">
<ele>1055.44</ele>
<time>2019-07-25T11:40:44Z</time>
</trkpt>
<trkpt lat="44.9011125" lon="5.3941875">
<ele>1055.44</ele>
<time>2019-07-25T11:40:45Z</time>
</trkpt>
<trkpt lat="44.9011127" lon="5.3941871">
<ele>1055.45</ele>
<time>2019-07-25T11:40:46Z</time>
</trkpt>
<trkpt lat="44.9011128" lon="5.3941870">
<ele>1055.46</ele>
<time>2019-07-25T11:40:47Z</time>
</trkpt>
<trkpt lat="44.9011130" lon="5.3941869">
<ele>1055.46</ele>
<time>2019-07-25T11:40:48Z</time>
</trkpt>
<trkpt lat="44.9011131" lon="5.3941868">
<ele>1055.47</ele>
<time>2019-07-25T11:40:49Z</time>
</trkpt>
<trkpt lat="44.9011134" lon="5.3941867">
<ele>1055.48</ele>
<time>2019-07-25T11:40:50Z</time>
</trkpt>
<trkpt lat="44.9011137" lon="5.3941865">
<ele>1055.49</ele>
<time>2019-07-25T11:40:51Z</time>
</trkpt>
<trkpt lat="44.9011146" lon="5.3941863">
<ele>1055.56</ele>
<time>2019-07-25T11:40:52Z</time>
</trkpt>
<trkpt lat="44.9011134" lon="5.3941843">
<ele>1055.63</ele>
<time>2019-07-25T11:40:53Z</time>
</trkpt>
<trkpt lat="44.9011136" lon="5.3941825">
<ele>1055.70</ele>
<time>2019-07-25T11:40:54Z</time>
</trkpt>
<trkpt lat="44.9011124" lon="5.3941769">
<ele>1055.76</ele>
<time>2019-07-25T11:40:55Z</time>
</trkpt>
<trkpt lat="44.9011154" lon="5.3941698">
<ele>1055.82</ele>
<time>2019-07-25T11:40:56Z</time>
</trkpt>
<trkpt lat="44.9011153" lon="5.3941659">
<ele>1055.87</ele>
<time>2019-07-25T11:40:57Z</time>
</trkpt>
<trkpt lat="44.9011147" lon="5.3941581">
<ele>1055.93</ele>
<time>2019-07-25T11:40:58Z</time>
</trkpt>
<trkpt lat="44.9011149" lon="5.3941455">
<ele>1055.99</ele>
<time>2019-07-25T11:40:59Z</time>
</trkpt>
<trkpt lat="44.9011162" lon="5.3941448">
<ele>1056.06</ele>
<time>2019-07-25T11:41:00Z</time>
</trkpt>
<trkpt lat="44.9011201" lon="5.3941385">
<ele>1056.13</ele>
<time>2019-07-25T11:41:01Z</time>
</trkpt>
<trkpt lat="44.9011230" lon="5.3941358">
<ele>1056.19</ele>
<time>2019-07-25T11:41:02Z</time>
</trkpt>
<trkpt lat="44.9011290" lon="5.3941222">
<ele>1056.25</ele>
<time>2019-07-25T11:41:03Z</time>
</trkpt>
<trkpt lat="44.9011332" lon="5.3941094">
<ele>1056.30</ele>
<time>2019-07-25T11:41:04Z</time>
</trkpt>
<trkpt lat="44.9011344" lon="5.3941086">
<ele>1056.35</ele>
<time>2019-07-25T11:41:05Z</time>
</trkpt>
<trkpt lat="44.9011350" lon="5.3941140">
<ele>1056.40</ele>
<time>2019-07-25T11:41:06Z</time>
</trkpt>
<trkpt lat="44.9011358" lon="5.3941131">
<ele>1056.41</ele>
<time>2019-07-25T11:41:07Z</time>
</trkpt>
<trkpt lat="44.9011358" lon="5.3941129">
<ele>1056.41</ele>
<time>2019-07-25T11:41:08Z</time>
</trkpt>
<trkpt lat="44.9011359" lon="5.3941129">
<ele>1056.42</ele>
<time>2019-07-25T11:41:09Z</time>
</trkpt>
<trkpt lat="44.9011361" lon="5.3941128">
<ele>1056.43</ele>
<time>2019-07-25T11:41:10Z</time>
</trkpt>
<trkpt lat="44.9011363" lon="5.3941131">
<ele>1056.43</ele>
<time>2019-07-25T11:41:11Z</time>
</trkpt>
<trkpt lat="44.9011361" lon="5.3941146">
<ele>1056.44</ele>
<time>2019-07-25T11:41:12Z</time>
</trkpt>
<trkpt lat="44.9011361" lon="5.3941144">
<ele>1056.44</ele>
<time>2019-07-25T11:41:13Z</time>
</trkpt>
<trkpt lat="44.9011360" lon="5.3941145">
<ele>1056.45</ele>
<time>2019-07-25T11:41:14Z</time>
</trkpt>
<trkpt lat="44.9011360" lon="5.3941143">
<ele>1056.46</ele>
<time>2019-07-25T11:41:15Z</time>
</trkpt>
<trkpt lat="44.9011360" lon="5.3941144">
<ele>1056.46</ele>
<time>2019-07-25T11:41:16Z</time>
</trkpt>
<trkpt lat="44.9011359" lon="5.3941142">
<ele>1056.47</ele>
<time>2019-07-25T11:41:17Z</time>
</trkpt>
<trkpt lat="44.9011394" lon="5.3941073">
<ele>1056.54</ele>
<time>2019-07-25T11:41:18Z</time>
</trkpt>
<trkpt lat="44.9011386" lon="5.3941109">
<ele>1056.60</ele>
<time>2019-07-25T11:41:19Z</time>
</trkpt>
<trkpt lat="44.9011388" lon="5.3941088">
<ele>1056.67</ele>
<time>2019-07-25T11:41:20Z</time>
</trkpt>
<trkpt lat="44.9011395" lon="5.3940928">
<ele>1056.73</ele>
<time>2019-07-25T11:41:21Z</time>
</trkpt>
<trkpt lat="44.9011370" lon="5.3940999">
<ele>1056.79</ele>
<time>2019-07-25T11:41:22Z</time>
</trkpt>
<trkpt lat="44.9011360" lon="5.3941032">
<ele>1056.79</ele>
<time>2019-07-25T11:41:23Z</time>
</trkpt>
<trkpt lat="44.9011359" lon="5.3941033">
<ele>1056.80</ele>
<time>2019-07-25T11:41:24Z</time>
</trkpt>
<trkpt lat="44.9011356" lon="5.3941023">
<ele>1056.80</ele>
<time>2019-07-25T11:41:25Z</time>
</trkpt>
<trkpt lat="44.9011354" lon="5.3941021">
<ele>1056.81</ele>
<time>2019-07-25T11:41:26Z</time>
</trkpt>
<trkpt lat="44.9011350" lon="5.3941013">
<ele>1056.81</ele>
<time>2019-07-25T11:41:27Z</time>
</trkpt>
<trkpt lat="44.9011349" lon="5.3941014">
<ele>1056.81</ele>
<time>2019-07-25T11:41:28Z</time>
</trkpt>
<trkpt lat="44.9010757" lon="5.3944722">
<ele>1069.67</ele>
<time>2019-07-25T11:41:49Z</time>
</trkpt>
<trkpt lat="44.9010642" lon="5.3944774">
<ele>1071.68</ele>
<time>2019-07-25T11:41:50Z</time>
</trkpt>
<trkpt lat="44.9010630" lon="5.3944781">
<ele>1071.87</ele>
<time>2019-07-25T11:41:51Z</time>
</trkpt>
<trkpt lat="44.9010627" lon="5.3944779">
<ele>1072.07</ele>
<time>2019-07-25T11:41:52Z</time>
</trkpt>
<trkpt lat="44.9010622" lon="5.3944780">
<ele>1072.27</ele>
<time>2019-07-25T11:41:53Z</time>
</trkpt>
<trkpt lat="44.9010620" lon="5.3944777">
<ele>1072.46</ele>
<time>2019-07-25T11:41:54Z</time>
</trkpt>
<trkpt lat="44.9010622" lon="5.3944773">
<ele>1072.65</ele>
<time>2019-07-25T11:41:55Z</time>
</trkpt>
<trkpt lat="44.9010624" lon="5.3944765">
<ele>1072.84</ele>
<time>2019-07-25T11:41:56Z</time>
</trkpt>
<trkpt lat="44.9010631" lon="5.3944752">
<ele>1073.02</ele>
<time>2019-07-25T11:41:57Z</time>
</trkpt>
<trkpt lat="44.9010632" lon="5.3944742">
<ele>1073.20</ele>
<time>2019-07-25T11:41:58Z</time>
</trkpt>
<trkpt lat="44.9010637" lon="5.3944735">
<ele>1073.38</ele>
<time>2019-07-25T11:41:59Z</time>
</trkpt>
<trkpt lat="44.9010641" lon="5.3944729">
<ele>1073.55</ele>
<time>2019-07-25T11:42:00Z</time>
</trkpt>
<trkpt lat="44.9010642" lon="5.3944725">
<ele>1073.72</ele>
<time>2019-07-25T11:42:01Z</time>
</trkpt>
<trkpt lat="44.9010643" lon="5.3944725">
<ele>1073.89</ele>
<time>2019-07-25T11:42:02Z</time>
</trkpt>
<trkpt lat="44.9010647" lon="5.3944716">
<ele>1074.06</ele>
<time>2019-07-25T11:42:03Z</time>
</trkpt>
<trkpt lat="44.9010648" lon="5.3944712">
<ele>1074.22</ele>
<time>2019-07-25T11:42:04Z</time>
</trkpt>
<trkpt lat="44.9010657" lon="5.3944698">
<ele>1075.81</ele>
<time>2019-07-25T11:42:05Z</time>
</trkpt>
<trkpt lat="44.9010672" lon="5.3944692">
<ele>1075.97</ele>
<time>2019-07-25T11:42:06Z</time>
</trkpt>
<trkpt lat="44.9010679" lon="5.3944679">
<ele>1076.12</ele>
<time>2019-07-25T11:42:07Z</time>
</trkpt>
<trkpt lat="44.9010684" lon="5.3944676">
<ele>1076.27</ele>
<time>2019-07-25T11:42:08Z</time>
</trkpt>
<trkpt lat="44.9010686" lon="5.3944671">
<ele>1076.41</ele>
<time>2019-07-25T11:42:09Z</time>
</trkpt>
<trkpt lat="44.9010690" lon="5.3944663">
<ele>1076.56</ele>
<time>2019-07-25T11:42:10Z</time>
</trkpt>
<trkpt lat="44.9010687" lon="5.3944662">
<ele>1076.70</ele>
<time>2019-07-25T11:42:11Z</time>
</trkpt>
<trkpt lat="44.9010688" lon="5.3944660">
<ele>1076.84</ele>
<time>2019-07-25T11:42:12Z</time>
</trkpt>
<trkpt lat="44.9010686" lon="5.3944655">
<ele>1076.98</ele>
<time>2019-07-25T11:42:13Z</time>
</trkpt>
<trkpt lat="44.9010683" lon="5.3944649">
<ele>1077.11</ele>
<time>2019-07-25T11:42:14Z</time>
</trkpt>
<trkpt lat="44.9010687" lon="5.3944638">
<ele>1077.24</ele>
<time>2019-07-25T11:42:15Z</time>
</trkpt>
<trkpt lat="44.9010689" lon="5.3944627">
<ele>1077.38</ele>
<time>2019-07-25T11:42:16Z</time>
</trkpt>
<trkpt lat="44.9010691" lon="5.3944616">
<ele>1077.51</ele>
<time>2019-07-25T11:42:17Z</time>
</trkpt>
<trkpt lat="44.9010708" lon="5.3944560">
<ele>1077.63</ele>
<time>2019-07-25T11:42:18Z</time>
</trkpt>
<trkpt lat="44.9010716" lon="5.3944524">
<ele>1077.76</ele>
<time>2019-07-25T11:42:19Z</time>
</trkpt>
<trkpt lat="44.9010885" lon="5.3943467">
<ele>1079.00</ele>
<time>2019-07-25T11:42:20Z</time>
</trkpt>
<trkpt lat="44.9011231" lon="5.3942778">
<ele>1079.12</ele>
<time>2019-07-25T11:42:21Z</time>
</trkpt>
<trkpt lat="44.9011000" lon="5.3943155">
<ele>1080.31</ele>
<time>2019-07-25T11:42:22Z</time>
</trkpt>
<trkpt lat="44.9011176" lon="5.3943070">
<ele>1081.47</ele>
<time>2019-07-25T11:42:23Z</time>
</trkpt>
<trkpt lat="44.9010937" lon="5.3943356">
<ele>1081.58</ele>
<time>2019-07-25T11:42:24Z</time>
</trkpt>
<trkpt lat="44.9010793" lon="5.3943485">
<ele>1081.69</ele>
<time>2019-07-25T11:42:25Z</time>
</trkpt>
<trkpt lat="44.9010791" lon="5.3943495">
<ele>1081.79</ele>
<time>2019-07-25T11:42:26Z</time>
</trkpt>
<trkpt lat="44.9010790" lon="5.3943500">
<ele>1081.90</ele>
<time>2019-07-25T11:42:27Z</time>
</trkpt>
<trkpt lat="44.9010784" lon="5.3943509">
<ele>1082.00</ele>
<time>2019-07-25T11:42:28Z</time>
</trkpt>
<trkpt lat="44.9010781" lon="5.3943510">
<ele>1082.10</ele>
<time>2019-07-25T11:42:29Z</time>
</trkpt>
<trkpt lat="44.9010770" lon="5.3943524">
<ele>1082.20</ele>
<time>2019-07-25T11:42:30Z</time>
</trkpt>
<trkpt lat="44.9010764" lon="5.3943522">
<ele>1082.30</ele>
<time>2019-07-25T11:42:31Z</time>
</trkpt>
<trkpt lat="44.9010759" lon="5.3943517">
<ele>1082.39</ele>
<time>2019-07-25T11:42:32Z</time>
</trkpt>
<trkpt lat="44.9010753" lon="5.3943519">
<ele>1082.49</ele>
<time>2019-07-25T11:42:33Z</time>
</trkpt>
<trkpt lat="44.9010744" lon="5.3943520">
<ele>1082.58</ele>
<time>2019-07-25T11:42:34Z</time>
</trkpt>
<trkpt lat="44.9010736" lon="5.3943505">
<ele>1082.68</ele>
<time>2019-07-25T11:42:35Z</time>
</trkpt>
<trkpt lat="44.9010722" lon="5.3943497">
<ele>1082.77</ele>
<time>2019-07-25T11:42:36Z</time>
</trkpt>
<trkpt lat="44.9010713" lon="5.3943500">
<ele>1082.86</ele>
<time>2019-07-25T11:42:37Z</time>
</trkpt>
<trkpt lat="44.9010651" lon="5.3943373">
<ele>1083.75</ele>
<time>2019-07-25T11:42:38Z</time>
</trkpt>
<trkpt lat="44.9010799" lon="5.3942805">
<ele>1084.60</ele>
<time>2019-07-25T11:42:39Z</time>
</trkpt>
<trkpt lat="44.9010658" lon="5.3942655">
<ele>1085.44</ele>
<time>2019-07-25T11:42:40Z</time>
</trkpt>
<trkpt lat="44.9010737" lon="5.3942421">
<ele>1086.24</ele>
<time>2019-07-25T11:42:41Z</time>
</trkpt>
<trkpt lat="44.9010852" lon="5.3942199">
<ele>1087.00</ele>
<time>2019-07-25T11:42:42Z</time>
</trkpt>
<trkpt lat="44.9010835" lon="5.3941932">
<ele>1087.72</ele>
<time>2019-07-25T11:42:43Z</time>
</trkpt>
<trkpt lat="44.9010900" lon="5.3941328">
<ele>1088.42</ele>
<time>2019-07-25T11:42:44Z</time>
</trkpt>
<trkpt lat="44.9011033" lon="5.3940917">
<ele>1089.06</ele>
<time>2019-07-25T11:42:45Z</time>
</trkpt>
<trkpt lat="44.9011111" lon="5.3940567">
<ele>1089.66</ele>
<time>2019-07-25T11:42:46Z</time>
</trkpt>
<trkpt lat="44.9011302" lon="5.3939913">
<ele>1090.25</ele>
<time>2019-07-25T11:42:47Z</time>
</trkpt>
<trkpt lat="44.9011404" lon="5.3939154">
<ele>1090.86</ele>
<time>2019-07-25T11:42:48Z</time>
</trkpt>
<trkpt lat="44.9011638" lon="5.3938528">
<ele>1091.39</ele>
<time>2019-07-25T11:42:49Z</time>
</trkpt>
<trkpt lat="44.9011741" lon="5.3938215">
<ele>1091.91</ele>
<time>2019-07-25T11:42:50Z</time>
</trkpt>
<trkpt lat="44.9011815" lon="5.3937831">
<ele>1092.41</ele>
<time>2019-07-25T11:42:51Z</time>
</trkpt>
<trkpt lat="44.9012100" lon="5.3937160">
<ele>1092.88</ele>
<time>2019-07-25T11:42:52Z</time>
</trkpt>
<trkpt lat="44.9012310" lon="5.3936421">
<ele>1093.32</ele>
<time>2019-07-25T11:42:53Z</time>
</trkpt>
<trkpt lat="44.9012378" lon="5.3935890">
<ele>1093.76</ele>
<time>2019-07-25T11:42:54Z</time>
</trkpt>
<trkpt lat="44.9012494" lon="5.3935106">
<ele>1094.20</ele>
<time>2019-07-25T11:42:55Z</time>
</trkpt>
<trkpt lat="44.9012573" lon="5.3934564">
<ele>1094.63</ele>
<time>2019-07-25T11:42:56Z</time>
</trkpt>
<trkpt lat="44.9012576" lon="5.3934545">
<ele>1095.00</ele>
<time>2019-07-25T11:42:57Z</time>
</trkpt>
<trkpt lat="44.9012664" lon="5.3934202">
<ele>1095.33</ele>
<time>2019-07-25T11:42:58Z</time>
</trkpt>
<trkpt lat="44.9012803" lon="5.3933667">
<ele>1095.62</ele>
<time>2019-07-25T11:42:59Z</time>
</trkpt>
<trkpt lat="44.9012989" lon="5.3933017">
<ele>1095.91</ele>
<time>2019-07-25T11:43:00Z</time>
</trkpt>
<trkpt lat="44.9012971" lon="5.3932726">
<ele>1096.15</ele>
<time>2019-07-25T11:43:01Z</time>
</trkpt>
<trkpt lat="44.9013074" lon="5.3932334">
<ele>1096.38</ele>
<time>2019-07-25T11:43:02Z</time>
</trkpt>
<trkpt lat="44.9013158" lon="5.3931848">
<ele>1098.61</ele>
<time>2019-07-25T11:43:03Z</time>
</trkpt>
<trkpt lat="44.9013262" lon="5.3931073">
<ele>1100.20</ele>
<time>2019-07-25T11:43:04Z</time>
</trkpt>
<trkpt lat="44.9013384" lon="5.3930381">
<ele>1101.39</ele>
<time>2019-07-25T11:43:05Z</time>
</trkpt>
<trkpt lat="44.9013343" lon="5.3929734">
<ele>1102.04</ele>
<time>2019-07-25T11:43:06Z</time>
</trkpt>
<trkpt lat="44.9013450" lon="5.3929155">
<ele>1102.29</ele>
<time>2019-07-25T11:43:07Z</time>
</trkpt>
<trkpt lat="44.9013580" lon="5.3928499">
<ele>1102.28</ele>
<time>2019-07-25T11:43:08Z</time>
</trkpt>
<trkpt lat="44.9013781" lon="5.3927865">
<ele>1102.10</ele>
<time>2019-07-25T11:43:09Z</time>
</trkpt>
<trkpt lat="44.9013898" lon="5.3927307">
<ele>1101.86</ele>
<time>2019-07-25T11:43:10Z</time>
</trkpt>
<trkpt lat="44.9014034" lon="5.3926724">
<ele>1101.48</ele>
<time>2019-07-25T11:43:11Z</time>
</trkpt>
<trkpt lat="44.9014157" lon="5.3926105">
<ele>1100.98</ele>
<time>2019-07-25T11:43:12Z</time>
</trkpt>
<trkpt lat="44.9014254" lon="5.3925529">
<ele>1100.39</ele>
<time>2019-07-25T11:43:13Z</time>
</trkpt>
<trkpt lat="44.9014340" lon="5.3924983">
<ele>1099.81</ele>
<time>2019-07-25T11:43:14Z</time>
</trkpt>
<trkpt lat="44.9014466" lon="5.3924364">
<ele>1099.28</ele>
<time>2019-07-25T11:43:15Z</time>
</trkpt>
<trkpt lat="44.9014566" lon="5.3923815">
<ele>1098.74</ele>
<time>2019-07-25T11:43:16Z</time>
</trkpt>
<trkpt lat="44.9014699" lon="5.3923206">
<ele>1098.25</ele>
<time>2019-07-25T11:43:17Z</time>
</trkpt>
<trkpt lat="44.9014832" lon="5.3922628">
<ele>1097.72</ele>
<time>2019-07-25T11:43:18Z</time>
</trkpt>
<trkpt lat="44.9014989" lon="5.3922103">
<ele>1097.20</ele>
<time>2019-07-25T11:43:19Z</time>
</trkpt>
<trkpt lat="44.9015141" lon="5.3921620">
<ele>1097.15</ele>
<time>2019-07-25T11:43:20Z</time>
</trkpt>
<trkpt lat="44.9015273" lon="5.3921162">
<ele>1097.09</ele>
<time>2019-07-25T11:43:21Z</time>
</trkpt>
<trkpt lat="44.9015442" lon="5.3920687">
<ele>1097.03</ele>
<time>2019-07-25T11:43:22Z</time>
</trkpt>
<trkpt lat="44.9015592" lon="5.3920258">
<ele>1096.95</ele>
<time>2019-07-25T11:43:23Z</time>
</trkpt>
<trkpt lat="44.9015737" lon="5.3919886">
<ele>1096.08</ele>
<time>2019-07-25T11:43:24Z</time>
</trkpt>
<trkpt lat="44.9015961" lon="5.3919315">
<ele>1095.32</ele>
<time>2019-07-25T11:43:25Z</time>
</trkpt>
<trkpt lat="44.9016190" lon="5.3918805">
<ele>1094.63</ele>
<time>2019-07-25T11:43:26Z</time>
</trkpt>
<trkpt lat="44.9016393" lon="5.3918272">
<ele>1094.57</ele>
<time>2019-07-25T11:43:27Z</time>
</trkpt>
<trkpt lat="44.9016559" lon="5.3917849">
<ele>1093.84</ele>
<time>2019-07-25T11:43:28Z</time>
</trkpt>
<trkpt lat="44.9016742" lon="5.3917411">
<ele>1093.77</ele>
<time>2019-07-25T11:43:29Z</time>
</trkpt>
<trkpt lat="44.9016883" lon="5.3917067">
<ele>1093.69</ele>
<time>2019-07-25T11:43:30Z</time>
</trkpt>
<trkpt lat="44.9017002" lon="5.3916746">
<ele>1093.61</ele>
<time>2019-07-25T11:43:31Z</time>
</trkpt>
<trkpt lat="44.9017070" lon="5.3916460">
<ele>1093.51</ele>
<time>2019-07-25T11:43:32Z</time>
</trkpt>
<trkpt lat="44.9017141" lon="5.3916203">
<ele>1093.41</ele>
<time>2019-07-25T11:43:33Z</time>
</trkpt>
<trkpt lat="44.9017209" lon="5.3915966">
<ele>1093.31</ele>
<time>2019-07-25T11:43:34Z</time>
</trkpt>
<trkpt lat="44.9017299" lon="5.3915605">
<ele>1093.20</ele>
<time>2019-07-25T11:43:35Z</time>
</trkpt>
<trkpt lat="44.9017325" lon="5.3915194">
<ele>1093.08</ele>
<time>2019-07-25T11:43:36Z</time>
</trkpt>
<trkpt lat="44.9017382" lon="5.3914670">
<ele>1092.96</ele>
<time>2019-07-25T11:43:37Z</time>
</trkpt>
<trkpt lat="44.9017420" lon="5.3914066">
<ele>1091.72</ele>
<time>2019-07-25T11:43:38Z</time>
</trkpt>
<trkpt lat="44.9017459" lon="5.3913475">
<ele>1090.68</ele>
<time>2019-07-25T11:43:39Z</time>
</trkpt>
<trkpt lat="44.9017489" lon="5.3912802">
<ele>1089.78</ele>
<time>2019-07-25T11:43:40Z</time>
</trkpt>
<trkpt lat="44.9017460" lon="5.3912061">
<ele>1088.98</ele>
<time>2019-07-25T11:43:41Z</time>
</trkpt>
<trkpt lat="44.9017416" lon="5.3911298">
<ele>1088.22</ele>
<time>2019-07-25T11:43:42Z</time>
</trkpt>
<trkpt lat="44.9017355" lon="5.3910458">
<ele>1087.53</ele>
<time>2019-07-25T11:43:43Z</time>
</trkpt>
<trkpt lat="44.9017311" lon="5.3909577">
<ele>1086.90</ele>
<time>2019-07-25T11:43:44Z</time>
</trkpt>
<trkpt lat="44.9017304" lon="5.3908720">
<ele>1086.33</ele>
<time>2019-07-25T11:43:45Z</time>
</trkpt>
<trkpt lat="44.9017348" lon="5.3907864">
<ele>1085.82</ele>
<time>2019-07-25T11:43:46Z</time>
</trkpt>
<trkpt lat="44.9017419" lon="5.3907026">
<ele>1085.36</ele>
<time>2019-07-25T11:43:47Z</time>
</trkpt>
<trkpt lat="44.9017547" lon="5.3906113">
<ele>1084.90</ele>
<time>2019-07-25T11:43:48Z</time>
</trkpt>
<trkpt lat="44.9017713" lon="5.3905270">
<ele>1084.41</ele>
<time>2019-07-25T11:43:49Z</time>
</trkpt>
<trkpt lat="44.9017971" lon="5.3904498">
<ele>1083.97</ele>
<time>2019-07-25T11:43:50Z</time>
</trkpt>
<trkpt lat="44.9018293" lon="5.3903702">
<ele>1083.48</ele>
<time>2019-07-25T11:43:51Z</time>
</trkpt>
<trkpt lat="44.9018698" lon="5.3902974">
<ele>1083.00</ele>
<time>2019-07-25T11:43:52Z</time>
</trkpt>
<trkpt lat="44.9019193" lon="5.3902293">
<ele>1082.51</ele>
<time>2019-07-25T11:43:53Z</time>
</trkpt>
<trkpt lat="44.9019744" lon="5.3901743">
<ele>1081.77</ele>
<time>2019-07-25T11:43:54Z</time>
</trkpt>
<trkpt lat="44.9020322" lon="5.3901329">
<ele>1080.90</ele>
<time>2019-07-25T11:43:55Z</time>
</trkpt>
<trkpt lat="44.9020953" lon="5.3900967">
<ele>1079.97</ele>
<time>2019-07-25T11:43:56Z</time>
</trkpt>
<trkpt lat="44.9021574" lon="5.3900567">
<ele>1078.98</ele>
<time>2019-07-25T11:43:57Z</time>
</trkpt>
<trkpt lat="44.9022195" lon="5.3900194">
<ele>1077.96</ele>
<time>2019-07-25T11:43:58Z</time>
</trkpt>
<trkpt lat="44.9022803" lon="5.3899813">
<ele>1077.00</ele>
<time>2019-07-25T11:43:59Z</time>
</trkpt>
<trkpt lat="44.9023376" lon="5.3899461">
<ele>1076.10</ele>
<time>2019-07-25T11:44:00Z</time>
</trkpt>
<trkpt lat="44.9023949" lon="5.3899165">
<ele>1075.26</ele>
<time>2019-07-25T11:44:01Z</time>
</trkpt>
<trkpt lat="44.9024576" lon="5.3898857">
<ele>1074.40</ele>
<time>2019-07-25T11:44:02Z</time>
</trkpt>
<trkpt lat="44.9025177" lon="5.3898583">
<ele>1073.56</ele>
<time>2019-07-25T11:44:03Z</time>
</trkpt>
<trkpt lat="44.9025710" lon="5.3898308">
<ele>1072.77</ele>
<time>2019-07-25T11:44:04Z</time>
</trkpt>
<trkpt lat="44.9026263" lon="5.3898010">
<ele>1072.08</ele>
<time>2019-07-25T11:44:05Z</time>
</trkpt>
<trkpt lat="44.9026827" lon="5.3897730">
<ele>1071.38</ele>
<time>2019-07-25T11:44:06Z</time>
</trkpt>
<trkpt lat="44.9027403" lon="5.3897466">
<ele>1070.67</ele>
<time>2019-07-25T11:44:07Z</time>
</trkpt>
<trkpt lat="44.9027961" lon="5.3897189">
<ele>1069.96</ele>
<time>2019-07-25T11:44:08Z</time>
</trkpt>
<trkpt lat="44.9028510" lon="5.3896908">
<ele>1069.28</ele>
<time>2019-07-25T11:44:09Z</time>
</trkpt>
<trkpt lat="44.9029045" lon="5.3896649">
<ele>1068.62</ele>
<time>2019-07-25T11:44:10Z</time>
</trkpt>
<trkpt lat="44.9029578" lon="5.3896374">
<ele>1067.99</ele>
<time>2019-07-25T11:44:11Z</time>
</trkpt>
<trkpt lat="44.9030134" lon="5.3896070">
<ele>1067.44</ele>
<time>2019-07-25T11:44:12Z</time>
</trkpt>
<trkpt lat="44.9030657" lon="5.3895706">
<ele>1067.02</ele>
<time>2019-07-25T11:44:13Z</time>
</trkpt>
<trkpt lat="44.9031058" lon="5.3895175">
<ele>1066.63</ele>
<time>2019-07-25T11:44:14Z</time>
</trkpt>
<trkpt lat="44.9031370" lon="5.3894529">
<ele>1066.24</ele>
<time>2019-07-25T11:44:15Z</time>
</trkpt>
<trkpt lat="44.9031645" lon="5.3893867">
<ele>1065.87</ele>
<time>2019-07-25T11:44:16Z</time>
</trkpt>
<trkpt lat="44.9031885" lon="5.3893297">
<ele>1065.56</ele>
<time>2019-07-25T11:44:17Z</time>
</trkpt>
<trkpt lat="44.9032113" lon="5.3892733">
<ele>1065.28</ele>
<time>2019-07-25T11:44:18Z</time>
</trkpt>
<trkpt lat="44.9032318" lon="5.3892168">
<ele>1065.03</ele>
<time>2019-07-25T11:44:19Z</time>
</trkpt>
<trkpt lat="44.9032517" lon="5.3891584">
<ele>1064.80</ele>
<time>2019-07-25T11:44:20Z</time>
</trkpt>
<trkpt lat="44.9032707" lon="5.3891032">
<ele>1064.60</ele>
<time>2019-07-25T11:44:21Z</time>
</trkpt>
<trkpt lat="44.9032868" lon="5.3890543">
<ele>1064.39</ele>
<time>2019-07-25T11:44:22Z</time>
</trkpt>
<trkpt lat="44.9032992" lon="5.3890063">
<ele>1064.20</ele>
<time>2019-07-25T11:44:23Z</time>
</trkpt>
<trkpt lat="44.9033135" lon="5.3889580">
<ele>1064.18</ele>
<time>2019-07-25T11:44:24Z</time>
</trkpt>
<trkpt lat="44.9033277" lon="5.3889122">
<ele>1064.16</ele>
<time>2019-07-25T11:44:25Z</time>
</trkpt>
<trkpt lat="44.9033419" lon="5.3888719">
<ele>1064.13</ele>
<time>2019-07-25T11:44:26Z</time>
</trkpt>
<trkpt lat="44.9033524" lon="5.3888389">
<ele>1064.09</ele>
<time>2019-07-25T11:44:27Z</time>
</trkpt>
<trkpt lat="44.9033566" lon="5.3888009">
<ele>1064.05</ele>
<time>2019-07-25T11:44:28Z</time>
</trkpt>
<trkpt lat="44.9033600" lon="5.3887620">
<ele>1064.00</ele>
<time>2019-07-25T11:44:29Z</time>
</trkpt>
<trkpt lat="44.9033668" lon="5.3887194">
<ele>1063.95</ele>
<time>2019-07-25T11:44:30Z</time>
</trkpt>
<trkpt lat="44.9033741" lon="5.3886740">
<ele>1063.90</ele>
<time>2019-07-25T11:44:31Z</time>
</trkpt>
<trkpt lat="44.9033836" lon="5.3886291">
<ele>1063.83</ele>
<time>2019-07-25T11:44:32Z</time>
</trkpt>
<trkpt lat="44.9033982" lon="5.3885834">
<ele>1063.19</ele>
<time>2019-07-25T11:44:33Z</time>
</trkpt>
<trkpt lat="44.9034127" lon="5.3885236">
<ele>1062.61</ele>
<time>2019-07-25T11:44:34Z</time>
</trkpt>
<trkpt lat="44.9034302" lon="5.3884599">
<ele>1062.12</ele>
<time>2019-07-25T11:44:35Z</time>
</trkpt>
<trkpt lat="44.9034513" lon="5.3883965">
<ele>1061.71</ele>
<time>2019-07-25T11:44:36Z</time>
</trkpt>
<trkpt lat="44.9034735" lon="5.3883298">
<ele>1061.35</ele>
<time>2019-07-25T11:44:37Z</time>
</trkpt>
<trkpt lat="44.9034940" lon="5.3882639">
<ele>1061.06</ele>
<time>2019-07-25T11:44:38Z</time>
</trkpt>
<trkpt lat="44.9035176" lon="5.3881967">
<ele>1060.78</ele>
<time>2019-07-25T11:44:39Z</time>
</trkpt>
<trkpt lat="44.9035454" lon="5.3881355">
<ele>1060.54</ele>
<time>2019-07-25T11:44:40Z</time>
</trkpt>
<trkpt lat="44.9035780" lon="5.3880821">
<ele>1060.30</ele>
<time>2019-07-25T11:44:41Z</time>
</trkpt>
<trkpt lat="44.9036171" lon="5.3880348">
<ele>1060.10</ele>
<time>2019-07-25T11:44:42Z</time>
</trkpt>
<trkpt lat="44.9036577" lon="5.3879950">
<ele>1059.90</ele>
<time>2019-07-25T11:44:43Z</time>
</trkpt>
<trkpt lat="44.9037024" lon="5.3879656">
<ele>1059.73</ele>
<time>2019-07-25T11:44:44Z</time>
</trkpt>
<trkpt lat="44.9037439" lon="5.3879501">
<ele>1059.56</ele>
<time>2019-07-25T11:44:45Z</time>
</trkpt>
<trkpt lat="44.9037833" lon="5.3879383">
<ele>1059.54</ele>
<time>2019-07-25T11:44:46Z</time>
</trkpt>
<trkpt lat="44.9038158" lon="5.3879274">
<ele>1059.53</ele>
<time>2019-07-25T11:44:47Z</time>
</trkpt>
<trkpt lat="44.9038434" lon="5.3879152">
<ele>1059.51</ele>
<time>2019-07-25T11:44:48Z</time>
</trkpt>
<trkpt lat="44.9038734" lon="5.3879077">
<ele>1059.48</ele>
<time>2019-07-25T11:44:49Z</time>
</trkpt>
<trkpt lat="44.9039048" lon="5.3879086">
<ele>1059.46</ele>
<time>2019-07-25T11:44:50Z</time>
</trkpt>
<trkpt lat="44.9039360" lon="5.3879099">
<ele>1059.44</ele>
<time>2019-07-25T11:44:51Z</time>
</trkpt>
<trkpt lat="44.9039668" lon="5.3879009">
<ele>1059.42</ele>
<time>2019-07-25T11:44:52Z</time>
</trkpt>
<trkpt lat="44.9040001" lon="5.3878856">
<ele>1059.40</ele>
<time>2019-07-25T11:44:53Z</time>
</trkpt>
<trkpt lat="44.9040358" lon="5.3878734">
<ele>1059.18</ele>
<time>2019-07-25T11:44:54Z</time>
</trkpt>
<trkpt lat="44.9040751" lon="5.3878635">
<ele>1059.00</ele>
<time>2019-07-25T11:44:55Z</time>
</trkpt>
<trkpt lat="44.9041156" lon="5.3878507">
<ele>1058.85</ele>
<time>2019-07-25T11:44:56Z</time>
</trkpt>
<trkpt lat="44.9041564" lon="5.3878366">
<ele>1058.72</ele>
<time>2019-07-25T11:44:57Z</time>
</trkpt>
<trkpt lat="44.9041985" lon="5.3878246">
<ele>1058.59</ele>
<time>2019-07-25T11:44:58Z</time>
</trkpt>
<trkpt lat="44.9042419" lon="5.3878172">
<ele>1058.49</ele>
<time>2019-07-25T11:44:59Z</time>
</trkpt>
<trkpt lat="44.9042909" lon="5.3878159">
<ele>1058.39</ele>
<time>2019-07-25T11:45:00Z</time>
</trkpt>
<trkpt lat="44.9043387" lon="5.3878178">
<ele>1058.29</ele>
<time>2019-07-25T11:45:01Z</time>
</trkpt>
<trkpt lat="44.9043872" lon="5.3878097">
<ele>1058.21</ele>
<time>2019-07-25T11:45:02Z</time>
</trkpt>
<trkpt lat="44.9044407" lon="5.3877905">
<ele>1058.14</ele>
<time>2019-07-25T11:45:03Z</time>
</trkpt>
<trkpt lat="44.9044904" lon="5.3877501">
<ele>1058.06</ele>
<time>2019-07-25T11:45:04Z</time>
</trkpt>
<trkpt lat="44.9045393" lon="5.3876976">
<ele>1057.96</ele>
<time>2019-07-25T11:45:05Z</time>
</trkpt>
<trkpt lat="44.9045902" lon="5.3876455">
<ele>1057.89</ele>
<time>2019-07-25T11:45:06Z</time>
</trkpt>
<trkpt lat="44.9046410" lon="5.3876017">
<ele>1057.83</ele>
<time>2019-07-25T11:45:07Z</time>
</trkpt>
<trkpt lat="44.9046932" lon="5.3875751">
<ele>1057.77</ele>
<time>2019-07-25T11:45:08Z</time>
</trkpt>
<trkpt lat="44.9047427" lon="5.3875576">
<ele>1057.73</ele>
<time>2019-07-25T11:45:09Z</time>
</trkpt>
<trkpt lat="44.9047899" lon="5.3875484">
<ele>1057.73</ele>
<time>2019-07-25T11:45:10Z</time>
</trkpt>
<trkpt lat="44.9048292" lon="5.3875413">
<ele>1057.73</ele>
<time>2019-07-25T11:45:11Z</time>
</trkpt>
<trkpt lat="44.9048544" lon="5.3875391">
<ele>1057.73</ele>
<time>2019-07-25T11:45:12Z</time>
</trkpt>
<trkpt lat="44.9048839" lon="5.3875360">
<ele>1057.73</ele>
<time>2019-07-25T11:45:13Z</time>
</trkpt>
<trkpt lat="44.9049123" lon="5.3875281">
<ele>1057.73</ele>
<time>2019-07-25T11:45:14Z</time>
</trkpt>
<trkpt lat="44.9049383" lon="5.3875146">
<ele>1057.73</ele>
<time>2019-07-25T11:45:15Z</time>
</trkpt>
<trkpt lat="44.9049600" lon="5.3874981">
<ele>1057.73</ele>
<time>2019-07-25T11:45:16Z</time>
</trkpt>
<trkpt lat="44.9049722" lon="5.3874928">
<ele>1057.73</ele>
<time>2019-07-25T11:45:17Z</time>
</trkpt>
<trkpt lat="44.9049744" lon="5.3874877">
<ele>1057.72</ele>
<time>2019-07-25T11:45:18Z</time>
</trkpt>
<trkpt lat="44.9049747" lon="5.3874867">
<ele>1057.72</ele>
<time>2019-07-25T11:45:19Z</time>
</trkpt>
<trkpt lat="44.9049752" lon="5.3874868">
<ele>1057.71</ele>
<time>2019-07-25T11:45:20Z</time>
</trkpt>
<trkpt lat="44.9049755" lon="5.3874852">
<ele>1057.71</ele>
<time>2019-07-25T11:45:21Z</time>
</trkpt>
<trkpt lat="44.9049798" lon="5.3874749">
<ele>1057.71</ele>
<time>2019-07-25T11:45:22Z</time>
</trkpt>
<trkpt lat="44.9049881" lon="5.3874632">
<ele>1057.71</ele>
<time>2019-07-25T11:45:23Z</time>
</trkpt>
<trkpt lat="44.9050005" lon="5.3874499">
<ele>1057.71</ele>
<time>2019-07-25T11:45:24Z</time>
</trkpt>
<trkpt lat="44.9050237" lon="5.3874237">
<ele>1057.70</ele>
<time>2019-07-25T11:45:25Z</time>
</trkpt>
<trkpt lat="44.9050480" lon="5.3874030">
<ele>1057.70</ele>
<time>2019-07-25T11:45:26Z</time>
</trkpt>
<trkpt lat="44.9050776" lon="5.3873834">
<ele>1057.69</ele>
<time>2019-07-25T11:45:27Z</time>
</trkpt>
<trkpt lat="44.9051072" lon="5.3873594">
<ele>1057.69</ele>
<time>2019-07-25T11:45:28Z</time>
</trkpt>
<trkpt lat="44.9051395" lon="5.3873294">
<ele>1057.68</ele>
<time>2019-07-25T11:45:29Z</time>
</trkpt>
<trkpt lat="44.9051704" lon="5.3873038">
<ele>1057.67</ele>
<time>2019-07-25T11:45:30Z</time>
</trkpt>
<trkpt lat="44.9052071" lon="5.3872642">
<ele>1057.57</ele>
<time>2019-07-25T11:45:31Z</time>
</trkpt>
<trkpt lat="44.9052449" lon="5.3872257">
<ele>1057.47</ele>
<time>2019-07-25T11:45:32Z</time>
</trkpt>
<trkpt lat="44.9052792" lon="5.3871995">
<ele>1057.37</ele>
<time>2019-07-25T11:45:33Z</time>
</trkpt>
<trkpt lat="44.9053155" lon="5.3871765">
<ele>1057.26</ele>
<time>2019-07-25T11:45:34Z</time>
</trkpt>
<trkpt lat="44.9053565" lon="5.3871503">
<ele>1057.15</ele>
<time>2019-07-25T11:45:35Z</time>
</trkpt>
<trkpt lat="44.9053935" lon="5.3871293">
<ele>1057.06</ele>
<time>2019-07-25T11:45:36Z</time>
</trkpt>
<trkpt lat="44.9054274" lon="5.3871117">
<ele>1056.97</ele>
<time>2019-07-25T11:45:37Z</time>
</trkpt>
<trkpt lat="44.9054651" lon="5.3870911">
<ele>1056.89</ele>
<time>2019-07-25T11:45:38Z</time>
</trkpt>
<trkpt lat="44.9055000" lon="5.3870725">
<ele>1056.83</ele>
<time>2019-07-25T11:45:39Z</time>
</trkpt>
<trkpt lat="44.9055339" lon="5.3870546">
<ele>1056.76</ele>
<time>2019-07-25T11:45:40Z</time>
</trkpt>
<trkpt lat="44.9055686" lon="5.3870349">
<ele>1056.69</ele>
<time>2019-07-25T11:45:41Z</time>
</trkpt>
<trkpt lat="44.9056082" lon="5.3870128">
<ele>1056.62</ele>
<time>2019-07-25T11:45:42Z</time>
</trkpt>
<trkpt lat="44.9056464" lon="5.3869868">
<ele>1056.55</ele>
<time>2019-07-25T11:45:43Z</time>
</trkpt>
<trkpt lat="44.9056806" lon="5.3869433">
<ele>1056.49</ele>
<time>2019-07-25T11:45:44Z</time>
</trkpt>
<trkpt lat="44.9057115" lon="5.3869078">
<ele>1056.43</ele>
<time>2019-07-25T11:45:45Z</time>
</trkpt>
<trkpt lat="44.9057493" lon="5.3868825">
<ele>1056.39</ele>
<time>2019-07-25T11:45:46Z</time>
</trkpt>
<trkpt lat="44.9057920" lon="5.3868476">
<ele>1056.35</ele>
<time>2019-07-25T11:45:47Z</time>
</trkpt>
<trkpt lat="44.9058302" lon="5.3868138">
<ele>1056.34</ele>
<time>2019-07-25T11:45:48Z</time>
</trkpt>
<trkpt lat="44.9058676" lon="5.3867852">
<ele>1056.38</ele>
<time>2019-07-25T11:45:49Z</time>
</trkpt>
<trkpt lat="44.9058992" lon="5.3867557">
<ele>1056.45</ele>
<time>2019-07-25T11:45:50Z</time>
</trkpt>
<trkpt lat="44.9059363" lon="5.3867192">
<ele>1056.52</ele>
<time>2019-07-25T11:45:51Z</time>
</trkpt>
<trkpt lat="44.9059790" lon="5.3866790">
<ele>1056.60</ele>
<time>2019-07-25T11:45:52Z</time>
</trkpt>
<trkpt lat="44.9060210" lon="5.3866392">
<ele>1056.64</ele>
<time>2019-07-25T11:45:53Z</time>
</trkpt>
<trkpt lat="44.9060592" lon="5.3865949">
<ele>1056.65</ele>
<time>2019-07-25T11:45:54Z</time>
</trkpt>
<trkpt lat="44.9060999" lon="5.3865475">
<ele>1056.62</ele>
<time>2019-07-25T11:45:55Z</time>
</trkpt>
<trkpt lat="44.9061411" lon="5.3865076">
<ele>1056.60</ele>
<time>2019-07-25T11:45:56Z</time>
</trkpt>
<trkpt lat="44.9061776" lon="5.3864697">
<ele>1056.59</ele>
<time>2019-07-25T11:45:57Z</time>
</trkpt>
<trkpt lat="44.9062128" lon="5.3864271">
<ele>1056.57</ele>
<time>2019-07-25T11:45:58Z</time>
</trkpt>
<trkpt lat="44.9062481" lon="5.3863832">
<ele>1056.53</ele>
<time>2019-07-25T11:45:59Z</time>
</trkpt>
<trkpt lat="44.9062856" lon="5.3863406">
<ele>1056.45</ele>
<time>2019-07-25T11:46:00Z</time>
</trkpt>
<trkpt lat="44.9063224" lon="5.3863001">
<ele>1056.40</ele>
<time>2019-07-25T11:46:01Z</time>
</trkpt>
<trkpt lat="44.9063553" lon="5.3862572">
<ele>1056.36</ele>
<time>2019-07-25T11:46:02Z</time>
</trkpt>
<trkpt lat="44.9063874" lon="5.3862141">
<ele>1056.32</ele>
<time>2019-07-25T11:46:03Z</time>
</trkpt>
<trkpt lat="44.9064152" lon="5.3861675">
<ele>1056.27</ele>
<time>2019-07-25T11:46:04Z</time>
</trkpt>
<trkpt lat="44.9064389" lon="5.3861170">
<ele>1056.26</ele>
<time>2019-07-25T11:46:05Z</time>
</trkpt>
<trkpt lat="44.9064566" lon="5.3860658">
<ele>1056.25</ele>
<time>2019-07-25T11:46:06Z</time>
</trkpt>
<trkpt lat="44.9064706" lon="5.3860185">
<ele>1056.24</ele>
<time>2019-07-25T11:46:07Z</time>
</trkpt>
<trkpt lat="44.9064845" lon="5.3859658">
<ele>1056.23</ele>
<time>2019-07-25T11:46:08Z</time>
</trkpt>
<trkpt lat="44.9064906" lon="5.3859254">
<ele>1056.21</ele>
<time>2019-07-25T11:46:09Z</time>
</trkpt>
<trkpt lat="44.9064849" lon="5.3858849">
<ele>1056.19</ele>
<time>2019-07-25T11:46:10Z</time>
</trkpt>
<trkpt lat="44.9064702" lon="5.3858449">
<ele>1056.17</ele>
<time>2019-07-25T11:46:11Z</time>
</trkpt>
<trkpt lat="44.9064659" lon="5.3857942">
<ele>1056.15</ele>
<time>2019-07-25T11:46:12Z</time>
</trkpt>
<trkpt lat="44.9064599" lon="5.3857415">
<ele>1056.12</ele>
<time>2019-07-25T11:46:13Z</time>
</trkpt>
<trkpt lat="44.9064632" lon="5.3856894">
<ele>1056.10</ele>
<time>2019-07-25T11:46:14Z</time>
</trkpt>
<trkpt lat="44.9064654" lon="5.3856504">
<ele>1056.09</ele>
<time>2019-07-25T11:46:15Z</time>
</trkpt>
<trkpt lat="44.9064648" lon="5.3856160">
<ele>1056.07</ele>
<time>2019-07-25T11:46:16Z</time>
</trkpt>
<trkpt lat="44.9064542" lon="5.3855653">
<ele>1056.06</ele>
<time>2019-07-25T11:46:17Z</time>
</trkpt>
<trkpt lat="44.9064563" lon="5.3855173">
<ele>1056.05</ele>
<time>2019-07-25T11:46:18Z</time>
</trkpt>
<trkpt lat="44.9064606" lon="5.3854717">
<ele>1056.04</ele>
<time>2019-07-25T11:46:19Z</time>
</trkpt>
<trkpt lat="44.9064482" lon="5.3854306">
<ele>1056.03</ele>
<time>2019-07-25T11:46:20Z</time>
</trkpt>
<trkpt lat="44.9064292" lon="5.3853976">
<ele>1056.01</ele>
<time>2019-07-25T11:46:21Z</time>
</trkpt>
<trkpt lat="44.9064165" lon="5.3853577">
<ele>1055.99</ele>
<time>2019-07-25T11:46:22Z</time>
</trkpt>
<trkpt lat="44.9064018" lon="5.3853300">
<ele>1055.97</ele>
<time>2019-07-25T11:46:23Z</time>
</trkpt>
<trkpt lat="44.9063911" lon="5.3852989">
<ele>1055.95</ele>
<time>2019-07-25T11:46:24Z</time>
</trkpt>
<trkpt lat="44.9063756" lon="5.3852815">
<ele>1055.93</ele>
<time>2019-07-25T11:46:25Z</time>
</trkpt>
<trkpt lat="44.9063621" lon="5.3852624">
<ele>1055.91</ele>
<time>2019-07-25T11:46:26Z</time>
</trkpt>
<trkpt lat="44.9063555" lon="5.3852378">
<ele>1055.89</ele>
<time>2019-07-25T11:46:27Z</time>
</trkpt>
<trkpt lat="44.9063499" lon="5.3851998">
<ele>1055.86</ele>
<time>2019-07-25T11:46:28Z</time>
</trkpt>
<trkpt lat="44.9063512" lon="5.3851537">
<ele>1055.84</ele>
<time>2019-07-25T11:46:29Z</time>
</trkpt>
<trkpt lat="44.9063527" lon="5.3851118">
<ele>1055.83</ele>
<time>2019-07-25T11:46:30Z</time>
</trkpt>
<trkpt lat="44.9063544" lon="5.3850684">
<ele>1055.82</ele>
<time>2019-07-25T11:46:31Z</time>
</trkpt>
<trkpt lat="44.9063541" lon="5.3850242">
<ele>1055.82</ele>
<time>2019-07-25T11:46:32Z</time>
</trkpt>
<trkpt lat="44.9063476" lon="5.3849793">
<ele>1055.82</ele>
<time>2019-07-25T11:46:33Z</time>
</trkpt>
<trkpt lat="44.9063375" lon="5.3849350">
<ele>1055.82</ele>
<time>2019-07-25T11:46:34Z</time>
</trkpt>
<trkpt lat="44.9063261" lon="5.3848916">
<ele>1055.83</ele>
<time>2019-07-25T11:46:35Z</time>
</trkpt>
<trkpt lat="44.9063153" lon="5.3848456">
<ele>1055.84</ele>
<time>2019-07-25T11:46:36Z</time>
</trkpt>
<trkpt lat="44.9063049" lon="5.3847945">
<ele>1055.85</ele>
<time>2019-07-25T11:46:37Z</time>
</trkpt>
<trkpt lat="44.9062947" lon="5.3847440">
<ele>1055.87</ele>
<time>2019-07-25T11:46:38Z</time>
</trkpt>
<trkpt lat="44.9062942" lon="5.3846907">
<ele>1055.89</ele>
<time>2019-07-25T11:46:39Z</time>
</trkpt>
<trkpt lat="44.9063012" lon="5.3846475">
<ele>1055.91</ele>
<time>2019-07-25T11:46:40Z</time>
</trkpt>
<trkpt lat="44.9063010" lon="5.3846025">
<ele>1055.93</ele>
<time>2019-07-25T11:46:41Z</time>
</trkpt>
<trkpt lat="44.9063044" lon="5.3845557">
<ele>1055.96</ele>
<time>2019-07-25T11:46:42Z</time>
</trkpt>
<trkpt lat="44.9063064" lon="5.3845112">
<ele>1055.98</ele>
<time>2019-07-25T11:46:43Z</time>
</trkpt>
<trkpt lat="44.9063062" lon="5.3844650">
<ele>1056.00</ele>
<time>2019-07-25T11:46:44Z</time>
</trkpt>
<trkpt lat="44.9063037" lon="5.3844209">
<ele>1056.02</ele>
<time>2019-07-25T11:46:45Z</time>
</trkpt>
<trkpt lat="44.9062983" lon="5.3843785">
<ele>1056.04</ele>
<time>2019-07-25T11:46:46Z</time>
</trkpt>
<trkpt lat="44.9062960" lon="5.3843374">
<ele>1056.06</ele>
<time>2019-07-25T11:46:47Z</time>
</trkpt>
<trkpt lat="44.9062925" lon="5.3842913">
<ele>1056.09</ele>
<time>2019-07-25T11:46:48Z</time>
</trkpt>
<trkpt lat="44.9062873" lon="5.3842414">
<ele>1056.11</ele>
<time>2019-07-25T11:46:49Z</time>
</trkpt>
<trkpt lat="44.9062856" lon="5.3841948">
<ele>1056.14</ele>
<time>2019-07-25T11:46:50Z</time>
</trkpt>
<trkpt lat="44.9062816" lon="5.3841502">
<ele>1056.17</ele>
<time>2019-07-25T11:46:51Z</time>
</trkpt>
<trkpt lat="44.9062780" lon="5.3841131">
<ele>1056.20</ele>
<time>2019-07-25T11:46:52Z</time>
</trkpt>
<trkpt lat="44.9062819" lon="5.3840806">
<ele>1056.24</ele>
<time>2019-07-25T11:46:53Z</time>
</trkpt>
<trkpt lat="44.9062875" lon="5.3840382">
<ele>1056.28</ele>
<time>2019-07-25T11:46:54Z</time>
</trkpt>
<trkpt lat="44.9062893" lon="5.3840018">
<ele>1056.32</ele>
<time>2019-07-25T11:46:55Z</time>
</trkpt>
<trkpt lat="44.9062867" lon="5.3839618">
<ele>1056.37</ele>
<time>2019-07-25T11:46:56Z</time>
</trkpt>
<trkpt lat="44.9062881" lon="5.3839285">
<ele>1056.41</ele>
<time>2019-07-25T11:46:57Z</time>
</trkpt>
<trkpt lat="44.9062947" lon="5.3838864">
<ele>1056.46</ele>
<time>2019-07-25T11:46:58Z</time>
</trkpt>
<trkpt lat="44.9063013" lon="5.3838448">
<ele>1056.50</ele>
<time>2019-07-25T11:46:59Z</time>
</trkpt>
<trkpt lat="44.9063025" lon="5.3838027">
<ele>1056.55</ele>
<time>2019-07-25T11:47:00Z</time>
</trkpt>
<trkpt lat="44.9063066" lon="5.3837561">
<ele>1056.60</ele>
<time>2019-07-25T11:47:01Z</time>
</trkpt>
<trkpt lat="44.9063146" lon="5.3837106">
<ele>1056.65</ele>
<time>2019-07-25T11:47:02Z</time>
</trkpt>
<trkpt lat="44.9063260" lon="5.3836621">
<ele>1056.70</ele>
<time>2019-07-25T11:47:03Z</time>
</trkpt>
<trkpt lat="44.9063370" lon="5.3836188">
<ele>1056.75</ele>
<time>2019-07-25T11:47:04Z</time>
</trkpt>
<trkpt lat="44.9063486" lon="5.3835697">
<ele>1056.80</ele>
<time>2019-07-25T11:47:05Z</time>
</trkpt>
<trkpt lat="44.9063539" lon="5.3835250">
<ele>1056.86</ele>
<time>2019-07-25T11:47:06Z</time>
</trkpt>
<trkpt lat="44.9063570" lon="5.3834756">
<ele>1056.91</ele>
<time>2019-07-25T11:47:07Z</time>
</trkpt>
<trkpt lat="44.9063562" lon="5.3834218">
<ele>1056.97</ele>
<time>2019-07-25T11:47:08Z</time>
</trkpt>
<trkpt lat="44.9063579" lon="5.3833747">
<ele>1057.03</ele>
<time>2019-07-25T11:47:09Z</time>
</trkpt>
<trkpt lat="44.9063649" lon="5.3833315">
<ele>1057.10</ele>
<time>2019-07-25T11:47:10Z</time>
</trkpt>
<trkpt lat="44.9063686" lon="5.3832991">
<ele>1057.17</ele>
<time>2019-07-25T11:47:11Z</time>
</trkpt>
<trkpt lat="44.9063741" lon="5.3832563">
<ele>1057.23</ele>
<time>2019-07-25T11:47:12Z</time>
</trkpt>
<trkpt lat="44.9063848" lon="5.3832060">
<ele>1057.30</ele>
<time>2019-07-25T11:47:13Z</time>
</trkpt>
<trkpt lat="44.9063936" lon="5.3831534">
<ele>1057.36</ele>
<time>2019-07-25T11:47:14Z</time>
</trkpt>
<trkpt lat="44.9063967" lon="5.3831041">
<ele>1058.03</ele>
<time>2019-07-25T11:47:15Z</time>
</trkpt>
<trkpt lat="44.9064030" lon="5.3830471">
<ele>1058.58</ele>
<time>2019-07-25T11:47:16Z</time>
</trkpt>
<trkpt lat="44.9064199" lon="5.3829821">
<ele>1059.03</ele>
<time>2019-07-25T11:47:17Z</time>
</trkpt>
<trkpt lat="44.9064442" lon="5.3829221">
<ele>1059.39</ele>
<time>2019-07-25T11:47:18Z</time>
</trkpt>
<trkpt lat="44.9064746" lon="5.3828663">
<ele>1059.67</ele>
<time>2019-07-25T11:47:19Z</time>
</trkpt>
<trkpt lat="44.9065039" lon="5.3828139">
<ele>1059.89</ele>
<time>2019-07-25T11:47:20Z</time>
</trkpt>
<trkpt lat="44.9065312" lon="5.3827612">
<ele>1060.05</ele>
<time>2019-07-25T11:47:21Z</time>
</trkpt>
<trkpt lat="44.9065575" lon="5.3827192">
<ele>1060.15</ele>
<time>2019-07-25T11:47:22Z</time>
</trkpt>
<trkpt lat="44.9065790" lon="5.3826749">
<ele>1060.25</ele>
<time>2019-07-25T11:47:23Z</time>
</trkpt>
<trkpt lat="44.9065987" lon="5.3826240">
<ele>1060.33</ele>
<time>2019-07-25T11:47:24Z</time>
</trkpt>
<trkpt lat="44.9066151" lon="5.3825630">
<ele>1060.37</ele>
<time>2019-07-25T11:47:25Z</time>
</trkpt>
<trkpt lat="44.9066378" lon="5.3824910">
<ele>1060.39</ele>
<time>2019-07-25T11:47:26Z</time>
</trkpt>
<trkpt lat="44.9066675" lon="5.3824333">
<ele>1060.41</ele>
<time>2019-07-25T11:47:27Z</time>
</trkpt>
<trkpt lat="44.9066869" lon="5.3823654">
<ele>1060.43</ele>
<time>2019-07-25T11:47:28Z</time>
</trkpt>
<trkpt lat="44.9066991" lon="5.3822894">
<ele>1060.46</ele>
<time>2019-07-25T11:47:29Z</time>
</trkpt>
<trkpt lat="44.9066980" lon="5.3822153">
<ele>1060.45</ele>
<time>2019-07-25T11:47:30Z</time>
</trkpt>
<trkpt lat="44.9066943" lon="5.3821373">
<ele>1060.39</ele>
<time>2019-07-25T11:47:31Z</time>
</trkpt>
<trkpt lat="44.9066927" lon="5.3820434">
<ele>1060.26</ele>
<time>2019-07-25T11:47:32Z</time>
</trkpt>
<trkpt lat="44.9066892" lon="5.3819367">
<ele>1060.12</ele>
<time>2019-07-25T11:47:33Z</time>
</trkpt>
<trkpt lat="44.9066825" lon="5.3818224">
<ele>1059.83</ele>
<time>2019-07-25T11:47:34Z</time>
</trkpt>
<trkpt lat="44.9066785" lon="5.3817143">
<ele>1059.61</ele>
<time>2019-07-25T11:47:35Z</time>
</trkpt>
<trkpt lat="44.9066822" lon="5.3816041">
<ele>1059.36</ele>
<time>2019-07-25T11:47:36Z</time>
</trkpt>
<trkpt lat="44.9066885" lon="5.3815021">
<ele>1059.16</ele>
<time>2019-07-25T11:47:37Z</time>
</trkpt>
<trkpt lat="44.9066954" lon="5.3814028">
<ele>1058.94</ele>
<time>2019-07-25T11:47:38Z</time>
</trkpt>
<trkpt lat="44.9067034" lon="5.3813105">
<ele>1058.71</ele>
<time>2019-07-25T11:47:39Z</time>
</trkpt>
<trkpt lat="44.9067131" lon="5.3812324">
<ele>1058.49</ele>
<time>2019-07-25T11:47:40Z</time>
</trkpt>
<trkpt lat="44.9067227" lon="5.3811658">
<ele>1058.46</ele>
<time>2019-07-25T11:47:41Z</time>
</trkpt>
<trkpt lat="44.9067285" lon="5.3811228">
<ele>1058.45</ele>
<time>2019-07-25T11:47:42Z</time>
</trkpt>
<trkpt lat="44.9067288" lon="5.3811011">
<ele>1058.44</ele>
<time>2019-07-25T11:47:43Z</time>
</trkpt>
<trkpt lat="44.9067253" lon="5.3810800">
<ele>1058.43</ele>
<time>2019-07-25T11:47:44Z</time>
</trkpt>
<trkpt lat="44.9067217" lon="5.3810525">
<ele>1058.42</ele>
<time>2019-07-25T11:47:45Z</time>
</trkpt>
<trkpt lat="44.9067156" lon="5.3810060">
<ele>1058.32</ele>
<time>2019-07-25T11:47:46Z</time>
</trkpt>
<trkpt lat="44.9067014" lon="5.3809436">
<ele>1058.31</ele>
<time>2019-07-25T11:47:47Z</time>
</trkpt>
<trkpt lat="44.9066693" lon="5.3809082">
<ele>1058.14</ele>
<time>2019-07-25T11:47:48Z</time>
</trkpt>
<trkpt lat="44.9066357" lon="5.3808711">
<ele>1058.02</ele>
<time>2019-07-25T11:47:49Z</time>
</trkpt>
<trkpt lat="44.9066016" lon="5.3808326">
<ele>1057.93</ele>
<time>2019-07-25T11:47:50Z</time>
</trkpt>
<trkpt lat="44.9065676" lon="5.3807962">
<ele>1057.85</ele>
<time>2019-07-25T11:47:51Z</time>
</trkpt>
<trkpt lat="44.9065373" lon="5.3807673">
<ele>1057.82</ele>
<time>2019-07-25T11:47:52Z</time>
</trkpt>
<trkpt lat="44.9065074" lon="5.3807390">
<ele>1057.71</ele>
<time>2019-07-25T11:47:53Z</time>
</trkpt>
<trkpt lat="44.9064784" lon="5.3807033">
<ele>1057.62</ele>
<time>2019-07-25T11:47:54Z</time>
</trkpt>
<trkpt lat="44.9064531" lon="5.3806645">
<ele>1057.60</ele>
<time>2019-07-25T11:47:55Z</time>
</trkpt>
<trkpt lat="44.9064376" lon="5.3806269">
<ele>1057.59</ele>
<time>2019-07-25T11:47:56Z</time>
</trkpt>
<trkpt lat="44.9064288" lon="5.3805863">
<ele>1057.57</ele>
<time>2019-07-25T11:47:57Z</time>
</trkpt>
<trkpt lat="44.9064174" lon="5.3805449">
<ele>1057.55</ele>
<time>2019-07-25T11:47:58Z</time>
</trkpt>
<trkpt lat="44.9064016" lon="5.3805171">
<ele>1057.52</ele>
<time>2019-07-25T11:47:59Z</time>
</trkpt>
<trkpt lat="44.9063942" lon="5.3804905">
<ele>1057.50</ele>
<time>2019-07-25T11:48:00Z</time>
</trkpt>
<trkpt lat="44.9063942" lon="5.3804905">
<ele>1057.47</ele>
<time>2019-07-25T11:48:01Z</time>
</trkpt>
<trkpt lat="44.9063942" lon="5.3804905">
<ele>1057.46</ele>
<time>2019-07-25T11:48:02Z</time>
</trkpt>
<trkpt lat="44.9063942" lon="5.3804905">
<ele>1057.46</ele>
<time>2019-07-25T11:48:03Z</time>
</trkpt>
<trkpt lat="44.9063942" lon="5.3804905">
<ele>1057.46</ele>
<time>2019-07-25T11:48:04Z</time>
</trkpt>
<trkpt lat="44.9063942" lon="5.3804905">
<ele>1057.44</ele>
<time>2019-07-25T11:48:05Z</time>
</trkpt>
<trkpt lat="44.9063919" lon="5.3804636">
<ele>1057.40</ele>
<time>2019-07-25T11:48:06Z</time>
</trkpt>
<trkpt lat="44.9063902" lon="5.3804332">
<ele>1057.36</ele>
<time>2019-07-25T11:48:07Z</time>
</trkpt>
<trkpt lat="44.9063886" lon="5.3803968">
<ele>1057.33</ele>
<time>2019-07-25T11:48:08Z</time>
</trkpt>
<trkpt lat="44.9063877" lon="5.3803517">
<ele>1057.29</ele>
<time>2019-07-25T11:48:09Z</time>
</trkpt>
<trkpt lat="44.9063893" lon="5.3803015">
<ele>1057.26</ele>
<time>2019-07-25T11:48:10Z</time>
</trkpt>
<trkpt lat="44.9063979" lon="5.3802438">
<ele>1056.97</ele>
<time>2019-07-25T11:48:11Z</time>
</trkpt>
<trkpt lat="44.9064047" lon="5.3801803">
<ele>1056.74</ele>
<time>2019-07-25T11:48:12Z</time>
</trkpt>
<trkpt lat="44.9064101" lon="5.3801170">
<ele>1056.57</ele>
<time>2019-07-25T11:48:13Z</time>
</trkpt>
<trkpt lat="44.9064171" lon="5.3800578">
<ele>1056.41</ele>
<time>2019-07-25T11:48:14Z</time>
</trkpt>
<trkpt lat="44.9064196" lon="5.3799994">
<ele>1056.29</ele>
<time>2019-07-25T11:48:15Z</time>
</trkpt>
<trkpt lat="44.9064222" lon="5.3799348">
<ele>1056.20</ele>
<time>2019-07-25T11:48:16Z</time>
</trkpt>
<trkpt lat="44.9064218" lon="5.3798685">
<ele>1056.13</ele>
<time>2019-07-25T11:48:17Z</time>
</trkpt>
<trkpt lat="44.9064216" lon="5.3798001">
<ele>1056.07</ele>
<time>2019-07-25T11:48:18Z</time>
</trkpt>
<trkpt lat="44.9064193" lon="5.3797284">
<ele>1055.99</ele>
<time>2019-07-25T11:48:19Z</time>
</trkpt>
<trkpt lat="44.9064145" lon="5.3796593">
<ele>1055.89</ele>
<time>2019-07-25T11:48:20Z</time>
</trkpt>
<trkpt lat="44.9063973" lon="5.3795804">
<ele>1055.77</ele>
<time>2019-07-25T11:48:21Z</time>
</trkpt>
<trkpt lat="44.9063767" lon="5.3794939">
<ele>1055.71</ele>
<time>2019-07-25T11:48:22Z</time>
</trkpt>
<trkpt lat="44.9063509" lon="5.3794089">
<ele>1055.65</ele>
<time>2019-07-25T11:48:23Z</time>
</trkpt>
<trkpt lat="44.9063204" lon="5.3793264">
<ele>1055.62</ele>
<time>2019-07-25T11:48:24Z</time>
</trkpt>
<trkpt lat="44.9062832" lon="5.3792426">
<ele>1055.54</ele>
<time>2019-07-25T11:48:25Z</time>
</trkpt>
<trkpt lat="44.9062449" lon="5.3791701">
<ele>1055.45</ele>
<time>2019-07-25T11:48:26Z</time>
</trkpt>
<trkpt lat="44.9061997" lon="5.3790979">
<ele>1055.31</ele>
<time>2019-07-25T11:48:27Z</time>
</trkpt>
<trkpt lat="44.9061500" lon="5.3790352">
<ele>1055.13</ele>
<time>2019-07-25T11:48:28Z</time>
</trkpt>
<trkpt lat="44.9060927" lon="5.3789858">
<ele>1055.00</ele>
<time>2019-07-25T11:48:29Z</time>
</trkpt>
<trkpt lat="44.9060351" lon="5.3789358">
<ele>1054.88</ele>
<time>2019-07-25T11:48:30Z</time>
</trkpt>
<trkpt lat="44.9059766" lon="5.3788886">
<ele>1054.75</ele>
<time>2019-07-25T11:48:31Z</time>
</trkpt>
<trkpt lat="44.9059188" lon="5.3788514">
<ele>1054.61</ele>
<time>2019-07-25T11:48:32Z</time>
</trkpt>
<trkpt lat="44.9058662" lon="5.3788098">
<ele>1054.53</ele>
<time>2019-07-25T11:48:33Z</time>
</trkpt>
<trkpt lat="44.9058155" lon="5.3787775">
<ele>1054.56</ele>
<time>2019-07-25T11:48:34Z</time>
</trkpt>
<trkpt lat="44.9057766" lon="5.3787404">
<ele>1054.47</ele>
<time>2019-07-25T11:48:35Z</time>
</trkpt>
<trkpt lat="44.9057515" lon="5.3786935">
<ele>1054.38</ele>
<time>2019-07-25T11:48:36Z</time>
</trkpt>
<trkpt lat="44.9057241" lon="5.3786586">
<ele>1054.37</ele>
<time>2019-07-25T11:48:37Z</time>
</trkpt>
<trkpt lat="44.9056997" lon="5.3786228">
<ele>1054.36</ele>
<time>2019-07-25T11:48:38Z</time>
</trkpt>
<trkpt lat="44.9056740" lon="5.3785860">
<ele>1054.34</ele>
<time>2019-07-25T11:48:39Z</time>
</trkpt>
<trkpt lat="44.9056450" lon="5.3785519">
<ele>1054.27</ele>
<time>2019-07-25T11:48:40Z</time>
</trkpt>
<trkpt lat="44.9056146" lon="5.3785177">
<ele>1054.19</ele>
<time>2019-07-25T11:48:41Z</time>
</trkpt>
<trkpt lat="44.9055838" lon="5.3784825">
<ele>1054.19</ele>
<time>2019-07-25T11:48:42Z</time>
</trkpt>
<trkpt lat="44.9055582" lon="5.3784515">
<ele>1054.18</ele>
<time>2019-07-25T11:48:43Z</time>
</trkpt>
<trkpt lat="44.9055303" lon="5.3784191">
<ele>1054.04</ele>
<time>2019-07-25T11:48:44Z</time>
</trkpt>
<trkpt lat="44.9054996" lon="5.3783800">
<ele>1053.85</ele>
<time>2019-07-25T11:48:45Z</time>
</trkpt>
<trkpt lat="44.9054679" lon="5.3783360">
<ele>1053.57</ele>
<time>2019-07-25T11:48:46Z</time>
</trkpt>
<trkpt lat="44.9054368" lon="5.3782914">
<ele>1053.31</ele>
<time>2019-07-25T11:48:47Z</time>
</trkpt>
<trkpt lat="44.9054099" lon="5.3782429">
<ele>1053.21</ele>
<time>2019-07-25T11:48:48Z</time>
</trkpt>
<trkpt lat="44.9053862" lon="5.3781894">
<ele>1053.07</ele>
<time>2019-07-25T11:48:49Z</time>
</trkpt>
<trkpt lat="44.9053569" lon="5.3781397">
<ele>1052.89</ele>
<time>2019-07-25T11:48:50Z</time>
</trkpt>
<trkpt lat="44.9053250" lon="5.3780964">
<ele>1052.70</ele>
<time>2019-07-25T11:48:51Z</time>
</trkpt>
<trkpt lat="44.9052931" lon="5.3780480">
<ele>1052.51</ele>
<time>2019-07-25T11:48:52Z</time>
</trkpt>
<trkpt lat="44.9052649" lon="5.3779983">
<ele>1052.37</ele>
<time>2019-07-25T11:48:53Z</time>
</trkpt>
<trkpt lat="44.9052359" lon="5.3779444">
<ele>1052.23</ele>
<time>2019-07-25T11:48:54Z</time>
</trkpt>
<trkpt lat="44.9051992" lon="5.3778868">
<ele>1052.12</ele>
<time>2019-07-25T11:48:55Z</time>
</trkpt>
<trkpt lat="44.9051616" lon="5.3778482">
<ele>1052.03</ele>
<time>2019-07-25T11:48:56Z</time>
</trkpt>
<trkpt lat="44.9051259" lon="5.3778312">
<ele>1052.03</ele>
<time>2019-07-25T11:48:57Z</time>
</trkpt>
<trkpt lat="44.9050925" lon="5.3778102">
<ele>1052.01</ele>
<time>2019-07-25T11:48:58Z</time>
</trkpt>
<trkpt lat="44.9050716" lon="5.3777630">
<ele>1051.92</ele>
<time>2019-07-25T11:48:59Z</time>
</trkpt>
<trkpt lat="44.9050553" lon="5.3776848">
<ele>1051.84</ele>
<time>2019-07-25T11:49:00Z</time>
</trkpt>
<trkpt lat="44.9050412" lon="5.3776190">
<ele>1051.84</ele>
<time>2019-07-25T11:49:01Z</time>
</trkpt>
<trkpt lat="44.9050296" lon="5.3775672">
<ele>1051.83</ele>
<time>2019-07-25T11:49:02Z</time>
</trkpt>
<trkpt lat="44.9050166" lon="5.3775302">
<ele>1051.83</ele>
<time>2019-07-25T11:49:03Z</time>
</trkpt>
<trkpt lat="44.9049957" lon="5.3774843">
<ele>1051.79</ele>
<time>2019-07-25T11:49:04Z</time>
</trkpt>
<trkpt lat="44.9049642" lon="5.3774208">
<ele>1051.75</ele>
<time>2019-07-25T11:49:05Z</time>
</trkpt>
<trkpt lat="44.9049437" lon="5.3773506">
<ele>1051.69</ele>
<time>2019-07-25T11:49:06Z</time>
</trkpt>
<trkpt lat="44.9049091" lon="5.3772805">
<ele>1051.61</ele>
<time>2019-07-25T11:49:07Z</time>
</trkpt>
<trkpt lat="44.9048905" lon="5.3772074">
<ele>1051.54</ele>
<time>2019-07-25T11:49:08Z</time>
</trkpt>
<trkpt lat="44.9048683" lon="5.3771372">
<ele>1051.46</ele>
<time>2019-07-25T11:49:09Z</time>
</trkpt>
<trkpt lat="44.9048296" lon="5.3770726">
<ele>1051.40</ele>
<time>2019-07-25T11:49:10Z</time>
</trkpt>
<trkpt lat="44.9047966" lon="5.3770017">
<ele>1051.28</ele>
<time>2019-07-25T11:49:11Z</time>
</trkpt>
<trkpt lat="44.9047611" lon="5.3769272">
<ele>1051.15</ele>
<time>2019-07-25T11:49:12Z</time>
</trkpt>
<trkpt lat="44.9047086" lon="5.3768786">
<ele>1051.07</ele>
<time>2019-07-25T11:49:13Z</time>
</trkpt>
<trkpt lat="44.9046609" lon="5.3768345">
<ele>1051.02</ele>
<time>2019-07-25T11:49:14Z</time>
</trkpt>
<trkpt lat="44.9046145" lon="5.3767862">
<ele>1050.99</ele>
<time>2019-07-25T11:49:15Z</time>
</trkpt>
<trkpt lat="44.9045646" lon="5.3767541">
<ele>1050.93</ele>
<time>2019-07-25T11:49:16Z</time>
</trkpt>
<trkpt lat="44.9045192" lon="5.3767290">
<ele>1050.85</ele>
<time>2019-07-25T11:49:17Z</time>
</trkpt>
<trkpt lat="44.9044749" lon="5.3767051">
<ele>1050.76</ele>
<time>2019-07-25T11:49:18Z</time>
</trkpt>
<trkpt lat="44.9044356" lon="5.3766827">
<ele>1050.67</ele>
<time>2019-07-25T11:49:19Z</time>
</trkpt>
<trkpt lat="44.9043905" lon="5.3766591">
<ele>1050.63</ele>
<time>2019-07-25T11:49:20Z</time>
</trkpt>
<trkpt lat="44.9043465" lon="5.3766387">
<ele>1050.57</ele>
<time>2019-07-25T11:49:21Z</time>
</trkpt>
<trkpt lat="44.9043096" lon="5.3766155">
<ele>1050.56</ele>
<time>2019-07-25T11:49:22Z</time>
</trkpt>
<trkpt lat="44.9042799" lon="5.3765931">
<ele>1050.55</ele>
<time>2019-07-25T11:49:23Z</time>
</trkpt>
<trkpt lat="44.9042532" lon="5.3765720">
<ele>1050.55</ele>
<time>2019-07-25T11:49:24Z</time>
</trkpt>
<trkpt lat="44.9042233" lon="5.3765505">
<ele>1050.54</ele>
<time>2019-07-25T11:49:25Z</time>
</trkpt>
<trkpt lat="44.9041894" lon="5.3765438">
<ele>1050.52</ele>
<time>2019-07-25T11:49:26Z</time>
</trkpt>
<trkpt lat="44.9041578" lon="5.3765401">
<ele>1050.39</ele>
<time>2019-07-25T11:49:27Z</time>
</trkpt>
<trkpt lat="44.9041151" lon="5.3765432">
<ele>1050.29</ele>
<time>2019-07-25T11:49:28Z</time>
</trkpt>
<trkpt lat="44.9040733" lon="5.3765397">
<ele>1050.29</ele>
<time>2019-07-25T11:49:29Z</time>
</trkpt>
<trkpt lat="44.9040408" lon="5.3765261">
<ele>1050.28</ele>
<time>2019-07-25T11:49:30Z</time>
</trkpt>
<trkpt lat="44.9040163" lon="5.3765067">
<ele>1050.27</ele>
<time>2019-07-25T11:49:31Z</time>
</trkpt>
<trkpt lat="44.9039916" lon="5.3764922">
<ele>1050.26</ele>
<time>2019-07-25T11:49:32Z</time>
</trkpt>
<trkpt lat="44.9039663" lon="5.3764779">
<ele>1050.26</ele>
<time>2019-07-25T11:49:33Z</time>
</trkpt>
<trkpt lat="44.9039454" lon="5.3764670">
<ele>1050.25</ele>
<time>2019-07-25T11:49:34Z</time>
</trkpt>
<trkpt lat="44.9039248" lon="5.3764640">
<ele>1050.24</ele>
<time>2019-07-25T11:49:35Z</time>
</trkpt>
<trkpt lat="44.9039127" lon="5.3764652">
<ele>1050.24</ele>
<time>2019-07-25T11:49:36Z</time>
</trkpt>
<trkpt lat="44.9038975" lon="5.3764644">
<ele>1050.23</ele>
<time>2019-07-25T11:49:37Z</time>
</trkpt>
<trkpt lat="44.9038817" lon="5.3764585">
<ele>1050.23</ele>
<time>2019-07-25T11:49:38Z</time>
</trkpt>
<trkpt lat="44.9038769" lon="5.3764576">
<ele>1050.23</ele>
<time>2019-07-25T11:49:39Z</time>
</trkpt>
<trkpt lat="44.9038783" lon="5.3764579">
<ele>1050.23</ele>
<time>2019-07-25T11:49:40Z</time>
</trkpt>
<trkpt lat="44.9038784" lon="5.3764577">
<ele>1050.23</ele>
<time>2019-07-25T11:49:41Z</time>
</trkpt>
<trkpt lat="44.9038784" lon="5.3764577">
<ele>1050.23</ele>
<time>2019-07-25T11:49:42Z</time>
</trkpt>
<trkpt lat="44.9038786" lon="5.3764578">
<ele>1050.23</ele>
<time>2019-07-25T11:49:43Z</time>
</trkpt>
<trkpt lat="44.9038791" lon="5.3764581">
<ele>1050.24</ele>
<time>2019-07-25T11:49:44Z</time>
</trkpt>
<trkpt lat="44.9038799" lon="5.3764586">
<ele>1050.24</ele>
<time>2019-07-25T11:49:45Z</time>
</trkpt>
<trkpt lat="44.9038799" lon="5.3764585">
<ele>1050.24</ele>
<time>2019-07-25T11:49:46Z</time>
</trkpt>
<trkpt lat="44.9038807" lon="5.3764593">
<ele>1050.24</ele>
<time>2019-07-25T11:49:47Z</time>
</trkpt>
<trkpt lat="44.9038815" lon="5.3764593">
<ele>1050.24</ele>
<time>2019-07-25T11:49:48Z</time>
</trkpt>
<trkpt lat="44.9038819" lon="5.3764596">
<ele>1050.24</ele>
<time>2019-07-25T11:49:49Z</time>
</trkpt>
<trkpt lat="44.9038819" lon="5.3764597">
<ele>1050.24</ele>
<time>2019-07-25T11:49:50Z</time>
</trkpt>
<trkpt lat="44.9038817" lon="5.3764596">
<ele>1050.24</ele>
<time>2019-07-25T11:49:51Z</time>
</trkpt>
<trkpt lat="44.9038817" lon="5.3764597">
<ele>1050.25</ele>
<time>2019-07-25T11:49:52Z</time>
</trkpt>
<trkpt lat="44.9038812" lon="5.3764594">
<ele>1050.25</ele>
<time>2019-07-25T11:49:53Z</time>
</trkpt>
<trkpt lat="44.9038811" lon="5.3764593">
<ele>1050.25</ele>
<time>2019-07-25T11:49:54Z</time>
</trkpt>
<trkpt lat="44.9038808" lon="5.3764592">
<ele>1050.25</ele>
<time>2019-07-25T11:49:55Z</time>
</trkpt>
<trkpt lat="44.9038814" lon="5.3764592">
<ele>1050.25</ele>
<time>2019-07-25T11:49:56Z</time>
</trkpt>
<trkpt lat="44.9038817" lon="5.3764593">
<ele>1050.26</ele>
<time>2019-07-25T11:49:57Z</time>
</trkpt>
<trkpt lat="44.9038832" lon="5.3764595">
<ele>1050.28</ele>
<time>2019-07-25T11:49:58Z</time>
</trkpt>
<trkpt lat="44.9038768" lon="5.3764560">
<ele>1050.30</ele>
<time>2019-07-25T11:49:59Z</time>
</trkpt>
<trkpt lat="44.9038647" lon="5.3764527">
<ele>1050.32</ele>
<time>2019-07-25T11:50:00Z</time>
</trkpt>
<trkpt lat="44.9038504" lon="5.3764510">
<ele>1050.34</ele>
<time>2019-07-25T11:50:01Z</time>
</trkpt>
<trkpt lat="44.9038295" lon="5.3764425">
<ele>1050.36</ele>
<time>2019-07-25T11:50:02Z</time>
</trkpt>
<trkpt lat="44.9038058" lon="5.3764266">
<ele>1050.38</ele>
<time>2019-07-25T11:50:03Z</time>
</trkpt>
<trkpt lat="44.9037745" lon="5.3764146">
<ele>1050.40</ele>
<time>2019-07-25T11:50:04Z</time>
</trkpt>
<trkpt lat="44.9037323" lon="5.3764124">
<ele>1050.41</ele>
<time>2019-07-25T11:50:05Z</time>
</trkpt>
<trkpt lat="44.9036874" lon="5.3764104">
<ele>1050.42</ele>
<time>2019-07-25T11:50:06Z</time>
</trkpt>
<trkpt lat="44.9036479" lon="5.3763957">
<ele>1050.42</ele>
<time>2019-07-25T11:50:07Z</time>
</trkpt>
<trkpt lat="44.9036111" lon="5.3763782">
<ele>1050.47</ele>
<time>2019-07-25T11:50:08Z</time>
</trkpt>
<trkpt lat="44.9035722" lon="5.3763520">
<ele>1050.48</ele>
<time>2019-07-25T11:50:09Z</time>
</trkpt>
<trkpt lat="44.9035341" lon="5.3763390">
<ele>1050.47</ele>
<time>2019-07-25T11:50:10Z</time>
</trkpt>
<trkpt lat="44.9034865" lon="5.3763388">
<ele>1050.44</ele>
<time>2019-07-25T11:50:11Z</time>
</trkpt>
<trkpt lat="44.9034419" lon="5.3763389">
<ele>1050.41</ele>
<time>2019-07-25T11:50:12Z</time>
</trkpt>
<trkpt lat="44.9034006" lon="5.3763364">
<ele>1050.38</ele>
<time>2019-07-25T11:50:13Z</time>
</trkpt>
<trkpt lat="44.9033611" lon="5.3763315">
<ele>1050.38</ele>
<time>2019-07-25T11:50:14Z</time>
</trkpt>
<trkpt lat="44.9033227" lon="5.3763265">
<ele>1050.38</ele>
<time>2019-07-25T11:50:15Z</time>
</trkpt>
<trkpt lat="44.9032808" lon="5.3763281">
<ele>1050.37</ele>
<time>2019-07-25T11:50:16Z</time>
</trkpt>
<trkpt lat="44.9032407" lon="5.3763326">
<ele>1050.37</ele>
<time>2019-07-25T11:50:17Z</time>
</trkpt>
<trkpt lat="44.9032049" lon="5.3763384">
<ele>1050.36</ele>
<time>2019-07-25T11:50:18Z</time>
</trkpt>
<trkpt lat="44.9031709" lon="5.3763478">
<ele>1050.35</ele>
<time>2019-07-25T11:50:19Z</time>
</trkpt>
<trkpt lat="44.9031360" lon="5.3763551">
<ele>1050.35</ele>
<time>2019-07-25T11:50:20Z</time>
</trkpt>
<trkpt lat="44.9030971" lon="5.3763559">
<ele>1050.25</ele>
<time>2019-07-25T11:50:21Z</time>
</trkpt>
<trkpt lat="44.9030569" lon="5.3763468">
<ele>1050.24</ele>
<time>2019-07-25T11:50:22Z</time>
</trkpt>
<trkpt lat="44.9030207" lon="5.3763265">
<ele>1050.23</ele>
<time>2019-07-25T11:50:23Z</time>
</trkpt>
<trkpt lat="44.9029865" lon="5.3762975">
<ele>1050.12</ele>
<time>2019-07-25T11:50:24Z</time>
</trkpt>
<trkpt lat="44.9029510" lon="5.3762590">
<ele>1050.02</ele>
<time>2019-07-25T11:50:25Z</time>
</trkpt>
<trkpt lat="44.9029217" lon="5.3762186">
<ele>1049.96</ele>
<time>2019-07-25T11:50:26Z</time>
</trkpt>
<trkpt lat="44.9028952" lon="5.3761652">
<ele>1049.96</ele>
<time>2019-07-25T11:50:27Z</time>
</trkpt>
<trkpt lat="44.9028709" lon="5.3761214">
<ele>1049.96</ele>
<time>2019-07-25T11:50:28Z</time>
</trkpt>
<trkpt lat="44.9028495" lon="5.3760858">
<ele>1049.97</ele>
<time>2019-07-25T11:50:29Z</time>
</trkpt>
<trkpt lat="44.9028260" lon="5.3760517">
<ele>1049.98</ele>
<time>2019-07-25T11:50:30Z</time>
</trkpt>
<trkpt lat="44.9028036" lon="5.3760181">
<ele>1049.98</ele>
<time>2019-07-25T11:50:31Z</time>
</trkpt>
<trkpt lat="44.9027798" lon="5.3759853">
<ele>1049.99</ele>
<time>2019-07-25T11:50:32Z</time>
</trkpt>
<trkpt lat="44.9027539" lon="5.3759535">
<ele>1049.99</ele>
<time>2019-07-25T11:50:33Z</time>
</trkpt>
<trkpt lat="44.9027257" lon="5.3759213">
<ele>1050.00</ele>
<time>2019-07-25T11:50:34Z</time>
</trkpt>
<trkpt lat="44.9026971" lon="5.3758889">
<ele>1050.01</ele>
<time>2019-07-25T11:50:35Z</time>
</trkpt>
<trkpt lat="44.9026639" lon="5.3758565">
<ele>1050.01</ele>
<time>2019-07-25T11:50:36Z</time>
</trkpt>
<trkpt lat="44.9026308" lon="5.3758333">
<ele>1050.02</ele>
<time>2019-07-25T11:50:37Z</time>
</trkpt>
<trkpt lat="44.9026009" lon="5.3758079">
<ele>1050.02</ele>
<time>2019-07-25T11:50:38Z</time>
</trkpt>
<trkpt lat="44.9025720" lon="5.3757821">
<ele>1050.03</ele>
<time>2019-07-25T11:50:39Z</time>
</trkpt>
<trkpt lat="44.9025364" lon="5.3757582">
<ele>1050.04</ele>
<time>2019-07-25T11:50:40Z</time>
</trkpt>
<trkpt lat="44.9025059" lon="5.3757409">
<ele>1050.05</ele>
<time>2019-07-25T11:50:41Z</time>
</trkpt>
<trkpt lat="44.9024760" lon="5.3757226">
<ele>1050.05</ele>
<time>2019-07-25T11:50:42Z</time>
</trkpt>
<trkpt lat="44.9024467" lon="5.3756958">
<ele>1050.07</ele>
<time>2019-07-25T11:50:43Z</time>
</trkpt>
<trkpt lat="44.9024164" lon="5.3756690">
<ele>1050.08</ele>
<time>2019-07-25T11:50:44Z</time>
</trkpt>
<trkpt lat="44.9023884" lon="5.3756469">
<ele>1050.09</ele>
<time>2019-07-25T11:50:45Z</time>
</trkpt>
<trkpt lat="44.9023593" lon="5.3756231">
<ele>1050.10</ele>
<time>2019-07-25T11:50:46Z</time>
</trkpt>
<trkpt lat="44.9023258" lon="5.3755944">
<ele>1050.11</ele>
<time>2019-07-25T11:50:47Z</time>
</trkpt>
<trkpt lat="44.9022917" lon="5.3755708">
<ele>1050.12</ele>
<time>2019-07-25T11:50:48Z</time>
</trkpt>
<trkpt lat="44.9022532" lon="5.3755607">
<ele>1050.13</ele>
<time>2019-07-25T11:50:49Z</time>
</trkpt>
<trkpt lat="44.9022150" lon="5.3755557">
<ele>1050.13</ele>
<time>2019-07-25T11:50:50Z</time>
</trkpt>
<trkpt lat="44.9021830" lon="5.3755434">
<ele>1050.13</ele>
<time>2019-07-25T11:50:51Z</time>
</trkpt>
<trkpt lat="44.9021584" lon="5.3755212">
<ele>1050.14</ele>
<time>2019-07-25T11:50:52Z</time>
</trkpt>
<trkpt lat="44.9021325" lon="5.3754872">
<ele>1050.15</ele>
<time>2019-07-25T11:50:53Z</time>
</trkpt>
<trkpt lat="44.9021009" lon="5.3754750">
<ele>1050.16</ele>
<time>2019-07-25T11:50:54Z</time>
</trkpt>
<trkpt lat="44.9020716" lon="5.3754564">
<ele>1050.17</ele>
<time>2019-07-25T11:50:55Z</time>
</trkpt>
<trkpt lat="44.9020433" lon="5.3754289">
<ele>1050.17</ele>
<time>2019-07-25T11:50:56Z</time>
</trkpt>
<trkpt lat="44.9020153" lon="5.3753919">
<ele>1050.18</ele>
<time>2019-07-25T11:50:57Z</time>
</trkpt>
<trkpt lat="44.9019888" lon="5.3753572">
<ele>1050.19</ele>
<time>2019-07-25T11:50:58Z</time>
</trkpt>
<trkpt lat="44.9019635" lon="5.3753204">
<ele>1050.19</ele>
<time>2019-07-25T11:50:59Z</time>
</trkpt>
<trkpt lat="44.9019362" lon="5.3752788">
<ele>1050.27</ele>
<time>2019-07-25T11:51:00Z</time>
</trkpt>
<trkpt lat="44.9019052" lon="5.3752406">
<ele>1050.36</ele>
<time>2019-07-25T11:51:01Z</time>
</trkpt>
<trkpt lat="44.9018735" lon="5.3752062">
<ele>1050.36</ele>
<time>2019-07-25T11:51:02Z</time>
</trkpt>
<trkpt lat="44.9018409" lon="5.3751794">
<ele>1050.37</ele>
<time>2019-07-25T11:51:03Z</time>
</trkpt>
<trkpt lat="44.9018088" lon="5.3751568">
<ele>1050.37</ele>
<time>2019-07-25T11:51:04Z</time>
</trkpt>
<trkpt lat="44.9017794" lon="5.3751335">
<ele>1050.38</ele>
<time>2019-07-25T11:51:05Z</time>
</trkpt>
<trkpt lat="44.9017506" lon="5.3751116">
<ele>1050.39</ele>
<time>2019-07-25T11:51:06Z</time>
</trkpt>
<trkpt lat="44.9017253" lon="5.3750779">
<ele>1050.40</ele>
<time>2019-07-25T11:51:07Z</time>
</trkpt>
<trkpt lat="44.9016974" lon="5.3750485">
<ele>1050.40</ele>
<time>2019-07-25T11:51:08Z</time>
</trkpt>
<trkpt lat="44.9016676" lon="5.3750188">
<ele>1050.41</ele>
<time>2019-07-25T11:51:09Z</time>
</trkpt>
<trkpt lat="44.9016385" lon="5.3749974">
<ele>1050.41</ele>
<time>2019-07-25T11:51:10Z</time>
</trkpt>
<trkpt lat="44.9016076" lon="5.3749783">
<ele>1050.36</ele>
<time>2019-07-25T11:51:11Z</time>
</trkpt>
<trkpt lat="44.9015686" lon="5.3749606">
<ele>1050.29</ele>
<time>2019-07-25T11:51:12Z</time>
</trkpt>
<trkpt lat="44.9015266" lon="5.3749551">
<ele>1050.26</ele>
<time>2019-07-25T11:51:13Z</time>
</trkpt>
<trkpt lat="44.9014777" lon="5.3749554">
<ele>1050.15</ele>
<time>2019-07-25T11:51:14Z</time>
</trkpt>
<trkpt lat="44.9014199" lon="5.3749635">
<ele>1049.87</ele>
<time>2019-07-25T11:51:15Z</time>
</trkpt>
<trkpt lat="44.9013579" lon="5.3749738">
<ele>1049.57</ele>
<time>2019-07-25T11:51:16Z</time>
</trkpt>
<trkpt lat="44.9012951" lon="5.3749815">
<ele>1049.33</ele>
<time>2019-07-25T11:51:17Z</time>
</trkpt>
<trkpt lat="44.9012263" lon="5.3749897">
<ele>1049.14</ele>
<time>2019-07-25T11:51:18Z</time>
</trkpt>
<trkpt lat="44.9011622" lon="5.3749979">
<ele>1048.98</ele>
<time>2019-07-25T11:51:19Z</time>
</trkpt>
<trkpt lat="44.9011024" lon="5.3749990">
<ele>1048.84</ele>
<time>2019-07-25T11:51:20Z</time>
</trkpt>
<trkpt lat="44.9010494" lon="5.3749942">
<ele>1048.69</ele>
<time>2019-07-25T11:51:21Z</time>
</trkpt>
<trkpt lat="44.9010001" lon="5.3749728">
<ele>1048.40</ele>
<time>2019-07-25T11:51:22Z</time>
</trkpt>
<trkpt lat="44.9009493" lon="5.3749497">
<ele>1048.02</ele>
<time>2019-07-25T11:51:23Z</time>
</trkpt>
<trkpt lat="44.9008954" lon="5.3749248">
<ele>1047.74</ele>
<time>2019-07-25T11:51:24Z</time>
</trkpt>
<trkpt lat="44.9008412" lon="5.3748953">
<ele>1047.53</ele>
<time>2019-07-25T11:51:25Z</time>
</trkpt>
<trkpt lat="44.9007889" lon="5.3748650">
<ele>1047.37</ele>
<time>2019-07-25T11:51:26Z</time>
</trkpt>
<trkpt lat="44.9007349" lon="5.3748421">
<ele>1047.26</ele>
<time>2019-07-25T11:51:27Z</time>
</trkpt>
<trkpt lat="44.9006822" lon="5.3748272">
<ele>1047.18</ele>
<time>2019-07-25T11:51:28Z</time>
</trkpt>
<trkpt lat="44.9006285" lon="5.3748175">
<ele>1047.09</ele>
<time>2019-07-25T11:51:29Z</time>
</trkpt>
<trkpt lat="44.9005718" lon="5.3748137">
<ele>1047.06</ele>
<time>2019-07-25T11:51:30Z</time>
</trkpt>
<trkpt lat="44.9005161" lon="5.3748148">
<ele>1047.07</ele>
<time>2019-07-25T11:51:31Z</time>
</trkpt>
<trkpt lat="44.9004615" lon="5.3748169">
<ele>1047.08</ele>
<time>2019-07-25T11:51:32Z</time>
</trkpt>
<trkpt lat="44.9004066" lon="5.3748137">
<ele>1047.06</ele>
<time>2019-07-25T11:51:33Z</time>
</trkpt>
<trkpt lat="44.9003478" lon="5.3748034">
<ele>1047.10</ele>
<time>2019-07-25T11:51:34Z</time>
</trkpt>
<trkpt lat="44.9002944" lon="5.3747812">
<ele>1047.14</ele>
<time>2019-07-25T11:51:35Z</time>
</trkpt>
<trkpt lat="44.9002476" lon="5.3747464">
<ele>1047.17</ele>
<time>2019-07-25T11:51:36Z</time>
</trkpt>
<trkpt lat="44.9002051" lon="5.3747041">
<ele>1047.19</ele>
<time>2019-07-25T11:51:37Z</time>
</trkpt>
<trkpt lat="44.9001644" lon="5.3746640">
<ele>1047.18</ele>
<time>2019-07-25T11:51:38Z</time>
</trkpt>
<trkpt lat="44.9001274" lon="5.3746149">
<ele>1047.15</ele>
<time>2019-07-25T11:51:39Z</time>
</trkpt>
<trkpt lat="44.9000920" lon="5.3745654">
<ele>1047.13</ele>
<time>2019-07-25T11:51:40Z</time>
</trkpt>
<trkpt lat="44.9000575" lon="5.3745165">
<ele>1047.10</ele>
<time>2019-07-25T11:51:41Z</time>
</trkpt>
<trkpt lat="44.9000248" lon="5.3744717">
<ele>1047.05</ele>
<time>2019-07-25T11:51:42Z</time>
</trkpt>
<trkpt lat="44.8999916" lon="5.3744271">
<ele>1046.98</ele>
<time>2019-07-25T11:51:43Z</time>
</trkpt>
<trkpt lat="44.8999573" lon="5.3743868">
<ele>1046.92</ele>
<time>2019-07-25T11:51:44Z</time>
</trkpt>
<trkpt lat="44.8999229" lon="5.3743443">
<ele>1046.82</ele>
<time>2019-07-25T11:51:45Z</time>
</trkpt>
<trkpt lat="44.8998866" lon="5.3743000">
<ele>1046.70</ele>
<time>2019-07-25T11:51:46Z</time>
</trkpt>
<trkpt lat="44.8998478" lon="5.3742592">
<ele>1046.58</ele>
<time>2019-07-25T11:51:47Z</time>
</trkpt>
<trkpt lat="44.8998084" lon="5.3742200">
<ele>1046.46</ele>
<time>2019-07-25T11:51:48Z</time>
</trkpt>
<trkpt lat="44.8997681" lon="5.3741839">
<ele>1046.35</ele>
<time>2019-07-25T11:51:49Z</time>
</trkpt>
<trkpt lat="44.8997264" lon="5.3741507">
<ele>1046.23</ele>
<time>2019-07-25T11:51:50Z</time>
</trkpt>
<trkpt lat="44.8996843" lon="5.3741186">
<ele>1046.05</ele>
<time>2019-07-25T11:51:51Z</time>
</trkpt>
<trkpt lat="44.8996423" lon="5.3740851">
<ele>1045.87</ele>
<time>2019-07-25T11:51:52Z</time>
</trkpt>
<trkpt lat="44.8996012" lon="5.3740496">
<ele>1045.69</ele>
<time>2019-07-25T11:51:53Z</time>
</trkpt>
<trkpt lat="44.8995621" lon="5.3740134">
<ele>1045.54</ele>
<time>2019-07-25T11:51:54Z</time>
</trkpt>
<trkpt lat="44.8995218" lon="5.3739829">
<ele>1045.39</ele>
<time>2019-07-25T11:51:55Z</time>
</trkpt>
<trkpt lat="44.8994847" lon="5.3739527">
<ele>1045.27</ele>
<time>2019-07-25T11:51:56Z</time>
</trkpt>
<trkpt lat="44.8994516" lon="5.3739279">
<ele>1045.27</ele>
<time>2019-07-25T11:51:57Z</time>
</trkpt>
<trkpt lat="44.8994253" lon="5.3739091">
<ele>1045.26</ele>
<time>2019-07-25T11:51:58Z</time>
</trkpt>
<trkpt lat="44.8994052" lon="5.3738897">
<ele>1045.25</ele>
<time>2019-07-25T11:51:59Z</time>
</trkpt>
<trkpt lat="44.8993901" lon="5.3738750">
<ele>1045.24</ele>
<time>2019-07-25T11:52:00Z</time>
</trkpt>
<trkpt lat="44.8993862" lon="5.3738765">
<ele>1045.24</ele>
<time>2019-07-25T11:52:01Z</time>
</trkpt>
<trkpt lat="44.8993912" lon="5.3738782">
<ele>1045.23</ele>
<time>2019-07-25T11:52:02Z</time>
</trkpt>
<trkpt lat="44.8993938" lon="5.3738786">
<ele>1045.23</ele>
<time>2019-07-25T11:52:03Z</time>
</trkpt>
<trkpt lat="44.8993949" lon="5.3738792">
<ele>1045.23</ele>
<time>2019-07-25T11:52:04Z</time>
</trkpt>
<trkpt lat="44.8994037" lon="5.3738772">
<ele>1045.23</ele>
<time>2019-07-25T11:52:05Z</time>
</trkpt>
<trkpt lat="44.8994034" lon="5.3738773">
<ele>1045.23</ele>
<time>2019-07-25T11:52:06Z</time>
</trkpt>
<trkpt lat="44.8994032" lon="5.3738772">
<ele>1045.23</ele>
<time>2019-07-25T11:52:07Z</time>
</trkpt>
<trkpt lat="44.8994028" lon="5.3738771">
<ele>1045.23</ele>
<time>2019-07-25T11:52:08Z</time>
</trkpt>
<trkpt lat="44.8994026" lon="5.3738773">
<ele>1045.23</ele>
<time>2019-07-25T11:52:09Z</time>
</trkpt>
<trkpt lat="44.8994024" lon="5.3738774">
<ele>1045.23</ele>
<time>2019-07-25T11:52:10Z</time>
</trkpt>
<trkpt lat="44.8993992" lon="5.3738730">
<ele>1045.23</ele>
<time>2019-07-25T11:52:11Z</time>
</trkpt>
<trkpt lat="44.8993925" lon="5.3738690">
<ele>1045.24</ele>
<time>2019-07-25T11:52:12Z</time>
</trkpt>
<trkpt lat="44.8993922" lon="5.3738642">
<ele>1045.24</ele>
<time>2019-07-25T11:52:13Z</time>
</trkpt>
<trkpt lat="44.8993928" lon="5.3738650">
<ele>1045.24</ele>
<time>2019-07-25T11:52:14Z</time>
</trkpt>
<trkpt lat="44.8993932" lon="5.3738655">
<ele>1045.24</ele>
<time>2019-07-25T11:52:15Z</time>
</trkpt>
<trkpt lat="44.8993934" lon="5.3738658">
<ele>1045.24</ele>
<time>2019-07-25T11:52:16Z</time>
</trkpt>
<trkpt lat="44.8993935" lon="5.3738656">
<ele>1045.24</ele>
<time>2019-07-25T11:52:17Z</time>
</trkpt>
<trkpt lat="44.8993935" lon="5.3738660">
<ele>1045.24</ele>
<time>2019-07-25T11:52:18Z</time>
</trkpt>
<trkpt lat="44.8993937" lon="5.3738652">
<ele>1045.24</ele>
<time>2019-07-25T11:52:19Z</time>
</trkpt>
<trkpt lat="44.8993938" lon="5.3738655">
<ele>1045.24</ele>
<time>2019-07-25T11:52:20Z</time>
</trkpt>
<trkpt lat="44.8993935" lon="5.3738669">
<ele>1045.24</ele>
<time>2019-07-25T11:52:21Z</time>
</trkpt>
<trkpt lat="44.8993934" lon="5.3738662">
<ele>1045.24</ele>
<time>2019-07-25T11:52:22Z</time>
</trkpt>
<trkpt lat="44.8993935" lon="5.3738658">
<ele>1045.24</ele>
<time>2019-07-25T11:52:23Z</time>
</trkpt>
<trkpt lat="44.8993936" lon="5.3738661">
<ele>1045.24</ele>
<time>2019-07-25T11:52:24Z</time>
</trkpt>
<trkpt lat="44.8993936" lon="5.3738667">
<ele>1045.24</ele>
<time>2019-07-25T11:52:25Z</time>
</trkpt>
<trkpt lat="44.8993936" lon="5.3738668">
<ele>1045.24</ele>
<time>2019-07-25T11:52:26Z</time>
</trkpt>
<trkpt lat="44.8993931" lon="5.3738664">
<ele>1045.24</ele>
<time>2019-07-25T11:52:27Z</time>
</trkpt>
<trkpt lat="44.8993834" lon="5.3738639">
<ele>1045.23</ele>
<time>2019-07-25T11:52:28Z</time>
</trkpt>
<trkpt lat="44.8993735" lon="5.3738625">
<ele>1045.22</ele>
<time>2019-07-25T11:52:29Z</time>
</trkpt>
<trkpt lat="44.8993622" lon="5.3738498">
<ele>1045.21</ele>
<time>2019-07-25T11:52:30Z</time>
</trkpt>
<trkpt lat="44.8993532" lon="5.3738267">
<ele>1045.20</ele>
<time>2019-07-25T11:52:31Z</time>
</trkpt>
<trkpt lat="44.8993382" lon="5.3738039">
<ele>1045.19</ele>
<time>2019-07-25T11:52:32Z</time>
</trkpt>
<trkpt lat="44.8993195" lon="5.3737825">
<ele>1045.18</ele>
<time>2019-07-25T11:52:33Z</time>
</trkpt>
<trkpt lat="44.8993004" lon="5.3737643">
<ele>1045.18</ele>
<time>2019-07-25T11:52:34Z</time>
</trkpt>
<trkpt lat="44.8992833" lon="5.3737404">
<ele>1045.17</ele>
<time>2019-07-25T11:52:35Z</time>
</trkpt>
<trkpt lat="44.8992617" lon="5.3737164">
<ele>1045.17</ele>
<time>2019-07-25T11:52:36Z</time>
</trkpt>
<trkpt lat="44.8992361" lon="5.3736893">
<ele>1045.17</ele>
<time>2019-07-25T11:52:37Z</time>
</trkpt>
<trkpt lat="44.8992118" lon="5.3736561">
<ele>1045.16</ele>
<time>2019-07-25T11:52:38Z</time>
</trkpt>
<trkpt lat="44.8991870" lon="5.3736203">
<ele>1045.16</ele>
<time>2019-07-25T11:52:39Z</time>
</trkpt>
<trkpt lat="44.8991638" lon="5.3735883">
<ele>1045.15</ele>
<time>2019-07-25T11:52:40Z</time>
</trkpt>
<trkpt lat="44.8991412" lon="5.3735515">
<ele>1045.14</ele>
<time>2019-07-25T11:52:41Z</time>
</trkpt>
<trkpt lat="44.8991216" lon="5.3735140">
<ele>1045.13</ele>
<time>2019-07-25T11:52:42Z</time>
</trkpt>
<trkpt lat="44.8991048" lon="5.3734682">
<ele>1045.06</ele>
<time>2019-07-25T11:52:43Z</time>
</trkpt>
<trkpt lat="44.8990845" lon="5.3734157">
<ele>1045.00</ele>
<time>2019-07-25T11:52:44Z</time>
</trkpt>
<trkpt lat="44.8990610" lon="5.3733628">
<ele>1044.94</ele>
<time>2019-07-25T11:52:45Z</time>
</trkpt>
<trkpt lat="44.8990376" lon="5.3733076">
<ele>1044.88</ele>
<time>2019-07-25T11:52:46Z</time>
</trkpt>
<trkpt lat="44.8990137" lon="5.3732566">
<ele>1044.83</ele>
<time>2019-07-25T11:52:47Z</time>
</trkpt>
<trkpt lat="44.8989907" lon="5.3732032">
<ele>1044.77</ele>
<time>2019-07-25T11:52:48Z</time>
</trkpt>
<trkpt lat="44.8989669" lon="5.3731501">
<ele>1044.71</ele>
<time>2019-07-25T11:52:49Z</time>
</trkpt>
<trkpt lat="44.8989426" lon="5.3730855">
<ele>1044.65</ele>
<time>2019-07-25T11:52:50Z</time>
</trkpt>
<trkpt lat="44.8989207" lon="5.3730148">
<ele>1044.62</ele>
<time>2019-07-25T11:52:51Z</time>
</trkpt>
<trkpt lat="44.8989008" lon="5.3729518">
<ele>1044.59</ele>
<time>2019-07-25T11:52:52Z</time>
</trkpt>
<trkpt lat="44.8988814" lon="5.3728942">
<ele>1044.56</ele>
<time>2019-07-25T11:52:53Z</time>
</trkpt>
<trkpt lat="44.8988617" lon="5.3728465">
<ele>1044.52</ele>
<time>2019-07-25T11:52:54Z</time>
</trkpt>
<trkpt lat="44.8988425" lon="5.3727879">
<ele>1044.48</ele>
<time>2019-07-25T11:52:55Z</time>
</trkpt>
<trkpt lat="44.8988218" lon="5.3727263">
<ele>1044.45</ele>
<time>2019-07-25T11:52:56Z</time>
</trkpt>
<trkpt lat="44.8987996" lon="5.3726648">
<ele>1044.44</ele>
<time>2019-07-25T11:52:57Z</time>
</trkpt>
<trkpt lat="44.8987779" lon="5.3726034">
<ele>1044.44</ele>
<time>2019-07-25T11:52:58Z</time>
</trkpt>
<trkpt lat="44.8987582" lon="5.3725373">
<ele>1044.45</ele>
<time>2019-07-25T11:52:59Z</time>
</trkpt>
<trkpt lat="44.8987399" lon="5.3724809">
<ele>1044.46</ele>
<time>2019-07-25T11:53:00Z</time>
</trkpt>
<trkpt lat="44.8987174" lon="5.3724213">
<ele>1044.46</ele>
<time>2019-07-25T11:53:01Z</time>
</trkpt>
<trkpt lat="44.8986970" lon="5.3723628">
<ele>1044.45</ele>
<time>2019-07-25T11:53:02Z</time>
</trkpt>
<trkpt lat="44.8986725" lon="5.3722911">
<ele>1044.43</ele>
<time>2019-07-25T11:53:03Z</time>
</trkpt>
<trkpt lat="44.8986403" lon="5.3722252">
<ele>1044.43</ele>
<time>2019-07-25T11:53:04Z</time>
</trkpt>
<trkpt lat="44.8986059" lon="5.3721574">
<ele>1044.43</ele>
<time>2019-07-25T11:53:05Z</time>
</trkpt>
<trkpt lat="44.8985728" lon="5.3720894">
<ele>1044.45</ele>
<time>2019-07-25T11:53:06Z</time>
</trkpt>
<trkpt lat="44.8985432" lon="5.3720264">
<ele>1044.47</ele>
<time>2019-07-25T11:53:07Z</time>
</trkpt>
<trkpt lat="44.8985134" lon="5.3719492">
<ele>1044.47</ele>
<time>2019-07-25T11:53:08Z</time>
</trkpt>
<trkpt lat="44.8984782" lon="5.3718878">
<ele>1044.47</ele>
<time>2019-07-25T11:53:09Z</time>
</trkpt>
<trkpt lat="44.8984388" lon="5.3718439">
<ele>1044.45</ele>
<time>2019-07-25T11:53:10Z</time>
</trkpt>
<trkpt lat="44.8984134" lon="5.3717853">
<ele>1044.44</ele>
<time>2019-07-25T11:53:11Z</time>
</trkpt>
<trkpt lat="44.8983859" lon="5.3717224">
<ele>1044.44</ele>
<time>2019-07-25T11:53:12Z</time>
</trkpt>
<trkpt lat="44.8983572" lon="5.3716622">
<ele>1044.44</ele>
<time>2019-07-25T11:53:13Z</time>
</trkpt>
<trkpt lat="44.8983279" lon="5.3716069">
<ele>1044.42</ele>
<time>2019-07-25T11:53:14Z</time>
</trkpt>
<trkpt lat="44.8982982" lon="5.3715483">
<ele>1044.41</ele>
<time>2019-07-25T11:53:15Z</time>
</trkpt>
<trkpt lat="44.8982735" lon="5.3714930">
<ele>1044.44</ele>
<time>2019-07-25T11:53:16Z</time>
</trkpt>
<trkpt lat="44.8982461" lon="5.3714431">
<ele>1044.48</ele>
<time>2019-07-25T11:53:17Z</time>
</trkpt>
<trkpt lat="44.8982152" lon="5.3713895">
<ele>1044.53</ele>
<time>2019-07-25T11:53:18Z</time>
</trkpt>
<trkpt lat="44.8981814" lon="5.3713285">
<ele>1044.58</ele>
<time>2019-07-25T11:53:19Z</time>
</trkpt>
<trkpt lat="44.8981516" lon="5.3712755">
<ele>1044.61</ele>
<time>2019-07-25T11:53:20Z</time>
</trkpt>
<trkpt lat="44.8981263" lon="5.3712267">
<ele>1044.65</ele>
<time>2019-07-25T11:53:21Z</time>
</trkpt>
<trkpt lat="44.8981022" lon="5.3711761">
<ele>1044.64</ele>
<time>2019-07-25T11:53:22Z</time>
</trkpt>
<trkpt lat="44.8980715" lon="5.3711067">
<ele>1044.63</ele>
<time>2019-07-25T11:53:23Z</time>
</trkpt>
<trkpt lat="44.8980435" lon="5.3710263">
<ele>1044.58</ele>
<time>2019-07-25T11:53:24Z</time>
</trkpt>
<trkpt lat="44.8980185" lon="5.3709539">
<ele>1044.58</ele>
<time>2019-07-25T11:53:25Z</time>
</trkpt>
<trkpt lat="44.8979948" lon="5.3708915">
<ele>1044.59</ele>
<time>2019-07-25T11:53:26Z</time>
</trkpt>
<trkpt lat="44.8979687" lon="5.3708314">
<ele>1044.60</ele>
<time>2019-07-25T11:53:27Z</time>
</trkpt>
<trkpt lat="44.8979375" lon="5.3707733">
<ele>1044.61</ele>
<time>2019-07-25T11:53:28Z</time>
</trkpt>
<trkpt lat="44.8979052" lon="5.3707169">
<ele>1044.60</ele>
<time>2019-07-25T11:53:29Z</time>
</trkpt>
<trkpt lat="44.8978722" lon="5.3706694">
<ele>1044.56</ele>
<time>2019-07-25T11:53:30Z</time>
</trkpt>
<trkpt lat="44.8978374" lon="5.3706226">
<ele>1044.52</ele>
<time>2019-07-25T11:53:31Z</time>
</trkpt>
<trkpt lat="44.8978020" lon="5.3705846">
<ele>1044.48</ele>
<time>2019-07-25T11:53:32Z</time>
</trkpt>
<trkpt lat="44.8977645" lon="5.3705472">
<ele>1044.45</ele>
<time>2019-07-25T11:53:33Z</time>
</trkpt>
<trkpt lat="44.8977255" lon="5.3705081">
<ele>1044.41</ele>
<time>2019-07-25T11:53:34Z</time>
</trkpt>
<trkpt lat="44.8976875" lon="5.3704694">
<ele>1044.38</ele>
<time>2019-07-25T11:53:35Z</time>
</trkpt>
<trkpt lat="44.8976490" lon="5.3704354">
<ele>1044.35</ele>
<time>2019-07-25T11:53:36Z</time>
</trkpt>
<trkpt lat="44.8976104" lon="5.3703948">
<ele>1044.32</ele>
<time>2019-07-25T11:53:37Z</time>
</trkpt>
<trkpt lat="44.8975698" lon="5.3703558">
<ele>1044.33</ele>
<time>2019-07-25T11:53:38Z</time>
</trkpt>
<trkpt lat="44.8975313" lon="5.3703139">
<ele>1044.37</ele>
<time>2019-07-25T11:53:39Z</time>
</trkpt>
<trkpt lat="44.8974923" lon="5.3702683">
<ele>1044.40</ele>
<time>2019-07-25T11:53:40Z</time>
</trkpt>
<trkpt lat="44.8974593" lon="5.3702095">
<ele>1044.41</ele>
<time>2019-07-25T11:53:41Z</time>
</trkpt>
<trkpt lat="44.8974331" lon="5.3701553">
<ele>1044.38</ele>
<time>2019-07-25T11:53:42Z</time>
</trkpt>
<trkpt lat="44.8974098" lon="5.3701032">
<ele>1044.33</ele>
<time>2019-07-25T11:53:43Z</time>
</trkpt>
<trkpt lat="44.8973982" lon="5.3700586">
<ele>1044.24</ele>
<time>2019-07-25T11:53:44Z</time>
</trkpt>
<trkpt lat="44.8973935" lon="5.3700098">
<ele>1044.10</ele>
<time>2019-07-25T11:53:45Z</time>
</trkpt>
<trkpt lat="44.8973902" lon="5.3699602">
<ele>1043.99</ele>
<time>2019-07-25T11:53:46Z</time>
</trkpt>
<trkpt lat="44.8973916" lon="5.3699077">
<ele>1043.90</ele>
<time>2019-07-25T11:53:47Z</time>
</trkpt>
<trkpt lat="44.8973904" lon="5.3698589">
<ele>1043.82</ele>
<time>2019-07-25T11:53:48Z</time>
</trkpt>
<trkpt lat="44.8973875" lon="5.3698047">
<ele>1043.72</ele>
<time>2019-07-25T11:53:49Z</time>
</trkpt>
<trkpt lat="44.8973834" lon="5.3697558">
<ele>1043.61</ele>
<time>2019-07-25T11:53:50Z</time>
</trkpt>
<trkpt lat="44.8973774" lon="5.3697068">
<ele>1043.60</ele>
<time>2019-07-25T11:53:51Z</time>
</trkpt>
<trkpt lat="44.8973658" lon="5.3696551">
<ele>1043.59</ele>
<time>2019-07-25T11:53:52Z</time>
</trkpt>
<trkpt lat="44.8973501" lon="5.3696193">
<ele>1043.58</ele>
<time>2019-07-25T11:53:53Z</time>
</trkpt>
<trkpt lat="44.8973352" lon="5.3695786">
<ele>1043.56</ele>
<time>2019-07-25T11:53:54Z</time>
</trkpt>
<trkpt lat="44.8973197" lon="5.3695385">
<ele>1043.55</ele>
<time>2019-07-25T11:53:55Z</time>
</trkpt>
<trkpt lat="44.8972950" lon="5.3695028">
<ele>1043.53</ele>
<time>2019-07-25T11:53:56Z</time>
</trkpt>
<trkpt lat="44.8972672" lon="5.3694656">
<ele>1043.52</ele>
<time>2019-07-25T11:53:57Z</time>
</trkpt>
<trkpt lat="44.8972405" lon="5.3694252">
<ele>1043.51</ele>
<time>2019-07-25T11:53:58Z</time>
</trkpt>
<trkpt lat="44.8972145" lon="5.3693935">
<ele>1043.49</ele>
<time>2019-07-25T11:53:59Z</time>
</trkpt>
<trkpt lat="44.8971898" lon="5.3693650">
<ele>1043.48</ele>
<time>2019-07-25T11:54:00Z</time>
</trkpt>
<trkpt lat="44.8971657" lon="5.3693381">
<ele>1043.46</ele>
<time>2019-07-25T11:54:01Z</time>
</trkpt>
<trkpt lat="44.8971414" lon="5.3693134">
<ele>1043.44</ele>
<time>2019-07-25T11:54:02Z</time>
</trkpt>
<trkpt lat="44.8971165" lon="5.3692912">
<ele>1043.42</ele>
<time>2019-07-25T11:54:03Z</time>
</trkpt>
<trkpt lat="44.8970933" lon="5.3692692">
<ele>1043.39</ele>
<time>2019-07-25T11:54:04Z</time>
</trkpt>
<trkpt lat="44.8970690" lon="5.3692487">
<ele>1043.36</ele>
<time>2019-07-25T11:54:05Z</time>
</trkpt>
<trkpt lat="44.8970422" lon="5.3692316">
<ele>1043.34</ele>
<time>2019-07-25T11:54:06Z</time>
</trkpt>
<trkpt lat="44.8970175" lon="5.3692092">
<ele>1043.31</ele>
<time>2019-07-25T11:54:07Z</time>
</trkpt>
<trkpt lat="44.8969910" lon="5.3691924">
<ele>1043.29</ele>
<time>2019-07-25T11:54:08Z</time>
</trkpt>
<trkpt lat="44.8969634" lon="5.3691819">
<ele>1043.26</ele>
<time>2019-07-25T11:54:09Z</time>
</trkpt>
<trkpt lat="44.8969377" lon="5.3691670">
<ele>1043.24</ele>
<time>2019-07-25T11:54:10Z</time>
</trkpt>
<trkpt lat="44.8969110" lon="5.3691461">
<ele>1043.22</ele>
<time>2019-07-25T11:54:11Z</time>
</trkpt>
<trkpt lat="44.8968856" lon="5.3691337">
<ele>1043.21</ele>
<time>2019-07-25T11:54:12Z</time>
</trkpt>
<trkpt lat="44.8968561" lon="5.3691338">
<ele>1043.19</ele>
<time>2019-07-25T11:54:13Z</time>
</trkpt>
<trkpt lat="44.8968249" lon="5.3691358">
<ele>1043.18</ele>
<time>2019-07-25T11:54:14Z</time>
</trkpt>
<trkpt lat="44.8967952" lon="5.3691391">
<ele>1043.17</ele>
<time>2019-07-25T11:54:15Z</time>
</trkpt>
<trkpt lat="44.8967635" lon="5.3691441">
<ele>1043.16</ele>
<time>2019-07-25T11:54:16Z</time>
</trkpt>
<trkpt lat="44.8967329" lon="5.3691551">
<ele>1043.15</ele>
<time>2019-07-25T11:54:17Z</time>
</trkpt>
<trkpt lat="44.8967050" lon="5.3691674">
<ele>1043.13</ele>
<time>2019-07-25T11:54:18Z</time>
</trkpt>
<trkpt lat="44.8966780" lon="5.3691763">
<ele>1043.12</ele>
<time>2019-07-25T11:54:19Z</time>
</trkpt>
<trkpt lat="44.8966461" lon="5.3691900">
<ele>1042.97</ele>
<time>2019-07-25T11:54:20Z</time>
</trkpt>
<trkpt lat="44.8966107" lon="5.3692048">
<ele>1042.96</ele>
<time>2019-07-25T11:54:21Z</time>
</trkpt>
<trkpt lat="44.8965778" lon="5.3692237">
<ele>1042.94</ele>
<time>2019-07-25T11:54:22Z</time>
</trkpt>
<trkpt lat="44.8965433" lon="5.3692445">
<ele>1042.93</ele>
<time>2019-07-25T11:54:23Z</time>
</trkpt>
<trkpt lat="44.8965111" lon="5.3692693">
<ele>1042.91</ele>
<time>2019-07-25T11:54:24Z</time>
</trkpt>
<trkpt lat="44.8964804" lon="5.3692935">
<ele>1042.89</ele>
<time>2019-07-25T11:54:25Z</time>
</trkpt>
<trkpt lat="44.8964519" lon="5.3693282">
<ele>1042.87</ele>
<time>2019-07-25T11:54:26Z</time>
</trkpt>
<trkpt lat="44.8964197" lon="5.3693717">
<ele>1042.85</ele>
<time>2019-07-25T11:54:27Z</time>
</trkpt>
<trkpt lat="44.8963934" lon="5.3694025">
<ele>1042.82</ele>
<time>2019-07-25T11:54:28Z</time>
</trkpt>
<trkpt lat="44.8963678" lon="5.3694483">
<ele>1042.80</ele>
<time>2019-07-25T11:54:29Z</time>
</trkpt>
<trkpt lat="44.8963413" lon="5.3695002">
<ele>1042.77</ele>
<time>2019-07-25T11:54:30Z</time>
</trkpt>
<trkpt lat="44.8963168" lon="5.3695455">
<ele>1042.75</ele>
<time>2019-07-25T11:54:31Z</time>
</trkpt>
<trkpt lat="44.8962957" lon="5.3695940">
<ele>1042.72</ele>
<time>2019-07-25T11:54:32Z</time>
</trkpt>
<trkpt lat="44.8962799" lon="5.3696436">
<ele>1042.69</ele>
<time>2019-07-25T11:54:33Z</time>
</trkpt>
<trkpt lat="44.8962624" lon="5.3696958">
<ele>1042.66</ele>
<time>2019-07-25T11:54:34Z</time>
</trkpt>
<trkpt lat="44.8962447" lon="5.3697371">
<ele>1042.64</ele>
<time>2019-07-25T11:54:35Z</time>
</trkpt>
<trkpt lat="44.8962276" lon="5.3697825">
<ele>1042.61</ele>
<time>2019-07-25T11:54:36Z</time>
</trkpt>
<trkpt lat="44.8962145" lon="5.3698243">
<ele>1042.58</ele>
<time>2019-07-25T11:54:37Z</time>
</trkpt>
<trkpt lat="44.8962085" lon="5.3698590">
<ele>1042.56</ele>
<time>2019-07-25T11:54:38Z</time>
</trkpt>
<trkpt lat="44.8962025" lon="5.3699027">
<ele>1042.54</ele>
<time>2019-07-25T11:54:39Z</time>
</trkpt>
<trkpt lat="44.8961923" lon="5.3699434">
<ele>1042.52</ele>
<time>2019-07-25T11:54:40Z</time>
</trkpt>
<trkpt lat="44.8961827" lon="5.3699779">
<ele>1042.50</ele>
<time>2019-07-25T11:54:41Z</time>
</trkpt>
<trkpt lat="44.8961788" lon="5.3700067">
<ele>1042.48</ele>
<time>2019-07-25T11:54:42Z</time>
</trkpt>
<trkpt lat="44.8961756" lon="5.3700277">
<ele>1042.46</ele>
<time>2019-07-25T11:54:43Z</time>
</trkpt>
<trkpt lat="44.8961718" lon="5.3700452">
<ele>1042.44</ele>
<time>2019-07-25T11:54:44Z</time>
</trkpt>
<trkpt lat="44.8961696" lon="5.3700676">
<ele>1042.43</ele>
<time>2019-07-25T11:54:45Z</time>
</trkpt>
<trkpt lat="44.8961653" lon="5.3700980">
<ele>1042.42</ele>
<time>2019-07-25T11:54:46Z</time>
</trkpt>
<trkpt lat="44.8961648" lon="5.3701276">
<ele>1042.40</ele>
<time>2019-07-25T11:54:47Z</time>
</trkpt>
<trkpt lat="44.8961612" lon="5.3701490">
<ele>1042.39</ele>
<time>2019-07-25T11:54:48Z</time>
</trkpt>
<trkpt lat="44.8961515" lon="5.3701642">
<ele>1042.38</ele>
<time>2019-07-25T11:54:49Z</time>
</trkpt>
<trkpt lat="44.8961348" lon="5.3701921">
<ele>1042.37</ele>
<time>2019-07-25T11:54:50Z</time>
</trkpt>
<trkpt lat="44.8961167" lon="5.3702159">
<ele>1042.36</ele>
<time>2019-07-25T11:54:51Z</time>
</trkpt>
<trkpt lat="44.8960997" lon="5.3702430">
<ele>1042.36</ele>
<time>2019-07-25T11:54:52Z</time>
</trkpt>
<trkpt lat="44.8960937" lon="5.3702633">
<ele>1042.35</ele>
<time>2019-07-25T11:54:53Z</time>
</trkpt>
<trkpt lat="44.8960868" lon="5.3702906">
<ele>1042.35</ele>
<time>2019-07-25T11:54:54Z</time>
</trkpt>
<trkpt lat="44.8960803" lon="5.3703256">
<ele>1042.34</ele>
<time>2019-07-25T11:54:55Z</time>
</trkpt>
<trkpt lat="44.8960644" lon="5.3703503">
<ele>1042.34</ele>
<time>2019-07-25T11:54:56Z</time>
</trkpt>
<trkpt lat="44.8960417" lon="5.3703750">
<ele>1042.33</ele>
<time>2019-07-25T11:54:57Z</time>
</trkpt>
<trkpt lat="44.8960260" lon="5.3703968">
<ele>1042.33</ele>
<time>2019-07-25T11:54:58Z</time>
</trkpt>
<trkpt lat="44.8960138" lon="5.3704190">
<ele>1042.33</ele>
<time>2019-07-25T11:54:59Z</time>
</trkpt>
<trkpt lat="44.8960038" lon="5.3704509">
<ele>1042.34</ele>
<time>2019-07-25T11:55:00Z</time>
</trkpt>
<trkpt lat="44.8959904" lon="5.3704722">
<ele>1042.35</ele>
<time>2019-07-25T11:55:01Z</time>
</trkpt>
<trkpt lat="44.8959759" lon="5.3704967">
<ele>1042.36</ele>
<time>2019-07-25T11:55:02Z</time>
</trkpt>
<trkpt lat="44.8959459" lon="5.3705084">
<ele>1042.37</ele>
<time>2019-07-25T11:55:03Z</time>
</trkpt>
<trkpt lat="44.8959301" lon="5.3705174">
<ele>1042.38</ele>
<time>2019-07-25T11:55:04Z</time>
</trkpt>
<trkpt lat="44.8959177" lon="5.3705250">
<ele>1042.39</ele>
<time>2019-07-25T11:55:05Z</time>
</trkpt>
<trkpt lat="44.8959172" lon="5.3705381">
<ele>1042.41</ele>
<time>2019-07-25T11:55:06Z</time>
</trkpt>
<trkpt lat="44.8959075" lon="5.3705618">
<ele>1042.43</ele>
<time>2019-07-25T11:55:07Z</time>
</trkpt>
<trkpt lat="44.8958914" lon="5.3705787">
<ele>1042.46</ele>
<time>2019-07-25T11:55:08Z</time>
</trkpt>
<trkpt lat="44.8958684" lon="5.3705839">
<ele>1042.50</ele>
<time>2019-07-25T11:55:09Z</time>
</trkpt>
<trkpt lat="44.8958416" lon="5.3705955">
<ele>1042.54</ele>
<time>2019-07-25T11:55:10Z</time>
</trkpt>
<trkpt lat="44.8958131" lon="5.3706046">
<ele>1042.58</ele>
<time>2019-07-25T11:55:11Z</time>
</trkpt>
<trkpt lat="44.8957804" lon="5.3706344">
<ele>1042.64</ele>
<time>2019-07-25T11:55:12Z</time>
</trkpt>
<trkpt lat="44.8957498" lon="5.3706349">
<ele>1042.69</ele>
<time>2019-07-25T11:55:13Z</time>
</trkpt>
<trkpt lat="44.8957227" lon="5.3706318">
<ele>1042.74</ele>
<time>2019-07-25T11:55:14Z</time>
</trkpt>
<trkpt lat="44.8956977" lon="5.3706266">
<ele>1042.80</ele>
<time>2019-07-25T11:55:15Z</time>
</trkpt>
<trkpt lat="44.8956716" lon="5.3706230">
<ele>1042.85</ele>
<time>2019-07-25T11:55:16Z</time>
</trkpt>
<trkpt lat="44.8956480" lon="5.3706240">
<ele>1042.91</ele>
<time>2019-07-25T11:55:17Z</time>
</trkpt>
<trkpt lat="44.8956267" lon="5.3706257">
<ele>1042.96</ele>
<time>2019-07-25T11:55:18Z</time>
</trkpt>
<trkpt lat="44.8956029" lon="5.3706265">
<ele>1043.01</ele>
<time>2019-07-25T11:55:19Z</time>
</trkpt>
<trkpt lat="44.8955780" lon="5.3706247">
<ele>1043.06</ele>
<time>2019-07-25T11:55:20Z</time>
</trkpt>
<trkpt lat="44.8955548" lon="5.3706165">
<ele>1043.11</ele>
<time>2019-07-25T11:55:21Z</time>
</trkpt>
<trkpt lat="44.8955372" lon="5.3706033">
<ele>1043.16</ele>
<time>2019-07-25T11:55:22Z</time>
</trkpt>
<trkpt lat="44.8955204" lon="5.3705837">
<ele>1043.21</ele>
<time>2019-07-25T11:55:23Z</time>
</trkpt>
<trkpt lat="44.8955042" lon="5.3705657">
<ele>1043.26</ele>
<time>2019-07-25T11:55:24Z</time>
</trkpt>
<trkpt lat="44.8954877" lon="5.3705495">
<ele>1043.31</ele>
<time>2019-07-25T11:55:25Z</time>
</trkpt>
<trkpt lat="44.8954735" lon="5.3705257">
<ele>1043.37</ele>
<time>2019-07-25T11:55:26Z</time>
</trkpt>
<trkpt lat="44.8954621" lon="5.3705060">
<ele>1043.42</ele>
<time>2019-07-25T11:55:27Z</time>
</trkpt>
<trkpt lat="44.8954560" lon="5.3704875">
<ele>1043.48</ele>
<time>2019-07-25T11:55:28Z</time>
</trkpt>
<trkpt lat="44.8954546" lon="5.3704717">
<ele>1043.53</ele>
<time>2019-07-25T11:55:29Z</time>
</trkpt>
<trkpt lat="44.8954469" lon="5.3704393">
<ele>1043.59</ele>
<time>2019-07-25T11:55:30Z</time>
</trkpt>
<trkpt lat="44.8954387" lon="5.3704103">
<ele>1043.64</ele>
<time>2019-07-25T11:55:31Z</time>
</trkpt>
<trkpt lat="44.8954304" lon="5.3703936">
<ele>1043.70</ele>
<time>2019-07-25T11:55:32Z</time>
</trkpt>
<trkpt lat="44.8954194" lon="5.3703809">
<ele>1043.76</ele>
<time>2019-07-25T11:55:33Z</time>
</trkpt>
<trkpt lat="44.8954123" lon="5.3703810">
<ele>1043.77</ele>
<time>2019-07-25T11:55:34Z</time>
</trkpt>
<trkpt lat="44.8954024" lon="5.3703779">
<ele>1043.77</ele>
<time>2019-07-25T11:55:35Z</time>
</trkpt>
<trkpt lat="44.8953952" lon="5.3703653">
<ele>1043.78</ele>
<time>2019-07-25T11:55:36Z</time>
</trkpt>
<trkpt lat="44.8953940" lon="5.3703661">
<ele>1043.79</ele>
<time>2019-07-25T11:55:37Z</time>
</trkpt>
<trkpt lat="44.8953938" lon="5.3703664">
<ele>1043.79</ele>
<time>2019-07-25T11:55:38Z</time>
</trkpt>
<trkpt lat="44.8953938" lon="5.3703660">
<ele>1043.80</ele>
<time>2019-07-25T11:55:39Z</time>
</trkpt>
<trkpt lat="44.8953936" lon="5.3703664">
<ele>1043.81</ele>
<time>2019-07-25T11:55:40Z</time>
</trkpt>
<trkpt lat="44.8953939" lon="5.3703662">
<ele>1043.81</ele>
<time>2019-07-25T11:55:41Z</time>
</trkpt>
<trkpt lat="44.8953936" lon="5.3703658">
<ele>1043.82</ele>
<time>2019-07-25T11:55:42Z</time>
</trkpt>
<trkpt lat="44.8953934" lon="5.3703658">
<ele>1043.83</ele>
<time>2019-07-25T11:55:43Z</time>
</trkpt>
<trkpt lat="44.8953916" lon="5.3703653">
<ele>1043.83</ele>
<time>2019-07-25T11:55:44Z</time>
</trkpt>
<trkpt lat="44.8953914" lon="5.3703651">
<ele>1043.84</ele>
<time>2019-07-25T11:55:45Z</time>
</trkpt>
<trkpt lat="44.8953906" lon="5.3703644">
<ele>1043.85</ele>
<time>2019-07-25T11:55:46Z</time>
</trkpt>
<trkpt lat="44.8953906" lon="5.3703655">
<ele>1043.85</ele>
<time>2019-07-25T11:55:47Z</time>
</trkpt>
<trkpt lat="44.8953883" lon="5.3703597">
<ele>1043.93</ele>
<time>2019-07-25T11:55:48Z</time>
</trkpt>
<trkpt lat="44.8953927" lon="5.3703407">
<ele>1044.01</ele>
<time>2019-07-25T11:55:49Z</time>
</trkpt>
<trkpt lat="44.8953973" lon="5.3703251">
<ele>1044.09</ele>
<time>2019-07-25T11:55:50Z</time>
</trkpt>
<trkpt lat="44.8954001" lon="5.3703150">
<ele>1044.18</ele>
<time>2019-07-25T11:55:51Z</time>
</trkpt>
<trkpt lat="44.8953998" lon="5.3703039">
<ele>1044.26</ele>
<time>2019-07-25T11:55:52Z</time>
</trkpt>
<trkpt lat="44.8954002" lon="5.3702944">
<ele>1044.35</ele>
<time>2019-07-25T11:55:53Z</time>
</trkpt>
<trkpt lat="44.8954050" lon="5.3702568">
<ele>1044.44</ele>
<time>2019-07-25T11:55:54Z</time>
</trkpt>
<trkpt lat="44.8954084" lon="5.3702329">
<ele>1044.52</ele>
<time>2019-07-25T11:55:55Z</time>
</trkpt>
<trkpt lat="44.8954173" lon="5.3702070">
<ele>1044.61</ele>
<time>2019-07-25T11:55:56Z</time>
</trkpt>
<trkpt lat="44.8954139" lon="5.3702268">
<ele>1044.70</ele>
<time>2019-07-25T11:55:57Z</time>
</trkpt>
<trkpt lat="44.8954157" lon="5.3702391">
<ele>1044.71</ele>
<time>2019-07-25T11:55:58Z</time>
</trkpt>
<trkpt lat="44.8954160" lon="5.3702450">
<ele>1044.71</ele>
<time>2019-07-25T11:55:59Z</time>
</trkpt>
<trkpt lat="44.8954166" lon="5.3702500">
<ele>1044.72</ele>
<time>2019-07-25T11:56:00Z</time>
</trkpt>
<trkpt lat="44.8954234" lon="5.3702462">
<ele>1044.82</ele>
<time>2019-07-25T11:56:01Z</time>
</trkpt>
<trkpt lat="44.8954240" lon="5.3702608">
<ele>1044.91</ele>
<time>2019-07-25T11:56:02Z</time>
</trkpt>
<trkpt lat="44.8954276" lon="5.3702617">
<ele>1044.91</ele>
<time>2019-07-25T11:56:03Z</time>
</trkpt>
<trkpt lat="44.8954274" lon="5.3702698">
<ele>1045.00</ele>
<time>2019-07-25T11:56:04Z</time>
</trkpt>
<trkpt lat="44.8954225" lon="5.3702688">
<ele>1045.01</ele>
<time>2019-07-25T11:56:05Z</time>
</trkpt>
<trkpt lat="44.8954208" lon="5.3702627">
<ele>1045.02</ele>
<time>2019-07-25T11:56:06Z</time>
</trkpt>
<trkpt lat="44.8954251" lon="5.3702744">
<ele>1045.10</ele>
<time>2019-07-25T11:56:07Z</time>
</trkpt>
<trkpt lat="44.8954399" lon="5.3702559">
<ele>1045.11</ele>
<time>2019-07-25T11:56:08Z</time>
</trkpt>
<trkpt lat="44.8954426" lon="5.3702587">
<ele>1045.12</ele>
<time>2019-07-25T11:56:09Z</time>
</trkpt>
<trkpt lat="44.8954405" lon="5.3702521">
<ele>1045.21</ele>
<time>2019-07-25T11:56:10Z</time>
</trkpt>
<trkpt lat="44.8954338" lon="5.3702422">
<ele>1045.29</ele>
<time>2019-07-25T11:56:11Z</time>
</trkpt>
<trkpt lat="44.8954264" lon="5.3702339">
<ele>1045.38</ele>
<time>2019-07-25T11:56:12Z</time>
</trkpt>
<trkpt lat="44.8954241" lon="5.3702286">
<ele>1045.39</ele>
<time>2019-07-25T11:56:13Z</time>
</trkpt>
<trkpt lat="44.8954259" lon="5.3702288">
<ele>1045.40</ele>
<time>2019-07-25T11:56:14Z</time>
</trkpt>
<trkpt lat="44.8954196" lon="5.3702086">
<ele>1045.49</ele>
<time>2019-07-25T11:56:15Z</time>
</trkpt>
<trkpt lat="44.8954186" lon="5.3701978">
<ele>1045.59</ele>
<time>2019-07-25T11:56:16Z</time>
</trkpt>
<trkpt lat="44.8954123" lon="5.3701743">
<ele>1045.70</ele>
<time>2019-07-25T11:56:17Z</time>
</trkpt>
<trkpt lat="44.8954125" lon="5.3701548">
<ele>1045.81</ele>
<time>2019-07-25T11:56:18Z</time>
</trkpt>
<trkpt lat="44.8954173" lon="5.3701227">
<ele>1045.92</ele>
<time>2019-07-25T11:56:19Z</time>
</trkpt>
<trkpt lat="44.8954194" lon="5.3700815">
<ele>1046.03</ele>
<time>2019-07-25T11:56:20Z</time>
</trkpt>
<trkpt lat="44.8954186" lon="5.3700409">
<ele>1046.14</ele>
<time>2019-07-25T11:56:21Z</time>
</trkpt>
<trkpt lat="44.8954175" lon="5.3700145">
<ele>1046.25</ele>
<time>2019-07-25T11:56:22Z</time>
</trkpt>
<trkpt lat="44.8954179" lon="5.3699954">
<ele>1046.36</ele>
<time>2019-07-25T11:56:23Z</time>
</trkpt>
<trkpt lat="44.8954160" lon="5.3699714">
<ele>1046.47</ele>
<time>2019-07-25T11:56:24Z</time>
</trkpt>
<trkpt lat="44.8954136" lon="5.3699504">
<ele>1046.58</ele>
<time>2019-07-25T11:56:25Z</time>
</trkpt>
<trkpt lat="44.8954102" lon="5.3699231">
<ele>1046.70</ele>
<time>2019-07-25T11:56:26Z</time>
</trkpt>
<trkpt lat="44.8954116" lon="5.3698913">
<ele>1046.81</ele>
<time>2019-07-25T11:56:27Z</time>
</trkpt>
<trkpt lat="44.8954082" lon="5.3698552">
<ele>1046.93</ele>
<time>2019-07-25T11:56:28Z</time>
</trkpt>
<trkpt lat="44.8954071" lon="5.3698262">
<ele>1047.04</ele>
<time>2019-07-25T11:56:29Z</time>
</trkpt>
<trkpt lat="44.8954064" lon="5.3697974">
<ele>1047.16</ele>
<time>2019-07-25T11:56:30Z</time>
</trkpt>
<trkpt lat="44.8954125" lon="5.3697617">
<ele>1047.28</ele>
<time>2019-07-25T11:56:31Z</time>
</trkpt>
<trkpt lat="44.8954366" lon="5.3697131">
<ele>1047.39</ele>
<time>2019-07-25T11:56:32Z</time>
</trkpt>
<trkpt lat="44.8954731" lon="5.3696870">
<ele>1047.50</ele>
<time>2019-07-25T11:56:33Z</time>
</trkpt>
<trkpt lat="44.8955113" lon="5.3696680">
<ele>1047.60</ele>
<time>2019-07-25T11:56:34Z</time>
</trkpt>
<trkpt lat="44.8955505" lon="5.3696487">
<ele>1047.70</ele>
<time>2019-07-25T11:56:35Z</time>
</trkpt>
<trkpt lat="44.8955835" lon="5.3696306">
<ele>1047.80</ele>
<time>2019-07-25T11:56:36Z</time>
</trkpt>
<trkpt lat="44.8956126" lon="5.3696145">
<ele>1047.90</ele>
<time>2019-07-25T11:56:37Z</time>
</trkpt>
<trkpt lat="44.8956389" lon="5.3696063">
<ele>1048.00</ele>
<time>2019-07-25T11:56:38Z</time>
</trkpt>
<trkpt lat="44.8956578" lon="5.3696014">
<ele>1048.09</ele>
<time>2019-07-25T11:56:39Z</time>
</trkpt>
<trkpt lat="44.8956671" lon="5.3695995">
<ele>1048.18</ele>
<time>2019-07-25T11:56:40Z</time>
</trkpt>
<trkpt lat="44.8956711" lon="5.3695981">
<ele>1048.19</ele>
<time>2019-07-25T11:56:41Z</time>
</trkpt>
<trkpt lat="44.8956736" lon="5.3695990">
<ele>1048.20</ele>
<time>2019-07-25T11:56:42Z</time>
</trkpt>
<trkpt lat="44.8956742" lon="5.3696016">
<ele>1048.21</ele>
<time>2019-07-25T11:56:43Z</time>
</trkpt>
<trkpt lat="44.8956851" lon="5.3695927">
<ele>1048.22</ele>
<time>2019-07-25T11:56:44Z</time>
</trkpt>
<trkpt lat="44.8956869" lon="5.3695920">
<ele>1048.22</ele>
<time>2019-07-25T11:56:45Z</time>
</trkpt>
<trkpt lat="44.8956874" lon="5.3695913">
<ele>1048.23</ele>
<time>2019-07-25T11:56:46Z</time>
</trkpt>
<trkpt lat="44.8956891" lon="5.3695908">
<ele>1048.24</ele>
<time>2019-07-25T11:56:47Z</time>
</trkpt>
<trkpt lat="44.8956963" lon="5.3695773">
<ele>1048.32</ele>
<time>2019-07-25T11:56:48Z</time>
</trkpt>
<trkpt lat="44.8956968" lon="5.3695783">
<ele>1048.41</ele>
<time>2019-07-25T11:56:49Z</time>
</trkpt>
<trkpt lat="44.8956900" lon="5.3695824">
<ele>1048.49</ele>
<time>2019-07-25T11:56:50Z</time>
</trkpt>
<trkpt lat="44.8956857" lon="5.3695635">
<ele>1048.50</ele>
<time>2019-07-25T11:56:51Z</time>
</trkpt>
<trkpt lat="44.8956894" lon="5.3695617">
<ele>1048.51</ele>
<time>2019-07-25T11:56:52Z</time>
</trkpt>
<trkpt lat="44.8956892" lon="5.3695619">
<ele>1048.52</ele>
<time>2019-07-25T11:56:53Z</time>
</trkpt>
<trkpt lat="44.8956888" lon="5.3695625">
<ele>1048.54</ele>
<time>2019-07-25T11:56:54Z</time>
</trkpt>
<trkpt lat="44.8956880" lon="5.3695635">
<ele>1048.55</ele>
<time>2019-07-25T11:56:55Z</time>
</trkpt>
<trkpt lat="44.8956871" lon="5.3695647">
<ele>1048.56</ele>
<time>2019-07-25T11:56:56Z</time>
</trkpt>
<trkpt lat="44.8956861" lon="5.3695664">
<ele>1048.57</ele>
<time>2019-07-25T11:56:57Z</time>
</trkpt>
<trkpt lat="44.8956858" lon="5.3695668">
<ele>1048.58</ele>
<time>2019-07-25T11:56:58Z</time>
</trkpt>
<trkpt lat="44.8956861" lon="5.3695668">
<ele>1048.59</ele>
<time>2019-07-25T11:56:59Z</time>
</trkpt>
<trkpt lat="44.8956861" lon="5.3695669">
<ele>1048.60</ele>
<time>2019-07-25T11:57:00Z</time>
</trkpt>
<trkpt lat="44.8956860" lon="5.3695670">
<ele>1048.62</ele>
<time>2019-07-25T11:57:01Z</time>
</trkpt>
<trkpt lat="44.8956859" lon="5.3695673">
<ele>1048.63</ele>
<time>2019-07-25T11:57:02Z</time>
</trkpt>
<trkpt lat="44.8956858" lon="5.3695678">
<ele>1048.63</ele>
<time>2019-07-25T11:57:03Z</time>
</trkpt>
<trkpt lat="44.8956857" lon="5.3695682">
<ele>1048.64</ele>
<time>2019-07-25T11:57:04Z</time>
</trkpt>
<trkpt lat="44.8956855" lon="5.3695686">
<ele>1048.65</ele>
<time>2019-07-25T11:57:05Z</time>
</trkpt>
<trkpt lat="44.8956855" lon="5.3695691">
<ele>1048.65</ele>
<time>2019-07-25T11:57:06Z</time>
</trkpt>
<trkpt lat="44.8956855" lon="5.3695696">
<ele>1048.66</ele>
<time>2019-07-25T11:57:07Z</time>
</trkpt>
<trkpt lat="44.8956854" lon="5.3695700">
<ele>1048.66</ele>
<time>2019-07-25T11:57:08Z</time>
</trkpt>
<trkpt lat="44.8956853" lon="5.3695707">
<ele>1048.67</ele>
<time>2019-07-25T11:57:09Z</time>
</trkpt>
<trkpt lat="44.8956852" lon="5.3695714">
<ele>1048.67</ele>
<time>2019-07-25T11:57:10Z</time>
</trkpt>
<trkpt lat="44.8956850" lon="5.3695721">
<ele>1048.67</ele>
<time>2019-07-25T11:57:11Z</time>
</trkpt>
<trkpt lat="44.8956848" lon="5.3695728">
<ele>1048.68</ele>
<time>2019-07-25T11:57:12Z</time>
</trkpt>
<trkpt lat="44.8956848" lon="5.3695734">
<ele>1048.68</ele>
<time>2019-07-25T11:57:13Z</time>
</trkpt>
<trkpt lat="44.8956847" lon="5.3695739">
<ele>1048.68</ele>
<time>2019-07-25T11:57:14Z</time>
</trkpt>
<trkpt lat="44.8956846" lon="5.3695746">
<ele>1048.68</ele>
<time>2019-07-25T11:57:15Z</time>
</trkpt>
<trkpt lat="44.8956845" lon="5.3695751">
<ele>1048.68</ele>
<time>2019-07-25T11:57:16Z</time>
</trkpt>
<trkpt lat="44.8956844" lon="5.3695758">
<ele>1048.69</ele>
<time>2019-07-25T11:57:17Z</time>
</trkpt>
<trkpt lat="44.8956842" lon="5.3695762">
<ele>1048.69</ele>
<time>2019-07-25T11:57:18Z</time>
</trkpt>
<trkpt lat="44.8956839" lon="5.3695772">
<ele>1048.69</ele>
<time>2019-07-25T11:57:19Z</time>
</trkpt>
<trkpt lat="44.8956837" lon="5.3695779">
<ele>1048.69</ele>
<time>2019-07-25T11:57:20Z</time>
</trkpt>
<trkpt lat="44.8956836" lon="5.3695785">
<ele>1048.70</ele>
<time>2019-07-25T11:57:21Z</time>
</trkpt>
<trkpt lat="44.8956834" lon="5.3695792">
<ele>1048.70</ele>
<time>2019-07-25T11:57:22Z</time>
</trkpt>
<trkpt lat="44.8956833" lon="5.3695801">
<ele>1048.70</ele>
<time>2019-07-25T11:57:23Z</time>
</trkpt>
<trkpt lat="44.8956832" lon="5.3695807">
<ele>1048.71</ele>
<time>2019-07-25T11:57:24Z</time>
</trkpt>
<trkpt lat="44.8956830" lon="5.3695812">
<ele>1048.71</ele>
<time>2019-07-25T11:57:25Z</time>
</trkpt>
<trkpt lat="44.8956828" lon="5.3695820">
<ele>1048.71</ele>
<time>2019-07-25T11:57:26Z</time>
</trkpt>
<trkpt lat="44.8956826" lon="5.3695827">
<ele>1048.71</ele>
<time>2019-07-25T11:57:27Z</time>
</trkpt>
<trkpt lat="44.8956825" lon="5.3695832">
<ele>1048.71</ele>
<time>2019-07-25T11:57:28Z</time>
</trkpt>
<trkpt lat="44.8956824" lon="5.3695837">
<ele>1048.72</ele>
<time>2019-07-25T11:57:29Z</time>
</trkpt>
<trkpt lat="44.8956823" lon="5.3695842">
<ele>1048.72</ele>
<time>2019-07-25T11:57:30Z</time>
</trkpt>
<trkpt lat="44.8956820" lon="5.3695846">
<ele>1048.72</ele>
<time>2019-07-25T11:57:31Z</time>
</trkpt>
<trkpt lat="44.8956819" lon="5.3695847">
<ele>1048.72</ele>
<time>2019-07-25T11:57:32Z</time>
</trkpt>
<trkpt lat="44.8956819" lon="5.3695847">
<ele>1048.73</ele>
<time>2019-07-25T11:57:33Z</time>
</trkpt>
<trkpt lat="44.8956820" lon="5.3695847">
<ele>1048.73</ele>
<time>2019-07-25T11:57:34Z</time>
</trkpt>
<trkpt lat="44.8956820" lon="5.3695846">
<ele>1048.73</ele>
<time>2019-07-25T11:57:35Z</time>
</trkpt>
<trkpt lat="44.8956821" lon="5.3695842">
<ele>1048.73</ele>
<time>2019-07-25T11:57:36Z</time>
</trkpt>
<trkpt lat="44.8956822" lon="5.3695840">
<ele>1048.74</ele>
<time>2019-07-25T11:57:37Z</time>
</trkpt>
<trkpt lat="44.8956824" lon="5.3695837">
<ele>1048.74</ele>
<time>2019-07-25T11:57:38Z</time>
</trkpt>
<trkpt lat="44.8956826" lon="5.3695833">
<ele>1048.74</ele>
<time>2019-07-25T11:57:39Z</time>
</trkpt>
<trkpt lat="44.8956831" lon="5.3695827">
<ele>1048.75</ele>
<time>2019-07-25T11:57:40Z</time>
</trkpt>
<trkpt lat="44.8956833" lon="5.3695822">
<ele>1048.75</ele>
<time>2019-07-25T11:57:41Z</time>
</trkpt>
<trkpt lat="44.8956835" lon="5.3695818">
<ele>1048.75</ele>
<time>2019-07-25T11:57:42Z</time>
</trkpt>
<trkpt lat="44.8956836" lon="5.3695816">
<ele>1048.76</ele>
<time>2019-07-25T11:57:43Z</time>
</trkpt>
<trkpt lat="44.8956837" lon="5.3695814">
<ele>1048.76</ele>
<time>2019-07-25T11:57:44Z</time>
</trkpt>
<trkpt lat="44.8956837" lon="5.3695810">
<ele>1048.76</ele>
<time>2019-07-25T11:57:45Z</time>
</trkpt>
<trkpt lat="44.8956839" lon="5.3695805">
<ele>1048.77</ele>
<time>2019-07-25T11:57:46Z</time>
</trkpt>
<trkpt lat="44.8956836" lon="5.3695808">
<ele>1048.77</ele>
<time>2019-07-25T11:57:47Z</time>
</trkpt>
<trkpt lat="44.8956833" lon="5.3695810">
<ele>1048.78</ele>
<time>2019-07-25T11:57:48Z</time>
</trkpt>
<trkpt lat="44.8956830" lon="5.3695810">
<ele>1048.78</ele>
<time>2019-07-25T11:57:49Z</time>
</trkpt>
<trkpt lat="44.8956829" lon="5.3695808">
<ele>1048.79</ele>
<time>2019-07-25T11:57:50Z</time>
</trkpt>
<trkpt lat="44.8956829" lon="5.3695806">
<ele>1048.79</ele>
<time>2019-07-25T11:57:51Z</time>
</trkpt>
<trkpt lat="44.8956829" lon="5.3695807">
<ele>1048.80</ele>
<time>2019-07-25T11:57:52Z</time>
</trkpt>
<trkpt lat="44.8956827" lon="5.3695809">
<ele>1048.80</ele>
<time>2019-07-25T11:57:53Z</time>
</trkpt>
<trkpt lat="44.8956828" lon="5.3695810">
<ele>1048.80</ele>
<time>2019-07-25T11:57:54Z</time>
</trkpt>
<trkpt lat="44.8956828" lon="5.3695812">
<ele>1048.80</ele>
<time>2019-07-25T11:57:55Z</time>
</trkpt>
<trkpt lat="44.8956827" lon="5.3695815">
<ele>1048.81</ele>
<time>2019-07-25T11:57:56Z</time>
</trkpt>
<trkpt lat="44.8956826" lon="5.3695820">
<ele>1048.81</ele>
<time>2019-07-25T11:57:57Z</time>
</trkpt>
<trkpt lat="44.8956825" lon="5.3695828">
<ele>1048.81</ele>
<time>2019-07-25T11:57:58Z</time>
</trkpt>
<trkpt lat="44.8956824" lon="5.3695834">
<ele>1048.81</ele>
<time>2019-07-25T11:57:59Z</time>
</trkpt>
<trkpt lat="44.8956822" lon="5.3695838">
<ele>1048.80</ele>
<time>2019-07-25T11:58:00Z</time>
</trkpt>
<trkpt lat="44.8956821" lon="5.3695839">
<ele>1048.80</ele>
<time>2019-07-25T11:58:01Z</time>
</trkpt>
<trkpt lat="44.8956819" lon="5.3695840">
<ele>1048.80</ele>
<time>2019-07-25T11:58:02Z</time>
</trkpt>
<trkpt lat="44.8956818" lon="5.3695842">
<ele>1048.80</ele>
<time>2019-07-25T11:58:03Z</time>
</trkpt>
<trkpt lat="44.8956817" lon="5.3695844">
<ele>1048.80</ele>
<time>2019-07-25T11:58:04Z</time>
</trkpt>
<trkpt lat="44.8956815" lon="5.3695847">
<ele>1048.80</ele>
<time>2019-07-25T11:58:05Z</time>
</trkpt>
<trkpt lat="44.8956815" lon="5.3695848">
<ele>1048.79</ele>
<time>2019-07-25T11:58:06Z</time>
</trkpt>
<trkpt lat="44.8956814" lon="5.3695851">
<ele>1048.79</ele>
<time>2019-07-25T11:58:07Z</time>
</trkpt>
<trkpt lat="44.8956813" lon="5.3695851">
<ele>1048.79</ele>
<time>2019-07-25T11:58:08Z</time>
</trkpt>
<trkpt lat="44.8956811" lon="5.3695855">
<ele>1048.78</ele>
<time>2019-07-25T11:58:09Z</time>
</trkpt>
<trkpt lat="44.8956810" lon="5.3695856">
<ele>1048.78</ele>
<time>2019-07-25T11:58:10Z</time>
</trkpt>
<trkpt lat="44.8956801" lon="5.3695865">
<ele>1048.78</ele>
<time>2019-07-25T11:58:11Z</time>
</trkpt>
<trkpt lat="44.8956787" lon="5.3695894">
<ele>1048.77</ele>
<time>2019-07-25T11:58:12Z</time>
</trkpt>
<trkpt lat="44.8956779" lon="5.3695907">
<ele>1048.77</ele>
<time>2019-07-25T11:58:13Z</time>
</trkpt>
<trkpt lat="44.8956747" lon="5.3695984">
<ele>1048.73</ele>
<time>2019-07-25T11:58:14Z</time>
</trkpt>
<trkpt lat="44.8956682" lon="5.3696138">
<ele>1048.69</ele>
<time>2019-07-25T11:58:15Z</time>
</trkpt>
<trkpt lat="44.8956548" lon="5.3696254">
<ele>1048.65</ele>
<time>2019-07-25T11:58:16Z</time>
</trkpt>
<trkpt lat="44.8956423" lon="5.3696357">
<ele>1048.63</ele>
<time>2019-07-25T11:58:17Z</time>
</trkpt>
<trkpt lat="44.8956371" lon="5.3696464">
<ele>1048.60</ele>
<time>2019-07-25T11:58:18Z</time>
</trkpt>
<trkpt lat="44.8956307" lon="5.3696609">
<ele>1048.57</ele>
<time>2019-07-25T11:58:19Z</time>
</trkpt>
<trkpt lat="44.8956204" lon="5.3696798">
<ele>1048.55</ele>
<time>2019-07-25T11:58:20Z</time>
</trkpt>
<trkpt lat="44.8956080" lon="5.3696935">
<ele>1048.52</ele>
<time>2019-07-25T11:58:21Z</time>
</trkpt>
<trkpt lat="44.8955805" lon="5.3697081">
<ele>1048.49</ele>
<time>2019-07-25T11:58:22Z</time>
</trkpt>
<trkpt lat="44.8955464" lon="5.3697251">
<ele>1048.47</ele>
<time>2019-07-25T11:58:23Z</time>
</trkpt>
<trkpt lat="44.8955093" lon="5.3697438">
<ele>1048.25</ele>
<time>2019-07-25T11:58:24Z</time>
</trkpt>
<trkpt lat="44.8954719" lon="5.3697642">
<ele>1048.09</ele>
<time>2019-07-25T11:58:25Z</time>
</trkpt>
<trkpt lat="44.8954410" lon="5.3697797">
<ele>1048.07</ele>
<time>2019-07-25T11:58:26Z</time>
</trkpt>
<trkpt lat="44.8954100" lon="5.3698044">
<ele>1048.01</ele>
<time>2019-07-25T11:58:27Z</time>
</trkpt>
<trkpt lat="44.8953950" lon="5.3698610">
<ele>1048.00</ele>
<time>2019-07-25T11:58:28Z</time>
</trkpt>
<trkpt lat="44.8953877" lon="5.3699257">
<ele>1048.02</ele>
<time>2019-07-25T11:58:29Z</time>
</trkpt>
<trkpt lat="44.8953920" lon="5.3699998">
<ele>1048.08</ele>
<time>2019-07-25T11:58:30Z</time>
</trkpt>
<trkpt lat="44.8954102" lon="5.3700847">
<ele>1048.22</ele>
<time>2019-07-25T11:58:31Z</time>
</trkpt>
<trkpt lat="44.8954252" lon="5.3701914">
<ele>1048.48</ele>
<time>2019-07-25T11:58:32Z</time>
</trkpt>
<trkpt lat="44.8954385" lon="5.3702894">
<ele>1048.77</ele>
<time>2019-07-25T11:58:33Z</time>
</trkpt>
<trkpt lat="44.8954473" lon="5.3703779">
<ele>1049.01</ele>
<time>2019-07-25T11:58:34Z</time>
</trkpt>
<trkpt lat="44.8954479" lon="5.3704446">
<ele>1049.19</ele>
<time>2019-07-25T11:58:35Z</time>
</trkpt>
<trkpt lat="44.8954479" lon="5.3705092">
<ele>1049.34</ele>
<time>2019-07-25T11:58:36Z</time>
</trkpt>
<trkpt lat="44.8954172" lon="5.3705789">
<ele>1049.47</ele>
<time>2019-07-25T11:58:37Z</time>
</trkpt>
<trkpt lat="44.8953856" lon="5.3706468">
<ele>1049.59</ele>
<time>2019-07-25T11:58:38Z</time>
</trkpt>
<trkpt lat="44.8953773" lon="5.3707290">
<ele>1049.69</ele>
<time>2019-07-25T11:58:39Z</time>
</trkpt>
<trkpt lat="44.8954069" lon="5.3708001">
<ele>1049.84</ele>
<time>2019-07-25T11:58:40Z</time>
</trkpt>
<trkpt lat="44.8954274" lon="5.3708597">
<ele>1049.87</ele>
<time>2019-07-25T11:58:41Z</time>
</trkpt>
<trkpt lat="44.8954084" lon="5.3709028">
<ele>1049.90</ele>
<time>2019-07-25T11:58:42Z</time>
</trkpt>
<trkpt lat="44.8953777" lon="5.3709179">
<ele>1049.93</ele>
<time>2019-07-25T11:58:43Z</time>
</trkpt>
<trkpt lat="44.8953446" lon="5.3709206">
<ele>1049.95</ele>
<time>2019-07-25T11:58:44Z</time>
</trkpt>
<trkpt lat="44.8953094" lon="5.3709268">
<ele>1049.98</ele>
<time>2019-07-25T11:58:45Z</time>
</trkpt>
<trkpt lat="44.8952712" lon="5.3709341">
<ele>1050.01</ele>
<time>2019-07-25T11:58:46Z</time>
</trkpt>
<trkpt lat="44.8952485" lon="5.3709229">
<ele>1050.04</ele>
<time>2019-07-25T11:58:47Z</time>
</trkpt>
<trkpt lat="44.8952323" lon="5.3709007">
<ele>1050.06</ele>
<time>2019-07-25T11:58:48Z</time>
</trkpt>
<trkpt lat="44.8952224" lon="5.3708900">
<ele>1050.09</ele>
<time>2019-07-25T11:58:49Z</time>
</trkpt>
<trkpt lat="44.8952176" lon="5.3708841">
<ele>1050.12</ele>
<time>2019-07-25T11:58:50Z</time>
</trkpt>
<trkpt lat="44.8952147" lon="5.3708812">
<ele>1050.12</ele>
<time>2019-07-25T11:58:51Z</time>
</trkpt>
<trkpt lat="44.8952092" lon="5.3708745">
<ele>1050.16</ele>
<time>2019-07-25T11:58:52Z</time>
</trkpt>
<trkpt lat="44.8952028" lon="5.3708709">
<ele>1050.20</ele>
<time>2019-07-25T11:58:53Z</time>
</trkpt>
<trkpt lat="44.8952011" lon="5.3708692">
<ele>1050.24</ele>
<time>2019-07-25T11:58:54Z</time>
</trkpt>
<trkpt lat="44.8951997" lon="5.3708675">
<ele>1050.28</ele>
<time>2019-07-25T11:58:55Z</time>
</trkpt>
<trkpt lat="44.8952063" lon="5.3708694">
<ele>1050.33</ele>
<time>2019-07-25T11:58:56Z</time>
</trkpt>
<trkpt lat="44.8952151" lon="5.3708726">
<ele>1050.37</ele>
<time>2019-07-25T11:58:57Z</time>
</trkpt>
<trkpt lat="44.8952129" lon="5.3708681">
<ele>1050.42</ele>
<time>2019-07-25T11:58:58Z</time>
</trkpt>
<trkpt lat="44.8952198" lon="5.3708693">
<ele>1050.47</ele>
<time>2019-07-25T11:58:59Z</time>
</trkpt>
<trkpt lat="44.8952253" lon="5.3708670">
<ele>1050.47</ele>
<time>2019-07-25T11:59:00Z</time>
</trkpt>
<trkpt lat="44.8952365" lon="5.3708664">
<ele>1050.53</ele>
<time>2019-07-25T11:59:01Z</time>
</trkpt>
<trkpt lat="44.8952397" lon="5.3708656">
<ele>1050.54</ele>
<time>2019-07-25T11:59:02Z</time>
</trkpt>
<trkpt lat="44.8952396" lon="5.3708659">
<ele>1050.54</ele>
<time>2019-07-25T11:59:03Z</time>
</trkpt>
<trkpt lat="44.8952430" lon="5.3708640">
<ele>1050.55</ele>
<time>2019-07-25T11:59:04Z</time>
</trkpt>
<trkpt lat="44.8952448" lon="5.3708640">
<ele>1050.56</ele>
<time>2019-07-25T11:59:05Z</time>
</trkpt>
<trkpt lat="44.8952498" lon="5.3708634">
<ele>1050.57</ele>
<time>2019-07-25T11:59:06Z</time>
</trkpt>
<trkpt lat="44.8952492" lon="5.3708636">
<ele>1050.58</ele>
<time>2019-07-25T11:59:07Z</time>
</trkpt>
<trkpt lat="44.8952541" lon="5.3708585">
<ele>1050.58</ele>
<time>2019-07-25T11:59:08Z</time>
</trkpt>
<trkpt lat="44.8952565" lon="5.3708609">
<ele>1050.66</ele>
<time>2019-07-25T11:59:09Z</time>
</trkpt>
<trkpt lat="44.8952588" lon="5.3708641">
<ele>1050.67</ele>
<time>2019-07-25T11:59:10Z</time>
</trkpt>
<trkpt lat="44.8952601" lon="5.3708671">
<ele>1050.68</ele>
<time>2019-07-25T11:59:11Z</time>
</trkpt>
<trkpt lat="44.8952625" lon="5.3708684">
<ele>1050.69</ele>
<time>2019-07-25T11:59:12Z</time>
</trkpt>
<trkpt lat="44.8952666" lon="5.3708742">
<ele>1050.76</ele>
<time>2019-07-25T11:59:13Z</time>
</trkpt>
<trkpt lat="44.8952645" lon="5.3708779">
<ele>1050.83</ele>
<time>2019-07-25T11:59:14Z</time>
</trkpt>
<trkpt lat="44.8952669" lon="5.3708690">
<ele>1050.84</ele>
<time>2019-07-25T11:59:15Z</time>
</trkpt>
<trkpt lat="44.8952677" lon="5.3708747">
<ele>1050.91</ele>
<time>2019-07-25T11:59:16Z</time>
</trkpt>
<trkpt lat="44.8952697" lon="5.3708792">
<ele>1050.98</ele>
<time>2019-07-25T11:59:17Z</time>
</trkpt>
<trkpt lat="44.8952723" lon="5.3708847">
<ele>1051.05</ele>
<time>2019-07-25T11:59:18Z</time>
</trkpt>
<trkpt lat="44.8952745" lon="5.3708834">
<ele>1051.13</ele>
<time>2019-07-25T11:59:19Z</time>
</trkpt>
<trkpt lat="44.8952734" lon="5.3708860">
<ele>1051.13</ele>
<time>2019-07-25T11:59:20Z</time>
</trkpt>
<trkpt lat="44.8952712" lon="5.3708918">
<ele>1051.22</ele>
<time>2019-07-25T11:59:21Z</time>
</trkpt>
<trkpt lat="44.8952675" lon="5.3708918">
<ele>1051.22</ele>
<time>2019-07-25T11:59:22Z</time>
</trkpt>
<trkpt lat="44.8952674" lon="5.3708916">
<ele>1051.23</ele>
<time>2019-07-25T11:59:23Z</time>
</trkpt>
<trkpt lat="44.8952677" lon="5.3708916">
<ele>1051.24</ele>
<time>2019-07-25T11:59:24Z</time>
</trkpt>
<trkpt lat="44.8952669" lon="5.3708915">
<ele>1051.25</ele>
<time>2019-07-25T11:59:25Z</time>
</trkpt>
<trkpt lat="44.8952649" lon="5.3708908">
<ele>1051.26</ele>
<time>2019-07-25T11:59:26Z</time>
</trkpt>
<trkpt lat="44.8952645" lon="5.3708882">
<ele>1051.27</ele>
<time>2019-07-25T11:59:27Z</time>
</trkpt>
<trkpt lat="44.8952602" lon="5.3708882">
<ele>1051.37</ele>
<time>2019-07-25T11:59:28Z</time>
</trkpt>
<trkpt lat="44.8952592" lon="5.3708935">
<ele>1051.47</ele>
<time>2019-07-25T11:59:29Z</time>
</trkpt>
<trkpt lat="44.8952554" lon="5.3708766">
<ele>1051.57</ele>
<time>2019-07-25T11:59:30Z</time>
</trkpt>
<trkpt lat="44.8952492" lon="5.3708470">
<ele>1051.58</ele>
<time>2019-07-25T11:59:31Z</time>
</trkpt>
<trkpt lat="44.8952361" lon="5.3708589">
<ele>1051.59</ele>
<time>2019-07-25T11:59:32Z</time>
</trkpt>
<trkpt lat="44.8952391" lon="5.3708748">
<ele>1051.60</ele>
<time>2019-07-25T11:59:33Z</time>
</trkpt>
<trkpt lat="44.8952388" lon="5.3708765">
<ele>1051.61</ele>
<time>2019-07-25T11:59:34Z</time>
</trkpt>
<trkpt lat="44.8952392" lon="5.3708779">
<ele>1051.62</ele>
<time>2019-07-25T11:59:35Z</time>
</trkpt>
<trkpt lat="44.8952390" lon="5.3708791">
<ele>1051.63</ele>
<time>2019-07-25T11:59:36Z</time>
</trkpt>
<trkpt lat="44.8952391" lon="5.3708797">
<ele>1051.64</ele>
<time>2019-07-25T11:59:37Z</time>
</trkpt>
<trkpt lat="44.8952322" lon="5.3708992">
<ele>1051.65</ele>
<time>2019-07-25T11:59:38Z</time>
</trkpt>
<trkpt lat="44.8952300" lon="5.3709084">
<ele>1051.66</ele>
<time>2019-07-25T11:59:39Z</time>
</trkpt>
<trkpt lat="44.8952316" lon="5.3709069">
<ele>1051.67</ele>
<time>2019-07-25T11:59:40Z</time>
</trkpt>
<trkpt lat="44.8952318" lon="5.3709067">
<ele>1051.68</ele>
<time>2019-07-25T11:59:41Z</time>
</trkpt>
<trkpt lat="44.8952361" lon="5.3709056">
<ele>1051.69</ele>
<time>2019-07-25T11:59:42Z</time>
</trkpt>
<trkpt lat="44.8952465" lon="5.3709091">
<ele>1051.79</ele>
<time>2019-07-25T11:59:43Z</time>
</trkpt>
<trkpt lat="44.8952502" lon="5.3709133">
<ele>1051.89</ele>
<time>2019-07-25T11:59:44Z</time>
</trkpt>
<trkpt lat="44.8952523" lon="5.3709068">
<ele>1051.90</ele>
<time>2019-07-25T11:59:45Z</time>
</trkpt>
<trkpt lat="44.8952541" lon="5.3708942">
<ele>1051.91</ele>
<time>2019-07-25T11:59:46Z</time>
</trkpt>
<trkpt lat="44.8952642" lon="5.3709093">
<ele>1051.92</ele>
<time>2019-07-25T11:59:47Z</time>
</trkpt>
<trkpt lat="44.8952623" lon="5.3709227">
<ele>1051.93</ele>
<time>2019-07-25T11:59:48Z</time>
</trkpt>
<trkpt lat="44.8952504" lon="5.3709499">
<ele>1052.02</ele>
<time>2019-07-25T11:59:49Z</time>
</trkpt>
<trkpt lat="44.8952504" lon="5.3709509">
<ele>1052.03</ele>
<time>2019-07-25T11:59:50Z</time>
</trkpt>
<trkpt lat="44.8952504" lon="5.3709502">
<ele>1052.04</ele>
<time>2019-07-25T11:59:51Z</time>
</trkpt>
<trkpt lat="44.8952504" lon="5.3709500">
<ele>1052.05</ele>
<time>2019-07-25T11:59:52Z</time>
</trkpt>
<trkpt lat="44.8952495" lon="5.3709436">
<ele>1052.14</ele>
<time>2019-07-25T11:59:53Z</time>
</trkpt>
<trkpt lat="44.8952507" lon="5.3709231">
<ele>1052.23</ele>
<time>2019-07-25T11:59:54Z</time>
</trkpt>
<trkpt lat="44.8952434" lon="5.3709264">
<ele>1052.31</ele>
<time>2019-07-25T11:59:55Z</time>
</trkpt>
<trkpt lat="44.8952544" lon="5.3708761">
<ele>1052.39</ele>
<time>2019-07-25T11:59:56Z</time>
</trkpt>
<trkpt lat="44.8952734" lon="5.3708499">
<ele>1052.46</ele>
<time>2019-07-25T11:59:57Z</time>
</trkpt>
<trkpt lat="44.8952926" lon="5.3708166">
<ele>1052.54</ele>
<time>2019-07-25T11:59:58Z</time>
</trkpt>
<trkpt lat="44.8953214" lon="5.3708160">
<ele>1052.61</ele>
<time>2019-07-25T11:59:59Z</time>
</trkpt>
<trkpt lat="44.8953469" lon="5.3708341">
<ele>1052.68</ele>
<time>2019-07-25T12:00:00Z</time>
</trkpt>
<trkpt lat="44.8953742" lon="5.3708327">
<ele>1053.38</ele>
<time>2019-07-25T12:00:01Z</time>
</trkpt>
<trkpt lat="44.8954086" lon="5.3708374">
<ele>1053.97</ele>
<time>2019-07-25T12:00:02Z</time>
</trkpt>
<trkpt lat="44.8954471" lon="5.3708176">
<ele>1054.40</ele>
<time>2019-07-25T12:00:03Z</time>
</trkpt>
<trkpt lat="44.8954759" lon="5.3707692">
<ele>1054.72</ele>
<time>2019-07-25T12:00:04Z</time>
</trkpt>
<trkpt lat="44.8954755" lon="5.3706971">
<ele>1054.95</ele>
<time>2019-07-25T12:00:05Z</time>
</trkpt>
<trkpt lat="44.8954604" lon="5.3706264">
<ele>1055.11</ele>
<time>2019-07-25T12:00:06Z</time>
</trkpt>
<trkpt lat="44.8954405" lon="5.3705690">
<ele>1055.23</ele>
<time>2019-07-25T12:00:07Z</time>
</trkpt>
<trkpt lat="44.8954220" lon="5.3705154">
<ele>1055.32</ele>
<time>2019-07-25T12:00:08Z</time>
</trkpt>
<trkpt lat="44.8954157" lon="5.3704495">
<ele>1055.35</ele>
<time>2019-07-25T12:00:09Z</time>
</trkpt>
<trkpt lat="44.8954174" lon="5.3703900">
<ele>1055.35</ele>
<time>2019-07-25T12:00:10Z</time>
</trkpt>
<trkpt lat="44.8954199" lon="5.3703341">
<ele>1055.36</ele>
<time>2019-07-25T12:00:11Z</time>
</trkpt>
<trkpt lat="44.8954225" lon="5.3702757">
<ele>1055.36</ele>
<time>2019-07-25T12:00:12Z</time>
</trkpt>
<trkpt lat="44.8954232" lon="5.3702166">
<ele>1055.36</ele>
<time>2019-07-25T12:00:13Z</time>
</trkpt>
<trkpt lat="44.8954184" lon="5.3701588">
<ele>1055.39</ele>
<time>2019-07-25T12:00:14Z</time>
</trkpt>
<trkpt lat="44.8954116" lon="5.3701020">
<ele>1055.39</ele>
<time>2019-07-25T12:00:15Z</time>
</trkpt>
<trkpt lat="44.8954054" lon="5.3700414">
<ele>1055.39</ele>
<time>2019-07-25T12:00:16Z</time>
</trkpt>
<trkpt lat="44.8954002" lon="5.3699827">
<ele>1055.39</ele>
<time>2019-07-25T12:00:17Z</time>
</trkpt>
<trkpt lat="44.8953954" lon="5.3699399">
<ele>1055.39</ele>
<time>2019-07-25T12:00:18Z</time>
</trkpt>
<trkpt lat="44.8954024" lon="5.3699007">
<ele>1055.38</ele>
<time>2019-07-25T12:00:19Z</time>
</trkpt>
<trkpt lat="44.8954160" lon="5.3698618">
<ele>1055.39</ele>
<time>2019-07-25T12:00:20Z</time>
</trkpt>
<trkpt lat="44.8954405" lon="5.3698303">
<ele>1055.39</ele>
<time>2019-07-25T12:00:21Z</time>
</trkpt>
<trkpt lat="44.8954696" lon="5.3698089">
<ele>1055.39</ele>
<time>2019-07-25T12:00:22Z</time>
</trkpt>
<trkpt lat="44.8954995" lon="5.3697872">
<ele>1055.40</ele>
<time>2019-07-25T12:00:23Z</time>
</trkpt>
<trkpt lat="44.8955285" lon="5.3697667">
<ele>1055.40</ele>
<time>2019-07-25T12:00:24Z</time>
</trkpt>
<trkpt lat="44.8955570" lon="5.3697459">
<ele>1055.41</ele>
<time>2019-07-25T12:00:25Z</time>
</trkpt>
<trkpt lat="44.8955820" lon="5.3697264">
<ele>1055.42</ele>
<time>2019-07-25T12:00:26Z</time>
</trkpt>
<trkpt lat="44.8956150" lon="5.3697139">
<ele>1055.43</ele>
<time>2019-07-25T12:00:27Z</time>
</trkpt>
<trkpt lat="44.8956463" lon="5.3697127">
<ele>1055.45</ele>
<time>2019-07-25T12:00:28Z</time>
</trkpt>
<trkpt lat="44.8956705" lon="5.3697175">
<ele>1055.47</ele>
<time>2019-07-25T12:00:29Z</time>
</trkpt>
<trkpt lat="44.8956928" lon="5.3697238">
<ele>1055.50</ele>
<time>2019-07-25T12:00:30Z</time>
</trkpt>
<trkpt lat="44.8957173" lon="5.3697287">
<ele>1055.52</ele>
<time>2019-07-25T12:00:31Z</time>
</trkpt>
<trkpt lat="44.8957376" lon="5.3697318">
<ele>1055.55</ele>
<time>2019-07-25T12:00:32Z</time>
</trkpt>
<trkpt lat="44.8957540" lon="5.3697330">
<ele>1055.58</ele>
<time>2019-07-25T12:00:33Z</time>
</trkpt>
<trkpt lat="44.8957708" lon="5.3697343">
<ele>1055.61</ele>
<time>2019-07-25T12:00:34Z</time>
</trkpt>
<trkpt lat="44.8957791" lon="5.3697351">
<ele>1055.63</ele>
<time>2019-07-25T12:00:35Z</time>
</trkpt>
<trkpt lat="44.8957745" lon="5.3697349">
<ele>1055.63</ele>
<time>2019-07-25T12:00:36Z</time>
</trkpt>
<trkpt lat="44.8957773" lon="5.3697318">
<ele>1055.66</ele>
<time>2019-07-25T12:00:37Z</time>
</trkpt>
<trkpt lat="44.8957814" lon="5.3697294">
<ele>1055.66</ele>
<time>2019-07-25T12:00:38Z</time>
</trkpt>
<trkpt lat="44.8957858" lon="5.3697321">
<ele>1055.69</ele>
<time>2019-07-25T12:00:39Z</time>
</trkpt>
<trkpt lat="44.8957846" lon="5.3697325">
<ele>1055.72</ele>
<time>2019-07-25T12:00:40Z</time>
</trkpt>
<trkpt lat="44.8957825" lon="5.3697298">
<ele>1055.75</ele>
<time>2019-07-25T12:00:41Z</time>
</trkpt>
<trkpt lat="44.8957829" lon="5.3697283">
<ele>1055.76</ele>
<time>2019-07-25T12:00:42Z</time>
</trkpt>
<trkpt lat="44.8957837" lon="5.3697267">
<ele>1055.81</ele>
<time>2019-07-25T12:00:43Z</time>
</trkpt>
<trkpt lat="44.8957893" lon="5.3697244">
<ele>1055.87</ele>
<time>2019-07-25T12:00:44Z</time>
</trkpt>
<trkpt lat="44.8957908" lon="5.3697231">
<ele>1055.87</ele>
<time>2019-07-25T12:00:45Z</time>
</trkpt>
<trkpt lat="44.8957904" lon="5.3697227">
<ele>1055.88</ele>
<time>2019-07-25T12:00:46Z</time>
</trkpt>
<trkpt lat="44.8957905" lon="5.3697228">
<ele>1055.89</ele>
<time>2019-07-25T12:00:47Z</time>
</trkpt>
<trkpt lat="44.8957913" lon="5.3697231">
<ele>1055.90</ele>
<time>2019-07-25T12:00:48Z</time>
</trkpt>
<trkpt lat="44.8957921" lon="5.3697234">
<ele>1055.92</ele>
<time>2019-07-25T12:00:49Z</time>
</trkpt>
<trkpt lat="44.8957926" lon="5.3697235">
<ele>1055.93</ele>
<time>2019-07-25T12:00:50Z</time>
</trkpt>
<trkpt lat="44.8957929" lon="5.3697236">
<ele>1055.94</ele>
<time>2019-07-25T12:00:51Z</time>
</trkpt>
<trkpt lat="44.8957932" lon="5.3697235">
<ele>1055.96</ele>
<time>2019-07-25T12:00:52Z</time>
</trkpt>
<trkpt lat="44.8957933" lon="5.3697236">
<ele>1055.98</ele>
<time>2019-07-25T12:00:53Z</time>
</trkpt>
<trkpt lat="44.8957936" lon="5.3697236">
<ele>1055.99</ele>
<time>2019-07-25T12:00:54Z</time>
</trkpt>
<trkpt lat="44.8957937" lon="5.3697235">
<ele>1056.01</ele>
<time>2019-07-25T12:00:55Z</time>
</trkpt>
<trkpt lat="44.8957936" lon="5.3697234">
<ele>1056.02</ele>
<time>2019-07-25T12:00:56Z</time>
</trkpt>
<trkpt lat="44.8957937" lon="5.3697234">
<ele>1056.04</ele>
<time>2019-07-25T12:00:57Z</time>
</trkpt>
<trkpt lat="44.8957935" lon="5.3697232">
<ele>1056.06</ele>
<time>2019-07-25T12:00:58Z</time>
</trkpt>
<trkpt lat="44.8957932" lon="5.3697229">
<ele>1056.08</ele>
<time>2019-07-25T12:00:59Z</time>
</trkpt>
<trkpt lat="44.8957934" lon="5.3697229">
<ele>1056.24</ele>
<time>2019-07-25T12:01:00Z</time>
</trkpt>
<trkpt lat="44.8957930" lon="5.3697208">
<ele>1056.26</ele>
<time>2019-07-25T12:01:01Z</time>
</trkpt>
<trkpt lat="44.8957940" lon="5.3697209">
<ele>1056.41</ele>
<time>2019-07-25T12:01:02Z</time>
</trkpt>
<trkpt lat="44.8957949" lon="5.3697215">
<ele>1056.43</ele>
<time>2019-07-25T12:01:03Z</time>
</trkpt>
<trkpt lat="44.8957945" lon="5.3697216">
<ele>1056.45</ele>
<time>2019-07-25T12:01:04Z</time>
</trkpt>
<trkpt lat="44.8957940" lon="5.3697216">
<ele>1056.46</ele>
<time>2019-07-25T12:01:05Z</time>
</trkpt>
<trkpt lat="44.8957932" lon="5.3697214">
<ele>1056.48</ele>
<time>2019-07-25T12:01:06Z</time>
</trkpt>
<trkpt lat="44.8957923" lon="5.3697212">
<ele>1056.49</ele>
<time>2019-07-25T12:01:07Z</time>
</trkpt>
<trkpt lat="44.8957915" lon="5.3697210">
<ele>1056.50</ele>
<time>2019-07-25T12:01:08Z</time>
</trkpt>
<trkpt lat="44.8957903" lon="5.3697208">
<ele>1056.52</ele>
<time>2019-07-25T12:01:09Z</time>
</trkpt>
<trkpt lat="44.8957891" lon="5.3697204">
<ele>1056.53</ele>
<time>2019-07-25T12:01:10Z</time>
</trkpt>
<trkpt lat="44.8957836" lon="5.3697182">
<ele>1056.54</ele>
<time>2019-07-25T12:01:11Z</time>
</trkpt>
<trkpt lat="44.8957801" lon="5.3697159">
<ele>1056.56</ele>
<time>2019-07-25T12:01:12Z</time>
</trkpt>
<trkpt lat="44.8957790" lon="5.3697151">
<ele>1056.57</ele>
<time>2019-07-25T12:01:13Z</time>
</trkpt>
<trkpt lat="44.8957788" lon="5.3697149">
<ele>1056.58</ele>
<time>2019-07-25T12:01:14Z</time>
</trkpt>
<trkpt lat="44.8957790" lon="5.3697151">
<ele>1056.59</ele>
<time>2019-07-25T12:01:15Z</time>
</trkpt>
<trkpt lat="44.8957796" lon="5.3697157">
<ele>1056.60</ele>
<time>2019-07-25T12:01:16Z</time>
</trkpt>
<trkpt lat="44.8957805" lon="5.3697165">
<ele>1056.61</ele>
<time>2019-07-25T12:01:17Z</time>
</trkpt>
<trkpt lat="44.8957817" lon="5.3697175">
<ele>1056.61</ele>
<time>2019-07-25T12:01:18Z</time>
</trkpt>
<trkpt lat="44.8957826" lon="5.3697184">
<ele>1056.62</ele>
<time>2019-07-25T12:01:19Z</time>
</trkpt>
<trkpt lat="44.8957831" lon="5.3697189">
<ele>1056.63</ele>
<time>2019-07-25T12:01:20Z</time>
</trkpt>
<trkpt lat="44.8957836" lon="5.3697194">
<ele>1056.64</ele>
<time>2019-07-25T12:01:21Z</time>
</trkpt>
<trkpt lat="44.8957841" lon="5.3697200">
<ele>1056.65</ele>
<time>2019-07-25T12:01:22Z</time>
</trkpt>
<trkpt lat="44.8957842" lon="5.3697201">
<ele>1056.65</ele>
<time>2019-07-25T12:01:23Z</time>
</trkpt>
<trkpt lat="44.8957848" lon="5.3697211">
<ele>1056.66</ele>
<time>2019-07-25T12:01:24Z</time>
</trkpt>
<trkpt lat="44.8957845" lon="5.3697209">
<ele>1056.66</ele>
<time>2019-07-25T12:01:25Z</time>
</trkpt>
<trkpt lat="44.8957902" lon="5.3697271">
<ele>1056.72</ele>
<time>2019-07-25T12:01:26Z</time>
</trkpt>
<trkpt lat="44.8957897" lon="5.3697275">
<ele>1056.78</ele>
<time>2019-07-25T12:01:27Z</time>
</trkpt>
<trkpt lat="44.8957799" lon="5.3697227">
<ele>1056.83</ele>
<time>2019-07-25T12:01:28Z</time>
</trkpt>
<trkpt lat="44.8957697" lon="5.3697177">
<ele>1056.88</ele>
<time>2019-07-25T12:01:29Z</time>
</trkpt>
<trkpt lat="44.8957557" lon="5.3697118">
<ele>1056.92</ele>
<time>2019-07-25T12:01:30Z</time>
</trkpt>
<trkpt lat="44.8957458" lon="5.3697103">
<ele>1056.96</ele>
<time>2019-07-25T12:01:31Z</time>
</trkpt>
<trkpt lat="44.8957327" lon="5.3697061">
<ele>1056.99</ele>
<time>2019-07-25T12:01:32Z</time>
</trkpt>
<trkpt lat="44.8957226" lon="5.3697035">
<ele>1057.03</ele>
<time>2019-07-25T12:01:33Z</time>
</trkpt>
<trkpt lat="44.8957082" lon="5.3696983">
<ele>1057.06</ele>
<time>2019-07-25T12:01:34Z</time>
</trkpt>
<trkpt lat="44.8956966" lon="5.3696946">
<ele>1057.09</ele>
<time>2019-07-25T12:01:35Z</time>
</trkpt>
<trkpt lat="44.8956840" lon="5.3696833">
<ele>1057.13</ele>
<time>2019-07-25T12:01:36Z</time>
</trkpt>
<trkpt lat="44.8956745" lon="5.3696693">
<ele>1057.16</ele>
<time>2019-07-25T12:01:37Z</time>
</trkpt>
<trkpt lat="44.8956701" lon="5.3696564">
<ele>1057.19</ele>
<time>2019-07-25T12:01:38Z</time>
</trkpt>
<trkpt lat="44.8956720" lon="5.3696569">
<ele>1057.23</ele>
<time>2019-07-25T12:01:39Z</time>
</trkpt>
<trkpt lat="44.8956725" lon="5.3696578">
<ele>1057.25</ele>
<time>2019-07-25T12:01:40Z</time>
</trkpt>
<trkpt lat="44.8956684" lon="5.3696486">
<ele>1057.28</ele>
<time>2019-07-25T12:01:41Z</time>
</trkpt>
<trkpt lat="44.8956671" lon="5.3696397">
<ele>1057.31</ele>
<time>2019-07-25T12:01:42Z</time>
</trkpt>
<trkpt lat="44.8956687" lon="5.3696451">
<ele>1057.31</ele>
<time>2019-07-25T12:01:43Z</time>
</trkpt>
<trkpt lat="44.8956688" lon="5.3696449">
<ele>1057.31</ele>
<time>2019-07-25T12:01:44Z</time>
</trkpt>
<trkpt lat="44.8956695" lon="5.3696482">
<ele>1057.31</ele>
<time>2019-07-25T12:01:45Z</time>
</trkpt>
<trkpt lat="44.8956699" lon="5.3696481">
<ele>1057.31</ele>
<time>2019-07-25T12:01:46Z</time>
</trkpt>
<trkpt lat="44.8956706" lon="5.3696486">
<ele>1057.32</ele>
<time>2019-07-25T12:01:47Z</time>
</trkpt>
<trkpt lat="44.8956712" lon="5.3696486">
<ele>1057.32</ele>
<time>2019-07-25T12:01:48Z</time>
</trkpt>
<trkpt lat="44.8956732" lon="5.3696481">
<ele>1057.32</ele>
<time>2019-07-25T12:01:49Z</time>
</trkpt>
<trkpt lat="44.8956735" lon="5.3696486">
<ele>1057.32</ele>
<time>2019-07-25T12:01:50Z</time>
</trkpt>
<trkpt lat="44.8956734" lon="5.3696486">
<ele>1057.32</ele>
<time>2019-07-25T12:01:51Z</time>
</trkpt>
<trkpt lat="44.8956742" lon="5.3696486">
<ele>1057.32</ele>
<time>2019-07-25T12:01:52Z</time>
</trkpt>
<trkpt lat="44.8956753" lon="5.3696489">
<ele>1057.32</ele>
<time>2019-07-25T12:01:53Z</time>
</trkpt>
<trkpt lat="44.8956759" lon="5.3696502">
<ele>1057.34</ele>
<time>2019-07-25T12:01:54Z</time>
</trkpt>
<trkpt lat="44.8956761" lon="5.3696507">
<ele>1057.35</ele>
<time>2019-07-25T12:01:55Z</time>
</trkpt>
<trkpt lat="44.8956759" lon="5.3696512">
<ele>1057.36</ele>
<time>2019-07-25T12:01:56Z</time>
</trkpt>
<trkpt lat="44.8956770" lon="5.3696520">
<ele>1057.36</ele>
<time>2019-07-25T12:01:57Z</time>
</trkpt>
<trkpt lat="44.8956786" lon="5.3696527">
<ele>1057.38</ele>
<time>2019-07-25T12:01:58Z</time>
</trkpt>
<trkpt lat="44.8956786" lon="5.3696478">
<ele>1057.38</ele>
<time>2019-07-25T12:01:59Z</time>
</trkpt>
<trkpt lat="44.8956769" lon="5.3696472">
<ele>1057.39</ele>
<time>2019-07-25T12:02:00Z</time>
</trkpt>
<trkpt lat="44.8956769" lon="5.3696515">
<ele>1057.40</ele>
<time>2019-07-25T12:02:01Z</time>
</trkpt>
<trkpt lat="44.8956752" lon="5.3696573">
<ele>1057.40</ele>
<time>2019-07-25T12:02:02Z</time>
</trkpt>
<trkpt lat="44.8956710" lon="5.3696679">
<ele>1057.41</ele>
<time>2019-07-25T12:02:03Z</time>
</trkpt>
<trkpt lat="44.8956645" lon="5.3696762">
<ele>1057.42</ele>
<time>2019-07-25T12:02:04Z</time>
</trkpt>
<trkpt lat="44.8956625" lon="5.3696894">
<ele>1057.44</ele>
<time>2019-07-25T12:02:05Z</time>
</trkpt>
<trkpt lat="44.8956560" lon="5.3697030">
<ele>1057.46</ele>
<time>2019-07-25T12:02:06Z</time>
</trkpt>
<trkpt lat="44.8956452" lon="5.3697189">
<ele>1057.48</ele>
<time>2019-07-25T12:02:07Z</time>
</trkpt>
<trkpt lat="44.8956304" lon="5.3697346">
<ele>1057.50</ele>
<time>2019-07-25T12:02:08Z</time>
</trkpt>
<trkpt lat="44.8956192" lon="5.3697468">
<ele>1057.53</ele>
<time>2019-07-25T12:02:09Z</time>
</trkpt>
<trkpt lat="44.8956047" lon="5.3697612">
<ele>1057.55</ele>
<time>2019-07-25T12:02:10Z</time>
</trkpt>
<trkpt lat="44.8955949" lon="5.3697708">
<ele>1057.57</ele>
<time>2019-07-25T12:02:11Z</time>
</trkpt>
<trkpt lat="44.8955803" lon="5.3697892">
<ele>1057.59</ele>
<time>2019-07-25T12:02:12Z</time>
</trkpt>
<trkpt lat="44.8955715" lon="5.3698021">
<ele>1057.61</ele>
<time>2019-07-25T12:02:13Z</time>
</trkpt>
<trkpt lat="44.8955629" lon="5.3698115">
<ele>1057.63</ele>
<time>2019-07-25T12:02:14Z</time>
</trkpt>
<trkpt lat="44.8955547" lon="5.3698254">
<ele>1057.65</ele>
<time>2019-07-25T12:02:15Z</time>
</trkpt>
<trkpt lat="44.8955481" lon="5.3698346">
<ele>1057.67</ele>
<time>2019-07-25T12:02:16Z</time>
</trkpt>
<trkpt lat="44.8955438" lon="5.3698397">
<ele>1057.69</ele>
<time>2019-07-25T12:02:17Z</time>
</trkpt>
<trkpt lat="44.8955351" lon="5.3698516">
<ele>1057.71</ele>
<time>2019-07-25T12:02:18Z</time>
</trkpt>
<trkpt lat="44.8955334" lon="5.3698587">
<ele>1057.73</ele>
<time>2019-07-25T12:02:19Z</time>
</trkpt>
<trkpt lat="44.8955344" lon="5.3698684">
<ele>1057.75</ele>
<time>2019-07-25T12:02:20Z</time>
</trkpt>
<trkpt lat="44.8955326" lon="5.3698806">
<ele>1057.77</ele>
<time>2019-07-25T12:02:21Z</time>
</trkpt>
<trkpt lat="44.8955311" lon="5.3698835">
<ele>1057.77</ele>
<time>2019-07-25T12:02:22Z</time>
</trkpt>
<trkpt lat="44.8955161" lon="5.3699118">
<ele>1057.78</ele>
<time>2019-07-25T12:02:23Z</time>
</trkpt>
<trkpt lat="44.8955202" lon="5.3699149">
<ele>1057.79</ele>
<time>2019-07-25T12:02:24Z</time>
</trkpt>
<trkpt lat="44.8955200" lon="5.3699192">
<ele>1057.79</ele>
<time>2019-07-25T12:02:25Z</time>
</trkpt>
<trkpt lat="44.8955200" lon="5.3699194">
<ele>1057.79</ele>
<time>2019-07-25T12:02:26Z</time>
</trkpt>
<trkpt lat="44.8955213" lon="5.3699232">
<ele>1057.80</ele>
<time>2019-07-25T12:02:27Z</time>
</trkpt>
<trkpt lat="44.8955251" lon="5.3699191">
<ele>1057.80</ele>
<time>2019-07-25T12:02:28Z</time>
</trkpt>
<trkpt lat="44.8955272" lon="5.3699074">
<ele>1057.81</ele>
<time>2019-07-25T12:02:29Z</time>
</trkpt>
<trkpt lat="44.8955259" lon="5.3698986">
<ele>1057.80</ele>
<time>2019-07-25T12:02:30Z</time>
</trkpt>
<trkpt lat="44.8955239" lon="5.3698959">
<ele>1057.80</ele>
<time>2019-07-25T12:02:31Z</time>
</trkpt>
<trkpt lat="44.8955207" lon="5.3698976">
<ele>1057.80</ele>
<time>2019-07-25T12:02:32Z</time>
</trkpt>
<trkpt lat="44.8955175" lon="5.3698922">
<ele>1057.79</ele>
<time>2019-07-25T12:02:33Z</time>
</trkpt>
<trkpt lat="44.8955162" lon="5.3698891">
<ele>1057.79</ele>
<time>2019-07-25T12:02:34Z</time>
</trkpt>
<trkpt lat="44.8955214" lon="5.3698760">
<ele>1057.79</ele>
<time>2019-07-25T12:02:35Z</time>
</trkpt>
<trkpt lat="44.8955215" lon="5.3698745">
<ele>1057.79</ele>
<time>2019-07-25T12:02:36Z</time>
</trkpt>
<trkpt lat="44.8955212" lon="5.3698738">
<ele>1057.79</ele>
<time>2019-07-25T12:02:37Z</time>
</trkpt>
<trkpt lat="44.8955235" lon="5.3698611">
<ele>1057.79</ele>
<time>2019-07-25T12:02:38Z</time>
</trkpt>
<trkpt lat="44.8955051" lon="5.3698576">
<ele>1057.79</ele>
<time>2019-07-25T12:02:39Z</time>
</trkpt>
<trkpt lat="44.8954982" lon="5.3698635">
<ele>1057.79</ele>
<time>2019-07-25T12:02:40Z</time>
</trkpt>
<trkpt lat="44.8954980" lon="5.3698639">
<ele>1057.79</ele>
<time>2019-07-25T12:02:41Z</time>
</trkpt>
<trkpt lat="44.8954977" lon="5.3698635">
<ele>1057.79</ele>
<time>2019-07-25T12:02:42Z</time>
</trkpt>
<trkpt lat="44.8954977" lon="5.3698650">
<ele>1057.78</ele>
<time>2019-07-25T12:02:43Z</time>
</trkpt>
<trkpt lat="44.8954976" lon="5.3698624">
<ele>1057.78</ele>
<time>2019-07-25T12:02:44Z</time>
</trkpt>
<trkpt lat="44.8954976" lon="5.3698621">
<ele>1057.78</ele>
<time>2019-07-25T12:02:45Z</time>
</trkpt>
<trkpt lat="44.8954989" lon="5.3698668">
<ele>1057.77</ele>
<time>2019-07-25T12:02:46Z</time>
</trkpt>
<trkpt lat="44.8954977" lon="5.3698754">
<ele>1057.76</ele>
<time>2019-07-25T12:02:47Z</time>
</trkpt>
<trkpt lat="44.8954955" lon="5.3698856">
<ele>1057.74</ele>
<time>2019-07-25T12:02:48Z</time>
</trkpt>
<trkpt lat="44.8954935" lon="5.3698856">
<ele>1057.73</ele>
<time>2019-07-25T12:02:49Z</time>
</trkpt>
<trkpt lat="44.8954980" lon="5.3698842">
<ele>1057.73</ele>
<time>2019-07-25T12:02:50Z</time>
</trkpt>
<trkpt lat="44.8954988" lon="5.3698788">
<ele>1057.73</ele>
<time>2019-07-25T12:02:51Z</time>
</trkpt>
<trkpt lat="44.8954986" lon="5.3698791">
<ele>1057.71</ele>
<time>2019-07-25T12:02:52Z</time>
</trkpt>
<trkpt lat="44.8954985" lon="5.3698791">
<ele>1057.69</ele>
<time>2019-07-25T12:02:53Z</time>
</trkpt>
<trkpt lat="44.8955009" lon="5.3698809">
<ele>1057.68</ele>
<time>2019-07-25T12:02:54Z</time>
</trkpt>
<trkpt lat="44.8955025" lon="5.3698881">
<ele>1057.67</ele>
<time>2019-07-25T12:02:55Z</time>
</trkpt>
<trkpt lat="44.8955108" lon="5.3698969">
<ele>1057.66</ele>
<time>2019-07-25T12:02:56Z</time>
</trkpt>
<trkpt lat="44.8955156" lon="5.3698963">
<ele>1057.66</ele>
<time>2019-07-25T12:02:57Z</time>
</trkpt>
<trkpt lat="44.8955190" lon="5.3699071">
<ele>1057.66</ele>
<time>2019-07-25T12:02:58Z</time>
</trkpt>
<trkpt lat="44.8955200" lon="5.3699107">
<ele>1057.66</ele>
<time>2019-07-25T12:02:59Z</time>
</trkpt>
<trkpt lat="44.8955200" lon="5.3699111">
<ele>1057.66</ele>
<time>2019-07-25T12:03:00Z</time>
</trkpt>
<trkpt lat="44.8955200" lon="5.3699111">
<ele>1057.65</ele>
<time>2019-07-25T12:03:01Z</time>
</trkpt>
<trkpt lat="44.8955200" lon="5.3699110">
<ele>1057.65</ele>
<time>2019-07-25T12:03:02Z</time>
</trkpt>
<trkpt lat="44.8955201" lon="5.3699110">
<ele>1057.65</ele>
<time>2019-07-25T12:03:03Z</time>
</trkpt>
<trkpt lat="44.8955202" lon="5.3699111">
<ele>1057.65</ele>
<time>2019-07-25T12:03:04Z</time>
</trkpt>
<trkpt lat="44.8955202" lon="5.3699107">
<ele>1057.64</ele>
<time>2019-07-25T12:03:05Z</time>
</trkpt>
<trkpt lat="44.8955204" lon="5.3699105">
<ele>1057.64</ele>
<time>2019-07-25T12:03:06Z</time>
</trkpt>
<trkpt lat="44.8955204" lon="5.3699101">
<ele>1057.64</ele>
<time>2019-07-25T12:03:07Z</time>
</trkpt>
<trkpt lat="44.8955204" lon="5.3699099">
<ele>1057.64</ele>
<time>2019-07-25T12:03:08Z</time>
</trkpt>
<trkpt lat="44.8955204" lon="5.3699111">
<ele>1057.64</ele>
<time>2019-07-25T12:03:09Z</time>
</trkpt>
<trkpt lat="44.8955190" lon="5.3699136">
<ele>1057.64</ele>
<time>2019-07-25T12:03:10Z</time>
</trkpt>
<trkpt lat="44.8955188" lon="5.3699108">
<ele>1057.64</ele>
<time>2019-07-25T12:03:11Z</time>
</trkpt>
<trkpt lat="44.8955165" lon="5.3699095">
<ele>1057.64</ele>
<time>2019-07-25T12:03:12Z</time>
</trkpt>
<trkpt lat="44.8955167" lon="5.3699125">
<ele>1057.64</ele>
<time>2019-07-25T12:03:13Z</time>
</trkpt>
<trkpt lat="44.8955163" lon="5.3699199">
<ele>1057.63</ele>
<time>2019-07-25T12:03:14Z</time>
</trkpt>
<trkpt lat="44.8955141" lon="5.3699182">
<ele>1057.62</ele>
<time>2019-07-25T12:03:15Z</time>
</trkpt>
<trkpt lat="44.8955137" lon="5.3699178">
<ele>1057.62</ele>
<time>2019-07-25T12:03:16Z</time>
</trkpt>
<trkpt lat="44.8955124" lon="5.3699133">
<ele>1057.61</ele>
<time>2019-07-25T12:03:17Z</time>
</trkpt>
<trkpt lat="44.8955117" lon="5.3699090">
<ele>1057.61</ele>
<time>2019-07-25T12:03:18Z</time>
</trkpt>
<trkpt lat="44.8955112" lon="5.3698913">
<ele>1057.61</ele>
<time>2019-07-25T12:03:19Z</time>
</trkpt>
<trkpt lat="44.8955114" lon="5.3698894">
<ele>1057.61</ele>
<time>2019-07-25T12:03:20Z</time>
</trkpt>
<trkpt lat="44.8955122" lon="5.3698906">
<ele>1057.61</ele>
<time>2019-07-25T12:03:21Z</time>
</trkpt>
<trkpt lat="44.8955119" lon="5.3698919">
<ele>1057.61</ele>
<time>2019-07-25T12:03:22Z</time>
</trkpt>
<trkpt lat="44.8955135" lon="5.3698986">
<ele>1057.61</ele>
<time>2019-07-25T12:03:23Z</time>
</trkpt>
<trkpt lat="44.8955137" lon="5.3698989">
<ele>1057.61</ele>
<time>2019-07-25T12:03:24Z</time>
</trkpt>
<trkpt lat="44.8955138" lon="5.3698997">
<ele>1057.60</ele>
<time>2019-07-25T12:03:25Z</time>
</trkpt>
<trkpt lat="44.8955137" lon="5.3698996">
<ele>1057.60</ele>
<time>2019-07-25T12:03:26Z</time>
</trkpt>
<trkpt lat="44.8955137" lon="5.3698997">
<ele>1057.60</ele>
<time>2019-07-25T12:03:27Z</time>
</trkpt>
<trkpt lat="44.8955154" lon="5.3699053">
<ele>1057.59</ele>
<time>2019-07-25T12:03:28Z</time>
</trkpt>
<trkpt lat="44.8955151" lon="5.3699047">
<ele>1057.59</ele>
<time>2019-07-25T12:03:29Z</time>
</trkpt>
<trkpt lat="44.8955143" lon="5.3699093">
<ele>1057.59</ele>
<time>2019-07-25T12:03:30Z</time>
</trkpt>
<trkpt lat="44.8955142" lon="5.3699095">
<ele>1057.58</ele>
<time>2019-07-25T12:03:31Z</time>
</trkpt>
<trkpt lat="44.8955140" lon="5.3699101">
<ele>1057.58</ele>
<time>2019-07-25T12:03:32Z</time>
</trkpt>
<trkpt lat="44.8955135" lon="5.3699095">
<ele>1057.58</ele>
<time>2019-07-25T12:03:33Z</time>
</trkpt>
<trkpt lat="44.8955130" lon="5.3699088">
<ele>1057.58</ele>
<time>2019-07-25T12:03:34Z</time>
</trkpt>
<trkpt lat="44.8955123" lon="5.3699076">
<ele>1057.57</ele>
<time>2019-07-25T12:03:35Z</time>
</trkpt>
<trkpt lat="44.8955119" lon="5.3699071">
<ele>1057.57</ele>
<time>2019-07-25T12:03:36Z</time>
</trkpt>
<trkpt lat="44.8955114" lon="5.3699066">
<ele>1057.57</ele>
<time>2019-07-25T12:03:37Z</time>
</trkpt>
<trkpt lat="44.8955097" lon="5.3699041">
<ele>1057.56</ele>
<time>2019-07-25T12:03:38Z</time>
</trkpt>
<trkpt lat="44.8955065" lon="5.3698951">
<ele>1057.56</ele>
<time>2019-07-25T12:03:39Z</time>
</trkpt>
<trkpt lat="44.8955052" lon="5.3698972">
<ele>1057.56</ele>
<time>2019-07-25T12:03:40Z</time>
</trkpt>
<trkpt lat="44.8955075" lon="5.3698998">
<ele>1057.54</ele>
<time>2019-07-25T12:03:41Z</time>
</trkpt>
<trkpt lat="44.8955090" lon="5.3699015">
<ele>1057.54</ele>
<time>2019-07-25T12:03:42Z</time>
</trkpt>
<trkpt lat="44.8955109" lon="5.3699022">
<ele>1057.53</ele>
<time>2019-07-25T12:03:43Z</time>
</trkpt>
<trkpt lat="44.8955116" lon="5.3699020">
<ele>1057.53</ele>
<time>2019-07-25T12:03:44Z</time>
</trkpt>
<trkpt lat="44.8955118" lon="5.3699020">
<ele>1057.53</ele>
<time>2019-07-25T12:03:45Z</time>
</trkpt>
<trkpt lat="44.8955116" lon="5.3699006">
<ele>1057.53</ele>
<time>2019-07-25T12:03:46Z</time>
</trkpt>
<trkpt lat="44.8955121" lon="5.3698988">
<ele>1057.52</ele>
<time>2019-07-25T12:03:47Z</time>
</trkpt>
<trkpt lat="44.8955114" lon="5.3698998">
<ele>1057.52</ele>
<time>2019-07-25T12:03:48Z</time>
</trkpt>
<trkpt lat="44.8955115" lon="5.3698995">
<ele>1057.52</ele>
<time>2019-07-25T12:03:49Z</time>
</trkpt>
<trkpt lat="44.8955111" lon="5.3698996">
<ele>1057.52</ele>
<time>2019-07-25T12:03:50Z</time>
</trkpt>
<trkpt lat="44.8955112" lon="5.3698997">
<ele>1057.51</ele>
<time>2019-07-25T12:03:51Z</time>
</trkpt>
<trkpt lat="44.8955098" lon="5.3698990">
<ele>1057.50</ele>
<time>2019-07-25T12:03:52Z</time>
</trkpt>
<trkpt lat="44.8955095" lon="5.3698866">
<ele>1057.50</ele>
<time>2019-07-25T12:03:53Z</time>
</trkpt>
<trkpt lat="44.8955076" lon="5.3698857">
<ele>1057.50</ele>
<time>2019-07-25T12:03:54Z</time>
</trkpt>
<trkpt lat="44.8955077" lon="5.3698864">
<ele>1057.50</ele>
<time>2019-07-25T12:03:55Z</time>
</trkpt>
<trkpt lat="44.8955082" lon="5.3698871">
<ele>1057.50</ele>
<time>2019-07-25T12:03:56Z</time>
</trkpt>
<trkpt lat="44.8955085" lon="5.3698876">
<ele>1057.50</ele>
<time>2019-07-25T12:03:57Z</time>
</trkpt>
<trkpt lat="44.8955084" lon="5.3698881">
<ele>1057.50</ele>
<time>2019-07-25T12:03:58Z</time>
</trkpt>
<trkpt lat="44.8955090" lon="5.3698873">
<ele>1057.50</ele>
<time>2019-07-25T12:03:59Z</time>
</trkpt>
<trkpt lat="44.8955088" lon="5.3698839">
<ele>1057.50</ele>
<time>2019-07-25T12:04:00Z</time>
</trkpt>
<trkpt lat="44.8955070" lon="5.3698843">
<ele>1057.50</ele>
<time>2019-07-25T12:04:01Z</time>
</trkpt>
<trkpt lat="44.8955078" lon="5.3698897">
<ele>1057.49</ele>
<time>2019-07-25T12:04:02Z</time>
</trkpt>
<trkpt lat="44.8955090" lon="5.3699008">
<ele>1057.50</ele>
<time>2019-07-25T12:04:03Z</time>
</trkpt>
<trkpt lat="44.8955089" lon="5.3698946">
<ele>1057.50</ele>
<time>2019-07-25T12:04:04Z</time>
</trkpt>
<trkpt lat="44.8955099" lon="5.3698917">
<ele>1057.50</ele>
<time>2019-07-25T12:04:05Z</time>
</trkpt>
<trkpt lat="44.8955106" lon="5.3698930">
<ele>1057.50</ele>
<time>2019-07-25T12:04:06Z</time>
</trkpt>
<trkpt lat="44.8955157" lon="5.3698828">
<ele>1057.50</ele>
<time>2019-07-25T12:04:07Z</time>
</trkpt>
<trkpt lat="44.8955196" lon="5.3698926">
<ele>1057.51</ele>
<time>2019-07-25T12:04:08Z</time>
</trkpt>
<trkpt lat="44.8955189" lon="5.3698979">
<ele>1057.52</ele>
<time>2019-07-25T12:04:09Z</time>
</trkpt>
<trkpt lat="44.8955172" lon="5.3699039">
<ele>1057.53</ele>
<time>2019-07-25T12:04:10Z</time>
</trkpt>
<trkpt lat="44.8955118" lon="5.3699031">
<ele>1057.53</ele>
<time>2019-07-25T12:04:11Z</time>
</trkpt>
<trkpt lat="44.8955119" lon="5.3698779">
<ele>1057.54</ele>
<time>2019-07-25T12:04:12Z</time>
</trkpt>
<trkpt lat="44.8955257" lon="5.3698596">
<ele>1057.55</ele>
<time>2019-07-25T12:04:13Z</time>
</trkpt>
<trkpt lat="44.8955359" lon="5.3698563">
<ele>1057.56</ele>
<time>2019-07-25T12:04:14Z</time>
</trkpt>
<trkpt lat="44.8955489" lon="5.3698366">
<ele>1057.56</ele>
<time>2019-07-25T12:04:15Z</time>
</trkpt>
<trkpt lat="44.8955637" lon="5.3698364">
<ele>1057.57</ele>
<time>2019-07-25T12:04:16Z</time>
</trkpt>
<trkpt lat="44.8955689" lon="5.3698172">
<ele>1057.57</ele>
<time>2019-07-25T12:04:17Z</time>
</trkpt>
<trkpt lat="44.8955780" lon="5.3697830">
<ele>1057.59</ele>
<time>2019-07-25T12:04:18Z</time>
</trkpt>
<trkpt lat="44.8955853" lon="5.3697577">
<ele>1057.60</ele>
<time>2019-07-25T12:04:19Z</time>
</trkpt>
<trkpt lat="44.8955969" lon="5.3697327">
<ele>1057.62</ele>
<time>2019-07-25T12:04:20Z</time>
</trkpt>
<trkpt lat="44.8956139" lon="5.3697247">
<ele>1057.63</ele>
<time>2019-07-25T12:04:21Z</time>
</trkpt>
<trkpt lat="44.8956351" lon="5.3697433">
<ele>1057.64</ele>
<time>2019-07-25T12:04:22Z</time>
</trkpt>
<trkpt lat="44.8956442" lon="5.3697525">
<ele>1057.65</ele>
<time>2019-07-25T12:04:23Z</time>
</trkpt>
<trkpt lat="44.8956524" lon="5.3697449">
<ele>1057.67</ele>
<time>2019-07-25T12:04:24Z</time>
</trkpt>
<trkpt lat="44.8956573" lon="5.3697400">
<ele>1057.68</ele>
<time>2019-07-25T12:04:25Z</time>
</trkpt>
<trkpt lat="44.8956647" lon="5.3697166">
<ele>1057.69</ele>
<time>2019-07-25T12:04:26Z</time>
</trkpt>
<trkpt lat="44.8956712" lon="5.3696986">
<ele>1057.70</ele>
<time>2019-07-25T12:04:27Z</time>
</trkpt>
<trkpt lat="44.8956814" lon="5.3696760">
<ele>1057.71</ele>
<time>2019-07-25T12:04:28Z</time>
</trkpt>
<trkpt lat="44.8956883" lon="5.3696560">
<ele>1057.72</ele>
<time>2019-07-25T12:04:29Z</time>
</trkpt>
<trkpt lat="44.8956945" lon="5.3696369">
<ele>1057.74</ele>
<time>2019-07-25T12:04:30Z</time>
</trkpt>
<trkpt lat="44.8957003" lon="5.3696236">
<ele>1057.75</ele>
<time>2019-07-25T12:04:31Z</time>
</trkpt>
<trkpt lat="44.8957041" lon="5.3696165">
<ele>1057.77</ele>
<time>2019-07-25T12:04:32Z</time>
</trkpt>
<trkpt lat="44.8957122" lon="5.3695942">
<ele>1057.78</ele>
<time>2019-07-25T12:04:33Z</time>
</trkpt>
<trkpt lat="44.8957180" lon="5.3695779">
<ele>1057.80</ele>
<time>2019-07-25T12:04:34Z</time>
</trkpt>
<trkpt lat="44.8957180" lon="5.3695759">
<ele>1057.82</ele>
<time>2019-07-25T12:04:35Z</time>
</trkpt>
<trkpt lat="44.8957188" lon="5.3695711">
<ele>1057.84</ele>
<time>2019-07-25T12:04:36Z</time>
</trkpt>
<trkpt lat="44.8957178" lon="5.3695687">
<ele>1057.87</ele>
<time>2019-07-25T12:04:37Z</time>
</trkpt>
<trkpt lat="44.8957126" lon="5.3695721">
<ele>1057.90</ele>
<time>2019-07-25T12:04:38Z</time>
</trkpt>
<trkpt lat="44.8957088" lon="5.3695738">
<ele>1057.92</ele>
<time>2019-07-25T12:04:39Z</time>
</trkpt>
<trkpt lat="44.8957048" lon="5.3695811">
<ele>1057.92</ele>
<time>2019-07-25T12:04:40Z</time>
</trkpt>
<trkpt lat="44.8957019" lon="5.3695881">
<ele>1057.92</ele>
<time>2019-07-25T12:04:41Z</time>
</trkpt>
<trkpt lat="44.8956985" lon="5.3695946">
<ele>1057.94</ele>
<time>2019-07-25T12:04:42Z</time>
</trkpt>
<trkpt lat="44.8956966" lon="5.3695954">
<ele>1057.94</ele>
<time>2019-07-25T12:04:43Z</time>
</trkpt>
<trkpt lat="44.8956967" lon="5.3695950">
<ele>1057.94</ele>
<time>2019-07-25T12:04:44Z</time>
</trkpt>
<trkpt lat="44.8956963" lon="5.3695962">
<ele>1057.94</ele>
<time>2019-07-25T12:04:45Z</time>
</trkpt>
<trkpt lat="44.8956963" lon="5.3695963">
<ele>1057.94</ele>
<time>2019-07-25T12:04:46Z</time>
</trkpt>
<trkpt lat="44.8956964" lon="5.3695959">
<ele>1057.94</ele>
<time>2019-07-25T12:04:47Z</time>
</trkpt>
<trkpt lat="44.8956965" lon="5.3695958">
<ele>1057.95</ele>
<time>2019-07-25T12:04:48Z</time>
</trkpt>
<trkpt lat="44.8956966" lon="5.3695955">
<ele>1057.95</ele>
<time>2019-07-25T12:04:49Z</time>
</trkpt>
<trkpt lat="44.8956968" lon="5.3695950">
<ele>1057.95</ele>
<time>2019-07-25T12:04:50Z</time>
</trkpt>
<trkpt lat="44.8956970" lon="5.3695945">
<ele>1057.95</ele>
<time>2019-07-25T12:04:51Z</time>
</trkpt>
<trkpt lat="44.8956971" lon="5.3695943">
<ele>1057.96</ele>
<time>2019-07-25T12:04:52Z</time>
</trkpt>
<trkpt lat="44.8956970" lon="5.3695944">
<ele>1057.96</ele>
<time>2019-07-25T12:04:53Z</time>
</trkpt>
<trkpt lat="44.8956971" lon="5.3695941">
<ele>1057.96</ele>
<time>2019-07-25T12:04:54Z</time>
</trkpt>
<trkpt lat="44.8956981" lon="5.3695918">
<ele>1057.97</ele>
<time>2019-07-25T12:04:55Z</time>
</trkpt>
<trkpt lat="44.8956984" lon="5.3695911">
<ele>1057.97</ele>
<time>2019-07-25T12:04:56Z</time>
</trkpt>
<trkpt lat="44.8956988" lon="5.3695900">
<ele>1057.97</ele>
<time>2019-07-25T12:04:57Z</time>
</trkpt>
<trkpt lat="44.8956988" lon="5.3695900">
<ele>1057.97</ele>
<time>2019-07-25T12:04:58Z</time>
</trkpt>
<trkpt lat="44.8956989" lon="5.3695899">
<ele>1057.98</ele>
<time>2019-07-25T12:04:59Z</time>
</trkpt>
<trkpt lat="44.8956988" lon="5.3695901">
<ele>1057.98</ele>
<time>2019-07-25T12:05:00Z</time>
</trkpt>
<trkpt lat="44.8956990" lon="5.3695898">
<ele>1057.98</ele>
<time>2019-07-25T12:05:01Z</time>
</trkpt>
<trkpt lat="44.8956991" lon="5.3695896">
<ele>1057.99</ele>
<time>2019-07-25T12:05:02Z</time>
</trkpt>
<trkpt lat="44.8956992" lon="5.3695894">
<ele>1057.99</ele>
<time>2019-07-25T12:05:03Z</time>
</trkpt>
<trkpt lat="44.8956993" lon="5.3695894">
<ele>1057.99</ele>
<time>2019-07-25T12:05:04Z</time>
</trkpt>
<trkpt lat="44.8956992" lon="5.3695895">
<ele>1058.00</ele>
<time>2019-07-25T12:05:05Z</time>
</trkpt>
<trkpt lat="44.8956993" lon="5.3695894">
<ele>1058.00</ele>
<time>2019-07-25T12:05:06Z</time>
</trkpt>
<trkpt lat="44.8956994" lon="5.3695892">
<ele>1058.01</ele>
<time>2019-07-25T12:05:07Z</time>
</trkpt>
<trkpt lat="44.8956995" lon="5.3695891">
<ele>1058.01</ele>
<time>2019-07-25T12:05:08Z</time>
</trkpt>
<trkpt lat="44.8956997" lon="5.3695888">
<ele>1058.01</ele>
<time>2019-07-25T12:05:09Z</time>
</trkpt>
<trkpt lat="44.8956997" lon="5.3695888">
<ele>1058.02</ele>
<time>2019-07-25T12:05:10Z</time>
</trkpt>
<trkpt lat="44.8956997" lon="5.3695889">
<ele>1058.02</ele>
<time>2019-07-25T12:05:11Z</time>
</trkpt>
<trkpt lat="44.8956998" lon="5.3695888">
<ele>1058.02</ele>
<time>2019-07-25T12:05:12Z</time>
</trkpt>
<trkpt lat="44.8956998" lon="5.3695889">
<ele>1058.03</ele>
<time>2019-07-25T12:05:13Z</time>
</trkpt>
<trkpt lat="44.8956999" lon="5.3695888">
<ele>1058.03</ele>
<time>2019-07-25T12:05:14Z</time>
</trkpt>
<trkpt lat="44.8956998" lon="5.3695888">
<ele>1058.03</ele>
<time>2019-07-25T12:05:15Z</time>
</trkpt>
<trkpt lat="44.8956999" lon="5.3695887">
<ele>1058.03</ele>
<time>2019-07-25T12:05:16Z</time>
</trkpt>
<trkpt lat="44.8957000" lon="5.3695884">
<ele>1058.04</ele>
<time>2019-07-25T12:05:17Z</time>
</trkpt>
<trkpt lat="44.8957002" lon="5.3695881">
<ele>1058.04</ele>
<time>2019-07-25T12:05:18Z</time>
</trkpt>
<trkpt lat="44.8957001" lon="5.3695883">
<ele>1058.04</ele>
<time>2019-07-25T12:05:19Z</time>
</trkpt>
<trkpt lat="44.8957000" lon="5.3695885">
<ele>1058.05</ele>
<time>2019-07-25T12:05:20Z</time>
</trkpt>
<trkpt lat="44.8957002" lon="5.3695884">
<ele>1058.05</ele>
<time>2019-07-25T12:05:21Z</time>
</trkpt>
<trkpt lat="44.8957001" lon="5.3695884">
<ele>1058.05</ele>
<time>2019-07-25T12:05:22Z</time>
</trkpt>
<trkpt lat="44.8957003" lon="5.3695880">
<ele>1058.06</ele>
<time>2019-07-25T12:05:23Z</time>
</trkpt>
<trkpt lat="44.8957006" lon="5.3695872">
<ele>1058.06</ele>
<time>2019-07-25T12:05:24Z</time>
</trkpt>
<trkpt lat="44.8957007" lon="5.3695881">
<ele>1058.06</ele>
<time>2019-07-25T12:05:25Z</time>
</trkpt>
<trkpt lat="44.8957014" lon="5.3695902">
<ele>1058.07</ele>
<time>2019-07-25T12:05:26Z</time>
</trkpt>
<trkpt lat="44.8957006" lon="5.3695946">
<ele>1058.07</ele>
<time>2019-07-25T12:05:27Z</time>
</trkpt>
<trkpt lat="44.8957002" lon="5.3695990">
<ele>1058.07</ele>
<time>2019-07-25T12:05:28Z</time>
</trkpt>
<trkpt lat="44.8957001" lon="5.3695995">
<ele>1058.08</ele>
<time>2019-07-25T12:05:29Z</time>
</trkpt>
<trkpt lat="44.8957003" lon="5.3695991">
<ele>1058.08</ele>
<time>2019-07-25T12:05:30Z</time>
</trkpt>
<trkpt lat="44.8957004" lon="5.3695990">
<ele>1058.09</ele>
<time>2019-07-25T12:05:31Z</time>
</trkpt>
<trkpt lat="44.8957006" lon="5.3695986">
<ele>1058.09</ele>
<time>2019-07-25T12:05:32Z</time>
</trkpt>
<trkpt lat="44.8957009" lon="5.3695978">
<ele>1058.10</ele>
<time>2019-07-25T12:05:33Z</time>
</trkpt>
<trkpt lat="44.8957011" lon="5.3695970">
<ele>1058.10</ele>
<time>2019-07-25T12:05:34Z</time>
</trkpt>
<trkpt lat="44.8957013" lon="5.3695965">
<ele>1058.11</ele>
<time>2019-07-25T12:05:35Z</time>
</trkpt>
<trkpt lat="44.8957016" lon="5.3695959">
<ele>1058.11</ele>
<time>2019-07-25T12:05:36Z</time>
</trkpt>
<trkpt lat="44.8957015" lon="5.3695965">
<ele>1058.12</ele>
<time>2019-07-25T12:05:37Z</time>
</trkpt>
<trkpt lat="44.8957019" lon="5.3695929">
<ele>1058.12</ele>
<time>2019-07-25T12:05:38Z</time>
</trkpt>
<trkpt lat="44.8956988" lon="5.3695977">
<ele>1058.16</ele>
<time>2019-07-25T12:05:39Z</time>
</trkpt>
<trkpt lat="44.8956992" lon="5.3695968">
<ele>1058.17</ele>
<time>2019-07-25T12:05:40Z</time>
</trkpt>
<trkpt lat="44.8956990" lon="5.3695972">
<ele>1058.17</ele>
<time>2019-07-25T12:05:41Z</time>
</trkpt>
<trkpt lat="44.8956988" lon="5.3695974">
<ele>1058.17</ele>
<time>2019-07-25T12:05:42Z</time>
</trkpt>
<trkpt lat="44.8956986" lon="5.3695975">
<ele>1058.18</ele>
<time>2019-07-25T12:05:43Z</time>
</trkpt>
<trkpt lat="44.8956985" lon="5.3695974">
<ele>1058.18</ele>
<time>2019-07-25T12:05:44Z</time>
</trkpt>
<trkpt lat="44.8956987" lon="5.3695971">
<ele>1058.18</ele>
<time>2019-07-25T12:05:45Z</time>
</trkpt>
<trkpt lat="44.8956988" lon="5.3695966">
<ele>1058.18</ele>
<time>2019-07-25T12:05:46Z</time>
</trkpt>
<trkpt lat="44.8956992" lon="5.3695956">
<ele>1058.19</ele>
<time>2019-07-25T12:05:47Z</time>
</trkpt>
<trkpt lat="44.8956993" lon="5.3695951">
<ele>1058.19</ele>
<time>2019-07-25T12:05:48Z</time>
</trkpt>
<trkpt lat="44.8956995" lon="5.3695944">
<ele>1058.19</ele>
<time>2019-07-25T12:05:49Z</time>
</trkpt>
<trkpt lat="44.8956995" lon="5.3695943">
<ele>1058.19</ele>
<time>2019-07-25T12:05:50Z</time>
</trkpt>
<trkpt lat="44.8956994" lon="5.3695944">
<ele>1058.19</ele>
<time>2019-07-25T12:05:51Z</time>
</trkpt>
<trkpt lat="44.8956995" lon="5.3695942">
<ele>1058.19</ele>
<time>2019-07-25T12:05:52Z</time>
</trkpt>
<trkpt lat="44.8956994" lon="5.3695944">
<ele>1058.19</ele>
<time>2019-07-25T12:05:53Z</time>
</trkpt>
<trkpt lat="44.8956995" lon="5.3695941">
<ele>1058.19</ele>
<time>2019-07-25T12:05:54Z</time>
</trkpt>
<trkpt lat="44.8956995" lon="5.3695939">
<ele>1058.19</ele>
<time>2019-07-25T12:05:55Z</time>
</trkpt>
<trkpt lat="44.8956996" lon="5.3695936">
<ele>1058.19</ele>
<time>2019-07-25T12:05:56Z</time>
</trkpt>
<trkpt lat="44.8956997" lon="5.3695935">
<ele>1058.19</ele>
<time>2019-07-25T12:05:57Z</time>
</trkpt>
<trkpt lat="44.8956996" lon="5.3695936">
<ele>1058.19</ele>
<time>2019-07-25T12:05:58Z</time>
</trkpt>
<trkpt lat="44.8956996" lon="5.3695937">
<ele>1058.19</ele>
<time>2019-07-25T12:05:59Z</time>
</trkpt>
<trkpt lat="44.8956995" lon="5.3695939">
<ele>1058.19</ele>
<time>2019-07-25T12:06:00Z</time>
</trkpt>
<trkpt lat="44.8956992" lon="5.3695944">
<ele>1058.19</ele>
<time>2019-07-25T12:06:01Z</time>
</trkpt>
<trkpt lat="44.8956987" lon="5.3695948">
<ele>1058.19</ele>
<time>2019-07-25T12:06:02Z</time>
</trkpt>
<trkpt lat="44.8956983" lon="5.3695956">
<ele>1058.19</ele>
<time>2019-07-25T12:06:03Z</time>
</trkpt>
<trkpt lat="44.8956985" lon="5.3695951">
<ele>1058.19</ele>
<time>2019-07-25T12:06:04Z</time>
</trkpt>
<trkpt lat="44.8956985" lon="5.3695950">
<ele>1058.19</ele>
<time>2019-07-25T12:06:05Z</time>
</trkpt>
<trkpt lat="44.8956987" lon="5.3695945">
<ele>1058.19</ele>
<time>2019-07-25T12:06:06Z</time>
</trkpt>
<trkpt lat="44.8956988" lon="5.3695942">
<ele>1058.19</ele>
<time>2019-07-25T12:06:07Z</time>
</trkpt>
<trkpt lat="44.8956988" lon="5.3695940">
<ele>1058.19</ele>
<time>2019-07-25T12:06:08Z</time>
</trkpt>
<trkpt lat="44.8956989" lon="5.3695939">
<ele>1058.19</ele>
<time>2019-07-25T12:06:09Z</time>
</trkpt>
<trkpt lat="44.8956988" lon="5.3695942">
<ele>1058.19</ele>
<time>2019-07-25T12:06:10Z</time>
</trkpt>
<trkpt lat="44.8956989" lon="5.3695941">
<ele>1058.18</ele>
<time>2019-07-25T12:06:11Z</time>
</trkpt>
<trkpt lat="44.8956991" lon="5.3695937">
<ele>1058.18</ele>
<time>2019-07-25T12:06:12Z</time>
</trkpt>
<trkpt lat="44.8956995" lon="5.3695927">
<ele>1058.18</ele>
<time>2019-07-25T12:06:13Z</time>
</trkpt>
<trkpt lat="44.8956997" lon="5.3695921">
<ele>1058.18</ele>
<time>2019-07-25T12:06:14Z</time>
</trkpt>
<trkpt lat="44.8957000" lon="5.3695913">
<ele>1058.18</ele>
<time>2019-07-25T12:06:15Z</time>
</trkpt>
<trkpt lat="44.8956999" lon="5.3695913">
<ele>1058.18</ele>
<time>2019-07-25T12:06:16Z</time>
</trkpt>
<trkpt lat="44.8956999" lon="5.3695913">
<ele>1058.18</ele>
<time>2019-07-25T12:06:17Z</time>
</trkpt>
<trkpt lat="44.8956999" lon="5.3695913">
<ele>1058.18</ele>
<time>2019-07-25T12:06:18Z</time>
</trkpt>
<trkpt lat="44.8956999" lon="5.3695913">
<ele>1058.18</ele>
<time>2019-07-25T12:06:19Z</time>
</trkpt>
<trkpt lat="44.8956999" lon="5.3695915">
<ele>1058.18</ele>
<time>2019-07-25T12:06:20Z</time>
</trkpt>
<trkpt lat="44.8956998" lon="5.3695917">
<ele>1058.18</ele>
<time>2019-07-25T12:06:21Z</time>
</trkpt>
<trkpt lat="44.8956997" lon="5.3695920">
<ele>1058.18</ele>
<time>2019-07-25T12:06:22Z</time>
</trkpt>
<trkpt lat="44.8956997" lon="5.3695920">
<ele>1058.18</ele>
<time>2019-07-25T12:06:23Z</time>
</trkpt>
<trkpt lat="44.8956996" lon="5.3695924">
<ele>1058.17</ele>
<time>2019-07-25T12:06:24Z</time>
</trkpt>
<trkpt lat="44.8956996" lon="5.3695925">
<ele>1058.17</ele>
<time>2019-07-25T12:06:25Z</time>
</trkpt>
<trkpt lat="44.8956997" lon="5.3695922">
<ele>1058.17</ele>
<time>2019-07-25T12:06:26Z</time>
</trkpt>
<trkpt lat="44.8956997" lon="5.3695919">
<ele>1058.17</ele>
<time>2019-07-25T12:06:27Z</time>
</trkpt>
<trkpt lat="44.8956997" lon="5.3695919">
<ele>1058.17</ele>
<time>2019-07-25T12:06:28Z</time>
</trkpt>
<trkpt lat="44.8956999" lon="5.3695915">
<ele>1058.17</ele>
<time>2019-07-25T12:06:29Z</time>
</trkpt>
<trkpt lat="44.8957000" lon="5.3695912">
<ele>1058.17</ele>
<time>2019-07-25T12:06:30Z</time>
</trkpt>
<trkpt lat="44.8957002" lon="5.3695908">
<ele>1058.17</ele>
<time>2019-07-25T12:06:31Z</time>
</trkpt>
<trkpt lat="44.8957003" lon="5.3695907">
<ele>1058.17</ele>
<time>2019-07-25T12:06:32Z</time>
</trkpt>
<trkpt lat="44.8957003" lon="5.3695907">
<ele>1058.17</ele>
<time>2019-07-25T12:06:33Z</time>
</trkpt>
<trkpt lat="44.8957003" lon="5.3695906">
<ele>1058.17</ele>
<time>2019-07-25T12:06:34Z</time>
</trkpt>
<trkpt lat="44.8957004" lon="5.3695904">
<ele>1058.17</ele>
<time>2019-07-25T12:06:35Z</time>
</trkpt>
<trkpt lat="44.8957005" lon="5.3695901">
<ele>1058.16</ele>
<time>2019-07-25T12:06:36Z</time>
</trkpt>
<trkpt lat="44.8957006" lon="5.3695900">
<ele>1058.16</ele>
<time>2019-07-25T12:06:37Z</time>
</trkpt>
<trkpt lat="44.8957016" lon="5.3695874">
<ele>1058.16</ele>
<time>2019-07-25T12:06:38Z</time>
</trkpt>
<trkpt lat="44.8957028" lon="5.3695832">
<ele>1058.16</ele>
<time>2019-07-25T12:06:39Z</time>
</trkpt>
<trkpt lat="44.8957023" lon="5.3695846">
<ele>1058.16</ele>
<time>2019-07-25T12:06:40Z</time>
</trkpt>
<trkpt lat="44.8957007" lon="5.3695865">
<ele>1058.16</ele>
<time>2019-07-25T12:06:41Z</time>
</trkpt>
<trkpt lat="44.8957021" lon="5.3695811">
<ele>1058.16</ele>
<time>2019-07-25T12:06:42Z</time>
</trkpt>
<trkpt lat="44.8957020" lon="5.3695812">
<ele>1058.15</ele>
<time>2019-07-25T12:06:43Z</time>
</trkpt>
<trkpt lat="44.8957021" lon="5.3695810">
<ele>1058.15</ele>
<time>2019-07-25T12:06:44Z</time>
</trkpt>
<trkpt lat="44.8957024" lon="5.3695795">
<ele>1058.15</ele>
<time>2019-07-25T12:06:45Z</time>
</trkpt>
<trkpt lat="44.8957026" lon="5.3695791">
<ele>1058.15</ele>
<time>2019-07-25T12:06:46Z</time>
</trkpt>
<trkpt lat="44.8957029" lon="5.3695780">
<ele>1058.15</ele>
<time>2019-07-25T12:06:47Z</time>
</trkpt>
<trkpt lat="44.8957033" lon="5.3695772">
<ele>1058.15</ele>
<time>2019-07-25T12:06:48Z</time>
</trkpt>
<trkpt lat="44.8957036" lon="5.3695759">
<ele>1058.14</ele>
<time>2019-07-25T12:06:49Z</time>
</trkpt>
<trkpt lat="44.8957041" lon="5.3695726">
<ele>1058.14</ele>
<time>2019-07-25T12:06:50Z</time>
</trkpt>
<trkpt lat="44.8957057" lon="5.3695678">
<ele>1058.14</ele>
<time>2019-07-25T12:06:51Z</time>
</trkpt>
<trkpt lat="44.8957065" lon="5.3695654">
<ele>1058.14</ele>
<time>2019-07-25T12:06:52Z</time>
</trkpt>
<trkpt lat="44.8957071" lon="5.3695629">
<ele>1058.13</ele>
<time>2019-07-25T12:06:53Z</time>
</trkpt>
<trkpt lat="44.8957074" lon="5.3695620">
<ele>1058.13</ele>
<time>2019-07-25T12:06:54Z</time>
</trkpt>
<trkpt lat="44.8957079" lon="5.3695608">
<ele>1058.13</ele>
<time>2019-07-25T12:06:55Z</time>
</trkpt>
<trkpt lat="44.8957101" lon="5.3695498">
<ele>1058.13</ele>
<time>2019-07-25T12:06:56Z</time>
</trkpt>
<trkpt lat="44.8957088" lon="5.3695486">
<ele>1058.13</ele>
<time>2019-07-25T12:06:57Z</time>
</trkpt>
<trkpt lat="44.8957091" lon="5.3695452">
<ele>1058.12</ele>
<time>2019-07-25T12:06:58Z</time>
</trkpt>
<trkpt lat="44.8957114" lon="5.3695407">
<ele>1058.12</ele>
<time>2019-07-25T12:06:59Z</time>
</trkpt>
<trkpt lat="44.8957134" lon="5.3695346">
<ele>1058.11</ele>
<time>2019-07-25T12:07:00Z</time>
</trkpt>
<trkpt lat="44.8957143" lon="5.3695280">
<ele>1058.11</ele>
<time>2019-07-25T12:07:01Z</time>
</trkpt>
<trkpt lat="44.8957142" lon="5.3695278">
<ele>1058.11</ele>
<time>2019-07-25T12:07:02Z</time>
</trkpt>
<trkpt lat="44.8957144" lon="5.3695275">
<ele>1058.11</ele>
<time>2019-07-25T12:07:03Z</time>
</trkpt>
<trkpt lat="44.8957146" lon="5.3695261">
<ele>1058.11</ele>
<time>2019-07-25T12:07:04Z</time>
</trkpt>
<trkpt lat="44.8957148" lon="5.3695256">
<ele>1058.11</ele>
<time>2019-07-25T12:07:05Z</time>
</trkpt>
<trkpt lat="44.8957150" lon="5.3695254">
<ele>1058.11</ele>
<time>2019-07-25T12:07:06Z</time>
</trkpt>
<trkpt lat="44.8957151" lon="5.3695253">
<ele>1058.10</ele>
<time>2019-07-25T12:07:07Z</time>
</trkpt>
<trkpt lat="44.8957154" lon="5.3695250">
<ele>1058.10</ele>
<time>2019-07-25T12:07:08Z</time>
</trkpt>
<trkpt lat="44.8957153" lon="5.3695254">
<ele>1058.10</ele>
<time>2019-07-25T12:07:09Z</time>
</trkpt>
<trkpt lat="44.8957153" lon="5.3695254">
<ele>1058.10</ele>
<time>2019-07-25T12:07:10Z</time>
</trkpt>
<trkpt lat="44.8957153" lon="5.3695255">
<ele>1058.10</ele>
<time>2019-07-25T12:07:11Z</time>
</trkpt>
<trkpt lat="44.8957154" lon="5.3695248">
<ele>1058.10</ele>
<time>2019-07-25T12:07:12Z</time>
</trkpt>
<trkpt lat="44.8957150" lon="5.3695246">
<ele>1058.10</ele>
<time>2019-07-25T12:07:13Z</time>
</trkpt>
<trkpt lat="44.8957148" lon="5.3695246">
<ele>1058.10</ele>
<time>2019-07-25T12:07:14Z</time>
</trkpt>
<trkpt lat="44.8957147" lon="5.3695245">
<ele>1058.10</ele>
<time>2019-07-25T12:07:15Z</time>
</trkpt>
<trkpt lat="44.8957147" lon="5.3695248">
<ele>1058.10</ele>
<time>2019-07-25T12:07:16Z</time>
</trkpt>
<trkpt lat="44.8957143" lon="5.3695248">
<ele>1058.10</ele>
<time>2019-07-25T12:07:17Z</time>
</trkpt>
<trkpt lat="44.8957141" lon="5.3695249">
<ele>1058.10</ele>
<time>2019-07-25T12:07:18Z</time>
</trkpt>
<trkpt lat="44.8957134" lon="5.3695246">
<ele>1058.10</ele>
<time>2019-07-25T12:07:19Z</time>
</trkpt>
<trkpt lat="44.8957123" lon="5.3695253">
<ele>1058.09</ele>
<time>2019-07-25T12:07:20Z</time>
</trkpt>
<trkpt lat="44.8957100" lon="5.3695307">
<ele>1058.09</ele>
<time>2019-07-25T12:07:21Z</time>
</trkpt>
<trkpt lat="44.8957077" lon="5.3695361">
<ele>1058.08</ele>
<time>2019-07-25T12:07:22Z</time>
</trkpt>
<trkpt lat="44.8957042" lon="5.3695353">
<ele>1058.08</ele>
<time>2019-07-25T12:07:23Z</time>
</trkpt>
<trkpt lat="44.8957025" lon="5.3695384">
<ele>1058.08</ele>
<time>2019-07-25T12:07:24Z</time>
</trkpt>
<trkpt lat="44.8957025" lon="5.3695382">
<ele>1058.08</ele>
<time>2019-07-25T12:07:25Z</time>
</trkpt>
<trkpt lat="44.8957026" lon="5.3695375">
<ele>1058.08</ele>
<time>2019-07-25T12:07:26Z</time>
</trkpt>
<trkpt lat="44.8957026" lon="5.3695372">
<ele>1058.08</ele>
<time>2019-07-25T12:07:27Z</time>
</trkpt>
<trkpt lat="44.8957024" lon="5.3695369">
<ele>1058.08</ele>
<time>2019-07-25T12:07:28Z</time>
</trkpt>
<trkpt lat="44.8957024" lon="5.3695365">
<ele>1058.08</ele>
<time>2019-07-25T12:07:29Z</time>
</trkpt>
<trkpt lat="44.8957024" lon="5.3695364">
<ele>1058.08</ele>
<time>2019-07-25T12:07:30Z</time>
</trkpt>
<trkpt lat="44.8957026" lon="5.3695358">
<ele>1058.08</ele>
<time>2019-07-25T12:07:31Z</time>
</trkpt>
<trkpt lat="44.8957026" lon="5.3695356">
<ele>1058.08</ele>
<time>2019-07-25T12:07:32Z</time>
</trkpt>
<trkpt lat="44.8957026" lon="5.3695356">
<ele>1058.08</ele>
<time>2019-07-25T12:07:33Z</time>
</trkpt>
<trkpt lat="44.8957027" lon="5.3695355">
<ele>1058.08</ele>
<time>2019-07-25T12:07:34Z</time>
</trkpt>
<trkpt lat="44.8957027" lon="5.3695356">
<ele>1058.08</ele>
<time>2019-07-25T12:07:35Z</time>
</trkpt>
<trkpt lat="44.8957027" lon="5.3695356">
<ele>1058.08</ele>
<time>2019-07-25T12:07:36Z</time>
</trkpt>
<trkpt lat="44.8957027" lon="5.3695358">
<ele>1058.08</ele>
<time>2019-07-25T12:07:37Z</time>
</trkpt>
<trkpt lat="44.8957026" lon="5.3695359">
<ele>1058.08</ele>
<time>2019-07-25T12:07:38Z</time>
</trkpt>
<trkpt lat="44.8957026" lon="5.3695358">
<ele>1058.08</ele>
<time>2019-07-25T12:07:39Z</time>
</trkpt>
<trkpt lat="44.8957026" lon="5.3695357">
<ele>1058.08</ele>
<time>2019-07-25T12:07:40Z</time>
</trkpt>
<trkpt lat="44.8957026" lon="5.3695356">
<ele>1058.08</ele>
<time>2019-07-25T12:07:41Z</time>
</trkpt>
<trkpt lat="44.8957026" lon="5.3695354">
<ele>1058.08</ele>
<time>2019-07-25T12:07:42Z</time>
</trkpt>
<trkpt lat="44.8957026" lon="5.3695354">
<ele>1058.08</ele>
<time>2019-07-25T12:07:43Z</time>
</trkpt>
<trkpt lat="44.8957028" lon="5.3695351">
<ele>1058.08</ele>
<time>2019-07-25T12:07:44Z</time>
</trkpt>
<trkpt lat="44.8957030" lon="5.3695347">
<ele>1058.08</ele>
<time>2019-07-25T12:07:45Z</time>
</trkpt>
<trkpt lat="44.8957033" lon="5.3695342">
<ele>1058.08</ele>
<time>2019-07-25T12:07:46Z</time>
</trkpt>
<trkpt lat="44.8957033" lon="5.3695343">
<ele>1058.08</ele>
<time>2019-07-25T12:07:47Z</time>
</trkpt>
<trkpt lat="44.8957033" lon="5.3695343">
<ele>1058.08</ele>
<time>2019-07-25T12:07:48Z</time>
</trkpt>
<trkpt lat="44.8957037" lon="5.3695335">
<ele>1058.08</ele>
<time>2019-07-25T12:07:49Z</time>
</trkpt>
<trkpt lat="44.8957040" lon="5.3695329">
<ele>1058.09</ele>
<time>2019-07-25T12:07:50Z</time>
</trkpt>
<trkpt lat="44.8957042" lon="5.3695329">
<ele>1058.09</ele>
<time>2019-07-25T12:07:51Z</time>
</trkpt>
<trkpt lat="44.8957042" lon="5.3695330">
<ele>1058.09</ele>
<time>2019-07-25T12:07:52Z</time>
</trkpt>
<trkpt lat="44.8957043" lon="5.3695330">
<ele>1058.09</ele>
<time>2019-07-25T12:07:53Z</time>
</trkpt>
<trkpt lat="44.8957044" lon="5.3695331">
<ele>1058.09</ele>
<time>2019-07-25T12:07:54Z</time>
</trkpt>
<trkpt lat="44.8957044" lon="5.3695333">
<ele>1058.09</ele>
<time>2019-07-25T12:07:55Z</time>
</trkpt>
<trkpt lat="44.8957045" lon="5.3695333">
<ele>1058.09</ele>
<time>2019-07-25T12:07:56Z</time>
</trkpt>
<trkpt lat="44.8957045" lon="5.3695335">
<ele>1058.09</ele>
<time>2019-07-25T12:07:57Z</time>
</trkpt>
<trkpt lat="44.8957045" lon="5.3695337">
<ele>1058.09</ele>
<time>2019-07-25T12:07:58Z</time>
</trkpt>
<trkpt lat="44.8957047" lon="5.3695336">
<ele>1058.09</ele>
<time>2019-07-25T12:07:59Z</time>
</trkpt>
<trkpt lat="44.8957047" lon="5.3695339">
<ele>1058.09</ele>
<time>2019-07-25T12:08:00Z</time>
</trkpt>
<trkpt lat="44.8957047" lon="5.3695341">
<ele>1058.09</ele>
<time>2019-07-25T12:08:01Z</time>
</trkpt>
<trkpt lat="44.8957047" lon="5.3695342">
<ele>1058.10</ele>
<time>2019-07-25T12:08:02Z</time>
</trkpt>
<trkpt lat="44.8957042" lon="5.3695351">
<ele>1058.10</ele>
<time>2019-07-25T12:08:03Z</time>
</trkpt>
<trkpt lat="44.8957043" lon="5.3695351">
<ele>1058.10</ele>
<time>2019-07-25T12:08:04Z</time>
</trkpt>
<trkpt lat="44.8957046" lon="5.3695347">
<ele>1058.10</ele>
<time>2019-07-25T12:08:05Z</time>
</trkpt>
<trkpt lat="44.8957047" lon="5.3695346">
<ele>1058.10</ele>
<time>2019-07-25T12:08:06Z</time>
</trkpt>
<trkpt lat="44.8957048" lon="5.3695345">
<ele>1058.10</ele>
<time>2019-07-25T12:08:07Z</time>
</trkpt>
<trkpt lat="44.8957048" lon="5.3695347">
<ele>1058.10</ele>
<time>2019-07-25T12:08:08Z</time>
</trkpt>
<trkpt lat="44.8957046" lon="5.3695351">
<ele>1058.10</ele>
<time>2019-07-25T12:08:09Z</time>
</trkpt>
<trkpt lat="44.8957044" lon="5.3695354">
<ele>1058.10</ele>
<time>2019-07-25T12:08:10Z</time>
</trkpt>
<trkpt lat="44.8957045" lon="5.3695352">
<ele>1058.10</ele>
<time>2019-07-25T12:08:11Z</time>
</trkpt>
<trkpt lat="44.8957045" lon="5.3695352">
<ele>1058.10</ele>
<time>2019-07-25T12:08:12Z</time>
</trkpt>
<trkpt lat="44.8957044" lon="5.3695353">
<ele>1058.10</ele>
<time>2019-07-25T12:08:13Z</time>
</trkpt>
<trkpt lat="44.8957045" lon="5.3695353">
<ele>1058.10</ele>
<time>2019-07-25T12:08:14Z</time>
</trkpt>
<trkpt lat="44.8957044" lon="5.3695356">
<ele>1058.10</ele>
<time>2019-07-25T12:08:15Z</time>
</trkpt>
<trkpt lat="44.8957045" lon="5.3695354">
<ele>1058.10</ele>
<time>2019-07-25T12:08:16Z</time>
</trkpt>
<trkpt lat="44.8957044" lon="5.3695357">
<ele>1058.10</ele>
<time>2019-07-25T12:08:17Z</time>
</trkpt>
<trkpt lat="44.8957043" lon="5.3695366">
<ele>1058.10</ele>
<time>2019-07-25T12:08:18Z</time>
</trkpt>
<trkpt lat="44.8957044" lon="5.3695376">
<ele>1058.11</ele>
<time>2019-07-25T12:08:19Z</time>
</trkpt>
<trkpt lat="44.8957039" lon="5.3695389">
<ele>1058.11</ele>
<time>2019-07-25T12:08:20Z</time>
</trkpt>
<trkpt lat="44.8957036" lon="5.3695396">
<ele>1058.11</ele>
<time>2019-07-25T12:08:21Z</time>
</trkpt>
<trkpt lat="44.8957036" lon="5.3695399">
<ele>1058.11</ele>
<time>2019-07-25T12:08:22Z</time>
</trkpt>
<trkpt lat="44.8957034" lon="5.3695403">
<ele>1058.11</ele>
<time>2019-07-25T12:08:23Z</time>
</trkpt>
<trkpt lat="44.8957031" lon="5.3695410">
<ele>1058.11</ele>
<time>2019-07-25T12:08:24Z</time>
</trkpt>
<trkpt lat="44.8957025" lon="5.3695421">
<ele>1058.11</ele>
<time>2019-07-25T12:08:25Z</time>
</trkpt>
<trkpt lat="44.8957025" lon="5.3695424">
<ele>1058.12</ele>
<time>2019-07-25T12:08:26Z</time>
</trkpt>
<trkpt lat="44.8957024" lon="5.3695425">
<ele>1058.12</ele>
<time>2019-07-25T12:08:27Z</time>
</trkpt>
<trkpt lat="44.8957024" lon="5.3695427">
<ele>1058.12</ele>
<time>2019-07-25T12:08:28Z</time>
</trkpt>
<trkpt lat="44.8957017" lon="5.3695436">
<ele>1058.12</ele>
<time>2019-07-25T12:08:29Z</time>
</trkpt>
<trkpt lat="44.8957019" lon="5.3695432">
<ele>1058.13</ele>
<time>2019-07-25T12:08:30Z</time>
</trkpt>
<trkpt lat="44.8957024" lon="5.3695423">
<ele>1058.13</ele>
<time>2019-07-25T12:08:31Z</time>
</trkpt>
<trkpt lat="44.8957025" lon="5.3695424">
<ele>1058.13</ele>
<time>2019-07-25T12:08:32Z</time>
</trkpt>
<trkpt lat="44.8957030" lon="5.3695415">
<ele>1058.13</ele>
<time>2019-07-25T12:08:33Z</time>
</trkpt>
<trkpt lat="44.8957032" lon="5.3695410">
<ele>1058.14</ele>
<time>2019-07-25T12:08:34Z</time>
</trkpt>
<trkpt lat="44.8957036" lon="5.3695403">
<ele>1058.14</ele>
<time>2019-07-25T12:08:35Z</time>
</trkpt>
<trkpt lat="44.8957040" lon="5.3695395">
<ele>1058.14</ele>
<time>2019-07-25T12:08:36Z</time>
</trkpt>
<trkpt lat="44.8957040" lon="5.3695396">
<ele>1058.14</ele>
<time>2019-07-25T12:08:37Z</time>
</trkpt>
<trkpt lat="44.8957041" lon="5.3695395">
<ele>1058.15</ele>
<time>2019-07-25T12:08:38Z</time>
</trkpt>
<trkpt lat="44.8957044" lon="5.3695388">
<ele>1058.15</ele>
<time>2019-07-25T12:08:39Z</time>
</trkpt>
<trkpt lat="44.8957052" lon="5.3695375">
<ele>1058.15</ele>
<time>2019-07-25T12:08:40Z</time>
</trkpt>
<trkpt lat="44.8957071" lon="5.3695333">
<ele>1058.15</ele>
<time>2019-07-25T12:08:41Z</time>
</trkpt>
<trkpt lat="44.8957080" lon="5.3695317">
<ele>1058.16</ele>
<time>2019-07-25T12:08:42Z</time>
</trkpt>
<trkpt lat="44.8957082" lon="5.3695311">
<ele>1058.16</ele>
<time>2019-07-25T12:08:43Z</time>
</trkpt>
<trkpt lat="44.8957086" lon="5.3695306">
<ele>1058.16</ele>
<time>2019-07-25T12:08:44Z</time>
</trkpt>
<trkpt lat="44.8957084" lon="5.3695314">
<ele>1058.16</ele>
<time>2019-07-25T12:08:45Z</time>
</trkpt>
<trkpt lat="44.8957079" lon="5.3695329">
<ele>1058.17</ele>
<time>2019-07-25T12:08:46Z</time>
</trkpt>
<trkpt lat="44.8957071" lon="5.3695347">
<ele>1058.17</ele>
<time>2019-07-25T12:08:47Z</time>
</trkpt>
<trkpt lat="44.8957070" lon="5.3695351">
<ele>1058.17</ele>
<time>2019-07-25T12:08:48Z</time>
</trkpt>
<trkpt lat="44.8957067" lon="5.3695359">
<ele>1058.17</ele>
<time>2019-07-25T12:08:49Z</time>
</trkpt>
<trkpt lat="44.8957067" lon="5.3695361">
<ele>1058.17</ele>
<time>2019-07-25T12:08:50Z</time>
</trkpt>
<trkpt lat="44.8957063" lon="5.3695370">
<ele>1058.18</ele>
<time>2019-07-25T12:08:51Z</time>
</trkpt>
<trkpt lat="44.8957058" lon="5.3695386">
<ele>1058.18</ele>
<time>2019-07-25T12:08:52Z</time>
</trkpt>
<trkpt lat="44.8957057" lon="5.3695400">
<ele>1058.18</ele>
<time>2019-07-25T12:08:53Z</time>
</trkpt>
<trkpt lat="44.8957034" lon="5.3695466">
<ele>1058.18</ele>
<time>2019-07-25T12:08:54Z</time>
</trkpt>
<trkpt lat="44.8957035" lon="5.3695475">
<ele>1058.18</ele>
<time>2019-07-25T12:08:55Z</time>
</trkpt>
<trkpt lat="44.8957033" lon="5.3695484">
<ele>1058.18</ele>
<time>2019-07-25T12:08:56Z</time>
</trkpt>
<trkpt lat="44.8957033" lon="5.3695486">
<ele>1058.19</ele>
<time>2019-07-25T12:08:57Z</time>
</trkpt>
<trkpt lat="44.8957040" lon="5.3695477">
<ele>1058.19</ele>
<time>2019-07-25T12:08:58Z</time>
</trkpt>
<trkpt lat="44.8957044" lon="5.3695471">
<ele>1058.19</ele>
<time>2019-07-25T12:08:59Z</time>
</trkpt>
<trkpt lat="44.8957050" lon="5.3695468">
<ele>1058.19</ele>
<time>2019-07-25T12:09:00Z</time>
</trkpt>
<trkpt lat="44.8957054" lon="5.3695459">
<ele>1058.19</ele>
<time>2019-07-25T12:09:01Z</time>
</trkpt>
<trkpt lat="44.8957057" lon="5.3695452">
<ele>1058.19</ele>
<time>2019-07-25T12:09:02Z</time>
</trkpt>
<trkpt lat="44.8957059" lon="5.3695451">
<ele>1058.19</ele>
<time>2019-07-25T12:09:03Z</time>
</trkpt>
<trkpt lat="44.8957060" lon="5.3695448">
<ele>1058.19</ele>
<time>2019-07-25T12:09:04Z</time>
</trkpt>
<trkpt lat="44.8957061" lon="5.3695445">
<ele>1058.20</ele>
<time>2019-07-25T12:09:05Z</time>
</trkpt>
<trkpt lat="44.8957062" lon="5.3695442">
<ele>1058.20</ele>
<time>2019-07-25T12:09:06Z</time>
</trkpt>
<trkpt lat="44.8957063" lon="5.3695439">
<ele>1058.20</ele>
<time>2019-07-25T12:09:07Z</time>
</trkpt>
<trkpt lat="44.8957066" lon="5.3695433">
<ele>1058.20</ele>
<time>2019-07-25T12:09:08Z</time>
</trkpt>
<trkpt lat="44.8957068" lon="5.3695428">
<ele>1058.20</ele>
<time>2019-07-25T12:09:09Z</time>
</trkpt>
<trkpt lat="44.8957067" lon="5.3695429">
<ele>1058.20</ele>
<time>2019-07-25T12:09:10Z</time>
</trkpt>
<trkpt lat="44.8957069" lon="5.3695425">
<ele>1058.19</ele>
<time>2019-07-25T12:09:11Z</time>
</trkpt>
<trkpt lat="44.8957075" lon="5.3695412">
<ele>1058.19</ele>
<time>2019-07-25T12:09:12Z</time>
</trkpt>
<trkpt lat="44.8957074" lon="5.3695413">
<ele>1058.19</ele>
<time>2019-07-25T12:09:13Z</time>
</trkpt>
<trkpt lat="44.8957076" lon="5.3695410">
<ele>1058.19</ele>
<time>2019-07-25T12:09:14Z</time>
</trkpt>
<trkpt lat="44.8957077" lon="5.3695408">
<ele>1058.19</ele>
<time>2019-07-25T12:09:15Z</time>
</trkpt>
<trkpt lat="44.8957078" lon="5.3695405">
<ele>1058.19</ele>
<time>2019-07-25T12:09:16Z</time>
</trkpt>
<trkpt lat="44.8957082" lon="5.3695396">
<ele>1058.19</ele>
<time>2019-07-25T12:09:17Z</time>
</trkpt>
<trkpt lat="44.8957082" lon="5.3695395">
<ele>1058.19</ele>
<time>2019-07-25T12:09:18Z</time>
</trkpt>
<trkpt lat="44.8957081" lon="5.3695395">
<ele>1058.19</ele>
<time>2019-07-25T12:09:19Z</time>
</trkpt>
<trkpt lat="44.8957081" lon="5.3695396">
<ele>1058.18</ele>
<time>2019-07-25T12:09:20Z</time>
</trkpt>
<trkpt lat="44.8957080" lon="5.3695397">
<ele>1058.18</ele>
<time>2019-07-25T12:09:21Z</time>
</trkpt>
<trkpt lat="44.8957081" lon="5.3695396">
<ele>1058.18</ele>
<time>2019-07-25T12:09:22Z</time>
</trkpt>
<trkpt lat="44.8957084" lon="5.3695387">
<ele>1058.18</ele>
<time>2019-07-25T12:09:23Z</time>
</trkpt>
<trkpt lat="44.8957085" lon="5.3695384">
<ele>1058.18</ele>
<time>2019-07-25T12:09:24Z</time>
</trkpt>
<trkpt lat="44.8957083" lon="5.3695382">
<ele>1058.17</ele>
<time>2019-07-25T12:09:25Z</time>
</trkpt>
<trkpt lat="44.8957082" lon="5.3695380">
<ele>1058.17</ele>
<time>2019-07-25T12:09:26Z</time>
</trkpt>
<trkpt lat="44.8957078" lon="5.3695386">
<ele>1058.17</ele>
<time>2019-07-25T12:09:27Z</time>
</trkpt>
<trkpt lat="44.8957063" lon="5.3695418">
<ele>1058.17</ele>
<time>2019-07-25T12:09:28Z</time>
</trkpt>
<trkpt lat="44.8957005" lon="5.3695553">
<ele>1058.17</ele>
<time>2019-07-25T12:09:29Z</time>
</trkpt>
<trkpt lat="44.8956960" lon="5.3695656">
<ele>1058.15</ele>
<time>2019-07-25T12:09:30Z</time>
</trkpt>
<trkpt lat="44.8956908" lon="5.3695815">
<ele>1058.14</ele>
<time>2019-07-25T12:09:31Z</time>
</trkpt>
<trkpt lat="44.8956876" lon="5.3696046">
<ele>1058.14</ele>
<time>2019-07-25T12:09:32Z</time>
</trkpt>
<trkpt lat="44.8956927" lon="5.3695878">
<ele>1058.13</ele>
<time>2019-07-25T12:09:33Z</time>
</trkpt>
<trkpt lat="44.8956883" lon="5.3695921">
<ele>1058.11</ele>
<time>2019-07-25T12:09:34Z</time>
</trkpt>
<trkpt lat="44.8956881" lon="5.3695919">
<ele>1058.11</ele>
<time>2019-07-25T12:09:35Z</time>
</trkpt>
<trkpt lat="44.8956885" lon="5.3695918">
<ele>1058.11</ele>
<time>2019-07-25T12:09:36Z</time>
</trkpt>
<trkpt lat="44.8956891" lon="5.3695904">
<ele>1058.11</ele>
<time>2019-07-25T12:09:37Z</time>
</trkpt>
<trkpt lat="44.8956857" lon="5.3695973">
<ele>1058.09</ele>
<time>2019-07-25T12:09:38Z</time>
</trkpt>
<trkpt lat="44.8956859" lon="5.3695914">
<ele>1058.09</ele>
<time>2019-07-25T12:09:39Z</time>
</trkpt>
<trkpt lat="44.8956858" lon="5.3695918">
<ele>1058.07</ele>
<time>2019-07-25T12:09:40Z</time>
</trkpt>
<trkpt lat="44.8956851" lon="5.3695940">
<ele>1058.07</ele>
<time>2019-07-25T12:09:41Z</time>
</trkpt>
<trkpt lat="44.8956854" lon="5.3695935">
<ele>1058.07</ele>
<time>2019-07-25T12:09:42Z</time>
</trkpt>
<trkpt lat="44.8956856" lon="5.3695935">
<ele>1058.06</ele>
<time>2019-07-25T12:09:43Z</time>
</trkpt>
<trkpt lat="44.8956854" lon="5.3695940">
<ele>1058.06</ele>
<time>2019-07-25T12:09:44Z</time>
</trkpt>
<trkpt lat="44.8956855" lon="5.3695935">
<ele>1058.06</ele>
<time>2019-07-25T12:09:45Z</time>
</trkpt>
<trkpt lat="44.8956859" lon="5.3695929">
<ele>1058.05</ele>
<time>2019-07-25T12:09:46Z</time>
</trkpt>
<trkpt lat="44.8956858" lon="5.3695932">
<ele>1058.05</ele>
<time>2019-07-25T12:09:47Z</time>
</trkpt>
<trkpt lat="44.8956860" lon="5.3695929">
<ele>1058.05</ele>
<time>2019-07-25T12:09:48Z</time>
</trkpt>
<trkpt lat="44.8956865" lon="5.3695923">
<ele>1058.05</ele>
<time>2019-07-25T12:09:49Z</time>
</trkpt>
<trkpt lat="44.8956865" lon="5.3695931">
<ele>1058.04</ele>
<time>2019-07-25T12:09:50Z</time>
</trkpt>
<trkpt lat="44.8956863" lon="5.3695936">
<ele>1058.04</ele>
<time>2019-07-25T12:09:51Z</time>
</trkpt>
<trkpt lat="44.8956863" lon="5.3695938">
<ele>1058.04</ele>
<time>2019-07-25T12:09:52Z</time>
</trkpt>
<trkpt lat="44.8956863" lon="5.3695947">
<ele>1058.03</ele>
<time>2019-07-25T12:09:53Z</time>
</trkpt>
<trkpt lat="44.8956864" lon="5.3695948">
<ele>1058.03</ele>
<time>2019-07-25T12:09:54Z</time>
</trkpt>
<trkpt lat="44.8956865" lon="5.3695949">
<ele>1058.03</ele>
<time>2019-07-25T12:09:55Z</time>
</trkpt>
<trkpt lat="44.8956856" lon="5.3695963">
<ele>1058.02</ele>
<time>2019-07-25T12:09:56Z</time>
</trkpt>
<trkpt lat="44.8956858" lon="5.3695963">
<ele>1058.02</ele>
<time>2019-07-25T12:09:57Z</time>
</trkpt>
<trkpt lat="44.8956859" lon="5.3695961">
<ele>1058.01</ele>
<time>2019-07-25T12:09:58Z</time>
</trkpt>
<trkpt lat="44.8956852" lon="5.3695981">
<ele>1058.01</ele>
<time>2019-07-25T12:09:59Z</time>
</trkpt>
<trkpt lat="44.8956851" lon="5.3695990">
<ele>1057.97</ele>
<time>2019-07-25T12:10:00Z</time>
</trkpt>
<trkpt lat="44.8956852" lon="5.3696021">
<ele>1057.97</ele>
<time>2019-07-25T12:10:01Z</time>
</trkpt>
<trkpt lat="44.8956857" lon="5.3696000">
<ele>1057.93</ele>
<time>2019-07-25T12:10:02Z</time>
</trkpt>
<trkpt lat="44.8956849" lon="5.3695998">
<ele>1057.93</ele>
<time>2019-07-25T12:10:03Z</time>
</trkpt>
<trkpt lat="44.8956852" lon="5.3695990">
<ele>1057.92</ele>
<time>2019-07-25T12:10:04Z</time>
</trkpt>
<trkpt lat="44.8956853" lon="5.3695987">
<ele>1057.92</ele>
<time>2019-07-25T12:10:05Z</time>
</trkpt>
<trkpt lat="44.8956854" lon="5.3695989">
<ele>1057.91</ele>
<time>2019-07-25T12:10:06Z</time>
</trkpt>
<trkpt lat="44.8956853" lon="5.3695989">
<ele>1057.91</ele>
<time>2019-07-25T12:10:07Z</time>
</trkpt>
<trkpt lat="44.8956857" lon="5.3695983">
<ele>1057.91</ele>
<time>2019-07-25T12:10:08Z</time>
</trkpt>
<trkpt lat="44.8956859" lon="5.3695983">
<ele>1057.90</ele>
<time>2019-07-25T12:10:09Z</time>
</trkpt>
<trkpt lat="44.8956862" lon="5.3695976">
<ele>1057.90</ele>
<time>2019-07-25T12:10:10Z</time>
</trkpt>
<trkpt lat="44.8956863" lon="5.3695977">
<ele>1057.90</ele>
<time>2019-07-25T12:10:11Z</time>
</trkpt>
<trkpt lat="44.8956865" lon="5.3695974">
<ele>1057.89</ele>
<time>2019-07-25T12:10:12Z</time>
</trkpt>
<trkpt lat="44.8956866" lon="5.3695975">
<ele>1057.89</ele>
<time>2019-07-25T12:10:13Z</time>
</trkpt>
<trkpt lat="44.8956866" lon="5.3695980">
<ele>1057.88</ele>
<time>2019-07-25T12:10:14Z</time>
</trkpt>
<trkpt lat="44.8956866" lon="5.3695982">
<ele>1057.88</ele>
<time>2019-07-25T12:10:15Z</time>
</trkpt>
<trkpt lat="44.8956871" lon="5.3695972">
<ele>1057.87</ele>
<time>2019-07-25T12:10:16Z</time>
</trkpt>
<trkpt lat="44.8956876" lon="5.3695973">
<ele>1057.87</ele>
<time>2019-07-25T12:10:17Z</time>
</trkpt>
<trkpt lat="44.8956876" lon="5.3695975">
<ele>1057.86</ele>
<time>2019-07-25T12:10:18Z</time>
</trkpt>
<trkpt lat="44.8956877" lon="5.3695986">
<ele>1057.86</ele>
<time>2019-07-25T12:10:19Z</time>
</trkpt>
<trkpt lat="44.8956876" lon="5.3695989">
<ele>1057.85</ele>
<time>2019-07-25T12:10:20Z</time>
</trkpt>
<trkpt lat="44.8956886" lon="5.3695964">
<ele>1057.85</ele>
<time>2019-07-25T12:10:21Z</time>
</trkpt>
<trkpt lat="44.8956888" lon="5.3695962">
<ele>1057.84</ele>
<time>2019-07-25T12:10:22Z</time>
</trkpt>
<trkpt lat="44.8956896" lon="5.3695955">
<ele>1057.84</ele>
<time>2019-07-25T12:10:23Z</time>
</trkpt>
<trkpt lat="44.8956898" lon="5.3695953">
<ele>1057.83</ele>
<time>2019-07-25T12:10:24Z</time>
</trkpt>
<trkpt lat="44.8956902" lon="5.3695945">
<ele>1057.83</ele>
<time>2019-07-25T12:10:25Z</time>
</trkpt>
<trkpt lat="44.8956905" lon="5.3695938">
<ele>1057.82</ele>
<time>2019-07-25T12:10:26Z</time>
</trkpt>
<trkpt lat="44.8956916" lon="5.3695919">
<ele>1057.82</ele>
<time>2019-07-25T12:10:27Z</time>
</trkpt>
<trkpt lat="44.8956922" lon="5.3695902">
<ele>1057.81</ele>
<time>2019-07-25T12:10:28Z</time>
</trkpt>
<trkpt lat="44.8956922" lon="5.3695911">
<ele>1057.80</ele>
<time>2019-07-25T12:10:29Z</time>
</trkpt>
<trkpt lat="44.8956924" lon="5.3695906">
<ele>1057.80</ele>
<time>2019-07-25T12:10:30Z</time>
</trkpt>
<trkpt lat="44.8956924" lon="5.3695908">
<ele>1057.79</ele>
<time>2019-07-25T12:10:31Z</time>
</trkpt>
<trkpt lat="44.8956921" lon="5.3695912">
<ele>1057.79</ele>
<time>2019-07-25T12:10:32Z</time>
</trkpt>
<trkpt lat="44.8956917" lon="5.3695918">
<ele>1057.78</ele>
<time>2019-07-25T12:10:33Z</time>
</trkpt>
<trkpt lat="44.8956919" lon="5.3695916">
<ele>1057.77</ele>
<time>2019-07-25T12:10:34Z</time>
</trkpt>
<trkpt lat="44.8956917" lon="5.3695919">
<ele>1057.77</ele>
<time>2019-07-25T12:10:35Z</time>
</trkpt>
<trkpt lat="44.8956913" lon="5.3695926">
<ele>1057.76</ele>
<time>2019-07-25T12:10:36Z</time>
</trkpt>
<trkpt lat="44.8956914" lon="5.3695930">
<ele>1057.75</ele>
<time>2019-07-25T12:10:37Z</time>
</trkpt>
<trkpt lat="44.8956913" lon="5.3695933">
<ele>1057.75</ele>
<time>2019-07-25T12:10:38Z</time>
</trkpt>
<trkpt lat="44.8956914" lon="5.3695934">
<ele>1057.74</ele>
<time>2019-07-25T12:10:39Z</time>
</trkpt>
<trkpt lat="44.8956912" lon="5.3695941">
<ele>1057.74</ele>
<time>2019-07-25T12:10:40Z</time>
</trkpt>
<trkpt lat="44.8956914" lon="5.3695943">
<ele>1057.73</ele>
<time>2019-07-25T12:10:41Z</time>
</trkpt>
<trkpt lat="44.8956915" lon="5.3695945">
<ele>1057.72</ele>
<time>2019-07-25T12:10:42Z</time>
</trkpt>
<trkpt lat="44.8956915" lon="5.3695946">
<ele>1057.72</ele>
<time>2019-07-25T12:10:43Z</time>
</trkpt>
<trkpt lat="44.8956910" lon="5.3695955">
<ele>1057.71</ele>
<time>2019-07-25T12:10:44Z</time>
</trkpt>
<trkpt lat="44.8956913" lon="5.3695958">
<ele>1057.71</ele>
<time>2019-07-25T12:10:45Z</time>
</trkpt>
<trkpt lat="44.8956915" lon="5.3695957">
<ele>1057.70</ele>
<time>2019-07-25T12:10:46Z</time>
</trkpt>
<trkpt lat="44.8956916" lon="5.3695955">
<ele>1057.69</ele>
<time>2019-07-25T12:10:47Z</time>
</trkpt>
<trkpt lat="44.8956920" lon="5.3695951">
<ele>1057.69</ele>
<time>2019-07-25T12:10:48Z</time>
</trkpt>
<trkpt lat="44.8956925" lon="5.3695950">
<ele>1057.68</ele>
<time>2019-07-25T12:10:49Z</time>
</trkpt>
<trkpt lat="44.8956926" lon="5.3695951">
<ele>1057.68</ele>
<time>2019-07-25T12:10:50Z</time>
</trkpt>
<trkpt lat="44.8956929" lon="5.3695950">
<ele>1057.67</ele>
<time>2019-07-25T12:10:51Z</time>
</trkpt>
<trkpt lat="44.8956938" lon="5.3695950">
<ele>1057.66</ele>
<time>2019-07-25T12:10:52Z</time>
</trkpt>
<trkpt lat="44.8956939" lon="5.3695943">
<ele>1057.66</ele>
<time>2019-07-25T12:10:53Z</time>
</trkpt>
<trkpt lat="44.8956943" lon="5.3695941">
<ele>1057.65</ele>
<time>2019-07-25T12:10:54Z</time>
</trkpt>
<trkpt lat="44.8956946" lon="5.3695950">
<ele>1057.65</ele>
<time>2019-07-25T12:10:55Z</time>
</trkpt>
<trkpt lat="44.8956954" lon="5.3695947">
<ele>1057.64</ele>
<time>2019-07-25T12:10:56Z</time>
</trkpt>
<trkpt lat="44.8956948" lon="5.3695967">
<ele>1057.63</ele>
<time>2019-07-25T12:10:57Z</time>
</trkpt>
<trkpt lat="44.8956944" lon="5.3695986">
<ele>1057.63</ele>
<time>2019-07-25T12:10:58Z</time>
</trkpt>
<trkpt lat="44.8956951" lon="5.3696002">
<ele>1057.62</ele>
<time>2019-07-25T12:10:59Z</time>
</trkpt>
<trkpt lat="44.8956956" lon="5.3696008">
<ele>1057.61</ele>
<time>2019-07-25T12:11:00Z</time>
</trkpt>
<trkpt lat="44.8956954" lon="5.3696014">
<ele>1057.61</ele>
<time>2019-07-25T12:11:01Z</time>
</trkpt>
<trkpt lat="44.8956949" lon="5.3696036">
<ele>1057.60</ele>
<time>2019-07-25T12:11:02Z</time>
</trkpt>
<trkpt lat="44.8956933" lon="5.3696078">
<ele>1057.59</ele>
<time>2019-07-25T12:11:03Z</time>
</trkpt>
<trkpt lat="44.8956928" lon="5.3696096">
<ele>1057.59</ele>
<time>2019-07-25T12:11:04Z</time>
</trkpt>
<trkpt lat="44.8956910" lon="5.3696137">
<ele>1057.58</ele>
<time>2019-07-25T12:11:05Z</time>
</trkpt>
<trkpt lat="44.8956912" lon="5.3696146">
<ele>1057.58</ele>
<time>2019-07-25T12:11:06Z</time>
</trkpt>
<trkpt lat="44.8956944" lon="5.3696103">
<ele>1057.57</ele>
<time>2019-07-25T12:11:07Z</time>
</trkpt>
<trkpt lat="44.8956953" lon="5.3696082">
<ele>1057.56</ele>
<time>2019-07-25T12:11:08Z</time>
</trkpt>
<trkpt lat="44.8956964" lon="5.3696057">
<ele>1057.56</ele>
<time>2019-07-25T12:11:09Z</time>
</trkpt>
<trkpt lat="44.8956982" lon="5.3696027">
<ele>1057.55</ele>
<time>2019-07-25T12:11:10Z</time>
</trkpt>
<trkpt lat="44.8956985" lon="5.3696024">
<ele>1057.55</ele>
<time>2019-07-25T12:11:11Z</time>
</trkpt>
<trkpt lat="44.8956996" lon="5.3696003">
<ele>1057.54</ele>
<time>2019-07-25T12:11:12Z</time>
</trkpt>
<trkpt lat="44.8956998" lon="5.3696000">
<ele>1057.54</ele>
<time>2019-07-25T12:11:13Z</time>
</trkpt>
<trkpt lat="44.8957006" lon="5.3695999">
<ele>1057.53</ele>
<time>2019-07-25T12:11:14Z</time>
</trkpt>
<trkpt lat="44.8957011" lon="5.3695986">
<ele>1057.53</ele>
<time>2019-07-25T12:11:15Z</time>
</trkpt>
<trkpt lat="44.8957023" lon="5.3695981">
<ele>1057.53</ele>
<time>2019-07-25T12:11:16Z</time>
</trkpt>
<trkpt lat="44.8957029" lon="5.3695983">
<ele>1057.52</ele>
<time>2019-07-25T12:11:17Z</time>
</trkpt>
<trkpt lat="44.8957034" lon="5.3695977">
<ele>1057.52</ele>
<time>2019-07-25T12:11:18Z</time>
</trkpt>
<trkpt lat="44.8957038" lon="5.3695974">
<ele>1057.51</ele>
<time>2019-07-25T12:11:19Z</time>
</trkpt>
<trkpt lat="44.8957061" lon="5.3695974">
<ele>1057.51</ele>
<time>2019-07-25T12:11:20Z</time>
</trkpt>
<trkpt lat="44.8957084" lon="5.3696003">
<ele>1057.50</ele>
<time>2019-07-25T12:11:21Z</time>
</trkpt>
<trkpt lat="44.8957060" lon="5.3696086">
<ele>1057.50</ele>
<time>2019-07-25T12:11:22Z</time>
</trkpt>
<trkpt lat="44.8957067" lon="5.3696077">
<ele>1057.49</ele>
<time>2019-07-25T12:11:23Z</time>
</trkpt>
<trkpt lat="44.8957068" lon="5.3696080">
<ele>1057.49</ele>
<time>2019-07-25T12:11:24Z</time>
</trkpt>
<trkpt lat="44.8957067" lon="5.3696077">
<ele>1057.48</ele>
<time>2019-07-25T12:11:25Z</time>
</trkpt>
<trkpt lat="44.8957062" lon="5.3696086">
<ele>1057.48</ele>
<time>2019-07-25T12:11:26Z</time>
</trkpt>
<trkpt lat="44.8957057" lon="5.3696083">
<ele>1057.47</ele>
<time>2019-07-25T12:11:27Z</time>
</trkpt>
<trkpt lat="44.8957059" lon="5.3696073">
<ele>1057.47</ele>
<time>2019-07-25T12:11:28Z</time>
</trkpt>
<trkpt lat="44.8957056" lon="5.3696050">
<ele>1057.41</ele>
<time>2019-07-25T12:11:29Z</time>
</trkpt>
<trkpt lat="44.8957043" lon="5.3696079">
<ele>1057.35</ele>
<time>2019-07-25T12:11:30Z</time>
</trkpt>
<trkpt lat="44.8957049" lon="5.3696088">
<ele>1057.29</ele>
<time>2019-07-25T12:11:31Z</time>
</trkpt>
<trkpt lat="44.8957011" lon="5.3696161">
<ele>1057.23</ele>
<time>2019-07-25T12:11:32Z</time>
</trkpt>
<trkpt lat="44.8957042" lon="5.3696198">
<ele>1057.17</ele>
<time>2019-07-25T12:11:33Z</time>
</trkpt>
<trkpt lat="44.8957069" lon="5.3696219">
<ele>1057.16</ele>
<time>2019-07-25T12:11:34Z</time>
</trkpt>
<trkpt lat="44.8957067" lon="5.3696217">
<ele>1057.16</ele>
<time>2019-07-25T12:11:35Z</time>
</trkpt>
<trkpt lat="44.8957066" lon="5.3696216">
<ele>1057.15</ele>
<time>2019-07-25T12:11:36Z</time>
</trkpt>
<trkpt lat="44.8957065" lon="5.3696218">
<ele>1057.15</ele>
<time>2019-07-25T12:11:37Z</time>
</trkpt>
<trkpt lat="44.8957064" lon="5.3696219">
<ele>1057.14</ele>
<time>2019-07-25T12:11:38Z</time>
</trkpt>
<trkpt lat="44.8957064" lon="5.3696218">
<ele>1057.13</ele>
<time>2019-07-25T12:11:39Z</time>
</trkpt>
<trkpt lat="44.8957064" lon="5.3696219">
<ele>1057.13</ele>
<time>2019-07-25T12:11:40Z</time>
</trkpt>
<trkpt lat="44.8957063" lon="5.3696220">
<ele>1057.12</ele>
<time>2019-07-25T12:11:41Z</time>
</trkpt>
<trkpt lat="44.8957059" lon="5.3696228">
<ele>1057.11</ele>
<time>2019-07-25T12:11:42Z</time>
</trkpt>
<trkpt lat="44.8957052" lon="5.3696246">
<ele>1057.10</ele>
<time>2019-07-25T12:11:43Z</time>
</trkpt>
<trkpt lat="44.8957045" lon="5.3696261">
<ele>1057.10</ele>
<time>2019-07-25T12:11:44Z</time>
</trkpt>
<trkpt lat="44.8957042" lon="5.3696269">
<ele>1057.09</ele>
<time>2019-07-25T12:11:45Z</time>
</trkpt>
<trkpt lat="44.8957036" lon="5.3696277">
<ele>1057.08</ele>
<time>2019-07-25T12:11:46Z</time>
</trkpt>
<trkpt lat="44.8957034" lon="5.3696279">
<ele>1057.07</ele>
<time>2019-07-25T12:11:47Z</time>
</trkpt>
<trkpt lat="44.8957034" lon="5.3696279">
<ele>1057.07</ele>
<time>2019-07-25T12:11:48Z</time>
</trkpt>
<trkpt lat="44.8957035" lon="5.3696278">
<ele>1057.06</ele>
<time>2019-07-25T12:11:49Z</time>
</trkpt>
<trkpt lat="44.8957033" lon="5.3696279">
<ele>1057.05</ele>
<time>2019-07-25T12:11:50Z</time>
</trkpt>
<trkpt lat="44.8957036" lon="5.3696272">
<ele>1057.04</ele>
<time>2019-07-25T12:11:51Z</time>
</trkpt>
<trkpt lat="44.8957037" lon="5.3696266">
<ele>1057.04</ele>
<time>2019-07-25T12:11:52Z</time>
</trkpt>
<trkpt lat="44.8957037" lon="5.3696265">
<ele>1057.03</ele>
<time>2019-07-25T12:11:53Z</time>
</trkpt>
<trkpt lat="44.8957037" lon="5.3696263">
<ele>1057.02</ele>
<time>2019-07-25T12:11:54Z</time>
</trkpt>
<trkpt lat="44.8957036" lon="5.3696261">
<ele>1057.01</ele>
<time>2019-07-25T12:11:55Z</time>
</trkpt>
<trkpt lat="44.8957036" lon="5.3696260">
<ele>1057.00</ele>
<time>2019-07-25T12:11:56Z</time>
</trkpt>
<trkpt lat="44.8957036" lon="5.3696257">
<ele>1057.00</ele>
<time>2019-07-25T12:11:57Z</time>
</trkpt>
<trkpt lat="44.8957036" lon="5.3696252">
<ele>1056.99</ele>
<time>2019-07-25T12:11:58Z</time>
</trkpt>
<trkpt lat="44.8957039" lon="5.3696240">
<ele>1056.98</ele>
<time>2019-07-25T12:11:59Z</time>
</trkpt>
<trkpt lat="44.8957039" lon="5.3696237">
<ele>1056.97</ele>
<time>2019-07-25T12:12:00Z</time>
</trkpt>
<trkpt lat="44.8957037" lon="5.3696236">
<ele>1056.96</ele>
<time>2019-07-25T12:12:01Z</time>
</trkpt>
<trkpt lat="44.8957037" lon="5.3696233">
<ele>1056.95</ele>
<time>2019-07-25T12:12:02Z</time>
</trkpt>
<trkpt lat="44.8957038" lon="5.3696230">
<ele>1056.94</ele>
<time>2019-07-25T12:12:03Z</time>
</trkpt>
<trkpt lat="44.8957036" lon="5.3696228">
<ele>1056.93</ele>
<time>2019-07-25T12:12:04Z</time>
</trkpt>
<trkpt lat="44.8957036" lon="5.3696230">
<ele>1056.93</ele>
<time>2019-07-25T12:12:05Z</time>
</trkpt>
<trkpt lat="44.8957036" lon="5.3696225">
<ele>1056.92</ele>
<time>2019-07-25T12:12:06Z</time>
</trkpt>
<trkpt lat="44.8957031" lon="5.3696232">
<ele>1056.91</ele>
<time>2019-07-25T12:12:07Z</time>
</trkpt>
<trkpt lat="44.8957030" lon="5.3696232">
<ele>1056.90</ele>
<time>2019-07-25T12:12:08Z</time>
</trkpt>
<trkpt lat="44.8957032" lon="5.3696225">
<ele>1056.89</ele>
<time>2019-07-25T12:12:09Z</time>
</trkpt>
<trkpt lat="44.8957035" lon="5.3696217">
<ele>1056.88</ele>
<time>2019-07-25T12:12:10Z</time>
</trkpt>
<trkpt lat="44.8957038" lon="5.3696203">
<ele>1056.87</ele>
<time>2019-07-25T12:12:11Z</time>
</trkpt>
<trkpt lat="44.8957041" lon="5.3696191">
<ele>1056.86</ele>
<time>2019-07-25T12:12:12Z</time>
</trkpt>
<trkpt lat="44.8957045" lon="5.3696179">
<ele>1056.85</ele>
<time>2019-07-25T12:12:13Z</time>
</trkpt>
<trkpt lat="44.8957045" lon="5.3696177">
<ele>1056.84</ele>
<time>2019-07-25T12:12:14Z</time>
</trkpt>
<trkpt lat="44.8957046" lon="5.3696171">
<ele>1056.84</ele>
<time>2019-07-25T12:12:15Z</time>
</trkpt>
<trkpt lat="44.8957046" lon="5.3696167">
<ele>1056.83</ele>
<time>2019-07-25T12:12:16Z</time>
</trkpt>
<trkpt lat="44.8957045" lon="5.3696166">
<ele>1056.82</ele>
<time>2019-07-25T12:12:17Z</time>
</trkpt>
<trkpt lat="44.8957044" lon="5.3696168">
<ele>1056.81</ele>
<time>2019-07-25T12:12:18Z</time>
</trkpt>
<trkpt lat="44.8957042" lon="5.3696171">
<ele>1056.80</ele>
<time>2019-07-25T12:12:19Z</time>
</trkpt>
<trkpt lat="44.8957037" lon="5.3696178">
<ele>1056.79</ele>
<time>2019-07-25T12:12:20Z</time>
</trkpt>
<trkpt lat="44.8957036" lon="5.3696180">
<ele>1056.78</ele>
<time>2019-07-25T12:12:21Z</time>
</trkpt>
<trkpt lat="44.8957033" lon="5.3696186">
<ele>1056.77</ele>
<time>2019-07-25T12:12:22Z</time>
</trkpt>
<trkpt lat="44.8957030" lon="5.3696188">
<ele>1056.76</ele>
<time>2019-07-25T12:12:23Z</time>
</trkpt>
<trkpt lat="44.8957027" lon="5.3696191">
<ele>1056.75</ele>
<time>2019-07-25T12:12:24Z</time>
</trkpt>
<trkpt lat="44.8957026" lon="5.3696191">
<ele>1056.74</ele>
<time>2019-07-25T12:12:25Z</time>
</trkpt>
<trkpt lat="44.8957024" lon="5.3696192">
<ele>1056.73</ele>
<time>2019-07-25T12:12:26Z</time>
</trkpt>
<trkpt lat="44.8957021" lon="5.3696195">
<ele>1056.72</ele>
<time>2019-07-25T12:12:27Z</time>
</trkpt>
<trkpt lat="44.8957018" lon="5.3696196">
<ele>1056.71</ele>
<time>2019-07-25T12:12:28Z</time>
</trkpt>
<trkpt lat="44.8957016" lon="5.3696198">
<ele>1056.70</ele>
<time>2019-07-25T12:12:29Z</time>
</trkpt>
<trkpt lat="44.8957012" lon="5.3696202">
<ele>1056.69</ele>
<time>2019-07-25T12:12:30Z</time>
</trkpt>
<trkpt lat="44.8956997" lon="5.3696220">
<ele>1056.69</ele>
<time>2019-07-25T12:12:31Z</time>
</trkpt>
<trkpt lat="44.8956993" lon="5.3695953">
<ele>1056.59</ele>
<time>2019-07-25T12:12:32Z</time>
</trkpt>
<trkpt lat="44.8956956" lon="5.3695997">
<ele>1056.58</ele>
<time>2019-07-25T12:12:33Z</time>
</trkpt>
<trkpt lat="44.8956927" lon="5.3695990">
<ele>1056.57</ele>
<time>2019-07-25T12:12:34Z</time>
</trkpt>
<trkpt lat="44.8956924" lon="5.3695987">
<ele>1056.56</ele>
<time>2019-07-25T12:12:35Z</time>
</trkpt>
<trkpt lat="44.8956923" lon="5.3695978">
<ele>1056.56</ele>
<time>2019-07-25T12:12:36Z</time>
</trkpt>
<trkpt lat="44.8956924" lon="5.3695871">
<ele>1056.46</ele>
<time>2019-07-25T12:12:37Z</time>
</trkpt>
<trkpt lat="44.8956918" lon="5.3695830">
<ele>1056.38</ele>
<time>2019-07-25T12:12:38Z</time>
</trkpt>
<trkpt lat="44.8956944" lon="5.3695772">
<ele>1056.29</ele>
<time>2019-07-25T12:12:39Z</time>
</trkpt>
<trkpt lat="44.8956988" lon="5.3695735">
<ele>1056.20</ele>
<time>2019-07-25T12:12:40Z</time>
</trkpt>
<trkpt lat="44.8956957" lon="5.3695779">
<ele>1056.19</ele>
<time>2019-07-25T12:12:41Z</time>
</trkpt>
<trkpt lat="44.8956995" lon="5.3695745">
<ele>1056.11</ele>
<time>2019-07-25T12:12:42Z</time>
</trkpt>
<trkpt lat="44.8956978" lon="5.3695732">
<ele>1056.10</ele>
<time>2019-07-25T12:12:43Z</time>
</trkpt>
<trkpt lat="44.8956987" lon="5.3695764">
<ele>1056.10</ele>
<time>2019-07-25T12:12:44Z</time>
</trkpt>
<trkpt lat="44.8956967" lon="5.3695802">
<ele>1056.09</ele>
<time>2019-07-25T12:12:45Z</time>
</trkpt>
<trkpt lat="44.8956952" lon="5.3695778">
<ele>1056.08</ele>
<time>2019-07-25T12:12:46Z</time>
</trkpt>
<trkpt lat="44.8956948" lon="5.3695781">
<ele>1056.01</ele>
<time>2019-07-25T12:12:47Z</time>
</trkpt>
<trkpt lat="44.8956936" lon="5.3695791">
<ele>1056.00</ele>
<time>2019-07-25T12:12:48Z</time>
</trkpt>
<trkpt lat="44.8956949" lon="5.3695785">
<ele>1055.99</ele>
<time>2019-07-25T12:12:49Z</time>
</trkpt>
<trkpt lat="44.8956948" lon="5.3695779">
<ele>1055.99</ele>
<time>2019-07-25T12:12:50Z</time>
</trkpt>
<trkpt lat="44.8956951" lon="5.3695780">
<ele>1055.98</ele>
<time>2019-07-25T12:12:51Z</time>
</trkpt>
<trkpt lat="44.8956955" lon="5.3695776">
<ele>1055.97</ele>
<time>2019-07-25T12:12:52Z</time>
</trkpt>
<trkpt lat="44.8956959" lon="5.3695769">
<ele>1055.97</ele>
<time>2019-07-25T12:12:53Z</time>
</trkpt>
<trkpt lat="44.8956960" lon="5.3695765">
<ele>1055.96</ele>
<time>2019-07-25T12:12:54Z</time>
</trkpt>
<trkpt lat="44.8956963" lon="5.3695760">
<ele>1055.96</ele>
<time>2019-07-25T12:12:55Z</time>
</trkpt>
<trkpt lat="44.8956965" lon="5.3695746">
<ele>1055.95</ele>
<time>2019-07-25T12:12:56Z</time>
</trkpt>
<trkpt lat="44.8956964" lon="5.3695740">
<ele>1055.95</ele>
<time>2019-07-25T12:12:57Z</time>
</trkpt>
<trkpt lat="44.8956958" lon="5.3695724">
<ele>1055.94</ele>
<time>2019-07-25T12:12:58Z</time>
</trkpt>
<trkpt lat="44.8956951" lon="5.3695712">
<ele>1055.94</ele>
<time>2019-07-25T12:12:59Z</time>
</trkpt>
<trkpt lat="44.8956949" lon="5.3695712">
<ele>1055.94</ele>
<time>2019-07-25T12:13:00Z</time>
</trkpt>
<trkpt lat="44.8956948" lon="5.3695696">
<ele>1055.94</ele>
<time>2019-07-25T12:13:01Z</time>
</trkpt>
<trkpt lat="44.8956966" lon="5.3695687">
<ele>1055.93</ele>
<time>2019-07-25T12:13:02Z</time>
</trkpt>
<trkpt lat="44.8956965" lon="5.3695686">
<ele>1055.93</ele>
<time>2019-07-25T12:13:03Z</time>
</trkpt>
<trkpt lat="44.8956966" lon="5.3695673">
<ele>1055.78</ele>
<time>2019-07-25T12:13:04Z</time>
</trkpt>
<trkpt lat="44.8956965" lon="5.3695667">
<ele>1055.66</ele>
<time>2019-07-25T12:13:05Z</time>
</trkpt>
<trkpt lat="44.8956967" lon="5.3695666">
<ele>1055.59</ele>
<time>2019-07-25T12:13:06Z</time>
</trkpt>
<trkpt lat="44.8956963" lon="5.3695671">
<ele>1055.54</ele>
<time>2019-07-25T12:13:07Z</time>
</trkpt>
<trkpt lat="44.8956962" lon="5.3695671">
<ele>1055.54</ele>
<time>2019-07-25T12:13:08Z</time>
</trkpt>
<trkpt lat="44.8956961" lon="5.3695671">
<ele>1055.54</ele>
<time>2019-07-25T12:13:09Z</time>
</trkpt>
<trkpt lat="44.8956964" lon="5.3695668">
<ele>1055.54</ele>
<time>2019-07-25T12:13:10Z</time>
</trkpt>
<trkpt lat="44.8956967" lon="5.3695658">
<ele>1055.54</ele>
<time>2019-07-25T12:13:11Z</time>
</trkpt>
<trkpt lat="44.8956969" lon="5.3695652">
<ele>1055.54</ele>
<time>2019-07-25T12:13:12Z</time>
</trkpt>
<trkpt lat="44.8956969" lon="5.3695652">
<ele>1055.54</ele>
<time>2019-07-25T12:13:13Z</time>
</trkpt>
<trkpt lat="44.8956976" lon="5.3695641">
<ele>1055.54</ele>
<time>2019-07-25T12:13:14Z</time>
</trkpt>
<trkpt lat="44.8956979" lon="5.3695634">
<ele>1055.54</ele>
<time>2019-07-25T12:13:15Z</time>
</trkpt>
<trkpt lat="44.8956980" lon="5.3695637">
<ele>1055.54</ele>
<time>2019-07-25T12:13:16Z</time>
</trkpt>
<trkpt lat="44.8956985" lon="5.3695642">
<ele>1055.54</ele>
<time>2019-07-25T12:13:17Z</time>
</trkpt>
<trkpt lat="44.8956994" lon="5.3695644">
<ele>1055.54</ele>
<time>2019-07-25T12:13:18Z</time>
</trkpt>
<trkpt lat="44.8957000" lon="5.3695636">
<ele>1055.55</ele>
<time>2019-07-25T12:13:19Z</time>
</trkpt>
<trkpt lat="44.8956997" lon="5.3695641">
<ele>1055.55</ele>
<time>2019-07-25T12:13:20Z</time>
</trkpt>
<trkpt lat="44.8957188" lon="5.3695513">
<ele>1055.55</ele>
<time>2019-07-25T12:13:21Z</time>
</trkpt>
<trkpt lat="44.8957243" lon="5.3695432">
<ele>1055.55</ele>
<time>2019-07-25T12:13:22Z</time>
</trkpt>
<trkpt lat="44.8957245" lon="5.3695431">
<ele>1055.55</ele>
<time>2019-07-25T12:13:23Z</time>
</trkpt>
<trkpt lat="44.8957257" lon="5.3695432">
<ele>1055.55</ele>
<time>2019-07-25T12:13:24Z</time>
</trkpt>
<trkpt lat="44.8957266" lon="5.3695431">
<ele>1055.55</ele>
<time>2019-07-25T12:13:25Z</time>
</trkpt>
<trkpt lat="44.8957267" lon="5.3695428">
<ele>1055.55</ele>
<time>2019-07-25T12:13:26Z</time>
</trkpt>
<trkpt lat="44.8957270" lon="5.3695426">
<ele>1055.56</ele>
<time>2019-07-25T12:13:27Z</time>
</trkpt>
<trkpt lat="44.8957270" lon="5.3695423">
<ele>1055.56</ele>
<time>2019-07-25T12:13:28Z</time>
</trkpt>
<trkpt lat="44.8957271" lon="5.3695404">
<ele>1055.56</ele>
<time>2019-07-25T12:13:29Z</time>
</trkpt>
<trkpt lat="44.8957182" lon="5.3695528">
<ele>1055.57</ele>
<time>2019-07-25T12:13:30Z</time>
</trkpt>
<trkpt lat="44.8957154" lon="5.3695611">
<ele>1055.57</ele>
<time>2019-07-25T12:13:31Z</time>
</trkpt>
<trkpt lat="44.8957112" lon="5.3695714">
<ele>1055.69</ele>
<time>2019-07-25T12:13:32Z</time>
</trkpt>
<trkpt lat="44.8957111" lon="5.3695715">
<ele>1055.78</ele>
<time>2019-07-25T12:13:33Z</time>
</trkpt>
<trkpt lat="44.8957112" lon="5.3695710">
<ele>1055.84</ele>
<time>2019-07-25T12:13:34Z</time>
</trkpt>
<trkpt lat="44.8957114" lon="5.3695703">
<ele>1055.88</ele>
<time>2019-07-25T12:13:35Z</time>
</trkpt>
<trkpt lat="44.8957115" lon="5.3695699">
<ele>1055.89</ele>
<time>2019-07-25T12:13:36Z</time>
</trkpt>
<trkpt lat="44.8957114" lon="5.3695701">
<ele>1055.91</ele>
<time>2019-07-25T12:13:37Z</time>
</trkpt>
<trkpt lat="44.8957112" lon="5.3695706">
<ele>1055.90</ele>
<time>2019-07-25T12:13:38Z</time>
</trkpt>
<trkpt lat="44.8957107" lon="5.3695719">
<ele>1055.89</ele>
<time>2019-07-25T12:13:39Z</time>
</trkpt>
<trkpt lat="44.8957024" lon="5.3695915">
<ele>1055.87</ele>
<time>2019-07-25T12:13:40Z</time>
</trkpt>
<trkpt lat="44.8957013" lon="5.3695925">
<ele>1055.87</ele>
<time>2019-07-25T12:13:41Z</time>
</trkpt>
<trkpt lat="44.8957013" lon="5.3695920">
<ele>1055.87</ele>
<time>2019-07-25T12:13:42Z</time>
</trkpt>
<trkpt lat="44.8957009" lon="5.3695925">
<ele>1055.87</ele>
<time>2019-07-25T12:13:43Z</time>
</trkpt>
<trkpt lat="44.8957000" lon="5.3695924">
<ele>1055.87</ele>
<time>2019-07-25T12:13:44Z</time>
</trkpt>
<trkpt lat="44.8956999" lon="5.3695932">
<ele>1055.87</ele>
<time>2019-07-25T12:13:45Z</time>
</trkpt>
<trkpt lat="44.8956997" lon="5.3695937">
<ele>1055.87</ele>
<time>2019-07-25T12:13:46Z</time>
</trkpt>
<trkpt lat="44.8956991" lon="5.3695948">
<ele>1055.87</ele>
<time>2019-07-25T12:13:47Z</time>
</trkpt>
<trkpt lat="44.8956987" lon="5.3695970">
<ele>1055.87</ele>
<time>2019-07-25T12:13:48Z</time>
</trkpt>
<trkpt lat="44.8956972" lon="5.3695972">
<ele>1055.87</ele>
<time>2019-07-25T12:13:49Z</time>
</trkpt>
<trkpt lat="44.8956947" lon="5.3696153">
<ele>1055.86</ele>
<time>2019-07-25T12:13:50Z</time>
</trkpt>
<trkpt lat="44.8956857" lon="5.3695963">
<ele>1055.86</ele>
<time>2019-07-25T12:13:51Z</time>
</trkpt>
<trkpt lat="44.8956916" lon="5.3695962">
<ele>1055.86</ele>
<time>2019-07-25T12:13:52Z</time>
</trkpt>
<trkpt lat="44.8956893" lon="5.3695817">
<ele>1055.86</ele>
<time>2019-07-25T12:13:53Z</time>
</trkpt>
<trkpt lat="44.8956888" lon="5.3695609">
<ele>1055.87</ele>
<time>2019-07-25T12:13:54Z</time>
</trkpt>
<trkpt lat="44.8956892" lon="5.3695579">
<ele>1055.87</ele>
<time>2019-07-25T12:13:55Z</time>
</trkpt>
<trkpt lat="44.8956935" lon="5.3695689">
<ele>1055.89</ele>
<time>2019-07-25T12:13:56Z</time>
</trkpt>
<trkpt lat="44.8956933" lon="5.3695788">
<ele>1055.91</ele>
<time>2019-07-25T12:13:57Z</time>
</trkpt>
<trkpt lat="44.8956919" lon="5.3695718">
<ele>1055.92</ele>
<time>2019-07-25T12:13:58Z</time>
</trkpt>
<trkpt lat="44.8956913" lon="5.3695597">
<ele>1055.93</ele>
<time>2019-07-25T12:13:59Z</time>
</trkpt>
<trkpt lat="44.8956918" lon="5.3695618">
<ele>1055.93</ele>
<time>2019-07-25T12:14:00Z</time>
</trkpt>
<trkpt lat="44.8956919" lon="5.3695570">
<ele>1055.93</ele>
<time>2019-07-25T12:14:01Z</time>
</trkpt>
<trkpt lat="44.8956917" lon="5.3695569">
<ele>1055.93</ele>
<time>2019-07-25T12:14:02Z</time>
</trkpt>
<trkpt lat="44.8956898" lon="5.3695578">
<ele>1055.94</ele>
<time>2019-07-25T12:14:03Z</time>
</trkpt>
<trkpt lat="44.8956880" lon="5.3695531">
<ele>1055.94</ele>
<time>2019-07-25T12:14:04Z</time>
</trkpt>
<trkpt lat="44.8956889" lon="5.3695500">
<ele>1055.97</ele>
<time>2019-07-25T12:14:05Z</time>
</trkpt>
<trkpt lat="44.8956863" lon="5.3695489">
<ele>1056.01</ele>
<time>2019-07-25T12:14:06Z</time>
</trkpt>
<trkpt lat="44.8956856" lon="5.3695525">
<ele>1056.01</ele>
<time>2019-07-25T12:14:07Z</time>
</trkpt>
<trkpt lat="44.8956843" lon="5.3695517">
<ele>1056.02</ele>
<time>2019-07-25T12:14:08Z</time>
</trkpt>
<trkpt lat="44.8956837" lon="5.3695670">
<ele>1056.05</ele>
<time>2019-07-25T12:14:09Z</time>
</trkpt>
<trkpt lat="44.8956802" lon="5.3695744">
<ele>1056.09</ele>
<time>2019-07-25T12:14:10Z</time>
</trkpt>
<trkpt lat="44.8956858" lon="5.3695637">
<ele>1056.13</ele>
<time>2019-07-25T12:14:11Z</time>
</trkpt>
<trkpt lat="44.8956858" lon="5.3695546">
<ele>1056.17</ele>
<time>2019-07-25T12:14:12Z</time>
</trkpt>
<trkpt lat="44.8956855" lon="5.3695590">
<ele>1056.17</ele>
<time>2019-07-25T12:14:13Z</time>
</trkpt>
<trkpt lat="44.8956858" lon="5.3695588">
<ele>1056.18</ele>
<time>2019-07-25T12:14:14Z</time>
</trkpt>
<trkpt lat="44.8956860" lon="5.3695613">
<ele>1056.18</ele>
<time>2019-07-25T12:14:15Z</time>
</trkpt>
<trkpt lat="44.8956869" lon="5.3695566">
<ele>1056.19</ele>
<time>2019-07-25T12:14:16Z</time>
</trkpt>
<trkpt lat="44.8956886" lon="5.3695549">
<ele>1056.23</ele>
<time>2019-07-25T12:14:17Z</time>
</trkpt>
<trkpt lat="44.8956900" lon="5.3695496">
<ele>1056.27</ele>
<time>2019-07-25T12:14:18Z</time>
</trkpt>
<trkpt lat="44.8956901" lon="5.3695470">
<ele>1056.27</ele>
<time>2019-07-25T12:14:19Z</time>
</trkpt>
<trkpt lat="44.8956899" lon="5.3695422">
<ele>1056.27</ele>
<time>2019-07-25T12:14:20Z</time>
</trkpt>
<trkpt lat="44.8956900" lon="5.3695471">
<ele>1056.68</ele>
<time>2019-07-25T12:14:21Z</time>
</trkpt>
<trkpt lat="44.8956860" lon="5.3695488">
<ele>1056.68</ele>
<time>2019-07-25T12:14:22Z</time>
</trkpt>
<trkpt lat="44.8956857" lon="5.3695497">
<ele>1056.68</ele>
<time>2019-07-25T12:14:23Z</time>
</trkpt>
<trkpt lat="44.8956852" lon="5.3695521">
<ele>1056.69</ele>
<time>2019-07-25T12:14:24Z</time>
</trkpt>
<trkpt lat="44.8956847" lon="5.3695515">
<ele>1056.69</ele>
<time>2019-07-25T12:14:25Z</time>
</trkpt>
<trkpt lat="44.8956846" lon="5.3695521">
<ele>1057.07</ele>
<time>2019-07-25T12:14:26Z</time>
</trkpt>
<trkpt lat="44.8956844" lon="5.3695536">
<ele>1057.36</ele>
<time>2019-07-25T12:14:27Z</time>
</trkpt>
<trkpt lat="44.8956840" lon="5.3695610">
<ele>1057.61</ele>
<time>2019-07-25T12:14:28Z</time>
</trkpt>
<trkpt lat="44.8956847" lon="5.3695647">
<ele>1057.79</ele>
<time>2019-07-25T12:14:29Z</time>
</trkpt>
<trkpt lat="44.8956868" lon="5.3695562">
<ele>1057.93</ele>
<time>2019-07-25T12:14:30Z</time>
</trkpt>
<trkpt lat="44.8956901" lon="5.3695652">
<ele>1058.04</ele>
<time>2019-07-25T12:14:31Z</time>
</trkpt>
<trkpt lat="44.8956911" lon="5.3695703">
<ele>1058.12</ele>
<time>2019-07-25T12:14:32Z</time>
</trkpt>
<trkpt lat="44.8956916" lon="5.3695706">
<ele>1058.17</ele>
<time>2019-07-25T12:14:33Z</time>
</trkpt>
<trkpt lat="44.8956919" lon="5.3695722">
<ele>1058.21</ele>
<time>2019-07-25T12:14:34Z</time>
</trkpt>
<trkpt lat="44.8956917" lon="5.3695737">
<ele>1058.23</ele>
<time>2019-07-25T12:14:35Z</time>
</trkpt>
<trkpt lat="44.8956915" lon="5.3695751">
<ele>1058.22</ele>
<time>2019-07-25T12:14:36Z</time>
</trkpt>
<trkpt lat="44.8956915" lon="5.3695775">
<ele>1058.21</ele>
<time>2019-07-25T12:14:37Z</time>
</trkpt>
<trkpt lat="44.8956916" lon="5.3695776">
<ele>1058.14</ele>
<time>2019-07-25T12:14:38Z</time>
</trkpt>
<trkpt lat="44.8956916" lon="5.3695791">
<ele>1058.06</ele>
<time>2019-07-25T12:14:39Z</time>
</trkpt>
<trkpt lat="44.8956917" lon="5.3695813">
<ele>1058.06</ele>
<time>2019-07-25T12:14:40Z</time>
</trkpt>
<trkpt lat="44.8956918" lon="5.3695845">
<ele>1057.97</ele>
<time>2019-07-25T12:14:41Z</time>
</trkpt>
<trkpt lat="44.8956921" lon="5.3695880">
<ele>1057.85</ele>
<time>2019-07-25T12:14:42Z</time>
</trkpt>
<trkpt lat="44.8956921" lon="5.3695879">
<ele>1057.85</ele>
<time>2019-07-25T12:14:43Z</time>
</trkpt>
<trkpt lat="44.8956922" lon="5.3695886">
<ele>1057.71</ele>
<time>2019-07-25T12:14:44Z</time>
</trkpt>
<trkpt lat="44.8956925" lon="5.3695910">
<ele>1057.57</ele>
<time>2019-07-25T12:14:45Z</time>
</trkpt>
<trkpt lat="44.8956926" lon="5.3695904">
<ele>1057.46</ele>
<time>2019-07-25T12:14:46Z</time>
</trkpt>
<trkpt lat="44.8956908" lon="5.3695871">
<ele>1057.45</ele>
<time>2019-07-25T12:14:47Z</time>
</trkpt>
<trkpt lat="44.8956898" lon="5.3695882">
<ele>1057.45</ele>
<time>2019-07-25T12:14:48Z</time>
</trkpt>
<trkpt lat="44.8956880" lon="5.3695855">
<ele>1057.44</ele>
<time>2019-07-25T12:14:49Z</time>
</trkpt>
<trkpt lat="44.8956853" lon="5.3695989">
<ele>1057.44</ele>
<time>2019-07-25T12:14:50Z</time>
</trkpt>
<trkpt lat="44.8956854" lon="5.3695995">
<ele>1057.44</ele>
<time>2019-07-25T12:14:51Z</time>
</trkpt>
<trkpt lat="44.8956853" lon="5.3695986">
<ele>1057.44</ele>
<time>2019-07-25T12:14:52Z</time>
</trkpt>
<trkpt lat="44.8956853" lon="5.3695987">
<ele>1057.44</ele>
<time>2019-07-25T12:14:53Z</time>
</trkpt>
<trkpt lat="44.8956853" lon="5.3695985">
<ele>1057.45</ele>
<time>2019-07-25T12:14:54Z</time>
</trkpt>
<trkpt lat="44.8956847" lon="5.3695948">
<ele>1057.45</ele>
<time>2019-07-25T12:14:55Z</time>
</trkpt>
<trkpt lat="44.8956847" lon="5.3695947">
<ele>1057.45</ele>
<time>2019-07-25T12:14:56Z</time>
</trkpt>
<trkpt lat="44.8956846" lon="5.3695945">
<ele>1057.45</ele>
<time>2019-07-25T12:14:57Z</time>
</trkpt>
<trkpt lat="44.8956846" lon="5.3695946">
<ele>1057.45</ele>
<time>2019-07-25T12:14:58Z</time>
</trkpt>
<trkpt lat="44.8956846" lon="5.3695949">
<ele>1057.45</ele>
<time>2019-07-25T12:14:59Z</time>
</trkpt>
<trkpt lat="44.8956846" lon="5.3695951">
<ele>1057.54</ele>
<time>2019-07-25T12:15:00Z</time>
</trkpt>
<trkpt lat="44.8956845" lon="5.3695949">
<ele>1057.62</ele>
<time>2019-07-25T12:15:01Z</time>
</trkpt>
<trkpt lat="44.8956845" lon="5.3695948">
<ele>1057.69</ele>
<time>2019-07-25T12:15:02Z</time>
</trkpt>
<trkpt lat="44.8956841" lon="5.3695922">
<ele>1057.79</ele>
<time>2019-07-25T12:15:03Z</time>
</trkpt>
<trkpt lat="44.8956841" lon="5.3695923">
<ele>1057.79</ele>
<time>2019-07-25T12:15:04Z</time>
</trkpt>
<trkpt lat="44.8956840" lon="5.3695925">
<ele>1057.79</ele>
<time>2019-07-25T12:15:05Z</time>
</trkpt>
<trkpt lat="44.8956841" lon="5.3695926">
<ele>1057.93</ele>
<time>2019-07-25T12:15:06Z</time>
</trkpt>
<trkpt lat="44.8956842" lon="5.3695935">
<ele>1058.05</ele>
<time>2019-07-25T12:15:07Z</time>
</trkpt>
<trkpt lat="44.8956841" lon="5.3695933">
<ele>1058.05</ele>
<time>2019-07-25T12:15:08Z</time>
</trkpt>
<trkpt lat="44.8956840" lon="5.3695926">
<ele>1058.06</ele>
<time>2019-07-25T12:15:09Z</time>
</trkpt>
<trkpt lat="44.8956840" lon="5.3695925">
<ele>1058.12</ele>
<time>2019-07-25T12:15:10Z</time>
</trkpt>
<trkpt lat="44.8956841" lon="5.3695933">
<ele>1058.14</ele>
<time>2019-07-25T12:15:11Z</time>
</trkpt>
<trkpt lat="44.8956845" lon="5.3695956">
<ele>1058.14</ele>
<time>2019-07-25T12:15:12Z</time>
</trkpt>
<trkpt lat="44.8956852" lon="5.3695985">
<ele>1058.11</ele>
<time>2019-07-25T12:15:13Z</time>
</trkpt>
<trkpt lat="44.8956852" lon="5.3695985">
<ele>1058.07</ele>
<time>2019-07-25T12:15:14Z</time>
</trkpt>
<trkpt lat="44.8956855" lon="5.3696001">
<ele>1058.01</ele>
<time>2019-07-25T12:15:15Z</time>
</trkpt>
<trkpt lat="44.8956854" lon="5.3695998">
<ele>1057.94</ele>
<time>2019-07-25T12:15:16Z</time>
</trkpt>
<trkpt lat="44.8956853" lon="5.3695993">
<ele>1057.88</ele>
<time>2019-07-25T12:15:17Z</time>
</trkpt>
<trkpt lat="44.8956852" lon="5.3695990">
<ele>1057.83</ele>
<time>2019-07-25T12:15:18Z</time>
</trkpt>
<trkpt lat="44.8956851" lon="5.3695984">
<ele>1057.74</ele>
<time>2019-07-25T12:15:19Z</time>
</trkpt>
<trkpt lat="44.8956847" lon="5.3695971">
<ele>1057.66</ele>
<time>2019-07-25T12:15:20Z</time>
</trkpt>
<trkpt lat="44.8956847" lon="5.3695968">
<ele>1057.58</ele>
<time>2019-07-25T12:15:21Z</time>
</trkpt>
<trkpt lat="44.8956844" lon="5.3695953">
<ele>1057.51</ele>
<time>2019-07-25T12:15:22Z</time>
</trkpt>
<trkpt lat="44.8956843" lon="5.3695951">
<ele>1057.43</ele>
<time>2019-07-25T12:15:23Z</time>
</trkpt>
<trkpt lat="44.8956843" lon="5.3695950">
<ele>1057.37</ele>
<time>2019-07-25T12:15:24Z</time>
</trkpt>
<trkpt lat="44.8956842" lon="5.3695943">
<ele>1057.28</ele>
<time>2019-07-25T12:15:25Z</time>
</trkpt>
<trkpt lat="44.8956839" lon="5.3695936">
<ele>1057.16</ele>
<time>2019-07-25T12:15:26Z</time>
</trkpt>
<trkpt lat="44.8956838" lon="5.3695933">
<ele>1057.01</ele>
<time>2019-07-25T12:15:27Z</time>
</trkpt>
<trkpt lat="44.8956838" lon="5.3695933">
<ele>1056.84</ele>
<time>2019-07-25T12:15:28Z</time>
</trkpt>
<trkpt lat="44.8956837" lon="5.3695934">
<ele>1056.68</ele>
<time>2019-07-25T12:15:29Z</time>
</trkpt>
<trkpt lat="44.8956837" lon="5.3695937">
<ele>1056.51</ele>
<time>2019-07-25T12:15:30Z</time>
</trkpt>
<trkpt lat="44.8956838" lon="5.3695946">
<ele>1056.35</ele>
<time>2019-07-25T12:15:31Z</time>
</trkpt>
<trkpt lat="44.8956842" lon="5.3695964">
<ele>1056.18</ele>
<time>2019-07-25T12:15:32Z</time>
</trkpt>
<trkpt lat="44.8956841" lon="5.3695963">
<ele>1056.02</ele>
<time>2019-07-25T12:15:33Z</time>
</trkpt>
<trkpt lat="44.8956840" lon="5.3695961">
<ele>1055.86</ele>
<time>2019-07-25T12:15:34Z</time>
</trkpt>
<trkpt lat="44.8956835" lon="5.3695945">
<ele>1055.72</ele>
<time>2019-07-25T12:15:35Z</time>
</trkpt>
<trkpt lat="44.8956835" lon="5.3695945">
<ele>1055.58</ele>
<time>2019-07-25T12:15:36Z</time>
</trkpt>
<trkpt lat="44.8956838" lon="5.3695956">
<ele>1055.45</ele>
<time>2019-07-25T12:15:37Z</time>
</trkpt>
<trkpt lat="44.8956837" lon="5.3695955">
<ele>1055.35</ele>
<time>2019-07-25T12:15:38Z</time>
</trkpt>
<trkpt lat="44.8956837" lon="5.3695954">
<ele>1055.26</ele>
<time>2019-07-25T12:15:39Z</time>
</trkpt>
<trkpt lat="44.8956837" lon="5.3695953">
<ele>1055.16</ele>
<time>2019-07-25T12:15:40Z</time>
</trkpt>
<trkpt lat="44.8956836" lon="5.3695951">
<ele>1055.07</ele>
<time>2019-07-25T12:15:41Z</time>
</trkpt>
<trkpt lat="44.8956835" lon="5.3695954">
<ele>1055.01</ele>
<time>2019-07-25T12:15:42Z</time>
</trkpt>
<trkpt lat="44.8956835" lon="5.3695952">
<ele>1055.00</ele>
<time>2019-07-25T12:15:43Z</time>
</trkpt>
<trkpt lat="44.8956835" lon="5.3695956">
<ele>1055.00</ele>
<time>2019-07-25T12:15:44Z</time>
</trkpt>
<trkpt lat="44.8956835" lon="5.3695958">
<ele>1054.98</ele>
<time>2019-07-25T12:15:45Z</time>
</trkpt>
<trkpt lat="44.8956838" lon="5.3695978">
<ele>1054.98</ele>
<time>2019-07-25T12:15:46Z</time>
</trkpt>
<trkpt lat="44.8956839" lon="5.3695986">
<ele>1054.95</ele>
<time>2019-07-25T12:15:47Z</time>
</trkpt>
<trkpt lat="44.8956841" lon="5.3695993">
<ele>1054.93</ele>
<time>2019-07-25T12:15:48Z</time>
</trkpt>
<trkpt lat="44.8956840" lon="5.3695991">
<ele>1054.92</ele>
<time>2019-07-25T12:15:49Z</time>
</trkpt>
<trkpt lat="44.8956840" lon="5.3695995">
<ele>1054.92</ele>
<time>2019-07-25T12:15:50Z</time>
</trkpt>
<trkpt lat="44.8956841" lon="5.3695997">
<ele>1054.90</ele>
<time>2019-07-25T12:15:51Z</time>
</trkpt>
<trkpt lat="44.8956843" lon="5.3696013">
<ele>1054.89</ele>
<time>2019-07-25T12:15:52Z</time>
</trkpt>
<trkpt lat="44.8956847" lon="5.3696036">
<ele>1054.87</ele>
<time>2019-07-25T12:15:53Z</time>
</trkpt>
<trkpt lat="44.8956849" lon="5.3696049">
<ele>1054.83</ele>
<time>2019-07-25T12:15:54Z</time>
</trkpt>
<trkpt lat="44.8956850" lon="5.3696051">
<ele>1054.80</ele>
<time>2019-07-25T12:15:55Z</time>
</trkpt>
<trkpt lat="44.8956854" lon="5.3696068">
<ele>1054.77</ele>
<time>2019-07-25T12:15:56Z</time>
</trkpt>
<trkpt lat="44.8956854" lon="5.3696067">
<ele>1054.74</ele>
<time>2019-07-25T12:15:57Z</time>
</trkpt>
<trkpt lat="44.8956853" lon="5.3696065">
<ele>1054.70</ele>
<time>2019-07-25T12:15:58Z</time>
</trkpt>
<trkpt lat="44.8956853" lon="5.3696064">
<ele>1054.66</ele>
<time>2019-07-25T12:15:59Z</time>
</trkpt>
<trkpt lat="44.8956854" lon="5.3696071">
<ele>1054.62</ele>
<time>2019-07-25T12:16:00Z</time>
</trkpt>
<trkpt lat="44.8956860" lon="5.3696102">
<ele>1054.58</ele>
<time>2019-07-25T12:16:01Z</time>
</trkpt>
<trkpt lat="44.8956869" lon="5.3696141">
<ele>1054.52</ele>
<time>2019-07-25T12:16:02Z</time>
</trkpt>
<trkpt lat="44.8956869" lon="5.3696140">
<ele>1054.44</ele>
<time>2019-07-25T12:16:03Z</time>
</trkpt>
<trkpt lat="44.8956875" lon="5.3696183">
<ele>1054.44</ele>
<time>2019-07-25T12:16:04Z</time>
</trkpt>
<trkpt lat="44.8956868" lon="5.3696184">
<ele>1054.44</ele>
<time>2019-07-25T12:16:05Z</time>
</trkpt>
<trkpt lat="44.8956867" lon="5.3696181">
<ele>1054.31</ele>
<time>2019-07-25T12:16:06Z</time>
</trkpt>
<trkpt lat="44.8956868" lon="5.3696189">
<ele>1054.18</ele>
<time>2019-07-25T12:16:07Z</time>
</trkpt>
<trkpt lat="44.8956874" lon="5.3696215">
<ele>1054.07</ele>
<time>2019-07-25T12:16:08Z</time>
</trkpt>
<trkpt lat="44.8956873" lon="5.3696212">
<ele>1053.96</ele>
<time>2019-07-25T12:16:09Z</time>
</trkpt>
<trkpt lat="44.8956877" lon="5.3696243">
<ele>1053.87</ele>
<time>2019-07-25T12:16:10Z</time>
</trkpt>
<trkpt lat="44.8956877" lon="5.3696251">
<ele>1053.78</ele>
<time>2019-07-25T12:16:11Z</time>
</trkpt>
<trkpt lat="44.8956878" lon="5.3696256">
<ele>1053.71</ele>
<time>2019-07-25T12:16:12Z</time>
</trkpt>
<trkpt lat="44.8956879" lon="5.3696263">
<ele>1053.63</ele>
<time>2019-07-25T12:16:13Z</time>
</trkpt>
<trkpt lat="44.8956878" lon="5.3696262">
<ele>1053.56</ele>
<time>2019-07-25T12:16:14Z</time>
</trkpt>
<trkpt lat="44.8956878" lon="5.3696262">
<ele>1053.51</ele>
<time>2019-07-25T12:16:15Z</time>
</trkpt>
<trkpt lat="44.8956880" lon="5.3696273">
<ele>1053.47</ele>
<time>2019-07-25T12:16:16Z</time>
</trkpt>
<trkpt lat="44.8956881" lon="5.3696280">
<ele>1053.43</ele>
<time>2019-07-25T12:16:17Z</time>
</trkpt>
<trkpt lat="44.8956880" lon="5.3696277">
<ele>1053.38</ele>
<time>2019-07-25T12:16:18Z</time>
</trkpt>
<trkpt lat="44.8956882" lon="5.3696291">
<ele>1053.35</ele>
<time>2019-07-25T12:16:19Z</time>
</trkpt>
<trkpt lat="44.8956893" lon="5.3696363">
<ele>1053.34</ele>
<time>2019-07-25T12:16:20Z</time>
</trkpt>
<trkpt lat="44.8956839" lon="5.3696091">
<ele>1053.34</ele>
<time>2019-07-25T12:16:21Z</time>
</trkpt>
<trkpt lat="44.8956837" lon="5.3696070">
<ele>1053.34</ele>
<time>2019-07-25T12:16:22Z</time>
</trkpt>
<trkpt lat="44.8956837" lon="5.3696102">
<ele>1053.34</ele>
<time>2019-07-25T12:16:23Z</time>
</trkpt>
<trkpt lat="44.8956843" lon="5.3696173">
<ele>1053.34</ele>
<time>2019-07-25T12:16:24Z</time>
</trkpt>
<trkpt lat="44.8956847" lon="5.3696215">
<ele>1053.34</ele>
<time>2019-07-25T12:16:25Z</time>
</trkpt>
<trkpt lat="44.8956848" lon="5.3696310">
<ele>1053.34</ele>
<time>2019-07-25T12:16:26Z</time>
</trkpt>
<trkpt lat="44.8956844" lon="5.3696375">
<ele>1053.34</ele>
<time>2019-07-25T12:16:27Z</time>
</trkpt>
<trkpt lat="44.8956841" lon="5.3696417">
<ele>1053.34</ele>
<time>2019-07-25T12:16:28Z</time>
</trkpt>
<trkpt lat="44.8956844" lon="5.3696481">
<ele>1053.34</ele>
<time>2019-07-25T12:16:29Z</time>
</trkpt>
<trkpt lat="44.8956844" lon="5.3696482">
<ele>1053.34</ele>
<time>2019-07-25T12:16:30Z</time>
</trkpt>
<trkpt lat="44.8956844" lon="5.3696481">
<ele>1053.34</ele>
<time>2019-07-25T12:16:31Z</time>
</trkpt>
<trkpt lat="44.8956844" lon="5.3696482">
<ele>1053.34</ele>
<time>2019-07-25T12:16:32Z</time>
</trkpt>
<trkpt lat="44.8956844" lon="5.3696487">
<ele>1053.34</ele>
<time>2019-07-25T12:16:33Z</time>
</trkpt>
<trkpt lat="44.8956844" lon="5.3696512">
<ele>1053.35</ele>
<time>2019-07-25T12:16:34Z</time>
</trkpt>
<trkpt lat="44.8956843" lon="5.3696550">
<ele>1053.35</ele>
<time>2019-07-25T12:16:35Z</time>
</trkpt>
<trkpt lat="44.8956843" lon="5.3696561">
<ele>1053.35</ele>
<time>2019-07-25T12:16:36Z</time>
</trkpt>
<trkpt lat="44.8956843" lon="5.3696571">
<ele>1053.35</ele>
<time>2019-07-25T12:16:37Z</time>
</trkpt>
<trkpt lat="44.8956844" lon="5.3696601">
<ele>1053.35</ele>
<time>2019-07-25T12:16:38Z</time>
</trkpt>
<trkpt lat="44.8956844" lon="5.3696596">
<ele>1053.35</ele>
<time>2019-07-25T12:16:39Z</time>
</trkpt>
<trkpt lat="44.8956842" lon="5.3696581">
<ele>1053.35</ele>
<time>2019-07-25T12:16:40Z</time>
</trkpt>
<trkpt lat="44.8956842" lon="5.3696584">
<ele>1053.35</ele>
<time>2019-07-25T12:16:41Z</time>
</trkpt>
<trkpt lat="44.8956842" lon="5.3696576">
<ele>1053.36</ele>
<time>2019-07-25T12:16:42Z</time>
</trkpt>
<trkpt lat="44.8956841" lon="5.3696578">
<ele>1053.36</ele>
<time>2019-07-25T12:16:43Z</time>
</trkpt>
<trkpt lat="44.8956841" lon="5.3696576">
<ele>1053.36</ele>
<time>2019-07-25T12:16:44Z</time>
</trkpt>
<trkpt lat="44.8956842" lon="5.3696579">
<ele>1053.36</ele>
<time>2019-07-25T12:16:45Z</time>
</trkpt>
<trkpt lat="44.8956841" lon="5.3696577">
<ele>1053.36</ele>
<time>2019-07-25T12:16:46Z</time>
</trkpt>
<trkpt lat="44.8956841" lon="5.3696570">
<ele>1053.36</ele>
<time>2019-07-25T12:16:47Z</time>
</trkpt>
<trkpt lat="44.8956838" lon="5.3696550">
<ele>1053.36</ele>
<time>2019-07-25T12:16:48Z</time>
</trkpt>
<trkpt lat="44.8956835" lon="5.3696519">
<ele>1053.37</ele>
<time>2019-07-25T12:16:49Z</time>
</trkpt>
<trkpt lat="44.8956836" lon="5.3696519">
<ele>1053.37</ele>
<time>2019-07-25T12:16:50Z</time>
</trkpt>
<trkpt lat="44.8956836" lon="5.3696520">
<ele>1053.37</ele>
<time>2019-07-25T12:16:51Z</time>
</trkpt>
<trkpt lat="44.8956836" lon="5.3696526">
<ele>1053.37</ele>
<time>2019-07-25T12:16:52Z</time>
</trkpt>
<trkpt lat="44.8956838" lon="5.3696552">
<ele>1053.37</ele>
<time>2019-07-25T12:16:53Z</time>
</trkpt>
<trkpt lat="44.8956842" lon="5.3696595">
<ele>1053.38</ele>
<time>2019-07-25T12:16:54Z</time>
</trkpt>
<trkpt lat="44.8956841" lon="5.3696594">
<ele>1053.38</ele>
<time>2019-07-25T12:16:55Z</time>
</trkpt>
<trkpt lat="44.8956841" lon="5.3696592">
<ele>1053.38</ele>
<time>2019-07-25T12:16:56Z</time>
</trkpt>
<trkpt lat="44.8956841" lon="5.3696592">
<ele>1053.39</ele>
<time>2019-07-25T12:16:57Z</time>
</trkpt>
<trkpt lat="44.8956843" lon="5.3696604">
<ele>1053.39</ele>
<time>2019-07-25T12:16:58Z</time>
</trkpt>
<trkpt lat="44.8956842" lon="5.3696603">
<ele>1053.39</ele>
<time>2019-07-25T12:16:59Z</time>
</trkpt>
<trkpt lat="44.8956843" lon="5.3696613">
<ele>1053.40</ele>
<time>2019-07-25T12:17:00Z</time>
</trkpt>
<trkpt lat="44.8956843" lon="5.3696613">
<ele>1053.40</ele>
<time>2019-07-25T12:17:01Z</time>
</trkpt>
<trkpt lat="44.8956842" lon="5.3696609">
<ele>1053.40</ele>
<time>2019-07-25T12:17:02Z</time>
</trkpt>
<trkpt lat="44.8956837" lon="5.3696570">
<ele>1053.41</ele>
<time>2019-07-25T12:17:03Z</time>
</trkpt>
<trkpt lat="44.8956837" lon="5.3696570">
<ele>1053.41</ele>
<time>2019-07-25T12:17:04Z</time>
</trkpt>
<trkpt lat="44.8956835" lon="5.3696563">
<ele>1053.42</ele>
<time>2019-07-25T12:17:05Z</time>
</trkpt>
<trkpt lat="44.8956835" lon="5.3696575">
<ele>1053.42</ele>
<time>2019-07-25T12:17:06Z</time>
</trkpt>
<trkpt lat="44.8956835" lon="5.3696580">
<ele>1053.43</ele>
<time>2019-07-25T12:17:07Z</time>
</trkpt>
<trkpt lat="44.8956836" lon="5.3696585">
<ele>1053.43</ele>
<time>2019-07-25T12:17:08Z</time>
</trkpt>
<trkpt lat="44.8956837" lon="5.3696587">
<ele>1053.44</ele>
<time>2019-07-25T12:17:09Z</time>
</trkpt>
<trkpt lat="44.8956835" lon="5.3696587">
<ele>1053.44</ele>
<time>2019-07-25T12:17:10Z</time>
</trkpt>
<trkpt lat="44.8956836" lon="5.3696597">
<ele>1053.45</ele>
<time>2019-07-25T12:17:11Z</time>
</trkpt>
<trkpt lat="44.8956835" lon="5.3696605">
<ele>1053.45</ele>
<time>2019-07-25T12:17:12Z</time>
</trkpt>
<trkpt lat="44.8956834" lon="5.3696602">
<ele>1053.46</ele>
<time>2019-07-25T12:17:13Z</time>
</trkpt>
<trkpt lat="44.8956833" lon="5.3696599">
<ele>1053.46</ele>
<time>2019-07-25T12:17:14Z</time>
</trkpt>
<trkpt lat="44.8956830" lon="5.3696589">
<ele>1053.47</ele>
<time>2019-07-25T12:17:15Z</time>
</trkpt>
<trkpt lat="44.8956830" lon="5.3696586">
<ele>1053.47</ele>
<time>2019-07-25T12:17:16Z</time>
</trkpt>
<trkpt lat="44.8956830" lon="5.3696587">
<ele>1053.48</ele>
<time>2019-07-25T12:17:17Z</time>
</trkpt>
<trkpt lat="44.8956829" lon="5.3696587">
<ele>1053.48</ele>
<time>2019-07-25T12:17:18Z</time>
</trkpt>
<trkpt lat="44.8956829" lon="5.3696586">
<ele>1053.48</ele>
<time>2019-07-25T12:17:19Z</time>
</trkpt>
<trkpt lat="44.8956829" lon="5.3696589">
<ele>1053.49</ele>
<time>2019-07-25T12:17:20Z</time>
</trkpt>
<trkpt lat="44.8956830" lon="5.3696593">
<ele>1053.49</ele>
<time>2019-07-25T12:17:21Z</time>
</trkpt>
<trkpt lat="44.8956829" lon="5.3696601">
<ele>1053.50</ele>
<time>2019-07-25T12:17:22Z</time>
</trkpt>
<trkpt lat="44.8956829" lon="5.3696601">
<ele>1053.50</ele>
<time>2019-07-25T12:17:23Z</time>
</trkpt>
<trkpt lat="44.8956829" lon="5.3696607">
<ele>1053.50</ele>
<time>2019-07-25T12:17:24Z</time>
</trkpt>
<trkpt lat="44.8956831" lon="5.3696623">
<ele>1053.51</ele>
<time>2019-07-25T12:17:25Z</time>
</trkpt>
<trkpt lat="44.8956830" lon="5.3696628">
<ele>1053.51</ele>
<time>2019-07-25T12:17:26Z</time>
</trkpt>
<trkpt lat="44.8956830" lon="5.3696627">
<ele>1053.51</ele>
<time>2019-07-25T12:17:27Z</time>
</trkpt>
<trkpt lat="44.8956830" lon="5.3696633">
<ele>1053.52</ele>
<time>2019-07-25T12:17:28Z</time>
</trkpt>
<trkpt lat="44.8956829" lon="5.3696636">
<ele>1053.52</ele>
<time>2019-07-25T12:17:29Z</time>
</trkpt>
<trkpt lat="44.8956829" lon="5.3696646">
<ele>1053.52</ele>
<time>2019-07-25T12:17:30Z</time>
</trkpt>
<trkpt lat="44.8956831" lon="5.3696660">
<ele>1053.53</ele>
<time>2019-07-25T12:17:31Z</time>
</trkpt>
<trkpt lat="44.8956831" lon="5.3696661">
<ele>1053.53</ele>
<time>2019-07-25T12:17:32Z</time>
</trkpt>
<trkpt lat="44.8956830" lon="5.3696646">
<ele>1053.53</ele>
<time>2019-07-25T12:17:33Z</time>
</trkpt>
<trkpt lat="44.8956830" lon="5.3696644">
<ele>1053.54</ele>
<time>2019-07-25T12:17:34Z</time>
</trkpt>
<trkpt lat="44.8956829" lon="5.3696644">
<ele>1053.54</ele>
<time>2019-07-25T12:17:35Z</time>
</trkpt>
<trkpt lat="44.8956829" lon="5.3696641">
<ele>1053.54</ele>
<time>2019-07-25T12:17:36Z</time>
</trkpt>
<trkpt lat="44.8956828" lon="5.3696645">
<ele>1053.55</ele>
<time>2019-07-25T12:17:37Z</time>
</trkpt>
<trkpt lat="44.8956828" lon="5.3696652">
<ele>1053.55</ele>
<time>2019-07-25T12:17:38Z</time>
</trkpt>
<trkpt lat="44.8956829" lon="5.3696677">
<ele>1053.55</ele>
<time>2019-07-25T12:17:39Z</time>
</trkpt>
<trkpt lat="44.8956828" lon="5.3696678">
<ele>1053.55</ele>
<time>2019-07-25T12:17:40Z</time>
</trkpt>
<trkpt lat="44.8956828" lon="5.3696679">
<ele>1053.56</ele>
<time>2019-07-25T12:17:41Z</time>
</trkpt>
<trkpt lat="44.8956827" lon="5.3696673">
<ele>1053.85</ele>
<time>2019-07-25T12:17:42Z</time>
</trkpt>
<trkpt lat="44.8956826" lon="5.3696662">
<ele>1054.10</ele>
<time>2019-07-25T12:17:43Z</time>
</trkpt>
<trkpt lat="44.8956821" lon="5.3696615">
<ele>1054.31</ele>
<time>2019-07-25T12:17:44Z</time>
</trkpt>
<trkpt lat="44.8956821" lon="5.3696613">
<ele>1054.48</ele>
<time>2019-07-25T12:17:45Z</time>
</trkpt>
<trkpt lat="44.8956822" lon="5.3696632">
<ele>1054.61</ele>
<time>2019-07-25T12:17:46Z</time>
</trkpt>
<trkpt lat="44.8956821" lon="5.3696623">
<ele>1054.61</ele>
<time>2019-07-25T12:17:47Z</time>
</trkpt>
<trkpt lat="44.8956821" lon="5.3696624">
<ele>1054.62</ele>
<time>2019-07-25T12:17:48Z</time>
</trkpt>
<trkpt lat="44.8956822" lon="5.3696622">
<ele>1054.76</ele>
<time>2019-07-25T12:17:49Z</time>
</trkpt>
<trkpt lat="44.8956818" lon="5.3696617">
<ele>1054.88</ele>
<time>2019-07-25T12:17:50Z</time>
</trkpt>
<trkpt lat="44.8956830" lon="5.3696555">
<ele>1054.89</ele>
<time>2019-07-25T12:17:51Z</time>
</trkpt>
<trkpt lat="44.8956763" lon="5.3696162">
<ele>1054.89</ele>
<time>2019-07-25T12:17:52Z</time>
</trkpt>
<trkpt lat="44.8956707" lon="5.3696149">
<ele>1054.98</ele>
<time>2019-07-25T12:17:53Z</time>
</trkpt>
<trkpt lat="44.8956707" lon="5.3696145">
<ele>1055.06</ele>
<time>2019-07-25T12:17:54Z</time>
</trkpt>
<trkpt lat="44.8956707" lon="5.3696145">
<ele>1055.14</ele>
<time>2019-07-25T12:17:55Z</time>
</trkpt>
<trkpt lat="44.8956713" lon="5.3696200">
<ele>1055.20</ele>
<time>2019-07-25T12:17:56Z</time>
</trkpt>
<trkpt lat="44.8956718" lon="5.3696234">
<ele>1055.23</ele>
<time>2019-07-25T12:17:57Z</time>
</trkpt>
<trkpt lat="44.8956719" lon="5.3696251">
<ele>1055.24</ele>
<time>2019-07-25T12:17:58Z</time>
</trkpt>
<trkpt lat="44.8956719" lon="5.3696247">
<ele>1055.27</ele>
<time>2019-07-25T12:17:59Z</time>
</trkpt>
<trkpt lat="44.8956719" lon="5.3696247">
<ele>1055.30</ele>
<time>2019-07-25T12:18:00Z</time>
</trkpt>
<trkpt lat="44.8956716" lon="5.3696237">
<ele>1055.34</ele>
<time>2019-07-25T12:18:01Z</time>
</trkpt>
<trkpt lat="44.8956715" lon="5.3696230">
<ele>1055.38</ele>
<time>2019-07-25T12:18:02Z</time>
</trkpt>
<trkpt lat="44.8956715" lon="5.3696227">
<ele>1055.43</ele>
<time>2019-07-25T12:18:03Z</time>
</trkpt>
<trkpt lat="44.8956714" lon="5.3696222">
<ele>1055.45</ele>
<time>2019-07-25T12:18:04Z</time>
</trkpt>
<trkpt lat="44.8956711" lon="5.3696215">
<ele>1055.48</ele>
<time>2019-07-25T12:18:05Z</time>
</trkpt>
<trkpt lat="44.8956710" lon="5.3696214">
<ele>1055.52</ele>
<time>2019-07-25T12:18:06Z</time>
</trkpt>
<trkpt lat="44.8956708" lon="5.3696201">
<ele>1055.52</ele>
<time>2019-07-25T12:18:07Z</time>
</trkpt>
<trkpt lat="44.8956707" lon="5.3696196">
<ele>1055.56</ele>
<time>2019-07-25T12:18:08Z</time>
</trkpt>
<trkpt lat="44.8956706" lon="5.3696189">
<ele>1055.56</ele>
<time>2019-07-25T12:18:09Z</time>
</trkpt>
<trkpt lat="44.8956705" lon="5.3696187">
<ele>1055.56</ele>
<time>2019-07-25T12:18:10Z</time>
</trkpt>
<trkpt lat="44.8956704" lon="5.3696178">
<ele>1055.56</ele>
<time>2019-07-25T12:18:11Z</time>
</trkpt>
<trkpt lat="44.8956702" lon="5.3696155">
<ele>1055.56</ele>
<time>2019-07-25T12:18:12Z</time>
</trkpt>
<trkpt lat="44.8956702" lon="5.3696139">
<ele>1055.56</ele>
<time>2019-07-25T12:18:13Z</time>
</trkpt>
<trkpt lat="44.8956701" lon="5.3696136">
<ele>1055.55</ele>
<time>2019-07-25T12:18:14Z</time>
</trkpt>
<trkpt lat="44.8956701" lon="5.3696135">
<ele>1055.55</ele>
<time>2019-07-25T12:18:15Z</time>
</trkpt>
<trkpt lat="44.8956701" lon="5.3696138">
<ele>1055.55</ele>
<time>2019-07-25T12:18:16Z</time>
</trkpt>
<trkpt lat="44.8956702" lon="5.3696141">
<ele>1055.55</ele>
<time>2019-07-25T12:18:17Z</time>
</trkpt>
<trkpt lat="44.8956703" lon="5.3696144">
<ele>1055.55</ele>
<time>2019-07-25T12:18:18Z</time>
</trkpt>
<trkpt lat="44.8956702" lon="5.3696147">
<ele>1055.48</ele>
<time>2019-07-25T12:18:19Z</time>
</trkpt>
<trkpt lat="44.8956703" lon="5.3696155">
<ele>1055.39</ele>
<time>2019-07-25T12:18:20Z</time>
</trkpt>
<trkpt lat="44.8956708" lon="5.3696209">
<ele>1055.34</ele>
<time>2019-07-25T12:18:21Z</time>
</trkpt>
<trkpt lat="44.8956709" lon="5.3696210">
<ele>1055.29</ele>
<time>2019-07-25T12:18:22Z</time>
</trkpt>
<trkpt lat="44.8956709" lon="5.3696206">
<ele>1055.24</ele>
<time>2019-07-25T12:18:23Z</time>
</trkpt>
<trkpt lat="44.8956713" lon="5.3696098">
<ele>1055.21</ele>
<time>2019-07-25T12:18:24Z</time>
</trkpt>
<trkpt lat="44.8956706" lon="5.3696093">
<ele>1055.21</ele>
<time>2019-07-25T12:18:25Z</time>
</trkpt>
<trkpt lat="44.8956695" lon="5.3696119">
<ele>1055.20</ele>
<time>2019-07-25T12:18:26Z</time>
</trkpt>
<trkpt lat="44.8956681" lon="5.3696176">
<ele>1055.21</ele>
<time>2019-07-25T12:18:27Z</time>
</trkpt>
<trkpt lat="44.8956663" lon="5.3696217">
<ele>1055.23</ele>
<time>2019-07-25T12:18:28Z</time>
</trkpt>
<trkpt lat="44.8956657" lon="5.3696131">
<ele>1055.26</ele>
<time>2019-07-25T12:18:29Z</time>
</trkpt>
<trkpt lat="44.8956647" lon="5.3696103">
<ele>1055.26</ele>
<time>2019-07-25T12:18:30Z</time>
</trkpt>
<trkpt lat="44.8956652" lon="5.3696125">
<ele>1055.28</ele>
<time>2019-07-25T12:18:31Z</time>
</trkpt>
<trkpt lat="44.8956654" lon="5.3696131">
<ele>1055.32</ele>
<time>2019-07-25T12:18:32Z</time>
</trkpt>
<trkpt lat="44.8956666" lon="5.3696173">
<ele>1055.36</ele>
<time>2019-07-25T12:18:33Z</time>
</trkpt>
<trkpt lat="44.8956666" lon="5.3696174">
<ele>1055.40</ele>
<time>2019-07-25T12:18:34Z</time>
</trkpt>
<trkpt lat="44.8956665" lon="5.3696172">
<ele>1055.47</ele>
<time>2019-07-25T12:18:35Z</time>
</trkpt>
<trkpt lat="44.8956665" lon="5.3696172">
<ele>1055.52</ele>
<time>2019-07-25T12:18:36Z</time>
</trkpt>
<trkpt lat="44.8956667" lon="5.3696183">
<ele>1055.57</ele>
<time>2019-07-25T12:18:37Z</time>
</trkpt>
<trkpt lat="44.8956672" lon="5.3696107">
<ele>1055.64</ele>
<time>2019-07-25T12:18:38Z</time>
</trkpt>
<trkpt lat="44.8956649" lon="5.3696038">
<ele>1055.69</ele>
<time>2019-07-25T12:18:39Z</time>
</trkpt>
<trkpt lat="44.8956628" lon="5.3695916">
<ele>1055.75</ele>
<time>2019-07-25T12:18:40Z</time>
</trkpt>
<trkpt lat="44.8956619" lon="5.3695839">
<ele>1055.82</ele>
<time>2019-07-25T12:18:41Z</time>
</trkpt>
<trkpt lat="44.8956633" lon="5.3695833">
<ele>1055.83</ele>
<time>2019-07-25T12:18:42Z</time>
</trkpt>
<trkpt lat="44.8956637" lon="5.3695850">
<ele>1055.83</ele>
<time>2019-07-25T12:18:43Z</time>
</trkpt>
<trkpt lat="44.8956631" lon="5.3695809">
<ele>1055.83</ele>
<time>2019-07-25T12:18:44Z</time>
</trkpt>
<trkpt lat="44.8956597" lon="5.3695684">
<ele>1055.85</ele>
<time>2019-07-25T12:18:45Z</time>
</trkpt>
<trkpt lat="44.8956603" lon="5.3695661">
<ele>1055.86</ele>
<time>2019-07-25T12:18:46Z</time>
</trkpt>
<trkpt lat="44.8956617" lon="5.3695704">
<ele>1055.87</ele>
<time>2019-07-25T12:18:47Z</time>
</trkpt>
<trkpt lat="44.8956616" lon="5.3695708">
<ele>1056.03</ele>
<time>2019-07-25T12:18:48Z</time>
</trkpt>
<trkpt lat="44.8956604" lon="5.3695719">
<ele>1056.17</ele>
<time>2019-07-25T12:18:49Z</time>
</trkpt>
<trkpt lat="44.8956592" lon="5.3695709">
<ele>1056.28</ele>
<time>2019-07-25T12:18:50Z</time>
</trkpt>
<trkpt lat="44.8956559" lon="5.3695595">
<ele>1056.39</ele>
<time>2019-07-25T12:18:51Z</time>
</trkpt>
<trkpt lat="44.8956569" lon="5.3695698">
<ele>1056.48</ele>
<time>2019-07-25T12:18:52Z</time>
</trkpt>
<trkpt lat="44.8956550" lon="5.3695505">
<ele>1056.57</ele>
<time>2019-07-25T12:18:53Z</time>
</trkpt>
<trkpt lat="44.8956549" lon="5.3695563">
<ele>1056.65</ele>
<time>2019-07-25T12:18:54Z</time>
</trkpt>
<trkpt lat="44.8956553" lon="5.3695466">
<ele>1056.66</ele>
<time>2019-07-25T12:18:55Z</time>
</trkpt>
<trkpt lat="44.8956562" lon="5.3695472">
<ele>1056.66</ele>
<time>2019-07-25T12:18:56Z</time>
</trkpt>
<trkpt lat="44.8956562" lon="5.3695482">
<ele>1056.66</ele>
<time>2019-07-25T12:18:57Z</time>
</trkpt>
<trkpt lat="44.8956562" lon="5.3695482">
<ele>1056.66</ele>
<time>2019-07-25T12:18:58Z</time>
</trkpt>
<trkpt lat="44.8956562" lon="5.3695483">
<ele>1056.75</ele>
<time>2019-07-25T12:18:59Z</time>
</trkpt>
<trkpt lat="44.8956562" lon="5.3695481">
<ele>1056.75</ele>
<time>2019-07-25T12:19:00Z</time>
</trkpt>
<trkpt lat="44.8956563" lon="5.3695471">
<ele>1056.84</ele>
<time>2019-07-25T12:19:01Z</time>
</trkpt>
<trkpt lat="44.8956563" lon="5.3695472">
<ele>1056.90</ele>
<time>2019-07-25T12:19:02Z</time>
</trkpt>
<trkpt lat="44.8956562" lon="5.3695480">
<ele>1056.97</ele>
<time>2019-07-25T12:19:03Z</time>
</trkpt>
<trkpt lat="44.8956562" lon="5.3695478">
<ele>1057.02</ele>
<time>2019-07-25T12:19:04Z</time>
</trkpt>
<trkpt lat="44.8956562" lon="5.3695470">
<ele>1057.08</ele>
<time>2019-07-25T12:19:05Z</time>
</trkpt>
<trkpt lat="44.8956562" lon="5.3695390">
<ele>1057.13</ele>
<time>2019-07-25T12:19:06Z</time>
</trkpt>
<trkpt lat="44.8956562" lon="5.3695349">
<ele>1057.13</ele>
<time>2019-07-25T12:19:07Z</time>
</trkpt>
<trkpt lat="44.8956562" lon="5.3695346">
<ele>1057.19</ele>
<time>2019-07-25T12:19:08Z</time>
</trkpt>
<trkpt lat="44.8956563" lon="5.3695307">
<ele>1057.26</ele>
<time>2019-07-25T12:19:09Z</time>
</trkpt>
<trkpt lat="44.8956563" lon="5.3695270">
<ele>1057.32</ele>
<time>2019-07-25T12:19:10Z</time>
</trkpt>
<trkpt lat="44.8956562" lon="5.3695271">
<ele>1057.39</ele>
<time>2019-07-25T12:19:11Z</time>
</trkpt>
<trkpt lat="44.8956562" lon="5.3695522">
<ele>1057.45</ele>
<time>2019-07-25T12:19:12Z</time>
</trkpt>
<trkpt lat="44.8956581" lon="5.3695606">
<ele>1057.51</ele>
<time>2019-07-25T12:19:13Z</time>
</trkpt>
<trkpt lat="44.8956526" lon="5.3695654">
<ele>1057.56</ele>
<time>2019-07-25T12:19:14Z</time>
</trkpt>
<trkpt lat="44.8956583" lon="5.3695749">
<ele>1057.61</ele>
<time>2019-07-25T12:19:15Z</time>
</trkpt>
<trkpt lat="44.8956556" lon="5.3695938">
<ele>1057.69</ele>
<time>2019-07-25T12:19:16Z</time>
</trkpt>
<trkpt lat="44.8956555" lon="5.3695932">
<ele>1057.76</ele>
<time>2019-07-25T12:19:17Z</time>
</trkpt>
<trkpt lat="44.8956553" lon="5.3695907">
<ele>1057.84</ele>
<time>2019-07-25T12:19:18Z</time>
</trkpt>
<trkpt lat="44.8956553" lon="5.3695908">
<ele>1057.92</ele>
<time>2019-07-25T12:19:19Z</time>
</trkpt>
<trkpt lat="44.8956551" lon="5.3695885">
<ele>1057.99</ele>
<time>2019-07-25T12:19:20Z</time>
</trkpt>
<trkpt lat="44.8956550" lon="5.3695859">
<ele>1058.05</ele>
<time>2019-07-25T12:19:21Z</time>
</trkpt>
<trkpt lat="44.8956548" lon="5.3695766">
<ele>1058.08</ele>
<time>2019-07-25T12:19:22Z</time>
</trkpt>
<trkpt lat="44.8956547" lon="5.3695717">
<ele>1058.13</ele>
<time>2019-07-25T12:19:23Z</time>
</trkpt>
<trkpt lat="44.8956546" lon="5.3695702">
<ele>1058.18</ele>
<time>2019-07-25T12:19:24Z</time>
</trkpt>
<trkpt lat="44.8956545" lon="5.3695702">
<ele>1058.23</ele>
<time>2019-07-25T12:19:25Z</time>
</trkpt>
<trkpt lat="44.8956545" lon="5.3695703">
<ele>1058.30</ele>
<time>2019-07-25T12:19:26Z</time>
</trkpt>
<trkpt lat="44.8956545" lon="5.3695720">
<ele>1058.36</ele>
<time>2019-07-25T12:19:27Z</time>
</trkpt>
<trkpt lat="44.8956547" lon="5.3695783">
<ele>1058.43</ele>
<time>2019-07-25T12:19:28Z</time>
</trkpt>
<trkpt lat="44.8956545" lon="5.3695802">
<ele>1058.50</ele>
<time>2019-07-25T12:19:29Z</time>
</trkpt>
<trkpt lat="44.8956548" lon="5.3695882">
<ele>1058.56</ele>
<time>2019-07-25T12:19:30Z</time>
</trkpt>
<trkpt lat="44.8956552" lon="5.3695952">
<ele>1058.64</ele>
<time>2019-07-25T12:19:31Z</time>
</trkpt>
<trkpt lat="44.8956551" lon="5.3695957">
<ele>1058.71</ele>
<time>2019-07-25T12:19:32Z</time>
</trkpt>
<trkpt lat="44.8956552" lon="5.3695962">
<ele>1058.77</ele>
<time>2019-07-25T12:19:33Z</time>
</trkpt>
<trkpt lat="44.8956552" lon="5.3695964">
<ele>1058.83</ele>
<time>2019-07-25T12:19:34Z</time>
</trkpt>
<trkpt lat="44.8956552" lon="5.3695964">
<ele>1058.88</ele>
<time>2019-07-25T12:19:35Z</time>
</trkpt>
<trkpt lat="44.8956553" lon="5.3695958">
<ele>1058.96</ele>
<time>2019-07-25T12:19:36Z</time>
</trkpt>
<trkpt lat="44.8956552" lon="5.3695959">
<ele>1059.02</ele>
<time>2019-07-25T12:19:37Z</time>
</trkpt>
<trkpt lat="44.8956552" lon="5.3695965">
<ele>1059.07</ele>
<time>2019-07-25T12:19:38Z</time>
</trkpt>
<trkpt lat="44.8956553" lon="5.3695967">
<ele>1059.14</ele>
<time>2019-07-25T12:19:39Z</time>
</trkpt>
<trkpt lat="44.8956553" lon="5.3695977">
<ele>1059.20</ele>
<time>2019-07-25T12:19:40Z</time>
</trkpt>
<trkpt lat="44.8956553" lon="5.3695986">
<ele>1059.25</ele>
<time>2019-07-25T12:19:41Z</time>
</trkpt>
<trkpt lat="44.8956553" lon="5.3695985">
<ele>1059.26</ele>
<time>2019-07-25T12:19:42Z</time>
</trkpt>
<trkpt lat="44.8956554" lon="5.3696001">
<ele>1059.28</ele>
<time>2019-07-25T12:19:43Z</time>
</trkpt>
<trkpt lat="44.8956556" lon="5.3696034">
<ele>1059.28</ele>
<time>2019-07-25T12:19:44Z</time>
</trkpt>
<trkpt lat="44.8956557" lon="5.3696072">
<ele>1059.30</ele>
<time>2019-07-25T12:19:45Z</time>
</trkpt>
<trkpt lat="44.8956558" lon="5.3696072">
<ele>1059.34</ele>
<time>2019-07-25T12:19:46Z</time>
</trkpt>
<trkpt lat="44.8956558" lon="5.3696099">
<ele>1059.37</ele>
<time>2019-07-25T12:19:47Z</time>
</trkpt>
<trkpt lat="44.8956560" lon="5.3696141">
<ele>1059.38</ele>
<time>2019-07-25T12:19:48Z</time>
</trkpt>
<trkpt lat="44.8956565" lon="5.3696229">
<ele>1059.40</ele>
<time>2019-07-25T12:19:49Z</time>
</trkpt>
<trkpt lat="44.8956564" lon="5.3696230">
<ele>1059.40</ele>
<time>2019-07-25T12:19:50Z</time>
</trkpt>
<trkpt lat="44.8956564" lon="5.3696234">
<ele>1059.40</ele>
<time>2019-07-25T12:19:51Z</time>
</trkpt>
<trkpt lat="44.8956565" lon="5.3696245">
<ele>1059.40</ele>
<time>2019-07-25T12:19:52Z</time>
</trkpt>
<trkpt lat="44.8956568" lon="5.3696284">
<ele>1059.40</ele>
<time>2019-07-25T12:19:53Z</time>
</trkpt>
<trkpt lat="44.8956568" lon="5.3696285">
<ele>1059.40</ele>
<time>2019-07-25T12:19:54Z</time>
</trkpt>
<trkpt lat="44.8956569" lon="5.3696290">
<ele>1059.39</ele>
<time>2019-07-25T12:19:55Z</time>
</trkpt>
<trkpt lat="44.8956569" lon="5.3696287">
<ele>1059.38</ele>
<time>2019-07-25T12:19:56Z</time>
</trkpt>
<trkpt lat="44.8956570" lon="5.3696297">
<ele>1059.37</ele>
<time>2019-07-25T12:19:57Z</time>
</trkpt>
<trkpt lat="44.8956570" lon="5.3696289">
<ele>1059.37</ele>
<time>2019-07-25T12:19:58Z</time>
</trkpt>
<trkpt lat="44.8956569" lon="5.3696290">
<ele>1059.37</ele>
<time>2019-07-25T12:19:59Z</time>
</trkpt>
<trkpt lat="44.8956570" lon="5.3696318">
<ele>1059.37</ele>
<time>2019-07-25T12:20:00Z</time>
</trkpt>
<trkpt lat="44.8956571" lon="5.3696362">
<ele>1059.37</ele>
<time>2019-07-25T12:20:01Z</time>
</trkpt>
<trkpt lat="44.8956571" lon="5.3696379">
<ele>1059.37</ele>
<time>2019-07-25T12:20:02Z</time>
</trkpt>
<trkpt lat="44.8956573" lon="5.3696417">
<ele>1059.37</ele>
<time>2019-07-25T12:20:03Z</time>
</trkpt>
<trkpt lat="44.8956572" lon="5.3696427">
<ele>1059.37</ele>
<time>2019-07-25T12:20:04Z</time>
</trkpt>
<trkpt lat="44.8956572" lon="5.3696428">
<ele>1059.40</ele>
<time>2019-07-25T12:20:05Z</time>
</trkpt>
<trkpt lat="44.8956572" lon="5.3696426">
<ele>1059.45</ele>
<time>2019-07-25T12:20:06Z</time>
</trkpt>
<trkpt lat="44.8956571" lon="5.3696428">
<ele>1059.50</ele>
<time>2019-07-25T12:20:07Z</time>
</trkpt>
<trkpt lat="44.8956571" lon="5.3696430">
<ele>1059.53</ele>
<time>2019-07-25T12:20:08Z</time>
</trkpt>
<trkpt lat="44.8956571" lon="5.3696441">
<ele>1059.57</ele>
<time>2019-07-25T12:20:09Z</time>
</trkpt>
<trkpt lat="44.8956572" lon="5.3696442">
<ele>1059.63</ele>
<time>2019-07-25T12:20:10Z</time>
</trkpt>
<trkpt lat="44.8956573" lon="5.3696458">
<ele>1059.63</ele>
<time>2019-07-25T12:20:11Z</time>
</trkpt>
<trkpt lat="44.8956574" lon="5.3696459">
<ele>1059.71</ele>
<time>2019-07-25T12:20:12Z</time>
</trkpt>
<trkpt lat="44.8956570" lon="5.3696254">
<ele>1059.75</ele>
<time>2019-07-25T12:20:13Z</time>
</trkpt>
<trkpt lat="44.8956553" lon="5.3695823">
<ele>1059.75</ele>
<time>2019-07-25T12:20:14Z</time>
</trkpt>
<trkpt lat="44.8956560" lon="5.3695439">
<ele>1059.79</ele>
<time>2019-07-25T12:20:15Z</time>
</trkpt>
<trkpt lat="44.8956509" lon="5.3695215">
<ele>1059.81</ele>
<time>2019-07-25T12:20:16Z</time>
</trkpt>
<trkpt lat="44.8956538" lon="5.3695286">
<ele>1059.81</ele>
<time>2019-07-25T12:20:17Z</time>
</trkpt>
<trkpt lat="44.8956524" lon="5.3695138">
<ele>1059.78</ele>
<time>2019-07-25T12:20:18Z</time>
</trkpt>
<trkpt lat="44.8956560" lon="5.3695121">
<ele>1059.69</ele>
<time>2019-07-25T12:20:19Z</time>
</trkpt>
<trkpt lat="44.8956557" lon="5.3695125">
<ele>1059.62</ele>
<time>2019-07-25T12:20:20Z</time>
</trkpt>
<trkpt lat="44.8956557" lon="5.3695134">
<ele>1059.55</ele>
<time>2019-07-25T12:20:21Z</time>
</trkpt>
<trkpt lat="44.8956558" lon="5.3695136">
<ele>1059.50</ele>
<time>2019-07-25T12:20:22Z</time>
</trkpt>
<trkpt lat="44.8956557" lon="5.3695126">
<ele>1059.47</ele>
<time>2019-07-25T12:20:23Z</time>
</trkpt>
<trkpt lat="44.8956548" lon="5.3695140">
<ele>1059.45</ele>
<time>2019-07-25T12:20:24Z</time>
</trkpt>
<trkpt lat="44.8956550" lon="5.3695145">
<ele>1059.45</ele>
<time>2019-07-25T12:20:25Z</time>
</trkpt>
<trkpt lat="44.8956545" lon="5.3695142">
<ele>1059.45</ele>
<time>2019-07-25T12:20:26Z</time>
</trkpt>
<trkpt lat="44.8956547" lon="5.3695149">
<ele>1059.45</ele>
<time>2019-07-25T12:20:27Z</time>
</trkpt>
<trkpt lat="44.8956549" lon="5.3695157">
<ele>1059.45</ele>
<time>2019-07-25T12:20:28Z</time>
</trkpt>
<trkpt lat="44.8956550" lon="5.3695160">
<ele>1059.45</ele>
<time>2019-07-25T12:20:29Z</time>
</trkpt>
<trkpt lat="44.8956549" lon="5.3695167">
<ele>1059.45</ele>
<time>2019-07-25T12:20:30Z</time>
</trkpt>
<trkpt lat="44.8956552" lon="5.3695173">
<ele>1059.45</ele>
<time>2019-07-25T12:20:31Z</time>
</trkpt>
<trkpt lat="44.8956551" lon="5.3695173">
<ele>1059.45</ele>
<time>2019-07-25T12:20:32Z</time>
</trkpt>
<trkpt lat="44.8956538" lon="5.3695137">
<ele>1059.45</ele>
<time>2019-07-25T12:20:33Z</time>
</trkpt>
<trkpt lat="44.8956536" lon="5.3695132">
<ele>1059.45</ele>
<time>2019-07-25T12:20:34Z</time>
</trkpt>
<trkpt lat="44.8956537" lon="5.3695132">
<ele>1059.45</ele>
<time>2019-07-25T12:20:35Z</time>
</trkpt>
<trkpt lat="44.8956538" lon="5.3695139">
<ele>1059.45</ele>
<time>2019-07-25T12:20:36Z</time>
</trkpt>
<trkpt lat="44.8956539" lon="5.3695141">
<ele>1059.45</ele>
<time>2019-07-25T12:20:37Z</time>
</trkpt>
<trkpt lat="44.8956513" lon="5.3695285">
<ele>1059.46</ele>
<time>2019-07-25T12:20:38Z</time>
</trkpt>
<trkpt lat="44.8956512" lon="5.3695283">
<ele>1059.46</ele>
<time>2019-07-25T12:20:39Z</time>
</trkpt>
<trkpt lat="44.8956512" lon="5.3695286">
<ele>1059.46</ele>
<time>2019-07-25T12:20:40Z</time>
</trkpt>
<trkpt lat="44.8956511" lon="5.3695284">
<ele>1059.46</ele>
<time>2019-07-25T12:20:41Z</time>
</trkpt>
<trkpt lat="44.8956510" lon="5.3695282">
<ele>1059.46</ele>
<time>2019-07-25T12:20:42Z</time>
</trkpt>
<trkpt lat="44.8956509" lon="5.3695279">
<ele>1059.46</ele>
<time>2019-07-25T12:20:43Z</time>
</trkpt>
<trkpt lat="44.8956510" lon="5.3695286">
<ele>1059.53</ele>
<time>2019-07-25T12:20:44Z</time>
</trkpt>
<trkpt lat="44.8956511" lon="5.3695286">
<ele>1059.53</ele>
<time>2019-07-25T12:20:45Z</time>
</trkpt>
<trkpt lat="44.8956510" lon="5.3695281">
<ele>1059.53</ele>
<time>2019-07-25T12:20:46Z</time>
</trkpt>
<trkpt lat="44.8956507" lon="5.3695276">
<ele>1059.54</ele>
<time>2019-07-25T12:20:47Z</time>
</trkpt>
<trkpt lat="44.8956551" lon="5.3695335">
<ele>1059.54</ele>
<time>2019-07-25T12:20:48Z</time>
</trkpt>
<trkpt lat="44.8956546" lon="5.3695389">
<ele>1059.54</ele>
<time>2019-07-25T12:20:49Z</time>
</trkpt>
<trkpt lat="44.8956627" lon="5.3695394">
<ele>1059.54</ele>
<time>2019-07-25T12:20:50Z</time>
</trkpt>
<trkpt lat="44.8956571" lon="5.3695396">
<ele>1059.55</ele>
<time>2019-07-25T12:20:51Z</time>
</trkpt>
<trkpt lat="44.8956597" lon="5.3695389">
<ele>1059.55</ele>
<time>2019-07-25T12:20:52Z</time>
</trkpt>
<trkpt lat="44.8956594" lon="5.3695380">
<ele>1059.61</ele>
<time>2019-07-25T12:20:53Z</time>
</trkpt>
<trkpt lat="44.8956592" lon="5.3695376">
<ele>1059.61</ele>
<time>2019-07-25T12:20:54Z</time>
</trkpt>
<trkpt lat="44.8956592" lon="5.3695374">
<ele>1059.66</ele>
<time>2019-07-25T12:20:55Z</time>
</trkpt>
<trkpt lat="44.8956593" lon="5.3695376">
<ele>1059.71</ele>
<time>2019-07-25T12:20:56Z</time>
</trkpt>
<trkpt lat="44.8956588" lon="5.3695364">
<ele>1059.71</ele>
<time>2019-07-25T12:20:57Z</time>
</trkpt>
<trkpt lat="44.8956591" lon="5.3695371">
<ele>1059.71</ele>
<time>2019-07-25T12:20:58Z</time>
</trkpt>
<trkpt lat="44.8956605" lon="5.3695401">
<ele>1059.71</ele>
<time>2019-07-25T12:20:59Z</time>
</trkpt>
<trkpt lat="44.8956605" lon="5.3695400">
<ele>1059.71</ele>
<time>2019-07-25T12:21:00Z</time>
</trkpt>
<trkpt lat="44.8956604" lon="5.3695405">
<ele>1059.72</ele>
<time>2019-07-25T12:21:01Z</time>
</trkpt>
<trkpt lat="44.8956605" lon="5.3695403">
<ele>1059.72</ele>
<time>2019-07-25T12:21:02Z</time>
</trkpt>
<trkpt lat="44.8956608" lon="5.3695386">
<ele>1059.72</ele>
<time>2019-07-25T12:21:03Z</time>
</trkpt>
<trkpt lat="44.8956609" lon="5.3695384">
<ele>1059.72</ele>
<time>2019-07-25T12:21:04Z</time>
</trkpt>
<trkpt lat="44.8956613" lon="5.3695364">
<ele>1059.72</ele>
<time>2019-07-25T12:21:05Z</time>
</trkpt>
<trkpt lat="44.8956619" lon="5.3695329">
<ele>1059.72</ele>
<time>2019-07-25T12:21:06Z</time>
</trkpt>
<trkpt lat="44.8956628" lon="5.3695285">
<ele>1059.72</ele>
<time>2019-07-25T12:21:07Z</time>
</trkpt>
<trkpt lat="44.8956641" lon="5.3695214">
<ele>1059.72</ele>
<time>2019-07-25T12:21:08Z</time>
</trkpt>
<trkpt lat="44.8956642" lon="5.3695207">
<ele>1059.72</ele>
<time>2019-07-25T12:21:09Z</time>
</trkpt>
<trkpt lat="44.8956656" lon="5.3695147">
<ele>1059.72</ele>
<time>2019-07-25T12:21:10Z</time>
</trkpt>
<trkpt lat="44.8956656" lon="5.3695145">
<ele>1059.62</ele>
<time>2019-07-25T12:21:11Z</time>
</trkpt>
<trkpt lat="44.8956656" lon="5.3695147">
<ele>1059.48</ele>
<time>2019-07-25T12:21:12Z</time>
</trkpt>
<trkpt lat="44.8956659" lon="5.3695138">
<ele>1059.48</ele>
<time>2019-07-25T12:21:13Z</time>
</trkpt>
<trkpt lat="44.8956666" lon="5.3695111">
<ele>1059.47</ele>
<time>2019-07-25T12:21:14Z</time>
</trkpt>
<trkpt lat="44.8956672" lon="5.3695089">
<ele>1059.47</ele>
<time>2019-07-25T12:21:15Z</time>
</trkpt>
<trkpt lat="44.8956677" lon="5.3695076">
<ele>1059.47</ele>
<time>2019-07-25T12:21:16Z</time>
</trkpt>
<trkpt lat="44.8956683" lon="5.3695052">
<ele>1059.47</ele>
<time>2019-07-25T12:21:17Z</time>
</trkpt>
<trkpt lat="44.8956681" lon="5.3695035">
<ele>1059.46</ele>
<time>2019-07-25T12:21:18Z</time>
</trkpt>
<trkpt lat="44.8956681" lon="5.3695017">
<ele>1059.46</ele>
<time>2019-07-25T12:21:19Z</time>
</trkpt>
<trkpt lat="44.8956676" lon="5.3695002">
<ele>1059.46</ele>
<time>2019-07-25T12:21:20Z</time>
</trkpt>
<trkpt lat="44.8956675" lon="5.3695006">
<ele>1059.46</ele>
<time>2019-07-25T12:21:21Z</time>
</trkpt>
<trkpt lat="44.8956674" lon="5.3695007">
<ele>1059.45</ele>
<time>2019-07-25T12:21:22Z</time>
</trkpt>
<trkpt lat="44.8956672" lon="5.3695001">
<ele>1059.45</ele>
<time>2019-07-25T12:21:23Z</time>
</trkpt>
<trkpt lat="44.8956667" lon="5.3694987">
<ele>1059.45</ele>
<time>2019-07-25T12:21:24Z</time>
</trkpt>
<trkpt lat="44.8956665" lon="5.3694982">
<ele>1059.44</ele>
<time>2019-07-25T12:21:25Z</time>
</trkpt>
<trkpt lat="44.8956664" lon="5.3694982">
<ele>1059.44</ele>
<time>2019-07-25T12:21:26Z</time>
</trkpt>
<trkpt lat="44.8956655" lon="5.3694956">
<ele>1059.43</ele>
<time>2019-07-25T12:21:27Z</time>
</trkpt>
<trkpt lat="44.8956653" lon="5.3694964">
<ele>1059.43</ele>
<time>2019-07-25T12:21:28Z</time>
</trkpt>
<trkpt lat="44.8956653" lon="5.3694971">
<ele>1059.42</ele>
<time>2019-07-25T12:21:29Z</time>
</trkpt>
<trkpt lat="44.8956653" lon="5.3694973">
<ele>1059.42</ele>
<time>2019-07-25T12:21:30Z</time>
</trkpt>
<trkpt lat="44.8956656" lon="5.3694982">
<ele>1059.42</ele>
<time>2019-07-25T12:21:31Z</time>
</trkpt>
<trkpt lat="44.8956659" lon="5.3694994">
<ele>1059.41</ele>
<time>2019-07-25T12:21:32Z</time>
</trkpt>
<trkpt lat="44.8956660" lon="5.3694999">
<ele>1059.41</ele>
<time>2019-07-25T12:21:33Z</time>
</trkpt>
<trkpt lat="44.8956659" lon="5.3695007">
<ele>1059.40</ele>
<time>2019-07-25T12:21:34Z</time>
</trkpt>
<trkpt lat="44.8956661" lon="5.3695019">
<ele>1059.40</ele>
<time>2019-07-25T12:21:35Z</time>
</trkpt>
<trkpt lat="44.8956662" lon="5.3695038">
<ele>1059.40</ele>
<time>2019-07-25T12:21:36Z</time>
</trkpt>
<trkpt lat="44.8956662" lon="5.3695046">
<ele>1059.39</ele>
<time>2019-07-25T12:21:37Z</time>
</trkpt>
<trkpt lat="44.8956662" lon="5.3695057">
<ele>1059.39</ele>
<time>2019-07-25T12:21:38Z</time>
</trkpt>
<trkpt lat="44.8956663" lon="5.3695058">
<ele>1059.18</ele>
<time>2019-07-25T12:21:39Z</time>
</trkpt>
<trkpt lat="44.8956663" lon="5.3695058">
<ele>1059.01</ele>
<time>2019-07-25T12:21:40Z</time>
</trkpt>
<trkpt lat="44.8956660" lon="5.3695052">
<ele>1058.89</ele>
<time>2019-07-25T12:21:41Z</time>
</trkpt>
<trkpt lat="44.8956651" lon="5.3695028">
<ele>1058.81</ele>
<time>2019-07-25T12:21:42Z</time>
</trkpt>
<trkpt lat="44.8956653" lon="5.3695033">
<ele>1058.81</ele>
<time>2019-07-25T12:21:43Z</time>
</trkpt>
<trkpt lat="44.8956654" lon="5.3695036">
<ele>1058.81</ele>
<time>2019-07-25T12:21:44Z</time>
</trkpt>
<trkpt lat="44.8956651" lon="5.3695024">
<ele>1058.81</ele>
<time>2019-07-25T12:21:45Z</time>
</trkpt>
<trkpt lat="44.8956651" lon="5.3695026">
<ele>1058.81</ele>
<time>2019-07-25T12:21:46Z</time>
</trkpt>
<trkpt lat="44.8956651" lon="5.3695028">
<ele>1058.93</ele>
<time>2019-07-25T12:21:47Z</time>
</trkpt>
<trkpt lat="44.8956650" lon="5.3695019">
<ele>1059.04</ele>
<time>2019-07-25T12:21:48Z</time>
</trkpt>
<trkpt lat="44.8956651" lon="5.3695022">
<ele>1059.15</ele>
<time>2019-07-25T12:21:49Z</time>
</trkpt>
<trkpt lat="44.8956736" lon="5.3695084">
<ele>1059.24</ele>
<time>2019-07-25T12:21:50Z</time>
</trkpt>
<trkpt lat="44.8956762" lon="5.3695271">
<ele>1059.33</ele>
<time>2019-07-25T12:21:51Z</time>
</trkpt>
<trkpt lat="44.8956811" lon="5.3695472">
<ele>1059.34</ele>
<time>2019-07-25T12:21:52Z</time>
</trkpt>
<trkpt lat="44.8956888" lon="5.3695608">
<ele>1059.34</ele>
<time>2019-07-25T12:21:53Z</time>
</trkpt>
<trkpt lat="44.8956883" lon="5.3695577">
<ele>1059.35</ele>
<time>2019-07-25T12:21:54Z</time>
</trkpt>
<trkpt lat="44.8956889" lon="5.3695595">
<ele>1059.48</ele>
<time>2019-07-25T12:21:55Z</time>
</trkpt>
<trkpt lat="44.8956882" lon="5.3695582">
<ele>1059.58</ele>
<time>2019-07-25T12:21:56Z</time>
</trkpt>
<trkpt lat="44.8956883" lon="5.3695583">
<ele>1059.66</ele>
<time>2019-07-25T12:21:57Z</time>
</trkpt>
<trkpt lat="44.8956884" lon="5.3695592">
<ele>1059.69</ele>
<time>2019-07-25T12:21:58Z</time>
</trkpt>
<trkpt lat="44.8956881" lon="5.3695578">
<ele>1059.69</ele>
<time>2019-07-25T12:21:59Z</time>
</trkpt>
<trkpt lat="44.8956881" lon="5.3695582">
<ele>1059.67</ele>
<time>2019-07-25T12:22:00Z</time>
</trkpt>
<trkpt lat="44.8956838" lon="5.3695458">
<ele>1059.62</ele>
<time>2019-07-25T12:22:01Z</time>
</trkpt>
<trkpt lat="44.8956837" lon="5.3695451">
<ele>1059.62</ele>
<time>2019-07-25T12:22:02Z</time>
</trkpt>
<trkpt lat="44.8956837" lon="5.3695452">
<ele>1059.62</ele>
<time>2019-07-25T12:22:03Z</time>
</trkpt>
<trkpt lat="44.8956837" lon="5.3695449">
<ele>1059.62</ele>
<time>2019-07-25T12:22:04Z</time>
</trkpt>
<trkpt lat="44.8956837" lon="5.3695450">
<ele>1059.62</ele>
<time>2019-07-25T12:22:05Z</time>
</trkpt>
<trkpt lat="44.8956835" lon="5.3695444">
<ele>1059.62</ele>
<time>2019-07-25T12:22:06Z</time>
</trkpt>
<trkpt lat="44.8956837" lon="5.3695452">
<ele>1059.62</ele>
<time>2019-07-25T12:22:07Z</time>
</trkpt>
<trkpt lat="44.8956837" lon="5.3695455">
<ele>1059.48</ele>
<time>2019-07-25T12:22:08Z</time>
</trkpt>
<trkpt lat="44.8956835" lon="5.3695437">
<ele>1059.47</ele>
<time>2019-07-25T12:22:09Z</time>
</trkpt>
<trkpt lat="44.8956832" lon="5.3695424">
<ele>1059.47</ele>
<time>2019-07-25T12:22:10Z</time>
</trkpt>
<trkpt lat="44.8956852" lon="5.3695510">
<ele>1059.47</ele>
<time>2019-07-25T12:22:11Z</time>
</trkpt>
<trkpt lat="44.8956865" lon="5.3695569">
<ele>1059.45</ele>
<time>2019-07-25T12:22:12Z</time>
</trkpt>
<trkpt lat="44.8956868" lon="5.3695571">
<ele>1059.45</ele>
<time>2019-07-25T12:22:13Z</time>
</trkpt>
<trkpt lat="44.8956868" lon="5.3695593">
<ele>1059.43</ele>
<time>2019-07-25T12:22:14Z</time>
</trkpt>
<trkpt lat="44.8956898" lon="5.3695652">
<ele>1059.24</ele>
<time>2019-07-25T12:22:15Z</time>
</trkpt>
<trkpt lat="44.8956898" lon="5.3695654">
<ele>1059.08</ele>
<time>2019-07-25T12:22:16Z</time>
</trkpt>
<trkpt lat="44.8956900" lon="5.3695659">
<ele>1059.08</ele>
<time>2019-07-25T12:22:17Z</time>
</trkpt>
<trkpt lat="44.8956899" lon="5.3695654">
<ele>1059.08</ele>
<time>2019-07-25T12:22:18Z</time>
</trkpt>
<trkpt lat="44.8956898" lon="5.3695653">
<ele>1059.07</ele>
<time>2019-07-25T12:22:19Z</time>
</trkpt>
<trkpt lat="44.8956897" lon="5.3695649">
<ele>1058.98</ele>
<time>2019-07-25T12:22:20Z</time>
</trkpt>
<trkpt lat="44.8956897" lon="5.3695650">
<ele>1058.91</ele>
<time>2019-07-25T12:22:21Z</time>
</trkpt>
<trkpt lat="44.8956896" lon="5.3695649">
<ele>1058.84</ele>
<time>2019-07-25T12:22:22Z</time>
</trkpt>
<trkpt lat="44.8956898" lon="5.3695654">
<ele>1058.84</ele>
<time>2019-07-25T12:22:23Z</time>
</trkpt>
<trkpt lat="44.8956897" lon="5.3695651">
<ele>1058.85</ele>
<time>2019-07-25T12:22:24Z</time>
</trkpt>
<trkpt lat="44.8956905" lon="5.3695673">
<ele>1058.85</ele>
<time>2019-07-25T12:22:25Z</time>
</trkpt>
<trkpt lat="44.8956904" lon="5.3695670">
<ele>1058.85</ele>
<time>2019-07-25T12:22:26Z</time>
</trkpt>
<trkpt lat="44.8956898" lon="5.3695659">
<ele>1058.85</ele>
<time>2019-07-25T12:22:27Z</time>
</trkpt>
<trkpt lat="44.8956898" lon="5.3695662">
<ele>1058.85</ele>
<time>2019-07-25T12:22:28Z</time>
</trkpt>
<trkpt lat="44.8956896" lon="5.3695659">
<ele>1058.85</ele>
<time>2019-07-25T12:22:29Z</time>
</trkpt>
<trkpt lat="44.8956894" lon="5.3695653">
<ele>1058.85</ele>
<time>2019-07-25T12:22:30Z</time>
</trkpt>
<trkpt lat="44.8956886" lon="5.3695636">
<ele>1058.86</ele>
<time>2019-07-25T12:22:31Z</time>
</trkpt>
<trkpt lat="44.8956893" lon="5.3695524">
<ele>1058.86</ele>
<time>2019-07-25T12:22:32Z</time>
</trkpt>
<trkpt lat="44.8956855" lon="5.3695562">
<ele>1059.11</ele>
<time>2019-07-25T12:22:33Z</time>
</trkpt>
<trkpt lat="44.8956864" lon="5.3695597">
<ele>1059.11</ele>
<time>2019-07-25T12:22:34Z</time>
</trkpt>
<trkpt lat="44.8956918" lon="5.3695647">
<ele>1059.13</ele>
<time>2019-07-25T12:22:35Z</time>
</trkpt>
<trkpt lat="44.8957007" lon="5.3695779">
<ele>1059.14</ele>
<time>2019-07-25T12:22:36Z</time>
</trkpt>
<trkpt lat="44.8957009" lon="5.3695781">
<ele>1059.14</ele>
<time>2019-07-25T12:22:37Z</time>
</trkpt>
<trkpt lat="44.8957006" lon="5.3695773">
<ele>1059.14</ele>
<time>2019-07-25T12:22:38Z</time>
</trkpt>
<trkpt lat="44.8957007" lon="5.3695774">
<ele>1059.14</ele>
<time>2019-07-25T12:22:39Z</time>
</trkpt>
<trkpt lat="44.8957010" lon="5.3695780">
<ele>1059.14</ele>
<time>2019-07-25T12:22:40Z</time>
</trkpt>
<trkpt lat="44.8957009" lon="5.3695778">
<ele>1059.14</ele>
<time>2019-07-25T12:22:41Z</time>
</trkpt>
<trkpt lat="44.8957008" lon="5.3695773">
<ele>1059.14</ele>
<time>2019-07-25T12:22:42Z</time>
</trkpt>
<trkpt lat="44.8957006" lon="5.3695768">
<ele>1059.13</ele>
<time>2019-07-25T12:22:43Z</time>
</trkpt>
<trkpt lat="44.8957004" lon="5.3695762">
<ele>1059.13</ele>
<time>2019-07-25T12:22:44Z</time>
</trkpt>
<trkpt lat="44.8957005" lon="5.3695764">
<ele>1059.10</ele>
<time>2019-07-25T12:22:45Z</time>
</trkpt>
<trkpt lat="44.8957006" lon="5.3695768">
<ele>1059.06</ele>
<time>2019-07-25T12:22:46Z</time>
</trkpt>
<trkpt lat="44.8957007" lon="5.3695771">
<ele>1059.03</ele>
<time>2019-07-25T12:22:47Z</time>
</trkpt>
<trkpt lat="44.8957013" lon="5.3695787">
<ele>1058.97</ele>
<time>2019-07-25T12:22:48Z</time>
</trkpt>
<trkpt lat="44.8957023" lon="5.3695815">
<ele>1058.92</ele>
<time>2019-07-25T12:22:49Z</time>
</trkpt>
<trkpt lat="44.8957023" lon="5.3695815">
<ele>1058.88</ele>
<time>2019-07-25T12:22:50Z</time>
</trkpt>
<trkpt lat="44.8957020" lon="5.3695809">
<ele>1058.82</ele>
<time>2019-07-25T12:22:51Z</time>
</trkpt>
<trkpt lat="44.8957018" lon="5.3695801">
<ele>1058.75</ele>
<time>2019-07-25T12:22:52Z</time>
</trkpt>
<trkpt lat="44.8957018" lon="5.3695801">
<ele>1058.67</ele>
<time>2019-07-25T12:22:53Z</time>
</trkpt>
<trkpt lat="44.8957020" lon="5.3695805">
<ele>1058.66</ele>
<time>2019-07-25T12:22:54Z</time>
</trkpt>
<trkpt lat="44.8957021" lon="5.3695809">
<ele>1058.66</ele>
<time>2019-07-25T12:22:55Z</time>
</trkpt>
<trkpt lat="44.8957020" lon="5.3695807">
<ele>1058.66</ele>
<time>2019-07-25T12:22:56Z</time>
</trkpt>
<trkpt lat="44.8957017" lon="5.3695798">
<ele>1058.66</ele>
<time>2019-07-25T12:22:57Z</time>
</trkpt>
<trkpt lat="44.8957016" lon="5.3695797">
<ele>1058.65</ele>
<time>2019-07-25T12:22:58Z</time>
</trkpt>
<trkpt lat="44.8957013" lon="5.3695791">
<ele>1058.62</ele>
<time>2019-07-25T12:22:59Z</time>
</trkpt>
<trkpt lat="44.8957009" lon="5.3695781">
<ele>1058.62</ele>
<time>2019-07-25T12:23:00Z</time>
</trkpt>
<trkpt lat="44.8957009" lon="5.3695783">
<ele>1058.62</ele>
<time>2019-07-25T12:23:01Z</time>
</trkpt>
<trkpt lat="44.8957008" lon="5.3695779">
<ele>1058.62</ele>
<time>2019-07-25T12:23:02Z</time>
</trkpt>
<trkpt lat="44.8957007" lon="5.3695777">
<ele>1058.62</ele>
<time>2019-07-25T12:23:03Z</time>
</trkpt>
<trkpt lat="44.8957003" lon="5.3695768">
<ele>1058.62</ele>
<time>2019-07-25T12:23:04Z</time>
</trkpt>
<trkpt lat="44.8956989" lon="5.3695731">
<ele>1058.62</ele>
<time>2019-07-25T12:23:05Z</time>
</trkpt>
<trkpt lat="44.8956990" lon="5.3695729">
<ele>1058.62</ele>
<time>2019-07-25T12:23:06Z</time>
</trkpt>
<trkpt lat="44.8956989" lon="5.3695727">
<ele>1058.65</ele>
<time>2019-07-25T12:23:07Z</time>
</trkpt>
<trkpt lat="44.8956987" lon="5.3695723">
<ele>1058.74</ele>
<time>2019-07-25T12:23:08Z</time>
</trkpt>
<trkpt lat="44.8956986" lon="5.3695719">
<ele>1058.82</ele>
<time>2019-07-25T12:23:09Z</time>
</trkpt>
<trkpt lat="44.8956985" lon="5.3695714">
<ele>1058.88</ele>
<time>2019-07-25T12:23:10Z</time>
</trkpt>
<trkpt lat="44.8956985" lon="5.3695712">
<ele>1058.93</ele>
<time>2019-07-25T12:23:11Z</time>
</trkpt>
<trkpt lat="44.8956983" lon="5.3695708">
<ele>1059.03</ele>
<time>2019-07-25T12:23:12Z</time>
</trkpt>
<trkpt lat="44.8956983" lon="5.3695702">
<ele>1059.03</ele>
<time>2019-07-25T12:23:13Z</time>
</trkpt>
<trkpt lat="44.8956983" lon="5.3695694">
<ele>1059.03</ele>
<time>2019-07-25T12:23:14Z</time>
</trkpt>
<trkpt lat="44.8956982" lon="5.3695690">
<ele>1059.03</ele>
<time>2019-07-25T12:23:15Z</time>
</trkpt>
<trkpt lat="44.8956982" lon="5.3695693">
<ele>1059.03</ele>
<time>2019-07-25T12:23:16Z</time>
</trkpt>
<trkpt lat="44.8956983" lon="5.3695694">
<ele>1059.04</ele>
<time>2019-07-25T12:23:17Z</time>
</trkpt>
<trkpt lat="44.8956982" lon="5.3695691">
<ele>1059.24</ele>
<time>2019-07-25T12:23:18Z</time>
</trkpt>
<trkpt lat="44.8956983" lon="5.3695698">
<ele>1059.24</ele>
<time>2019-07-25T12:23:19Z</time>
</trkpt>
<trkpt lat="44.8956982" lon="5.3695696">
<ele>1059.24</ele>
<time>2019-07-25T12:23:20Z</time>
</trkpt>
<trkpt lat="44.8956982" lon="5.3695695">
<ele>1059.44</ele>
<time>2019-07-25T12:23:21Z</time>
</trkpt>
<trkpt lat="44.8956982" lon="5.3695698">
<ele>1059.60</ele>
<time>2019-07-25T12:23:22Z</time>
</trkpt>
<trkpt lat="44.8956998" lon="5.3695626">
<ele>1059.72</ele>
<time>2019-07-25T12:23:23Z</time>
</trkpt>
<trkpt lat="44.8957001" lon="5.3695653">
<ele>1059.84</ele>
<time>2019-07-25T12:23:24Z</time>
</trkpt>
<trkpt lat="44.8957001" lon="5.3695655">
<ele>1059.94</ele>
<time>2019-07-25T12:23:25Z</time>
</trkpt>
<trkpt lat="44.8956997" lon="5.3695716">
<ele>1060.00</ele>
<time>2019-07-25T12:23:26Z</time>
</trkpt>
<trkpt lat="44.8956960" lon="5.3695736">
<ele>1060.02</ele>
<time>2019-07-25T12:23:27Z</time>
</trkpt>
<trkpt lat="44.8956960" lon="5.3695732">
<ele>1060.05</ele>
<time>2019-07-25T12:23:28Z</time>
</trkpt>
<trkpt lat="44.8956956" lon="5.3695668">
<ele>1060.06</ele>
<time>2019-07-25T12:23:29Z</time>
</trkpt>
<trkpt lat="44.8956958" lon="5.3695629">
<ele>1060.06</ele>
<time>2019-07-25T12:23:30Z</time>
</trkpt>
<trkpt lat="44.8956956" lon="5.3695633">
<ele>1060.06</ele>
<time>2019-07-25T12:23:31Z</time>
</trkpt>
<trkpt lat="44.8956955" lon="5.3695633">
<ele>1060.06</ele>
<time>2019-07-25T12:23:32Z</time>
</trkpt>
<trkpt lat="44.8956957" lon="5.3695630">
<ele>1060.06</ele>
<time>2019-07-25T12:23:33Z</time>
</trkpt>
<trkpt lat="44.8956956" lon="5.3695632">
<ele>1060.06</ele>
<time>2019-07-25T12:23:34Z</time>
</trkpt>
<trkpt lat="44.8956956" lon="5.3695632">
<ele>1060.06</ele>
<time>2019-07-25T12:23:35Z</time>
</trkpt>
<trkpt lat="44.8956956" lon="5.3695632">
<ele>1060.06</ele>
<time>2019-07-25T12:23:36Z</time>
</trkpt>
<trkpt lat="44.8956947" lon="5.3695667">
<ele>1060.06</ele>
<time>2019-07-25T12:23:37Z</time>
</trkpt>
<trkpt lat="44.8956941" lon="5.3695685">
<ele>1060.07</ele>
<time>2019-07-25T12:23:38Z</time>
</trkpt>
<trkpt lat="44.8956939" lon="5.3695688">
<ele>1060.07</ele>
<time>2019-07-25T12:23:39Z</time>
</trkpt>
<trkpt lat="44.8956940" lon="5.3695687">
<ele>1060.07</ele>
<time>2019-07-25T12:23:40Z</time>
</trkpt>
<trkpt lat="44.8956940" lon="5.3695687">
<ele>1060.14</ele>
<time>2019-07-25T12:23:41Z</time>
</trkpt>
<trkpt lat="44.8956937" lon="5.3695699">
<ele>1060.19</ele>
<time>2019-07-25T12:23:42Z</time>
</trkpt>
<trkpt lat="44.8956923" lon="5.3695745">
<ele>1060.22</ele>
<time>2019-07-25T12:23:43Z</time>
</trkpt>
<trkpt lat="44.8956923" lon="5.3695744">
<ele>1060.22</ele>
<time>2019-07-25T12:23:44Z</time>
</trkpt>
<trkpt lat="44.8956927" lon="5.3695727">
<ele>1060.22</ele>
<time>2019-07-25T12:23:45Z</time>
</trkpt>
<trkpt lat="44.8956927" lon="5.3695726">
<ele>1060.22</ele>
<time>2019-07-25T12:23:46Z</time>
</trkpt>
<trkpt lat="44.8956928" lon="5.3695726">
<ele>1060.34</ele>
<time>2019-07-25T12:23:47Z</time>
</trkpt>
<trkpt lat="44.8956918" lon="5.3695755">
<ele>1060.34</ele>
<time>2019-07-25T12:23:48Z</time>
</trkpt>
<trkpt lat="44.8956916" lon="5.3695758">
<ele>1060.34</ele>
<time>2019-07-25T12:23:49Z</time>
</trkpt>
<trkpt lat="44.8956915" lon="5.3695756">
<ele>1060.34</ele>
<time>2019-07-25T12:23:50Z</time>
</trkpt>
<trkpt lat="44.8956919" lon="5.3695738">
<ele>1060.34</ele>
<time>2019-07-25T12:23:51Z</time>
</trkpt>
<trkpt lat="44.8956919" lon="5.3695733">
<ele>1060.34</ele>
<time>2019-07-25T12:23:52Z</time>
</trkpt>
<trkpt lat="44.8956918" lon="5.3695732">
<ele>1060.25</ele>
<time>2019-07-25T12:23:53Z</time>
</trkpt>
<trkpt lat="44.8956910" lon="5.3695761">
<ele>1060.17</ele>
<time>2019-07-25T12:23:54Z</time>
</trkpt>
<trkpt lat="44.8956907" lon="5.3695773">
<ele>1060.10</ele>
<time>2019-07-25T12:23:55Z</time>
</trkpt>
<trkpt lat="44.8956905" lon="5.3695774">
<ele>1060.00</ele>
<time>2019-07-25T12:23:56Z</time>
</trkpt>
<trkpt lat="44.8956905" lon="5.3695768">
<ele>1059.93</ele>
<time>2019-07-25T12:23:57Z</time>
</trkpt>
<trkpt lat="44.8956907" lon="5.3695759">
<ele>1059.87</ele>
<time>2019-07-25T12:23:58Z</time>
</trkpt>
<trkpt lat="44.8956907" lon="5.3695751">
<ele>1059.81</ele>
<time>2019-07-25T12:23:59Z</time>
</trkpt>
<trkpt lat="44.8956896" lon="5.3695764">
<ele>1059.74</ele>
<time>2019-07-25T12:24:00Z</time>
</trkpt>
<trkpt lat="44.8956894" lon="5.3695771">
<ele>1059.64</ele>
<time>2019-07-25T12:24:01Z</time>
</trkpt>
<trkpt lat="44.8956895" lon="5.3695778">
<ele>1059.53</ele>
<time>2019-07-25T12:24:02Z</time>
</trkpt>
<trkpt lat="44.8956909" lon="5.3695827">
<ele>1059.41</ele>
<time>2019-07-25T12:24:03Z</time>
</trkpt>
<trkpt lat="44.8956908" lon="5.3695827">
<ele>1059.31</ele>
<time>2019-07-25T12:24:04Z</time>
</trkpt>
<trkpt lat="44.8956909" lon="5.3695830">
<ele>1059.31</ele>
<time>2019-07-25T12:24:05Z</time>
</trkpt>
<trkpt lat="44.8956909" lon="5.3695832">
<ele>1059.25</ele>
<time>2019-07-25T12:24:06Z</time>
</trkpt>
<trkpt lat="44.8956908" lon="5.3695832">
<ele>1059.22</ele>
<time>2019-07-25T12:24:07Z</time>
</trkpt>
<trkpt lat="44.8956902" lon="5.3695820">
<ele>1059.19</ele>
<time>2019-07-25T12:24:08Z</time>
</trkpt>
<trkpt lat="44.8956900" lon="5.3695819">
<ele>1059.18</ele>
<time>2019-07-25T12:24:09Z</time>
</trkpt>
<trkpt lat="44.8956898" lon="5.3695814">
<ele>1059.20</ele>
<time>2019-07-25T12:24:10Z</time>
</trkpt>
<trkpt lat="44.8956899" lon="5.3695818">
<ele>1059.20</ele>
<time>2019-07-25T12:24:11Z</time>
</trkpt>
<trkpt lat="44.8956889" lon="5.3695800">
<ele>1059.20</ele>
<time>2019-07-25T12:24:12Z</time>
</trkpt>
<trkpt lat="44.8956891" lon="5.3695805">
<ele>1059.20</ele>
<time>2019-07-25T12:24:13Z</time>
</trkpt>
<trkpt lat="44.8956918" lon="5.3695764">
<ele>1059.20</ele>
<time>2019-07-25T12:24:14Z</time>
</trkpt>
<trkpt lat="44.8956919" lon="5.3695786">
<ele>1059.22</ele>
<time>2019-07-25T12:24:15Z</time>
</trkpt>
<trkpt lat="44.8956845" lon="5.3695695">
<ele>1059.13</ele>
<time>2019-07-25T12:24:16Z</time>
</trkpt>
<trkpt lat="44.8956762" lon="5.3695691">
<ele>1059.06</ele>
<time>2019-07-25T12:24:17Z</time>
</trkpt>
<trkpt lat="44.8956796" lon="5.3695640">
<ele>1058.99</ele>
<time>2019-07-25T12:24:18Z</time>
</trkpt>
<trkpt lat="44.8956784" lon="5.3695622">
<ele>1058.99</ele>
<time>2019-07-25T12:24:19Z</time>
</trkpt>
<trkpt lat="44.8956783" lon="5.3695623">
<ele>1058.99</ele>
<time>2019-07-25T12:24:20Z</time>
</trkpt>
<trkpt lat="44.8956786" lon="5.3695628">
<ele>1059.00</ele>
<time>2019-07-25T12:24:21Z</time>
</trkpt>
<trkpt lat="44.8956787" lon="5.3695629">
<ele>1059.00</ele>
<time>2019-07-25T12:24:22Z</time>
</trkpt>
<trkpt lat="44.8956786" lon="5.3695626">
<ele>1059.00</ele>
<time>2019-07-25T12:24:23Z</time>
</trkpt>
<trkpt lat="44.8956787" lon="5.3695626">
<ele>1058.95</ele>
<time>2019-07-25T12:24:24Z</time>
</trkpt>
<trkpt lat="44.8956783" lon="5.3695667">
<ele>1058.89</ele>
<time>2019-07-25T12:24:25Z</time>
</trkpt>
<trkpt lat="44.8956783" lon="5.3695663">
<ele>1058.79</ele>
<time>2019-07-25T12:24:26Z</time>
</trkpt>
<trkpt lat="44.8956780" lon="5.3695649">
<ele>1058.75</ele>
<time>2019-07-25T12:24:27Z</time>
</trkpt>
<trkpt lat="44.8956781" lon="5.3695646">
<ele>1058.71</ele>
<time>2019-07-25T12:24:28Z</time>
</trkpt>
<trkpt lat="44.8956780" lon="5.3695641">
<ele>1058.71</ele>
<time>2019-07-25T12:24:29Z</time>
</trkpt>
<trkpt lat="44.8956780" lon="5.3695629">
<ele>1058.67</ele>
<time>2019-07-25T12:24:30Z</time>
</trkpt>
<trkpt lat="44.8956778" lon="5.3695619">
<ele>1058.54</ele>
<time>2019-07-25T12:24:31Z</time>
</trkpt>
<trkpt lat="44.8956778" lon="5.3695618">
<ele>1058.40</ele>
<time>2019-07-25T12:24:32Z</time>
</trkpt>
<trkpt lat="44.8956779" lon="5.3695615">
<ele>1058.28</ele>
<time>2019-07-25T12:24:33Z</time>
</trkpt>
<trkpt lat="44.8956782" lon="5.3695547">
<ele>1058.28</ele>
<time>2019-07-25T12:24:34Z</time>
</trkpt>
<trkpt lat="44.8956782" lon="5.3695545">
<ele>1058.28</ele>
<time>2019-07-25T12:24:35Z</time>
</trkpt>
<trkpt lat="44.8956781" lon="5.3695544">
<ele>1058.27</ele>
<time>2019-07-25T12:24:36Z</time>
</trkpt>
<trkpt lat="44.8956794" lon="5.3695620">
<ele>1058.27</ele>
<time>2019-07-25T12:24:37Z</time>
</trkpt>
<trkpt lat="44.8956766" lon="5.3695433">
<ele>1058.27</ele>
<time>2019-07-25T12:24:38Z</time>
</trkpt>
<trkpt lat="44.8956741" lon="5.3695277">
<ele>1058.27</ele>
<time>2019-07-25T12:24:39Z</time>
</trkpt>
<trkpt lat="44.8956714" lon="5.3695344">
<ele>1058.18</ele>
<time>2019-07-25T12:24:40Z</time>
</trkpt>
<trkpt lat="44.8956676" lon="5.3695170">
<ele>1058.18</ele>
<time>2019-07-25T12:24:41Z</time>
</trkpt>
<trkpt lat="44.8956677" lon="5.3695070">
<ele>1058.18</ele>
<time>2019-07-25T12:24:42Z</time>
</trkpt>
<trkpt lat="44.8956673" lon="5.3694872">
<ele>1058.18</ele>
<time>2019-07-25T12:24:43Z</time>
</trkpt>
<trkpt lat="44.8956673" lon="5.3694871">
<ele>1058.17</ele>
<time>2019-07-25T12:24:44Z</time>
</trkpt>
<trkpt lat="44.8956682" lon="5.3694871">
<ele>1058.17</ele>
<time>2019-07-25T12:24:45Z</time>
</trkpt>
<trkpt lat="44.8956680" lon="5.3694871">
<ele>1058.06</ele>
<time>2019-07-25T12:24:46Z</time>
</trkpt>
<trkpt lat="44.8956679" lon="5.3694878">
<ele>1057.92</ele>
<time>2019-07-25T12:24:47Z</time>
</trkpt>
<trkpt lat="44.8956607" lon="5.3694797">
<ele>1057.84</ele>
<time>2019-07-25T12:24:48Z</time>
</trkpt>
<trkpt lat="44.8956644" lon="5.3694848">
<ele>1057.79</ele>
<time>2019-07-25T12:24:49Z</time>
</trkpt>
<trkpt lat="44.8956667" lon="5.3694887">
<ele>1057.81</ele>
<time>2019-07-25T12:24:50Z</time>
</trkpt>
<trkpt lat="44.8956590" lon="5.3694867">
<ele>1057.81</ele>
<time>2019-07-25T12:24:51Z</time>
</trkpt>
<trkpt lat="44.8956620" lon="5.3694907">
<ele>1057.82</ele>
<time>2019-07-25T12:24:52Z</time>
</trkpt>
<trkpt lat="44.8956588" lon="5.3694956">
<ele>1057.88</ele>
<time>2019-07-25T12:24:53Z</time>
</trkpt>
<trkpt lat="44.8956579" lon="5.3694959">
<ele>1057.93</ele>
<time>2019-07-25T12:24:54Z</time>
</trkpt>
<trkpt lat="44.8956618" lon="5.3694935">
<ele>1058.01</ele>
<time>2019-07-25T12:24:55Z</time>
</trkpt>
<trkpt lat="44.8956584" lon="5.3695034">
<ele>1058.06</ele>
<time>2019-07-25T12:24:56Z</time>
</trkpt>
<trkpt lat="44.8956507" lon="5.3694976">
<ele>1058.11</ele>
<time>2019-07-25T12:24:57Z</time>
</trkpt>
<trkpt lat="44.8956519" lon="5.3695077">
<ele>1058.17</ele>
<time>2019-07-25T12:24:58Z</time>
</trkpt>
<trkpt lat="44.8956553" lon="5.3695192">
<ele>1058.23</ele>
<time>2019-07-25T12:24:59Z</time>
</trkpt>
<trkpt lat="44.8956639" lon="5.3695302">
<ele>1058.28</ele>
<time>2019-07-25T12:25:00Z</time>
</trkpt>
<trkpt lat="44.8956609" lon="5.3695294">
<ele>1058.28</ele>
<time>2019-07-25T12:25:01Z</time>
</trkpt>
<trkpt lat="44.8956660" lon="5.3695295">
<ele>1058.28</ele>
<time>2019-07-25T12:25:02Z</time>
</trkpt>
<trkpt lat="44.8956658" lon="5.3695287">
<ele>1058.28</ele>
<time>2019-07-25T12:25:03Z</time>
</trkpt>
<trkpt lat="44.8956663" lon="5.3695282">
<ele>1058.39</ele>
<time>2019-07-25T12:25:04Z</time>
</trkpt>
<trkpt lat="44.8956669" lon="5.3695293">
<ele>1058.54</ele>
<time>2019-07-25T12:25:05Z</time>
</trkpt>
<trkpt lat="44.8956653" lon="5.3695308">
<ele>1058.65</ele>
<time>2019-07-25T12:25:06Z</time>
</trkpt>
<trkpt lat="44.8956618" lon="5.3695179">
<ele>1058.79</ele>
<time>2019-07-25T12:25:07Z</time>
</trkpt>
<trkpt lat="44.8956597" lon="5.3695138">
<ele>1058.91</ele>
<time>2019-07-25T12:25:08Z</time>
</trkpt>
<trkpt lat="44.8956651" lon="5.3695137">
<ele>1059.10</ele>
<time>2019-07-25T12:25:09Z</time>
</trkpt>
<trkpt lat="44.8956645" lon="5.3695065">
<ele>1059.32</ele>
<time>2019-07-25T12:25:10Z</time>
</trkpt>
<trkpt lat="44.8956741" lon="5.3695171">
<ele>1059.58</ele>
<time>2019-07-25T12:25:11Z</time>
</trkpt>
<trkpt lat="44.8956687" lon="5.3695162">
<ele>1059.58</ele>
<time>2019-07-25T12:25:12Z</time>
</trkpt>
<trkpt lat="44.8956704" lon="5.3695113">
<ele>1059.58</ele>
<time>2019-07-25T12:25:13Z</time>
</trkpt>
<trkpt lat="44.8956722" lon="5.3695098">
<ele>1059.61</ele>
<time>2019-07-25T12:25:14Z</time>
</trkpt>
<trkpt lat="44.8956720" lon="5.3695105">
<ele>1059.92</ele>
<time>2019-07-25T12:25:15Z</time>
</trkpt>
<trkpt lat="44.8956714" lon="5.3695093">
<ele>1060.18</ele>
<time>2019-07-25T12:25:16Z</time>
</trkpt>
<trkpt lat="44.8956731" lon="5.3695129">
<ele>1060.18</ele>
<time>2019-07-25T12:25:17Z</time>
</trkpt>
<trkpt lat="44.8956817" lon="5.3695059">
<ele>1060.20</ele>
<time>2019-07-25T12:25:18Z</time>
</trkpt>
<trkpt lat="44.8956852" lon="5.3694965">
<ele>1060.23</ele>
<time>2019-07-25T12:25:19Z</time>
</trkpt>
<trkpt lat="44.8956842" lon="5.3694981">
<ele>1060.23</ele>
<time>2019-07-25T12:25:20Z</time>
</trkpt>
<trkpt lat="44.8956844" lon="5.3694978">
<ele>1060.45</ele>
<time>2019-07-25T12:25:21Z</time>
</trkpt>
<trkpt lat="44.8956850" lon="5.3694968">
<ele>1060.51</ele>
<time>2019-07-25T12:25:22Z</time>
</trkpt>
<trkpt lat="44.8956850" lon="5.3694970">
<ele>1060.56</ele>
<time>2019-07-25T12:25:23Z</time>
</trkpt>
<trkpt lat="44.8956852" lon="5.3694969">
<ele>1060.56</ele>
<time>2019-07-25T12:25:24Z</time>
</trkpt>
<trkpt lat="44.8956849" lon="5.3694974">
<ele>1060.56</ele>
<time>2019-07-25T12:25:25Z</time>
</trkpt>
<trkpt lat="44.8956854" lon="5.3694967">
<ele>1060.55</ele>
<time>2019-07-25T12:25:26Z</time>
</trkpt>
<trkpt lat="44.8956864" lon="5.3694953">
<ele>1060.55</ele>
<time>2019-07-25T12:25:27Z</time>
</trkpt>
<trkpt lat="44.8956865" lon="5.3694952">
<ele>1060.55</ele>
<time>2019-07-25T12:25:28Z</time>
</trkpt>
<trkpt lat="44.8956864" lon="5.3694954">
<ele>1060.55</ele>
<time>2019-07-25T12:25:29Z</time>
</trkpt>
<trkpt lat="44.8956860" lon="5.3694961">
<ele>1060.55</ele>
<time>2019-07-25T12:25:30Z</time>
</trkpt>
<trkpt lat="44.8956855" lon="5.3694971">
<ele>1060.55</ele>
<time>2019-07-25T12:25:31Z</time>
</trkpt>
<trkpt lat="44.8956856" lon="5.3694971">
<ele>1060.55</ele>
<time>2019-07-25T12:25:32Z</time>
</trkpt>
<trkpt lat="44.8956841" lon="5.3694997">
<ele>1060.55</ele>
<time>2019-07-25T12:25:33Z</time>
</trkpt>
<trkpt lat="44.8956842" lon="5.3694997">
<ele>1060.55</ele>
<time>2019-07-25T12:25:34Z</time>
</trkpt>
<trkpt lat="44.8956844" lon="5.3694994">
<ele>1060.55</ele>
<time>2019-07-25T12:25:35Z</time>
</trkpt>
<trkpt lat="44.8956848" lon="5.3694988">
<ele>1060.46</ele>
<time>2019-07-25T12:25:36Z</time>
</trkpt>
<trkpt lat="44.8956850" lon="5.3694987">
<ele>1060.45</ele>
<time>2019-07-25T12:25:37Z</time>
</trkpt>
<trkpt lat="44.8956850" lon="5.3694988">
<ele>1060.45</ele>
<time>2019-07-25T12:25:38Z</time>
</trkpt>
<trkpt lat="44.8956848" lon="5.3694992">
<ele>1060.45</ele>
<time>2019-07-25T12:25:39Z</time>
</trkpt>
<trkpt lat="44.8956845" lon="5.3694997">
<ele>1060.45</ele>
<time>2019-07-25T12:25:40Z</time>
</trkpt>
<trkpt lat="44.8956845" lon="5.3694997">
<ele>1060.44</ele>
<time>2019-07-25T12:25:41Z</time>
</trkpt>
<trkpt lat="44.8956846" lon="5.3694996">
<ele>1060.29</ele>
<time>2019-07-25T12:25:42Z</time>
</trkpt>
<trkpt lat="44.8956847" lon="5.3694995">
<ele>1060.14</ele>
<time>2019-07-25T12:25:43Z</time>
</trkpt>
<trkpt lat="44.8956847" lon="5.3694994">
<ele>1060.02</ele>
<time>2019-07-25T12:25:44Z</time>
</trkpt>
<trkpt lat="44.8956848" lon="5.3694992">
<ele>1059.92</ele>
<time>2019-07-25T12:25:45Z</time>
</trkpt>
<trkpt lat="44.8956853" lon="5.3694985">
<ele>1059.84</ele>
<time>2019-07-25T12:25:46Z</time>
</trkpt>
<trkpt lat="44.8956853" lon="5.3694985">
<ele>1059.82</ele>
<time>2019-07-25T12:25:47Z</time>
</trkpt>
<trkpt lat="44.8956836" lon="5.3695033">
<ele>1059.83</ele>
<time>2019-07-25T12:25:48Z</time>
</trkpt>
<trkpt lat="44.8956860" lon="5.3695022">
<ele>1059.83</ele>
<time>2019-07-25T12:25:49Z</time>
</trkpt>
<trkpt lat="44.8956906" lon="5.3694973">
<ele>1059.82</ele>
<time>2019-07-25T12:25:50Z</time>
</trkpt>
<trkpt lat="44.8957052" lon="5.3695025">
<ele>1059.82</ele>
<time>2019-07-25T12:25:51Z</time>
</trkpt>
<trkpt lat="44.8957132" lon="5.3694888">
<ele>1059.83</ele>
<time>2019-07-25T12:25:52Z</time>
</trkpt>
<trkpt lat="44.8957076" lon="5.3694964">
<ele>1059.79</ele>
<time>2019-07-25T12:25:53Z</time>
</trkpt>
<trkpt lat="44.8957014" lon="5.3695076">
<ele>1059.79</ele>
<time>2019-07-25T12:25:54Z</time>
</trkpt>
<trkpt lat="44.8957009" lon="5.3695080">
<ele>1059.79</ele>
<time>2019-07-25T12:25:55Z</time>
</trkpt>
<trkpt lat="44.8957014" lon="5.3695075">
<ele>1059.79</ele>
<time>2019-07-25T12:25:56Z</time>
</trkpt>
<trkpt lat="44.8957015" lon="5.3695076">
<ele>1059.79</ele>
<time>2019-07-25T12:25:57Z</time>
</trkpt>
<trkpt lat="44.8957015" lon="5.3695076">
<ele>1059.79</ele>
<time>2019-07-25T12:25:58Z</time>
</trkpt>
<trkpt lat="44.8957025" lon="5.3695067">
<ele>1059.79</ele>
<time>2019-07-25T12:25:59Z</time>
</trkpt>
<trkpt lat="44.8957024" lon="5.3695067">
<ele>1059.61</ele>
<time>2019-07-25T12:26:00Z</time>
</trkpt>
<trkpt lat="44.8957024" lon="5.3695066">
<ele>1059.43</ele>
<time>2019-07-25T12:26:01Z</time>
</trkpt>
<trkpt lat="44.8957034" lon="5.3695061">
<ele>1059.29</ele>
<time>2019-07-25T12:26:02Z</time>
</trkpt>
<trkpt lat="44.8957035" lon="5.3695061">
<ele>1059.19</ele>
<time>2019-07-25T12:26:03Z</time>
</trkpt>
<trkpt lat="44.8957031" lon="5.3695064">
<ele>1059.12</ele>
<time>2019-07-25T12:26:04Z</time>
</trkpt>
<trkpt lat="44.8957032" lon="5.3695065">
<ele>1059.03</ele>
<time>2019-07-25T12:26:05Z</time>
</trkpt>
<trkpt lat="44.8957034" lon="5.3695063">
<ele>1058.96</ele>
<time>2019-07-25T12:26:06Z</time>
</trkpt>
<trkpt lat="44.8957034" lon="5.3695065">
<ele>1058.88</ele>
<time>2019-07-25T12:26:07Z</time>
</trkpt>
<trkpt lat="44.8957056" lon="5.3695048">
<ele>1058.88</ele>
<time>2019-07-25T12:26:08Z</time>
</trkpt>
<trkpt lat="44.8957089" lon="5.3695003">
<ele>1058.88</ele>
<time>2019-07-25T12:26:09Z</time>
</trkpt>
<trkpt lat="44.8957097" lon="5.3694993">
<ele>1058.88</ele>
<time>2019-07-25T12:26:10Z</time>
</trkpt>
<trkpt lat="44.8957116" lon="5.3694918">
<ele>1058.88</ele>
<time>2019-07-25T12:26:11Z</time>
</trkpt>
<trkpt lat="44.8957117" lon="5.3694919">
<ele>1058.88</ele>
<time>2019-07-25T12:26:12Z</time>
</trkpt>
<trkpt lat="44.8957121" lon="5.3694910">
<ele>1058.88</ele>
<time>2019-07-25T12:26:13Z</time>
</trkpt>
<trkpt lat="44.8957122" lon="5.3694906">
<ele>1058.87</ele>
<time>2019-07-25T12:26:14Z</time>
</trkpt>
<trkpt lat="44.8957121" lon="5.3694913">
<ele>1058.87</ele>
<time>2019-07-25T12:26:15Z</time>
</trkpt>
<trkpt lat="44.8957118" lon="5.3694919">
<ele>1058.87</ele>
<time>2019-07-25T12:26:16Z</time>
</trkpt>
<trkpt lat="44.8957117" lon="5.3694922">
<ele>1058.87</ele>
<time>2019-07-25T12:26:17Z</time>
</trkpt>
<trkpt lat="44.8957117" lon="5.3694921">
<ele>1058.87</ele>
<time>2019-07-25T12:26:18Z</time>
</trkpt>
<trkpt lat="44.8957118" lon="5.3694916">
<ele>1058.87</ele>
<time>2019-07-25T12:26:19Z</time>
</trkpt>
<trkpt lat="44.8957118" lon="5.3694920">
<ele>1058.76</ele>
<time>2019-07-25T12:26:20Z</time>
</trkpt>
<trkpt lat="44.8957117" lon="5.3694926">
<ele>1058.76</ele>
<time>2019-07-25T12:26:21Z</time>
</trkpt>
<trkpt lat="44.8957119" lon="5.3694924">
<ele>1058.76</ele>
<time>2019-07-25T12:26:22Z</time>
</trkpt>
<trkpt lat="44.8957121" lon="5.3694918">
<ele>1058.76</ele>
<time>2019-07-25T12:26:23Z</time>
</trkpt>
<trkpt lat="44.8957121" lon="5.3694917">
<ele>1058.76</ele>
<time>2019-07-25T12:26:24Z</time>
</trkpt>
<trkpt lat="44.8957121" lon="5.3694916">
<ele>1058.70</ele>
<time>2019-07-25T12:26:25Z</time>
</trkpt>
<trkpt lat="44.8957123" lon="5.3694927">
<ele>1058.67</ele>
<time>2019-07-25T12:26:26Z</time>
</trkpt>
<trkpt lat="44.8957122" lon="5.3694928">
<ele>1058.67</ele>
<time>2019-07-25T12:26:27Z</time>
</trkpt>
<trkpt lat="44.8957123" lon="5.3694923">
<ele>1058.67</ele>
<time>2019-07-25T12:26:28Z</time>
</trkpt>
<trkpt lat="44.8957125" lon="5.3694927">
<ele>1058.67</ele>
<time>2019-07-25T12:26:29Z</time>
</trkpt>
<trkpt lat="44.8957128" lon="5.3694937">
<ele>1058.67</ele>
<time>2019-07-25T12:26:30Z</time>
</trkpt>
<trkpt lat="44.8957165" lon="5.3695015">
<ele>1058.67</ele>
<time>2019-07-25T12:26:31Z</time>
</trkpt>
<trkpt lat="44.8957164" lon="5.3695018">
<ele>1058.67</ele>
<time>2019-07-25T12:26:32Z</time>
</trkpt>
<trkpt lat="44.8957167" lon="5.3695020">
<ele>1058.63</ele>
<time>2019-07-25T12:26:33Z</time>
</trkpt>
<trkpt lat="44.8957173" lon="5.3695030">
<ele>1058.63</ele>
<time>2019-07-25T12:26:34Z</time>
</trkpt>
<trkpt lat="44.8957175" lon="5.3695030">
<ele>1058.63</ele>
<time>2019-07-25T12:26:35Z</time>
</trkpt>
<trkpt lat="44.8957175" lon="5.3695030">
<ele>1058.63</ele>
<time>2019-07-25T12:26:36Z</time>
</trkpt>
<trkpt lat="44.8957175" lon="5.3695030">
<ele>1058.63</ele>
<time>2019-07-25T12:26:37Z</time>
</trkpt>
<trkpt lat="44.8957177" lon="5.3695033">
<ele>1058.63</ele>
<time>2019-07-25T12:26:38Z</time>
</trkpt>
<trkpt lat="44.8957175" lon="5.3695027">
<ele>1058.63</ele>
<time>2019-07-25T12:26:39Z</time>
</trkpt>
<trkpt lat="44.8957176" lon="5.3695025">
<ele>1058.61</ele>
<time>2019-07-25T12:26:40Z</time>
</trkpt>
<trkpt lat="44.8957179" lon="5.3695032">
<ele>1058.59</ele>
<time>2019-07-25T12:26:41Z</time>
</trkpt>
<trkpt lat="44.8957179" lon="5.3695033">
<ele>1058.60</ele>
<time>2019-07-25T12:26:42Z</time>
</trkpt>
<trkpt lat="44.8957175" lon="5.3695019">
<ele>1058.60</ele>
<time>2019-07-25T12:26:43Z</time>
</trkpt>
<trkpt lat="44.8957176" lon="5.3695019">
<ele>1058.60</ele>
<time>2019-07-25T12:26:44Z</time>
</trkpt>
<trkpt lat="44.8957178" lon="5.3695018">
<ele>1058.60</ele>
<time>2019-07-25T12:26:45Z</time>
</trkpt>
<trkpt lat="44.8957177" lon="5.3695016">
<ele>1058.60</ele>
<time>2019-07-25T12:26:46Z</time>
</trkpt>
<trkpt lat="44.8957176" lon="5.3695013">
<ele>1058.65</ele>
<time>2019-07-25T12:26:47Z</time>
</trkpt>
<trkpt lat="44.8957174" lon="5.3695002">
<ele>1058.71</ele>
<time>2019-07-25T12:26:48Z</time>
</trkpt>
<trkpt lat="44.8957173" lon="5.3695004">
<ele>1058.72</ele>
<time>2019-07-25T12:26:49Z</time>
</trkpt>
<trkpt lat="44.8957175" lon="5.3695014">
<ele>1058.74</ele>
<time>2019-07-25T12:26:50Z</time>
</trkpt>
<trkpt lat="44.8957185" lon="5.3695072">
<ele>1058.74</ele>
<time>2019-07-25T12:26:51Z</time>
</trkpt>
<trkpt lat="44.8957186" lon="5.3695072">
<ele>1058.77</ele>
<time>2019-07-25T12:26:52Z</time>
</trkpt>
<trkpt lat="44.8957186" lon="5.3695075">
<ele>1058.81</ele>
<time>2019-07-25T12:26:53Z</time>
</trkpt>
<trkpt lat="44.8957185" lon="5.3695074">
<ele>1058.82</ele>
<time>2019-07-25T12:26:54Z</time>
</trkpt>
<trkpt lat="44.8957186" lon="5.3695095">
<ele>1058.79</ele>
<time>2019-07-25T12:26:55Z</time>
</trkpt>
<trkpt lat="44.8957191" lon="5.3695146">
<ele>1058.74</ele>
<time>2019-07-25T12:26:56Z</time>
</trkpt>
<trkpt lat="44.8957230" lon="5.3695180">
<ele>1058.67</ele>
<time>2019-07-25T12:26:57Z</time>
</trkpt>
<trkpt lat="44.8957225" lon="5.3695158">
<ele>1058.56</ele>
<time>2019-07-25T12:26:58Z</time>
</trkpt>
<trkpt lat="44.8957223" lon="5.3695148">
<ele>1058.50</ele>
<time>2019-07-25T12:26:59Z</time>
</trkpt>
<trkpt lat="44.8957225" lon="5.3695145">
<ele>1058.50</ele>
<time>2019-07-25T12:27:00Z</time>
</trkpt>
<trkpt lat="44.8957199" lon="5.3695101">
<ele>1058.49</ele>
<time>2019-07-25T12:27:01Z</time>
</trkpt>
<trkpt lat="44.8957210" lon="5.3695158">
<ele>1058.49</ele>
<time>2019-07-25T12:27:02Z</time>
</trkpt>
<trkpt lat="44.8957204" lon="5.3695024">
<ele>1058.49</ele>
<time>2019-07-25T12:27:03Z</time>
</trkpt>
<trkpt lat="44.8957205" lon="5.3694974">
<ele>1058.48</ele>
<time>2019-07-25T12:27:04Z</time>
</trkpt>
<trkpt lat="44.8957193" lon="5.3694941">
<ele>1058.48</ele>
<time>2019-07-25T12:27:05Z</time>
</trkpt>
<trkpt lat="44.8957182" lon="5.3694906">
<ele>1058.48</ele>
<time>2019-07-25T12:27:06Z</time>
</trkpt>
<trkpt lat="44.8957170" lon="5.3694897">
<ele>1058.48</ele>
<time>2019-07-25T12:27:07Z</time>
</trkpt>
<trkpt lat="44.8957171" lon="5.3694897">
<ele>1058.48</ele>
<time>2019-07-25T12:27:08Z</time>
</trkpt>
<trkpt lat="44.8957172" lon="5.3694900">
<ele>1058.44</ele>
<time>2019-07-25T12:27:09Z</time>
</trkpt>
<trkpt lat="44.8957171" lon="5.3694898">
<ele>1058.44</ele>
<time>2019-07-25T12:27:10Z</time>
</trkpt>
<trkpt lat="44.8957168" lon="5.3694894">
<ele>1058.44</ele>
<time>2019-07-25T12:27:11Z</time>
</trkpt>
<trkpt lat="44.8957153" lon="5.3694871">
<ele>1058.44</ele>
<time>2019-07-25T12:27:12Z</time>
</trkpt>
<trkpt lat="44.8957153" lon="5.3694871">
<ele>1058.44</ele>
<time>2019-07-25T12:27:13Z</time>
</trkpt>
<trkpt lat="44.8957156" lon="5.3694875">
<ele>1058.44</ele>
<time>2019-07-25T12:27:14Z</time>
</trkpt>
<trkpt lat="44.8957162" lon="5.3694886">
<ele>1058.44</ele>
<time>2019-07-25T12:27:15Z</time>
</trkpt>
<trkpt lat="44.8957173" lon="5.3694904">
<ele>1058.46</ele>
<time>2019-07-25T12:27:16Z</time>
</trkpt>
<trkpt lat="44.8957173" lon="5.3694908">
<ele>1058.46</ele>
<time>2019-07-25T12:27:17Z</time>
</trkpt>
<trkpt lat="44.8957201" lon="5.3694790">
<ele>1058.46</ele>
<time>2019-07-25T12:27:18Z</time>
</trkpt>
<trkpt lat="44.8957358" lon="5.3694939">
<ele>1058.46</ele>
<time>2019-07-25T12:27:19Z</time>
</trkpt>
<trkpt lat="44.8957435" lon="5.3694913">
<ele>1058.47</ele>
<time>2019-07-25T12:27:20Z</time>
</trkpt>
<trkpt lat="44.8957449" lon="5.3695003">
<ele>1058.42</ele>
<time>2019-07-25T12:27:21Z</time>
</trkpt>
<trkpt lat="44.8957603" lon="5.3695244">
<ele>1058.41</ele>
<time>2019-07-25T12:27:22Z</time>
</trkpt>
<trkpt lat="44.8957605" lon="5.3695256">
<ele>1058.41</ele>
<time>2019-07-25T12:27:23Z</time>
</trkpt>
<trkpt lat="44.8957596" lon="5.3695254">
<ele>1058.41</ele>
<time>2019-07-25T12:27:24Z</time>
</trkpt>
<trkpt lat="44.8957597" lon="5.3695257">
<ele>1058.34</ele>
<time>2019-07-25T12:27:25Z</time>
</trkpt>
<trkpt lat="44.8957595" lon="5.3695257">
<ele>1058.30</ele>
<time>2019-07-25T12:27:26Z</time>
</trkpt>
<trkpt lat="44.8957592" lon="5.3695255">
<ele>1058.22</ele>
<time>2019-07-25T12:27:27Z</time>
</trkpt>
<trkpt lat="44.8957591" lon="5.3695259">
<ele>1058.22</ele>
<time>2019-07-25T12:27:28Z</time>
</trkpt>
<trkpt lat="44.8957595" lon="5.3695266">
<ele>1058.22</ele>
<time>2019-07-25T12:27:29Z</time>
</trkpt>
<trkpt lat="44.8957596" lon="5.3695271">
<ele>1058.22</ele>
<time>2019-07-25T12:27:30Z</time>
</trkpt>
<trkpt lat="44.8957596" lon="5.3695270">
<ele>1058.11</ele>
<time>2019-07-25T12:27:31Z</time>
</trkpt>
<trkpt lat="44.8957601" lon="5.3695282">
<ele>1058.03</ele>
<time>2019-07-25T12:27:32Z</time>
</trkpt>
<trkpt lat="44.8957616" lon="5.3695338">
<ele>1057.90</ele>
<time>2019-07-25T12:27:33Z</time>
</trkpt>
<trkpt lat="44.8957615" lon="5.3695343">
<ele>1057.90</ele>
<time>2019-07-25T12:27:34Z</time>
</trkpt>
<trkpt lat="44.8957614" lon="5.3695349">
<ele>1057.90</ele>
<time>2019-07-25T12:27:35Z</time>
</trkpt>
<trkpt lat="44.8957613" lon="5.3695351">
<ele>1057.69</ele>
<time>2019-07-25T12:27:36Z</time>
</trkpt>
<trkpt lat="44.8957614" lon="5.3695355">
<ele>1057.69</ele>
<time>2019-07-25T12:27:37Z</time>
</trkpt>
<trkpt lat="44.8957614" lon="5.3695361">
<ele>1057.69</ele>
<time>2019-07-25T12:27:38Z</time>
</trkpt>
<trkpt lat="44.8957616" lon="5.3695367">
<ele>1057.68</ele>
<time>2019-07-25T12:27:39Z</time>
</trkpt>
<trkpt lat="44.8957616" lon="5.3695367">
<ele>1057.68</ele>
<time>2019-07-25T12:27:40Z</time>
</trkpt>
<trkpt lat="44.8957615" lon="5.3695365">
<ele>1057.51</ele>
<time>2019-07-25T12:27:41Z</time>
</trkpt>
<trkpt lat="44.8957617" lon="5.3695339">
<ele>1057.51</ele>
<time>2019-07-25T12:27:42Z</time>
</trkpt>
<trkpt lat="44.8957616" lon="5.3695328">
<ele>1057.51</ele>
<time>2019-07-25T12:27:43Z</time>
</trkpt>
<trkpt lat="44.8957616" lon="5.3695331">
<ele>1057.51</ele>
<time>2019-07-25T12:27:44Z</time>
</trkpt>
<trkpt lat="44.8957617" lon="5.3695337">
<ele>1057.50</ele>
<time>2019-07-25T12:27:45Z</time>
</trkpt>
<trkpt lat="44.8957616" lon="5.3695337">
<ele>1057.50</ele>
<time>2019-07-25T12:27:46Z</time>
</trkpt>
<trkpt lat="44.8957613" lon="5.3695324">
<ele>1057.50</ele>
<time>2019-07-25T12:27:47Z</time>
</trkpt>
<trkpt lat="44.8957607" lon="5.3695297">
<ele>1057.49</ele>
<time>2019-07-25T12:27:48Z</time>
</trkpt>
<trkpt lat="44.8957599" lon="5.3695280">
<ele>1057.49</ele>
<time>2019-07-25T12:27:49Z</time>
</trkpt>
<trkpt lat="44.8957596" lon="5.3695278">
<ele>1056.97</ele>
<time>2019-07-25T12:27:50Z</time>
</trkpt>
<trkpt lat="44.8957595" lon="5.3695281">
<ele>1056.51</ele>
<time>2019-07-25T12:27:51Z</time>
</trkpt>
<trkpt lat="44.8957597" lon="5.3695291">
<ele>1056.09</ele>
<time>2019-07-25T12:27:52Z</time>
</trkpt>
<trkpt lat="44.8957587" lon="5.3695289">
<ele>1056.08</ele>
<time>2019-07-25T12:27:53Z</time>
</trkpt>
<trkpt lat="44.8957579" lon="5.3695276">
<ele>1056.08</ele>
<time>2019-07-25T12:27:54Z</time>
</trkpt>
<trkpt lat="44.8957577" lon="5.3695274">
<ele>1056.07</ele>
<time>2019-07-25T12:27:55Z</time>
</trkpt>
<trkpt lat="44.8957566" lon="5.3695272">
<ele>1056.06</ele>
<time>2019-07-25T12:27:56Z</time>
</trkpt>
<trkpt lat="44.8957553" lon="5.3695266">
<ele>1056.06</ele>
<time>2019-07-25T12:27:57Z</time>
</trkpt>
<trkpt lat="44.8957527" lon="5.3695240">
<ele>1056.05</ele>
<time>2019-07-25T12:27:58Z</time>
</trkpt>
<trkpt lat="44.8957574" lon="5.3695281">
<ele>1055.43</ele>
<time>2019-07-25T12:27:59Z</time>
</trkpt>
<trkpt lat="44.8957569" lon="5.3695297">
<ele>1054.89</ele>
<time>2019-07-25T12:28:00Z</time>
</trkpt>
<trkpt lat="44.8957551" lon="5.3695280">
<ele>1054.84</ele>
<time>2019-07-25T12:28:01Z</time>
</trkpt>
<trkpt lat="44.8957558" lon="5.3695292">
<ele>1054.84</ele>
<time>2019-07-25T12:28:02Z</time>
</trkpt>
<trkpt lat="44.8957558" lon="5.3695297">
<ele>1054.33</ele>
<time>2019-07-25T12:28:03Z</time>
</trkpt>
<trkpt lat="44.8957545" lon="5.3695309">
<ele>1053.99</ele>
<time>2019-07-25T12:28:04Z</time>
</trkpt>
<trkpt lat="44.8957534" lon="5.3695300">
<ele>1053.98</ele>
<time>2019-07-25T12:28:05Z</time>
</trkpt>
<trkpt lat="44.8957570" lon="5.3695511">
<ele>1053.63</ele>
<time>2019-07-25T12:28:06Z</time>
</trkpt>
<trkpt lat="44.8957653" lon="5.3695600">
<ele>1053.60</ele>
<time>2019-07-25T12:28:07Z</time>
</trkpt>
<trkpt lat="44.8957571" lon="5.3695581">
<ele>1053.56</ele>
<time>2019-07-25T12:28:08Z</time>
</trkpt>
<trkpt lat="44.8957556" lon="5.3695566">
<ele>1053.55</ele>
<time>2019-07-25T12:28:09Z</time>
</trkpt>
<trkpt lat="44.8957558" lon="5.3695571">
<ele>1053.00</ele>
<time>2019-07-25T12:28:10Z</time>
</trkpt>
<trkpt lat="44.8957557" lon="5.3695570">
<ele>1052.48</ele>
<time>2019-07-25T12:28:11Z</time>
</trkpt>
<trkpt lat="44.8957556" lon="5.3695574">
<ele>1051.97</ele>
<time>2019-07-25T12:28:12Z</time>
</trkpt>
<trkpt lat="44.8957566" lon="5.3695592">
<ele>1051.46</ele>
<time>2019-07-25T12:28:13Z</time>
</trkpt>
<trkpt lat="44.8957575" lon="5.3695607">
<ele>1050.98</ele>
<time>2019-07-25T12:28:14Z</time>
</trkpt>
<trkpt lat="44.8957586" lon="5.3695628">
<ele>1050.52</ele>
<time>2019-07-25T12:28:15Z</time>
</trkpt>
<trkpt lat="44.8957605" lon="5.3695647">
<ele>1050.08</ele>
<time>2019-07-25T12:28:16Z</time>
</trkpt>
<trkpt lat="44.8957604" lon="5.3695648">
<ele>1050.07</ele>
<time>2019-07-25T12:28:17Z</time>
</trkpt>
<trkpt lat="44.8957608" lon="5.3695651">
<ele>1050.07</ele>
<time>2019-07-25T12:28:18Z</time>
</trkpt>
<trkpt lat="44.8957606" lon="5.3695649">
<ele>1050.06</ele>
<time>2019-07-25T12:28:19Z</time>
</trkpt>
<trkpt lat="44.8957604" lon="5.3695648">
<ele>1049.48</ele>
<time>2019-07-25T12:28:20Z</time>
</trkpt>
<trkpt lat="44.8957603" lon="5.3695650">
<ele>1049.47</ele>
<time>2019-07-25T12:28:21Z</time>
</trkpt>
<trkpt lat="44.8957605" lon="5.3695652">
<ele>1049.47</ele>
<time>2019-07-25T12:28:22Z</time>
</trkpt>
<trkpt lat="44.8957601" lon="5.3695650">
<ele>1049.46</ele>
<time>2019-07-25T12:28:23Z</time>
</trkpt>
<trkpt lat="44.8957600" lon="5.3695647">
<ele>1048.92</ele>
<time>2019-07-25T12:28:24Z</time>
</trkpt>
<trkpt lat="44.8957599" lon="5.3695645">
<ele>1048.47</ele>
<time>2019-07-25T12:28:25Z</time>
</trkpt>
<trkpt lat="44.8957596" lon="5.3695643">
<ele>1048.02</ele>
<time>2019-07-25T12:28:26Z</time>
</trkpt>
<trkpt lat="44.8957597" lon="5.3695646">
<ele>1047.63</ele>
<time>2019-07-25T12:28:27Z</time>
</trkpt>
<trkpt lat="44.8957596" lon="5.3695648">
<ele>1047.62</ele>
<time>2019-07-25T12:28:28Z</time>
</trkpt>
<trkpt lat="44.8957595" lon="5.3695645">
<ele>1047.62</ele>
<time>2019-07-25T12:28:29Z</time>
</trkpt>
<trkpt lat="44.8957596" lon="5.3695647">
<ele>1047.62</ele>
<time>2019-07-25T12:28:30Z</time>
</trkpt>
<trkpt lat="44.8957597" lon="5.3695644">
<ele>1047.34</ele>
<time>2019-07-25T12:28:31Z</time>
</trkpt>
<trkpt lat="44.8957595" lon="5.3695642">
<ele>1047.11</ele>
<time>2019-07-25T12:28:32Z</time>
</trkpt>
<trkpt lat="44.8957590" lon="5.3695643">
<ele>1046.94</ele>
<time>2019-07-25T12:28:33Z</time>
</trkpt>
<trkpt lat="44.8957592" lon="5.3695645">
<ele>1046.89</ele>
<time>2019-07-25T12:28:34Z</time>
</trkpt>
<trkpt lat="44.8957682" lon="5.3695674">
<ele>1046.98</ele>
<time>2019-07-25T12:28:35Z</time>
</trkpt>
<trkpt lat="44.8957635" lon="5.3695669">
<ele>1047.12</ele>
<time>2019-07-25T12:28:36Z</time>
</trkpt>
<trkpt lat="44.8957697" lon="5.3695643">
<ele>1047.31</ele>
<time>2019-07-25T12:28:37Z</time>
</trkpt>
<trkpt lat="44.8957702" lon="5.3695638">
<ele>1047.50</ele>
<time>2019-07-25T12:28:38Z</time>
</trkpt>
<trkpt lat="44.8957650" lon="5.3695635">
<ele>1047.50</ele>
<time>2019-07-25T12:28:39Z</time>
</trkpt>
<trkpt lat="44.8957773" lon="5.3695540">
<ele>1047.51</ele>
<time>2019-07-25T12:28:40Z</time>
</trkpt>
<trkpt lat="44.8957875" lon="5.3695784">
<ele>1047.53</ele>
<time>2019-07-25T12:28:41Z</time>
</trkpt>
<trkpt lat="44.8957897" lon="5.3695602">
<ele>1047.53</ele>
<time>2019-07-25T12:28:42Z</time>
</trkpt>
<trkpt lat="44.8957887" lon="5.3695638">
<ele>1047.53</ele>
<time>2019-07-25T12:28:43Z</time>
</trkpt>
<trkpt lat="44.8957909" lon="5.3695572">
<ele>1047.54</ele>
<time>2019-07-25T12:28:44Z</time>
</trkpt>
<trkpt lat="44.8957986" lon="5.3695549">
<ele>1047.55</ele>
<time>2019-07-25T12:28:45Z</time>
</trkpt>
<trkpt lat="44.8957908" lon="5.3695459">
<ele>1047.57</ele>
<time>2019-07-25T12:28:46Z</time>
</trkpt>
<trkpt lat="44.8957840" lon="5.3695343">
<ele>1047.58</ele>
<time>2019-07-25T12:28:47Z</time>
</trkpt>
<trkpt lat="44.8957731" lon="5.3695300">
<ele>1047.59</ele>
<time>2019-07-25T12:28:48Z</time>
</trkpt>
<trkpt lat="44.8957734" lon="5.3695283">
<ele>1047.70</ele>
<time>2019-07-25T12:28:49Z</time>
</trkpt>
<trkpt lat="44.8957777" lon="5.3695123">
<ele>1047.78</ele>
<time>2019-07-25T12:28:50Z</time>
</trkpt>
<trkpt lat="44.8957637" lon="5.3694910">
<ele>1047.87</ele>
<time>2019-07-25T12:28:51Z</time>
</trkpt>
<trkpt lat="44.8957644" lon="5.3694903">
<ele>1048.01</ele>
<time>2019-07-25T12:28:52Z</time>
</trkpt>
<trkpt lat="44.8957644" lon="5.3694900">
<ele>1048.01</ele>
<time>2019-07-25T12:28:53Z</time>
</trkpt>
<trkpt lat="44.8957638" lon="5.3694892">
<ele>1048.01</ele>
<time>2019-07-25T12:28:54Z</time>
</trkpt>
<trkpt lat="44.8957649" lon="5.3694887">
<ele>1048.01</ele>
<time>2019-07-25T12:28:55Z</time>
</trkpt>
<trkpt lat="44.8957694" lon="5.3694830">
<ele>1048.04</ele>
<time>2019-07-25T12:28:56Z</time>
</trkpt>
<trkpt lat="44.8957662" lon="5.3695037">
<ele>1048.07</ele>
<time>2019-07-25T12:28:57Z</time>
</trkpt>
<trkpt lat="44.8957713" lon="5.3694977">
<ele>1048.11</ele>
<time>2019-07-25T12:28:58Z</time>
</trkpt>
<trkpt lat="44.8957792" lon="5.3694881">
<ele>1048.14</ele>
<time>2019-07-25T12:28:59Z</time>
</trkpt>
<trkpt lat="44.8957591" lon="5.3694769">
<ele>1048.18</ele>
<time>2019-07-25T12:29:00Z</time>
</trkpt>
<trkpt lat="44.8957408" lon="5.3694916">
<ele>1048.18</ele>
<time>2019-07-25T12:29:01Z</time>
</trkpt>
<trkpt lat="44.8957393" lon="5.3694907">
<ele>1048.19</ele>
<time>2019-07-25T12:29:02Z</time>
</trkpt>
<trkpt lat="44.8957393" lon="5.3694897">
<ele>1048.19</ele>
<time>2019-07-25T12:29:03Z</time>
</trkpt>
<trkpt lat="44.8957395" lon="5.3694891">
<ele>1048.19</ele>
<time>2019-07-25T12:29:04Z</time>
</trkpt>
<trkpt lat="44.8957345" lon="5.3694907">
<ele>1048.20</ele>
<time>2019-07-25T12:29:05Z</time>
</trkpt>
<trkpt lat="44.8957315" lon="5.3694985">
<ele>1048.20</ele>
<time>2019-07-25T12:29:06Z</time>
</trkpt>
<trkpt lat="44.8957341" lon="5.3694949">
<ele>1048.20</ele>
<time>2019-07-25T12:29:07Z</time>
</trkpt>
<trkpt lat="44.8957336" lon="5.3694949">
<ele>1048.20</ele>
<time>2019-07-25T12:29:08Z</time>
</trkpt>
<trkpt lat="44.8957352" lon="5.3694961">
<ele>1048.21</ele>
<time>2019-07-25T12:29:09Z</time>
</trkpt>
<trkpt lat="44.8957357" lon="5.3694967">
<ele>1048.21</ele>
<time>2019-07-25T12:29:10Z</time>
</trkpt>
<trkpt lat="44.8957350" lon="5.3694973">
<ele>1048.22</ele>
<time>2019-07-25T12:29:11Z</time>
</trkpt>
<trkpt lat="44.8957340" lon="5.3694979">
<ele>1048.22</ele>
<time>2019-07-25T12:29:12Z</time>
</trkpt>
<trkpt lat="44.8957381" lon="5.3695096">
<ele>1048.27</ele>
<time>2019-07-25T12:29:13Z</time>
</trkpt>
<trkpt lat="44.8957443" lon="5.3695143">
<ele>1048.32</ele>
<time>2019-07-25T12:29:14Z</time>
</trkpt>
<trkpt lat="44.8957435" lon="5.3694987">
<ele>1048.38</ele>
<time>2019-07-25T12:29:15Z</time>
</trkpt>
<trkpt lat="44.8957373" lon="5.3695295">
<ele>1048.44</ele>
<time>2019-07-25T12:29:16Z</time>
</trkpt>
<trkpt lat="44.8957363" lon="5.3695370">
<ele>1048.50</ele>
<time>2019-07-25T12:29:17Z</time>
</trkpt>
<trkpt lat="44.8957319" lon="5.3695336">
<ele>1048.57</ele>
<time>2019-07-25T12:29:18Z</time>
</trkpt>
<trkpt lat="44.8957248" lon="5.3695192">
<ele>1048.58</ele>
<time>2019-07-25T12:29:19Z</time>
</trkpt>
<trkpt lat="44.8957284" lon="5.3695107">
<ele>1048.59</ele>
<time>2019-07-25T12:29:20Z</time>
</trkpt>
<trkpt lat="44.8957235" lon="5.3695192">
<ele>1048.67</ele>
<time>2019-07-25T12:29:21Z</time>
</trkpt>
<trkpt lat="44.8957233" lon="5.3695197">
<ele>1048.68</ele>
<time>2019-07-25T12:29:22Z</time>
</trkpt>
<trkpt lat="44.8957287" lon="5.3695137">
<ele>1048.77</ele>
<time>2019-07-25T12:29:23Z</time>
</trkpt>
<trkpt lat="44.8957185" lon="5.3695208">
<ele>1048.77</ele>
<time>2019-07-25T12:29:24Z</time>
</trkpt>
<trkpt lat="44.8957167" lon="5.3695295">
<ele>1048.78</ele>
<time>2019-07-25T12:29:25Z</time>
</trkpt>
<trkpt lat="44.8957144" lon="5.3695315">
<ele>1048.79</ele>
<time>2019-07-25T12:29:26Z</time>
</trkpt>
<trkpt lat="44.8957138" lon="5.3695341">
<ele>1048.80</ele>
<time>2019-07-25T12:29:27Z</time>
</trkpt>
<trkpt lat="44.8957190" lon="5.3695350">
<ele>1048.89</ele>
<time>2019-07-25T12:29:28Z</time>
</trkpt>
<trkpt lat="44.8957195" lon="5.3695361">
<ele>1049.85</ele>
<time>2019-07-25T12:29:29Z</time>
</trkpt>
<trkpt lat="44.8957197" lon="5.3695357">
<ele>1050.66</ele>
<time>2019-07-25T12:29:30Z</time>
</trkpt>
<trkpt lat="44.8957226" lon="5.3695321">
<ele>1051.34</ele>
<time>2019-07-25T12:29:31Z</time>
</trkpt>
<trkpt lat="44.8957276" lon="5.3695310">
<ele>1051.35</ele>
<time>2019-07-25T12:29:32Z</time>
</trkpt>
<trkpt lat="44.8956912" lon="5.3695673">
<ele>1051.36</ele>
<time>2019-07-25T12:29:33Z</time>
</trkpt>
<trkpt lat="44.8956801" lon="5.3695513">
<ele>1051.42</ele>
<time>2019-07-25T12:29:34Z</time>
</trkpt>
<trkpt lat="44.8956854" lon="5.3695650">
<ele>1051.43</ele>
<time>2019-07-25T12:29:35Z</time>
</trkpt>
<trkpt lat="44.8956866" lon="5.3695649">
<ele>1051.43</ele>
<time>2019-07-25T12:29:36Z</time>
</trkpt>
<trkpt lat="44.8956878" lon="5.3695635">
<ele>1051.44</ele>
<time>2019-07-25T12:29:37Z</time>
</trkpt>
<trkpt lat="44.8956878" lon="5.3695626">
<ele>1052.20</ele>
<time>2019-07-25T12:29:38Z</time>
</trkpt>
<trkpt lat="44.8956874" lon="5.3695625">
<ele>1052.21</ele>
<time>2019-07-25T12:29:39Z</time>
</trkpt>
<trkpt lat="44.8956872" lon="5.3695622">
<ele>1052.87</ele>
<time>2019-07-25T12:29:40Z</time>
</trkpt>
<trkpt lat="44.8956870" lon="5.3695616">
<ele>1052.88</ele>
<time>2019-07-25T12:29:41Z</time>
</trkpt>
<trkpt lat="44.8956901" lon="5.3695616">
<ele>1052.88</ele>
<time>2019-07-25T12:29:42Z</time>
</trkpt>
<trkpt lat="44.8956897" lon="5.3695667">
<ele>1053.39</ele>
<time>2019-07-25T12:29:43Z</time>
</trkpt>
<trkpt lat="44.8956900" lon="5.3695666">
<ele>1053.83</ele>
<time>2019-07-25T12:29:44Z</time>
</trkpt>
<trkpt lat="44.8956989" lon="5.3695736">
<ele>1053.87</ele>
<time>2019-07-25T12:29:45Z</time>
</trkpt>
<trkpt lat="44.8957108" lon="5.3695797">
<ele>1053.91</ele>
<time>2019-07-25T12:29:46Z</time>
</trkpt>
<trkpt lat="44.8957171" lon="5.3695730">
<ele>1053.91</ele>
<time>2019-07-25T12:29:47Z</time>
</trkpt>
<trkpt lat="44.8957181" lon="5.3695665">
<ele>1053.95</ele>
<time>2019-07-25T12:29:48Z</time>
</trkpt>
<trkpt lat="44.8957188" lon="5.3695656">
<ele>1054.00</ele>
<time>2019-07-25T12:29:49Z</time>
</trkpt>
<trkpt lat="44.8957218" lon="5.3695594">
<ele>1054.05</ele>
<time>2019-07-25T12:29:50Z</time>
</trkpt>
<trkpt lat="44.8957199" lon="5.3695548">
<ele>1054.05</ele>
<time>2019-07-25T12:29:51Z</time>
</trkpt>
<trkpt lat="44.8957148" lon="5.3695472">
<ele>1054.10</ele>
<time>2019-07-25T12:29:52Z</time>
</trkpt>
<trkpt lat="44.8957157" lon="5.3695528">
<ele>1054.15</ele>
<time>2019-07-25T12:29:53Z</time>
</trkpt>
<trkpt lat="44.8957181" lon="5.3695523">
<ele>1054.16</ele>
<time>2019-07-25T12:29:54Z</time>
</trkpt>
<trkpt lat="44.8957140" lon="5.3695403">
<ele>1054.21</ele>
<time>2019-07-25T12:29:55Z</time>
</trkpt>
<trkpt lat="44.8957121" lon="5.3695271">
<ele>1054.26</ele>
<time>2019-07-25T12:29:56Z</time>
</trkpt>
<trkpt lat="44.8957076" lon="5.3695201">
<ele>1054.31</ele>
<time>2019-07-25T12:29:57Z</time>
</trkpt>
<trkpt lat="44.8957092" lon="5.3695188">
<ele>1054.35</ele>
<time>2019-07-25T12:29:58Z</time>
</trkpt>
<trkpt lat="44.8957095" lon="5.3695268">
<ele>1054.36</ele>
<time>2019-07-25T12:29:59Z</time>
</trkpt>
<trkpt lat="44.8957100" lon="5.3695335">
<ele>1054.40</ele>
<time>2019-07-25T12:30:00Z</time>
</trkpt>
<trkpt lat="44.8957041" lon="5.3695276">
<ele>1054.76</ele>
<time>2019-07-25T12:30:01Z</time>
</trkpt>
<trkpt lat="44.8957030" lon="5.3695318">
<ele>1054.79</ele>
<time>2019-07-25T12:30:02Z</time>
</trkpt>
<trkpt lat="44.8957005" lon="5.3695238">
<ele>1054.81</ele>
<time>2019-07-25T12:30:03Z</time>
</trkpt>
<trkpt lat="44.8957039" lon="5.3695306">
<ele>1054.84</ele>
<time>2019-07-25T12:30:04Z</time>
</trkpt>
<trkpt lat="44.8957078" lon="5.3695350">
<ele>1054.86</ele>
<time>2019-07-25T12:30:05Z</time>
</trkpt>
<trkpt lat="44.8957063" lon="5.3695215">
<ele>1054.86</ele>
<time>2019-07-25T12:30:06Z</time>
</trkpt>
<trkpt lat="44.8957058" lon="5.3695203">
<ele>1054.87</ele>
<time>2019-07-25T12:30:07Z</time>
</trkpt>
<trkpt lat="44.8957060" lon="5.3695206">
<ele>1054.87</ele>
<time>2019-07-25T12:30:08Z</time>
</trkpt>
<trkpt lat="44.8957059" lon="5.3695205">
<ele>1054.87</ele>
<time>2019-07-25T12:30:09Z</time>
</trkpt>
<trkpt lat="44.8957056" lon="5.3695198">
<ele>1054.87</ele>
<time>2019-07-25T12:30:10Z</time>
</trkpt>
<trkpt lat="44.8957057" lon="5.3695204">
<ele>1054.88</ele>
<time>2019-07-25T12:30:11Z</time>
</trkpt>
<trkpt lat="44.8957058" lon="5.3695207">
<ele>1054.88</ele>
<time>2019-07-25T12:30:12Z</time>
</trkpt>
<trkpt lat="44.8957056" lon="5.3695201">
<ele>1054.88</ele>
<time>2019-07-25T12:30:13Z</time>
</trkpt>
<trkpt lat="44.8957059" lon="5.3695211">
<ele>1054.89</ele>
<time>2019-07-25T12:30:14Z</time>
</trkpt>
<trkpt lat="44.8957059" lon="5.3695209">
<ele>1055.13</ele>
<time>2019-07-25T12:30:15Z</time>
</trkpt>
<trkpt lat="44.8957050" lon="5.3695119">
<ele>1055.29</ele>
<time>2019-07-25T12:30:16Z</time>
</trkpt>
<trkpt lat="44.8957054" lon="5.3695127">
<ele>1055.29</ele>
<time>2019-07-25T12:30:17Z</time>
</trkpt>
<trkpt lat="44.8957041" lon="5.3695094">
<ele>1055.30</ele>
<time>2019-07-25T12:30:18Z</time>
</trkpt>
<trkpt lat="44.8957039" lon="5.3695097">
<ele>1055.30</ele>
<time>2019-07-25T12:30:19Z</time>
</trkpt>
<trkpt lat="44.8957043" lon="5.3695105">
<ele>1055.30</ele>
<time>2019-07-25T12:30:20Z</time>
</trkpt>
<trkpt lat="44.8957043" lon="5.3695104">
<ele>1055.30</ele>
<time>2019-07-25T12:30:21Z</time>
</trkpt>
<trkpt lat="44.8957044" lon="5.3695106">
<ele>1055.31</ele>
<time>2019-07-25T12:30:22Z</time>
</trkpt>
<trkpt lat="44.8957045" lon="5.3695108">
<ele>1055.59</ele>
<time>2019-07-25T12:30:23Z</time>
</trkpt>
<trkpt lat="44.8957046" lon="5.3695109">
<ele>1055.84</ele>
<time>2019-07-25T12:30:24Z</time>
</trkpt>
<trkpt lat="44.8957053" lon="5.3695132">
<ele>1055.84</ele>
<time>2019-07-25T12:30:25Z</time>
</trkpt>
<trkpt lat="44.8957055" lon="5.3695135">
<ele>1055.84</ele>
<time>2019-07-25T12:30:26Z</time>
</trkpt>
<trkpt lat="44.8957055" lon="5.3695132">
<ele>1056.05</ele>
<time>2019-07-25T12:30:27Z</time>
</trkpt>
<trkpt lat="44.8957086" lon="5.3695253">
<ele>1056.21</ele>
<time>2019-07-25T12:30:28Z</time>
</trkpt>
<trkpt lat="44.8957086" lon="5.3695253">
<ele>1056.35</ele>
<time>2019-07-25T12:30:29Z</time>
</trkpt>
<trkpt lat="44.8957173" lon="5.3695318">
<ele>1056.35</ele>
<time>2019-07-25T12:30:30Z</time>
</trkpt>
<trkpt lat="44.8957170" lon="5.3695318">
<ele>1056.35</ele>
<time>2019-07-25T12:30:31Z</time>
</trkpt>
<trkpt lat="44.8957174" lon="5.3695319">
<ele>1056.35</ele>
<time>2019-07-25T12:30:32Z</time>
</trkpt>
<trkpt lat="44.8957173" lon="5.3695326">
<ele>1056.49</ele>
<time>2019-07-25T12:30:33Z</time>
</trkpt>
<trkpt lat="44.8957223" lon="5.3695464">
<ele>1056.63</ele>
<time>2019-07-25T12:30:34Z</time>
</trkpt>
<trkpt lat="44.8957245" lon="5.3695515">
<ele>1056.63</ele>
<time>2019-07-25T12:30:35Z</time>
</trkpt>
<trkpt lat="44.8957244" lon="5.3695514">
<ele>1056.68</ele>
<time>2019-07-25T12:30:36Z</time>
</trkpt>
<trkpt lat="44.8957248" lon="5.3695522">
<ele>1056.66</ele>
<time>2019-07-25T12:30:37Z</time>
</trkpt>
<trkpt lat="44.8957248" lon="5.3695521">
<ele>1056.63</ele>
<time>2019-07-25T12:30:38Z</time>
</trkpt>
<trkpt lat="44.8957246" lon="5.3695519">
<ele>1056.55</ele>
<time>2019-07-25T12:30:39Z</time>
</trkpt>
<trkpt lat="44.8957248" lon="5.3695523">
<ele>1056.46</ele>
<time>2019-07-25T12:30:40Z</time>
</trkpt>
<trkpt lat="44.8957258" lon="5.3695553">
<ele>1056.46</ele>
<time>2019-07-25T12:30:41Z</time>
</trkpt>
<trkpt lat="44.8957275" lon="5.3695589">
<ele>1056.46</ele>
<time>2019-07-25T12:30:42Z</time>
</trkpt>
<trkpt lat="44.8957276" lon="5.3695590">
<ele>1056.46</ele>
<time>2019-07-25T12:30:43Z</time>
</trkpt>
<trkpt lat="44.8957276" lon="5.3695590">
<ele>1056.46</ele>
<time>2019-07-25T12:30:44Z</time>
</trkpt>
<trkpt lat="44.8957278" lon="5.3695593">
<ele>1056.45</ele>
<time>2019-07-25T12:30:45Z</time>
</trkpt>
<trkpt lat="44.8957279" lon="5.3695601">
<ele>1056.44</ele>
<time>2019-07-25T12:30:46Z</time>
</trkpt>
<trkpt lat="44.8957279" lon="5.3695605">
<ele>1056.44</ele>
<time>2019-07-25T12:30:47Z</time>
</trkpt>
<trkpt lat="44.8957280" lon="5.3695609">
<ele>1056.44</ele>
<time>2019-07-25T12:30:48Z</time>
</trkpt>
<trkpt lat="44.8957282" lon="5.3695613">
<ele>1056.44</ele>
<time>2019-07-25T12:30:49Z</time>
</trkpt>
<trkpt lat="44.8957282" lon="5.3695629">
<ele>1056.44</ele>
<time>2019-07-25T12:30:50Z</time>
</trkpt>
<trkpt lat="44.8957284" lon="5.3695637">
<ele>1056.47</ele>
<time>2019-07-25T12:30:51Z</time>
</trkpt>
<trkpt lat="44.8957258" lon="5.3695459">
<ele>1056.50</ele>
<time>2019-07-25T12:30:52Z</time>
</trkpt>
<trkpt lat="44.8957259" lon="5.3695453">
<ele>1056.51</ele>
<time>2019-07-25T12:30:53Z</time>
</trkpt>
<trkpt lat="44.8957257" lon="5.3695451">
<ele>1056.51</ele>
<time>2019-07-25T12:30:54Z</time>
</trkpt>
<trkpt lat="44.8957251" lon="5.3695428">
<ele>1056.51</ele>
<time>2019-07-25T12:30:55Z</time>
</trkpt>
<trkpt lat="44.8957251" lon="5.3695427">
<ele>1056.51</ele>
<time>2019-07-25T12:30:56Z</time>
</trkpt>
<trkpt lat="44.8957249" lon="5.3695424">
<ele>1056.51</ele>
<time>2019-07-25T12:30:57Z</time>
</trkpt>
<trkpt lat="44.8957249" lon="5.3695422">
<ele>1056.51</ele>
<time>2019-07-25T12:30:58Z</time>
</trkpt>
<trkpt lat="44.8957246" lon="5.3695415">
<ele>1056.48</ele>
<time>2019-07-25T12:30:59Z</time>
</trkpt>
<trkpt lat="44.8957003" lon="5.3695434">
<ele>1056.42</ele>
<time>2019-07-25T12:31:00Z</time>
</trkpt>
<trkpt lat="44.8956986" lon="5.3695331">
<ele>1056.35</ele>
<time>2019-07-25T12:31:01Z</time>
</trkpt>
<trkpt lat="44.8956989" lon="5.3695335">
<ele>1056.32</ele>
<time>2019-07-25T12:31:02Z</time>
</trkpt>
<trkpt lat="44.8957006" lon="5.3695326">
<ele>1056.30</ele>
<time>2019-07-25T12:31:03Z</time>
</trkpt>
<trkpt lat="44.8957010" lon="5.3695333">
<ele>1056.31</ele>
<time>2019-07-25T12:31:04Z</time>
</trkpt>
<trkpt lat="44.8957008" lon="5.3695331">
<ele>1056.29</ele>
<time>2019-07-25T12:31:05Z</time>
</trkpt>
<trkpt lat="44.8957008" lon="5.3695327">
<ele>1056.25</ele>
<time>2019-07-25T12:31:06Z</time>
</trkpt>
<trkpt lat="44.8956987" lon="5.3695011">
<ele>1056.18</ele>
<time>2019-07-25T12:31:07Z</time>
</trkpt>
<trkpt lat="44.8956987" lon="5.3695015">
<ele>1056.10</ele>
<time>2019-07-25T12:31:08Z</time>
</trkpt>
<trkpt lat="44.8956967" lon="5.3694901">
<ele>1056.03</ele>
<time>2019-07-25T12:31:09Z</time>
</trkpt>
<trkpt lat="44.8956977" lon="5.3694924">
<ele>1056.03</ele>
<time>2019-07-25T12:31:10Z</time>
</trkpt>
<trkpt lat="44.8956976" lon="5.3694921">
<ele>1056.03</ele>
<time>2019-07-25T12:31:11Z</time>
</trkpt>
<trkpt lat="44.8956974" lon="5.3694913">
<ele>1056.02</ele>
<time>2019-07-25T12:31:12Z</time>
</trkpt>
<trkpt lat="44.8956975" lon="5.3694912">
<ele>1055.94</ele>
<time>2019-07-25T12:31:13Z</time>
</trkpt>
<trkpt lat="44.8956979" lon="5.3694918">
<ele>1055.85</ele>
<time>2019-07-25T12:31:14Z</time>
</trkpt>
<trkpt lat="44.8956984" lon="5.3694937">
<ele>1055.85</ele>
<time>2019-07-25T12:31:15Z</time>
</trkpt>
<trkpt lat="44.8957038" lon="5.3695284">
<ele>1055.79</ele>
<time>2019-07-25T12:31:16Z</time>
</trkpt>
<trkpt lat="44.8957307" lon="5.3695281">
<ele>1055.79</ele>
<time>2019-07-25T12:31:17Z</time>
</trkpt>
<trkpt lat="44.8957346" lon="5.3695028">
<ele>1055.79</ele>
<time>2019-07-25T12:31:18Z</time>
</trkpt>
<trkpt lat="44.8957309" lon="5.3695174">
<ele>1055.80</ele>
<time>2019-07-25T12:31:19Z</time>
</trkpt>
<trkpt lat="44.8957305" lon="5.3695161">
<ele>1055.80</ele>
<time>2019-07-25T12:31:20Z</time>
</trkpt>
<trkpt lat="44.8957314" lon="5.3695178">
<ele>1055.80</ele>
<time>2019-07-25T12:31:21Z</time>
</trkpt>
<trkpt lat="44.8957313" lon="5.3695179">
<ele>1055.80</ele>
<time>2019-07-25T12:31:22Z</time>
</trkpt>
<trkpt lat="44.8957312" lon="5.3695178">
<ele>1055.81</ele>
<time>2019-07-25T12:31:23Z</time>
</trkpt>
<trkpt lat="44.8957312" lon="5.3695179">
<ele>1055.81</ele>
<time>2019-07-25T12:31:24Z</time>
</trkpt>
<trkpt lat="44.8957311" lon="5.3695180">
<ele>1055.81</ele>
<time>2019-07-25T12:31:25Z</time>
</trkpt>
<trkpt lat="44.8957311" lon="5.3695178">
<ele>1055.81</ele>
<time>2019-07-25T12:31:26Z</time>
</trkpt>
<trkpt lat="44.8957312" lon="5.3695177">
<ele>1055.81</ele>
<time>2019-07-25T12:31:27Z</time>
</trkpt>
<trkpt lat="44.8957311" lon="5.3695179">
<ele>1055.85</ele>
<time>2019-07-25T12:31:28Z</time>
</trkpt>
<trkpt lat="44.8957314" lon="5.3695187">
<ele>1055.89</ele>
<time>2019-07-25T12:31:29Z</time>
</trkpt>
<trkpt lat="44.8957318" lon="5.3695187">
<ele>1055.89</ele>
<time>2019-07-25T12:31:30Z</time>
</trkpt>
<trkpt lat="44.8957315" lon="5.3695189">
<ele>1055.89</ele>
<time>2019-07-25T12:31:31Z</time>
</trkpt>
<trkpt lat="44.8957317" lon="5.3695188">
<ele>1055.89</ele>
<time>2019-07-25T12:31:32Z</time>
</trkpt>
<trkpt lat="44.8957315" lon="5.3695189">
<ele>1055.99</ele>
<time>2019-07-25T12:31:33Z</time>
</trkpt>
<trkpt lat="44.8957316" lon="5.3695187">
<ele>1056.05</ele>
<time>2019-07-25T12:31:34Z</time>
</trkpt>
<trkpt lat="44.8957323" lon="5.3695180">
<ele>1056.08</ele>
<time>2019-07-25T12:31:35Z</time>
</trkpt>
<trkpt lat="44.8957335" lon="5.3695165">
<ele>1056.11</ele>
<time>2019-07-25T12:31:36Z</time>
</trkpt>
<trkpt lat="44.8957342" lon="5.3695156">
<ele>1056.15</ele>
<time>2019-07-25T12:31:37Z</time>
</trkpt>
<trkpt lat="44.8957350" lon="5.3695145">
<ele>1056.18</ele>
<time>2019-07-25T12:31:38Z</time>
</trkpt>
<trkpt lat="44.8957364" lon="5.3695129">
<ele>1056.22</ele>
<time>2019-07-25T12:31:39Z</time>
</trkpt>
<trkpt lat="44.8957378" lon="5.3695112">
<ele>1056.21</ele>
<time>2019-07-25T12:31:40Z</time>
</trkpt>
<trkpt lat="44.8957378" lon="5.3695110">
<ele>1056.19</ele>
<time>2019-07-25T12:31:41Z</time>
</trkpt>
<trkpt lat="44.8957440" lon="5.3695054">
<ele>1056.18</ele>
<time>2019-07-25T12:31:42Z</time>
</trkpt>
<trkpt lat="44.8957427" lon="5.3695100">
<ele>1056.19</ele>
<time>2019-07-25T12:31:43Z</time>
</trkpt>
<trkpt lat="44.8957282" lon="5.3695294">
<ele>1056.17</ele>
<time>2019-07-25T12:31:44Z</time>
</trkpt>
<trkpt lat="44.8957323" lon="5.3695174">
<ele>1056.12</ele>
<time>2019-07-25T12:31:45Z</time>
</trkpt>
<trkpt lat="44.8957488" lon="5.3694877">
<ele>1056.10</ele>
<time>2019-07-25T12:31:46Z</time>
</trkpt>
<trkpt lat="44.8957297" lon="5.3695086">
<ele>1056.01</ele>
<time>2019-07-25T12:31:47Z</time>
</trkpt>
<trkpt lat="44.8957293" lon="5.3695111">
<ele>1056.01</ele>
<time>2019-07-25T12:31:48Z</time>
</trkpt>
<trkpt lat="44.8957302" lon="5.3695097">
<ele>1055.88</ele>
<time>2019-07-25T12:31:49Z</time>
</trkpt>
<trkpt lat="44.8957289" lon="5.3694915">
<ele>1055.73</ele>
<time>2019-07-25T12:31:50Z</time>
</trkpt>
<trkpt lat="44.8957294" lon="5.3694908">
<ele>1055.73</ele>
<time>2019-07-25T12:31:51Z</time>
</trkpt>
<trkpt lat="44.8957283" lon="5.3694925">
<ele>1055.72</ele>
<time>2019-07-25T12:31:52Z</time>
</trkpt>
<trkpt lat="44.8957282" lon="5.3694926">
<ele>1055.72</ele>
<time>2019-07-25T12:31:53Z</time>
</trkpt>
<trkpt lat="44.8957274" lon="5.3694938">
<ele>1055.72</ele>
<time>2019-07-25T12:31:54Z</time>
</trkpt>
<trkpt lat="44.8957267" lon="5.3694947">
<ele>1055.72</ele>
<time>2019-07-25T12:31:55Z</time>
</trkpt>
<trkpt lat="44.8957246" lon="5.3694996">
<ele>1055.44</ele>
<time>2019-07-25T12:31:56Z</time>
</trkpt>
<trkpt lat="44.8957162" lon="5.3695234">
<ele>1055.19</ele>
<time>2019-07-25T12:31:57Z</time>
</trkpt>
<trkpt lat="44.8957047" lon="5.3695430">
<ele>1055.00</ele>
<time>2019-07-25T12:31:58Z</time>
</trkpt>
<trkpt lat="44.8957040" lon="5.3695445">
<ele>1055.00</ele>
<time>2019-07-25T12:31:59Z</time>
</trkpt>
<trkpt lat="44.8957053" lon="5.3695412">
<ele>1055.00</ele>
<time>2019-07-25T12:32:00Z</time>
</trkpt>
<trkpt lat="44.8957055" lon="5.3695399">
<ele>1055.00</ele>
<time>2019-07-25T12:32:01Z</time>
</trkpt>
<trkpt lat="44.8957054" lon="5.3695394">
<ele>1055.00</ele>
<time>2019-07-25T12:32:02Z</time>
</trkpt>
<trkpt lat="44.8957055" lon="5.3695390">
<ele>1054.99</ele>
<time>2019-07-25T12:32:03Z</time>
</trkpt>
<trkpt lat="44.8957054" lon="5.3695391">
<ele>1054.99</ele>
<time>2019-07-25T12:32:04Z</time>
</trkpt>
<trkpt lat="44.8957052" lon="5.3695395">
<ele>1054.99</ele>
<time>2019-07-25T12:32:05Z</time>
</trkpt>
<trkpt lat="44.8957048" lon="5.3695405">
<ele>1054.92</ele>
<time>2019-07-25T12:32:06Z</time>
</trkpt>
<trkpt lat="44.8957022" lon="5.3695307">
<ele>1054.87</ele>
<time>2019-07-25T12:32:07Z</time>
</trkpt>
<trkpt lat="44.8956988" lon="5.3695000">
<ele>1054.79</ele>
<time>2019-07-25T12:32:08Z</time>
</trkpt>
<trkpt lat="44.8957125" lon="5.3694753">
<ele>1054.71</ele>
<time>2019-07-25T12:32:09Z</time>
</trkpt>
<trkpt lat="44.8957214" lon="5.3694524">
<ele>1054.62</ele>
<time>2019-07-25T12:32:10Z</time>
</trkpt>
<trkpt lat="44.8957172" lon="5.3694515">
<ele>1054.58</ele>
<time>2019-07-25T12:32:11Z</time>
</trkpt>
<trkpt lat="44.8957196" lon="5.3694580">
<ele>1054.57</ele>
<time>2019-07-25T12:32:12Z</time>
</trkpt>
<trkpt lat="44.8957122" lon="5.3694904">
<ele>1054.54</ele>
<time>2019-07-25T12:32:13Z</time>
</trkpt>
<trkpt lat="44.8957134" lon="5.3694965">
<ele>1054.52</ele>
<time>2019-07-25T12:32:14Z</time>
</trkpt>
<trkpt lat="44.8957160" lon="5.3694868">
<ele>1054.55</ele>
<time>2019-07-25T12:32:15Z</time>
</trkpt>
<trkpt lat="44.8957166" lon="5.3694861">
<ele>1054.63</ele>
<time>2019-07-25T12:32:16Z</time>
</trkpt>
<trkpt lat="44.8957219" lon="5.3694885">
<ele>1054.77</ele>
<time>2019-07-25T12:32:17Z</time>
</trkpt>
<trkpt lat="44.8957238" lon="5.3694768">
<ele>1054.92</ele>
<time>2019-07-25T12:32:18Z</time>
</trkpt>
<trkpt lat="44.8957301" lon="5.3695052">
<ele>1054.92</ele>
<time>2019-07-25T12:32:19Z</time>
</trkpt>
<trkpt lat="44.8957346" lon="5.3695222">
<ele>1054.92</ele>
<time>2019-07-25T12:32:20Z</time>
</trkpt>
<trkpt lat="44.8957343" lon="5.3695219">
<ele>1054.93</ele>
<time>2019-07-25T12:32:21Z</time>
</trkpt>
<trkpt lat="44.8957337" lon="5.3695232">
<ele>1054.93</ele>
<time>2019-07-25T12:32:22Z</time>
</trkpt>
<trkpt lat="44.8957180" lon="5.3695282">
<ele>1054.95</ele>
<time>2019-07-25T12:32:23Z</time>
</trkpt>
<trkpt lat="44.8957251" lon="5.3694858">
<ele>1054.98</ele>
<time>2019-07-25T12:32:24Z</time>
</trkpt>
<trkpt lat="44.8957228" lon="5.3694857">
<ele>1054.98</ele>
<time>2019-07-25T12:32:25Z</time>
</trkpt>
<trkpt lat="44.8957202" lon="5.3694895">
<ele>1054.98</ele>
<time>2019-07-25T12:32:26Z</time>
</trkpt>
<trkpt lat="44.8957199" lon="5.3694904">
<ele>1054.99</ele>
<time>2019-07-25T12:32:27Z</time>
</trkpt>
<trkpt lat="44.8957200" lon="5.3694907">
<ele>1054.99</ele>
<time>2019-07-25T12:32:28Z</time>
</trkpt>
<trkpt lat="44.8957198" lon="5.3694911">
<ele>1054.99</ele>
<time>2019-07-25T12:32:29Z</time>
</trkpt>
<trkpt lat="44.8957193" lon="5.3694909">
<ele>1054.99</ele>
<time>2019-07-25T12:32:30Z</time>
</trkpt>
<trkpt lat="44.8957190" lon="5.3694917">
<ele>1055.00</ele>
<time>2019-07-25T12:32:31Z</time>
</trkpt>
<trkpt lat="44.8957191" lon="5.3694918">
<ele>1055.00</ele>
<time>2019-07-25T12:32:32Z</time>
</trkpt>
<trkpt lat="44.8957192" lon="5.3694924">
<ele>1055.00</ele>
<time>2019-07-25T12:32:33Z</time>
</trkpt>
<trkpt lat="44.8957202" lon="5.3694913">
<ele>1055.00</ele>
<time>2019-07-25T12:32:34Z</time>
</trkpt>
<trkpt lat="44.8957216" lon="5.3694896">
<ele>1055.28</ele>
<time>2019-07-25T12:32:35Z</time>
</trkpt>
<trkpt lat="44.8957225" lon="5.3694884">
<ele>1055.28</ele>
<time>2019-07-25T12:32:36Z</time>
</trkpt>
<trkpt lat="44.8957240" lon="5.3694847">
<ele>1055.28</ele>
<time>2019-07-25T12:32:37Z</time>
</trkpt>
<trkpt lat="44.8957238" lon="5.3694842">
<ele>1055.28</ele>
<time>2019-07-25T12:32:38Z</time>
</trkpt>
<trkpt lat="44.8957250" lon="5.3694801">
<ele>1055.28</ele>
<time>2019-07-25T12:32:39Z</time>
</trkpt>
<trkpt lat="44.8957252" lon="5.3694779">
<ele>1055.29</ele>
<time>2019-07-25T12:32:40Z</time>
</trkpt>
<trkpt lat="44.8957253" lon="5.3694768">
<ele>1055.29</ele>
<time>2019-07-25T12:32:41Z</time>
</trkpt>
<trkpt lat="44.8957260" lon="5.3694751">
<ele>1055.29</ele>
<time>2019-07-25T12:32:42Z</time>
</trkpt>
<trkpt lat="44.8957261" lon="5.3694752">
<ele>1055.29</ele>
<time>2019-07-25T12:32:43Z</time>
</trkpt>
<trkpt lat="44.8957256" lon="5.3694768">
<ele>1055.29</ele>
<time>2019-07-25T12:32:44Z</time>
</trkpt>
<trkpt lat="44.8957256" lon="5.3694768">
<ele>1055.29</ele>
<time>2019-07-25T12:32:45Z</time>
</trkpt>
<trkpt lat="44.8957261" lon="5.3694755">
<ele>1055.29</ele>
<time>2019-07-25T12:32:46Z</time>
</trkpt>
<trkpt lat="44.8957268" lon="5.3694736">
<ele>1055.29</ele>
<time>2019-07-25T12:32:47Z</time>
</trkpt>
<trkpt lat="44.8957268" lon="5.3694739">
<ele>1055.29</ele>
<time>2019-07-25T12:32:48Z</time>
</trkpt>
<trkpt lat="44.8957253" lon="5.3694774">
<ele>1055.29</ele>
<time>2019-07-25T12:32:49Z</time>
</trkpt>
<trkpt lat="44.8957253" lon="5.3694783">
<ele>1055.29</ele>
<time>2019-07-25T12:32:50Z</time>
</trkpt>
<trkpt lat="44.8957251" lon="5.3694787">
<ele>1055.30</ele>
<time>2019-07-25T12:32:51Z</time>
</trkpt>
<trkpt lat="44.8957249" lon="5.3694792">
<ele>1055.30</ele>
<time>2019-07-25T12:32:52Z</time>
</trkpt>
<trkpt lat="44.8957249" lon="5.3694791">
<ele>1055.30</ele>
<time>2019-07-25T12:32:53Z</time>
</trkpt>
<trkpt lat="44.8957249" lon="5.3694795">
<ele>1055.30</ele>
<time>2019-07-25T12:32:54Z</time>
</trkpt>
<trkpt lat="44.8957253" lon="5.3694788">
<ele>1055.30</ele>
<time>2019-07-25T12:32:55Z</time>
</trkpt>
<trkpt lat="44.8957253" lon="5.3694786">
<ele>1055.30</ele>
<time>2019-07-25T12:32:56Z</time>
</trkpt>
<trkpt lat="44.8957254" lon="5.3694788">
<ele>1055.30</ele>
<time>2019-07-25T12:32:57Z</time>
</trkpt>
<trkpt lat="44.8957255" lon="5.3694785">
<ele>1055.30</ele>
<time>2019-07-25T12:32:58Z</time>
</trkpt>
<trkpt lat="44.8957254" lon="5.3694787">
<ele>1055.27</ele>
<time>2019-07-25T12:32:59Z</time>
</trkpt>
<trkpt lat="44.8957250" lon="5.3694792">
<ele>1055.18</ele>
<time>2019-07-25T12:33:00Z</time>
</trkpt>
<trkpt lat="44.8957239" lon="5.3694820">
<ele>1055.18</ele>
<time>2019-07-25T12:33:01Z</time>
</trkpt>
<trkpt lat="44.8957221" lon="5.3694839">
<ele>1055.18</ele>
<time>2019-07-25T12:33:02Z</time>
</trkpt>
<trkpt lat="44.8957220" lon="5.3694840">
<ele>1055.18</ele>
<time>2019-07-25T12:33:03Z</time>
</trkpt>
<trkpt lat="44.8957213" lon="5.3694847">
<ele>1055.18</ele>
<time>2019-07-25T12:33:04Z</time>
</trkpt>
<trkpt lat="44.8957213" lon="5.3694847">
<ele>1055.17</ele>
<time>2019-07-25T12:33:05Z</time>
</trkpt>
<trkpt lat="44.8957221" lon="5.3694843">
<ele>1055.17</ele>
<time>2019-07-25T12:33:06Z</time>
</trkpt>
<trkpt lat="44.8957219" lon="5.3694848">
<ele>1055.17</ele>
<time>2019-07-25T12:33:07Z</time>
</trkpt>
<trkpt lat="44.8957208" lon="5.3694848">
<ele>1055.16</ele>
<time>2019-07-25T12:33:08Z</time>
</trkpt>
<trkpt lat="44.8957164" lon="5.3694854">
<ele>1055.16</ele>
<time>2019-07-25T12:33:09Z</time>
</trkpt>
<trkpt lat="44.8957163" lon="5.3694853">
<ele>1055.16</ele>
<time>2019-07-25T12:33:10Z</time>
</trkpt>
<trkpt lat="44.8957162" lon="5.3694854">
<ele>1054.92</ele>
<time>2019-07-25T12:33:11Z</time>
</trkpt>
<trkpt lat="44.8957166" lon="5.3694853">
<ele>1054.74</ele>
<time>2019-07-25T12:33:12Z</time>
</trkpt>
<trkpt lat="44.8957162" lon="5.3694850">
<ele>1054.74</ele>
<time>2019-07-25T12:33:13Z</time>
</trkpt>
<trkpt lat="44.8957158" lon="5.3694849">
<ele>1054.73</ele>
<time>2019-07-25T12:33:14Z</time>
</trkpt>
<trkpt lat="44.8957041" lon="5.3694799">
<ele>1054.72</ele>
<time>2019-07-25T12:33:15Z</time>
</trkpt>
<trkpt lat="44.8957124" lon="5.3694254">
<ele>1054.57</ele>
<time>2019-07-25T12:33:16Z</time>
</trkpt>
<trkpt lat="44.8957129" lon="5.3694232">
<ele>1054.57</ele>
<time>2019-07-25T12:33:17Z</time>
</trkpt>
<trkpt lat="44.8957127" lon="5.3694441">
<ele>1054.57</ele>
<time>2019-07-25T12:33:18Z</time>
</trkpt>
<trkpt lat="44.8956959" lon="5.3694346">
<ele>1054.57</ele>
<time>2019-07-25T12:33:19Z</time>
</trkpt>
<trkpt lat="44.8956969" lon="5.3694347">
<ele>1054.56</ele>
<time>2019-07-25T12:33:20Z</time>
</trkpt>
<trkpt lat="44.8956968" lon="5.3694347">
<ele>1054.56</ele>
<time>2019-07-25T12:33:21Z</time>
</trkpt>
<trkpt lat="44.8956984" lon="5.3694359">
<ele>1054.56</ele>
<time>2019-07-25T12:33:22Z</time>
</trkpt>
<trkpt lat="44.8956985" lon="5.3694361">
<ele>1054.56</ele>
<time>2019-07-25T12:33:23Z</time>
</trkpt>
<trkpt lat="44.8956991" lon="5.3694366">
<ele>1054.56</ele>
<time>2019-07-25T12:33:24Z</time>
</trkpt>
<trkpt lat="44.8956999" lon="5.3694375">
<ele>1054.55</ele>
<time>2019-07-25T12:33:25Z</time>
</trkpt>
<trkpt lat="44.8956989" lon="5.3694408">
<ele>1054.55</ele>
<time>2019-07-25T12:33:26Z</time>
</trkpt>
<trkpt lat="44.8956991" lon="5.3694407">
<ele>1054.55</ele>
<time>2019-07-25T12:33:27Z</time>
</trkpt>
<trkpt lat="44.8956994" lon="5.3694404">
<ele>1054.55</ele>
<time>2019-07-25T12:33:28Z</time>
</trkpt>
<trkpt lat="44.8956994" lon="5.3694405">
<ele>1054.54</ele>
<time>2019-07-25T12:33:29Z</time>
</trkpt>
<trkpt lat="44.8956995" lon="5.3694402">
<ele>1054.54</ele>
<time>2019-07-25T12:33:30Z</time>
</trkpt>
<trkpt lat="44.8957025" lon="5.3694370">
<ele>1054.54</ele>
<time>2019-07-25T12:33:31Z</time>
</trkpt>
<trkpt lat="44.8957045" lon="5.3694342">
<ele>1054.53</ele>
<time>2019-07-25T12:33:32Z</time>
</trkpt>
<trkpt lat="44.8957077" lon="5.3694303">
<ele>1054.52</ele>
<time>2019-07-25T12:33:33Z</time>
</trkpt>
<trkpt lat="44.8957098" lon="5.3694243">
<ele>1054.52</ele>
<time>2019-07-25T12:33:34Z</time>
</trkpt>
<trkpt lat="44.8957096" lon="5.3694248">
<ele>1054.51</ele>
<time>2019-07-25T12:33:35Z</time>
</trkpt>
<trkpt lat="44.8957091" lon="5.3694265">
<ele>1053.65</ele>
<time>2019-07-25T12:33:36Z</time>
</trkpt>
<trkpt lat="44.8957088" lon="5.3694260">
<ele>1053.64</ele>
<time>2019-07-25T12:33:37Z</time>
</trkpt>
<trkpt lat="44.8957085" lon="5.3694264">
<ele>1053.63</ele>
<time>2019-07-25T12:33:38Z</time>
</trkpt>
<trkpt lat="44.8957084" lon="5.3694263">
<ele>1053.62</ele>
<time>2019-07-25T12:33:39Z</time>
</trkpt>
<trkpt lat="44.8957082" lon="5.3694265">
<ele>1053.61</ele>
<time>2019-07-25T12:33:40Z</time>
</trkpt>
<trkpt lat="44.8956938" lon="5.3694595">
<ele>1053.50</ele>
<time>2019-07-25T12:33:41Z</time>
</trkpt>
<trkpt lat="44.8956819" lon="5.3694689">
<ele>1053.38</ele>
<time>2019-07-25T12:33:42Z</time>
</trkpt>
<trkpt lat="44.8956887" lon="5.3694797">
<ele>1053.37</ele>
<time>2019-07-25T12:33:43Z</time>
</trkpt>
<trkpt lat="44.8956923" lon="5.3694870">
<ele>1052.05</ele>
<time>2019-07-25T12:33:44Z</time>
</trkpt>
<trkpt lat="44.8956875" lon="5.3694905">
<ele>1052.04</ele>
<time>2019-07-25T12:33:45Z</time>
</trkpt>
<trkpt lat="44.8956853" lon="5.3694929">
<ele>1052.03</ele>
<time>2019-07-25T12:33:46Z</time>
</trkpt>
<trkpt lat="44.8956829" lon="5.3694943">
<ele>1052.02</ele>
<time>2019-07-25T12:33:47Z</time>
</trkpt>
<trkpt lat="44.8956829" lon="5.3694946">
<ele>1052.00</ele>
<time>2019-07-25T12:33:48Z</time>
</trkpt>
<trkpt lat="44.8956818" lon="5.3694947">
<ele>1051.99</ele>
<time>2019-07-25T12:33:49Z</time>
</trkpt>
<trkpt lat="44.8956797" lon="5.3694951">
<ele>1051.97</ele>
<time>2019-07-25T12:33:50Z</time>
</trkpt>
<trkpt lat="44.8956790" lon="5.3694949">
<ele>1051.95</ele>
<time>2019-07-25T12:33:51Z</time>
</trkpt>
<trkpt lat="44.8956773" lon="5.3694949">
<ele>1051.94</ele>
<time>2019-07-25T12:33:52Z</time>
</trkpt>
<trkpt lat="44.8956773" lon="5.3694950">
<ele>1051.92</ele>
<time>2019-07-25T12:33:53Z</time>
</trkpt>
<trkpt lat="44.8956774" lon="5.3694951">
<ele>1050.38</ele>
<time>2019-07-25T12:33:54Z</time>
</trkpt>
<trkpt lat="44.8956861" lon="5.3695072">
<ele>1049.17</ele>
<time>2019-07-25T12:33:55Z</time>
</trkpt>
<trkpt lat="44.8956830" lon="5.3695018">
<ele>1048.30</ele>
<time>2019-07-25T12:33:56Z</time>
</trkpt>
<trkpt lat="44.8956819" lon="5.3695075">
<ele>1048.23</ele>
<time>2019-07-25T12:33:57Z</time>
</trkpt>
<trkpt lat="44.8956802" lon="5.3695012">
<ele>1048.23</ele>
<time>2019-07-25T12:33:58Z</time>
</trkpt>
<trkpt lat="44.8956803" lon="5.3695022">
<ele>1048.22</ele>
<time>2019-07-25T12:33:59Z</time>
</trkpt>
<trkpt lat="44.8956805" lon="5.3695030">
<ele>1048.22</ele>
<time>2019-07-25T12:34:00Z</time>
</trkpt>
<trkpt lat="44.8956806" lon="5.3695031">
<ele>1048.21</ele>
<time>2019-07-25T12:34:01Z</time>
</trkpt>
<trkpt lat="44.8956806" lon="5.3695036">
<ele>1048.21</ele>
<time>2019-07-25T12:34:02Z</time>
</trkpt>
<trkpt lat="44.8956809" lon="5.3695054">
<ele>1048.20</ele>
<time>2019-07-25T12:34:03Z</time>
</trkpt>
<trkpt lat="44.8956812" lon="5.3695061">
<ele>1048.20</ele>
<time>2019-07-25T12:34:04Z</time>
</trkpt>
<trkpt lat="44.8956813" lon="5.3695062">
<ele>1048.20</ele>
<time>2019-07-25T12:34:05Z</time>
</trkpt>
<trkpt lat="44.8956825" lon="5.3695075">
<ele>1048.19</ele>
<time>2019-07-25T12:34:06Z</time>
</trkpt>
<trkpt lat="44.8956829" lon="5.3695071">
<ele>1048.19</ele>
<time>2019-07-25T12:34:07Z</time>
</trkpt>
<trkpt lat="44.8956827" lon="5.3695070">
<ele>1048.19</ele>
<time>2019-07-25T12:34:08Z</time>
</trkpt>
<trkpt lat="44.8956828" lon="5.3695073">
<ele>1048.19</ele>
<time>2019-07-25T12:34:09Z</time>
</trkpt>
<trkpt lat="44.8956827" lon="5.3695072">
<ele>1048.19</ele>
<time>2019-07-25T12:34:10Z</time>
</trkpt>
<trkpt lat="44.8956827" lon="5.3695076">
<ele>1048.23</ele>
<time>2019-07-25T12:34:11Z</time>
</trkpt>
<trkpt lat="44.8956827" lon="5.3695066">
<ele>1048.23</ele>
<time>2019-07-25T12:34:12Z</time>
</trkpt>
<trkpt lat="44.8956827" lon="5.3695067">
<ele>1048.23</ele>
<time>2019-07-25T12:34:13Z</time>
</trkpt>
<trkpt lat="44.8956819" lon="5.3695025">
<ele>1048.23</ele>
<time>2019-07-25T12:34:14Z</time>
</trkpt>
<trkpt lat="44.8956818" lon="5.3695026">
<ele>1048.23</ele>
<time>2019-07-25T12:34:15Z</time>
</trkpt>
<trkpt lat="44.8956818" lon="5.3695037">
<ele>1048.24</ele>
<time>2019-07-25T12:34:16Z</time>
</trkpt>
<trkpt lat="44.8956819" lon="5.3695039">
<ele>1048.24</ele>
<time>2019-07-25T12:34:17Z</time>
</trkpt>
<trkpt lat="44.8956820" lon="5.3695039">
<ele>1048.35</ele>
<time>2019-07-25T12:34:18Z</time>
</trkpt>
<trkpt lat="44.8956798" lon="5.3694910">
<ele>1048.42</ele>
<time>2019-07-25T12:34:19Z</time>
</trkpt>
<trkpt lat="44.8956804" lon="5.3694962">
<ele>1048.47</ele>
<time>2019-07-25T12:34:20Z</time>
</trkpt>
<trkpt lat="44.8956789" lon="5.3694793">
<ele>1048.51</ele>
<time>2019-07-25T12:34:21Z</time>
</trkpt>
<trkpt lat="44.8956781" lon="5.3694786">
<ele>1048.54</ele>
<time>2019-07-25T12:34:22Z</time>
</trkpt>
<trkpt lat="44.8956782" lon="5.3694799">
<ele>1048.55</ele>
<time>2019-07-25T12:34:23Z</time>
</trkpt>
<trkpt lat="44.8956781" lon="5.3695010">
<ele>1048.55</ele>
<time>2019-07-25T12:34:24Z</time>
</trkpt>
<trkpt lat="44.8956783" lon="5.3695012">
<ele>1048.55</ele>
<time>2019-07-25T12:34:25Z</time>
</trkpt>
<trkpt lat="44.8956788" lon="5.3695013">
<ele>1048.55</ele>
<time>2019-07-25T12:34:26Z</time>
</trkpt>
<trkpt lat="44.8956789" lon="5.3695015">
<ele>1048.55</ele>
<time>2019-07-25T12:34:27Z</time>
</trkpt>
<trkpt lat="44.8956773" lon="5.3695017">
<ele>1048.55</ele>
<time>2019-07-25T12:34:28Z</time>
</trkpt>
<trkpt lat="44.8956759" lon="5.3695019">
<ele>1048.55</ele>
<time>2019-07-25T12:34:29Z</time>
</trkpt>
<trkpt lat="44.8956762" lon="5.3695017">
<ele>1048.55</ele>
<time>2019-07-25T12:34:30Z</time>
</trkpt>
<trkpt lat="44.8956771" lon="5.3695016">
<ele>1048.55</ele>
<time>2019-07-25T12:34:31Z</time>
</trkpt>
<trkpt lat="44.8956784" lon="5.3695002">
<ele>1048.55</ele>
<time>2019-07-25T12:34:32Z</time>
</trkpt>
<trkpt lat="44.8956838" lon="5.3695128">
<ele>1048.55</ele>
<time>2019-07-25T12:34:33Z</time>
</trkpt>
<trkpt lat="44.8956782" lon="5.3694910">
<ele>1048.55</ele>
<time>2019-07-25T12:34:34Z</time>
</trkpt>
<trkpt lat="44.8956876" lon="5.3694869">
<ele>1048.55</ele>
<time>2019-07-25T12:34:35Z</time>
</trkpt>
<trkpt lat="44.8956944" lon="5.3694620">
<ele>1048.55</ele>
<time>2019-07-25T12:34:36Z</time>
</trkpt>
<trkpt lat="44.8956961" lon="5.3694610">
<ele>1048.55</ele>
<time>2019-07-25T12:34:37Z</time>
</trkpt>
<trkpt lat="44.8956958" lon="5.3694612">
<ele>1048.55</ele>
<time>2019-07-25T12:34:38Z</time>
</trkpt>
<trkpt lat="44.8956944" lon="5.3694650">
<ele>1048.56</ele>
<time>2019-07-25T12:34:39Z</time>
</trkpt>
<trkpt lat="44.8956944" lon="5.3694668">
<ele>1048.56</ele>
<time>2019-07-25T12:34:40Z</time>
</trkpt>
<trkpt lat="44.8956945" lon="5.3694668">
<ele>1048.56</ele>
<time>2019-07-25T12:34:41Z</time>
</trkpt>
<trkpt lat="44.8956942" lon="5.3694683">
<ele>1048.57</ele>
<time>2019-07-25T12:34:42Z</time>
</trkpt>
<trkpt lat="44.8956942" lon="5.3694695">
<ele>1048.58</ele>
<time>2019-07-25T12:34:43Z</time>
</trkpt>
<trkpt lat="44.8956945" lon="5.3694698">
<ele>1048.59</ele>
<time>2019-07-25T12:34:44Z</time>
</trkpt>
<trkpt lat="44.8956945" lon="5.3694701">
<ele>1048.60</ele>
<time>2019-07-25T12:34:45Z</time>
</trkpt>
<trkpt lat="44.8956946" lon="5.3694704">
<ele>1048.61</ele>
<time>2019-07-25T12:34:46Z</time>
</trkpt>
<trkpt lat="44.8956945" lon="5.3694713">
<ele>1049.58</ele>
<time>2019-07-25T12:34:47Z</time>
</trkpt>
<trkpt lat="44.8956943" lon="5.3694758">
<ele>1050.41</ele>
<time>2019-07-25T12:34:48Z</time>
</trkpt>
<trkpt lat="44.8956942" lon="5.3694768">
<ele>1050.42</ele>
<time>2019-07-25T12:34:49Z</time>
</trkpt>
<trkpt lat="44.8956943" lon="5.3694775">
<ele>1050.42</ele>
<time>2019-07-25T12:34:50Z</time>
</trkpt>
<trkpt lat="44.8956943" lon="5.3694776">
<ele>1051.16</ele>
<time>2019-07-25T12:34:51Z</time>
</trkpt>
<trkpt lat="44.8956944" lon="5.3694773">
<ele>1051.77</ele>
<time>2019-07-25T12:34:52Z</time>
</trkpt>
<trkpt lat="44.8956941" lon="5.3694759">
<ele>1051.78</ele>
<time>2019-07-25T12:34:53Z</time>
</trkpt>
<trkpt lat="44.8956943" lon="5.3694760">
<ele>1051.79</ele>
<time>2019-07-25T12:34:54Z</time>
</trkpt>
<trkpt lat="44.8956941" lon="5.3694761">
<ele>1051.79</ele>
<time>2019-07-25T12:34:55Z</time>
</trkpt>
<trkpt lat="44.8956942" lon="5.3694763">
<ele>1052.25</ele>
<time>2019-07-25T12:34:56Z</time>
</trkpt>
<trkpt lat="44.8956971" lon="5.3695018">
<ele>1052.62</ele>
<time>2019-07-25T12:34:57Z</time>
</trkpt>
<trkpt lat="44.8956979" lon="5.3695003">
<ele>1052.93</ele>
<time>2019-07-25T12:34:58Z</time>
</trkpt>
<trkpt lat="44.8956988" lon="5.3694988">
<ele>1053.21</ele>
<time>2019-07-25T12:34:59Z</time>
</trkpt>
<trkpt lat="44.8957003" lon="5.3694930">
<ele>1053.41</ele>
<time>2019-07-25T12:35:00Z</time>
</trkpt>
<trkpt lat="44.8957019" lon="5.3694844">
<ele>1053.52</ele>
<time>2019-07-25T12:35:01Z</time>
</trkpt>
<trkpt lat="44.8957026" lon="5.3694811">
<ele>1053.61</ele>
<time>2019-07-25T12:35:02Z</time>
</trkpt>
<trkpt lat="44.8957045" lon="5.3694765">
<ele>1053.69</ele>
<time>2019-07-25T12:35:03Z</time>
</trkpt>
<trkpt lat="44.8957047" lon="5.3694508">
<ele>1053.72</ele>
<time>2019-07-25T12:35:04Z</time>
</trkpt>
<trkpt lat="44.8957002" lon="5.3694737">
<ele>1053.74</ele>
<time>2019-07-25T12:35:05Z</time>
</trkpt>
<trkpt lat="44.8956929" lon="5.3694908">
<ele>1053.73</ele>
<time>2019-07-25T12:35:06Z</time>
</trkpt>
<trkpt lat="44.8956836" lon="5.3694918">
<ele>1053.73</ele>
<time>2019-07-25T12:35:07Z</time>
</trkpt>
<trkpt lat="44.8956700" lon="5.3694981">
<ele>1053.73</ele>
<time>2019-07-25T12:35:08Z</time>
</trkpt>
<trkpt lat="44.8956677" lon="5.3694964">
<ele>1053.72</ele>
<time>2019-07-25T12:35:09Z</time>
</trkpt>
<trkpt lat="44.8956693" lon="5.3694926">
<ele>1053.72</ele>
<time>2019-07-25T12:35:10Z</time>
</trkpt>
<trkpt lat="44.8956711" lon="5.3694898">
<ele>1053.72</ele>
<time>2019-07-25T12:35:11Z</time>
</trkpt>
<trkpt lat="44.8956714" lon="5.3694897">
<ele>1053.72</ele>
<time>2019-07-25T12:35:12Z</time>
</trkpt>
<trkpt lat="44.8956715" lon="5.3694895">
<ele>1053.72</ele>
<time>2019-07-25T12:35:13Z</time>
</trkpt>
<trkpt lat="44.8956718" lon="5.3694892">
<ele>1053.73</ele>
<time>2019-07-25T12:35:14Z</time>
</trkpt>
<trkpt lat="44.8956730" lon="5.3694870">
<ele>1053.73</ele>
<time>2019-07-25T12:35:15Z</time>
</trkpt>
<trkpt lat="44.8956729" lon="5.3694867">
<ele>1053.73</ele>
<time>2019-07-25T12:35:16Z</time>
</trkpt>
<trkpt lat="44.8956730" lon="5.3694864">
<ele>1053.73</ele>
<time>2019-07-25T12:35:17Z</time>
</trkpt>
<trkpt lat="44.8956724" lon="5.3694871">
<ele>1053.73</ele>
<time>2019-07-25T12:35:18Z</time>
</trkpt>
<trkpt lat="44.8956722" lon="5.3694876">
<ele>1053.73</ele>
<time>2019-07-25T12:35:19Z</time>
</trkpt>
<trkpt lat="44.8956715" lon="5.3694888">
<ele>1053.74</ele>
<time>2019-07-25T12:35:20Z</time>
</trkpt>
<trkpt lat="44.8956694" lon="5.3694919">
<ele>1053.74</ele>
<time>2019-07-25T12:35:21Z</time>
</trkpt>
<trkpt lat="44.8956696" lon="5.3694922">
<ele>1053.74</ele>
<time>2019-07-25T12:35:22Z</time>
</trkpt>
<trkpt lat="44.8956669" lon="5.3694991">
<ele>1053.75</ele>
<time>2019-07-25T12:35:23Z</time>
</trkpt>
<trkpt lat="44.8956655" lon="5.3695036">
<ele>1053.75</ele>
<time>2019-07-25T12:35:24Z</time>
</trkpt>
<trkpt lat="44.8956645" lon="5.3695075">
<ele>1053.75</ele>
<time>2019-07-25T12:35:25Z</time>
</trkpt>
<trkpt lat="44.8956641" lon="5.3695090">
<ele>1054.10</ele>
<time>2019-07-25T12:35:26Z</time>
</trkpt>
<trkpt lat="44.8956641" lon="5.3695094">
<ele>1054.35</ele>
<time>2019-07-25T12:35:27Z</time>
</trkpt>
<trkpt lat="44.8956648" lon="5.3695093">
<ele>1054.63</ele>
<time>2019-07-25T12:35:28Z</time>
</trkpt>
<trkpt lat="44.8956651" lon="5.3695086">
<ele>1054.88</ele>
<time>2019-07-25T12:35:29Z</time>
</trkpt>
<trkpt lat="44.8956654" lon="5.3695083">
<ele>1055.10</ele>
<time>2019-07-25T12:35:30Z</time>
</trkpt>
<trkpt lat="44.8956660" lon="5.3695052">
<ele>1055.25</ele>
<time>2019-07-25T12:35:31Z</time>
</trkpt>
<trkpt lat="44.8956670" lon="5.3695007">
<ele>1055.36</ele>
<time>2019-07-25T12:35:32Z</time>
</trkpt>
<trkpt lat="44.8956671" lon="5.3695006">
<ele>1055.44</ele>
<time>2019-07-25T12:35:33Z</time>
</trkpt>
<trkpt lat="44.8956670" lon="5.3695012">
<ele>1055.48</ele>
<time>2019-07-25T12:35:34Z</time>
</trkpt>
<trkpt lat="44.8956670" lon="5.3695025">
<ele>1055.50</ele>
<time>2019-07-25T12:35:35Z</time>
</trkpt>
<trkpt lat="44.8956665" lon="5.3695056">
<ele>1055.52</ele>
<time>2019-07-25T12:35:36Z</time>
</trkpt>
<trkpt lat="44.8956668" lon="5.3695057">
<ele>1055.60</ele>
<time>2019-07-25T12:35:37Z</time>
</trkpt>
<trkpt lat="44.8956677" lon="5.3695021">
<ele>1055.64</ele>
<time>2019-07-25T12:35:38Z</time>
</trkpt>
<trkpt lat="44.8956694" lon="5.3694951">
<ele>1055.68</ele>
<time>2019-07-25T12:35:39Z</time>
</trkpt>
<trkpt lat="44.8956713" lon="5.3694879">
<ele>1055.69</ele>
<time>2019-07-25T12:35:40Z</time>
</trkpt>
<trkpt lat="44.8956716" lon="5.3694867">
<ele>1055.69</ele>
<time>2019-07-25T12:35:41Z</time>
</trkpt>
<trkpt lat="44.8956727" lon="5.3694818">
<ele>1055.64</ele>
<time>2019-07-25T12:35:42Z</time>
</trkpt>
<trkpt lat="44.8956728" lon="5.3694825">
<ele>1055.64</ele>
<time>2019-07-25T12:35:43Z</time>
</trkpt>
<trkpt lat="44.8956724" lon="5.3694853">
<ele>1055.66</ele>
<time>2019-07-25T12:35:44Z</time>
</trkpt>
<trkpt lat="44.8956710" lon="5.3694975">
<ele>1055.66</ele>
<time>2019-07-25T12:35:45Z</time>
</trkpt>
<trkpt lat="44.8956710" lon="5.3694990">
<ele>1055.66</ele>
<time>2019-07-25T12:35:46Z</time>
</trkpt>
<trkpt lat="44.8956712" lon="5.3694994">
<ele>1055.66</ele>
<time>2019-07-25T12:35:47Z</time>
</trkpt>
<trkpt lat="44.8956714" lon="5.3694996">
<ele>1055.66</ele>
<time>2019-07-25T12:35:48Z</time>
</trkpt>
<trkpt lat="44.8956716" lon="5.3695003">
<ele>1055.66</ele>
<time>2019-07-25T12:35:49Z</time>
</trkpt>
<trkpt lat="44.8956718" lon="5.3695008">
<ele>1055.66</ele>
<time>2019-07-25T12:35:50Z</time>
</trkpt>
<trkpt lat="44.8956716" lon="5.3695001">
<ele>1055.66</ele>
<time>2019-07-25T12:35:51Z</time>
</trkpt>
<trkpt lat="44.8956714" lon="5.3695005">
<ele>1055.66</ele>
<time>2019-07-25T12:35:52Z</time>
</trkpt>
<trkpt lat="44.8956710" lon="5.3695013">
<ele>1055.67</ele>
<time>2019-07-25T12:35:53Z</time>
</trkpt>
<trkpt lat="44.8956711" lon="5.3695013">
<ele>1055.67</ele>
<time>2019-07-25T12:35:54Z</time>
</trkpt>
<trkpt lat="44.8956711" lon="5.3695019">
<ele>1055.67</ele>
<time>2019-07-25T12:35:55Z</time>
</trkpt>
<trkpt lat="44.8956705" lon="5.3695030">
<ele>1055.67</ele>
<time>2019-07-25T12:35:56Z</time>
</trkpt>
<trkpt lat="44.8956708" lon="5.3695031">
<ele>1055.67</ele>
<time>2019-07-25T12:35:57Z</time>
</trkpt>
<trkpt lat="44.8956707" lon="5.3695036">
<ele>1055.68</ele>
<time>2019-07-25T12:35:58Z</time>
</trkpt>
<trkpt lat="44.8956709" lon="5.3695034">
<ele>1055.68</ele>
<time>2019-07-25T12:35:59Z</time>
</trkpt>
<trkpt lat="44.8956706" lon="5.3695042">
<ele>1055.68</ele>
<time>2019-07-25T12:36:00Z</time>
</trkpt>
<trkpt lat="44.8956707" lon="5.3695045">
<ele>1055.68</ele>
<time>2019-07-25T12:36:01Z</time>
</trkpt>
<trkpt lat="44.8956703" lon="5.3695063">
<ele>1055.69</ele>
<time>2019-07-25T12:36:02Z</time>
</trkpt>
<trkpt lat="44.8956705" lon="5.3695062">
<ele>1055.69</ele>
<time>2019-07-25T12:36:03Z</time>
</trkpt>
<trkpt lat="44.8956704" lon="5.3695068">
<ele>1055.69</ele>
<time>2019-07-25T12:36:04Z</time>
</trkpt>
<trkpt lat="44.8956707" lon="5.3695061">
<ele>1055.69</ele>
<time>2019-07-25T12:36:05Z</time>
</trkpt>
<trkpt lat="44.8956699" lon="5.3695078">
<ele>1055.69</ele>
<time>2019-07-25T12:36:06Z</time>
</trkpt>
<trkpt lat="44.8956699" lon="5.3695079">
<ele>1055.70</ele>
<time>2019-07-25T12:36:07Z</time>
</trkpt>
<trkpt lat="44.8956701" lon="5.3695077">
<ele>1055.70</ele>
<time>2019-07-25T12:36:08Z</time>
</trkpt>
<trkpt lat="44.8956703" lon="5.3695073">
<ele>1055.70</ele>
<time>2019-07-25T12:36:09Z</time>
</trkpt>
<trkpt lat="44.8956705" lon="5.3695069">
<ele>1055.70</ele>
<time>2019-07-25T12:36:10Z</time>
</trkpt>
<trkpt lat="44.8956709" lon="5.3695059">
<ele>1055.89</ele>
<time>2019-07-25T12:36:11Z</time>
</trkpt>
<trkpt lat="44.8956719" lon="5.3695038">
<ele>1055.89</ele>
<time>2019-07-25T12:36:12Z</time>
</trkpt>
<trkpt lat="44.8956720" lon="5.3695036">
<ele>1055.90</ele>
<time>2019-07-25T12:36:13Z</time>
</trkpt>
<trkpt lat="44.8956721" lon="5.3695035">
<ele>1055.90</ele>
<time>2019-07-25T12:36:14Z</time>
</trkpt>
<trkpt lat="44.8956719" lon="5.3695039">
<ele>1055.90</ele>
<time>2019-07-25T12:36:15Z</time>
</trkpt>
<trkpt lat="44.8956713" lon="5.3695049">
<ele>1055.90</ele>
<time>2019-07-25T12:36:16Z</time>
</trkpt>
<trkpt lat="44.8956714" lon="5.3695049">
<ele>1055.90</ele>
<time>2019-07-25T12:36:17Z</time>
</trkpt>
<trkpt lat="44.8956705" lon="5.3695064">
<ele>1055.90</ele>
<time>2019-07-25T12:36:18Z</time>
</trkpt>
<trkpt lat="44.8956698" lon="5.3695075">
<ele>1055.90</ele>
<time>2019-07-25T12:36:19Z</time>
</trkpt>
<trkpt lat="44.8956696" lon="5.3695080">
<ele>1056.05</ele>
<time>2019-07-25T12:36:20Z</time>
</trkpt>
<trkpt lat="44.8956695" lon="5.3695084">
<ele>1056.05</ele>
<time>2019-07-25T12:36:21Z</time>
</trkpt>
<trkpt lat="44.8956690" lon="5.3695095">
<ele>1056.05</ele>
<time>2019-07-25T12:36:22Z</time>
</trkpt>
<trkpt lat="44.8956677" lon="5.3695118">
<ele>1056.05</ele>
<time>2019-07-25T12:36:23Z</time>
</trkpt>
<trkpt lat="44.8956667" lon="5.3695137">
<ele>1056.05</ele>
<time>2019-07-25T12:36:24Z</time>
</trkpt>
<trkpt lat="44.8956669" lon="5.3695136">
<ele>1056.05</ele>
<time>2019-07-25T12:36:25Z</time>
</trkpt>
<trkpt lat="44.8956641" lon="5.3695243">
<ele>1056.08</ele>
<time>2019-07-25T12:36:26Z</time>
</trkpt>
<trkpt lat="44.8956665" lon="5.3695219">
<ele>1056.08</ele>
<time>2019-07-25T12:36:27Z</time>
</trkpt>
<trkpt lat="44.8956667" lon="5.3695227">
<ele>1056.08</ele>
<time>2019-07-25T12:36:28Z</time>
</trkpt>
<trkpt lat="44.8956764" lon="5.3695204">
<ele>1056.11</ele>
<time>2019-07-25T12:36:29Z</time>
</trkpt>
<trkpt lat="44.8956752" lon="5.3695200">
<ele>1056.13</ele>
<time>2019-07-25T12:36:30Z</time>
</trkpt>
<trkpt lat="44.8956734" lon="5.3695210">
<ele>1056.14</ele>
<time>2019-07-25T12:36:31Z</time>
</trkpt>
<trkpt lat="44.8956733" lon="5.3695210">
<ele>1056.14</ele>
<time>2019-07-25T12:36:32Z</time>
</trkpt>
<trkpt lat="44.8956738" lon="5.3695207">
<ele>1056.14</ele>
<time>2019-07-25T12:36:33Z</time>
</trkpt>
<trkpt lat="44.8956742" lon="5.3695205">
<ele>1056.14</ele>
<time>2019-07-25T12:36:34Z</time>
</trkpt>
<trkpt lat="44.8956746" lon="5.3695202">
<ele>1056.15</ele>
<time>2019-07-25T12:36:35Z</time>
</trkpt>
<trkpt lat="44.8956747" lon="5.3695200">
<ele>1056.15</ele>
<time>2019-07-25T12:36:36Z</time>
</trkpt>
<trkpt lat="44.8956749" lon="5.3695199">
<ele>1056.15</ele>
<time>2019-07-25T12:36:37Z</time>
</trkpt>
<trkpt lat="44.8956755" lon="5.3695199">
<ele>1056.15</ele>
<time>2019-07-25T12:36:38Z</time>
</trkpt>
<trkpt lat="44.8956774" lon="5.3695189">
<ele>1056.16</ele>
<time>2019-07-25T12:36:39Z</time>
</trkpt>
<trkpt lat="44.8956791" lon="5.3695181">
<ele>1056.16</ele>
<time>2019-07-25T12:36:40Z</time>
</trkpt>
<trkpt lat="44.8956793" lon="5.3695181">
<ele>1056.16</ele>
<time>2019-07-25T12:36:41Z</time>
</trkpt>
<trkpt lat="44.8956803" lon="5.3695175">
<ele>1056.16</ele>
<time>2019-07-25T12:36:42Z</time>
</trkpt>
<trkpt lat="44.8956803" lon="5.3695175">
<ele>1056.17</ele>
<time>2019-07-25T12:36:43Z</time>
</trkpt>
<trkpt lat="44.8956800" lon="5.3695177">
<ele>1056.17</ele>
<time>2019-07-25T12:36:44Z</time>
</trkpt>
<trkpt lat="44.8956776" lon="5.3695187">
<ele>1056.17</ele>
<time>2019-07-25T12:36:45Z</time>
</trkpt>
<trkpt lat="44.8956777" lon="5.3695187">
<ele>1056.17</ele>
<time>2019-07-25T12:36:46Z</time>
</trkpt>
<trkpt lat="44.8956769" lon="5.3695189">
<ele>1056.18</ele>
<time>2019-07-25T12:36:47Z</time>
</trkpt>
<trkpt lat="44.8956752" lon="5.3695194">
<ele>1056.18</ele>
<time>2019-07-25T12:36:48Z</time>
</trkpt>
<trkpt lat="44.8956753" lon="5.3695193">
<ele>1056.19</ele>
<time>2019-07-25T12:36:49Z</time>
</trkpt>
<trkpt lat="44.8956760" lon="5.3695192">
<ele>1056.19</ele>
<time>2019-07-25T12:36:50Z</time>
</trkpt>
<trkpt lat="44.8956761" lon="5.3695191">
<ele>1056.19</ele>
<time>2019-07-25T12:36:51Z</time>
</trkpt>
<trkpt lat="44.8956750" lon="5.3695189">
<ele>1056.20</ele>
<time>2019-07-25T12:36:52Z</time>
</trkpt>
<trkpt lat="44.8956752" lon="5.3695189">
<ele>1056.20</ele>
<time>2019-07-25T12:36:53Z</time>
</trkpt>
<trkpt lat="44.8956751" lon="5.3695191">
<ele>1056.20</ele>
<time>2019-07-25T12:36:54Z</time>
</trkpt>
<trkpt lat="44.8956751" lon="5.3695191">
<ele>1056.21</ele>
<time>2019-07-25T12:36:55Z</time>
</trkpt>
<trkpt lat="44.8956758" lon="5.3695187">
<ele>1056.21</ele>
<time>2019-07-25T12:36:56Z</time>
</trkpt>
<trkpt lat="44.8956762" lon="5.3695181">
<ele>1056.21</ele>
<time>2019-07-25T12:36:57Z</time>
</trkpt>
<trkpt lat="44.8956762" lon="5.3695182">
<ele>1056.22</ele>
<time>2019-07-25T12:36:58Z</time>
</trkpt>
<trkpt lat="44.8956757" lon="5.3695188">
<ele>1056.22</ele>
<time>2019-07-25T12:36:59Z</time>
</trkpt>
<trkpt lat="44.8956752" lon="5.3695190">
<ele>1056.69</ele>
<time>2019-07-25T12:37:00Z</time>
</trkpt>
<trkpt lat="44.8956747" lon="5.3695192">
<ele>1057.10</ele>
<time>2019-07-25T12:37:01Z</time>
</trkpt>
<trkpt lat="44.8956748" lon="5.3695191">
<ele>1057.46</ele>
<time>2019-07-25T12:37:02Z</time>
</trkpt>
<trkpt lat="44.8956752" lon="5.3695188">
<ele>1057.80</ele>
<time>2019-07-25T12:37:03Z</time>
</trkpt>
<trkpt lat="44.8956755" lon="5.3695187">
<ele>1057.81</ele>
<time>2019-07-25T12:37:04Z</time>
</trkpt>
<trkpt lat="44.8956759" lon="5.3695184">
<ele>1057.81</ele>
<time>2019-07-25T12:37:05Z</time>
</trkpt>
<trkpt lat="44.8956843" lon="5.3695216">
<ele>1057.81</ele>
<time>2019-07-25T12:37:06Z</time>
</trkpt>
<trkpt lat="44.8956820" lon="5.3695238">
<ele>1057.84</ele>
<time>2019-07-25T12:37:07Z</time>
</trkpt>
<trkpt lat="44.8956942" lon="5.3695153">
<ele>1058.09</ele>
<time>2019-07-25T12:37:08Z</time>
</trkpt>
<trkpt lat="44.8956836" lon="5.3695172">
<ele>1058.11</ele>
<time>2019-07-25T12:37:09Z</time>
</trkpt>
<trkpt lat="44.8957013" lon="5.3695339">
<ele>1058.12</ele>
<time>2019-07-25T12:37:10Z</time>
</trkpt>
<trkpt lat="44.8956933" lon="5.3695564">
<ele>1058.13</ele>
<time>2019-07-25T12:37:11Z</time>
</trkpt>
<trkpt lat="44.8956880" lon="5.3695863">
<ele>1058.13</ele>
<time>2019-07-25T12:37:12Z</time>
</trkpt>
<trkpt lat="44.8956934" lon="5.3696013">
<ele>1058.14</ele>
<time>2019-07-25T12:37:13Z</time>
</trkpt>
<trkpt lat="44.8956907" lon="5.3696082">
<ele>1058.15</ele>
<time>2019-07-25T12:37:14Z</time>
</trkpt>
<trkpt lat="44.8956901" lon="5.3696157">
<ele>1058.15</ele>
<time>2019-07-25T12:37:15Z</time>
</trkpt>
<trkpt lat="44.8956949" lon="5.3695933">
<ele>1058.15</ele>
<time>2019-07-25T12:37:16Z</time>
</trkpt>
<trkpt lat="44.8956965" lon="5.3695908">
<ele>1058.15</ele>
<time>2019-07-25T12:37:17Z</time>
</trkpt>
<trkpt lat="44.8956985" lon="5.3695930">
<ele>1058.15</ele>
<time>2019-07-25T12:37:18Z</time>
</trkpt>
<trkpt lat="44.8956948" lon="5.3696000">
<ele>1058.13</ele>
<time>2019-07-25T12:37:19Z</time>
</trkpt>
<trkpt lat="44.8956943" lon="5.3696040">
<ele>1058.13</ele>
<time>2019-07-25T12:37:20Z</time>
</trkpt>
<trkpt lat="44.8956943" lon="5.3696045">
<ele>1058.13</ele>
<time>2019-07-25T12:37:21Z</time>
</trkpt>
<trkpt lat="44.8956941" lon="5.3696054">
<ele>1058.13</ele>
<time>2019-07-25T12:37:22Z</time>
</trkpt>
<trkpt lat="44.8956927" lon="5.3696126">
<ele>1058.13</ele>
<time>2019-07-25T12:37:23Z</time>
</trkpt>
<trkpt lat="44.8956909" lon="5.3696223">
<ele>1058.13</ele>
<time>2019-07-25T12:37:24Z</time>
</trkpt>
<trkpt lat="44.8956906" lon="5.3696242">
<ele>1058.13</ele>
<time>2019-07-25T12:37:25Z</time>
</trkpt>
<trkpt lat="44.8956905" lon="5.3696244">
<ele>1058.13</ele>
<time>2019-07-25T12:37:26Z</time>
</trkpt>
<trkpt lat="44.8956905" lon="5.3696249">
<ele>1058.13</ele>
<time>2019-07-25T12:37:27Z</time>
</trkpt>
<trkpt lat="44.8956906" lon="5.3696255">
<ele>1058.13</ele>
<time>2019-07-25T12:37:28Z</time>
</trkpt>
<trkpt lat="44.8956906" lon="5.3696270">
<ele>1058.13</ele>
<time>2019-07-25T12:37:29Z</time>
</trkpt>
<trkpt lat="44.8956903" lon="5.3696282">
<ele>1058.13</ele>
<time>2019-07-25T12:37:30Z</time>
</trkpt>
<trkpt lat="44.8956902" lon="5.3696291">
<ele>1058.13</ele>
<time>2019-07-25T12:37:31Z</time>
</trkpt>
<trkpt lat="44.8956900" lon="5.3696309">
<ele>1058.13</ele>
<time>2019-07-25T12:37:32Z</time>
</trkpt>
<trkpt lat="44.8956890" lon="5.3696380">
<ele>1058.13</ele>
<time>2019-07-25T12:37:33Z</time>
</trkpt>
<trkpt lat="44.8956880" lon="5.3696436">
<ele>1058.13</ele>
<time>2019-07-25T12:37:34Z</time>
</trkpt>
<trkpt lat="44.8956877" lon="5.3696476">
<ele>1058.12</ele>
<time>2019-07-25T12:37:35Z</time>
</trkpt>
<trkpt lat="44.8956871" lon="5.3696497">
<ele>1058.12</ele>
<time>2019-07-25T12:37:36Z</time>
</trkpt>
<trkpt lat="44.8956864" lon="5.3696512">
<ele>1058.12</ele>
<time>2019-07-25T12:37:37Z</time>
</trkpt>
<trkpt lat="44.8956919" lon="5.3696570">
<ele>1058.12</ele>
<time>2019-07-25T12:37:38Z</time>
</trkpt>
<trkpt lat="44.8956927" lon="5.3696571">
<ele>1058.12</ele>
<time>2019-07-25T12:37:39Z</time>
</trkpt>
<trkpt lat="44.8956913" lon="5.3696544">
<ele>1058.11</ele>
<time>2019-07-25T12:37:40Z</time>
</trkpt>
<trkpt lat="44.8956916" lon="5.3696546">
<ele>1058.11</ele>
<time>2019-07-25T12:37:41Z</time>
</trkpt>
<trkpt lat="44.8956915" lon="5.3696543">
<ele>1058.18</ele>
<time>2019-07-25T12:37:42Z</time>
</trkpt>
<trkpt lat="44.8956916" lon="5.3696544">
<ele>1058.28</ele>
<time>2019-07-25T12:37:43Z</time>
</trkpt>
<trkpt lat="44.8956917" lon="5.3696544">
<ele>1058.40</ele>
<time>2019-07-25T12:37:44Z</time>
</trkpt>
<trkpt lat="44.8956918" lon="5.3696548">
<ele>1058.55</ele>
<time>2019-07-25T12:37:45Z</time>
</trkpt>
<trkpt lat="44.8956922" lon="5.3696556">
<ele>1058.68</ele>
<time>2019-07-25T12:37:46Z</time>
</trkpt>
<trkpt lat="44.8956930" lon="5.3696572">
<ele>1058.80</ele>
<time>2019-07-25T12:37:47Z</time>
</trkpt>
<trkpt lat="44.8956928" lon="5.3696570">
<ele>1058.80</ele>
<time>2019-07-25T12:37:48Z</time>
</trkpt>
<trkpt lat="44.8956925" lon="5.3696565">
<ele>1058.80</ele>
<time>2019-07-25T12:37:49Z</time>
</trkpt>
<trkpt lat="44.8956925" lon="5.3696576">
<ele>1058.79</ele>
<time>2019-07-25T12:37:50Z</time>
</trkpt>
<trkpt lat="44.8956934" lon="5.3696591">
<ele>1058.79</ele>
<time>2019-07-25T12:37:51Z</time>
</trkpt>
<trkpt lat="44.8956934" lon="5.3696586">
<ele>1058.79</ele>
<time>2019-07-25T12:37:52Z</time>
</trkpt>
<trkpt lat="44.8956932" lon="5.3696584">
<ele>1058.79</ele>
<time>2019-07-25T12:37:53Z</time>
</trkpt>
<trkpt lat="44.8956932" lon="5.3696585">
<ele>1058.79</ele>
<time>2019-07-25T12:37:54Z</time>
</trkpt>
<trkpt lat="44.8956939" lon="5.3696603">
<ele>1058.78</ele>
<time>2019-07-25T12:37:55Z</time>
</trkpt>
<trkpt lat="44.8956975" lon="5.3696661">
<ele>1058.78</ele>
<time>2019-07-25T12:37:56Z</time>
</trkpt>
<trkpt lat="44.8956974" lon="5.3696661">
<ele>1058.78</ele>
<time>2019-07-25T12:37:57Z</time>
</trkpt>
<trkpt lat="44.8956969" lon="5.3696656">
<ele>1058.77</ele>
<time>2019-07-25T12:37:58Z</time>
</trkpt>
<trkpt lat="44.8956970" lon="5.3696667">
<ele>1058.76</ele>
<time>2019-07-25T12:37:59Z</time>
</trkpt>
<trkpt lat="44.8956973" lon="5.3696671">
<ele>1058.76</ele>
<time>2019-07-25T12:38:00Z</time>
</trkpt>
<trkpt lat="44.8956977" lon="5.3696678">
<ele>1058.75</ele>
<time>2019-07-25T12:38:01Z</time>
</trkpt>
<trkpt lat="44.8956976" lon="5.3696676">
<ele>1058.74</ele>
<time>2019-07-25T12:38:02Z</time>
</trkpt>
<trkpt lat="44.8956975" lon="5.3696675">
<ele>1058.73</ele>
<time>2019-07-25T12:38:03Z</time>
</trkpt>
<trkpt lat="44.8956977" lon="5.3696677">
<ele>1058.72</ele>
<time>2019-07-25T12:38:04Z</time>
</trkpt>
<trkpt lat="44.8956966" lon="5.3696660">
<ele>1058.71</ele>
<time>2019-07-25T12:38:05Z</time>
</trkpt>
<trkpt lat="44.8956966" lon="5.3696660">
<ele>1058.70</ele>
<time>2019-07-25T12:38:06Z</time>
</trkpt>
<trkpt lat="44.8956965" lon="5.3696658">
<ele>1057.51</ele>
<time>2019-07-25T12:38:07Z</time>
</trkpt>
<trkpt lat="44.8956965" lon="5.3696658">
<ele>1057.51</ele>
<time>2019-07-25T12:38:08Z</time>
</trkpt>
<trkpt lat="44.8956964" lon="5.3696659">
<ele>1057.49</ele>
<time>2019-07-25T12:38:09Z</time>
</trkpt>
<trkpt lat="44.8956964" lon="5.3696657">
<ele>1057.48</ele>
<time>2019-07-25T12:38:10Z</time>
</trkpt>
<trkpt lat="44.8956955" lon="5.3696626">
<ele>1057.47</ele>
<time>2019-07-25T12:38:11Z</time>
</trkpt>
<trkpt lat="44.8956953" lon="5.3696627">
<ele>1057.46</ele>
<time>2019-07-25T12:38:12Z</time>
</trkpt>
<trkpt lat="44.8956811" lon="5.3696380">
<ele>1057.45</ele>
<time>2019-07-25T12:38:13Z</time>
</trkpt>
<trkpt lat="44.8956852" lon="5.3696349">
<ele>1057.33</ele>
<time>2019-07-25T12:38:14Z</time>
</trkpt>
<trkpt lat="44.8956817" lon="5.3696446">
<ele>1057.32</ele>
<time>2019-07-25T12:38:15Z</time>
</trkpt>
<trkpt lat="44.8956821" lon="5.3696405">
<ele>1057.30</ele>
<time>2019-07-25T12:38:16Z</time>
</trkpt>
<trkpt lat="44.8956828" lon="5.3696392">
<ele>1057.29</ele>
<time>2019-07-25T12:38:17Z</time>
</trkpt>
<trkpt lat="44.8956829" lon="5.3696396">
<ele>1057.28</ele>
<time>2019-07-25T12:38:18Z</time>
</trkpt>
<trkpt lat="44.8956828" lon="5.3696398">
<ele>1057.27</ele>
<time>2019-07-25T12:38:19Z</time>
</trkpt>
<trkpt lat="44.8956827" lon="5.3696402">
<ele>1057.25</ele>
<time>2019-07-25T12:38:20Z</time>
</trkpt>
<trkpt lat="44.8956831" lon="5.3696414">
<ele>1057.24</ele>
<time>2019-07-25T12:38:21Z</time>
</trkpt>
<trkpt lat="44.8956833" lon="5.3696418">
<ele>1057.23</ele>
<time>2019-07-25T12:38:22Z</time>
</trkpt>
<trkpt lat="44.8956843" lon="5.3696436">
<ele>1057.21</ele>
<time>2019-07-25T12:38:23Z</time>
</trkpt>
<trkpt lat="44.8956842" lon="5.3696434">
<ele>1057.20</ele>
<time>2019-07-25T12:38:24Z</time>
</trkpt>
<trkpt lat="44.8956840" lon="5.3696427">
<ele>1057.18</ele>
<time>2019-07-25T12:38:25Z</time>
</trkpt>
<trkpt lat="44.8956841" lon="5.3696425">
<ele>1057.17</ele>
<time>2019-07-25T12:38:26Z</time>
</trkpt>
<trkpt lat="44.8956835" lon="5.3696413">
<ele>1057.15</ele>
<time>2019-07-25T12:38:27Z</time>
</trkpt>
<trkpt lat="44.8956833" lon="5.3696408">
<ele>1057.14</ele>
<time>2019-07-25T12:38:28Z</time>
</trkpt>
<trkpt lat="44.8956832" lon="5.3696405">
<ele>1057.12</ele>
<time>2019-07-25T12:38:29Z</time>
</trkpt>
<trkpt lat="44.8956827" lon="5.3696401">
<ele>1057.11</ele>
<time>2019-07-25T12:38:30Z</time>
</trkpt>
<trkpt lat="44.8956827" lon="5.3696413">
<ele>1057.09</ele>
<time>2019-07-25T12:38:31Z</time>
</trkpt>
<trkpt lat="44.8956829" lon="5.3696421">
<ele>1057.08</ele>
<time>2019-07-25T12:38:32Z</time>
</trkpt>
<trkpt lat="44.8956829" lon="5.3696420">
<ele>1057.06</ele>
<time>2019-07-25T12:38:33Z</time>
</trkpt>
<trkpt lat="44.8956830" lon="5.3696420">
<ele>1057.04</ele>
<time>2019-07-25T12:38:34Z</time>
</trkpt>
<trkpt lat="44.8956833" lon="5.3696422">
<ele>1057.03</ele>
<time>2019-07-25T12:38:35Z</time>
</trkpt>
<trkpt lat="44.8956831" lon="5.3696418">
<ele>1057.01</ele>
<time>2019-07-25T12:38:36Z</time>
</trkpt>
<trkpt lat="44.8956830" lon="5.3696417">
<ele>1057.00</ele>
<time>2019-07-25T12:38:37Z</time>
</trkpt>
<trkpt lat="44.8956828" lon="5.3696413">
<ele>1056.98</ele>
<time>2019-07-25T12:38:38Z</time>
</trkpt>
<trkpt lat="44.8956828" lon="5.3696413">
<ele>1056.97</ele>
<time>2019-07-25T12:38:39Z</time>
</trkpt>
<trkpt lat="44.8956837" lon="5.3696426">
<ele>1056.95</ele>
<time>2019-07-25T12:38:40Z</time>
</trkpt>
<trkpt lat="44.8956848" lon="5.3696443">
<ele>1056.94</ele>
<time>2019-07-25T12:38:41Z</time>
</trkpt>
<trkpt lat="44.8956848" lon="5.3696443">
<ele>1056.92</ele>
<time>2019-07-25T12:38:42Z</time>
</trkpt>
<trkpt lat="44.8956832" lon="5.3696408">
<ele>1056.90</ele>
<time>2019-07-25T12:38:43Z</time>
</trkpt>
<trkpt lat="44.8956831" lon="5.3696407">
<ele>1056.89</ele>
<time>2019-07-25T12:38:44Z</time>
</trkpt>
<trkpt lat="44.8956830" lon="5.3696406">
<ele>1055.26</ele>
<time>2019-07-25T12:38:45Z</time>
</trkpt>
<trkpt lat="44.8956830" lon="5.3696405">
<ele>1053.95</ele>
<time>2019-07-25T12:38:46Z</time>
</trkpt>
<trkpt lat="44.8956832" lon="5.3696410">
<ele>1053.94</ele>
<time>2019-07-25T12:38:47Z</time>
</trkpt>
<trkpt lat="44.8956832" lon="5.3696409">
<ele>1053.93</ele>
<time>2019-07-25T12:38:48Z</time>
</trkpt>
<trkpt lat="44.8956828" lon="5.3696402">
<ele>1053.92</ele>
<time>2019-07-25T12:38:49Z</time>
</trkpt>
<trkpt lat="44.8956828" lon="5.3696404">
<ele>1053.91</ele>
<time>2019-07-25T12:38:50Z</time>
</trkpt>
<trkpt lat="44.8956829" lon="5.3696407">
<ele>1053.90</ele>
<time>2019-07-25T12:38:51Z</time>
</trkpt>
<trkpt lat="44.8956827" lon="5.3696402">
<ele>1053.89</ele>
<time>2019-07-25T12:38:52Z</time>
</trkpt>
<trkpt lat="44.8956822" lon="5.3696385">
<ele>1053.88</ele>
<time>2019-07-25T12:38:53Z</time>
</trkpt>
<trkpt lat="44.8956821" lon="5.3696380">
<ele>1053.87</ele>
<time>2019-07-25T12:38:54Z</time>
</trkpt>
<trkpt lat="44.8956821" lon="5.3696382">
<ele>1053.86</ele>
<time>2019-07-25T12:38:55Z</time>
</trkpt>
<trkpt lat="44.8956822" lon="5.3696387">
<ele>1053.85</ele>
<time>2019-07-25T12:38:56Z</time>
</trkpt>
<trkpt lat="44.8956823" lon="5.3696397">
<ele>1053.84</ele>
<time>2019-07-25T12:38:57Z</time>
</trkpt>
<trkpt lat="44.8956825" lon="5.3696420">
<ele>1053.83</ele>
<time>2019-07-25T12:38:58Z</time>
</trkpt>
<trkpt lat="44.8956825" lon="5.3696428">
<ele>1053.82</ele>
<time>2019-07-25T12:38:59Z</time>
</trkpt>
<trkpt lat="44.8956825" lon="5.3696429">
<ele>1053.81</ele>
<time>2019-07-25T12:39:00Z</time>
</trkpt>
<trkpt lat="44.8956825" lon="5.3696432">
<ele>1053.80</ele>
<time>2019-07-25T12:39:01Z</time>
</trkpt>
<trkpt lat="44.8956832" lon="5.3696498">
<ele>1053.79</ele>
<time>2019-07-25T12:39:02Z</time>
</trkpt>
<trkpt lat="44.8956832" lon="5.3696497">
<ele>1053.78</ele>
<time>2019-07-25T12:39:03Z</time>
</trkpt>
<trkpt lat="44.8956832" lon="5.3696498">
<ele>1053.77</ele>
<time>2019-07-25T12:39:04Z</time>
</trkpt>
<trkpt lat="44.8956833" lon="5.3696503">
<ele>1053.76</ele>
<time>2019-07-25T12:39:05Z</time>
</trkpt>
<trkpt lat="44.8956835" lon="5.3696523">
<ele>1053.74</ele>
<time>2019-07-25T12:39:06Z</time>
</trkpt>
<trkpt lat="44.8956837" lon="5.3696550">
<ele>1053.73</ele>
<time>2019-07-25T12:39:07Z</time>
</trkpt>
<trkpt lat="44.8956847" lon="5.3696616">
<ele>1053.72</ele>
<time>2019-07-25T12:39:08Z</time>
</trkpt>
<trkpt lat="44.8956847" lon="5.3696615">
<ele>1053.71</ele>
<time>2019-07-25T12:39:09Z</time>
</trkpt>
<trkpt lat="44.8956844" lon="5.3696608">
<ele>1053.70</ele>
<time>2019-07-25T12:39:10Z</time>
</trkpt>
<trkpt lat="44.8956843" lon="5.3696608">
<ele>1053.69</ele>
<time>2019-07-25T12:39:11Z</time>
</trkpt>
<trkpt lat="44.8956846" lon="5.3696664">
<ele>1053.68</ele>
<time>2019-07-25T12:39:12Z</time>
</trkpt>
<trkpt lat="44.8956846" lon="5.3696670">
<ele>1053.67</ele>
<time>2019-07-25T12:39:13Z</time>
</trkpt>
<trkpt lat="44.8956846" lon="5.3696677">
<ele>1053.65</ele>
<time>2019-07-25T12:39:14Z</time>
</trkpt>
<trkpt lat="44.8956845" lon="5.3696686">
<ele>1053.64</ele>
<time>2019-07-25T12:39:15Z</time>
</trkpt>
<trkpt lat="44.8956842" lon="5.3696672">
<ele>1053.63</ele>
<time>2019-07-25T12:39:16Z</time>
</trkpt>
<trkpt lat="44.8956808" lon="5.3696744">
<ele>1053.51</ele>
<time>2019-07-25T12:39:17Z</time>
</trkpt>
<trkpt lat="44.8956798" lon="5.3696708">
<ele>1053.49</ele>
<time>2019-07-25T12:39:18Z</time>
</trkpt>
<trkpt lat="44.8956749" lon="5.3696707">
<ele>1053.38</ele>
<time>2019-07-25T12:39:19Z</time>
</trkpt>
<trkpt lat="44.8956662" lon="5.3696555">
<ele>1053.26</ele>
<time>2019-07-25T12:39:20Z</time>
</trkpt>
<trkpt lat="44.8956738" lon="5.3696350">
<ele>1053.16</ele>
<time>2019-07-25T12:39:21Z</time>
</trkpt>
<trkpt lat="44.8956731" lon="5.3696363">
<ele>1053.15</ele>
<time>2019-07-25T12:39:22Z</time>
</trkpt>
<trkpt lat="44.8956732" lon="5.3696367">
<ele>1053.14</ele>
<time>2019-07-25T12:39:23Z</time>
</trkpt>
<trkpt lat="44.8956729" lon="5.3696374">
<ele>1053.13</ele>
<time>2019-07-25T12:39:24Z</time>
</trkpt>
<trkpt lat="44.8956727" lon="5.3696352">
<ele>1053.12</ele>
<time>2019-07-25T12:39:25Z</time>
</trkpt>
<trkpt lat="44.8956725" lon="5.3696342">
<ele>1053.11</ele>
<time>2019-07-25T12:39:26Z</time>
</trkpt>
<trkpt lat="44.8956722" lon="5.3696330">
<ele>1053.10</ele>
<time>2019-07-25T12:39:27Z</time>
</trkpt>
<trkpt lat="44.8956721" lon="5.3696319">
<ele>1052.26</ele>
<time>2019-07-25T12:39:28Z</time>
</trkpt>
<trkpt lat="44.8956720" lon="5.3696316">
<ele>1052.25</ele>
<time>2019-07-25T12:39:29Z</time>
</trkpt>
<trkpt lat="44.8956725" lon="5.3696335">
<ele>1052.24</ele>
<time>2019-07-25T12:39:30Z</time>
</trkpt>
<trkpt lat="44.8956725" lon="5.3696331">
<ele>1052.24</ele>
<time>2019-07-25T12:39:31Z</time>
</trkpt>
<trkpt lat="44.8956723" lon="5.3696323">
<ele>1052.23</ele>
<time>2019-07-25T12:39:32Z</time>
</trkpt>
<trkpt lat="44.8956722" lon="5.3696324">
<ele>1052.22</ele>
<time>2019-07-25T12:39:33Z</time>
</trkpt>
<trkpt lat="44.8956723" lon="5.3696330">
<ele>1052.22</ele>
<time>2019-07-25T12:39:34Z</time>
</trkpt>
<trkpt lat="44.8956724" lon="5.3696349">
<ele>1052.21</ele>
<time>2019-07-25T12:39:35Z</time>
</trkpt>
<trkpt lat="44.8956734" lon="5.3696391">
<ele>1052.20</ele>
<time>2019-07-25T12:39:36Z</time>
</trkpt>
<trkpt lat="44.8956734" lon="5.3696393">
<ele>1052.20</ele>
<time>2019-07-25T12:39:37Z</time>
</trkpt>
<trkpt lat="44.8956748" lon="5.3696428">
<ele>1052.19</ele>
<time>2019-07-25T12:39:38Z</time>
</trkpt>
<trkpt lat="44.8956755" lon="5.3696403">
<ele>1052.18</ele>
<time>2019-07-25T12:39:39Z</time>
</trkpt>
<trkpt lat="44.8956755" lon="5.3696398">
<ele>1052.17</ele>
<time>2019-07-25T12:39:40Z</time>
</trkpt>
<trkpt lat="44.8956754" lon="5.3696394">
<ele>1051.55</ele>
<time>2019-07-25T12:39:41Z</time>
</trkpt>
<trkpt lat="44.8956755" lon="5.3696393">
<ele>1051.05</ele>
<time>2019-07-25T12:39:42Z</time>
</trkpt>
<trkpt lat="44.8956753" lon="5.3696388">
<ele>1050.64</ele>
<time>2019-07-25T12:39:43Z</time>
</trkpt>
<trkpt lat="44.8956757" lon="5.3696399">
<ele>1050.31</ele>
<time>2019-07-25T12:39:44Z</time>
</trkpt>
<trkpt lat="44.8956754" lon="5.3696388">
<ele>1050.09</ele>
<time>2019-07-25T12:39:45Z</time>
</trkpt>
<trkpt lat="44.8956756" lon="5.3696397">
<ele>1049.94</ele>
<time>2019-07-25T12:39:46Z</time>
</trkpt>
<trkpt lat="44.8956756" lon="5.3696394">
<ele>1049.94</ele>
<time>2019-07-25T12:39:47Z</time>
</trkpt>
<trkpt lat="44.8956755" lon="5.3696401">
<ele>1049.92</ele>
<time>2019-07-25T12:39:48Z</time>
</trkpt>
<trkpt lat="44.8956755" lon="5.3696416">
<ele>1049.92</ele>
<time>2019-07-25T12:39:49Z</time>
</trkpt>
<trkpt lat="44.8956757" lon="5.3696418">
<ele>1050.00</ele>
<time>2019-07-25T12:39:50Z</time>
</trkpt>
<trkpt lat="44.8956760" lon="5.3696428">
<ele>1050.12</ele>
<time>2019-07-25T12:39:51Z</time>
</trkpt>
<trkpt lat="44.8956757" lon="5.3696430">
<ele>1050.12</ele>
<time>2019-07-25T12:39:52Z</time>
</trkpt>
<trkpt lat="44.8956750" lon="5.3696431">
<ele>1050.12</ele>
<time>2019-07-25T12:39:53Z</time>
</trkpt>
<trkpt lat="44.8956738" lon="5.3696461">
<ele>1050.12</ele>
<time>2019-07-25T12:39:54Z</time>
</trkpt>
<trkpt lat="44.8956922" lon="5.3696423">
<ele>1050.13</ele>
<time>2019-07-25T12:39:55Z</time>
</trkpt>
<trkpt lat="44.8957008" lon="5.3696295">
<ele>1050.14</ele>
<time>2019-07-25T12:39:56Z</time>
</trkpt>
<trkpt lat="44.8957012" lon="5.3696283">
<ele>1050.14</ele>
<time>2019-07-25T12:39:57Z</time>
</trkpt>
<trkpt lat="44.8957036" lon="5.3696283">
<ele>1050.15</ele>
<time>2019-07-25T12:39:58Z</time>
</trkpt>
<trkpt lat="44.8956994" lon="5.3696363">
<ele>1050.18</ele>
<time>2019-07-25T12:39:59Z</time>
</trkpt>
<trkpt lat="44.8956989" lon="5.3696377">
<ele>1050.18</ele>
<time>2019-07-25T12:40:00Z</time>
</trkpt>
<trkpt lat="44.8956988" lon="5.3696413">
<ele>1050.19</ele>
<time>2019-07-25T12:40:01Z</time>
</trkpt>
<trkpt lat="44.8956988" lon="5.3696412">
<ele>1050.19</ele>
<time>2019-07-25T12:40:02Z</time>
</trkpt>
<trkpt lat="44.8956989" lon="5.3696408">
<ele>1050.20</ele>
<time>2019-07-25T12:40:03Z</time>
</trkpt>
<trkpt lat="44.8956987" lon="5.3696413">
<ele>1050.20</ele>
<time>2019-07-25T12:40:04Z</time>
</trkpt>
<trkpt lat="44.8956986" lon="5.3696421">
<ele>1050.21</ele>
<time>2019-07-25T12:40:05Z</time>
</trkpt>
<trkpt lat="44.8956986" lon="5.3696420">
<ele>1050.22</ele>
<time>2019-07-25T12:40:06Z</time>
</trkpt>
<trkpt lat="44.8956984" lon="5.3696431">
<ele>1050.23</ele>
<time>2019-07-25T12:40:07Z</time>
</trkpt>
<trkpt lat="44.8956981" lon="5.3696442">
<ele>1050.24</ele>
<time>2019-07-25T12:40:08Z</time>
</trkpt>
<trkpt lat="44.8956970" lon="5.3696469">
<ele>1050.25</ele>
<time>2019-07-25T12:40:09Z</time>
</trkpt>
<trkpt lat="44.8956964" lon="5.3696484">
<ele>1050.26</ele>
<time>2019-07-25T12:40:10Z</time>
</trkpt>
<trkpt lat="44.8956939" lon="5.3696501">
<ele>1050.27</ele>
<time>2019-07-25T12:40:11Z</time>
</trkpt>
<trkpt lat="44.8956925" lon="5.3696507">
<ele>1050.28</ele>
<time>2019-07-25T12:40:12Z</time>
</trkpt>
<trkpt lat="44.8956924" lon="5.3696506">
<ele>1050.30</ele>
<time>2019-07-25T12:40:13Z</time>
</trkpt>
<trkpt lat="44.8956919" lon="5.3696508">
<ele>1050.31</ele>
<time>2019-07-25T12:40:14Z</time>
</trkpt>
<trkpt lat="44.8956885" lon="5.3696587">
<ele>1050.32</ele>
<time>2019-07-25T12:40:15Z</time>
</trkpt>
<trkpt lat="44.8956964" lon="5.3696454">
<ele>1050.45</ele>
<time>2019-07-25T12:40:16Z</time>
</trkpt>
<trkpt lat="44.8957002" lon="5.3696069">
<ele>1050.57</ele>
<time>2019-07-25T12:40:17Z</time>
</trkpt>
<trkpt lat="44.8957157" lon="5.3695778">
<ele>1050.70</ele>
<time>2019-07-25T12:40:18Z</time>
</trkpt>
<trkpt lat="44.8957292" lon="5.3695761">
<ele>1050.81</ele>
<time>2019-07-25T12:40:19Z</time>
</trkpt>
<trkpt lat="44.8957084" lon="5.3695735">
<ele>1050.92</ele>
<time>2019-07-25T12:40:20Z</time>
</trkpt>
<trkpt lat="44.8957091" lon="5.3695731">
<ele>1050.93</ele>
<time>2019-07-25T12:40:21Z</time>
</trkpt>
<trkpt lat="44.8957090" lon="5.3695739">
<ele>1050.94</ele>
<time>2019-07-25T12:40:22Z</time>
</trkpt>
<trkpt lat="44.8957087" lon="5.3695742">
<ele>1050.95</ele>
<time>2019-07-25T12:40:23Z</time>
</trkpt>
<trkpt lat="44.8957087" lon="5.3695742">
<ele>1050.95</ele>
<time>2019-07-25T12:40:24Z</time>
</trkpt>
<trkpt lat="44.8957077" lon="5.3695760">
<ele>1050.96</ele>
<time>2019-07-25T12:40:25Z</time>
</trkpt>
<trkpt lat="44.8957066" lon="5.3695773">
<ele>1050.97</ele>
<time>2019-07-25T12:40:26Z</time>
</trkpt>
<trkpt lat="44.8957069" lon="5.3695769">
<ele>1051.96</ele>
<time>2019-07-25T12:40:27Z</time>
</trkpt>
<trkpt lat="44.8957073" lon="5.3695765">
<ele>1051.97</ele>
<time>2019-07-25T12:40:28Z</time>
</trkpt>
<trkpt lat="44.8957077" lon="5.3695757">
<ele>1052.79</ele>
<time>2019-07-25T12:40:29Z</time>
</trkpt>
<trkpt lat="44.8957116" lon="5.3695704">
<ele>1053.41</ele>
<time>2019-07-25T12:40:30Z</time>
</trkpt>
<trkpt lat="44.8957128" lon="5.3695684">
<ele>1053.84</ele>
<time>2019-07-25T12:40:31Z</time>
</trkpt>
<trkpt lat="44.8957129" lon="5.3695681">
<ele>1053.84</ele>
<time>2019-07-25T12:40:32Z</time>
</trkpt>
<trkpt lat="44.8957132" lon="5.3695675">
<ele>1054.20</ele>
<time>2019-07-25T12:40:33Z</time>
</trkpt>
<trkpt lat="44.8957152" lon="5.3695645">
<ele>1054.42</ele>
<time>2019-07-25T12:40:34Z</time>
</trkpt>
<trkpt lat="44.8957168" lon="5.3695618">
<ele>1054.62</ele>
<time>2019-07-25T12:40:35Z</time>
</trkpt>
<trkpt lat="44.8957187" lon="5.3695586">
<ele>1054.63</ele>
<time>2019-07-25T12:40:36Z</time>
</trkpt>
<trkpt lat="44.8957196" lon="5.3695576">
<ele>1054.63</ele>
<time>2019-07-25T12:40:37Z</time>
</trkpt>
<trkpt lat="44.8957207" lon="5.3695562">
<ele>1055.03</ele>
<time>2019-07-25T12:40:38Z</time>
</trkpt>
<trkpt lat="44.8957208" lon="5.3695561">
<ele>1055.43</ele>
<time>2019-07-25T12:40:39Z</time>
</trkpt>
<trkpt lat="44.8957205" lon="5.3695566">
<ele>1055.82</ele>
<time>2019-07-25T12:40:40Z</time>
</trkpt>
<trkpt lat="44.8957202" lon="5.3695570">
<ele>1056.20</ele>
<time>2019-07-25T12:40:41Z</time>
</trkpt>
<trkpt lat="44.8957172" lon="5.3695635">
<ele>1056.48</ele>
<time>2019-07-25T12:40:42Z</time>
</trkpt>
<trkpt lat="44.8957154" lon="5.3695672">
<ele>1056.48</ele>
<time>2019-07-25T12:40:43Z</time>
</trkpt>
<trkpt lat="44.8957141" lon="5.3695699">
<ele>1056.49</ele>
<time>2019-07-25T12:40:44Z</time>
</trkpt>
<trkpt lat="44.8957116" lon="5.3695747">
<ele>1056.90</ele>
<time>2019-07-25T12:40:45Z</time>
</trkpt>
<trkpt lat="44.8957107" lon="5.3695763">
<ele>1057.26</ele>
<time>2019-07-25T12:40:46Z</time>
</trkpt>
<trkpt lat="44.8957103" lon="5.3695772">
<ele>1057.58</ele>
<time>2019-07-25T12:40:47Z</time>
</trkpt>
<trkpt lat="44.8957099" lon="5.3695777">
<ele>1057.58</ele>
<time>2019-07-25T12:40:48Z</time>
</trkpt>
<trkpt lat="44.8957095" lon="5.3695785">
<ele>1057.58</ele>
<time>2019-07-25T12:40:49Z</time>
</trkpt>
<trkpt lat="44.8957093" lon="5.3695791">
<ele>1057.58</ele>
<time>2019-07-25T12:40:50Z</time>
</trkpt>
<trkpt lat="44.8957088" lon="5.3695803">
<ele>1057.59</ele>
<time>2019-07-25T12:40:51Z</time>
</trkpt>
<trkpt lat="44.8957051" lon="5.3695854">
<ele>1057.59</ele>
<time>2019-07-25T12:40:52Z</time>
</trkpt>
<trkpt lat="44.8957040" lon="5.3695863">
<ele>1057.60</ele>
<time>2019-07-25T12:40:53Z</time>
</trkpt>
<trkpt lat="44.8957040" lon="5.3695865">
<ele>1057.61</ele>
<time>2019-07-25T12:40:54Z</time>
</trkpt>
<trkpt lat="44.8957037" lon="5.3695865">
<ele>1057.61</ele>
<time>2019-07-25T12:40:55Z</time>
</trkpt>
<trkpt lat="44.8957038" lon="5.3695861">
<ele>1058.37</ele>
<time>2019-07-25T12:40:56Z</time>
</trkpt>
<trkpt lat="44.8957041" lon="5.3695860">
<ele>1059.02</ele>
<time>2019-07-25T12:40:57Z</time>
</trkpt>
<trkpt lat="44.8957039" lon="5.3695862">
<ele>1059.02</ele>
<time>2019-07-25T12:40:58Z</time>
</trkpt>
<trkpt lat="44.8957047" lon="5.3695850">
<ele>1059.03</ele>
<time>2019-07-25T12:40:59Z</time>
</trkpt>
<trkpt lat="44.8957052" lon="5.3695848">
<ele>1059.04</ele>
<time>2019-07-25T12:41:00Z</time>
</trkpt>
<trkpt lat="44.8957054" lon="5.3695848">
<ele>1059.04</ele>
<time>2019-07-25T12:41:01Z</time>
</trkpt>
<trkpt lat="44.8957054" lon="5.3695848">
<ele>1059.05</ele>
<time>2019-07-25T12:41:02Z</time>
</trkpt>
<trkpt lat="44.8957058" lon="5.3695846">
<ele>1059.67</ele>
<time>2019-07-25T12:41:03Z</time>
</trkpt>
<trkpt lat="44.8957074" lon="5.3695829">
<ele>1059.67</ele>
<time>2019-07-25T12:41:04Z</time>
</trkpt>
<trkpt lat="44.8957074" lon="5.3695827">
<ele>1059.68</ele>
<time>2019-07-25T12:41:05Z</time>
</trkpt>
<trkpt lat="44.8957067" lon="5.3695832">
<ele>1059.68</ele>
<time>2019-07-25T12:41:06Z</time>
</trkpt>
<trkpt lat="44.8957068" lon="5.3695832">
<ele>1059.97</ele>
<time>2019-07-25T12:41:07Z</time>
</trkpt>
<trkpt lat="44.8957065" lon="5.3695833">
<ele>1060.14</ele>
<time>2019-07-25T12:41:08Z</time>
</trkpt>
<trkpt lat="44.8957068" lon="5.3695832">
<ele>1060.31</ele>
<time>2019-07-25T12:41:09Z</time>
</trkpt>
<trkpt lat="44.8957078" lon="5.3695817">
<ele>1060.31</ele>
<time>2019-07-25T12:41:10Z</time>
</trkpt>
<trkpt lat="44.8957087" lon="5.3695809">
<ele>1060.32</ele>
<time>2019-07-25T12:41:11Z</time>
</trkpt>
<trkpt lat="44.8957089" lon="5.3695805">
<ele>1060.45</ele>
<time>2019-07-25T12:41:12Z</time>
</trkpt>
<trkpt lat="44.8957097" lon="5.3695794">
<ele>1060.58</ele>
<time>2019-07-25T12:41:13Z</time>
</trkpt>
<trkpt lat="44.8957094" lon="5.3695759">
<ele>1060.58</ele>
<time>2019-07-25T12:41:14Z</time>
</trkpt>
<trkpt lat="44.8957095" lon="5.3695739">
<ele>1060.58</ele>
<time>2019-07-25T12:41:15Z</time>
</trkpt>
<trkpt lat="44.8957104" lon="5.3695716">
<ele>1060.50</ele>
<time>2019-07-25T12:41:16Z</time>
</trkpt>
<trkpt lat="44.8957055" lon="5.3695559">
<ele>1060.40</ele>
<time>2019-07-25T12:41:17Z</time>
</trkpt>
<trkpt lat="44.8957033" lon="5.3695530">
<ele>1060.34</ele>
<time>2019-07-25T12:41:18Z</time>
</trkpt>
<trkpt lat="44.8956975" lon="5.3695490">
<ele>1060.28</ele>
<time>2019-07-25T12:41:19Z</time>
</trkpt>
<trkpt lat="44.8956908" lon="5.3695334">
<ele>1060.27</ele>
<time>2019-07-25T12:41:20Z</time>
</trkpt>
<trkpt lat="44.8956848" lon="5.3695331">
<ele>1060.27</ele>
<time>2019-07-25T12:41:21Z</time>
</trkpt>
<trkpt lat="44.8956768" lon="5.3695396">
<ele>1060.29</ele>
<time>2019-07-25T12:41:22Z</time>
</trkpt>
<trkpt lat="44.8956719" lon="5.3695363">
<ele>1060.29</ele>
<time>2019-07-25T12:41:23Z</time>
</trkpt>
<trkpt lat="44.8956649" lon="5.3695324">
<ele>1060.29</ele>
<time>2019-07-25T12:41:24Z</time>
</trkpt>
<trkpt lat="44.8956606" lon="5.3695344">
<ele>1060.31</ele>
<time>2019-07-25T12:41:25Z</time>
</trkpt>
<trkpt lat="44.8956739" lon="5.3695364">
<ele>1060.32</ele>
<time>2019-07-25T12:41:26Z</time>
</trkpt>
<trkpt lat="44.8956698" lon="5.3695422">
<ele>1060.33</ele>
<time>2019-07-25T12:41:27Z</time>
</trkpt>
<trkpt lat="44.8956823" lon="5.3695494">
<ele>1060.33</ele>
<time>2019-07-25T12:41:28Z</time>
</trkpt>
<trkpt lat="44.8956885" lon="5.3695593">
<ele>1060.35</ele>
<time>2019-07-25T12:41:29Z</time>
</trkpt>
<trkpt lat="44.8956837" lon="5.3695589">
<ele>1060.35</ele>
<time>2019-07-25T12:41:30Z</time>
</trkpt>
<trkpt lat="44.8956842" lon="5.3695588">
<ele>1060.35</ele>
<time>2019-07-25T12:41:31Z</time>
</trkpt>
<trkpt lat="44.8956849" lon="5.3695588">
<ele>1060.35</ele>
<time>2019-07-25T12:41:32Z</time>
</trkpt>
<trkpt lat="44.8956852" lon="5.3695589">
<ele>1060.36</ele>
<time>2019-07-25T12:41:33Z</time>
</trkpt>
<trkpt lat="44.8956854" lon="5.3695594">
<ele>1060.36</ele>
<time>2019-07-25T12:41:34Z</time>
</trkpt>
<trkpt lat="44.8956844" lon="5.3695593">
<ele>1060.36</ele>
<time>2019-07-25T12:41:35Z</time>
</trkpt>
<trkpt lat="44.8956846" lon="5.3695593">
<ele>1060.37</ele>
<time>2019-07-25T12:41:36Z</time>
</trkpt>
<trkpt lat="44.8956844" lon="5.3695594">
<ele>1060.37</ele>
<time>2019-07-25T12:41:37Z</time>
</trkpt>
<trkpt lat="44.8956832" lon="5.3695593">
<ele>1060.38</ele>
<time>2019-07-25T12:41:38Z</time>
</trkpt>
<trkpt lat="44.8956834" lon="5.3695595">
<ele>1060.38</ele>
<time>2019-07-25T12:41:39Z</time>
</trkpt>
<trkpt lat="44.8956844" lon="5.3695599">
<ele>1060.39</ele>
<time>2019-07-25T12:41:40Z</time>
</trkpt>
<trkpt lat="44.8956844" lon="5.3695600">
<ele>1060.40</ele>
<time>2019-07-25T12:41:41Z</time>
</trkpt>
<trkpt lat="44.8956840" lon="5.3695599">
<ele>1060.40</ele>
<time>2019-07-25T12:41:42Z</time>
</trkpt>
<trkpt lat="44.8956819" lon="5.3695595">
<ele>1060.41</ele>
<time>2019-07-25T12:41:43Z</time>
</trkpt>
<trkpt lat="44.8956821" lon="5.3695595">
<ele>1060.42</ele>
<time>2019-07-25T12:41:44Z</time>
</trkpt>
<trkpt lat="44.8956826" lon="5.3695597">
<ele>1061.07</ele>
<time>2019-07-25T12:41:45Z</time>
</trkpt>
<trkpt lat="44.8956831" lon="5.3695598">
<ele>1061.07</ele>
<time>2019-07-25T12:41:46Z</time>
</trkpt>
<trkpt lat="44.8956831" lon="5.3695599">
<ele>1061.07</ele>
<time>2019-07-25T12:41:47Z</time>
</trkpt>
<trkpt lat="44.8956882" lon="5.3695588">
<ele>1061.08</ele>
<time>2019-07-25T12:41:48Z</time>
</trkpt>
<trkpt lat="44.8956923" lon="5.3695571">
<ele>1061.08</ele>
<time>2019-07-25T12:41:49Z</time>
</trkpt>
<trkpt lat="44.8956950" lon="5.3695574">
<ele>1061.09</ele>
<time>2019-07-25T12:41:50Z</time>
</trkpt>
<trkpt lat="44.8956933" lon="5.3695575">
<ele>1061.09</ele>
<time>2019-07-25T12:41:51Z</time>
</trkpt>
<trkpt lat="44.8956943" lon="5.3695626">
<ele>1061.10</ele>
<time>2019-07-25T12:41:52Z</time>
</trkpt>
<trkpt lat="44.8956960" lon="5.3695648">
<ele>1061.66</ele>
<time>2019-07-25T12:41:53Z</time>
</trkpt>
<trkpt lat="44.8957055" lon="5.3695776">
<ele>1061.71</ele>
<time>2019-07-25T12:41:54Z</time>
</trkpt>
<trkpt lat="44.8956991" lon="5.3695718">
<ele>1061.75</ele>
<time>2019-07-25T12:41:55Z</time>
</trkpt>
<trkpt lat="44.8957072" lon="5.3695857">
<ele>1061.79</ele>
<time>2019-07-25T12:41:56Z</time>
</trkpt>
<trkpt lat="44.8957022" lon="5.3695824">
<ele>1061.79</ele>
<time>2019-07-25T12:41:57Z</time>
</trkpt>
<trkpt lat="44.8956977" lon="5.3695837">
<ele>1062.07</ele>
<time>2019-07-25T12:41:58Z</time>
</trkpt>
<trkpt lat="44.8956827" lon="5.3695609">
<ele>1062.20</ele>
<time>2019-07-25T12:41:59Z</time>
</trkpt>
<trkpt lat="44.8956663" lon="5.3695474">
<ele>1062.20</ele>
<time>2019-07-25T12:42:00Z</time>
</trkpt>
<trkpt lat="44.8956606" lon="5.3695397">
<ele>1062.20</ele>
<time>2019-07-25T12:42:01Z</time>
</trkpt>
<trkpt lat="44.8956612" lon="5.3695360">
<ele>1062.20</ele>
<time>2019-07-25T12:42:02Z</time>
</trkpt>
<trkpt lat="44.8956647" lon="5.3695403">
<ele>1062.21</ele>
<time>2019-07-25T12:42:03Z</time>
</trkpt>
<trkpt lat="44.8956608" lon="5.3695396">
<ele>1062.21</ele>
<time>2019-07-25T12:42:04Z</time>
</trkpt>
<trkpt lat="44.8956654" lon="5.3695447">
<ele>1062.22</ele>
<time>2019-07-25T12:42:05Z</time>
</trkpt>
<trkpt lat="44.8956657" lon="5.3695511">
<ele>1062.22</ele>
<time>2019-07-25T12:42:06Z</time>
</trkpt>
<trkpt lat="44.8956670" lon="5.3695495">
<ele>1062.22</ele>
<time>2019-07-25T12:42:07Z</time>
</trkpt>
<trkpt lat="44.8956649" lon="5.3695444">
<ele>1062.22</ele>
<time>2019-07-25T12:42:08Z</time>
</trkpt>
<trkpt lat="44.8956614" lon="5.3695390">
<ele>1062.22</ele>
<time>2019-07-25T12:42:09Z</time>
</trkpt>
<trkpt lat="44.8956618" lon="5.3695444">
<ele>1062.22</ele>
<time>2019-07-25T12:42:10Z</time>
</trkpt>
<trkpt lat="44.8956605" lon="5.3695418">
<ele>1062.23</ele>
<time>2019-07-25T12:42:11Z</time>
</trkpt>
<trkpt lat="44.8956648" lon="5.3695484">
<ele>1062.24</ele>
<time>2019-07-25T12:42:12Z</time>
</trkpt>
<trkpt lat="44.8956754" lon="5.3695572">
<ele>1062.24</ele>
<time>2019-07-25T12:42:13Z</time>
</trkpt>
<trkpt lat="44.8956780" lon="5.3695631">
<ele>1062.26</ele>
<time>2019-07-25T12:42:14Z</time>
</trkpt>
<trkpt lat="44.8956884" lon="5.3695693">
<ele>1062.29</ele>
<time>2019-07-25T12:42:15Z</time>
</trkpt>
<trkpt lat="44.8956776" lon="5.3695677">
<ele>1062.31</ele>
<time>2019-07-25T12:42:16Z</time>
</trkpt>
<trkpt lat="44.8956749" lon="5.3695578">
<ele>1062.32</ele>
<time>2019-07-25T12:42:17Z</time>
</trkpt>
<trkpt lat="44.8956858" lon="5.3695506">
<ele>1062.34</ele>
<time>2019-07-25T12:42:18Z</time>
</trkpt>
<trkpt lat="44.8956803" lon="5.3695619">
<ele>1062.34</ele>
<time>2019-07-25T12:42:19Z</time>
</trkpt>
<trkpt lat="44.8956760" lon="5.3695503">
<ele>1062.36</ele>
<time>2019-07-25T12:42:20Z</time>
</trkpt>
<trkpt lat="44.8956657" lon="5.3695402">
<ele>1062.36</ele>
<time>2019-07-25T12:42:21Z</time>
</trkpt>
<trkpt lat="44.8956709" lon="5.3695415">
<ele>1062.37</ele>
<time>2019-07-25T12:42:22Z</time>
</trkpt>
<trkpt lat="44.8956738" lon="5.3695588">
<ele>1062.38</ele>
<time>2019-07-25T12:42:23Z</time>
</trkpt>
<trkpt lat="44.8956874" lon="5.3695438">
<ele>1062.38</ele>
<time>2019-07-25T12:42:24Z</time>
</trkpt>
<trkpt lat="44.8957028" lon="5.3695478">
<ele>1062.44</ele>
<time>2019-07-25T12:42:25Z</time>
</trkpt>
<trkpt lat="44.8956807" lon="5.3695450">
<ele>1062.47</ele>
<time>2019-07-25T12:42:26Z</time>
</trkpt>
<trkpt lat="44.8956754" lon="5.3695314">
<ele>1062.47</ele>
<time>2019-07-25T12:42:27Z</time>
</trkpt>
<trkpt lat="44.8956749" lon="5.3695541">
<ele>1062.47</ele>
<time>2019-07-25T12:42:28Z</time>
</trkpt>
<trkpt lat="44.8956877" lon="5.3695600">
<ele>1062.45</ele>
<time>2019-07-25T12:42:29Z</time>
</trkpt>
<trkpt lat="44.8956914" lon="5.3695082">
<ele>1062.46</ele>
<time>2019-07-25T12:42:30Z</time>
</trkpt>
<trkpt lat="44.8956833" lon="5.3695303">
<ele>1062.46</ele>
<time>2019-07-25T12:42:31Z</time>
</trkpt>
<trkpt lat="44.8956609" lon="5.3695094">
<ele>1062.46</ele>
<time>2019-07-25T12:42:32Z</time>
</trkpt>
<trkpt lat="44.8956628" lon="5.3695434">
<ele>1062.44</ele>
<time>2019-07-25T12:42:33Z</time>
</trkpt>
<trkpt lat="44.8956591" lon="5.3695461">
<ele>1062.44</ele>
<time>2019-07-25T12:42:34Z</time>
</trkpt>
<trkpt lat="44.8956606" lon="5.3695414">
<ele>1062.37</ele>
<time>2019-07-25T12:42:35Z</time>
</trkpt>
<trkpt lat="44.8956678" lon="5.3695646">
<ele>1062.25</ele>
<time>2019-07-25T12:42:36Z</time>
</trkpt>
<trkpt lat="44.8956682" lon="5.3695649">
<ele>1062.17</ele>
<time>2019-07-25T12:42:37Z</time>
</trkpt>
<trkpt lat="44.8956683" lon="5.3695649">
<ele>1062.13</ele>
<time>2019-07-25T12:42:38Z</time>
</trkpt>
<trkpt lat="44.8956674" lon="5.3695646">
<ele>1062.07</ele>
<time>2019-07-25T12:42:39Z</time>
</trkpt>
<trkpt lat="44.8956669" lon="5.3695642">
<ele>1062.07</ele>
<time>2019-07-25T12:42:40Z</time>
</trkpt>
<trkpt lat="44.8956664" lon="5.3695639">
<ele>1062.07</ele>
<time>2019-07-25T12:42:41Z</time>
</trkpt>
<trkpt lat="44.8956665" lon="5.3695638">
<ele>1062.07</ele>
<time>2019-07-25T12:42:42Z</time>
</trkpt>
<trkpt lat="44.8956695" lon="5.3695633">
<ele>1062.07</ele>
<time>2019-07-25T12:42:43Z</time>
</trkpt>
<trkpt lat="44.8956696" lon="5.3695632">
<ele>1061.98</ele>
<time>2019-07-25T12:42:44Z</time>
</trkpt>
<trkpt lat="44.8956711" lon="5.3695630">
<ele>1061.93</ele>
<time>2019-07-25T12:42:45Z</time>
</trkpt>
<trkpt lat="44.8956741" lon="5.3695627">
<ele>1061.85</ele>
<time>2019-07-25T12:42:46Z</time>
</trkpt>
<trkpt lat="44.8956742" lon="5.3695625">
<ele>1061.82</ele>
<time>2019-07-25T12:42:47Z</time>
</trkpt>
<trkpt lat="44.8956745" lon="5.3695622">
<ele>1061.82</ele>
<time>2019-07-25T12:42:48Z</time>
</trkpt>
<trkpt lat="44.8956743" lon="5.3695624">
<ele>1061.82</ele>
<time>2019-07-25T12:42:49Z</time>
</trkpt>
<trkpt lat="44.8956747" lon="5.3695622">
<ele>1061.82</ele>
<time>2019-07-25T12:42:50Z</time>
</trkpt>
<trkpt lat="44.8956768" lon="5.3695617">
<ele>1061.82</ele>
<time>2019-07-25T12:42:51Z</time>
</trkpt>
<trkpt lat="44.8956790" lon="5.3695612">
<ele>1061.82</ele>
<time>2019-07-25T12:42:52Z</time>
</trkpt>
<trkpt lat="44.8956813" lon="5.3695608">
<ele>1061.83</ele>
<time>2019-07-25T12:42:53Z</time>
</trkpt>
<trkpt lat="44.8956814" lon="5.3695607">
<ele>1061.85</ele>
<time>2019-07-25T12:42:54Z</time>
</trkpt>
<trkpt lat="44.8956823" lon="5.3695604">
<ele>1061.86</ele>
<time>2019-07-25T12:42:55Z</time>
</trkpt>
<trkpt lat="44.8956857" lon="5.3695597">
<ele>1061.86</ele>
<time>2019-07-25T12:42:56Z</time>
</trkpt>
<trkpt lat="44.8956879" lon="5.3695593">
<ele>1061.88</ele>
<time>2019-07-25T12:42:57Z</time>
</trkpt>
<trkpt lat="44.8956879" lon="5.3695593">
<ele>1061.88</ele>
<time>2019-07-25T12:42:58Z</time>
</trkpt>
<trkpt lat="44.8956892" lon="5.3695592">
<ele>1061.87</ele>
<time>2019-07-25T12:42:59Z</time>
</trkpt>
<trkpt lat="44.8956889" lon="5.3695593">
<ele>1061.85</ele>
<time>2019-07-25T12:43:00Z</time>
</trkpt>
<trkpt lat="44.8956879" lon="5.3695594">
<ele>1061.82</ele>
<time>2019-07-25T12:43:01Z</time>
</trkpt>
<trkpt lat="44.8956879" lon="5.3695595">
<ele>1061.78</ele>
<time>2019-07-25T12:43:02Z</time>
</trkpt>
<trkpt lat="44.8956868" lon="5.3695596">
<ele>1061.77</ele>
<time>2019-07-25T12:43:03Z</time>
</trkpt>
<trkpt lat="44.8956869" lon="5.3695597">
<ele>1061.80</ele>
<time>2019-07-25T12:43:04Z</time>
</trkpt>
<trkpt lat="44.8956867" lon="5.3695597">
<ele>1061.81</ele>
<time>2019-07-25T12:43:05Z</time>
</trkpt>
<trkpt lat="44.8956869" lon="5.3695597">
<ele>1061.84</ele>
<time>2019-07-25T12:43:06Z</time>
</trkpt>
<trkpt lat="44.8956874" lon="5.3695598">
<ele>1061.92</ele>
<time>2019-07-25T12:43:07Z</time>
</trkpt>
<trkpt lat="44.8956883" lon="5.3695597">
<ele>1062.00</ele>
<time>2019-07-25T12:43:08Z</time>
</trkpt>
<trkpt lat="44.8956882" lon="5.3695598">
<ele>1062.04</ele>
<time>2019-07-25T12:43:09Z</time>
</trkpt>
<trkpt lat="44.8956886" lon="5.3695599">
<ele>1062.07</ele>
<time>2019-07-25T12:43:10Z</time>
</trkpt>
<trkpt lat="44.8956887" lon="5.3695599">
<ele>1062.12</ele>
<time>2019-07-25T12:43:11Z</time>
</trkpt>
<trkpt lat="44.8956886" lon="5.3695599">
<ele>1062.16</ele>
<time>2019-07-25T12:43:12Z</time>
</trkpt>
<trkpt lat="44.8956878" lon="5.3695600">
<ele>1062.20</ele>
<time>2019-07-25T12:43:13Z</time>
</trkpt>
<trkpt lat="44.8956878" lon="5.3695601">
<ele>1062.25</ele>
<time>2019-07-25T12:43:14Z</time>
</trkpt>
<trkpt lat="44.8956858" lon="5.3695603">
<ele>1062.30</ele>
<time>2019-07-25T12:43:15Z</time>
</trkpt>
<trkpt lat="44.8956854" lon="5.3695603">
<ele>1062.30</ele>
<time>2019-07-25T12:43:16Z</time>
</trkpt>
<trkpt lat="44.8956849" lon="5.3695605">
<ele>1062.30</ele>
<time>2019-07-25T12:43:17Z</time>
</trkpt>
<trkpt lat="44.8956816" lon="5.3695611">
<ele>1062.30</ele>
<time>2019-07-25T12:43:18Z</time>
</trkpt>
<trkpt lat="44.8956743" lon="5.3695629">
<ele>1062.30</ele>
<time>2019-07-25T12:43:19Z</time>
</trkpt>
<trkpt lat="44.8956694" lon="5.3695641">
<ele>1062.30</ele>
<time>2019-07-25T12:43:20Z</time>
</trkpt>
<trkpt lat="44.8956691" lon="5.3695640">
<ele>1062.29</ele>
<time>2019-07-25T12:43:21Z</time>
</trkpt>
<trkpt lat="44.8956682" lon="5.3695644">
<ele>1062.29</ele>
<time>2019-07-25T12:43:22Z</time>
</trkpt>
<trkpt lat="44.8956524" lon="5.3695556">
<ele>1062.29</ele>
<time>2019-07-25T12:43:23Z</time>
</trkpt>
<trkpt lat="44.8956537" lon="5.3695591">
<ele>1062.29</ele>
<time>2019-07-25T12:43:24Z</time>
</trkpt>
<trkpt lat="44.8956499" lon="5.3695546">
<ele>1062.29</ele>
<time>2019-07-25T12:43:25Z</time>
</trkpt>
<trkpt lat="44.8956497" lon="5.3695549">
<ele>1062.27</ele>
<time>2019-07-25T12:43:26Z</time>
</trkpt>
<trkpt lat="44.8956597" lon="5.3695616">
<ele>1062.27</ele>
<time>2019-07-25T12:43:27Z</time>
</trkpt>
<trkpt lat="44.8956595" lon="5.3695615">
<ele>1062.26</ele>
<time>2019-07-25T12:43:28Z</time>
</trkpt>
<trkpt lat="44.8956579" lon="5.3695601">
<ele>1062.26</ele>
<time>2019-07-25T12:43:29Z</time>
</trkpt>
<trkpt lat="44.8956580" lon="5.3695603">
<ele>1062.26</ele>
<time>2019-07-25T12:43:30Z</time>
</trkpt>
<trkpt lat="44.8956587" lon="5.3695612">
<ele>1062.26</ele>
<time>2019-07-25T12:43:31Z</time>
</trkpt>
<trkpt lat="44.8956585" lon="5.3695610">
<ele>1062.26</ele>
<time>2019-07-25T12:43:32Z</time>
</trkpt>
<trkpt lat="44.8956586" lon="5.3695612">
<ele>1062.26</ele>
<time>2019-07-25T12:43:33Z</time>
</trkpt>
<trkpt lat="44.8956587" lon="5.3695613">
<ele>1062.26</ele>
<time>2019-07-25T12:43:34Z</time>
</trkpt>
<trkpt lat="44.8956580" lon="5.3695609">
<ele>1062.14</ele>
<time>2019-07-25T12:43:35Z</time>
</trkpt>
<trkpt lat="44.8956597" lon="5.3695661">
<ele>1062.09</ele>
<time>2019-07-25T12:43:36Z</time>
</trkpt>
<trkpt lat="44.8956558" lon="5.3695642">
<ele>1062.08</ele>
<time>2019-07-25T12:43:37Z</time>
</trkpt>
<trkpt lat="44.8956622" lon="5.3695752">
<ele>1062.11</ele>
<time>2019-07-25T12:43:38Z</time>
</trkpt>
<trkpt lat="44.8956640" lon="5.3695771">
<ele>1062.22</ele>
<time>2019-07-25T12:43:39Z</time>
</trkpt>
<trkpt lat="44.8956640" lon="5.3695772">
<ele>1062.35</ele>
<time>2019-07-25T12:43:40Z</time>
</trkpt>
<trkpt lat="44.8956630" lon="5.3695761">
<ele>1062.41</ele>
<time>2019-07-25T12:43:41Z</time>
</trkpt>
<trkpt lat="44.8956626" lon="5.3695756">
<ele>1062.46</ele>
<time>2019-07-25T12:43:42Z</time>
</trkpt>
<trkpt lat="44.8956626" lon="5.3695757">
<ele>1062.46</ele>
<time>2019-07-25T12:43:43Z</time>
</trkpt>
<trkpt lat="44.8956634" lon="5.3695767">
<ele>1062.46</ele>
<time>2019-07-25T12:43:44Z</time>
</trkpt>
<trkpt lat="44.8956633" lon="5.3695766">
<ele>1062.43</ele>
<time>2019-07-25T12:43:45Z</time>
</trkpt>
<trkpt lat="44.8956631" lon="5.3695764">
<ele>1062.36</ele>
<time>2019-07-25T12:43:46Z</time>
</trkpt>
<trkpt lat="44.8956627" lon="5.3695762">
<ele>1062.27</ele>
<time>2019-07-25T12:43:47Z</time>
</trkpt>
<trkpt lat="44.8956618" lon="5.3695752">
<ele>1062.15</ele>
<time>2019-07-25T12:43:48Z</time>
</trkpt>
<trkpt lat="44.8956619" lon="5.3695752">
<ele>1061.98</ele>
<time>2019-07-25T12:43:49Z</time>
</trkpt>
<trkpt lat="44.8956618" lon="5.3695752">
<ele>1061.75</ele>
<time>2019-07-25T12:43:50Z</time>
</trkpt>
<trkpt lat="44.8956605" lon="5.3695738">
<ele>1061.51</ele>
<time>2019-07-25T12:43:51Z</time>
</trkpt>
<trkpt lat="44.8956604" lon="5.3695738">
<ele>1061.51</ele>
<time>2019-07-25T12:43:52Z</time>
</trkpt>
<trkpt lat="44.8956608" lon="5.3695742">
<ele>1061.51</ele>
<time>2019-07-25T12:43:53Z</time>
</trkpt>
<trkpt lat="44.8956605" lon="5.3695740">
<ele>1061.16</ele>
<time>2019-07-25T12:43:54Z</time>
</trkpt>
<trkpt lat="44.8956604" lon="5.3695739">
<ele>1060.85</ele>
<time>2019-07-25T12:43:55Z</time>
</trkpt>
<trkpt lat="44.8956574" lon="5.3695712">
<ele>1060.54</ele>
<time>2019-07-25T12:43:56Z</time>
</trkpt>
<trkpt lat="44.8956556" lon="5.3695696">
<ele>1060.25</ele>
<time>2019-07-25T12:43:57Z</time>
</trkpt>
<trkpt lat="44.8956554" lon="5.3695693">
<ele>1060.25</ele>
<time>2019-07-25T12:43:58Z</time>
</trkpt>
<trkpt lat="44.8956527" lon="5.3695671">
<ele>1060.24</ele>
<time>2019-07-25T12:43:59Z</time>
</trkpt>
<trkpt lat="44.8956522" lon="5.3695669">
<ele>1059.87</ele>
<time>2019-07-25T12:44:00Z</time>
</trkpt>
<trkpt lat="44.8956521" lon="5.3695669">
<ele>1059.53</ele>
<time>2019-07-25T12:44:01Z</time>
</trkpt>
<trkpt lat="44.8956518" lon="5.3695667">
<ele>1059.20</ele>
<time>2019-07-25T12:44:02Z</time>
</trkpt>
<trkpt lat="44.8956512" lon="5.3695662">
<ele>1058.93</ele>
<time>2019-07-25T12:44:03Z</time>
</trkpt>
<trkpt lat="44.8956512" lon="5.3695663">
<ele>1058.72</ele>
<time>2019-07-25T12:44:04Z</time>
</trkpt>
<trkpt lat="44.8956511" lon="5.3695663">
<ele>1058.48</ele>
<time>2019-07-25T12:44:05Z</time>
</trkpt>
<trkpt lat="44.8956489" lon="5.3695646">
<ele>1058.28</ele>
<time>2019-07-25T12:44:06Z</time>
</trkpt>
<trkpt lat="44.8956488" lon="5.3695648">
<ele>1058.28</ele>
<time>2019-07-25T12:44:07Z</time>
</trkpt>
<trkpt lat="44.8956483" lon="5.3695644">
<ele>1058.28</ele>
<time>2019-07-25T12:44:08Z</time>
</trkpt>
<trkpt lat="44.8956474" lon="5.3695637">
<ele>1058.20</ele>
<time>2019-07-25T12:44:09Z</time>
</trkpt>
<trkpt lat="44.8956450" lon="5.3695619">
<ele>1058.20</ele>
<time>2019-07-25T12:44:10Z</time>
</trkpt>
<trkpt lat="44.8956438" lon="5.3695610">
<ele>1058.20</ele>
<time>2019-07-25T12:44:11Z</time>
</trkpt>
<trkpt lat="44.8956410" lon="5.3695589">
<ele>1058.27</ele>
<time>2019-07-25T12:44:12Z</time>
</trkpt>
<trkpt lat="44.8956403" lon="5.3695584">
<ele>1058.32</ele>
<time>2019-07-25T12:44:13Z</time>
</trkpt>
<trkpt lat="44.8956395" lon="5.3695581">
<ele>1058.35</ele>
<time>2019-07-25T12:44:14Z</time>
</trkpt>
<trkpt lat="44.8956396" lon="5.3695581">
<ele>1058.35</ele>
<time>2019-07-25T12:44:15Z</time>
</trkpt>
<trkpt lat="44.8956386" lon="5.3695586">
<ele>1058.35</ele>
<time>2019-07-25T12:44:16Z</time>
</trkpt>
<trkpt lat="44.8956382" lon="5.3695589">
<ele>1058.35</ele>
<time>2019-07-25T12:44:17Z</time>
</trkpt>
<trkpt lat="44.8956380" lon="5.3695592">
<ele>1058.30</ele>
<time>2019-07-25T12:44:18Z</time>
</trkpt>
<trkpt lat="44.8956345" lon="5.3695621">
<ele>1058.27</ele>
<time>2019-07-25T12:44:19Z</time>
</trkpt>
<trkpt lat="44.8956344" lon="5.3695621">
<ele>1058.21</ele>
<time>2019-07-25T12:44:20Z</time>
</trkpt>
<trkpt lat="44.8956347" lon="5.3695618">
<ele>1058.11</ele>
<time>2019-07-25T12:44:21Z</time>
</trkpt>
<trkpt lat="44.8956354" lon="5.3695615">
<ele>1058.00</ele>
<time>2019-07-25T12:44:22Z</time>
</trkpt>
<trkpt lat="44.8956358" lon="5.3695614">
<ele>1057.89</ele>
<time>2019-07-25T12:44:23Z</time>
</trkpt>
<trkpt lat="44.8956369" lon="5.3695608">
<ele>1057.76</ele>
<time>2019-07-25T12:44:24Z</time>
</trkpt>
<trkpt lat="44.8956405" lon="5.3695594">
<ele>1057.76</ele>
<time>2019-07-25T12:44:25Z</time>
</trkpt>
<trkpt lat="44.8956407" lon="5.3695593">
<ele>1057.76</ele>
<time>2019-07-25T12:44:26Z</time>
</trkpt>
<trkpt lat="44.8956411" lon="5.3695591">
<ele>1057.75</ele>
<time>2019-07-25T12:44:27Z</time>
</trkpt>
<trkpt lat="44.8956415" lon="5.3695590">
<ele>1057.75</ele>
<time>2019-07-25T12:44:28Z</time>
</trkpt>
<trkpt lat="44.8956421" lon="5.3695587">
<ele>1057.75</ele>
<time>2019-07-25T12:44:29Z</time>
</trkpt>
<trkpt lat="44.8956424" lon="5.3695585">
<ele>1057.74</ele>
<time>2019-07-25T12:44:30Z</time>
</trkpt>
<trkpt lat="44.8956425" lon="5.3695584">
<ele>1057.39</ele>
<time>2019-07-25T12:44:31Z</time>
</trkpt>
<trkpt lat="44.8956432" lon="5.3695582">
<ele>1057.06</ele>
<time>2019-07-25T12:44:32Z</time>
</trkpt>
<trkpt lat="44.8956451" lon="5.3695578">
<ele>1057.06</ele>
<time>2019-07-25T12:44:33Z</time>
</trkpt>
<trkpt lat="44.8956462" lon="5.3695576">
<ele>1057.06</ele>
<time>2019-07-25T12:44:34Z</time>
</trkpt>
<trkpt lat="44.8956462" lon="5.3695575">
<ele>1057.06</ele>
<time>2019-07-25T12:44:35Z</time>
</trkpt>
<trkpt lat="44.8956466" lon="5.3695574">
<ele>1057.05</ele>
<time>2019-07-25T12:44:36Z</time>
</trkpt>
<trkpt lat="44.8956467" lon="5.3695572">
<ele>1057.05</ele>
<time>2019-07-25T12:44:37Z</time>
</trkpt>
<trkpt lat="44.8956469" lon="5.3695573">
<ele>1057.05</ele>
<time>2019-07-25T12:44:38Z</time>
</trkpt>
<trkpt lat="44.8956479" lon="5.3695572">
<ele>1057.04</ele>
<time>2019-07-25T12:44:39Z</time>
</trkpt>
<trkpt lat="44.8956491" lon="5.3695569">
<ele>1057.04</ele>
<time>2019-07-25T12:44:40Z</time>
</trkpt>
<trkpt lat="44.8956492" lon="5.3695570">
<ele>1057.04</ele>
<time>2019-07-25T12:44:41Z</time>
</trkpt>
<trkpt lat="44.8956499" lon="5.3695569">
<ele>1057.03</ele>
<time>2019-07-25T12:44:42Z</time>
</trkpt>
<trkpt lat="44.8956502" lon="5.3695569">
<ele>1057.03</ele>
<time>2019-07-25T12:44:43Z</time>
</trkpt>
<trkpt lat="44.8956513" lon="5.3695566">
<ele>1057.03</ele>
<time>2019-07-25T12:44:44Z</time>
</trkpt>
<trkpt lat="44.8956513" lon="5.3695566">
<ele>1057.02</ele>
<time>2019-07-25T12:44:45Z</time>
</trkpt>
<trkpt lat="44.8956513" lon="5.3695567">
<ele>1057.02</ele>
<time>2019-07-25T12:44:46Z</time>
</trkpt>
<trkpt lat="44.8956502" lon="5.3695573">
<ele>1057.02</ele>
<time>2019-07-25T12:44:47Z</time>
</trkpt>
<trkpt lat="44.8956474" lon="5.3695584">
<ele>1057.02</ele>
<time>2019-07-25T12:44:48Z</time>
</trkpt>
<trkpt lat="44.8956430" lon="5.3695600">
<ele>1057.01</ele>
<time>2019-07-25T12:44:49Z</time>
</trkpt>
<trkpt lat="44.8956723" lon="5.3695513">
<ele>1056.98</ele>
<time>2019-07-25T12:44:50Z</time>
</trkpt>
<trkpt lat="44.8956959" lon="5.3695433">
<ele>1056.96</ele>
<time>2019-07-25T12:44:51Z</time>
</trkpt>
<trkpt lat="44.8957173" lon="5.3695348">
<ele>1056.93</ele>
<time>2019-07-25T12:44:52Z</time>
</trkpt>
<trkpt lat="44.8957141" lon="5.3695309">
<ele>1056.90</ele>
<time>2019-07-25T12:44:53Z</time>
</trkpt>
<trkpt lat="44.8957193" lon="5.3695440">
<ele>1056.87</ele>
<time>2019-07-25T12:44:54Z</time>
</trkpt>
<trkpt lat="44.8957209" lon="5.3695435">
<ele>1056.86</ele>
<time>2019-07-25T12:44:55Z</time>
</trkpt>
<trkpt lat="44.8957403" lon="5.3695387">
<ele>1056.86</ele>
<time>2019-07-25T12:44:56Z</time>
</trkpt>
<trkpt lat="44.8957403" lon="5.3695387">
<ele>1056.86</ele>
<time>2019-07-25T12:44:57Z</time>
</trkpt>
<trkpt lat="44.8957394" lon="5.3695390">
<ele>1056.85</ele>
<time>2019-07-25T12:44:58Z</time>
</trkpt>
<trkpt lat="44.8957365" lon="5.3695392">
<ele>1056.85</ele>
<time>2019-07-25T12:44:59Z</time>
</trkpt>
<trkpt lat="44.8957365" lon="5.3695392">
<ele>1056.84</ele>
<time>2019-07-25T12:45:00Z</time>
</trkpt>
<trkpt lat="44.8957359" lon="5.3695391">
<ele>1056.84</ele>
<time>2019-07-25T12:45:01Z</time>
</trkpt>
<trkpt lat="44.8957361" lon="5.3695391">
<ele>1056.83</ele>
<time>2019-07-25T12:45:02Z</time>
</trkpt>
<trkpt lat="44.8957355" lon="5.3695391">
<ele>1056.83</ele>
<time>2019-07-25T12:45:03Z</time>
</trkpt>
<trkpt lat="44.8957357" lon="5.3695391">
<ele>1056.82</ele>
<time>2019-07-25T12:45:04Z</time>
</trkpt>
<trkpt lat="44.8957371" lon="5.3695387">
<ele>1056.82</ele>
<time>2019-07-25T12:45:05Z</time>
</trkpt>
<trkpt lat="44.8957371" lon="5.3695388">
<ele>1056.81</ele>
<time>2019-07-25T12:45:06Z</time>
</trkpt>
<trkpt lat="44.8957358" lon="5.3695390">
<ele>1056.81</ele>
<time>2019-07-25T12:45:07Z</time>
</trkpt>
<trkpt lat="44.8957359" lon="5.3695390">
<ele>1056.80</ele>
<time>2019-07-25T12:45:08Z</time>
</trkpt>
<trkpt lat="44.8957378" lon="5.3695387">
<ele>1056.79</ele>
<time>2019-07-25T12:45:09Z</time>
</trkpt>
<trkpt lat="44.8957377" lon="5.3695387">
<ele>1056.78</ele>
<time>2019-07-25T12:45:10Z</time>
</trkpt>
<trkpt lat="44.8957372" lon="5.3695390">
<ele>1056.78</ele>
<time>2019-07-25T12:45:11Z</time>
</trkpt>
<trkpt lat="44.8957369" lon="5.3695391">
<ele>1056.77</ele>
<time>2019-07-25T12:45:12Z</time>
</trkpt>
<trkpt lat="44.8957357" lon="5.3695397">
<ele>1056.76</ele>
<time>2019-07-25T12:45:13Z</time>
</trkpt>
<trkpt lat="44.8957333" lon="5.3695404">
<ele>1056.76</ele>
<time>2019-07-25T12:45:14Z</time>
</trkpt>
<trkpt lat="44.8957334" lon="5.3695405">
<ele>1056.75</ele>
<time>2019-07-25T12:45:15Z</time>
</trkpt>
<trkpt lat="44.8957317" lon="5.3695410">
<ele>1056.74</ele>
<time>2019-07-25T12:45:16Z</time>
</trkpt>
<trkpt lat="44.8957295" lon="5.3695416">
<ele>1056.74</ele>
<time>2019-07-25T12:45:17Z</time>
</trkpt>
<trkpt lat="44.8957281" lon="5.3695422">
<ele>1056.73</ele>
<time>2019-07-25T12:45:18Z</time>
</trkpt>
<trkpt lat="44.8957278" lon="5.3695425">
<ele>1056.72</ele>
<time>2019-07-25T12:45:19Z</time>
</trkpt>
<trkpt lat="44.8957268" lon="5.3695431">
<ele>1056.72</ele>
<time>2019-07-25T12:45:20Z</time>
</trkpt>
<trkpt lat="44.8957268" lon="5.3695434">
<ele>1056.72</ele>
<time>2019-07-25T12:45:21Z</time>
</trkpt>
<trkpt lat="44.8957271" lon="5.3695435">
<ele>1056.71</ele>
<time>2019-07-25T12:45:22Z</time>
</trkpt>
<trkpt lat="44.8957272" lon="5.3695435">
<ele>1056.71</ele>
<time>2019-07-25T12:45:23Z</time>
</trkpt>
<trkpt lat="44.8957276" lon="5.3695436">
<ele>1056.70</ele>
<time>2019-07-25T12:45:24Z</time>
</trkpt>
<trkpt lat="44.8957273" lon="5.3695439">
<ele>1056.33</ele>
<time>2019-07-25T12:45:25Z</time>
</trkpt>
<trkpt lat="44.8957238" lon="5.3695541">
<ele>1056.33</ele>
<time>2019-07-25T12:45:26Z</time>
</trkpt>
<trkpt lat="44.8957252" lon="5.3695559">
<ele>1056.32</ele>
<time>2019-07-25T12:45:27Z</time>
</trkpt>
<trkpt lat="44.8957089" lon="5.3695669">
<ele>1056.30</ele>
<time>2019-07-25T12:45:28Z</time>
</trkpt>
<trkpt lat="44.8956985" lon="5.3695821">
<ele>1056.29</ele>
<time>2019-07-25T12:45:29Z</time>
</trkpt>
<trkpt lat="44.8956978" lon="5.3695850">
<ele>1056.28</ele>
<time>2019-07-25T12:45:30Z</time>
</trkpt>
<trkpt lat="44.8956982" lon="5.3695845">
<ele>1056.08</ele>
<time>2019-07-25T12:45:31Z</time>
</trkpt>
<trkpt lat="44.8957027" lon="5.3695846">
<ele>1055.95</ele>
<time>2019-07-25T12:45:32Z</time>
</trkpt>
<trkpt lat="44.8956877" lon="5.3695938">
<ele>1055.93</ele>
<time>2019-07-25T12:45:33Z</time>
</trkpt>
<trkpt lat="44.8956841" lon="5.3695967">
<ele>1055.77</ele>
<time>2019-07-25T12:45:34Z</time>
</trkpt>
<trkpt lat="44.8956926" lon="5.3695932">
<ele>1055.64</ele>
<time>2019-07-25T12:45:35Z</time>
</trkpt>
<trkpt lat="44.8956875" lon="5.3696006">
<ele>1055.63</ele>
<time>2019-07-25T12:45:36Z</time>
</trkpt>
<trkpt lat="44.8956853" lon="5.3695994">
<ele>1055.51</ele>
<time>2019-07-25T12:45:37Z</time>
</trkpt>
<trkpt lat="44.8956858" lon="5.3695995">
<ele>1055.42</ele>
<time>2019-07-25T12:45:38Z</time>
</trkpt>
<trkpt lat="44.8956866" lon="5.3695986">
<ele>1055.42</ele>
<time>2019-07-25T12:45:39Z</time>
</trkpt>
<trkpt lat="44.8956872" lon="5.3695985">
<ele>1055.42</ele>
<time>2019-07-25T12:45:40Z</time>
</trkpt>
<trkpt lat="44.8956868" lon="5.3695991">
<ele>1055.42</ele>
<time>2019-07-25T12:45:41Z</time>
</trkpt>
<trkpt lat="44.8956870" lon="5.3695989">
<ele>1055.42</ele>
<time>2019-07-25T12:45:42Z</time>
</trkpt>
<trkpt lat="44.8956874" lon="5.3695987">
<ele>1055.42</ele>
<time>2019-07-25T12:45:43Z</time>
</trkpt>
<trkpt lat="44.8956874" lon="5.3695988">
<ele>1055.38</ele>
<time>2019-07-25T12:45:44Z</time>
</trkpt>
<trkpt lat="44.8956875" lon="5.3695987">
<ele>1055.36</ele>
<time>2019-07-25T12:45:45Z</time>
</trkpt>
<trkpt lat="44.8956880" lon="5.3695984">
<ele>1055.34</ele>
<time>2019-07-25T12:45:46Z</time>
</trkpt>
<trkpt lat="44.8956879" lon="5.3695984">
<ele>1055.29</ele>
<time>2019-07-25T12:45:47Z</time>
</trkpt>
<trkpt lat="44.8956881" lon="5.3695982">
<ele>1055.20</ele>
<time>2019-07-25T12:45:48Z</time>
</trkpt>
<trkpt lat="44.8956880" lon="5.3695983">
<ele>1055.06</ele>
<time>2019-07-25T12:45:49Z</time>
</trkpt>
<trkpt lat="44.8956878" lon="5.3695986">
<ele>1054.95</ele>
<time>2019-07-25T12:45:50Z</time>
</trkpt>
<trkpt lat="44.8956880" lon="5.3695985">
<ele>1054.86</ele>
<time>2019-07-25T12:45:51Z</time>
</trkpt>
<trkpt lat="44.8956875" lon="5.3695989">
<ele>1054.77</ele>
<time>2019-07-25T12:45:52Z</time>
</trkpt>
<trkpt lat="44.8956878" lon="5.3695987">
<ele>1054.77</ele>
<time>2019-07-25T12:45:53Z</time>
</trkpt>
<trkpt lat="44.8956880" lon="5.3695986">
<ele>1054.77</ele>
<time>2019-07-25T12:45:54Z</time>
</trkpt>
<trkpt lat="44.8956883" lon="5.3695982">
<ele>1054.65</ele>
<time>2019-07-25T12:45:55Z</time>
</trkpt>
<trkpt lat="44.8956892" lon="5.3695975">
<ele>1054.54</ele>
<time>2019-07-25T12:45:56Z</time>
</trkpt>
<trkpt lat="44.8956892" lon="5.3695975">
<ele>1054.47</ele>
<time>2019-07-25T12:45:57Z</time>
</trkpt>
<trkpt lat="44.8956889" lon="5.3695978">
<ele>1054.38</ele>
<time>2019-07-25T12:45:58Z</time>
</trkpt>
<trkpt lat="44.8956873" lon="5.3695991">
<ele>1054.31</ele>
<time>2019-07-25T12:45:59Z</time>
</trkpt>
<trkpt lat="44.8956872" lon="5.3695991">
<ele>1054.22</ele>
<time>2019-07-25T12:46:00Z</time>
</trkpt>
<trkpt lat="44.8956862" lon="5.3695999">
<ele>1054.10</ele>
<time>2019-07-25T12:46:01Z</time>
</trkpt>
<trkpt lat="44.8956928" lon="5.3695953">
<ele>1054.03</ele>
<time>2019-07-25T12:46:02Z</time>
</trkpt>
<trkpt lat="44.8956943" lon="5.3695895">
<ele>1053.97</ele>
<time>2019-07-25T12:46:03Z</time>
</trkpt>
<trkpt lat="44.8956919" lon="5.3695927">
<ele>1053.96</ele>
<time>2019-07-25T12:46:04Z</time>
</trkpt>
<trkpt lat="44.8956915" lon="5.3695928">
<ele>1053.96</ele>
<time>2019-07-25T12:46:05Z</time>
</trkpt>
<trkpt lat="44.8956920" lon="5.3695930">
<ele>1053.96</ele>
<time>2019-07-25T12:46:06Z</time>
</trkpt>
<trkpt lat="44.8956916" lon="5.3695932">
<ele>1053.96</ele>
<time>2019-07-25T12:46:07Z</time>
</trkpt>
<trkpt lat="44.8956911" lon="5.3695935">
<ele>1053.96</ele>
<time>2019-07-25T12:46:08Z</time>
</trkpt>
<trkpt lat="44.8956911" lon="5.3695936">
<ele>1053.96</ele>
<time>2019-07-25T12:46:09Z</time>
</trkpt>
<trkpt lat="44.8956909" lon="5.3695938">
<ele>1053.96</ele>
<time>2019-07-25T12:46:10Z</time>
</trkpt>
<trkpt lat="44.8956909" lon="5.3695940">
<ele>1053.82</ele>
<time>2019-07-25T12:46:11Z</time>
</trkpt>
<trkpt lat="44.8956913" lon="5.3695937">
<ele>1053.82</ele>
<time>2019-07-25T12:46:12Z</time>
</trkpt>
<trkpt lat="44.8956912" lon="5.3695939">
<ele>1053.82</ele>
<time>2019-07-25T12:46:13Z</time>
</trkpt>
<trkpt lat="44.8956912" lon="5.3695938">
<ele>1053.82</ele>
<time>2019-07-25T12:46:14Z</time>
</trkpt>
<trkpt lat="44.8956920" lon="5.3695935">
<ele>1053.82</ele>
<time>2019-07-25T12:46:15Z</time>
</trkpt>
<trkpt lat="44.8956936" lon="5.3695923">
<ele>1053.82</ele>
<time>2019-07-25T12:46:16Z</time>
</trkpt>
<trkpt lat="44.8956936" lon="5.3695923">
<ele>1053.78</ele>
<time>2019-07-25T12:46:17Z</time>
</trkpt>
<trkpt lat="44.8956982" lon="5.3695891">
<ele>1053.78</ele>
<time>2019-07-25T12:46:18Z</time>
</trkpt>
<trkpt lat="44.8956987" lon="5.3695886">
<ele>1053.70</ele>
<time>2019-07-25T12:46:19Z</time>
</trkpt>
<trkpt lat="44.8956982" lon="5.3695888">
<ele>1053.62</ele>
<time>2019-07-25T12:46:20Z</time>
</trkpt>
<trkpt lat="44.8956996" lon="5.3695878">
<ele>1053.62</ele>
<time>2019-07-25T12:46:21Z</time>
</trkpt>
<trkpt lat="44.8956994" lon="5.3695876">
<ele>1053.62</ele>
<time>2019-07-25T12:46:22Z</time>
</trkpt>
<trkpt lat="44.8956996" lon="5.3695873">
<ele>1053.62</ele>
<time>2019-07-25T12:46:23Z</time>
</trkpt>
<trkpt lat="44.8957008" lon="5.3695863">
<ele>1053.61</ele>
<time>2019-07-25T12:46:24Z</time>
</trkpt>
<trkpt lat="44.8957009" lon="5.3695861">
<ele>1053.61</ele>
<time>2019-07-25T12:46:25Z</time>
</trkpt>
<trkpt lat="44.8957010" lon="5.3695862">
<ele>1053.61</ele>
<time>2019-07-25T12:46:26Z</time>
</trkpt>
<trkpt lat="44.8957006" lon="5.3695862">
<ele>1053.48</ele>
<time>2019-07-25T12:46:27Z</time>
</trkpt>
<trkpt lat="44.8957006" lon="5.3695861">
<ele>1053.36</ele>
<time>2019-07-25T12:46:28Z</time>
</trkpt>
<trkpt lat="44.8956997" lon="5.3695863">
<ele>1053.36</ele>
<time>2019-07-25T12:46:29Z</time>
</trkpt>
<trkpt lat="44.8957000" lon="5.3695858">
<ele>1053.35</ele>
<time>2019-07-25T12:46:30Z</time>
</trkpt>
<trkpt lat="44.8956998" lon="5.3695858">
<ele>1053.35</ele>
<time>2019-07-25T12:46:31Z</time>
</trkpt>
<trkpt lat="44.8956993" lon="5.3695859">
<ele>1053.35</ele>
<time>2019-07-25T12:46:32Z</time>
</trkpt>
<trkpt lat="44.8956982" lon="5.3695866">
<ele>1053.35</ele>
<time>2019-07-25T12:46:33Z</time>
</trkpt>
<trkpt lat="44.8956967" lon="5.3695879">
<ele>1053.35</ele>
<time>2019-07-25T12:46:34Z</time>
</trkpt>
<trkpt lat="44.8956966" lon="5.3695880">
<ele>1053.08</ele>
<time>2019-07-25T12:46:35Z</time>
</trkpt>
<trkpt lat="44.8956965" lon="5.3695881">
<ele>1052.86</ele>
<time>2019-07-25T12:46:36Z</time>
</trkpt>
<trkpt lat="44.8956963" lon="5.3695884">
<ele>1052.86</ele>
<time>2019-07-25T12:46:37Z</time>
</trkpt>
<trkpt lat="44.8956963" lon="5.3695884">
<ele>1052.86</ele>
<time>2019-07-25T12:46:38Z</time>
</trkpt>
<trkpt lat="44.8956985" lon="5.3695864">
<ele>1052.86</ele>
<time>2019-07-25T12:46:39Z</time>
</trkpt>
<trkpt lat="44.8956995" lon="5.3695857">
<ele>1052.85</ele>
<time>2019-07-25T12:46:40Z</time>
</trkpt>
<trkpt lat="44.8956996" lon="5.3695857">
<ele>1052.85</ele>
<time>2019-07-25T12:46:41Z</time>
</trkpt>
<trkpt lat="44.8956998" lon="5.3695856">
<ele>1052.85</ele>
<time>2019-07-25T12:46:42Z</time>
</trkpt>
<trkpt lat="44.8956996" lon="5.3695860">
<ele>1052.85</ele>
<time>2019-07-25T12:46:43Z</time>
</trkpt>
<trkpt lat="44.8956995" lon="5.3695861">
<ele>1052.85</ele>
<time>2019-07-25T12:46:44Z</time>
</trkpt>
<trkpt lat="44.8956996" lon="5.3695861">
<ele>1052.85</ele>
<time>2019-07-25T12:46:45Z</time>
</trkpt>
<trkpt lat="44.8956996" lon="5.3695861">
<ele>1052.84</ele>
<time>2019-07-25T12:46:46Z</time>
</trkpt>
<trkpt lat="44.8956996" lon="5.3695861">
<ele>1052.84</ele>
<time>2019-07-25T12:46:47Z</time>
</trkpt>
<trkpt lat="44.8956994" lon="5.3695863">
<ele>1052.69</ele>
<time>2019-07-25T12:46:48Z</time>
</trkpt>
<trkpt lat="44.8956990" lon="5.3695868">
<ele>1052.69</ele>
<time>2019-07-25T12:46:49Z</time>
</trkpt>
<trkpt lat="44.8956957" lon="5.3695882">
<ele>1052.69</ele>
<time>2019-07-25T12:46:50Z</time>
</trkpt>
<trkpt lat="44.8956955" lon="5.3695883">
<ele>1052.69</ele>
<time>2019-07-25T12:46:51Z</time>
</trkpt>
<trkpt lat="44.8956957" lon="5.3695883">
<ele>1052.74</ele>
<time>2019-07-25T12:46:52Z</time>
</trkpt>
<trkpt lat="44.8956974" lon="5.3695878">
<ele>1052.81</ele>
<time>2019-07-25T12:46:53Z</time>
</trkpt>
<trkpt lat="44.8956980" lon="5.3695877">
<ele>1052.89</ele>
<time>2019-07-25T12:46:54Z</time>
</trkpt>
<trkpt lat="44.8957010" lon="5.3695867">
<ele>1052.89</ele>
<time>2019-07-25T12:46:55Z</time>
</trkpt>
<trkpt lat="44.8957010" lon="5.3695867">
<ele>1052.90</ele>
<time>2019-07-25T12:46:56Z</time>
</trkpt>
<trkpt lat="44.8957010" lon="5.3695868">
<ele>1052.90</ele>
<time>2019-07-25T12:46:57Z</time>
</trkpt>
<trkpt lat="44.8957007" lon="5.3695869">
<ele>1052.90</ele>
<time>2019-07-25T12:46:58Z</time>
</trkpt>
<trkpt lat="44.8957005" lon="5.3695871">
<ele>1052.90</ele>
<time>2019-07-25T12:46:59Z</time>
</trkpt>
<trkpt lat="44.8956982" lon="5.3695885">
<ele>1052.90</ele>
<time>2019-07-25T12:47:00Z</time>
</trkpt>
<trkpt lat="44.8956983" lon="5.3695887">
<ele>1052.90</ele>
<time>2019-07-25T12:47:01Z</time>
</trkpt>
<trkpt lat="44.8956985" lon="5.3695886">
<ele>1052.91</ele>
<time>2019-07-25T12:47:02Z</time>
</trkpt>
<trkpt lat="44.8956984" lon="5.3695887">
<ele>1052.91</ele>
<time>2019-07-25T12:47:03Z</time>
</trkpt>
<trkpt lat="44.8956985" lon="5.3695885">
<ele>1052.91</ele>
<time>2019-07-25T12:47:04Z</time>
</trkpt>
<trkpt lat="44.8956984" lon="5.3695887">
<ele>1052.92</ele>
<time>2019-07-25T12:47:05Z</time>
</trkpt>
<trkpt lat="44.8956983" lon="5.3695887">
<ele>1052.92</ele>
<time>2019-07-25T12:47:06Z</time>
</trkpt>
<trkpt lat="44.8956982" lon="5.3695887">
<ele>1052.93</ele>
<time>2019-07-25T12:47:07Z</time>
</trkpt>
<trkpt lat="44.8956980" lon="5.3695888">
<ele>1053.29</ele>
<time>2019-07-25T12:47:08Z</time>
</trkpt>
<trkpt lat="44.8956981" lon="5.3695888">
<ele>1053.29</ele>
<time>2019-07-25T12:47:09Z</time>
</trkpt>
<trkpt lat="44.8956982" lon="5.3695887">
<ele>1053.30</ele>
<time>2019-07-25T12:47:10Z</time>
</trkpt>
<trkpt lat="44.8956985" lon="5.3695885">
<ele>1053.52</ele>
<time>2019-07-25T12:47:11Z</time>
</trkpt>
<trkpt lat="44.8956986" lon="5.3695886">
<ele>1053.72</ele>
<time>2019-07-25T12:47:12Z</time>
</trkpt>
<trkpt lat="44.8956992" lon="5.3695882">
<ele>1053.90</ele>
<time>2019-07-25T12:47:13Z</time>
</trkpt>
<trkpt lat="44.8956996" lon="5.3695879">
<ele>1054.01</ele>
<time>2019-07-25T12:47:14Z</time>
</trkpt>
<trkpt lat="44.8957009" lon="5.3695873">
<ele>1054.12</ele>
<time>2019-07-25T12:47:15Z</time>
</trkpt>
<trkpt lat="44.8957020" lon="5.3695867">
<ele>1054.21</ele>
<time>2019-07-25T12:47:16Z</time>
</trkpt>
<trkpt lat="44.8957028" lon="5.3695862">
<ele>1054.28</ele>
<time>2019-07-25T12:47:17Z</time>
</trkpt>
<trkpt lat="44.8957047" lon="5.3695849">
<ele>1054.28</ele>
<time>2019-07-25T12:47:18Z</time>
</trkpt>
<trkpt lat="44.8957059" lon="5.3695845">
<ele>1054.28</ele>
<time>2019-07-25T12:47:19Z</time>
</trkpt>
<trkpt lat="44.8957065" lon="5.3695844">
<ele>1054.34</ele>
<time>2019-07-25T12:47:20Z</time>
</trkpt>
<trkpt lat="44.8957079" lon="5.3695841">
<ele>1054.34</ele>
<time>2019-07-25T12:47:21Z</time>
</trkpt>
<trkpt lat="44.8957080" lon="5.3695844">
<ele>1054.34</ele>
<time>2019-07-25T12:47:22Z</time>
</trkpt>
<trkpt lat="44.8957081" lon="5.3695849">
<ele>1054.35</ele>
<time>2019-07-25T12:47:23Z</time>
</trkpt>
<trkpt lat="44.8957087" lon="5.3695840">
<ele>1054.35</ele>
<time>2019-07-25T12:47:24Z</time>
</trkpt>
<trkpt lat="44.8957096" lon="5.3695824">
<ele>1054.35</ele>
<time>2019-07-25T12:47:25Z</time>
</trkpt>
<trkpt lat="44.8957105" lon="5.3695806">
<ele>1054.35</ele>
<time>2019-07-25T12:47:26Z</time>
</trkpt>
<trkpt lat="44.8957114" lon="5.3695790">
<ele>1054.36</ele>
<time>2019-07-25T12:47:27Z</time>
</trkpt>
<trkpt lat="44.8957120" lon="5.3695777">
<ele>1054.36</ele>
<time>2019-07-25T12:47:28Z</time>
</trkpt>
<trkpt lat="44.8957152" lon="5.3695750">
<ele>1054.36</ele>
<time>2019-07-25T12:47:29Z</time>
</trkpt>
<trkpt lat="44.8957106" lon="5.3695792">
<ele>1054.40</ele>
<time>2019-07-25T12:47:30Z</time>
</trkpt>
<trkpt lat="44.8957105" lon="5.3695796">
<ele>1054.40</ele>
<time>2019-07-25T12:47:31Z</time>
</trkpt>
<trkpt lat="44.8957055" lon="5.3695873">
<ele>1054.43</ele>
<time>2019-07-25T12:47:32Z</time>
</trkpt>
<trkpt lat="44.8957054" lon="5.3695881">
<ele>1054.44</ele>
<time>2019-07-25T12:47:33Z</time>
</trkpt>
<trkpt lat="44.8956733" lon="5.3695978">
<ele>1054.47</ele>
<time>2019-07-25T12:47:34Z</time>
</trkpt>
<trkpt lat="44.8956636" lon="5.3695995">
<ele>1054.47</ele>
<time>2019-07-25T12:47:35Z</time>
</trkpt>
<trkpt lat="44.8956516" lon="5.3695966">
<ele>1054.48</ele>
<time>2019-07-25T12:47:36Z</time>
</trkpt>
<trkpt lat="44.8956330" lon="5.3696119">
<ele>1054.48</ele>
<time>2019-07-25T12:47:37Z</time>
</trkpt>
<trkpt lat="44.8956373" lon="5.3696384">
<ele>1054.48</ele>
<time>2019-07-25T12:47:38Z</time>
</trkpt>
<trkpt lat="44.8956454" lon="5.3696257">
<ele>1054.49</ele>
<time>2019-07-25T12:47:39Z</time>
</trkpt>
<trkpt lat="44.8956602" lon="5.3696365">
<ele>1054.52</ele>
<time>2019-07-25T12:47:40Z</time>
</trkpt>
<trkpt lat="44.8956625" lon="5.3696373">
<ele>1054.56</ele>
<time>2019-07-25T12:47:41Z</time>
</trkpt>
<trkpt lat="44.8956632" lon="5.3696360">
<ele>1054.89</ele>
<time>2019-07-25T12:47:42Z</time>
</trkpt>
<trkpt lat="44.8956629" lon="5.3696367">
<ele>1055.23</ele>
<time>2019-07-25T12:47:43Z</time>
</trkpt>
<trkpt lat="44.8956628" lon="5.3696367">
<ele>1055.24</ele>
<time>2019-07-25T12:47:44Z</time>
</trkpt>
<trkpt lat="44.8956625" lon="5.3696370">
<ele>1055.24</ele>
<time>2019-07-25T12:47:45Z</time>
</trkpt>
<trkpt lat="44.8956622" lon="5.3696375">
<ele>1055.24</ele>
<time>2019-07-25T12:47:46Z</time>
</trkpt>
<trkpt lat="44.8956622" lon="5.3696375">
<ele>1055.25</ele>
<time>2019-07-25T12:47:47Z</time>
</trkpt>
<trkpt lat="44.8956623" lon="5.3696375">
<ele>1055.25</ele>
<time>2019-07-25T12:47:48Z</time>
</trkpt>
<trkpt lat="44.8956623" lon="5.3696374">
<ele>1055.25</ele>
<time>2019-07-25T12:47:49Z</time>
</trkpt>
<trkpt lat="44.8956624" lon="5.3696372">
<ele>1055.26</ele>
<time>2019-07-25T12:47:50Z</time>
</trkpt>
<trkpt lat="44.8956634" lon="5.3696339">
<ele>1055.26</ele>
<time>2019-07-25T12:47:51Z</time>
</trkpt>
<trkpt lat="44.8956634" lon="5.3696338">
<ele>1055.27</ele>
<time>2019-07-25T12:47:52Z</time>
</trkpt>
<trkpt lat="44.8956634" lon="5.3696340">
<ele>1055.27</ele>
<time>2019-07-25T12:47:53Z</time>
</trkpt>
<trkpt lat="44.8956633" lon="5.3696341">
<ele>1055.75</ele>
<time>2019-07-25T12:47:54Z</time>
</trkpt>
<trkpt lat="44.8956632" lon="5.3696346">
<ele>1055.76</ele>
<time>2019-07-25T12:47:55Z</time>
</trkpt>
<trkpt lat="44.8956630" lon="5.3696357">
<ele>1055.76</ele>
<time>2019-07-25T12:47:56Z</time>
</trkpt>
<trkpt lat="44.8956630" lon="5.3696355">
<ele>1056.25</ele>
<time>2019-07-25T12:47:57Z</time>
</trkpt>
<trkpt lat="44.8956630" lon="5.3696357">
<ele>1056.65</ele>
<time>2019-07-25T12:47:58Z</time>
</trkpt>
<trkpt lat="44.8956630" lon="5.3696354">
<ele>1056.98</ele>
<time>2019-07-25T12:47:59Z</time>
</trkpt>
<trkpt lat="44.8956629" lon="5.3696353">
<ele>1056.98</ele>
<time>2019-07-25T12:48:00Z</time>
</trkpt>
<trkpt lat="44.8956629" lon="5.3696358">
<ele>1056.98</ele>
<time>2019-07-25T12:48:01Z</time>
</trkpt>
<trkpt lat="44.8956629" lon="5.3696356">
<ele>1056.99</ele>
<time>2019-07-25T12:48:02Z</time>
</trkpt>
<trkpt lat="44.8956628" lon="5.3696358">
<ele>1056.99</ele>
<time>2019-07-25T12:48:03Z</time>
</trkpt>
<trkpt lat="44.8956628" lon="5.3696361">
<ele>1056.99</ele>
<time>2019-07-25T12:48:04Z</time>
</trkpt>
<trkpt lat="44.8956627" lon="5.3696360">
<ele>1056.99</ele>
<time>2019-07-25T12:48:05Z</time>
</trkpt>
<trkpt lat="44.8956626" lon="5.3696364">
<ele>1057.00</ele>
<time>2019-07-25T12:48:06Z</time>
</trkpt>
<trkpt lat="44.8956625" lon="5.3696368">
<ele>1057.00</ele>
<time>2019-07-25T12:48:07Z</time>
</trkpt>
<trkpt lat="44.8956622" lon="5.3696377">
<ele>1057.01</ele>
<time>2019-07-25T12:48:08Z</time>
</trkpt>
<trkpt lat="44.8956618" lon="5.3696396">
<ele>1057.01</ele>
<time>2019-07-25T12:48:09Z</time>
</trkpt>
<trkpt lat="44.8956609" lon="5.3696428">
<ele>1057.02</ele>
<time>2019-07-25T12:48:10Z</time>
</trkpt>
<trkpt lat="44.8956602" lon="5.3696448">
<ele>1057.02</ele>
<time>2019-07-25T12:48:11Z</time>
</trkpt>
<trkpt lat="44.8956600" lon="5.3696460">
<ele>1057.03</ele>
<time>2019-07-25T12:48:12Z</time>
</trkpt>
<trkpt lat="44.8956599" lon="5.3696466">
<ele>1057.03</ele>
<time>2019-07-25T12:48:13Z</time>
</trkpt>
<trkpt lat="44.8956599" lon="5.3696467">
<ele>1057.04</ele>
<time>2019-07-25T12:48:14Z</time>
</trkpt>
<trkpt lat="44.8956599" lon="5.3696470">
<ele>1057.04</ele>
<time>2019-07-25T12:48:15Z</time>
</trkpt>
<trkpt lat="44.8956593" lon="5.3696493">
<ele>1057.05</ele>
<time>2019-07-25T12:48:16Z</time>
</trkpt>
<trkpt lat="44.8956592" lon="5.3696494">
<ele>1057.05</ele>
<time>2019-07-25T12:48:17Z</time>
</trkpt>
<trkpt lat="44.8956582" lon="5.3696533">
<ele>1057.06</ele>
<time>2019-07-25T12:48:18Z</time>
</trkpt>
<trkpt lat="44.8956580" lon="5.3696550">
<ele>1057.06</ele>
<time>2019-07-25T12:48:19Z</time>
</trkpt>
<trkpt lat="44.8956579" lon="5.3696549">
<ele>1057.07</ele>
<time>2019-07-25T12:48:20Z</time>
</trkpt>
<trkpt lat="44.8956579" lon="5.3696552">
<ele>1057.07</ele>
<time>2019-07-25T12:48:21Z</time>
</trkpt>
<trkpt lat="44.8956579" lon="5.3696549">
<ele>1057.08</ele>
<time>2019-07-25T12:48:22Z</time>
</trkpt>
<trkpt lat="44.8956577" lon="5.3696549">
<ele>1057.08</ele>
<time>2019-07-25T12:48:23Z</time>
</trkpt>
<trkpt lat="44.8956577" lon="5.3696547">
<ele>1057.09</ele>
<time>2019-07-25T12:48:24Z</time>
</trkpt>
<trkpt lat="44.8956576" lon="5.3696542">
<ele>1057.09</ele>
<time>2019-07-25T12:48:25Z</time>
</trkpt>
<trkpt lat="44.8956577" lon="5.3696536">
<ele>1057.10</ele>
<time>2019-07-25T12:48:26Z</time>
</trkpt>
<trkpt lat="44.8956576" lon="5.3696530">
<ele>1057.10</ele>
<time>2019-07-25T12:48:27Z</time>
</trkpt>
<trkpt lat="44.8956579" lon="5.3696517">
<ele>1057.10</ele>
<time>2019-07-25T12:48:28Z</time>
</trkpt>
<trkpt lat="44.8956578" lon="5.3696511">
<ele>1057.10</ele>
<time>2019-07-25T12:48:29Z</time>
</trkpt>
<trkpt lat="44.8956579" lon="5.3696508">
<ele>1057.11</ele>
<time>2019-07-25T12:48:30Z</time>
</trkpt>
<trkpt lat="44.8956579" lon="5.3696505">
<ele>1057.11</ele>
<time>2019-07-25T12:48:31Z</time>
</trkpt>
<trkpt lat="44.8956577" lon="5.3696507">
<ele>1057.29</ele>
<time>2019-07-25T12:48:32Z</time>
</trkpt>
<trkpt lat="44.8956577" lon="5.3696506">
<ele>1057.42</ele>
<time>2019-07-25T12:48:33Z</time>
</trkpt>
<trkpt lat="44.8956577" lon="5.3696504">
<ele>1057.50</ele>
<time>2019-07-25T12:48:34Z</time>
</trkpt>
<trkpt lat="44.8956579" lon="5.3696501">
<ele>1057.50</ele>
<time>2019-07-25T12:48:35Z</time>
</trkpt>
<trkpt lat="44.8956578" lon="5.3696502">
<ele>1057.59</ele>
<time>2019-07-25T12:48:36Z</time>
</trkpt>
<trkpt lat="44.8956577" lon="5.3696506">
<ele>1057.64</ele>
<time>2019-07-25T12:48:37Z</time>
</trkpt>
<trkpt lat="44.8956523" lon="5.3696433">
<ele>1057.62</ele>
<time>2019-07-25T12:48:38Z</time>
</trkpt>
<trkpt lat="44.8956556" lon="5.3696412">
<ele>1057.61</ele>
<time>2019-07-25T12:48:39Z</time>
</trkpt>
<trkpt lat="44.8956539" lon="5.3696261">
<ele>1057.58</ele>
<time>2019-07-25T12:48:40Z</time>
</trkpt>
<trkpt lat="44.8956591" lon="5.3696169">
<ele>1057.59</ele>
<time>2019-07-25T12:48:41Z</time>
</trkpt>
<trkpt lat="44.8956647" lon="5.3695990">
<ele>1057.61</ele>
<time>2019-07-25T12:48:42Z</time>
</trkpt>
<trkpt lat="44.8956651" lon="5.3695972">
<ele>1057.64</ele>
<time>2019-07-25T12:48:43Z</time>
</trkpt>
<trkpt lat="44.8956648" lon="5.3695979">
<ele>1057.68</ele>
<time>2019-07-25T12:48:44Z</time>
</trkpt>
<trkpt lat="44.8956648" lon="5.3695981">
<ele>1057.79</ele>
<time>2019-07-25T12:48:45Z</time>
</trkpt>
<trkpt lat="44.8956651" lon="5.3695978">
<ele>1057.93</ele>
<time>2019-07-25T12:48:46Z</time>
</trkpt>
<trkpt lat="44.8956651" lon="5.3695980">
<ele>1058.07</ele>
<time>2019-07-25T12:48:47Z</time>
</trkpt>
<trkpt lat="44.8956639" lon="5.3696006">
<ele>1058.08</ele>
<time>2019-07-25T12:48:48Z</time>
</trkpt>
<trkpt lat="44.8956634" lon="5.3696021">
<ele>1058.08</ele>
<time>2019-07-25T12:48:49Z</time>
</trkpt>
<trkpt lat="44.8956633" lon="5.3696026">
<ele>1058.08</ele>
<time>2019-07-25T12:48:50Z</time>
</trkpt>
<trkpt lat="44.8956634" lon="5.3696026">
<ele>1058.20</ele>
<time>2019-07-25T12:48:51Z</time>
</trkpt>
<trkpt lat="44.8956634" lon="5.3696026">
<ele>1058.20</ele>
<time>2019-07-25T12:48:52Z</time>
</trkpt>
<trkpt lat="44.8956633" lon="5.3696027">
<ele>1058.21</ele>
<time>2019-07-25T12:48:53Z</time>
</trkpt>
<trkpt lat="44.8956635" lon="5.3696025">
<ele>1058.21</ele>
<time>2019-07-25T12:48:54Z</time>
</trkpt>
<trkpt lat="44.8956636" lon="5.3696023">
<ele>1058.21</ele>
<time>2019-07-25T12:48:55Z</time>
</trkpt>
<trkpt lat="44.8956637" lon="5.3696022">
<ele>1058.21</ele>
<time>2019-07-25T12:48:56Z</time>
</trkpt>
<trkpt lat="44.8956638" lon="5.3696016">
<ele>1058.21</ele>
<time>2019-07-25T12:48:57Z</time>
</trkpt>
<trkpt lat="44.8956642" lon="5.3695994">
<ele>1058.21</ele>
<time>2019-07-25T12:48:58Z</time>
</trkpt>
<trkpt lat="44.8956642" lon="5.3695993">
<ele>1058.21</ele>
<time>2019-07-25T12:48:59Z</time>
</trkpt>
<trkpt lat="44.8956643" lon="5.3695989">
<ele>1058.21</ele>
<time>2019-07-25T12:49:00Z</time>
</trkpt>
<trkpt lat="44.8956644" lon="5.3695985">
<ele>1058.21</ele>
<time>2019-07-25T12:49:01Z</time>
</trkpt>
<trkpt lat="44.8956644" lon="5.3695983">
<ele>1058.21</ele>
<time>2019-07-25T12:49:02Z</time>
</trkpt>
<trkpt lat="44.8956644" lon="5.3695984">
<ele>1058.21</ele>
<time>2019-07-25T12:49:03Z</time>
</trkpt>
<trkpt lat="44.8956644" lon="5.3695982">
<ele>1058.21</ele>
<time>2019-07-25T12:49:04Z</time>
</trkpt>
<trkpt lat="44.8956643" lon="5.3695982">
<ele>1058.21</ele>
<time>2019-07-25T12:49:05Z</time>
</trkpt>
<trkpt lat="44.8956641" lon="5.3695988">
<ele>1058.21</ele>
<time>2019-07-25T12:49:06Z</time>
</trkpt>
<trkpt lat="44.8956638" lon="5.3695998">
<ele>1058.21</ele>
<time>2019-07-25T12:49:07Z</time>
</trkpt>
<trkpt lat="44.8956635" lon="5.3696009">
<ele>1058.21</ele>
<time>2019-07-25T12:49:08Z</time>
</trkpt>
<trkpt lat="44.8956633" lon="5.3696008">
<ele>1058.21</ele>
<time>2019-07-25T12:49:09Z</time>
</trkpt>
<trkpt lat="44.8956631" lon="5.3696014">
<ele>1058.20</ele>
<time>2019-07-25T12:49:10Z</time>
</trkpt>
<trkpt lat="44.8956627" lon="5.3696021">
<ele>1058.20</ele>
<time>2019-07-25T12:49:11Z</time>
</trkpt>
<trkpt lat="44.8956617" lon="5.3696039">
<ele>1058.20</ele>
<time>2019-07-25T12:49:12Z</time>
</trkpt>
<trkpt lat="44.8956609" lon="5.3696055">
<ele>1058.19</ele>
<time>2019-07-25T12:49:13Z</time>
</trkpt>
<trkpt lat="44.8956603" lon="5.3696063">
<ele>1058.19</ele>
<time>2019-07-25T12:49:14Z</time>
</trkpt>
<trkpt lat="44.8956603" lon="5.3696064">
<ele>1058.19</ele>
<time>2019-07-25T12:49:15Z</time>
</trkpt>
<trkpt lat="44.8956602" lon="5.3696063">
<ele>1058.18</ele>
<time>2019-07-25T12:49:16Z</time>
</trkpt>
<trkpt lat="44.8956603" lon="5.3696059">
<ele>1058.18</ele>
<time>2019-07-25T12:49:17Z</time>
</trkpt>
<trkpt lat="44.8956603" lon="5.3696059">
<ele>1058.18</ele>
<time>2019-07-25T12:49:18Z</time>
</trkpt>
<trkpt lat="44.8956602" lon="5.3696060">
<ele>1058.17</ele>
<time>2019-07-25T12:49:19Z</time>
</trkpt>
<trkpt lat="44.8956603" lon="5.3696060">
<ele>1058.17</ele>
<time>2019-07-25T12:49:20Z</time>
</trkpt>
<trkpt lat="44.8956603" lon="5.3696059">
<ele>1058.16</ele>
<time>2019-07-25T12:49:21Z</time>
</trkpt>
<trkpt lat="44.8956606" lon="5.3696057">
<ele>1058.16</ele>
<time>2019-07-25T12:49:22Z</time>
</trkpt>
<trkpt lat="44.8956609" lon="5.3696053">
<ele>1058.16</ele>
<time>2019-07-25T12:49:23Z</time>
</trkpt>
<trkpt lat="44.8956614" lon="5.3696046">
<ele>1058.15</ele>
<time>2019-07-25T12:49:24Z</time>
</trkpt>
<trkpt lat="44.8956617" lon="5.3696037">
<ele>1058.15</ele>
<time>2019-07-25T12:49:25Z</time>
</trkpt>
<trkpt lat="44.8956616" lon="5.3696039">
<ele>1058.15</ele>
<time>2019-07-25T12:49:26Z</time>
</trkpt>
<trkpt lat="44.8956615" lon="5.3696040">
<ele>1058.14</ele>
<time>2019-07-25T12:49:27Z</time>
</trkpt>
<trkpt lat="44.8956614" lon="5.3696041">
<ele>1058.14</ele>
<time>2019-07-25T12:49:28Z</time>
</trkpt>
<trkpt lat="44.8956617" lon="5.3696033">
<ele>1058.13</ele>
<time>2019-07-25T12:49:29Z</time>
</trkpt>
<trkpt lat="44.8956617" lon="5.3696030">
<ele>1058.13</ele>
<time>2019-07-25T12:49:30Z</time>
</trkpt>
<trkpt lat="44.8956616" lon="5.3696030">
<ele>1057.73</ele>
<time>2019-07-25T12:49:31Z</time>
</trkpt>
<trkpt lat="44.8956617" lon="5.3696029">
<ele>1057.44</ele>
<time>2019-07-25T12:49:32Z</time>
</trkpt>
<trkpt lat="44.8956617" lon="5.3696026">
<ele>1057.44</ele>
<time>2019-07-25T12:49:33Z</time>
</trkpt>
<trkpt lat="44.8956618" lon="5.3696025">
<ele>1057.44</ele>
<time>2019-07-25T12:49:34Z</time>
</trkpt>
<trkpt lat="44.8956617" lon="5.3696026">
<ele>1057.43</ele>
<time>2019-07-25T12:49:35Z</time>
</trkpt>
<trkpt lat="44.8956617" lon="5.3696026">
<ele>1057.43</ele>
<time>2019-07-25T12:49:36Z</time>
</trkpt>
<trkpt lat="44.8956618" lon="5.3696025">
<ele>1057.43</ele>
<time>2019-07-25T12:49:37Z</time>
</trkpt>
<trkpt lat="44.8956617" lon="5.3696024">
<ele>1057.43</ele>
<time>2019-07-25T12:49:38Z</time>
</trkpt>
<trkpt lat="44.8956607" lon="5.3696034">
<ele>1057.43</ele>
<time>2019-07-25T12:49:39Z</time>
</trkpt>
<trkpt lat="44.8956606" lon="5.3696033">
<ele>1057.43</ele>
<time>2019-07-25T12:49:40Z</time>
</trkpt>
<trkpt lat="44.8956606" lon="5.3696032">
<ele>1057.27</ele>
<time>2019-07-25T12:49:41Z</time>
</trkpt>
<trkpt lat="44.8956590" lon="5.3695982">
<ele>1057.16</ele>
<time>2019-07-25T12:49:42Z</time>
</trkpt>
<trkpt lat="44.8956588" lon="5.3695989">
<ele>1057.10</ele>
<time>2019-07-25T12:49:43Z</time>
</trkpt>
<trkpt lat="44.8956597" lon="5.3695986">
<ele>1057.08</ele>
<time>2019-07-25T12:49:44Z</time>
</trkpt>
<trkpt lat="44.8956601" lon="5.3696003">
<ele>1057.08</ele>
<time>2019-07-25T12:49:45Z</time>
</trkpt>
<trkpt lat="44.8956605" lon="5.3695993">
<ele>1057.08</ele>
<time>2019-07-25T12:49:46Z</time>
</trkpt>
<trkpt lat="44.8956617" lon="5.3695986">
<ele>1057.08</ele>
<time>2019-07-25T12:49:47Z</time>
</trkpt>
<trkpt lat="44.8956532" lon="5.3696116">
<ele>1057.08</ele>
<time>2019-07-25T12:49:48Z</time>
</trkpt>
<trkpt lat="44.8956430" lon="5.3696315">
<ele>1057.08</ele>
<time>2019-07-25T12:49:49Z</time>
</trkpt>
<trkpt lat="44.8956381" lon="5.3696431">
<ele>1057.08</ele>
<time>2019-07-25T12:49:50Z</time>
</trkpt>
<trkpt lat="44.8956402" lon="5.3696445">
<ele>1057.07</ele>
<time>2019-07-25T12:49:51Z</time>
</trkpt>
<trkpt lat="44.8956354" lon="5.3696561">
<ele>1057.01</ele>
<time>2019-07-25T12:49:52Z</time>
</trkpt>
<trkpt lat="44.8956260" lon="5.3696537">
<ele>1056.93</ele>
<time>2019-07-25T12:49:53Z</time>
</trkpt>
<trkpt lat="44.8956263" lon="5.3696533">
<ele>1056.91</ele>
<time>2019-07-25T12:49:54Z</time>
</trkpt>
<trkpt lat="44.8956271" lon="5.3696542">
<ele>1056.86</ele>
<time>2019-07-25T12:49:55Z</time>
</trkpt>
<trkpt lat="44.8956274" lon="5.3696546">
<ele>1056.84</ele>
<time>2019-07-25T12:49:56Z</time>
</trkpt>
<trkpt lat="44.8956270" lon="5.3696551">
<ele>1056.84</ele>
<time>2019-07-25T12:49:57Z</time>
</trkpt>
<trkpt lat="44.8956277" lon="5.3696556">
<ele>1056.84</ele>
<time>2019-07-25T12:49:58Z</time>
</trkpt>
<trkpt lat="44.8956271" lon="5.3696555">
<ele>1056.84</ele>
<time>2019-07-25T12:49:59Z</time>
</trkpt>
<trkpt lat="44.8956267" lon="5.3696555">
<ele>1056.84</ele>
<time>2019-07-25T12:50:00Z</time>
</trkpt>
<trkpt lat="44.8956250" lon="5.3696577">
<ele>1056.84</ele>
<time>2019-07-25T12:50:01Z</time>
</trkpt>
<trkpt lat="44.8956263" lon="5.3696504">
<ele>1056.84</ele>
<time>2019-07-25T12:50:02Z</time>
</trkpt>
<trkpt lat="44.8956251" lon="5.3696521">
<ele>1056.65</ele>
<time>2019-07-25T12:50:03Z</time>
</trkpt>
<trkpt lat="44.8956252" lon="5.3696477">
<ele>1056.46</ele>
<time>2019-07-25T12:50:04Z</time>
</trkpt>
<trkpt lat="44.8956254" lon="5.3696476">
<ele>1056.33</ele>
<time>2019-07-25T12:50:05Z</time>
</trkpt>
<trkpt lat="44.8956237" lon="5.3696490">
<ele>1056.33</ele>
<time>2019-07-25T12:50:06Z</time>
</trkpt>
<trkpt lat="44.8956238" lon="5.3696488">
<ele>1056.33</ele>
<time>2019-07-25T12:50:07Z</time>
</trkpt>
<trkpt lat="44.8956242" lon="5.3696486">
<ele>1056.28</ele>
<time>2019-07-25T12:50:08Z</time>
</trkpt>
<trkpt lat="44.8956243" lon="5.3696472">
<ele>1056.19</ele>
<time>2019-07-25T12:50:09Z</time>
</trkpt>
<trkpt lat="44.8956251" lon="5.3696462">
<ele>1056.12</ele>
<time>2019-07-25T12:50:10Z</time>
</trkpt>
<trkpt lat="44.8956239" lon="5.3696474">
<ele>1056.12</ele>
<time>2019-07-25T12:50:11Z</time>
</trkpt>
<trkpt lat="44.8956239" lon="5.3696458">
<ele>1056.12</ele>
<time>2019-07-25T12:50:12Z</time>
</trkpt>
<trkpt lat="44.8956242" lon="5.3696457">
<ele>1056.12</ele>
<time>2019-07-25T12:50:13Z</time>
</trkpt>
<trkpt lat="44.8956179" lon="5.3696505">
<ele>1056.12</ele>
<time>2019-07-25T12:50:14Z</time>
</trkpt>
<trkpt lat="44.8956200" lon="5.3696484">
<ele>1056.12</ele>
<time>2019-07-25T12:50:15Z</time>
</trkpt>
<trkpt lat="44.8956223" lon="5.3696436">
<ele>1056.10</ele>
<time>2019-07-25T12:50:16Z</time>
</trkpt>
<trkpt lat="44.8956261" lon="5.3696406">
<ele>1056.10</ele>
<time>2019-07-25T12:50:17Z</time>
</trkpt>
<trkpt lat="44.8956211" lon="5.3696388">
<ele>1056.10</ele>
<time>2019-07-25T12:50:18Z</time>
</trkpt>
<trkpt lat="44.8956184" lon="5.3696389">
<ele>1056.09</ele>
<time>2019-07-25T12:50:19Z</time>
</trkpt>
<trkpt lat="44.8956193" lon="5.3696392">
<ele>1056.08</ele>
<time>2019-07-25T12:50:20Z</time>
</trkpt>
<trkpt lat="44.8956101" lon="5.3696521">
<ele>1056.00</ele>
<time>2019-07-25T12:50:21Z</time>
</trkpt>
<trkpt lat="44.8956050" lon="5.3696599">
<ele>1055.97</ele>
<time>2019-07-25T12:50:22Z</time>
</trkpt>
<trkpt lat="44.8956123" lon="5.3696569">
<ele>1055.97</ele>
<time>2019-07-25T12:50:23Z</time>
</trkpt>
<trkpt lat="44.8956144" lon="5.3696558">
<ele>1055.99</ele>
<time>2019-07-25T12:50:24Z</time>
</trkpt>
<trkpt lat="44.8956099" lon="5.3696602">
<ele>1056.00</ele>
<time>2019-07-25T12:50:25Z</time>
</trkpt>
<trkpt lat="44.8956101" lon="5.3696607">
<ele>1056.00</ele>
<time>2019-07-25T12:50:26Z</time>
</trkpt>
<trkpt lat="44.8956108" lon="5.3696598">
<ele>1056.00</ele>
<time>2019-07-25T12:50:27Z</time>
</trkpt>
<trkpt lat="44.8956104" lon="5.3696613">
<ele>1055.99</ele>
<time>2019-07-25T12:50:28Z</time>
</trkpt>
<trkpt lat="44.8956106" lon="5.3696629">
<ele>1055.99</ele>
<time>2019-07-25T12:50:29Z</time>
</trkpt>
<trkpt lat="44.8956162" lon="5.3696619">
<ele>1055.99</ele>
<time>2019-07-25T12:50:30Z</time>
</trkpt>
<trkpt lat="44.8956137" lon="5.3696620">
<ele>1055.97</ele>
<time>2019-07-25T12:50:31Z</time>
</trkpt>
<trkpt lat="44.8956232" lon="5.3696590">
<ele>1055.98</ele>
<time>2019-07-25T12:50:32Z</time>
</trkpt>
<trkpt lat="44.8956207" lon="5.3696602">
<ele>1055.99</ele>
<time>2019-07-25T12:50:33Z</time>
</trkpt>
<trkpt lat="44.8956320" lon="5.3696841">
<ele>1055.99</ele>
<time>2019-07-25T12:50:34Z</time>
</trkpt>
<trkpt lat="44.8956306" lon="5.3696845">
<ele>1055.99</ele>
<time>2019-07-25T12:50:35Z</time>
</trkpt>
<trkpt lat="44.8956321" lon="5.3696841">
<ele>1056.03</ele>
<time>2019-07-25T12:50:36Z</time>
</trkpt>
<trkpt lat="44.8956324" lon="5.3696839">
<ele>1056.03</ele>
<time>2019-07-25T12:50:37Z</time>
</trkpt>
<trkpt lat="44.8956328" lon="5.3696834">
<ele>1055.99</ele>
<time>2019-07-25T12:50:38Z</time>
</trkpt>
<trkpt lat="44.8956329" lon="5.3696832">
<ele>1055.93</ele>
<time>2019-07-25T12:50:39Z</time>
</trkpt>
<trkpt lat="44.8956318" lon="5.3696835">
<ele>1055.93</ele>
<time>2019-07-25T12:50:40Z</time>
</trkpt>
<trkpt lat="44.8956319" lon="5.3696832">
<ele>1055.89</ele>
<time>2019-07-25T12:50:41Z</time>
</trkpt>
<trkpt lat="44.8956319" lon="5.3696831">
<ele>1055.79</ele>
<time>2019-07-25T12:50:42Z</time>
</trkpt>
<trkpt lat="44.8956317" lon="5.3696830">
<ele>1055.70</ele>
<time>2019-07-25T12:50:43Z</time>
</trkpt>
<trkpt lat="44.8956322" lon="5.3696827">
<ele>1055.65</ele>
<time>2019-07-25T12:50:44Z</time>
</trkpt>
<trkpt lat="44.8956349" lon="5.3696814">
<ele>1055.58</ele>
<time>2019-07-25T12:50:45Z</time>
</trkpt>
<trkpt lat="44.8956349" lon="5.3696814">
<ele>1055.52</ele>
<time>2019-07-25T12:50:46Z</time>
</trkpt>
<trkpt lat="44.8956347" lon="5.3696816">
<ele>1055.52</ele>
<time>2019-07-25T12:50:47Z</time>
</trkpt>
<trkpt lat="44.8956339" lon="5.3696818">
<ele>1055.52</ele>
<time>2019-07-25T12:50:48Z</time>
</trkpt>
<trkpt lat="44.8956333" lon="5.3696818">
<ele>1055.47</ele>
<time>2019-07-25T12:50:49Z</time>
</trkpt>
<trkpt lat="44.8956330" lon="5.3696818">
<ele>1055.47</ele>
<time>2019-07-25T12:50:50Z</time>
</trkpt>
<trkpt lat="44.8956333" lon="5.3696816">
<ele>1055.45</ele>
<time>2019-07-25T12:50:51Z</time>
</trkpt>
<trkpt lat="44.8956339" lon="5.3696811">
<ele>1055.40</ele>
<time>2019-07-25T12:50:52Z</time>
</trkpt>
<trkpt lat="44.8956350" lon="5.3696805">
<ele>1055.34</ele>
<time>2019-07-25T12:50:53Z</time>
</trkpt>
<trkpt lat="44.8956359" lon="5.3696795">
<ele>1055.24</ele>
<time>2019-07-25T12:50:54Z</time>
</trkpt>
<trkpt lat="44.8956356" lon="5.3696792">
<ele>1055.14</ele>
<time>2019-07-25T12:50:55Z</time>
</trkpt>
<trkpt lat="44.8956355" lon="5.3696791">
<ele>1055.06</ele>
<time>2019-07-25T12:50:56Z</time>
</trkpt>
<trkpt lat="44.8956309" lon="5.3696811">
<ele>1054.96</ele>
<time>2019-07-25T12:50:57Z</time>
</trkpt>
<trkpt lat="44.8956308" lon="5.3696811">
<ele>1054.88</ele>
<time>2019-07-25T12:50:58Z</time>
</trkpt>
<trkpt lat="44.8956306" lon="5.3696811">
<ele>1054.83</ele>
<time>2019-07-25T12:50:59Z</time>
</trkpt>
<trkpt lat="44.8956298" lon="5.3696817">
<ele>1054.78</ele>
<time>2019-07-25T12:51:00Z</time>
</trkpt>
<trkpt lat="44.8956290" lon="5.3696821">
<ele>1054.71</ele>
<time>2019-07-25T12:51:01Z</time>
</trkpt>
<trkpt lat="44.8956290" lon="5.3696821">
<ele>1054.65</ele>
<time>2019-07-25T12:51:02Z</time>
</trkpt>
<trkpt lat="44.8956279" lon="5.3696824">
<ele>1054.60</ele>
<time>2019-07-25T12:51:03Z</time>
</trkpt>
<trkpt lat="44.8956274" lon="5.3696826">
<ele>1054.59</ele>
<time>2019-07-25T12:51:04Z</time>
</trkpt>
<trkpt lat="44.8956255" lon="5.3696834">
<ele>1054.56</ele>
<time>2019-07-25T12:51:05Z</time>
</trkpt>
<trkpt lat="44.8956254" lon="5.3696836">
<ele>1054.50</ele>
<time>2019-07-25T12:51:06Z</time>
</trkpt>
<trkpt lat="44.8956250" lon="5.3696837">
<ele>1054.48</ele>
<time>2019-07-25T12:51:07Z</time>
</trkpt>
<trkpt lat="44.8956226" lon="5.3696842">
<ele>1054.45</ele>
<time>2019-07-25T12:51:08Z</time>
</trkpt>
<trkpt lat="44.8956193" lon="5.3696853">
<ele>1054.44</ele>
<time>2019-07-25T12:51:09Z</time>
</trkpt>
<trkpt lat="44.8956177" lon="5.3696860">
<ele>1054.45</ele>
<time>2019-07-25T12:51:10Z</time>
</trkpt>
<trkpt lat="44.8956175" lon="5.3696857">
<ele>1054.45</ele>
<time>2019-07-25T12:51:11Z</time>
</trkpt>
<trkpt lat="44.8956171" lon="5.3696857">
<ele>1054.49</ele>
<time>2019-07-25T12:51:12Z</time>
</trkpt>
<trkpt lat="44.8956132" lon="5.3696868">
<ele>1054.53</ele>
<time>2019-07-25T12:51:13Z</time>
</trkpt>
<trkpt lat="44.8956106" lon="5.3696877">
<ele>1054.58</ele>
<time>2019-07-25T12:51:14Z</time>
</trkpt>
<trkpt lat="44.8956107" lon="5.3696880">
<ele>1054.62</ele>
<time>2019-07-25T12:51:15Z</time>
</trkpt>
<trkpt lat="44.8956086" lon="5.3696890">
<ele>1054.64</ele>
<time>2019-07-25T12:51:16Z</time>
</trkpt>
<trkpt lat="44.8956049" lon="5.3696905">
<ele>1054.63</ele>
<time>2019-07-25T12:51:17Z</time>
</trkpt>
<trkpt lat="44.8956013" lon="5.3696948">
<ele>1054.64</ele>
<time>2019-07-25T12:51:18Z</time>
</trkpt>
<trkpt lat="44.8956014" lon="5.3696947">
<ele>1054.64</ele>
<time>2019-07-25T12:51:19Z</time>
</trkpt>
<trkpt lat="44.8956000" lon="5.3696965">
<ele>1054.77</ele>
<time>2019-07-25T12:51:20Z</time>
</trkpt>
<trkpt lat="44.8956006" lon="5.3696958">
<ele>1054.77</ele>
<time>2019-07-25T12:51:21Z</time>
</trkpt>
<trkpt lat="44.8956018" lon="5.3696940">
<ele>1054.77</ele>
<time>2019-07-25T12:51:22Z</time>
</trkpt>
<trkpt lat="44.8956019" lon="5.3696940">
<ele>1054.77</ele>
<time>2019-07-25T12:51:23Z</time>
</trkpt>
<trkpt lat="44.8956026" lon="5.3696934">
<ele>1054.77</ele>
<time>2019-07-25T12:51:24Z</time>
</trkpt>
<trkpt lat="44.8956070" lon="5.3696936">
<ele>1055.14</ele>
<time>2019-07-25T12:51:25Z</time>
</trkpt>
<trkpt lat="44.8956177" lon="5.3696902">
<ele>1055.52</ele>
<time>2019-07-25T12:51:26Z</time>
</trkpt>
<trkpt lat="44.8956167" lon="5.3696863">
<ele>1055.86</ele>
<time>2019-07-25T12:51:27Z</time>
</trkpt>
<trkpt lat="44.8956240" lon="5.3696701">
<ele>1056.19</ele>
<time>2019-07-25T12:51:28Z</time>
</trkpt>
<trkpt lat="44.8956232" lon="5.3696744">
<ele>1056.44</ele>
<time>2019-07-25T12:51:29Z</time>
</trkpt>
<trkpt lat="44.8956254" lon="5.3696703">
<ele>1056.68</ele>
<time>2019-07-25T12:51:30Z</time>
</trkpt>
<trkpt lat="44.8956269" lon="5.3696872">
<ele>1056.71</ele>
<time>2019-07-25T12:51:31Z</time>
</trkpt>
<trkpt lat="44.8956285" lon="5.3696900">
<ele>1057.03</ele>
<time>2019-07-25T12:51:32Z</time>
</trkpt>
<trkpt lat="44.8956348" lon="5.3696883">
<ele>1057.31</ele>
<time>2019-07-25T12:51:33Z</time>
</trkpt>
<trkpt lat="44.8956458" lon="5.3696838">
<ele>1057.60</ele>
<time>2019-07-25T12:51:34Z</time>
</trkpt>
<trkpt lat="44.8956446" lon="5.3697012">
<ele>1057.85</ele>
<time>2019-07-25T12:51:35Z</time>
</trkpt>
<trkpt lat="44.8956343" lon="5.3697092">
<ele>1058.10</ele>
<time>2019-07-25T12:51:36Z</time>
</trkpt>
<trkpt lat="44.8956328" lon="5.3696948">
<ele>1058.28</ele>
<time>2019-07-25T12:51:37Z</time>
</trkpt>
<trkpt lat="44.8956313" lon="5.3697168">
<ele>1058.46</ele>
<time>2019-07-25T12:51:38Z</time>
</trkpt>
<trkpt lat="44.8956341" lon="5.3697186">
<ele>1058.47</ele>
<time>2019-07-25T12:51:39Z</time>
</trkpt>
<trkpt lat="44.8956419" lon="5.3697069">
<ele>1058.47</ele>
<time>2019-07-25T12:51:40Z</time>
</trkpt>
<trkpt lat="44.8956423" lon="5.3697061">
<ele>1058.47</ele>
<time>2019-07-25T12:51:41Z</time>
</trkpt>
<trkpt lat="44.8956436" lon="5.3697007">
<ele>1058.47</ele>
<time>2019-07-25T12:51:42Z</time>
</trkpt>
<trkpt lat="44.8956437" lon="5.3697008">
<ele>1058.51</ele>
<time>2019-07-25T12:51:43Z</time>
</trkpt>
<trkpt lat="44.8956439" lon="5.3697002">
<ele>1058.53</ele>
<time>2019-07-25T12:51:44Z</time>
</trkpt>
<trkpt lat="44.8956447" lon="5.3696988">
<ele>1058.55</ele>
<time>2019-07-25T12:51:45Z</time>
</trkpt>
<trkpt lat="44.8956461" lon="5.3696964">
<ele>1058.52</ele>
<time>2019-07-25T12:51:46Z</time>
</trkpt>
<trkpt lat="44.8956470" lon="5.3696942">
<ele>1058.44</ele>
<time>2019-07-25T12:51:47Z</time>
</trkpt>
<trkpt lat="44.8956470" lon="5.3696942">
<ele>1058.36</ele>
<time>2019-07-25T12:51:48Z</time>
</trkpt>
<trkpt lat="44.8956463" lon="5.3696952">
<ele>1058.31</ele>
<time>2019-07-25T12:51:49Z</time>
</trkpt>
<trkpt lat="44.8956456" lon="5.3696963">
<ele>1058.22</ele>
<time>2019-07-25T12:51:50Z</time>
</trkpt>
<trkpt lat="44.8956440" lon="5.3696988">
<ele>1058.09</ele>
<time>2019-07-25T12:51:51Z</time>
</trkpt>
<trkpt lat="44.8956433" lon="5.3696999">
<ele>1058.08</ele>
<time>2019-07-25T12:51:52Z</time>
</trkpt>
<trkpt lat="44.8956432" lon="5.3696997">
<ele>1058.08</ele>
<time>2019-07-25T12:51:53Z</time>
</trkpt>
<trkpt lat="44.8956433" lon="5.3696996">
<ele>1058.08</ele>
<time>2019-07-25T12:51:54Z</time>
</trkpt>
<trkpt lat="44.8956434" lon="5.3696993">
<ele>1058.08</ele>
<time>2019-07-25T12:51:55Z</time>
</trkpt>
<trkpt lat="44.8956434" lon="5.3696993">
<ele>1058.07</ele>
<time>2019-07-25T12:51:56Z</time>
</trkpt>
<trkpt lat="44.8956429" lon="5.3696970">
<ele>1058.07</ele>
<time>2019-07-25T12:51:57Z</time>
</trkpt>
<trkpt lat="44.8956401" lon="5.3696921">
<ele>1058.07</ele>
<time>2019-07-25T12:51:58Z</time>
</trkpt>
<trkpt lat="44.8956402" lon="5.3696916">
<ele>1058.06</ele>
<time>2019-07-25T12:51:59Z</time>
</trkpt>
<trkpt lat="44.8956455" lon="5.3696862">
<ele>1057.67</ele>
<time>2019-07-25T12:52:00Z</time>
</trkpt>
<trkpt lat="44.8956451" lon="5.3696848">
<ele>1057.34</ele>
<time>2019-07-25T12:52:01Z</time>
</trkpt>
<trkpt lat="44.8956451" lon="5.3696852">
<ele>1057.34</ele>
<time>2019-07-25T12:52:02Z</time>
</trkpt>
<trkpt lat="44.8956452" lon="5.3696852">
<ele>1057.34</ele>
<time>2019-07-25T12:52:03Z</time>
</trkpt>
<trkpt lat="44.8956451" lon="5.3696852">
<ele>1057.33</ele>
<time>2019-07-25T12:52:04Z</time>
</trkpt>
<trkpt lat="44.8956452" lon="5.3696851">
<ele>1057.33</ele>
<time>2019-07-25T12:52:05Z</time>
</trkpt>
<trkpt lat="44.8956450" lon="5.3696852">
<ele>1057.33</ele>
<time>2019-07-25T12:52:06Z</time>
</trkpt>
<trkpt lat="44.8956454" lon="5.3696850">
<ele>1057.32</ele>
<time>2019-07-25T12:52:07Z</time>
</trkpt>
<trkpt lat="44.8956467" lon="5.3696843">
<ele>1057.01</ele>
<time>2019-07-25T12:52:08Z</time>
</trkpt>
<trkpt lat="44.8956466" lon="5.3696842">
<ele>1057.00</ele>
<time>2019-07-25T12:52:09Z</time>
</trkpt>
<trkpt lat="44.8956462" lon="5.3696843">
<ele>1056.67</ele>
<time>2019-07-25T12:52:10Z</time>
</trkpt>
<trkpt lat="44.8956467" lon="5.3696832">
<ele>1056.67</ele>
<time>2019-07-25T12:52:11Z</time>
</trkpt>
<trkpt lat="44.8956468" lon="5.3696822">
<ele>1056.67</ele>
<time>2019-07-25T12:52:12Z</time>
</trkpt>
<trkpt lat="44.8956468" lon="5.3696823">
<ele>1056.66</ele>
<time>2019-07-25T12:52:13Z</time>
</trkpt>
<trkpt lat="44.8956468" lon="5.3696828">
<ele>1056.66</ele>
<time>2019-07-25T12:52:14Z</time>
</trkpt>
<trkpt lat="44.8956468" lon="5.3696830">
<ele>1056.32</ele>
<time>2019-07-25T12:52:15Z</time>
</trkpt>
<trkpt lat="44.8956469" lon="5.3696821">
<ele>1056.06</ele>
<time>2019-07-25T12:52:16Z</time>
</trkpt>
<trkpt lat="44.8956468" lon="5.3696822">
<ele>1055.83</ele>
<time>2019-07-25T12:52:17Z</time>
</trkpt>
<trkpt lat="44.8956469" lon="5.3696812">
<ele>1055.64</ele>
<time>2019-07-25T12:52:18Z</time>
</trkpt>
<trkpt lat="44.8956469" lon="5.3696806">
<ele>1055.47</ele>
<time>2019-07-25T12:52:19Z</time>
</trkpt>
<trkpt lat="44.8956469" lon="5.3696798">
<ele>1055.32</ele>
<time>2019-07-25T12:52:20Z</time>
</trkpt>
<trkpt lat="44.8956468" lon="5.3696797">
<ele>1055.32</ele>
<time>2019-07-25T12:52:21Z</time>
</trkpt>
<trkpt lat="44.8956478" lon="5.3696678">
<ele>1055.32</ele>
<time>2019-07-25T12:52:22Z</time>
</trkpt>
<trkpt lat="44.8956538" lon="5.3696527">
<ele>1055.32</ele>
<time>2019-07-25T12:52:23Z</time>
</trkpt>
<trkpt lat="44.8956564" lon="5.3696394">
<ele>1055.32</ele>
<time>2019-07-25T12:52:24Z</time>
</trkpt>
<trkpt lat="44.8956608" lon="5.3696177">
<ele>1055.32</ele>
<time>2019-07-25T12:52:25Z</time>
</trkpt>
<trkpt lat="44.8956610" lon="5.3696024">
<ele>1055.32</ele>
<time>2019-07-25T12:52:26Z</time>
</trkpt>
<trkpt lat="44.8956654" lon="5.3695822">
<ele>1055.31</ele>
<time>2019-07-25T12:52:27Z</time>
</trkpt>
<trkpt lat="44.8956655" lon="5.3695663">
<ele>1055.31</ele>
<time>2019-07-25T12:52:28Z</time>
</trkpt>
<trkpt lat="44.8956654" lon="5.3695663">
<ele>1055.31</ele>
<time>2019-07-25T12:52:29Z</time>
</trkpt>
<trkpt lat="44.8956655" lon="5.3695657">
<ele>1055.30</ele>
<time>2019-07-25T12:52:30Z</time>
</trkpt>
<trkpt lat="44.8956656" lon="5.3695653">
<ele>1055.30</ele>
<time>2019-07-25T12:52:31Z</time>
</trkpt>
<trkpt lat="44.8956656" lon="5.3695651">
<ele>1055.30</ele>
<time>2019-07-25T12:52:32Z</time>
</trkpt>
<trkpt lat="44.8956656" lon="5.3695651">
<ele>1055.29</ele>
<time>2019-07-25T12:52:33Z</time>
</trkpt>
<trkpt lat="44.8956656" lon="5.3695650">
<ele>1055.29</ele>
<time>2019-07-25T12:52:34Z</time>
</trkpt>
<trkpt lat="44.8956655" lon="5.3695656">
<ele>1055.29</ele>
<time>2019-07-25T12:52:35Z</time>
</trkpt>
<trkpt lat="44.8956655" lon="5.3695653">
<ele>1055.28</ele>
<time>2019-07-25T12:52:36Z</time>
</trkpt>
<trkpt lat="44.8956655" lon="5.3695653">
<ele>1055.28</ele>
<time>2019-07-25T12:52:37Z</time>
</trkpt>
<trkpt lat="44.8956654" lon="5.3695652">
<ele>1055.28</ele>
<time>2019-07-25T12:52:38Z</time>
</trkpt>
<trkpt lat="44.8956655" lon="5.3695652">
<ele>1055.27</ele>
<time>2019-07-25T12:52:39Z</time>
</trkpt>
<trkpt lat="44.8956655" lon="5.3695652">
<ele>1055.27</ele>
<time>2019-07-25T12:52:40Z</time>
</trkpt>
<trkpt lat="44.8956655" lon="5.3695653">
<ele>1055.27</ele>
<time>2019-07-25T12:52:41Z</time>
</trkpt>
<trkpt lat="44.8956656" lon="5.3695652">
<ele>1055.26</ele>
<time>2019-07-25T12:52:42Z</time>
</trkpt>
<trkpt lat="44.8956655" lon="5.3695661">
<ele>1055.26</ele>
<time>2019-07-25T12:52:43Z</time>
</trkpt>
<trkpt lat="44.8956655" lon="5.3695662">
<ele>1055.26</ele>
<time>2019-07-25T12:52:44Z</time>
</trkpt>
<trkpt lat="44.8956653" lon="5.3695667">
<ele>1055.26</ele>
<time>2019-07-25T12:52:45Z</time>
</trkpt>
<trkpt lat="44.8956653" lon="5.3695668">
<ele>1055.26</ele>
<time>2019-07-25T12:52:46Z</time>
</trkpt>
<trkpt lat="44.8956653" lon="5.3695668">
<ele>1055.06</ele>
<time>2019-07-25T12:52:47Z</time>
</trkpt>
<trkpt lat="44.8956653" lon="5.3695669">
<ele>1054.90</ele>
<time>2019-07-25T12:52:48Z</time>
</trkpt>
<trkpt lat="44.8956654" lon="5.3695666">
<ele>1054.90</ele>
<time>2019-07-25T12:52:49Z</time>
</trkpt>
<trkpt lat="44.8956653" lon="5.3695682">
<ele>1054.89</ele>
<time>2019-07-25T12:52:50Z</time>
</trkpt>
<trkpt lat="44.8956658" lon="5.3695673">
<ele>1054.89</ele>
<time>2019-07-25T12:52:51Z</time>
</trkpt>
<trkpt lat="44.8956658" lon="5.3695672">
<ele>1054.89</ele>
<time>2019-07-25T12:52:52Z</time>
</trkpt>
<trkpt lat="44.8956683" lon="5.3695674">
<ele>1054.89</ele>
<time>2019-07-25T12:52:53Z</time>
</trkpt>
<trkpt lat="44.8956671" lon="5.3695679">
<ele>1054.89</ele>
<time>2019-07-25T12:52:54Z</time>
</trkpt>
<trkpt lat="44.8956687" lon="5.3695633">
<ele>1054.85</ele>
<time>2019-07-25T12:52:55Z</time>
</trkpt>
<trkpt lat="44.8956684" lon="5.3695652">
<ele>1054.85</ele>
<time>2019-07-25T12:52:56Z</time>
</trkpt>
<trkpt lat="44.8956686" lon="5.3695649">
<ele>1054.85</ele>
<time>2019-07-25T12:52:57Z</time>
</trkpt>
<trkpt lat="44.8956690" lon="5.3695640">
<ele>1054.85</ele>
<time>2019-07-25T12:52:58Z</time>
</trkpt>
<trkpt lat="44.8956682" lon="5.3695583">
<ele>1054.84</ele>
<time>2019-07-25T12:52:59Z</time>
</trkpt>
<trkpt lat="44.8956734" lon="5.3695431">
<ele>1054.84</ele>
<time>2019-07-25T12:53:00Z</time>
</trkpt>
<trkpt lat="44.8956756" lon="5.3695403">
<ele>1054.84</ele>
<time>2019-07-25T12:53:01Z</time>
</trkpt>
<trkpt lat="44.8956743" lon="5.3695397">
<ele>1054.84</ele>
<time>2019-07-25T12:53:02Z</time>
</trkpt>
<trkpt lat="44.8956780" lon="5.3695283">
<ele>1054.84</ele>
<time>2019-07-25T12:53:03Z</time>
</trkpt>
<trkpt lat="44.8956825" lon="5.3695191">
<ele>1054.84</ele>
<time>2019-07-25T12:53:04Z</time>
</trkpt>
<trkpt lat="44.8956843" lon="5.3695190">
<ele>1054.84</ele>
<time>2019-07-25T12:53:05Z</time>
</trkpt>
<trkpt lat="44.8956840" lon="5.3695191">
<ele>1054.84</ele>
<time>2019-07-25T12:53:06Z</time>
</trkpt>
<trkpt lat="44.8956836" lon="5.3695213">
<ele>1054.84</ele>
<time>2019-07-25T12:53:07Z</time>
</trkpt>
<trkpt lat="44.8956839" lon="5.3695208">
<ele>1054.84</ele>
<time>2019-07-25T12:53:08Z</time>
</trkpt>
<trkpt lat="44.8956841" lon="5.3695205">
<ele>1054.84</ele>
<time>2019-07-25T12:53:09Z</time>
</trkpt>
<trkpt lat="44.8956848" lon="5.3695202">
<ele>1054.84</ele>
<time>2019-07-25T12:53:10Z</time>
</trkpt>
<trkpt lat="44.8956845" lon="5.3695201">
<ele>1054.84</ele>
<time>2019-07-25T12:53:11Z</time>
</trkpt>
<trkpt lat="44.8956845" lon="5.3695193">
<ele>1054.85</ele>
<time>2019-07-25T12:53:12Z</time>
</trkpt>
<trkpt lat="44.8956848" lon="5.3695192">
<ele>1054.85</ele>
<time>2019-07-25T12:53:13Z</time>
</trkpt>
<trkpt lat="44.8956863" lon="5.3695202">
<ele>1054.85</ele>
<time>2019-07-25T12:53:14Z</time>
</trkpt>
<trkpt lat="44.8956863" lon="5.3695203">
<ele>1054.85</ele>
<time>2019-07-25T12:53:15Z</time>
</trkpt>
<trkpt lat="44.8956864" lon="5.3695205">
<ele>1054.85</ele>
<time>2019-07-25T12:53:16Z</time>
</trkpt>
<trkpt lat="44.8956864" lon="5.3695205">
<ele>1054.85</ele>
<time>2019-07-25T12:53:17Z</time>
</trkpt>
<trkpt lat="44.8956864" lon="5.3695205">
<ele>1054.85</ele>
<time>2019-07-25T12:53:18Z</time>
</trkpt>
<trkpt lat="44.8956865" lon="5.3695205">
<ele>1054.85</ele>
<time>2019-07-25T12:53:19Z</time>
</trkpt>
<trkpt lat="44.8956866" lon="5.3695202">
<ele>1054.85</ele>
<time>2019-07-25T12:53:20Z</time>
</trkpt>
<trkpt lat="44.8956866" lon="5.3695201">
<ele>1054.85</ele>
<time>2019-07-25T12:53:21Z</time>
</trkpt>
<trkpt lat="44.8956867" lon="5.3695199">
<ele>1054.85</ele>
<time>2019-07-25T12:53:22Z</time>
</trkpt>
<trkpt lat="44.8956880" lon="5.3695210">
<ele>1054.86</ele>
<time>2019-07-25T12:53:23Z</time>
</trkpt>
<trkpt lat="44.8956899" lon="5.3695275">
<ele>1054.86</ele>
<time>2019-07-25T12:53:24Z</time>
</trkpt>
<trkpt lat="44.8956903" lon="5.3695275">
<ele>1054.86</ele>
<time>2019-07-25T12:53:25Z</time>
</trkpt>
<trkpt lat="44.8956906" lon="5.3695279">
<ele>1054.86</ele>
<time>2019-07-25T12:53:26Z</time>
</trkpt>
<trkpt lat="44.8956907" lon="5.3695276">
<ele>1054.86</ele>
<time>2019-07-25T12:53:27Z</time>
</trkpt>
<trkpt lat="44.8956907" lon="5.3695276">
<ele>1054.86</ele>
<time>2019-07-25T12:53:28Z</time>
</trkpt>
<trkpt lat="44.8956906" lon="5.3695280">
<ele>1054.86</ele>
<time>2019-07-25T12:53:29Z</time>
</trkpt>
<trkpt lat="44.8956906" lon="5.3695280">
<ele>1054.86</ele>
<time>2019-07-25T12:53:30Z</time>
</trkpt>
<trkpt lat="44.8956906" lon="5.3695279">
<ele>1054.87</ele>
<time>2019-07-25T12:53:31Z</time>
</trkpt>
<trkpt lat="44.8956906" lon="5.3695279">
<ele>1054.87</ele>
<time>2019-07-25T12:53:32Z</time>
</trkpt>
<trkpt lat="44.8956905" lon="5.3695284">
<ele>1054.87</ele>
<time>2019-07-25T12:53:33Z</time>
</trkpt>
<trkpt lat="44.8956903" lon="5.3695288">
<ele>1054.87</ele>
<time>2019-07-25T12:53:34Z</time>
</trkpt>
<trkpt lat="44.8956903" lon="5.3695290">
<ele>1054.87</ele>
<time>2019-07-25T12:53:35Z</time>
</trkpt>
<trkpt lat="44.8956903" lon="5.3695283">
<ele>1054.87</ele>
<time>2019-07-25T12:53:36Z</time>
</trkpt>
<trkpt lat="44.8956906" lon="5.3695276">
<ele>1054.87</ele>
<time>2019-07-25T12:53:37Z</time>
</trkpt>
<trkpt lat="44.8956907" lon="5.3695274">
<ele>1054.87</ele>
<time>2019-07-25T12:53:38Z</time>
</trkpt>
<trkpt lat="44.8956908" lon="5.3695277">
<ele>1054.88</ele>
<time>2019-07-25T12:53:39Z</time>
</trkpt>
<trkpt lat="44.8956911" lon="5.3695270">
<ele>1054.88</ele>
<time>2019-07-25T12:53:40Z</time>
</trkpt>
<trkpt lat="44.8956912" lon="5.3695277">
<ele>1054.88</ele>
<time>2019-07-25T12:53:41Z</time>
</trkpt>
<trkpt lat="44.8956912" lon="5.3695274">
<ele>1054.88</ele>
<time>2019-07-25T12:53:42Z</time>
</trkpt>
<trkpt lat="44.8956913" lon="5.3695271">
<ele>1054.88</ele>
<time>2019-07-25T12:53:43Z</time>
</trkpt>
<trkpt lat="44.8956914" lon="5.3695266">
<ele>1054.88</ele>
<time>2019-07-25T12:53:44Z</time>
</trkpt>
<trkpt lat="44.8956914" lon="5.3695265">
<ele>1054.88</ele>
<time>2019-07-25T12:53:45Z</time>
</trkpt>
<trkpt lat="44.8956916" lon="5.3695256">
<ele>1054.89</ele>
<time>2019-07-25T12:53:46Z</time>
</trkpt>
<trkpt lat="44.8956916" lon="5.3695252">
<ele>1054.89</ele>
<time>2019-07-25T12:53:47Z</time>
</trkpt>
<trkpt lat="44.8956917" lon="5.3695248">
<ele>1054.89</ele>
<time>2019-07-25T12:53:48Z</time>
</trkpt>
<trkpt lat="44.8956917" lon="5.3695247">
<ele>1054.89</ele>
<time>2019-07-25T12:53:49Z</time>
</trkpt>
<trkpt lat="44.8956917" lon="5.3695248">
<ele>1054.89</ele>
<time>2019-07-25T12:53:50Z</time>
</trkpt>
<trkpt lat="44.8956918" lon="5.3695243">
<ele>1054.89</ele>
<time>2019-07-25T12:53:51Z</time>
</trkpt>
<trkpt lat="44.8956923" lon="5.3695225">
<ele>1054.89</ele>
<time>2019-07-25T12:53:52Z</time>
</trkpt>
<trkpt lat="44.8956924" lon="5.3695225">
<ele>1054.89</ele>
<time>2019-07-25T12:53:53Z</time>
</trkpt>
<trkpt lat="44.8956924" lon="5.3695226">
<ele>1054.90</ele>
<time>2019-07-25T12:53:54Z</time>
</trkpt>
<trkpt lat="44.8956921" lon="5.3695230">
<ele>1054.90</ele>
<time>2019-07-25T12:53:55Z</time>
</trkpt>
<trkpt lat="44.8956921" lon="5.3695231">
<ele>1054.90</ele>
<time>2019-07-25T12:53:56Z</time>
</trkpt>
<trkpt lat="44.8956922" lon="5.3695231">
<ele>1054.90</ele>
<time>2019-07-25T12:53:57Z</time>
</trkpt>
<trkpt lat="44.8956922" lon="5.3695233">
<ele>1054.90</ele>
<time>2019-07-25T12:53:58Z</time>
</trkpt>
<trkpt lat="44.8956922" lon="5.3695236">
<ele>1054.91</ele>
<time>2019-07-25T12:53:59Z</time>
</trkpt>
<trkpt lat="44.8956921" lon="5.3695240">
<ele>1054.91</ele>
<time>2019-07-25T12:54:00Z</time>
</trkpt>
<trkpt lat="44.8956921" lon="5.3695243">
<ele>1054.91</ele>
<time>2019-07-25T12:54:01Z</time>
</trkpt>
<trkpt lat="44.8956920" lon="5.3695246">
<ele>1054.91</ele>
<time>2019-07-25T12:54:02Z</time>
</trkpt>
<trkpt lat="44.8956920" lon="5.3695248">
<ele>1054.92</ele>
<time>2019-07-25T12:54:03Z</time>
</trkpt>
<trkpt lat="44.8956921" lon="5.3695250">
<ele>1054.92</ele>
<time>2019-07-25T12:54:04Z</time>
</trkpt>
<trkpt lat="44.8956921" lon="5.3695252">
<ele>1054.92</ele>
<time>2019-07-25T12:54:05Z</time>
</trkpt>
<trkpt lat="44.8956920" lon="5.3695255">
<ele>1054.93</ele>
<time>2019-07-25T12:54:06Z</time>
</trkpt>
<trkpt lat="44.8956920" lon="5.3695257">
<ele>1054.93</ele>
<time>2019-07-25T12:54:07Z</time>
</trkpt>
<trkpt lat="44.8956921" lon="5.3695259">
<ele>1054.93</ele>
<time>2019-07-25T12:54:08Z</time>
</trkpt>
<trkpt lat="44.8956920" lon="5.3695262">
<ele>1054.94</ele>
<time>2019-07-25T12:54:09Z</time>
</trkpt>
<trkpt lat="44.8956920" lon="5.3695265">
<ele>1054.94</ele>
<time>2019-07-25T12:54:10Z</time>
</trkpt>
<trkpt lat="44.8956918" lon="5.3695268">
<ele>1054.95</ele>
<time>2019-07-25T12:54:11Z</time>
</trkpt>
<trkpt lat="44.8956917" lon="5.3695271">
<ele>1054.95</ele>
<time>2019-07-25T12:54:12Z</time>
</trkpt>
<trkpt lat="44.8956917" lon="5.3695271">
<ele>1054.96</ele>
<time>2019-07-25T12:54:13Z</time>
</trkpt>
<trkpt lat="44.8956923" lon="5.3695267">
<ele>1054.96</ele>
<time>2019-07-25T12:54:14Z</time>
</trkpt>
<trkpt lat="44.8956926" lon="5.3695263">
<ele>1054.97</ele>
<time>2019-07-25T12:54:15Z</time>
</trkpt>
<trkpt lat="44.8956927" lon="5.3695261">
<ele>1054.97</ele>
<time>2019-07-25T12:54:16Z</time>
</trkpt>
<trkpt lat="44.8956926" lon="5.3695262">
<ele>1054.98</ele>
<time>2019-07-25T12:54:17Z</time>
</trkpt>
<trkpt lat="44.8956926" lon="5.3695263">
<ele>1054.98</ele>
<time>2019-07-25T12:54:18Z</time>
</trkpt>
<trkpt lat="44.8956931" lon="5.3695258">
<ele>1054.98</ele>
<time>2019-07-25T12:54:19Z</time>
</trkpt>
<trkpt lat="44.8956931" lon="5.3695258">
<ele>1054.99</ele>
<time>2019-07-25T12:54:20Z</time>
</trkpt>
<trkpt lat="44.8956930" lon="5.3695259">
<ele>1054.99</ele>
<time>2019-07-25T12:54:21Z</time>
</trkpt>
<trkpt lat="44.8956934" lon="5.3695256">
<ele>1055.00</ele>
<time>2019-07-25T12:54:22Z</time>
</trkpt>
<trkpt lat="44.8956936" lon="5.3695255">
<ele>1055.00</ele>
<time>2019-07-25T12:54:23Z</time>
</trkpt>
<trkpt lat="44.8956936" lon="5.3695254">
<ele>1055.00</ele>
<time>2019-07-25T12:54:24Z</time>
</trkpt>
<trkpt lat="44.8956931" lon="5.3695250">
<ele>1055.01</ele>
<time>2019-07-25T12:54:25Z</time>
</trkpt>
<trkpt lat="44.8956927" lon="5.3695253">
<ele>1055.01</ele>
<time>2019-07-25T12:54:26Z</time>
</trkpt>
<trkpt lat="44.8956910" lon="5.3695177">
<ele>1055.05</ele>
<time>2019-07-25T12:54:27Z</time>
</trkpt>
<trkpt lat="44.8956926" lon="5.3695182">
<ele>1055.09</ele>
<time>2019-07-25T12:54:28Z</time>
</trkpt>
<trkpt lat="44.8956919" lon="5.3695160">
<ele>1055.09</ele>
<time>2019-07-25T12:54:29Z</time>
</trkpt>
<trkpt lat="44.8956918" lon="5.3695160">
<ele>1055.10</ele>
<time>2019-07-25T12:54:30Z</time>
</trkpt>
<trkpt lat="44.8956917" lon="5.3695161">
<ele>1055.10</ele>
<time>2019-07-25T12:54:31Z</time>
</trkpt>
<trkpt lat="44.8956918" lon="5.3695162">
<ele>1055.10</ele>
<time>2019-07-25T12:54:32Z</time>
</trkpt>
<trkpt lat="44.8956919" lon="5.3695161">
<ele>1055.11</ele>
<time>2019-07-25T12:54:33Z</time>
</trkpt>
<trkpt lat="44.8956920" lon="5.3695161">
<ele>1055.11</ele>
<time>2019-07-25T12:54:34Z</time>
</trkpt>
<trkpt lat="44.8956919" lon="5.3695162">
<ele>1055.12</ele>
<time>2019-07-25T12:54:35Z</time>
</trkpt>
<trkpt lat="44.8956920" lon="5.3695162">
<ele>1055.12</ele>
<time>2019-07-25T12:54:36Z</time>
</trkpt>
<trkpt lat="44.8956918" lon="5.3695163">
<ele>1055.12</ele>
<time>2019-07-25T12:54:37Z</time>
</trkpt>
<trkpt lat="44.8956915" lon="5.3695166">
<ele>1055.13</ele>
<time>2019-07-25T12:54:38Z</time>
</trkpt>
<trkpt lat="44.8956915" lon="5.3695167">
<ele>1055.13</ele>
<time>2019-07-25T12:54:39Z</time>
</trkpt>
<trkpt lat="44.8956917" lon="5.3695167">
<ele>1055.14</ele>
<time>2019-07-25T12:54:40Z</time>
</trkpt>
<trkpt lat="44.8956923" lon="5.3695157">
<ele>1055.14</ele>
<time>2019-07-25T12:54:41Z</time>
</trkpt>
<trkpt lat="44.8956922" lon="5.3695158">
<ele>1055.15</ele>
<time>2019-07-25T12:54:42Z</time>
</trkpt>
<trkpt lat="44.8956921" lon="5.3695160">
<ele>1055.15</ele>
<time>2019-07-25T12:54:43Z</time>
</trkpt>
<trkpt lat="44.8956920" lon="5.3695162">
<ele>1055.16</ele>
<time>2019-07-25T12:54:44Z</time>
</trkpt>
<trkpt lat="44.8956920" lon="5.3695163">
<ele>1055.16</ele>
<time>2019-07-25T12:54:45Z</time>
</trkpt>
<trkpt lat="44.8956919" lon="5.3695164">
<ele>1055.17</ele>
<time>2019-07-25T12:54:46Z</time>
</trkpt>
<trkpt lat="44.8956920" lon="5.3695163">
<ele>1055.17</ele>
<time>2019-07-25T12:54:47Z</time>
</trkpt>
<trkpt lat="44.8956920" lon="5.3695165">
<ele>1055.18</ele>
<time>2019-07-25T12:54:48Z</time>
</trkpt>
<trkpt lat="44.8956921" lon="5.3695166">
<ele>1055.18</ele>
<time>2019-07-25T12:54:49Z</time>
</trkpt>
<trkpt lat="44.8956920" lon="5.3695167">
<ele>1055.19</ele>
<time>2019-07-25T12:54:50Z</time>
</trkpt>
<trkpt lat="44.8956922" lon="5.3695166">
<ele>1055.19</ele>
<time>2019-07-25T12:54:51Z</time>
</trkpt>
<trkpt lat="44.8956923" lon="5.3695164">
<ele>1055.20</ele>
<time>2019-07-25T12:54:52Z</time>
</trkpt>
<trkpt lat="44.8956925" lon="5.3695159">
<ele>1055.20</ele>
<time>2019-07-25T12:54:53Z</time>
</trkpt>
<trkpt lat="44.8956924" lon="5.3695159">
<ele>1055.21</ele>
<time>2019-07-25T12:54:54Z</time>
</trkpt>
<trkpt lat="44.8956923" lon="5.3695163">
<ele>1055.22</ele>
<time>2019-07-25T12:54:55Z</time>
</trkpt>
<trkpt lat="44.8956922" lon="5.3695163">
<ele>1055.22</ele>
<time>2019-07-25T12:54:56Z</time>
</trkpt>
<trkpt lat="44.8956921" lon="5.3695166">
<ele>1055.23</ele>
<time>2019-07-25T12:54:57Z</time>
</trkpt>
<trkpt lat="44.8956920" lon="5.3695166">
<ele>1055.23</ele>
<time>2019-07-25T12:54:58Z</time>
</trkpt>
<trkpt lat="44.8956920" lon="5.3695165">
<ele>1055.24</ele>
<time>2019-07-25T12:54:59Z</time>
</trkpt>
<trkpt lat="44.8956920" lon="5.3695165">
<ele>1055.24</ele>
<time>2019-07-25T12:55:00Z</time>
</trkpt>
<trkpt lat="44.8956915" lon="5.3695177">
<ele>1055.25</ele>
<time>2019-07-25T12:55:01Z</time>
</trkpt>
<trkpt lat="44.8956914" lon="5.3695180">
<ele>1055.25</ele>
<time>2019-07-25T12:55:02Z</time>
</trkpt>
<trkpt lat="44.8956916" lon="5.3695176">
<ele>1055.26</ele>
<time>2019-07-25T12:55:03Z</time>
</trkpt>
<trkpt lat="44.8956916" lon="5.3695165">
<ele>1055.26</ele>
<time>2019-07-25T12:55:04Z</time>
</trkpt>
<trkpt lat="44.8956917" lon="5.3695149">
<ele>1055.26</ele>
<time>2019-07-25T12:55:05Z</time>
</trkpt>
<trkpt lat="44.8956919" lon="5.3695152">
<ele>1055.27</ele>
<time>2019-07-25T12:55:06Z</time>
</trkpt>
<trkpt lat="44.8956919" lon="5.3695143">
<ele>1055.27</ele>
<time>2019-07-25T12:55:07Z</time>
</trkpt>
<trkpt lat="44.8956926" lon="5.3695148">
<ele>1055.28</ele>
<time>2019-07-25T12:55:08Z</time>
</trkpt>
<trkpt lat="44.8956927" lon="5.3695147">
<ele>1055.28</ele>
<time>2019-07-25T12:55:09Z</time>
</trkpt>
<trkpt lat="44.8956928" lon="5.3695142">
<ele>1055.28</ele>
<time>2019-07-25T12:55:10Z</time>
</trkpt>
<trkpt lat="44.8956930" lon="5.3695143">
<ele>1055.29</ele>
<time>2019-07-25T12:55:11Z</time>
</trkpt>
<trkpt lat="44.8956931" lon="5.3695128">
<ele>1055.29</ele>
<time>2019-07-25T12:55:12Z</time>
</trkpt>
<trkpt lat="44.8956932" lon="5.3695125">
<ele>1055.29</ele>
<time>2019-07-25T12:55:13Z</time>
</trkpt>
<trkpt lat="44.8956947" lon="5.3695177">
<ele>1055.30</ele>
<time>2019-07-25T12:55:14Z</time>
</trkpt>
<trkpt lat="44.8956962" lon="5.3695235">
<ele>1055.30</ele>
<time>2019-07-25T12:55:15Z</time>
</trkpt>
<trkpt lat="44.8956968" lon="5.3695272">
<ele>1055.30</ele>
<time>2019-07-25T12:55:16Z</time>
</trkpt>
<trkpt lat="44.8956970" lon="5.3695270">
<ele>1055.31</ele>
<time>2019-07-25T12:55:17Z</time>
</trkpt>
<trkpt lat="44.8956974" lon="5.3695283">
<ele>1055.31</ele>
<time>2019-07-25T12:55:18Z</time>
</trkpt>
<trkpt lat="44.8956972" lon="5.3695298">
<ele>1055.31</ele>
<time>2019-07-25T12:55:19Z</time>
</trkpt>
<trkpt lat="44.8956973" lon="5.3695306">
<ele>1055.34</ele>
<time>2019-07-25T12:55:20Z</time>
</trkpt>
<trkpt lat="44.8956971" lon="5.3695260">
<ele>1055.34</ele>
<time>2019-07-25T12:55:21Z</time>
</trkpt>
<trkpt lat="44.8956957" lon="5.3695230">
<ele>1055.35</ele>
<time>2019-07-25T12:55:22Z</time>
</trkpt>
<trkpt lat="44.8956957" lon="5.3695230">
<ele>1055.35</ele>
<time>2019-07-25T12:55:23Z</time>
</trkpt>
<trkpt lat="44.8956957" lon="5.3695239">
<ele>1055.35</ele>
<time>2019-07-25T12:55:24Z</time>
</trkpt>
<trkpt lat="44.8956954" lon="5.3695234">
<ele>1055.35</ele>
<time>2019-07-25T12:55:25Z</time>
</trkpt>
<trkpt lat="44.8956951" lon="5.3695249">
<ele>1055.36</ele>
<time>2019-07-25T12:55:26Z</time>
</trkpt>
<trkpt lat="44.8956950" lon="5.3695253">
<ele>1055.36</ele>
<time>2019-07-25T12:55:27Z</time>
</trkpt>
<trkpt lat="44.8956947" lon="5.3695251">
<ele>1055.36</ele>
<time>2019-07-25T12:55:28Z</time>
</trkpt>
<trkpt lat="44.8956946" lon="5.3695259">
<ele>1055.37</ele>
<time>2019-07-25T12:55:29Z</time>
</trkpt>
<trkpt lat="44.8956946" lon="5.3695256">
<ele>1055.37</ele>
<time>2019-07-25T12:55:30Z</time>
</trkpt>
<trkpt lat="44.8956966" lon="5.3695482">
<ele>1055.37</ele>
<time>2019-07-25T12:55:31Z</time>
</trkpt>
<trkpt lat="44.8956971" lon="5.3695650">
<ele>1055.40</ele>
<time>2019-07-25T12:55:32Z</time>
</trkpt>
<trkpt lat="44.8956955" lon="5.3695628">
<ele>1055.43</ele>
<time>2019-07-25T12:55:33Z</time>
</trkpt>
<trkpt lat="44.8956956" lon="5.3695655">
<ele>1055.43</ele>
<time>2019-07-25T12:55:34Z</time>
</trkpt>
<trkpt lat="44.8956955" lon="5.3695654">
<ele>1055.43</ele>
<time>2019-07-25T12:55:35Z</time>
</trkpt>
<trkpt lat="44.8956955" lon="5.3695652">
<ele>1055.43</ele>
<time>2019-07-25T12:55:36Z</time>
</trkpt>
<trkpt lat="44.8956955" lon="5.3695655">
<ele>1055.44</ele>
<time>2019-07-25T12:55:37Z</time>
</trkpt>
<trkpt lat="44.8956955" lon="5.3695656">
<ele>1055.44</ele>
<time>2019-07-25T12:55:38Z</time>
</trkpt>
<trkpt lat="44.8956954" lon="5.3695656">
<ele>1055.44</ele>
<time>2019-07-25T12:55:39Z</time>
</trkpt>
<trkpt lat="44.8956954" lon="5.3695656">
<ele>1055.44</ele>
<time>2019-07-25T12:55:40Z</time>
</trkpt>
<trkpt lat="44.8956953" lon="5.3695656">
<ele>1055.44</ele>
<time>2019-07-25T12:55:41Z</time>
</trkpt>
<trkpt lat="44.8956953" lon="5.3695656">
<ele>1055.45</ele>
<time>2019-07-25T12:55:42Z</time>
</trkpt>
<trkpt lat="44.8956952" lon="5.3695650">
<ele>1055.45</ele>
<time>2019-07-25T12:55:43Z</time>
</trkpt>
<trkpt lat="44.8956951" lon="5.3695647">
<ele>1055.45</ele>
<time>2019-07-25T12:55:44Z</time>
</trkpt>
<trkpt lat="44.8956950" lon="5.3695644">
<ele>1055.45</ele>
<time>2019-07-25T12:55:45Z</time>
</trkpt>
<trkpt lat="44.8956949" lon="5.3695644">
<ele>1055.45</ele>
<time>2019-07-25T12:55:46Z</time>
</trkpt>
<trkpt lat="44.8956949" lon="5.3695646">
<ele>1055.45</ele>
<time>2019-07-25T12:55:47Z</time>
</trkpt>
<trkpt lat="44.8956948" lon="5.3695647">
<ele>1055.45</ele>
<time>2019-07-25T12:55:48Z</time>
</trkpt>
<trkpt lat="44.8956948" lon="5.3695646">
<ele>1055.45</ele>
<time>2019-07-25T12:55:49Z</time>
</trkpt>
<trkpt lat="44.8956947" lon="5.3695646">
<ele>1055.45</ele>
<time>2019-07-25T12:55:50Z</time>
</trkpt>
<trkpt lat="44.8956945" lon="5.3695640">
<ele>1055.45</ele>
<time>2019-07-25T12:55:51Z</time>
</trkpt>
<trkpt lat="44.8956944" lon="5.3695639">
<ele>1055.45</ele>
<time>2019-07-25T12:55:52Z</time>
</trkpt>
<trkpt lat="44.8956944" lon="5.3695641">
<ele>1055.45</ele>
<time>2019-07-25T12:55:53Z</time>
</trkpt>
<trkpt lat="44.8956944" lon="5.3695642">
<ele>1055.45</ele>
<time>2019-07-25T12:55:54Z</time>
</trkpt>
<trkpt lat="44.8956942" lon="5.3695637">
<ele>1055.45</ele>
<time>2019-07-25T12:55:55Z</time>
</trkpt>
<trkpt lat="44.8956942" lon="5.3695644">
<ele>1055.45</ele>
<time>2019-07-25T12:55:56Z</time>
</trkpt>
<trkpt lat="44.8956941" lon="5.3695642">
<ele>1055.44</ele>
<time>2019-07-25T12:55:57Z</time>
</trkpt>
<trkpt lat="44.8956941" lon="5.3695643">
<ele>1055.44</ele>
<time>2019-07-25T12:55:58Z</time>
</trkpt>
<trkpt lat="44.8956940" lon="5.3695642">
<ele>1055.44</ele>
<time>2019-07-25T12:55:59Z</time>
</trkpt>
<trkpt lat="44.8956940" lon="5.3695639">
<ele>1055.44</ele>
<time>2019-07-25T12:56:00Z</time>
</trkpt>
<trkpt lat="44.8956939" lon="5.3695635">
<ele>1055.44</ele>
<time>2019-07-25T12:56:01Z</time>
</trkpt>
<trkpt lat="44.8956938" lon="5.3695632">
<ele>1055.43</ele>
<time>2019-07-25T12:56:02Z</time>
</trkpt>
<trkpt lat="44.8956938" lon="5.3695630">
<ele>1055.43</ele>
<time>2019-07-25T12:56:03Z</time>
</trkpt>
<trkpt lat="44.8956938" lon="5.3695629">
<ele>1055.43</ele>
<time>2019-07-25T12:56:04Z</time>
</trkpt>
<trkpt lat="44.8956938" lon="5.3695631">
<ele>1055.42</ele>
<time>2019-07-25T12:56:05Z</time>
</trkpt>
<trkpt lat="44.8956937" lon="5.3695628">
<ele>1055.42</ele>
<time>2019-07-25T12:56:06Z</time>
</trkpt>
<trkpt lat="44.8956937" lon="5.3695621">
<ele>1055.42</ele>
<time>2019-07-25T12:56:07Z</time>
</trkpt>
<trkpt lat="44.8956937" lon="5.3695620">
<ele>1055.41</ele>
<time>2019-07-25T12:56:08Z</time>
</trkpt>
<trkpt lat="44.8956938" lon="5.3695613">
<ele>1055.41</ele>
<time>2019-07-25T12:56:09Z</time>
</trkpt>
<trkpt lat="44.8956939" lon="5.3695607">
<ele>1055.40</ele>
<time>2019-07-25T12:56:10Z</time>
</trkpt>
<trkpt lat="44.8956939" lon="5.3695606">
<ele>1055.40</ele>
<time>2019-07-25T12:56:11Z</time>
</trkpt>
<trkpt lat="44.8956941" lon="5.3695594">
<ele>1055.39</ele>
<time>2019-07-25T12:56:12Z</time>
</trkpt>
<trkpt lat="44.8956941" lon="5.3695593">
<ele>1055.39</ele>
<time>2019-07-25T12:56:13Z</time>
</trkpt>
<trkpt lat="44.8956941" lon="5.3695597">
<ele>1055.38</ele>
<time>2019-07-25T12:56:14Z</time>
</trkpt>
<trkpt lat="44.8956940" lon="5.3695599">
<ele>1055.38</ele>
<time>2019-07-25T12:56:15Z</time>
</trkpt>
<trkpt lat="44.8956939" lon="5.3695602">
<ele>1055.37</ele>
<time>2019-07-25T12:56:16Z</time>
</trkpt>
<trkpt lat="44.8956939" lon="5.3695598">
<ele>1055.37</ele>
<time>2019-07-25T12:56:17Z</time>
</trkpt>
<trkpt lat="44.8956939" lon="5.3695595">
<ele>1055.36</ele>
<time>2019-07-25T12:56:18Z</time>
</trkpt>
<trkpt lat="44.8956939" lon="5.3695593">
<ele>1055.36</ele>
<time>2019-07-25T12:56:19Z</time>
</trkpt>
<trkpt lat="44.8956940" lon="5.3695591">
<ele>1055.35</ele>
<time>2019-07-25T12:56:20Z</time>
</trkpt>
<trkpt lat="44.8956940" lon="5.3695587">
<ele>1055.35</ele>
<time>2019-07-25T12:56:21Z</time>
</trkpt>
<trkpt lat="44.8956941" lon="5.3695585">
<ele>1055.34</ele>
<time>2019-07-25T12:56:22Z</time>
</trkpt>
<trkpt lat="44.8956941" lon="5.3695582">
<ele>1055.33</ele>
<time>2019-07-25T12:56:23Z</time>
</trkpt>
<trkpt lat="44.8956941" lon="5.3695580">
<ele>1055.33</ele>
<time>2019-07-25T12:56:24Z</time>
</trkpt>
<trkpt lat="44.8956941" lon="5.3695570">
<ele>1055.32</ele>
<time>2019-07-25T12:56:25Z</time>
</trkpt>
<trkpt lat="44.8956944" lon="5.3695567">
<ele>1055.31</ele>
<time>2019-07-25T12:56:26Z</time>
</trkpt>
<trkpt lat="44.8956944" lon="5.3695565">
<ele>1055.31</ele>
<time>2019-07-25T12:56:27Z</time>
</trkpt>
<trkpt lat="44.8956949" lon="5.3695559">
<ele>1055.30</ele>
<time>2019-07-25T12:56:28Z</time>
</trkpt>
<trkpt lat="44.8956949" lon="5.3695556">
<ele>1055.29</ele>
<time>2019-07-25T12:56:29Z</time>
</trkpt>
<trkpt lat="44.8956950" lon="5.3695555">
<ele>1055.28</ele>
<time>2019-07-25T12:56:30Z</time>
</trkpt>
<trkpt lat="44.8956950" lon="5.3695554">
<ele>1055.28</ele>
<time>2019-07-25T12:56:31Z</time>
</trkpt>
<trkpt lat="44.8956950" lon="5.3695555">
<ele>1055.27</ele>
<time>2019-07-25T12:56:32Z</time>
</trkpt>
<trkpt lat="44.8956950" lon="5.3695554">
<ele>1055.26</ele>
<time>2019-07-25T12:56:33Z</time>
</trkpt>
<trkpt lat="44.8956950" lon="5.3695555">
<ele>1055.25</ele>
<time>2019-07-25T12:56:34Z</time>
</trkpt>
<trkpt lat="44.8956950" lon="5.3695555">
<ele>1055.24</ele>
<time>2019-07-25T12:56:35Z</time>
</trkpt>
<trkpt lat="44.8956951" lon="5.3695557">
<ele>1055.24</ele>
<time>2019-07-25T12:56:36Z</time>
</trkpt>
<trkpt lat="44.8956951" lon="5.3695558">
<ele>1055.23</ele>
<time>2019-07-25T12:56:37Z</time>
</trkpt>
<trkpt lat="44.8956952" lon="5.3695562">
<ele>1055.22</ele>
<time>2019-07-25T12:56:38Z</time>
</trkpt>
<trkpt lat="44.8956952" lon="5.3695564">
<ele>1055.21</ele>
<time>2019-07-25T12:56:39Z</time>
</trkpt>
<trkpt lat="44.8956952" lon="5.3695565">
<ele>1055.21</ele>
<time>2019-07-25T12:56:40Z</time>
</trkpt>
<trkpt lat="44.8956953" lon="5.3695567">
<ele>1055.20</ele>
<time>2019-07-25T12:56:41Z</time>
</trkpt>
<trkpt lat="44.8956952" lon="5.3695569">
<ele>1055.19</ele>
<time>2019-07-25T12:56:42Z</time>
</trkpt>
<trkpt lat="44.8956953" lon="5.3695567">
<ele>1055.18</ele>
<time>2019-07-25T12:56:43Z</time>
</trkpt>
<trkpt lat="44.8956954" lon="5.3695568">
<ele>1055.18</ele>
<time>2019-07-25T12:56:44Z</time>
</trkpt>
<trkpt lat="44.8956954" lon="5.3695569">
<ele>1055.17</ele>
<time>2019-07-25T12:56:45Z</time>
</trkpt>
<trkpt lat="44.8956955" lon="5.3695568">
<ele>1055.16</ele>
<time>2019-07-25T12:56:46Z</time>
</trkpt>
<trkpt lat="44.8956955" lon="5.3695568">
<ele>1055.16</ele>
<time>2019-07-25T12:56:47Z</time>
</trkpt>
<trkpt lat="44.8956955" lon="5.3695568">
<ele>1055.15</ele>
<time>2019-07-25T12:56:48Z</time>
</trkpt>
<trkpt lat="44.8956955" lon="5.3695569">
<ele>1055.14</ele>
<time>2019-07-25T12:56:49Z</time>
</trkpt>
<trkpt lat="44.8956956" lon="5.3695569">
<ele>1055.13</ele>
<time>2019-07-25T12:56:50Z</time>
</trkpt>
<trkpt lat="44.8956956" lon="5.3695568">
<ele>1055.13</ele>
<time>2019-07-25T12:56:51Z</time>
</trkpt>
<trkpt lat="44.8956956" lon="5.3695569">
<ele>1055.12</ele>
<time>2019-07-25T12:56:52Z</time>
</trkpt>
<trkpt lat="44.8956955" lon="5.3695575">
<ele>1055.11</ele>
<time>2019-07-25T12:56:53Z</time>
</trkpt>
<trkpt lat="44.8956955" lon="5.3695575">
<ele>1055.11</ele>
<time>2019-07-25T12:56:54Z</time>
</trkpt>
<trkpt lat="44.8956954" lon="5.3695578">
<ele>1055.10</ele>
<time>2019-07-25T12:56:55Z</time>
</trkpt>
<trkpt lat="44.8956954" lon="5.3695578">
<ele>1055.09</ele>
<time>2019-07-25T12:56:56Z</time>
</trkpt>
<trkpt lat="44.8956954" lon="5.3695580">
<ele>1055.08</ele>
<time>2019-07-25T12:56:57Z</time>
</trkpt>
<trkpt lat="44.8956954" lon="5.3695580">
<ele>1055.08</ele>
<time>2019-07-25T12:56:58Z</time>
</trkpt>
<trkpt lat="44.8956954" lon="5.3695581">
<ele>1055.07</ele>
<time>2019-07-25T12:56:59Z</time>
</trkpt>
<trkpt lat="44.8956954" lon="5.3695580">
<ele>1055.06</ele>
<time>2019-07-25T12:57:00Z</time>
</trkpt>
<trkpt lat="44.8956954" lon="5.3695582">
<ele>1055.06</ele>
<time>2019-07-25T12:57:01Z</time>
</trkpt>
<trkpt lat="44.8956954" lon="5.3695584">
<ele>1055.05</ele>
<time>2019-07-25T12:57:02Z</time>
</trkpt>
<trkpt lat="44.8956954" lon="5.3695581">
<ele>1055.04</ele>
<time>2019-07-25T12:57:03Z</time>
</trkpt>
<trkpt lat="44.8956955" lon="5.3695577">
<ele>1055.03</ele>
<time>2019-07-25T12:57:04Z</time>
</trkpt>
<trkpt lat="44.8956955" lon="5.3695577">
<ele>1055.03</ele>
<time>2019-07-25T12:57:05Z</time>
</trkpt>
<trkpt lat="44.8956955" lon="5.3695577">
<ele>1055.02</ele>
<time>2019-07-25T12:57:06Z</time>
</trkpt>
<trkpt lat="44.8956955" lon="5.3695576">
<ele>1055.01</ele>
<time>2019-07-25T12:57:07Z</time>
</trkpt>
<trkpt lat="44.8956954" lon="5.3695575">
<ele>1055.01</ele>
<time>2019-07-25T12:57:08Z</time>
</trkpt>
<trkpt lat="44.8956954" lon="5.3695575">
<ele>1055.00</ele>
<time>2019-07-25T12:57:09Z</time>
</trkpt>
<trkpt lat="44.8956954" lon="5.3695575">
<ele>1054.99</ele>
<time>2019-07-25T12:57:10Z</time>
</trkpt>
<trkpt lat="44.8956954" lon="5.3695575">
<ele>1054.98</ele>
<time>2019-07-25T12:57:11Z</time>
</trkpt>
<trkpt lat="44.8956955" lon="5.3695576">
<ele>1054.98</ele>
<time>2019-07-25T12:57:12Z</time>
</trkpt>
<trkpt lat="44.8956954" lon="5.3695577">
<ele>1054.97</ele>
<time>2019-07-25T12:57:13Z</time>
</trkpt>
<trkpt lat="44.8956954" lon="5.3695577">
<ele>1054.96</ele>
<time>2019-07-25T12:57:14Z</time>
</trkpt>
<trkpt lat="44.8956954" lon="5.3695577">
<ele>1054.95</ele>
<time>2019-07-25T12:57:15Z</time>
</trkpt>
<trkpt lat="44.8956953" lon="5.3695578">
<ele>1054.94</ele>
<time>2019-07-25T12:57:16Z</time>
</trkpt>
<trkpt lat="44.8956953" lon="5.3695579">
<ele>1054.94</ele>
<time>2019-07-25T12:57:17Z</time>
</trkpt>
<trkpt lat="44.8956953" lon="5.3695579">
<ele>1054.93</ele>
<time>2019-07-25T12:57:18Z</time>
</trkpt>
<trkpt lat="44.8956953" lon="5.3695579">
<ele>1054.92</ele>
<time>2019-07-25T12:57:19Z</time>
</trkpt>
<trkpt lat="44.8956954" lon="5.3695580">
<ele>1054.92</ele>
<time>2019-07-25T12:57:20Z</time>
</trkpt>
<trkpt lat="44.8956954" lon="5.3695581">
<ele>1054.91</ele>
<time>2019-07-25T12:57:21Z</time>
</trkpt>
<trkpt lat="44.8956954" lon="5.3695583">
<ele>1054.90</ele>
<time>2019-07-25T12:57:22Z</time>
</trkpt>
<trkpt lat="44.8956954" lon="5.3695584">
<ele>1054.90</ele>
<time>2019-07-25T12:57:23Z</time>
</trkpt>
<trkpt lat="44.8956954" lon="5.3695586">
<ele>1054.89</ele>
<time>2019-07-25T12:57:24Z</time>
</trkpt>
<trkpt lat="44.8956953" lon="5.3695590">
<ele>1054.88</ele>
<time>2019-07-25T12:57:25Z</time>
</trkpt>
<trkpt lat="44.8956952" lon="5.3695593">
<ele>1054.88</ele>
<time>2019-07-25T12:57:26Z</time>
</trkpt>
<trkpt lat="44.8956952" lon="5.3695595">
<ele>1054.87</ele>
<time>2019-07-25T12:57:27Z</time>
</trkpt>
<trkpt lat="44.8956952" lon="5.3695597">
<ele>1054.86</ele>
<time>2019-07-25T12:57:28Z</time>
</trkpt>
<trkpt lat="44.8956953" lon="5.3695597">
<ele>1054.86</ele>
<time>2019-07-25T12:57:29Z</time>
</trkpt>
<trkpt lat="44.8956953" lon="5.3695598">
<ele>1054.85</ele>
<time>2019-07-25T12:57:30Z</time>
</trkpt>
<trkpt lat="44.8956953" lon="5.3695600">
<ele>1054.85</ele>
<time>2019-07-25T12:57:31Z</time>
</trkpt>
<trkpt lat="44.8956953" lon="5.3695601">
<ele>1054.84</ele>
<time>2019-07-25T12:57:32Z</time>
</trkpt>
<trkpt lat="44.8956953" lon="5.3695602">
<ele>1054.84</ele>
<time>2019-07-25T12:57:33Z</time>
</trkpt>
<trkpt lat="44.8956954" lon="5.3695602">
<ele>1054.83</ele>
<time>2019-07-25T12:57:34Z</time>
</trkpt>
<trkpt lat="44.8956951" lon="5.3695609">
<ele>1054.83</ele>
<time>2019-07-25T12:57:35Z</time>
</trkpt>
<trkpt lat="44.8956950" lon="5.3695616">
<ele>1054.82</ele>
<time>2019-07-25T12:57:36Z</time>
</trkpt>
<trkpt lat="44.8956947" lon="5.3695622">
<ele>1054.82</ele>
<time>2019-07-25T12:57:37Z</time>
</trkpt>
<trkpt lat="44.8956943" lon="5.3695631">
<ele>1054.81</ele>
<time>2019-07-25T12:57:38Z</time>
</trkpt>
<trkpt lat="44.8956941" lon="5.3695633">
<ele>1054.81</ele>
<time>2019-07-25T12:57:39Z</time>
</trkpt>
<trkpt lat="44.8956940" lon="5.3695637">
<ele>1054.81</ele>
<time>2019-07-25T12:57:40Z</time>
</trkpt>
<trkpt lat="44.8956939" lon="5.3695640">
<ele>1054.80</ele>
<time>2019-07-25T12:57:41Z</time>
</trkpt>
<trkpt lat="44.8956935" lon="5.3695644">
<ele>1054.80</ele>
<time>2019-07-25T12:57:42Z</time>
</trkpt>
<trkpt lat="44.8956936" lon="5.3695644">
<ele>1054.79</ele>
<time>2019-07-25T12:57:43Z</time>
</trkpt>
<trkpt lat="44.8956936" lon="5.3695642">
<ele>1054.79</ele>
<time>2019-07-25T12:57:44Z</time>
</trkpt>
<trkpt lat="44.8956935" lon="5.3695643">
<ele>1054.79</ele>
<time>2019-07-25T12:57:45Z</time>
</trkpt>
<trkpt lat="44.8956932" lon="5.3695648">
<ele>1054.78</ele>
<time>2019-07-25T12:57:46Z</time>
</trkpt>
<trkpt lat="44.8956932" lon="5.3695651">
<ele>1054.78</ele>
<time>2019-07-25T12:57:47Z</time>
</trkpt>
<trkpt lat="44.8956931" lon="5.3695655">
<ele>1054.77</ele>
<time>2019-07-25T12:57:48Z</time>
</trkpt>
<trkpt lat="44.8956929" lon="5.3695657">
<ele>1054.77</ele>
<time>2019-07-25T12:57:49Z</time>
</trkpt>
<trkpt lat="44.8956929" lon="5.3695660">
<ele>1054.76</ele>
<time>2019-07-25T12:57:50Z</time>
</trkpt>
<trkpt lat="44.8956928" lon="5.3695662">
<ele>1054.76</ele>
<time>2019-07-25T12:57:51Z</time>
</trkpt>
<trkpt lat="44.8956928" lon="5.3695661">
<ele>1054.75</ele>
<time>2019-07-25T12:57:52Z</time>
</trkpt>
<trkpt lat="44.8956926" lon="5.3695657">
<ele>1054.75</ele>
<time>2019-07-25T12:57:53Z</time>
</trkpt>
<trkpt lat="44.8956924" lon="5.3695659">
<ele>1054.74</ele>
<time>2019-07-25T12:57:54Z</time>
</trkpt>
<trkpt lat="44.8956921" lon="5.3695664">
<ele>1054.74</ele>
<time>2019-07-25T12:57:55Z</time>
</trkpt>
<trkpt lat="44.8956920" lon="5.3695662">
<ele>1054.73</ele>
<time>2019-07-25T12:57:56Z</time>
</trkpt>
<trkpt lat="44.8956919" lon="5.3695662">
<ele>1054.73</ele>
<time>2019-07-25T12:57:57Z</time>
</trkpt>
<trkpt lat="44.8956918" lon="5.3695660">
<ele>1054.72</ele>
<time>2019-07-25T12:57:58Z</time>
</trkpt>
<trkpt lat="44.8956916" lon="5.3695664">
<ele>1054.72</ele>
<time>2019-07-25T12:57:59Z</time>
</trkpt>
<trkpt lat="44.8956914" lon="5.3695663">
<ele>1054.71</ele>
<time>2019-07-25T12:58:00Z</time>
</trkpt>
<trkpt lat="44.8956913" lon="5.3695666">
<ele>1054.71</ele>
<time>2019-07-25T12:58:01Z</time>
</trkpt>
<trkpt lat="44.8956914" lon="5.3695668">
<ele>1054.70</ele>
<time>2019-07-25T12:58:02Z</time>
</trkpt>
<trkpt lat="44.8956913" lon="5.3695669">
<ele>1054.69</ele>
<time>2019-07-25T12:58:03Z</time>
</trkpt>
<trkpt lat="44.8956913" lon="5.3695669">
<ele>1054.69</ele>
<time>2019-07-25T12:58:04Z</time>
</trkpt>
<trkpt lat="44.8956911" lon="5.3695671">
<ele>1054.68</ele>
<time>2019-07-25T12:58:05Z</time>
</trkpt>
<trkpt lat="44.8956911" lon="5.3695671">
<ele>1054.68</ele>
<time>2019-07-25T12:58:06Z</time>
</trkpt>
<trkpt lat="44.8956910" lon="5.3695672">
<ele>1054.67</ele>
<time>2019-07-25T12:58:07Z</time>
</trkpt>
<trkpt lat="44.8956910" lon="5.3695671">
<ele>1054.66</ele>
<time>2019-07-25T12:58:08Z</time>
</trkpt>
<trkpt lat="44.8956909" lon="5.3695675">
<ele>1054.66</ele>
<time>2019-07-25T12:58:09Z</time>
</trkpt>
<trkpt lat="44.8956910" lon="5.3695674">
<ele>1054.65</ele>
<time>2019-07-25T12:58:10Z</time>
</trkpt>
<trkpt lat="44.8956910" lon="5.3695675">
<ele>1054.65</ele>
<time>2019-07-25T12:58:11Z</time>
</trkpt>
<trkpt lat="44.8956911" lon="5.3695677">
<ele>1054.64</ele>
<time>2019-07-25T12:58:12Z</time>
</trkpt>
<trkpt lat="44.8956912" lon="5.3695676">
<ele>1054.63</ele>
<time>2019-07-25T12:58:13Z</time>
</trkpt>
<trkpt lat="44.8956912" lon="5.3695676">
<ele>1054.63</ele>
<time>2019-07-25T12:58:14Z</time>
</trkpt>
<trkpt lat="44.8956913" lon="5.3695674">
<ele>1054.62</ele>
<time>2019-07-25T12:58:15Z</time>
</trkpt>
<trkpt lat="44.8956913" lon="5.3695672">
<ele>1054.62</ele>
<time>2019-07-25T12:58:16Z</time>
</trkpt>
<trkpt lat="44.8956913" lon="5.3695671">
<ele>1054.61</ele>
<time>2019-07-25T12:58:17Z</time>
</trkpt>
<trkpt lat="44.8956913" lon="5.3695672">
<ele>1054.61</ele>
<time>2019-07-25T12:58:18Z</time>
</trkpt>
<trkpt lat="44.8956913" lon="5.3695672">
<ele>1054.60</ele>
<time>2019-07-25T12:58:19Z</time>
</trkpt>
<trkpt lat="44.8956914" lon="5.3695673">
<ele>1054.60</ele>
<time>2019-07-25T12:58:20Z</time>
</trkpt>
<trkpt lat="44.8956914" lon="5.3695669">
<ele>1054.59</ele>
<time>2019-07-25T12:58:21Z</time>
</trkpt>
<trkpt lat="44.8956915" lon="5.3695666">
<ele>1054.59</ele>
<time>2019-07-25T12:58:22Z</time>
</trkpt>
<trkpt lat="44.8956915" lon="5.3695664">
<ele>1054.58</ele>
<time>2019-07-25T12:58:23Z</time>
</trkpt>
<trkpt lat="44.8956915" lon="5.3695662">
<ele>1054.57</ele>
<time>2019-07-25T12:58:24Z</time>
</trkpt>
<trkpt lat="44.8956914" lon="5.3695662">
<ele>1054.57</ele>
<time>2019-07-25T12:58:25Z</time>
</trkpt>
<trkpt lat="44.8956916" lon="5.3695654">
<ele>1054.56</ele>
<time>2019-07-25T12:58:26Z</time>
</trkpt>
<trkpt lat="44.8956918" lon="5.3695657">
<ele>1054.56</ele>
<time>2019-07-25T12:58:27Z</time>
</trkpt>
<trkpt lat="44.8956927" lon="5.3695628">
<ele>1054.55</ele>
<time>2019-07-25T12:58:28Z</time>
</trkpt>
<trkpt lat="44.8956946" lon="5.3695575">
<ele>1054.55</ele>
<time>2019-07-25T12:58:29Z</time>
</trkpt>
<trkpt lat="44.8956956" lon="5.3695539">
<ele>1054.54</ele>
<time>2019-07-25T12:58:30Z</time>
</trkpt>
<trkpt lat="44.8956956" lon="5.3695540">
<ele>1054.53</ele>
<time>2019-07-25T12:58:31Z</time>
</trkpt>
<trkpt lat="44.8956956" lon="5.3695541">
<ele>1054.53</ele>
<time>2019-07-25T12:58:32Z</time>
</trkpt>
<trkpt lat="44.8956956" lon="5.3695540">
<ele>1054.52</ele>
<time>2019-07-25T12:58:33Z</time>
</trkpt>
<trkpt lat="44.8956955" lon="5.3695541">
<ele>1054.52</ele>
<time>2019-07-25T12:58:34Z</time>
</trkpt>
<trkpt lat="44.8956954" lon="5.3695542">
<ele>1054.51</ele>
<time>2019-07-25T12:58:35Z</time>
</trkpt>
<trkpt lat="44.8956954" lon="5.3695537">
<ele>1054.51</ele>
<time>2019-07-25T12:58:36Z</time>
</trkpt>
<trkpt lat="44.8956952" lon="5.3695544">
<ele>1054.50</ele>
<time>2019-07-25T12:58:37Z</time>
</trkpt>
<trkpt lat="44.8956951" lon="5.3695544">
<ele>1054.50</ele>
<time>2019-07-25T12:58:38Z</time>
</trkpt>
<trkpt lat="44.8956952" lon="5.3695542">
<ele>1054.49</ele>
<time>2019-07-25T12:58:39Z</time>
</trkpt>
<trkpt lat="44.8956955" lon="5.3695535">
<ele>1054.49</ele>
<time>2019-07-25T12:58:40Z</time>
</trkpt>
<trkpt lat="44.8956958" lon="5.3695530">
<ele>1054.48</ele>
<time>2019-07-25T12:58:41Z</time>
</trkpt>
<trkpt lat="44.8956963" lon="5.3695522">
<ele>1054.48</ele>
<time>2019-07-25T12:58:42Z</time>
</trkpt>
<trkpt lat="44.8956967" lon="5.3695515">
<ele>1054.47</ele>
<time>2019-07-25T12:58:43Z</time>
</trkpt>
<trkpt lat="44.8956971" lon="5.3695506">
<ele>1054.46</ele>
<time>2019-07-25T12:58:44Z</time>
</trkpt>
<trkpt lat="44.8956978" lon="5.3695493">
<ele>1054.46</ele>
<time>2019-07-25T12:58:45Z</time>
</trkpt>
<trkpt lat="44.8956985" lon="5.3695479">
<ele>1054.45</ele>
<time>2019-07-25T12:58:46Z</time>
</trkpt>
<trkpt lat="44.8956992" lon="5.3695469">
<ele>1054.45</ele>
<time>2019-07-25T12:58:47Z</time>
</trkpt>
<trkpt lat="44.8956999" lon="5.3695456">
<ele>1054.44</ele>
<time>2019-07-25T12:58:48Z</time>
</trkpt>
<trkpt lat="44.8957003" lon="5.3695442">
<ele>1054.43</ele>
<time>2019-07-25T12:58:49Z</time>
</trkpt>
<trkpt lat="44.8957005" lon="5.3695438">
<ele>1054.43</ele>
<time>2019-07-25T12:58:50Z</time>
</trkpt>
<trkpt lat="44.8957008" lon="5.3695429">
<ele>1054.42</ele>
<time>2019-07-25T12:58:51Z</time>
</trkpt>
<trkpt lat="44.8957010" lon="5.3695419">
<ele>1054.41</ele>
<time>2019-07-25T12:58:52Z</time>
</trkpt>
<trkpt lat="44.8957009" lon="5.3695423">
<ele>1054.41</ele>
<time>2019-07-25T12:58:53Z</time>
</trkpt>
<trkpt lat="44.8957006" lon="5.3695432">
<ele>1054.40</ele>
<time>2019-07-25T12:58:54Z</time>
</trkpt>
<trkpt lat="44.8957004" lon="5.3695444">
<ele>1054.40</ele>
<time>2019-07-25T12:58:55Z</time>
</trkpt>
<trkpt lat="44.8957000" lon="5.3695455">
<ele>1054.39</ele>
<time>2019-07-25T12:58:56Z</time>
</trkpt>
<trkpt lat="44.8956996" lon="5.3695460">
<ele>1054.38</ele>
<time>2019-07-25T12:58:57Z</time>
</trkpt>
<trkpt lat="44.8956995" lon="5.3695464">
<ele>1054.38</ele>
<time>2019-07-25T12:58:58Z</time>
</trkpt>
<trkpt lat="44.8956993" lon="5.3695472">
<ele>1054.37</ele>
<time>2019-07-25T12:58:59Z</time>
</trkpt>
<trkpt lat="44.8956989" lon="5.3695475">
<ele>1054.37</ele>
<time>2019-07-25T12:59:00Z</time>
</trkpt>
<trkpt lat="44.8956986" lon="5.3695481">
<ele>1054.36</ele>
<time>2019-07-25T12:59:01Z</time>
</trkpt>
<trkpt lat="44.8956984" lon="5.3695478">
<ele>1054.35</ele>
<time>2019-07-25T12:59:02Z</time>
</trkpt>
<trkpt lat="44.8956983" lon="5.3695478">
<ele>1054.35</ele>
<time>2019-07-25T12:59:03Z</time>
</trkpt>
<trkpt lat="44.8956979" lon="5.3695484">
<ele>1054.34</ele>
<time>2019-07-25T12:59:04Z</time>
</trkpt>
<trkpt lat="44.8956975" lon="5.3695490">
<ele>1054.34</ele>
<time>2019-07-25T12:59:05Z</time>
</trkpt>
<trkpt lat="44.8956971" lon="5.3695498">
<ele>1054.33</ele>
<time>2019-07-25T12:59:06Z</time>
</trkpt>
<trkpt lat="44.8956966" lon="5.3695513">
<ele>1054.33</ele>
<time>2019-07-25T12:59:07Z</time>
</trkpt>
<trkpt lat="44.8956962" lon="5.3695524">
<ele>1054.32</ele>
<time>2019-07-25T12:59:08Z</time>
</trkpt>
<trkpt lat="44.8956957" lon="5.3695535">
<ele>1054.32</ele>
<time>2019-07-25T12:59:09Z</time>
</trkpt>
<trkpt lat="44.8956956" lon="5.3695538">
<ele>1054.31</ele>
<time>2019-07-25T12:59:10Z</time>
</trkpt>
<trkpt lat="44.8956954" lon="5.3695541">
<ele>1054.31</ele>
<time>2019-07-25T12:59:11Z</time>
</trkpt>
<trkpt lat="44.8956948" lon="5.3695550">
<ele>1054.30</ele>
<time>2019-07-25T12:59:12Z</time>
</trkpt>
<trkpt lat="44.8956945" lon="5.3695557">
<ele>1054.30</ele>
<time>2019-07-25T12:59:13Z</time>
</trkpt>
<trkpt lat="44.8956941" lon="5.3695573">
<ele>1054.29</ele>
<time>2019-07-25T12:59:14Z</time>
</trkpt>
<trkpt lat="44.8956937" lon="5.3695579">
<ele>1054.29</ele>
<time>2019-07-25T12:59:15Z</time>
</trkpt>
<trkpt lat="44.8956934" lon="5.3695584">
<ele>1054.29</ele>
<time>2019-07-25T12:59:16Z</time>
</trkpt>
<trkpt lat="44.8956932" lon="5.3695587">
<ele>1054.28</ele>
<time>2019-07-25T12:59:17Z</time>
</trkpt>
<trkpt lat="44.8956931" lon="5.3695589">
<ele>1054.28</ele>
<time>2019-07-25T12:59:18Z</time>
</trkpt>
<trkpt lat="44.8956926" lon="5.3695594">
<ele>1054.27</ele>
<time>2019-07-25T12:59:19Z</time>
</trkpt>
<trkpt lat="44.8956924" lon="5.3695594">
<ele>1054.27</ele>
<time>2019-07-25T12:59:20Z</time>
</trkpt>
<trkpt lat="44.8956923" lon="5.3695596">
<ele>1054.26</ele>
<time>2019-07-25T12:59:21Z</time>
</trkpt>
<trkpt lat="44.8956922" lon="5.3695597">
<ele>1054.26</ele>
<time>2019-07-25T12:59:22Z</time>
</trkpt>
<trkpt lat="44.8956920" lon="5.3695597">
<ele>1054.26</ele>
<time>2019-07-25T12:59:23Z</time>
</trkpt>
<trkpt lat="44.8956920" lon="5.3695598">
<ele>1054.25</ele>
<time>2019-07-25T12:59:24Z</time>
</trkpt>
<trkpt lat="44.8956919" lon="5.3695596">
<ele>1054.25</ele>
<time>2019-07-25T12:59:25Z</time>
</trkpt>
<trkpt lat="44.8956918" lon="5.3695596">
<ele>1054.24</ele>
<time>2019-07-25T12:59:26Z</time>
</trkpt>
<trkpt lat="44.8956918" lon="5.3695595">
<ele>1054.24</ele>
<time>2019-07-25T12:59:27Z</time>
</trkpt>
<trkpt lat="44.8956917" lon="5.3695593">
<ele>1054.23</ele>
<time>2019-07-25T12:59:28Z</time>
</trkpt>
<trkpt lat="44.8956917" lon="5.3695593">
<ele>1054.23</ele>
<time>2019-07-25T12:59:29Z</time>
</trkpt>
<trkpt lat="44.8956917" lon="5.3695590">
<ele>1054.22</ele>
<time>2019-07-25T12:59:30Z</time>
</trkpt>
<trkpt lat="44.8956916" lon="5.3695588">
<ele>1054.22</ele>
<time>2019-07-25T12:59:31Z</time>
</trkpt>
<trkpt lat="44.8956916" lon="5.3695586">
<ele>1054.21</ele>
<time>2019-07-25T12:59:32Z</time>
</trkpt>
<trkpt lat="44.8956915" lon="5.3695584">
<ele>1054.20</ele>
<time>2019-07-25T12:59:33Z</time>
</trkpt>
<trkpt lat="44.8956914" lon="5.3695584">
<ele>1054.20</ele>
<time>2019-07-25T12:59:34Z</time>
</trkpt>
<trkpt lat="44.8956913" lon="5.3695582">
<ele>1054.19</ele>
<time>2019-07-25T12:59:35Z</time>
</trkpt>
<trkpt lat="44.8956912" lon="5.3695578">
<ele>1054.19</ele>
<time>2019-07-25T12:59:36Z</time>
</trkpt>
<trkpt lat="44.8956912" lon="5.3695577">
<ele>1054.18</ele>
<time>2019-07-25T12:59:37Z</time>
</trkpt>
<trkpt lat="44.8956913" lon="5.3695575">
<ele>1054.17</ele>
<time>2019-07-25T12:59:38Z</time>
</trkpt>
<trkpt lat="44.8956909" lon="5.3695573">
<ele>1054.16</ele>
<time>2019-07-25T12:59:39Z</time>
</trkpt>
<trkpt lat="44.8956907" lon="5.3695574">
<ele>1054.16</ele>
<time>2019-07-25T12:59:40Z</time>
</trkpt>
<trkpt lat="44.8956905" lon="5.3695576">
<ele>1054.15</ele>
<time>2019-07-25T12:59:41Z</time>
</trkpt>
<trkpt lat="44.8956904" lon="5.3695576">
<ele>1054.14</ele>
<time>2019-07-25T12:59:42Z</time>
</trkpt>
<trkpt lat="44.8956900" lon="5.3695578">
<ele>1054.13</ele>
<time>2019-07-25T12:59:43Z</time>
</trkpt>
<trkpt lat="44.8956898" lon="5.3695578">
<ele>1054.13</ele>
<time>2019-07-25T12:59:44Z</time>
</trkpt>
<trkpt lat="44.8956896" lon="5.3695584">
<ele>1054.12</ele>
<time>2019-07-25T12:59:45Z</time>
</trkpt>
<trkpt lat="44.8956894" lon="5.3695585">
<ele>1054.11</ele>
<time>2019-07-25T12:59:46Z</time>
</trkpt>
<trkpt lat="44.8956893" lon="5.3695589">
<ele>1054.10</ele>
<time>2019-07-25T12:59:47Z</time>
</trkpt>
<trkpt lat="44.8956891" lon="5.3695590">
<ele>1054.09</ele>
<time>2019-07-25T12:59:48Z</time>
</trkpt>
<trkpt lat="44.8956890" lon="5.3695589">
<ele>1054.09</ele>
<time>2019-07-25T12:59:49Z</time>
</trkpt>
<trkpt lat="44.8956890" lon="5.3695590">
<ele>1054.08</ele>
<time>2019-07-25T12:59:50Z</time>
</trkpt>
<trkpt lat="44.8956890" lon="5.3695588">
<ele>1054.07</ele>
<time>2019-07-25T12:59:51Z</time>
</trkpt>
<trkpt lat="44.8956891" lon="5.3695586">
<ele>1054.05</ele>
<time>2019-07-25T12:59:52Z</time>
</trkpt>
<trkpt lat="44.8956892" lon="5.3695588">
<ele>1054.04</ele>
<time>2019-07-25T12:59:53Z</time>
</trkpt>
<trkpt lat="44.8956898" lon="5.3695583">
<ele>1054.03</ele>
<time>2019-07-25T12:59:54Z</time>
</trkpt>
<trkpt lat="44.8956898" lon="5.3695585">
<ele>1054.02</ele>
<time>2019-07-25T12:59:55Z</time>
</trkpt>
<trkpt lat="44.8956897" lon="5.3695588">
<ele>1054.01</ele>
<time>2019-07-25T12:59:56Z</time>
</trkpt>
<trkpt lat="44.8956897" lon="5.3695590">
<ele>1054.00</ele>
<time>2019-07-25T12:59:57Z</time>
</trkpt>
<trkpt lat="44.8956896" lon="5.3695593">
<ele>1053.99</ele>
<time>2019-07-25T12:59:58Z</time>
</trkpt>
<trkpt lat="44.8956896" lon="5.3695597">
<ele>1053.98</ele>
<time>2019-07-25T12:59:59Z</time>
</trkpt>
<trkpt lat="44.8956896" lon="5.3695602">
<ele>1053.96</ele>
<time>2019-07-25T13:00:00Z</time>
</trkpt>
<trkpt lat="44.8956895" lon="5.3695604">
<ele>1053.95</ele>
<time>2019-07-25T13:00:01Z</time>
</trkpt>
<trkpt lat="44.8956894" lon="5.3695606">
<ele>1053.94</ele>
<time>2019-07-25T13:00:02Z</time>
</trkpt>
<trkpt lat="44.8956895" lon="5.3695607">
<ele>1053.93</ele>
<time>2019-07-25T13:00:03Z</time>
</trkpt>
<trkpt lat="44.8956895" lon="5.3695606">
<ele>1053.92</ele>
<time>2019-07-25T13:00:04Z</time>
</trkpt>
<trkpt lat="44.8956896" lon="5.3695605">
<ele>1053.90</ele>
<time>2019-07-25T13:00:05Z</time>
</trkpt>
<trkpt lat="44.8956897" lon="5.3695602">
<ele>1053.89</ele>
<time>2019-07-25T13:00:06Z</time>
</trkpt>
<trkpt lat="44.8956898" lon="5.3695601">
<ele>1053.88</ele>
<time>2019-07-25T13:00:07Z</time>
</trkpt>
<trkpt lat="44.8956898" lon="5.3695599">
<ele>1053.86</ele>
<time>2019-07-25T13:00:08Z</time>
</trkpt>
<trkpt lat="44.8956900" lon="5.3695597">
<ele>1053.85</ele>
<time>2019-07-25T13:00:09Z</time>
</trkpt>
<trkpt lat="44.8956902" lon="5.3695594">
<ele>1053.84</ele>
<time>2019-07-25T13:00:10Z</time>
</trkpt>
<trkpt lat="44.8956904" lon="5.3695592">
<ele>1053.82</ele>
<time>2019-07-25T13:00:11Z</time>
</trkpt>
<trkpt lat="44.8956904" lon="5.3695589">
<ele>1053.81</ele>
<time>2019-07-25T13:00:12Z</time>
</trkpt>
<trkpt lat="44.8956904" lon="5.3695586">
<ele>1053.80</ele>
<time>2019-07-25T13:00:13Z</time>
</trkpt>
<trkpt lat="44.8956905" lon="5.3695583">
<ele>1053.78</ele>
<time>2019-07-25T13:00:14Z</time>
</trkpt>
<trkpt lat="44.8956906" lon="5.3695580">
<ele>1053.77</ele>
<time>2019-07-25T13:00:15Z</time>
</trkpt>
<trkpt lat="44.8956906" lon="5.3695577">
<ele>1053.75</ele>
<time>2019-07-25T13:00:16Z</time>
</trkpt>
<trkpt lat="44.8956906" lon="5.3695575">
<ele>1053.73</ele>
<time>2019-07-25T13:00:17Z</time>
</trkpt>
<trkpt lat="44.8956907" lon="5.3695572">
<ele>1053.72</ele>
<time>2019-07-25T13:00:18Z</time>
</trkpt>
<trkpt lat="44.8956907" lon="5.3695568">
<ele>1053.70</ele>
<time>2019-07-25T13:00:19Z</time>
</trkpt>
<trkpt lat="44.8956904" lon="5.3695566">
<ele>1053.69</ele>
<time>2019-07-25T13:00:20Z</time>
</trkpt>
<trkpt lat="44.8956904" lon="5.3695566">
<ele>1053.67</ele>
<time>2019-07-25T13:00:21Z</time>
</trkpt>
<trkpt lat="44.8956905" lon="5.3695565">
<ele>1053.65</ele>
<time>2019-07-25T13:00:22Z</time>
</trkpt>
<trkpt lat="44.8956904" lon="5.3695565">
<ele>1053.64</ele>
<time>2019-07-25T13:00:23Z</time>
</trkpt>
<trkpt lat="44.8956904" lon="5.3695564">
<ele>1053.62</ele>
<time>2019-07-25T13:00:24Z</time>
</trkpt>
<trkpt lat="44.8956904" lon="5.3695566">
<ele>1053.60</ele>
<time>2019-07-25T13:00:25Z</time>
</trkpt>
<trkpt lat="44.8956902" lon="5.3695569">
<ele>1053.59</ele>
<time>2019-07-25T13:00:26Z</time>
</trkpt>
<trkpt lat="44.8956900" lon="5.3695572">
<ele>1053.57</ele>
<time>2019-07-25T13:00:27Z</time>
</trkpt>
<trkpt lat="44.8956898" lon="5.3695575">
<ele>1053.55</ele>
<time>2019-07-25T13:00:28Z</time>
</trkpt>
<trkpt lat="44.8956896" lon="5.3695578">
<ele>1053.54</ele>
<time>2019-07-25T13:00:29Z</time>
</trkpt>
<trkpt lat="44.8956895" lon="5.3695581">
<ele>1053.52</ele>
<time>2019-07-25T13:00:30Z</time>
</trkpt>
<trkpt lat="44.8956892" lon="5.3695585">
<ele>1053.50</ele>
<time>2019-07-25T13:00:31Z</time>
</trkpt>
<trkpt lat="44.8956889" lon="5.3695589">
<ele>1053.49</ele>
<time>2019-07-25T13:00:32Z</time>
</trkpt>
<trkpt lat="44.8956886" lon="5.3695594">
<ele>1053.47</ele>
<time>2019-07-25T13:00:33Z</time>
</trkpt>
<trkpt lat="44.8956885" lon="5.3695598">
<ele>1053.45</ele>
<time>2019-07-25T13:00:34Z</time>
</trkpt>
<trkpt lat="44.8956884" lon="5.3695601">
<ele>1053.44</ele>
<time>2019-07-25T13:00:35Z</time>
</trkpt>
<trkpt lat="44.8956882" lon="5.3695606">
<ele>1053.42</ele>
<time>2019-07-25T13:00:36Z</time>
</trkpt>
<trkpt lat="44.8956875" lon="5.3695610">
<ele>1053.41</ele>
<time>2019-07-25T13:00:37Z</time>
</trkpt>
<trkpt lat="44.8956878" lon="5.3695618">
<ele>1053.39</ele>
<time>2019-07-25T13:00:38Z</time>
</trkpt>
<trkpt lat="44.8956876" lon="5.3695625">
<ele>1053.37</ele>
<time>2019-07-25T13:00:39Z</time>
</trkpt>
<trkpt lat="44.8956862" lon="5.3695639">
<ele>1053.36</ele>
<time>2019-07-25T13:00:40Z</time>
</trkpt>
<trkpt lat="44.8956848" lon="5.3695658">
<ele>1053.34</ele>
<time>2019-07-25T13:00:41Z</time>
</trkpt>
<trkpt lat="44.8956843" lon="5.3695666">
<ele>1053.33</ele>
<time>2019-07-25T13:00:42Z</time>
</trkpt>
<trkpt lat="44.8956839" lon="5.3695679">
<ele>1053.31</ele>
<time>2019-07-25T13:00:43Z</time>
</trkpt>
<trkpt lat="44.8956835" lon="5.3695689">
<ele>1053.30</ele>
<time>2019-07-25T13:00:44Z</time>
</trkpt>
<trkpt lat="44.8956830" lon="5.3695696">
<ele>1053.29</ele>
<time>2019-07-25T13:00:45Z</time>
</trkpt>
<trkpt lat="44.8956822" lon="5.3695703">
<ele>1053.27</ele>
<time>2019-07-25T13:00:46Z</time>
</trkpt>
<trkpt lat="44.8956810" lon="5.3695720">
<ele>1053.26</ele>
<time>2019-07-25T13:00:47Z</time>
</trkpt>
<trkpt lat="44.8956813" lon="5.3695728">
<ele>1053.24</ele>
<time>2019-07-25T13:00:48Z</time>
</trkpt>
<trkpt lat="44.8956812" lon="5.3695733">
<ele>1053.23</ele>
<time>2019-07-25T13:00:49Z</time>
</trkpt>
<trkpt lat="44.8956807" lon="5.3695737">
<ele>1053.21</ele>
<time>2019-07-25T13:00:50Z</time>
</trkpt>
<trkpt lat="44.8956809" lon="5.3695734">
<ele>1053.20</ele>
<time>2019-07-25T13:00:51Z</time>
</trkpt>
<trkpt lat="44.8956812" lon="5.3695733">
<ele>1053.18</ele>
<time>2019-07-25T13:00:52Z</time>
</trkpt>
<trkpt lat="44.8956815" lon="5.3695733">
<ele>1053.17</ele>
<time>2019-07-25T13:00:53Z</time>
</trkpt>
<trkpt lat="44.8956817" lon="5.3695731">
<ele>1053.16</ele>
<time>2019-07-25T13:00:54Z</time>
</trkpt>
<trkpt lat="44.8956818" lon="5.3695727">
<ele>1053.14</ele>
<time>2019-07-25T13:00:55Z</time>
</trkpt>
<trkpt lat="44.8956819" lon="5.3695729">
<ele>1053.13</ele>
<time>2019-07-25T13:00:56Z</time>
</trkpt>
<trkpt lat="44.8956816" lon="5.3695723">
<ele>1053.11</ele>
<time>2019-07-25T13:00:57Z</time>
</trkpt>
<trkpt lat="44.8956823" lon="5.3695720">
<ele>1053.10</ele>
<time>2019-07-25T13:00:58Z</time>
</trkpt>
<trkpt lat="44.8956819" lon="5.3695713">
<ele>1053.08</ele>
<time>2019-07-25T13:00:59Z</time>
</trkpt>
<trkpt lat="44.8956813" lon="5.3695712">
<ele>1053.07</ele>
<time>2019-07-25T13:01:00Z</time>
</trkpt>
<trkpt lat="44.8956814" lon="5.3695712">
<ele>1053.05</ele>
<time>2019-07-25T13:01:01Z</time>
</trkpt>
<trkpt lat="44.8956806" lon="5.3695710">
<ele>1053.04</ele>
<time>2019-07-25T13:01:02Z</time>
</trkpt>
<trkpt lat="44.8956805" lon="5.3695712">
<ele>1053.02</ele>
<time>2019-07-25T13:01:03Z</time>
</trkpt>
<trkpt lat="44.8956803" lon="5.3695707">
<ele>1053.00</ele>
<time>2019-07-25T13:01:04Z</time>
</trkpt>
<trkpt lat="44.8956801" lon="5.3695707">
<ele>1052.99</ele>
<time>2019-07-25T13:01:05Z</time>
</trkpt>
<trkpt lat="44.8956795" lon="5.3695710">
<ele>1052.97</ele>
<time>2019-07-25T13:01:06Z</time>
</trkpt>
<trkpt lat="44.8956790" lon="5.3695716">
<ele>1052.96</ele>
<time>2019-07-25T13:01:07Z</time>
</trkpt>
<trkpt lat="44.8956779" lon="5.3695722">
<ele>1052.94</ele>
<time>2019-07-25T13:01:08Z</time>
</trkpt>
<trkpt lat="44.8956772" lon="5.3695730">
<ele>1052.93</ele>
<time>2019-07-25T13:01:09Z</time>
</trkpt>
<trkpt lat="44.8956768" lon="5.3695737">
<ele>1052.91</ele>
<time>2019-07-25T13:01:10Z</time>
</trkpt>
<trkpt lat="44.8956766" lon="5.3695740">
<ele>1052.89</ele>
<time>2019-07-25T13:01:11Z</time>
</trkpt>
<trkpt lat="44.8956764" lon="5.3695742">
<ele>1052.88</ele>
<time>2019-07-25T13:01:12Z</time>
</trkpt>
<trkpt lat="44.8956762" lon="5.3695740">
<ele>1052.86</ele>
<time>2019-07-25T13:01:13Z</time>
</trkpt>
<trkpt lat="44.8956758" lon="5.3695743">
<ele>1052.85</ele>
<time>2019-07-25T13:01:14Z</time>
</trkpt>
<trkpt lat="44.8956753" lon="5.3695747">
<ele>1052.83</ele>
<time>2019-07-25T13:01:15Z</time>
</trkpt>
<trkpt lat="44.8956746" lon="5.3695752">
<ele>1052.82</ele>
<time>2019-07-25T13:01:16Z</time>
</trkpt>
<trkpt lat="44.8956740" lon="5.3695758">
<ele>1052.80</ele>
<time>2019-07-25T13:01:17Z</time>
</trkpt>
<trkpt lat="44.8956735" lon="5.3695764">
<ele>1052.78</ele>
<time>2019-07-25T13:01:18Z</time>
</trkpt>
<trkpt lat="44.8956730" lon="5.3695771">
<ele>1052.77</ele>
<time>2019-07-25T13:01:19Z</time>
</trkpt>
<trkpt lat="44.8956727" lon="5.3695775">
<ele>1052.75</ele>
<time>2019-07-25T13:01:20Z</time>
</trkpt>
<trkpt lat="44.8956723" lon="5.3695787">
<ele>1052.74</ele>
<time>2019-07-25T13:01:21Z</time>
</trkpt>
<trkpt lat="44.8956717" lon="5.3695795">
<ele>1052.72</ele>
<time>2019-07-25T13:01:22Z</time>
</trkpt>
<trkpt lat="44.8956713" lon="5.3695800">
<ele>1052.71</ele>
<time>2019-07-25T13:01:23Z</time>
</trkpt>
<trkpt lat="44.8956713" lon="5.3695802">
<ele>1052.69</ele>
<time>2019-07-25T13:01:24Z</time>
</trkpt>
<trkpt lat="44.8956713" lon="5.3695803">
<ele>1052.68</ele>
<time>2019-07-25T13:01:25Z</time>
</trkpt>
<trkpt lat="44.8956712" lon="5.3695803">
<ele>1052.66</ele>
<time>2019-07-25T13:01:26Z</time>
</trkpt>
<trkpt lat="44.8956714" lon="5.3695802">
<ele>1052.65</ele>
<time>2019-07-25T13:01:27Z</time>
</trkpt>
<trkpt lat="44.8956716" lon="5.3695803">
<ele>1052.63</ele>
<time>2019-07-25T13:01:28Z</time>
</trkpt>
<trkpt lat="44.8956718" lon="5.3695800">
<ele>1052.62</ele>
<time>2019-07-25T13:01:29Z</time>
</trkpt>
<trkpt lat="44.8956722" lon="5.3695799">
<ele>1052.60</ele>
<time>2019-07-25T13:01:30Z</time>
</trkpt>
<trkpt lat="44.8956725" lon="5.3695795">
<ele>1052.59</ele>
<time>2019-07-25T13:01:31Z</time>
</trkpt>
<trkpt lat="44.8956728" lon="5.3695787">
<ele>1052.57</ele>
<time>2019-07-25T13:01:32Z</time>
</trkpt>
<trkpt lat="44.8956726" lon="5.3695789">
<ele>1052.55</ele>
<time>2019-07-25T13:01:33Z</time>
</trkpt>
<trkpt lat="44.8956729" lon="5.3695787">
<ele>1052.54</ele>
<time>2019-07-25T13:01:34Z</time>
</trkpt>
<trkpt lat="44.8956749" lon="5.3695783">
<ele>1052.52</ele>
<time>2019-07-25T13:01:35Z</time>
</trkpt>
<trkpt lat="44.8956774" lon="5.3695781">
<ele>1052.51</ele>
<time>2019-07-25T13:01:36Z</time>
</trkpt>
<trkpt lat="44.8956792" lon="5.3695780">
<ele>1052.49</ele>
<time>2019-07-25T13:01:37Z</time>
</trkpt>
<trkpt lat="44.8956799" lon="5.3695783">
<ele>1052.47</ele>
<time>2019-07-25T13:01:38Z</time>
</trkpt>
<trkpt lat="44.8956809" lon="5.3695784">
<ele>1052.46</ele>
<time>2019-07-25T13:01:39Z</time>
</trkpt>
<trkpt lat="44.8956805" lon="5.3695785">
<ele>1052.44</ele>
<time>2019-07-25T13:01:40Z</time>
</trkpt>
<trkpt lat="44.8956803" lon="5.3695785">
<ele>1052.43</ele>
<time>2019-07-25T13:01:41Z</time>
</trkpt>
<trkpt lat="44.8956797" lon="5.3695786">
<ele>1052.41</ele>
<time>2019-07-25T13:01:42Z</time>
</trkpt>
<trkpt lat="44.8956791" lon="5.3695787">
<ele>1052.39</ele>
<time>2019-07-25T13:01:43Z</time>
</trkpt>
<trkpt lat="44.8956783" lon="5.3695789">
<ele>1052.38</ele>
<time>2019-07-25T13:01:44Z</time>
</trkpt>
<trkpt lat="44.8956777" lon="5.3695788">
<ele>1052.36</ele>
<time>2019-07-25T13:01:45Z</time>
</trkpt>
<trkpt lat="44.8956772" lon="5.3695791">
<ele>1052.34</ele>
<time>2019-07-25T13:01:46Z</time>
</trkpt>
<trkpt lat="44.8956739" lon="5.3695796">
<ele>1052.33</ele>
<time>2019-07-25T13:01:47Z</time>
</trkpt>
<trkpt lat="44.8956695" lon="5.3695803">
<ele>1052.31</ele>
<time>2019-07-25T13:01:48Z</time>
</trkpt>
<trkpt lat="44.8956670" lon="5.3695808">
<ele>1052.30</ele>
<time>2019-07-25T13:01:49Z</time>
</trkpt>
<trkpt lat="44.8956665" lon="5.3695806">
<ele>1052.28</ele>
<time>2019-07-25T13:01:50Z</time>
</trkpt>
<trkpt lat="44.8956660" lon="5.3695806">
<ele>1052.26</ele>
<time>2019-07-25T13:01:51Z</time>
</trkpt>
<trkpt lat="44.8956655" lon="5.3695807">
<ele>1052.25</ele>
<time>2019-07-25T13:01:52Z</time>
</trkpt>
<trkpt lat="44.8956650" lon="5.3695810">
<ele>1052.23</ele>
<time>2019-07-25T13:01:53Z</time>
</trkpt>
<trkpt lat="44.8956640" lon="5.3695807">
<ele>1052.22</ele>
<time>2019-07-25T13:01:54Z</time>
</trkpt>
<trkpt lat="44.8956635" lon="5.3695808">
<ele>1052.20</ele>
<time>2019-07-25T13:01:55Z</time>
</trkpt>
<trkpt lat="44.8956631" lon="5.3695812">
<ele>1052.19</ele>
<time>2019-07-25T13:01:56Z</time>
</trkpt>
<trkpt lat="44.8956631" lon="5.3695813">
<ele>1052.17</ele>
<time>2019-07-25T13:01:57Z</time>
</trkpt>
<trkpt lat="44.8956631" lon="5.3695818">
<ele>1052.16</ele>
<time>2019-07-25T13:01:58Z</time>
</trkpt>
<trkpt lat="44.8956633" lon="5.3695819">
<ele>1052.14</ele>
<time>2019-07-25T13:01:59Z</time>
</trkpt>
<trkpt lat="44.8956638" lon="5.3695821">
<ele>1052.13</ele>
<time>2019-07-25T13:02:00Z</time>
</trkpt>
<trkpt lat="44.8956639" lon="5.3695823">
<ele>1052.11</ele>
<time>2019-07-25T13:02:01Z</time>
</trkpt>
<trkpt lat="44.8956645" lon="5.3695828">
<ele>1052.10</ele>
<time>2019-07-25T13:02:02Z</time>
</trkpt>
<trkpt lat="44.8956649" lon="5.3695831">
<ele>1052.08</ele>
<time>2019-07-25T13:02:03Z</time>
</trkpt>
<trkpt lat="44.8956651" lon="5.3695834">
<ele>1052.07</ele>
<time>2019-07-25T13:02:04Z</time>
</trkpt>
<trkpt lat="44.8956653" lon="5.3695834">
<ele>1052.06</ele>
<time>2019-07-25T13:02:05Z</time>
</trkpt>
<trkpt lat="44.8956657" lon="5.3695837">
<ele>1052.04</ele>
<time>2019-07-25T13:02:06Z</time>
</trkpt>
<trkpt lat="44.8956660" lon="5.3695833">
<ele>1052.03</ele>
<time>2019-07-25T13:02:07Z</time>
</trkpt>
<trkpt lat="44.8956662" lon="5.3695834">
<ele>1052.01</ele>
<time>2019-07-25T13:02:08Z</time>
</trkpt>
<trkpt lat="44.8956664" lon="5.3695837">
<ele>1052.00</ele>
<time>2019-07-25T13:02:09Z</time>
</trkpt>
<trkpt lat="44.8956665" lon="5.3695840">
<ele>1051.98</ele>
<time>2019-07-25T13:02:10Z</time>
</trkpt>
<trkpt lat="44.8956665" lon="5.3695852">
<ele>1051.97</ele>
<time>2019-07-25T13:02:11Z</time>
</trkpt>
<trkpt lat="44.8956665" lon="5.3695857">
<ele>1051.96</ele>
<time>2019-07-25T13:02:12Z</time>
</trkpt>
<trkpt lat="44.8956665" lon="5.3695863">
<ele>1051.94</ele>
<time>2019-07-25T13:02:13Z</time>
</trkpt>
<trkpt lat="44.8956664" lon="5.3695866">
<ele>1051.93</ele>
<time>2019-07-25T13:02:14Z</time>
</trkpt>
<trkpt lat="44.8956663" lon="5.3695868">
<ele>1051.92</ele>
<time>2019-07-25T13:02:15Z</time>
</trkpt>
<trkpt lat="44.8956660" lon="5.3695872">
<ele>1051.90</ele>
<time>2019-07-25T13:02:16Z</time>
</trkpt>
<trkpt lat="44.8956654" lon="5.3695878">
<ele>1051.89</ele>
<time>2019-07-25T13:02:17Z</time>
</trkpt>
<trkpt lat="44.8956644" lon="5.3695885">
<ele>1051.88</ele>
<time>2019-07-25T13:02:18Z</time>
</trkpt>
<trkpt lat="44.8956635" lon="5.3695891">
<ele>1051.86</ele>
<time>2019-07-25T13:02:19Z</time>
</trkpt>
<trkpt lat="44.8956629" lon="5.3695897">
<ele>1051.85</ele>
<time>2019-07-25T13:02:20Z</time>
</trkpt>
<trkpt lat="44.8956627" lon="5.3695898">
<ele>1051.84</ele>
<time>2019-07-25T13:02:21Z</time>
</trkpt>
<trkpt lat="44.8956622" lon="5.3695904">
<ele>1051.83</ele>
<time>2019-07-25T13:02:22Z</time>
</trkpt>
<trkpt lat="44.8956617" lon="5.3695914">
<ele>1051.82</ele>
<time>2019-07-25T13:02:23Z</time>
</trkpt>
<trkpt lat="44.8956614" lon="5.3695921">
<ele>1051.81</ele>
<time>2019-07-25T13:02:24Z</time>
</trkpt>
<trkpt lat="44.8956607" lon="5.3695924">
<ele>1051.80</ele>
<time>2019-07-25T13:02:25Z</time>
</trkpt>
<trkpt lat="44.8956607" lon="5.3695929">
<ele>1051.79</ele>
<time>2019-07-25T13:02:26Z</time>
</trkpt>
<trkpt lat="44.8956607" lon="5.3695934">
<ele>1051.78</ele>
<time>2019-07-25T13:02:27Z</time>
</trkpt>
<trkpt lat="44.8956603" lon="5.3695935">
<ele>1051.77</ele>
<time>2019-07-25T13:02:28Z</time>
</trkpt>
<trkpt lat="44.8956600" lon="5.3695939">
<ele>1051.76</ele>
<time>2019-07-25T13:02:29Z</time>
</trkpt>
<trkpt lat="44.8956600" lon="5.3695944">
<ele>1051.75</ele>
<time>2019-07-25T13:02:30Z</time>
</trkpt>
<trkpt lat="44.8956602" lon="5.3695949">
<ele>1051.74</ele>
<time>2019-07-25T13:02:31Z</time>
</trkpt>
<trkpt lat="44.8956603" lon="5.3695948">
<ele>1051.73</ele>
<time>2019-07-25T13:02:32Z</time>
</trkpt>
<trkpt lat="44.8956605" lon="5.3695953">
<ele>1051.72</ele>
<time>2019-07-25T13:02:33Z</time>
</trkpt>
<trkpt lat="44.8956607" lon="5.3695954">
<ele>1051.71</ele>
<time>2019-07-25T13:02:34Z</time>
</trkpt>
<trkpt lat="44.8956607" lon="5.3695959">
<ele>1051.70</ele>
<time>2019-07-25T13:02:35Z</time>
</trkpt>
<trkpt lat="44.8956609" lon="5.3695960">
<ele>1051.69</ele>
<time>2019-07-25T13:02:36Z</time>
</trkpt>
<trkpt lat="44.8956614" lon="5.3695962">
<ele>1051.68</ele>
<time>2019-07-25T13:02:37Z</time>
</trkpt>
<trkpt lat="44.8956616" lon="5.3695964">
<ele>1051.67</ele>
<time>2019-07-25T13:02:38Z</time>
</trkpt>
<trkpt lat="44.8956618" lon="5.3695966">
<ele>1051.66</ele>
<time>2019-07-25T13:02:39Z</time>
</trkpt>
<trkpt lat="44.8956623" lon="5.3695973">
<ele>1051.65</ele>
<time>2019-07-25T13:02:40Z</time>
</trkpt>
<trkpt lat="44.8956628" lon="5.3695978">
<ele>1051.64</ele>
<time>2019-07-25T13:02:41Z</time>
</trkpt>
<trkpt lat="44.8956627" lon="5.3695985">
<ele>1051.63</ele>
<time>2019-07-25T13:02:42Z</time>
</trkpt>
<trkpt lat="44.8956629" lon="5.3695985">
<ele>1051.62</ele>
<time>2019-07-25T13:02:43Z</time>
</trkpt>
<trkpt lat="44.8956629" lon="5.3695991">
<ele>1051.61</ele>
<time>2019-07-25T13:02:44Z</time>
</trkpt>
<trkpt lat="44.8956631" lon="5.3695991">
<ele>1051.60</ele>
<time>2019-07-25T13:02:45Z</time>
</trkpt>
<trkpt lat="44.8956631" lon="5.3695992">
<ele>1051.60</ele>
<time>2019-07-25T13:02:46Z</time>
</trkpt>
<trkpt lat="44.8956630" lon="5.3695992">
<ele>1051.59</ele>
<time>2019-07-25T13:02:47Z</time>
</trkpt>
<trkpt lat="44.8956631" lon="5.3695996">
<ele>1051.58</ele>
<time>2019-07-25T13:02:48Z</time>
</trkpt>
<trkpt lat="44.8956632" lon="5.3695997">
<ele>1051.57</ele>
<time>2019-07-25T13:02:49Z</time>
</trkpt>
<trkpt lat="44.8956633" lon="5.3695998">
<ele>1051.56</ele>
<time>2019-07-25T13:02:50Z</time>
</trkpt>
<trkpt lat="44.8956637" lon="5.3695999">
<ele>1051.55</ele>
<time>2019-07-25T13:02:51Z</time>
</trkpt>
<trkpt lat="44.8956639" lon="5.3696000">
<ele>1051.55</ele>
<time>2019-07-25T13:02:52Z</time>
</trkpt>
<trkpt lat="44.8956639" lon="5.3696000">
<ele>1051.54</ele>
<time>2019-07-25T13:02:53Z</time>
</trkpt>
<trkpt lat="44.8956641" lon="5.3696002">
<ele>1051.53</ele>
<time>2019-07-25T13:02:54Z</time>
</trkpt>
<trkpt lat="44.8956645" lon="5.3696001">
<ele>1051.52</ele>
<time>2019-07-25T13:02:55Z</time>
</trkpt>
<trkpt lat="44.8956647" lon="5.3696004">
<ele>1051.51</ele>
<time>2019-07-25T13:02:56Z</time>
</trkpt>
<trkpt lat="44.8956649" lon="5.3696005">
<ele>1051.51</ele>
<time>2019-07-25T13:02:57Z</time>
</trkpt>
<trkpt lat="44.8956651" lon="5.3696006">
<ele>1051.50</ele>
<time>2019-07-25T13:02:58Z</time>
</trkpt>
<trkpt lat="44.8956653" lon="5.3696009">
<ele>1051.49</ele>
<time>2019-07-25T13:02:59Z</time>
</trkpt>
<trkpt lat="44.8956655" lon="5.3696009">
<ele>1051.49</ele>
<time>2019-07-25T13:03:00Z</time>
</trkpt>
<trkpt lat="44.8956656" lon="5.3696010">
<ele>1051.48</ele>
<time>2019-07-25T13:03:01Z</time>
</trkpt>
<trkpt lat="44.8956657" lon="5.3696010">
<ele>1051.47</ele>
<time>2019-07-25T13:03:02Z</time>
</trkpt>
<trkpt lat="44.8956659" lon="5.3696009">
<ele>1051.47</ele>
<time>2019-07-25T13:03:03Z</time>
</trkpt>
<trkpt lat="44.8956659" lon="5.3696009">
<ele>1051.46</ele>
<time>2019-07-25T13:03:04Z</time>
</trkpt>
<trkpt lat="44.8956661" lon="5.3696007">
<ele>1051.46</ele>
<time>2019-07-25T13:03:05Z</time>
</trkpt>
<trkpt lat="44.8956665" lon="5.3696006">
<ele>1051.45</ele>
<time>2019-07-25T13:03:06Z</time>
</trkpt>
<trkpt lat="44.8956669" lon="5.3696004">
<ele>1051.44</ele>
<time>2019-07-25T13:03:07Z</time>
</trkpt>
<trkpt lat="44.8956671" lon="5.3696004">
<ele>1051.44</ele>
<time>2019-07-25T13:03:08Z</time>
</trkpt>
<trkpt lat="44.8956673" lon="5.3696002">
<ele>1051.43</ele>
<time>2019-07-25T13:03:09Z</time>
</trkpt>
<trkpt lat="44.8956675" lon="5.3696000">
<ele>1051.42</ele>
<time>2019-07-25T13:03:10Z</time>
</trkpt>
<trkpt lat="44.8956677" lon="5.3695999">
<ele>1051.42</ele>
<time>2019-07-25T13:03:11Z</time>
</trkpt>
<trkpt lat="44.8956681" lon="5.3695997">
<ele>1051.41</ele>
<time>2019-07-25T13:03:12Z</time>
</trkpt>
<trkpt lat="44.8956682" lon="5.3695995">
<ele>1051.41</ele>
<time>2019-07-25T13:03:13Z</time>
</trkpt>
<trkpt lat="44.8956685" lon="5.3695994">
<ele>1051.40</ele>
<time>2019-07-25T13:03:14Z</time>
</trkpt>
<trkpt lat="44.8956687" lon="5.3695993">
<ele>1051.39</ele>
<time>2019-07-25T13:03:15Z</time>
</trkpt>
<trkpt lat="44.8956688" lon="5.3695992">
<ele>1051.39</ele>
<time>2019-07-25T13:03:16Z</time>
</trkpt>
<trkpt lat="44.8956689" lon="5.3695991">
<ele>1051.38</ele>
<time>2019-07-25T13:03:17Z</time>
</trkpt>
<trkpt lat="44.8956688" lon="5.3695991">
<ele>1051.38</ele>
<time>2019-07-25T13:03:18Z</time>
</trkpt>
<trkpt lat="44.8956690" lon="5.3695984">
<ele>1051.37</ele>
<time>2019-07-25T13:03:19Z</time>
</trkpt>
<trkpt lat="44.8956691" lon="5.3695983">
<ele>1051.37</ele>
<time>2019-07-25T13:03:20Z</time>
</trkpt>
<trkpt lat="44.8956692" lon="5.3695982">
<ele>1051.36</ele>
<time>2019-07-25T13:03:21Z</time>
</trkpt>
<trkpt lat="44.8956692" lon="5.3695982">
<ele>1051.36</ele>
<time>2019-07-25T13:03:22Z</time>
</trkpt>
<trkpt lat="44.8956693" lon="5.3695981">
<ele>1051.35</ele>
<time>2019-07-25T13:03:23Z</time>
</trkpt>
<trkpt lat="44.8956693" lon="5.3695981">
<ele>1051.35</ele>
<time>2019-07-25T13:03:24Z</time>
</trkpt>
<trkpt lat="44.8956694" lon="5.3695978">
<ele>1051.35</ele>
<time>2019-07-25T13:03:25Z</time>
</trkpt>
<trkpt lat="44.8956697" lon="5.3695976">
<ele>1051.34</ele>
<time>2019-07-25T13:03:26Z</time>
</trkpt>
<trkpt lat="44.8956695" lon="5.3695976">
<ele>1051.34</ele>
<time>2019-07-25T13:03:27Z</time>
</trkpt>
<trkpt lat="44.8956694" lon="5.3695976">
<ele>1051.33</ele>
<time>2019-07-25T13:03:28Z</time>
</trkpt>
<trkpt lat="44.8956690" lon="5.3695977">
<ele>1051.33</ele>
<time>2019-07-25T13:03:29Z</time>
</trkpt>
<trkpt lat="44.8956689" lon="5.3695976">
<ele>1051.33</ele>
<time>2019-07-25T13:03:30Z</time>
</trkpt>
<trkpt lat="44.8956684" lon="5.3695980">
<ele>1051.32</ele>
<time>2019-07-25T13:03:31Z</time>
</trkpt>
<trkpt lat="44.8956688" lon="5.3695978">
<ele>1051.32</ele>
<time>2019-07-25T13:03:32Z</time>
</trkpt>
<trkpt lat="44.8956691" lon="5.3695977">
<ele>1051.32</ele>
<time>2019-07-25T13:03:33Z</time>
</trkpt>
<trkpt lat="44.8956694" lon="5.3695975">
<ele>1051.32</ele>
<time>2019-07-25T13:03:34Z</time>
</trkpt>
<trkpt lat="44.8956699" lon="5.3695972">
<ele>1051.31</ele>
<time>2019-07-25T13:03:35Z</time>
</trkpt>
<trkpt lat="44.8956700" lon="5.3695971">
<ele>1051.31</ele>
<time>2019-07-25T13:03:36Z</time>
</trkpt>
<trkpt lat="44.8956697" lon="5.3695972">
<ele>1051.31</ele>
<time>2019-07-25T13:03:37Z</time>
</trkpt>
<trkpt lat="44.8956691" lon="5.3695974">
<ele>1051.30</ele>
<time>2019-07-25T13:03:38Z</time>
</trkpt>
<trkpt lat="44.8956678" lon="5.3695978">
<ele>1051.30</ele>
<time>2019-07-25T13:03:39Z</time>
</trkpt>
<trkpt lat="44.8956673" lon="5.3695980">
<ele>1051.30</ele>
<time>2019-07-25T13:03:40Z</time>
</trkpt>
<trkpt lat="44.8956669" lon="5.3695981">
<ele>1051.30</ele>
<time>2019-07-25T13:03:41Z</time>
</trkpt>
<trkpt lat="44.8956665" lon="5.3695978">
<ele>1051.29</ele>
<time>2019-07-25T13:03:42Z</time>
</trkpt>
<trkpt lat="44.8956655" lon="5.3695979">
<ele>1051.29</ele>
<time>2019-07-25T13:03:43Z</time>
</trkpt>
<trkpt lat="44.8956651" lon="5.3695975">
<ele>1051.29</ele>
<time>2019-07-25T13:03:44Z</time>
</trkpt>
<trkpt lat="44.8956656" lon="5.3695967">
<ele>1051.29</ele>
<time>2019-07-25T13:03:45Z</time>
</trkpt>
<trkpt lat="44.8956651" lon="5.3695958">
<ele>1051.28</ele>
<time>2019-07-25T13:03:46Z</time>
</trkpt>
<trkpt lat="44.8956648" lon="5.3695953">
<ele>1051.28</ele>
<time>2019-07-25T13:03:47Z</time>
</trkpt>
<trkpt lat="44.8956646" lon="5.3695946">
<ele>1051.28</ele>
<time>2019-07-25T13:03:48Z</time>
</trkpt>
<trkpt lat="44.8956640" lon="5.3695942">
<ele>1051.28</ele>
<time>2019-07-25T13:03:49Z</time>
</trkpt>
<trkpt lat="44.8956642" lon="5.3695940">
<ele>1051.27</ele>
<time>2019-07-25T13:03:50Z</time>
</trkpt>
<trkpt lat="44.8956635" lon="5.3695938">
<ele>1051.27</ele>
<time>2019-07-25T13:03:51Z</time>
</trkpt>
<trkpt lat="44.8956636" lon="5.3695933">
<ele>1051.27</ele>
<time>2019-07-25T13:03:52Z</time>
</trkpt>
<trkpt lat="44.8956628" lon="5.3695929">
<ele>1051.27</ele>
<time>2019-07-25T13:03:53Z</time>
</trkpt>
<trkpt lat="44.8956627" lon="5.3695926">
<ele>1051.26</ele>
<time>2019-07-25T13:03:54Z</time>
</trkpt>
<trkpt lat="44.8956627" lon="5.3695923">
<ele>1051.26</ele>
<time>2019-07-25T13:03:55Z</time>
</trkpt>
<trkpt lat="44.8956624" lon="5.3695919">
<ele>1051.26</ele>
<time>2019-07-25T13:03:56Z</time>
</trkpt>
<trkpt lat="44.8956624" lon="5.3695916">
<ele>1051.26</ele>
<time>2019-07-25T13:03:57Z</time>
</trkpt>
<trkpt lat="44.8956622" lon="5.3695914">
<ele>1051.26</ele>
<time>2019-07-25T13:03:58Z</time>
</trkpt>
<trkpt lat="44.8956617" lon="5.3695908">
<ele>1051.26</ele>
<time>2019-07-25T13:03:59Z</time>
</trkpt>
<trkpt lat="44.8956616" lon="5.3695900">
<ele>1051.25</ele>
<time>2019-07-25T13:04:00Z</time>
</trkpt>
<trkpt lat="44.8956612" lon="5.3695882">
<ele>1051.25</ele>
<time>2019-07-25T13:04:01Z</time>
</trkpt>
<trkpt lat="44.8956612" lon="5.3695879">
<ele>1051.25</ele>
<time>2019-07-25T13:04:02Z</time>
</trkpt>
<trkpt lat="44.8956611" lon="5.3695875">
<ele>1051.25</ele>
<time>2019-07-25T13:04:03Z</time>
</trkpt>
<trkpt lat="44.8956610" lon="5.3695872">
<ele>1051.25</ele>
<time>2019-07-25T13:04:04Z</time>
</trkpt>
<trkpt lat="44.8956608" lon="5.3695865">
<ele>1051.25</ele>
<time>2019-07-25T13:04:05Z</time>
</trkpt>
<trkpt lat="44.8956609" lon="5.3695850">
<ele>1051.25</ele>
<time>2019-07-25T13:04:06Z</time>
</trkpt>
<trkpt lat="44.8956603" lon="5.3695846">
<ele>1051.24</ele>
<time>2019-07-25T13:04:07Z</time>
</trkpt>
<trkpt lat="44.8956599" lon="5.3695847">
<ele>1051.24</ele>
<time>2019-07-25T13:04:08Z</time>
</trkpt>
<trkpt lat="44.8956601" lon="5.3695842">
<ele>1051.24</ele>
<time>2019-07-25T13:04:09Z</time>
</trkpt>
<trkpt lat="44.8956602" lon="5.3695837">
<ele>1051.24</ele>
<time>2019-07-25T13:04:10Z</time>
</trkpt>
<trkpt lat="44.8956606" lon="5.3695830">
<ele>1051.23</ele>
<time>2019-07-25T13:04:11Z</time>
</trkpt>
<trkpt lat="44.8956607" lon="5.3695828">
<ele>1051.23</ele>
<time>2019-07-25T13:04:12Z</time>
</trkpt>
<trkpt lat="44.8956610" lon="5.3695824">
<ele>1051.23</ele>
<time>2019-07-25T13:04:13Z</time>
</trkpt>
<trkpt lat="44.8956613" lon="5.3695818">
<ele>1051.23</ele>
<time>2019-07-25T13:04:14Z</time>
</trkpt>
<trkpt lat="44.8956618" lon="5.3695813">
<ele>1051.22</ele>
<time>2019-07-25T13:04:15Z</time>
</trkpt>
<trkpt lat="44.8956621" lon="5.3695811">
<ele>1051.22</ele>
<time>2019-07-25T13:04:16Z</time>
</trkpt>
<trkpt lat="44.8956621" lon="5.3695807">
<ele>1051.22</ele>
<time>2019-07-25T13:04:17Z</time>
</trkpt>
<trkpt lat="44.8956624" lon="5.3695808">
<ele>1051.21</ele>
<time>2019-07-25T13:04:18Z</time>
</trkpt>
<trkpt lat="44.8956659" lon="5.3695754">
<ele>1051.21</ele>
<time>2019-07-25T13:04:19Z</time>
</trkpt>
<trkpt lat="44.8956720" lon="5.3695684">
<ele>1051.21</ele>
<time>2019-07-25T13:04:20Z</time>
</trkpt>
<trkpt lat="44.8956758" lon="5.3695625">
<ele>1051.17</ele>
<time>2019-07-25T13:04:21Z</time>
</trkpt>
<trkpt lat="44.8956767" lon="5.3695619">
<ele>1051.17</ele>
<time>2019-07-25T13:04:22Z</time>
</trkpt>
<trkpt lat="44.8956776" lon="5.3695619">
<ele>1051.17</ele>
<time>2019-07-25T13:04:23Z</time>
</trkpt>
<trkpt lat="44.8956782" lon="5.3695619">
<ele>1051.17</ele>
<time>2019-07-25T13:04:24Z</time>
</trkpt>
<trkpt lat="44.8956790" lon="5.3695617">
<ele>1051.16</ele>
<time>2019-07-25T13:04:25Z</time>
</trkpt>
<trkpt lat="44.8956794" lon="5.3695618">
<ele>1051.16</ele>
<time>2019-07-25T13:04:26Z</time>
</trkpt>
<trkpt lat="44.8956796" lon="5.3695619">
<ele>1051.16</ele>
<time>2019-07-25T13:04:27Z</time>
</trkpt>
<trkpt lat="44.8956800" lon="5.3695625">
<ele>1051.16</ele>
<time>2019-07-25T13:04:28Z</time>
</trkpt>
<trkpt lat="44.8956797" lon="5.3695630">
<ele>1051.15</ele>
<time>2019-07-25T13:04:29Z</time>
</trkpt>
<trkpt lat="44.8956807" lon="5.3695631">
<ele>1051.15</ele>
<time>2019-07-25T13:04:30Z</time>
</trkpt>
<trkpt lat="44.8956810" lon="5.3695632">
<ele>1051.15</ele>
<time>2019-07-25T13:04:31Z</time>
</trkpt>
<trkpt lat="44.8956822" lon="5.3695628">
<ele>1051.15</ele>
<time>2019-07-25T13:04:32Z</time>
</trkpt>
<trkpt lat="44.8956841" lon="5.3695631">
<ele>1051.15</ele>
<time>2019-07-25T13:04:33Z</time>
</trkpt>
<trkpt lat="44.8956851" lon="5.3695631">
<ele>1051.15</ele>
<time>2019-07-25T13:04:34Z</time>
</trkpt>
<trkpt lat="44.8956963" lon="5.3695573">
<ele>1051.15</ele>
<time>2019-07-25T13:04:35Z</time>
</trkpt>
<trkpt lat="44.8957015" lon="5.3695551">
<ele>1051.15</ele>
<time>2019-07-25T13:04:36Z</time>
</trkpt>
<trkpt lat="44.8957063" lon="5.3695540">
<ele>1051.15</ele>
<time>2019-07-25T13:04:37Z</time>
</trkpt>
<trkpt lat="44.8957065" lon="5.3695543">
<ele>1051.15</ele>
<time>2019-07-25T13:04:38Z</time>
</trkpt>
<trkpt lat="44.8957079" lon="5.3695550">
<ele>1051.15</ele>
<time>2019-07-25T13:04:39Z</time>
</trkpt>
<trkpt lat="44.8957084" lon="5.3695553">
<ele>1051.15</ele>
<time>2019-07-25T13:04:40Z</time>
</trkpt>
<trkpt lat="44.8957092" lon="5.3695554">
<ele>1051.15</ele>
<time>2019-07-25T13:04:41Z</time>
</trkpt>
<trkpt lat="44.8957094" lon="5.3695554">
<ele>1051.15</ele>
<time>2019-07-25T13:04:42Z</time>
</trkpt>
<trkpt lat="44.8957095" lon="5.3695554">
<ele>1051.15</ele>
<time>2019-07-25T13:04:43Z</time>
</trkpt>
<trkpt lat="44.8957099" lon="5.3695555">
<ele>1051.15</ele>
<time>2019-07-25T13:04:44Z</time>
</trkpt>
<trkpt lat="44.8957147" lon="5.3695566">
<ele>1051.15</ele>
<time>2019-07-25T13:04:45Z</time>
</trkpt>
<trkpt lat="44.8957185" lon="5.3695553">
<ele>1051.15</ele>
<time>2019-07-25T13:04:46Z</time>
</trkpt>
<trkpt lat="44.8957240" lon="5.3695537">
<ele>1051.15</ele>
<time>2019-07-25T13:04:47Z</time>
</trkpt>
<trkpt lat="44.8957242" lon="5.3695536">
<ele>1051.15</ele>
<time>2019-07-25T13:04:48Z</time>
</trkpt>
<trkpt lat="44.8957246" lon="5.3695538">
<ele>1051.16</ele>
<time>2019-07-25T13:04:49Z</time>
</trkpt>
<trkpt lat="44.8957248" lon="5.3695539">
<ele>1051.16</ele>
<time>2019-07-25T13:04:50Z</time>
</trkpt>
<trkpt lat="44.8957250" lon="5.3695539">
<ele>1051.16</ele>
<time>2019-07-25T13:04:51Z</time>
</trkpt>
<trkpt lat="44.8957260" lon="5.3695539">
<ele>1051.16</ele>
<time>2019-07-25T13:04:52Z</time>
</trkpt>
<trkpt lat="44.8957269" lon="5.3695545">
<ele>1051.16</ele>
<time>2019-07-25T13:04:53Z</time>
</trkpt>
<trkpt lat="44.8957271" lon="5.3695546">
<ele>1051.17</ele>
<time>2019-07-25T13:04:54Z</time>
</trkpt>
<trkpt lat="44.8957274" lon="5.3695549">
<ele>1051.17</ele>
<time>2019-07-25T13:04:55Z</time>
</trkpt>
<trkpt lat="44.8957274" lon="5.3695550">
<ele>1051.17</ele>
<time>2019-07-25T13:04:56Z</time>
</trkpt>
<trkpt lat="44.8957275" lon="5.3695550">
<ele>1051.17</ele>
<time>2019-07-25T13:04:57Z</time>
</trkpt>
<trkpt lat="44.8957278" lon="5.3695554">
<ele>1051.18</ele>
<time>2019-07-25T13:04:58Z</time>
</trkpt>
<trkpt lat="44.8957279" lon="5.3695554">
<ele>1051.18</ele>
<time>2019-07-25T13:04:59Z</time>
</trkpt>
<trkpt lat="44.8957283" lon="5.3695563">
<ele>1051.18</ele>
<time>2019-07-25T13:05:00Z</time>
</trkpt>
<trkpt lat="44.8957284" lon="5.3695564">
<ele>1051.19</ele>
<time>2019-07-25T13:05:01Z</time>
</trkpt>
<trkpt lat="44.8957286" lon="5.3695567">
<ele>1051.19</ele>
<time>2019-07-25T13:05:02Z</time>
</trkpt>
<trkpt lat="44.8957293" lon="5.3695591">
<ele>1051.19</ele>
<time>2019-07-25T13:05:03Z</time>
</trkpt>
<trkpt lat="44.8957270" lon="5.3695612">
<ele>1051.20</ele>
<time>2019-07-25T13:05:04Z</time>
</trkpt>
<trkpt lat="44.8957320" lon="5.3695700">
<ele>1051.20</ele>
<time>2019-07-25T13:05:05Z</time>
</trkpt>
<trkpt lat="44.8957314" lon="5.3695752">
<ele>1051.20</ele>
<time>2019-07-25T13:05:06Z</time>
</trkpt>
<trkpt lat="44.8957305" lon="5.3695773">
<ele>1051.21</ele>
<time>2019-07-25T13:05:07Z</time>
</trkpt>
<trkpt lat="44.8957316" lon="5.3695768">
<ele>1051.21</ele>
<time>2019-07-25T13:05:08Z</time>
</trkpt>
<trkpt lat="44.8957321" lon="5.3695775">
<ele>1051.21</ele>
<time>2019-07-25T13:05:09Z</time>
</trkpt>
<trkpt lat="44.8957322" lon="5.3695776">
<ele>1051.22</ele>
<time>2019-07-25T13:05:10Z</time>
</trkpt>
<trkpt lat="44.8957322" lon="5.3695778">
<ele>1051.22</ele>
<time>2019-07-25T13:05:11Z</time>
</trkpt>
<trkpt lat="44.8957320" lon="5.3695781">
<ele>1051.22</ele>
<time>2019-07-25T13:05:12Z</time>
</trkpt>
<trkpt lat="44.8957318" lon="5.3695782">
<ele>1051.23</ele>
<time>2019-07-25T13:05:13Z</time>
</trkpt>
<trkpt lat="44.8957319" lon="5.3695783">
<ele>1051.23</ele>
<time>2019-07-25T13:05:14Z</time>
</trkpt>
<trkpt lat="44.8957314" lon="5.3695771">
<ele>1051.24</ele>
<time>2019-07-25T13:05:15Z</time>
</trkpt>
<trkpt lat="44.8957308" lon="5.3695748">
<ele>1051.24</ele>
<time>2019-07-25T13:05:16Z</time>
</trkpt>
<trkpt lat="44.8957347" lon="5.3695818">
<ele>1051.24</ele>
<time>2019-07-25T13:05:17Z</time>
</trkpt>
<trkpt lat="44.8957344" lon="5.3695818">
<ele>1051.25</ele>
<time>2019-07-25T13:05:18Z</time>
</trkpt>
<trkpt lat="44.8957345" lon="5.3695818">
<ele>1051.25</ele>
<time>2019-07-25T13:05:19Z</time>
</trkpt>
<trkpt lat="44.8957348" lon="5.3695824">
<ele>1051.26</ele>
<time>2019-07-25T13:05:20Z</time>
</trkpt>
<trkpt lat="44.8957352" lon="5.3695826">
<ele>1051.26</ele>
<time>2019-07-25T13:05:21Z</time>
</trkpt>
<trkpt lat="44.8957359" lon="5.3695834">
<ele>1051.26</ele>
<time>2019-07-25T13:05:22Z</time>
</trkpt>
<trkpt lat="44.8957360" lon="5.3695835">
<ele>1051.27</ele>
<time>2019-07-25T13:05:23Z</time>
</trkpt>
<trkpt lat="44.8957360" lon="5.3695835">
<ele>1051.27</ele>
<time>2019-07-25T13:05:24Z</time>
</trkpt>
<trkpt lat="44.8957359" lon="5.3695836">
<ele>1051.28</ele>
<time>2019-07-25T13:05:25Z</time>
</trkpt>
<trkpt lat="44.8957361" lon="5.3695841">
<ele>1051.28</ele>
<time>2019-07-25T13:05:26Z</time>
</trkpt>
<trkpt lat="44.8957363" lon="5.3695847">
<ele>1051.29</ele>
<time>2019-07-25T13:05:27Z</time>
</trkpt>
<trkpt lat="44.8957364" lon="5.3695849">
<ele>1051.29</ele>
<time>2019-07-25T13:05:28Z</time>
</trkpt>
<trkpt lat="44.8957365" lon="5.3695851">
<ele>1051.30</ele>
<time>2019-07-25T13:05:29Z</time>
</trkpt>
<trkpt lat="44.8957366" lon="5.3695851">
<ele>1051.30</ele>
<time>2019-07-25T13:05:30Z</time>
</trkpt>
<trkpt lat="44.8957368" lon="5.3695857">
<ele>1051.31</ele>
<time>2019-07-25T13:05:31Z</time>
</trkpt>
<trkpt lat="44.8957367" lon="5.3695857">
<ele>1051.31</ele>
<time>2019-07-25T13:05:32Z</time>
</trkpt>
<trkpt lat="44.8957365" lon="5.3695859">
<ele>1051.32</ele>
<time>2019-07-25T13:05:33Z</time>
</trkpt>
<trkpt lat="44.8957364" lon="5.3695862">
<ele>1051.32</ele>
<time>2019-07-25T13:05:34Z</time>
</trkpt>
<trkpt lat="44.8957364" lon="5.3695866">
<ele>1051.33</ele>
<time>2019-07-25T13:05:35Z</time>
</trkpt>
<trkpt lat="44.8957364" lon="5.3695866">
<ele>1051.33</ele>
<time>2019-07-25T13:05:36Z</time>
</trkpt>
<trkpt lat="44.8957360" lon="5.3695866">
<ele>1051.33</ele>
<time>2019-07-25T13:05:37Z</time>
</trkpt>
<trkpt lat="44.8957358" lon="5.3695868">
<ele>1051.34</ele>
<time>2019-07-25T13:05:38Z</time>
</trkpt>
<trkpt lat="44.8957356" lon="5.3695870">
<ele>1051.34</ele>
<time>2019-07-25T13:05:39Z</time>
</trkpt>
<trkpt lat="44.8957353" lon="5.3695869">
<ele>1051.35</ele>
<time>2019-07-25T13:05:40Z</time>
</trkpt>
<trkpt lat="44.8957349" lon="5.3695871">
<ele>1051.35</ele>
<time>2019-07-25T13:05:41Z</time>
</trkpt>
<trkpt lat="44.8957348" lon="5.3695869">
<ele>1051.36</ele>
<time>2019-07-25T13:05:42Z</time>
</trkpt>
<trkpt lat="44.8957346" lon="5.3695873">
<ele>1051.36</ele>
<time>2019-07-25T13:05:43Z</time>
</trkpt>
<trkpt lat="44.8957346" lon="5.3695873">
<ele>1051.37</ele>
<time>2019-07-25T13:05:44Z</time>
</trkpt>
<trkpt lat="44.8957341" lon="5.3695871">
<ele>1051.37</ele>
<time>2019-07-25T13:05:45Z</time>
</trkpt>
<trkpt lat="44.8957336" lon="5.3695870">
<ele>1051.37</ele>
<time>2019-07-25T13:05:46Z</time>
</trkpt>
<trkpt lat="44.8957333" lon="5.3695870">
<ele>1051.38</ele>
<time>2019-07-25T13:05:47Z</time>
</trkpt>
<trkpt lat="44.8957330" lon="5.3695872">
<ele>1051.38</ele>
<time>2019-07-25T13:05:48Z</time>
</trkpt>
<trkpt lat="44.8957328" lon="5.3695874">
<ele>1051.39</ele>
<time>2019-07-25T13:05:49Z</time>
</trkpt>
<trkpt lat="44.8957326" lon="5.3695876">
<ele>1051.39</ele>
<time>2019-07-25T13:05:50Z</time>
</trkpt>
<trkpt lat="44.8957325" lon="5.3695875">
<ele>1051.39</ele>
<time>2019-07-25T13:05:51Z</time>
</trkpt>
<trkpt lat="44.8957323" lon="5.3695874">
<ele>1051.40</ele>
<time>2019-07-25T13:05:52Z</time>
</trkpt>
<trkpt lat="44.8957321" lon="5.3695875">
<ele>1051.40</ele>
<time>2019-07-25T13:05:53Z</time>
</trkpt>
<trkpt lat="44.8957318" lon="5.3695875">
<ele>1051.40</ele>
<time>2019-07-25T13:05:54Z</time>
</trkpt>
<trkpt lat="44.8957317" lon="5.3695876">
<ele>1051.41</ele>
<time>2019-07-25T13:05:55Z</time>
</trkpt>
<trkpt lat="44.8957312" lon="5.3695877">
<ele>1051.41</ele>
<time>2019-07-25T13:05:56Z</time>
</trkpt>
<trkpt lat="44.8957309" lon="5.3695877">
<ele>1051.41</ele>
<time>2019-07-25T13:05:57Z</time>
</trkpt>
<trkpt lat="44.8957308" lon="5.3695878">
<ele>1051.42</ele>
<time>2019-07-25T13:05:58Z</time>
</trkpt>
<trkpt lat="44.8957305" lon="5.3695879">
<ele>1051.42</ele>
<time>2019-07-25T13:05:59Z</time>
</trkpt>
<trkpt lat="44.8957303" lon="5.3695881">
<ele>1051.42</ele>
<time>2019-07-25T13:06:00Z</time>
</trkpt>
<trkpt lat="44.8957302" lon="5.3695881">
<ele>1051.43</ele>
<time>2019-07-25T13:06:01Z</time>
</trkpt>
<trkpt lat="44.8957300" lon="5.3695881">
<ele>1051.43</ele>
<time>2019-07-25T13:06:02Z</time>
</trkpt>
<trkpt lat="44.8957299" lon="5.3695882">
<ele>1051.43</ele>
<time>2019-07-25T13:06:03Z</time>
</trkpt>
<trkpt lat="44.8957297" lon="5.3695880">
<ele>1051.44</ele>
<time>2019-07-25T13:06:04Z</time>
</trkpt>
<trkpt lat="44.8957296" lon="5.3695882">
<ele>1051.44</ele>
<time>2019-07-25T13:06:05Z</time>
</trkpt>
<trkpt lat="44.8957293" lon="5.3695882">
<ele>1051.44</ele>
<time>2019-07-25T13:06:06Z</time>
</trkpt>
<trkpt lat="44.8957288" lon="5.3695881">
<ele>1051.44</ele>
<time>2019-07-25T13:06:07Z</time>
</trkpt>
<trkpt lat="44.8957285" lon="5.3695880">
<ele>1051.45</ele>
<time>2019-07-25T13:06:08Z</time>
</trkpt>
<trkpt lat="44.8957285" lon="5.3695880">
<ele>1051.45</ele>
<time>2019-07-25T13:06:09Z</time>
</trkpt>
<trkpt lat="44.8957282" lon="5.3695879">
<ele>1051.45</ele>
<time>2019-07-25T13:06:10Z</time>
</trkpt>
<trkpt lat="44.8957281" lon="5.3695877">
<ele>1051.46</ele>
<time>2019-07-25T13:06:11Z</time>
</trkpt>
<trkpt lat="44.8957277" lon="5.3695880">
<ele>1051.46</ele>
<time>2019-07-25T13:06:12Z</time>
</trkpt>
<trkpt lat="44.8957276" lon="5.3695880">
<ele>1051.46</ele>
<time>2019-07-25T13:06:13Z</time>
</trkpt>
<trkpt lat="44.8957277" lon="5.3695887">
<ele>1051.46</ele>
<time>2019-07-25T13:06:14Z</time>
</trkpt>
<trkpt lat="44.8957275" lon="5.3695887">
<ele>1051.47</ele>
<time>2019-07-25T13:06:15Z</time>
</trkpt>
<trkpt lat="44.8957274" lon="5.3695884">
<ele>1051.47</ele>
<time>2019-07-25T13:06:16Z</time>
</trkpt>
<trkpt lat="44.8957275" lon="5.3695885">
<ele>1051.47</ele>
<time>2019-07-25T13:06:17Z</time>
</trkpt>
<trkpt lat="44.8957275" lon="5.3695888">
<ele>1051.47</ele>
<time>2019-07-25T13:06:18Z</time>
</trkpt>
<trkpt lat="44.8957273" lon="5.3695887">
<ele>1051.48</ele>
<time>2019-07-25T13:06:19Z</time>
</trkpt>
<trkpt lat="44.8957274" lon="5.3695887">
<ele>1051.48</ele>
<time>2019-07-25T13:06:20Z</time>
</trkpt>
<trkpt lat="44.8957271" lon="5.3695886">
<ele>1051.48</ele>
<time>2019-07-25T13:06:21Z</time>
</trkpt>
<trkpt lat="44.8957270" lon="5.3695887">
<ele>1051.48</ele>
<time>2019-07-25T13:06:22Z</time>
</trkpt>
<trkpt lat="44.8957270" lon="5.3695888">
<ele>1051.49</ele>
<time>2019-07-25T13:06:23Z</time>
</trkpt>
<trkpt lat="44.8957268" lon="5.3695879">
<ele>1051.49</ele>
<time>2019-07-25T13:06:24Z</time>
</trkpt>
<trkpt lat="44.8957266" lon="5.3695875">
<ele>1051.49</ele>
<time>2019-07-25T13:06:25Z</time>
</trkpt>
<trkpt lat="44.8957265" lon="5.3695874">
<ele>1051.49</ele>
<time>2019-07-25T13:06:26Z</time>
</trkpt>
<trkpt lat="44.8957262" lon="5.3695872">
<ele>1051.50</ele>
<time>2019-07-25T13:06:27Z</time>
</trkpt>
<trkpt lat="44.8957263" lon="5.3695870">
<ele>1051.50</ele>
<time>2019-07-25T13:06:28Z</time>
</trkpt>
<trkpt lat="44.8957263" lon="5.3695873">
<ele>1051.50</ele>
<time>2019-07-25T13:06:29Z</time>
</trkpt>
<trkpt lat="44.8957261" lon="5.3695872">
<ele>1051.50</ele>
<time>2019-07-25T13:06:30Z</time>
</trkpt>
<trkpt lat="44.8957262" lon="5.3695872">
<ele>1051.50</ele>
<time>2019-07-25T13:06:31Z</time>
</trkpt>
<trkpt lat="44.8957260" lon="5.3695871">
<ele>1051.51</ele>
<time>2019-07-25T13:06:32Z</time>
</trkpt>
<trkpt lat="44.8957257" lon="5.3695869">
<ele>1051.51</ele>
<time>2019-07-25T13:06:33Z</time>
</trkpt>
<trkpt lat="44.8957254" lon="5.3695869">
<ele>1051.51</ele>
<time>2019-07-25T13:06:34Z</time>
</trkpt>
<trkpt lat="44.8957249" lon="5.3695859">
<ele>1051.51</ele>
<time>2019-07-25T13:06:35Z</time>
</trkpt>
<trkpt lat="44.8957249" lon="5.3695859">
<ele>1051.51</ele>
<time>2019-07-25T13:06:36Z</time>
</trkpt>
<trkpt lat="44.8957248" lon="5.3695859">
<ele>1051.51</ele>
<time>2019-07-25T13:06:37Z</time>
</trkpt>
<trkpt lat="44.8957246" lon="5.3695859">
<ele>1051.52</ele>
<time>2019-07-25T13:06:38Z</time>
</trkpt>
<trkpt lat="44.8957244" lon="5.3695858">
<ele>1051.52</ele>
<time>2019-07-25T13:06:39Z</time>
</trkpt>
<trkpt lat="44.8957239" lon="5.3695853">
<ele>1051.52</ele>
<time>2019-07-25T13:06:40Z</time>
</trkpt>
<trkpt lat="44.8957235" lon="5.3695854">
<ele>1051.52</ele>
<time>2019-07-25T13:06:41Z</time>
</trkpt>
<trkpt lat="44.8957233" lon="5.3695854">
<ele>1051.52</ele>
<time>2019-07-25T13:06:42Z</time>
</trkpt>
<trkpt lat="44.8957231" lon="5.3695852">
<ele>1051.52</ele>
<time>2019-07-25T13:06:43Z</time>
</trkpt>
<trkpt lat="44.8957230" lon="5.3695852">
<ele>1051.52</ele>
<time>2019-07-25T13:06:44Z</time>
</trkpt>
<trkpt lat="44.8957226" lon="5.3695848">
<ele>1051.52</ele>
<time>2019-07-25T13:06:45Z</time>
</trkpt>
<trkpt lat="44.8957225" lon="5.3695848">
<ele>1051.52</ele>
<time>2019-07-25T13:06:46Z</time>
</trkpt>
<trkpt lat="44.8957224" lon="5.3695848">
<ele>1051.52</ele>
<time>2019-07-25T13:06:47Z</time>
</trkpt>
<trkpt lat="44.8957222" lon="5.3695850">
<ele>1051.52</ele>
<time>2019-07-25T13:06:48Z</time>
</trkpt>
<trkpt lat="44.8957221" lon="5.3695850">
<ele>1051.52</ele>
<time>2019-07-25T13:06:49Z</time>
</trkpt>
<trkpt lat="44.8957216" lon="5.3695849">
<ele>1051.52</ele>
<time>2019-07-25T13:06:50Z</time>
</trkpt>
<trkpt lat="44.8957208" lon="5.3695843">
<ele>1051.52</ele>
<time>2019-07-25T13:06:51Z</time>
</trkpt>
<trkpt lat="44.8957206" lon="5.3695842">
<ele>1051.52</ele>
<time>2019-07-25T13:06:52Z</time>
</trkpt>
<trkpt lat="44.8957205" lon="5.3695841">
<ele>1051.52</ele>
<time>2019-07-25T13:06:53Z</time>
</trkpt>
<trkpt lat="44.8957205" lon="5.3695840">
<ele>1051.52</ele>
<time>2019-07-25T13:06:54Z</time>
</trkpt>
<trkpt lat="44.8957204" lon="5.3695837">
<ele>1051.52</ele>
<time>2019-07-25T13:06:55Z</time>
</trkpt>
<trkpt lat="44.8957202" lon="5.3695829">
<ele>1051.53</ele>
<time>2019-07-25T13:06:56Z</time>
</trkpt>
<trkpt lat="44.8957198" lon="5.3695822">
<ele>1051.53</ele>
<time>2019-07-25T13:06:57Z</time>
</trkpt>
<trkpt lat="44.8957196" lon="5.3695820">
<ele>1051.53</ele>
<time>2019-07-25T13:06:58Z</time>
</trkpt>
<trkpt lat="44.8957194" lon="5.3695817">
<ele>1051.53</ele>
<time>2019-07-25T13:06:59Z</time>
</trkpt>
<trkpt lat="44.8957193" lon="5.3695816">
<ele>1051.53</ele>
<time>2019-07-25T13:07:00Z</time>
</trkpt>
<trkpt lat="44.8957193" lon="5.3695814">
<ele>1051.53</ele>
<time>2019-07-25T13:07:01Z</time>
</trkpt>
<trkpt lat="44.8957192" lon="5.3695813">
<ele>1051.53</ele>
<time>2019-07-25T13:07:02Z</time>
</trkpt>
<trkpt lat="44.8957191" lon="5.3695813">
<ele>1051.53</ele>
<time>2019-07-25T13:07:03Z</time>
</trkpt>
<trkpt lat="44.8957189" lon="5.3695814">
<ele>1051.53</ele>
<time>2019-07-25T13:07:04Z</time>
</trkpt>
<trkpt lat="44.8957188" lon="5.3695814">
<ele>1051.53</ele>
<time>2019-07-25T13:07:05Z</time>
</trkpt>
<trkpt lat="44.8957187" lon="5.3695813">
<ele>1051.53</ele>
<time>2019-07-25T13:07:06Z</time>
</trkpt>
<trkpt lat="44.8957186" lon="5.3695813">
<ele>1051.53</ele>
<time>2019-07-25T13:07:07Z</time>
</trkpt>
<trkpt lat="44.8957184" lon="5.3695814">
<ele>1051.53</ele>
<time>2019-07-25T13:07:08Z</time>
</trkpt>
<trkpt lat="44.8957182" lon="5.3695813">
<ele>1051.53</ele>
<time>2019-07-25T13:07:09Z</time>
</trkpt>
<trkpt lat="44.8957182" lon="5.3695813">
<ele>1051.53</ele>
<time>2019-07-25T13:07:10Z</time>
</trkpt>
<trkpt lat="44.8957183" lon="5.3695812">
<ele>1051.53</ele>
<time>2019-07-25T13:07:11Z</time>
</trkpt>
<trkpt lat="44.8957183" lon="5.3695812">
<ele>1051.53</ele>
<time>2019-07-25T13:07:12Z</time>
</trkpt>
<trkpt lat="44.8957181" lon="5.3695811">
<ele>1051.53</ele>
<time>2019-07-25T13:07:13Z</time>
</trkpt>
<trkpt lat="44.8957176" lon="5.3695807">
<ele>1051.53</ele>
<time>2019-07-25T13:07:14Z</time>
</trkpt>
<trkpt lat="44.8957176" lon="5.3695808">
<ele>1051.53</ele>
<time>2019-07-25T13:07:15Z</time>
</trkpt>
<trkpt lat="44.8957178" lon="5.3695807">
<ele>1051.53</ele>
<time>2019-07-25T13:07:16Z</time>
</trkpt>
<trkpt lat="44.8957176" lon="5.3695804">
<ele>1051.53</ele>
<time>2019-07-25T13:07:17Z</time>
</trkpt>
<trkpt lat="44.8957177" lon="5.3695805">
<ele>1051.53</ele>
<time>2019-07-25T13:07:18Z</time>
</trkpt>
<trkpt lat="44.8957178" lon="5.3695803">
<ele>1051.53</ele>
<time>2019-07-25T13:07:19Z</time>
</trkpt>
<trkpt lat="44.8957179" lon="5.3695803">
<ele>1051.53</ele>
<time>2019-07-25T13:07:20Z</time>
</trkpt>
<trkpt lat="44.8957180" lon="5.3695803">
<ele>1051.53</ele>
<time>2019-07-25T13:07:21Z</time>
</trkpt>
<trkpt lat="44.8957181" lon="5.3695798">
<ele>1051.53</ele>
<time>2019-07-25T13:07:22Z</time>
</trkpt>
<trkpt lat="44.8957186" lon="5.3695798">
<ele>1051.53</ele>
<time>2019-07-25T13:07:23Z</time>
</trkpt>
<trkpt lat="44.8957186" lon="5.3695797">
<ele>1051.53</ele>
<time>2019-07-25T13:07:24Z</time>
</trkpt>
<trkpt lat="44.8957186" lon="5.3695793">
<ele>1051.53</ele>
<time>2019-07-25T13:07:25Z</time>
</trkpt>
<trkpt lat="44.8957185" lon="5.3695792">
<ele>1051.53</ele>
<time>2019-07-25T13:07:26Z</time>
</trkpt>
<trkpt lat="44.8957184" lon="5.3695791">
<ele>1051.53</ele>
<time>2019-07-25T13:07:27Z</time>
</trkpt>
<trkpt lat="44.8957184" lon="5.3695789">
<ele>1051.53</ele>
<time>2019-07-25T13:07:28Z</time>
</trkpt>
<trkpt lat="44.8957185" lon="5.3695789">
<ele>1051.53</ele>
<time>2019-07-25T13:07:29Z</time>
</trkpt>
<trkpt lat="44.8957186" lon="5.3695786">
<ele>1051.52</ele>
<time>2019-07-25T13:07:30Z</time>
</trkpt>
<trkpt lat="44.8957186" lon="5.3695781">
<ele>1051.52</ele>
<time>2019-07-25T13:07:31Z</time>
</trkpt>
<trkpt lat="44.8957186" lon="5.3695780">
<ele>1051.52</ele>
<time>2019-07-25T13:07:32Z</time>
</trkpt>
<trkpt lat="44.8957187" lon="5.3695779">
<ele>1051.52</ele>
<time>2019-07-25T13:07:33Z</time>
</trkpt>
<trkpt lat="44.8957188" lon="5.3695778">
<ele>1051.52</ele>
<time>2019-07-25T13:07:34Z</time>
</trkpt>
<trkpt lat="44.8957189" lon="5.3695779">
<ele>1051.52</ele>
<time>2019-07-25T13:07:35Z</time>
</trkpt>
<trkpt lat="44.8957188" lon="5.3695778">
<ele>1051.52</ele>
<time>2019-07-25T13:07:36Z</time>
</trkpt>
<trkpt lat="44.8957188" lon="5.3695777">
<ele>1051.52</ele>
<time>2019-07-25T13:07:37Z</time>
</trkpt>
<trkpt lat="44.8957188" lon="5.3695776">
<ele>1051.52</ele>
<time>2019-07-25T13:07:38Z</time>
</trkpt>
<trkpt lat="44.8957189" lon="5.3695778">
<ele>1051.53</ele>
<time>2019-07-25T13:07:39Z</time>
</trkpt>
<trkpt lat="44.8957189" lon="5.3695779">
<ele>1051.53</ele>
<time>2019-07-25T13:07:40Z</time>
</trkpt>
<trkpt lat="44.8957188" lon="5.3695779">
<ele>1051.53</ele>
<time>2019-07-25T13:07:41Z</time>
</trkpt>
<trkpt lat="44.8957192" lon="5.3695779">
<ele>1051.53</ele>
<time>2019-07-25T13:07:42Z</time>
</trkpt>
<trkpt lat="44.8957198" lon="5.3695783">
<ele>1051.53</ele>
<time>2019-07-25T13:07:43Z</time>
</trkpt>
<trkpt lat="44.8957198" lon="5.3695783">
<ele>1051.53</ele>
<time>2019-07-25T13:07:44Z</time>
</trkpt>
<trkpt lat="44.8957201" lon="5.3695786">
<ele>1051.53</ele>
<time>2019-07-25T13:07:45Z</time>
</trkpt>
<trkpt lat="44.8957200" lon="5.3695786">
<ele>1051.53</ele>
<time>2019-07-25T13:07:46Z</time>
</trkpt>
<trkpt lat="44.8957210" lon="5.3695790">
<ele>1051.53</ele>
<time>2019-07-25T13:07:47Z</time>
</trkpt>
<trkpt lat="44.8957212" lon="5.3695784">
<ele>1051.53</ele>
<time>2019-07-25T13:07:48Z</time>
</trkpt>
<trkpt lat="44.8957215" lon="5.3695786">
<ele>1051.53</ele>
<time>2019-07-25T13:07:49Z</time>
</trkpt>
<trkpt lat="44.8957216" lon="5.3695784">
<ele>1051.53</ele>
<time>2019-07-25T13:07:50Z</time>
</trkpt>
<trkpt lat="44.8957219" lon="5.3695784">
<ele>1051.53</ele>
<time>2019-07-25T13:07:51Z</time>
</trkpt>
<trkpt lat="44.8957223" lon="5.3695786">
<ele>1051.54</ele>
<time>2019-07-25T13:07:52Z</time>
</trkpt>
<trkpt lat="44.8957224" lon="5.3695787">
<ele>1051.54</ele>
<time>2019-07-25T13:07:53Z</time>
</trkpt>
<trkpt lat="44.8957227" lon="5.3695786">
<ele>1051.54</ele>
<time>2019-07-25T13:07:54Z</time>
</trkpt>
<trkpt lat="44.8957228" lon="5.3695787">
<ele>1051.54</ele>
<time>2019-07-25T13:07:55Z</time>
</trkpt>
<trkpt lat="44.8957227" lon="5.3695787">
<ele>1051.54</ele>
<time>2019-07-25T13:07:56Z</time>
</trkpt>
<trkpt lat="44.8957232" lon="5.3695791">
<ele>1051.54</ele>
<time>2019-07-25T13:07:57Z</time>
</trkpt>
<trkpt lat="44.8957229" lon="5.3695788">
<ele>1051.54</ele>
<time>2019-07-25T13:07:58Z</time>
</trkpt>
<trkpt lat="44.8957233" lon="5.3695784">
<ele>1051.55</ele>
<time>2019-07-25T13:07:59Z</time>
</trkpt>
<trkpt lat="44.8957233" lon="5.3695774">
<ele>1051.55</ele>
<time>2019-07-25T13:08:00Z</time>
</trkpt>
<trkpt lat="44.8957233" lon="5.3695774">
<ele>1051.55</ele>
<time>2019-07-25T13:08:01Z</time>
</trkpt>
<trkpt lat="44.8957232" lon="5.3695771">
<ele>1051.55</ele>
<time>2019-07-25T13:08:02Z</time>
</trkpt>
<trkpt lat="44.8957236" lon="5.3695769">
<ele>1051.55</ele>
<time>2019-07-25T13:08:03Z</time>
</trkpt>
<trkpt lat="44.8957240" lon="5.3695761">
<ele>1051.56</ele>
<time>2019-07-25T13:08:04Z</time>
</trkpt>
<trkpt lat="44.8957240" lon="5.3695761">
<ele>1051.56</ele>
<time>2019-07-25T13:08:05Z</time>
</trkpt>
<trkpt lat="44.8957240" lon="5.3695759">
<ele>1051.56</ele>
<time>2019-07-25T13:08:06Z</time>
</trkpt>
<trkpt lat="44.8957242" lon="5.3695762">
<ele>1051.56</ele>
<time>2019-07-25T13:08:07Z</time>
</trkpt>
<trkpt lat="44.8957246" lon="5.3695760">
<ele>1051.57</ele>
<time>2019-07-25T13:08:08Z</time>
</trkpt>
<trkpt lat="44.8957248" lon="5.3695754">
<ele>1051.57</ele>
<time>2019-07-25T13:08:09Z</time>
</trkpt>
<trkpt lat="44.8957249" lon="5.3695752">
<ele>1051.57</ele>
<time>2019-07-25T13:08:10Z</time>
</trkpt>
<trkpt lat="44.8957249" lon="5.3695749">
<ele>1051.58</ele>
<time>2019-07-25T13:08:11Z</time>
</trkpt>
<trkpt lat="44.8957262" lon="5.3695754">
<ele>1051.58</ele>
<time>2019-07-25T13:08:12Z</time>
</trkpt>
<trkpt lat="44.8957270" lon="5.3695754">
<ele>1051.58</ele>
<time>2019-07-25T13:08:13Z</time>
</trkpt>
<trkpt lat="44.8957273" lon="5.3695754">
<ele>1051.59</ele>
<time>2019-07-25T13:08:14Z</time>
</trkpt>
<trkpt lat="44.8957275" lon="5.3695752">
<ele>1051.59</ele>
<time>2019-07-25T13:08:15Z</time>
</trkpt>
<trkpt lat="44.8957279" lon="5.3695753">
<ele>1051.60</ele>
<time>2019-07-25T13:08:16Z</time>
</trkpt>
<trkpt lat="44.8957280" lon="5.3695755">
<ele>1051.60</ele>
<time>2019-07-25T13:08:17Z</time>
</trkpt>
<trkpt lat="44.8957279" lon="5.3695753">
<ele>1051.60</ele>
<time>2019-07-25T13:08:18Z</time>
</trkpt>
<trkpt lat="44.8957279" lon="5.3695753">
<ele>1051.61</ele>
<time>2019-07-25T13:08:19Z</time>
</trkpt>
<trkpt lat="44.8957279" lon="5.3695753">
<ele>1051.61</ele>
<time>2019-07-25T13:08:20Z</time>
</trkpt>
<trkpt lat="44.8957282" lon="5.3695755">
<ele>1051.62</ele>
<time>2019-07-25T13:08:21Z</time>
</trkpt>
<trkpt lat="44.8957291" lon="5.3695760">
<ele>1051.62</ele>
<time>2019-07-25T13:08:22Z</time>
</trkpt>
<trkpt lat="44.8957331" lon="5.3695773">
<ele>1051.62</ele>
<time>2019-07-25T13:08:23Z</time>
</trkpt>
<trkpt lat="44.8957386" lon="5.3695791">
<ele>1051.63</ele>
<time>2019-07-25T13:08:24Z</time>
</trkpt>
<trkpt lat="44.8957406" lon="5.3695786">
<ele>1051.63</ele>
<time>2019-07-25T13:08:25Z</time>
</trkpt>
<trkpt lat="44.8957405" lon="5.3695789">
<ele>1051.64</ele>
<time>2019-07-25T13:08:26Z</time>
</trkpt>
<trkpt lat="44.8957406" lon="5.3695787">
<ele>1051.64</ele>
<time>2019-07-25T13:08:27Z</time>
</trkpt>
<trkpt lat="44.8957408" lon="5.3695788">
<ele>1051.65</ele>
<time>2019-07-25T13:08:28Z</time>
</trkpt>
<trkpt lat="44.8957412" lon="5.3695793">
<ele>1051.65</ele>
<time>2019-07-25T13:08:29Z</time>
</trkpt>
<trkpt lat="44.8957411" lon="5.3695794">
<ele>1051.66</ele>
<time>2019-07-25T13:08:30Z</time>
</trkpt>
<trkpt lat="44.8957412" lon="5.3695795">
<ele>1051.66</ele>
<time>2019-07-25T13:08:31Z</time>
</trkpt>
<trkpt lat="44.8957412" lon="5.3695796">
<ele>1051.66</ele>
<time>2019-07-25T13:08:32Z</time>
</trkpt>
<trkpt lat="44.8957411" lon="5.3695798">
<ele>1051.67</ele>
<time>2019-07-25T13:08:33Z</time>
</trkpt>
<trkpt lat="44.8957410" lon="5.3695799">
<ele>1051.67</ele>
<time>2019-07-25T13:08:34Z</time>
</trkpt>
<trkpt lat="44.8957412" lon="5.3695804">
<ele>1051.68</ele>
<time>2019-07-25T13:08:35Z</time>
</trkpt>
<trkpt lat="44.8957411" lon="5.3695806">
<ele>1051.68</ele>
<time>2019-07-25T13:08:36Z</time>
</trkpt>
<trkpt lat="44.8957409" lon="5.3695807">
<ele>1051.69</ele>
<time>2019-07-25T13:08:37Z</time>
</trkpt>
<trkpt lat="44.8957409" lon="5.3695807">
<ele>1051.69</ele>
<time>2019-07-25T13:08:38Z</time>
</trkpt>
<trkpt lat="44.8957408" lon="5.3695807">
<ele>1051.70</ele>
<time>2019-07-25T13:08:39Z</time>
</trkpt>
<trkpt lat="44.8957411" lon="5.3695809">
<ele>1051.70</ele>
<time>2019-07-25T13:08:40Z</time>
</trkpt>
<trkpt lat="44.8957411" lon="5.3695809">
<ele>1051.71</ele>
<time>2019-07-25T13:08:41Z</time>
</trkpt>
<trkpt lat="44.8957411" lon="5.3695810">
<ele>1051.71</ele>
<time>2019-07-25T13:08:42Z</time>
</trkpt>
<trkpt lat="44.8957411" lon="5.3695811">
<ele>1051.72</ele>
<time>2019-07-25T13:08:43Z</time>
</trkpt>
<trkpt lat="44.8957405" lon="5.3695804">
<ele>1051.72</ele>
<time>2019-07-25T13:08:44Z</time>
</trkpt>
<trkpt lat="44.8957404" lon="5.3695803">
<ele>1051.73</ele>
<time>2019-07-25T13:08:45Z</time>
</trkpt>
<trkpt lat="44.8957404" lon="5.3695803">
<ele>1051.73</ele>
<time>2019-07-25T13:08:46Z</time>
</trkpt>
<trkpt lat="44.8957404" lon="5.3695803">
<ele>1051.74</ele>
<time>2019-07-25T13:08:47Z</time>
</trkpt>
<trkpt lat="44.8957407" lon="5.3695806">
<ele>1051.74</ele>
<time>2019-07-25T13:08:48Z</time>
</trkpt>
<trkpt lat="44.8957410" lon="5.3695809">
<ele>1051.75</ele>
<time>2019-07-25T13:08:49Z</time>
</trkpt>
<trkpt lat="44.8957410" lon="5.3695809">
<ele>1051.75</ele>
<time>2019-07-25T13:08:50Z</time>
</trkpt>
<trkpt lat="44.8957411" lon="5.3695810">
<ele>1051.76</ele>
<time>2019-07-25T13:08:51Z</time>
</trkpt>
<trkpt lat="44.8957411" lon="5.3695812">
<ele>1051.76</ele>
<time>2019-07-25T13:08:52Z</time>
</trkpt>
<trkpt lat="44.8957410" lon="5.3695811">
<ele>1051.77</ele>
<time>2019-07-25T13:08:53Z</time>
</trkpt>
<trkpt lat="44.8957413" lon="5.3695811">
<ele>1051.77</ele>
<time>2019-07-25T13:08:54Z</time>
</trkpt>
<trkpt lat="44.8957418" lon="5.3695811">
<ele>1051.78</ele>
<time>2019-07-25T13:08:55Z</time>
</trkpt>
<trkpt lat="44.8957419" lon="5.3695812">
<ele>1051.78</ele>
<time>2019-07-25T13:08:56Z</time>
</trkpt>
<trkpt lat="44.8957418" lon="5.3695810">
<ele>1051.79</ele>
<time>2019-07-25T13:08:57Z</time>
</trkpt>
<trkpt lat="44.8957417" lon="5.3695810">
<ele>1051.79</ele>
<time>2019-07-25T13:08:58Z</time>
</trkpt>
<trkpt lat="44.8957418" lon="5.3695811">
<ele>1051.80</ele>
<time>2019-07-25T13:08:59Z</time>
</trkpt>
<trkpt lat="44.8957416" lon="5.3695811">
<ele>1051.80</ele>
<time>2019-07-25T13:09:00Z</time>
</trkpt>
<trkpt lat="44.8957418" lon="5.3695812">
<ele>1051.80</ele>
<time>2019-07-25T13:09:01Z</time>
</trkpt>
<trkpt lat="44.8957415" lon="5.3695807">
<ele>1051.81</ele>
<time>2019-07-25T13:09:02Z</time>
</trkpt>
<trkpt lat="44.8957416" lon="5.3695805">
<ele>1051.81</ele>
<time>2019-07-25T13:09:03Z</time>
</trkpt>
<trkpt lat="44.8957416" lon="5.3695808">
<ele>1051.82</ele>
<time>2019-07-25T13:09:04Z</time>
</trkpt>
<trkpt lat="44.8957418" lon="5.3695811">
<ele>1051.82</ele>
<time>2019-07-25T13:09:05Z</time>
</trkpt>
<trkpt lat="44.8957377" lon="5.3695767">
<ele>1051.83</ele>
<time>2019-07-25T13:09:06Z</time>
</trkpt>
<trkpt lat="44.8957417" lon="5.3695790">
<ele>1051.87</ele>
<time>2019-07-25T13:09:07Z</time>
</trkpt>
<trkpt lat="44.8957410" lon="5.3695814">
<ele>1051.91</ele>
<time>2019-07-25T13:09:08Z</time>
</trkpt>
<trkpt lat="44.8957390" lon="5.3695815">
<ele>1051.91</ele>
<time>2019-07-25T13:09:09Z</time>
</trkpt>
<trkpt lat="44.8957391" lon="5.3695814">
<ele>1051.92</ele>
<time>2019-07-25T13:09:10Z</time>
</trkpt>
<trkpt lat="44.8957385" lon="5.3695810">
<ele>1051.92</ele>
<time>2019-07-25T13:09:11Z</time>
</trkpt>
<trkpt lat="44.8957382" lon="5.3695807">
<ele>1051.93</ele>
<time>2019-07-25T13:09:12Z</time>
</trkpt>
<trkpt lat="44.8957377" lon="5.3695806">
<ele>1051.93</ele>
<time>2019-07-25T13:09:13Z</time>
</trkpt>
<trkpt lat="44.8957378" lon="5.3695806">
<ele>1051.93</ele>
<time>2019-07-25T13:09:14Z</time>
</trkpt>
<trkpt lat="44.8957376" lon="5.3695806">
<ele>1051.94</ele>
<time>2019-07-25T13:09:15Z</time>
</trkpt>
<trkpt lat="44.8957375" lon="5.3695804">
<ele>1051.94</ele>
<time>2019-07-25T13:09:16Z</time>
</trkpt>
<trkpt lat="44.8957377" lon="5.3695803">
<ele>1051.95</ele>
<time>2019-07-25T13:09:17Z</time>
</trkpt>
<trkpt lat="44.8957377" lon="5.3695802">
<ele>1051.95</ele>
<time>2019-07-25T13:09:18Z</time>
</trkpt>
<trkpt lat="44.8957376" lon="5.3695802">
<ele>1051.95</ele>
<time>2019-07-25T13:09:19Z</time>
</trkpt>
<trkpt lat="44.8957378" lon="5.3695802">
<ele>1051.96</ele>
<time>2019-07-25T13:09:20Z</time>
</trkpt>
<trkpt lat="44.8957373" lon="5.3695800">
<ele>1051.96</ele>
<time>2019-07-25T13:09:21Z</time>
</trkpt>
<trkpt lat="44.8957369" lon="5.3695797">
<ele>1051.97</ele>
<time>2019-07-25T13:09:22Z</time>
</trkpt>
<trkpt lat="44.8957365" lon="5.3695795">
<ele>1051.97</ele>
<time>2019-07-25T13:09:23Z</time>
</trkpt>
<trkpt lat="44.8957362" lon="5.3695793">
<ele>1051.97</ele>
<time>2019-07-25T13:09:24Z</time>
</trkpt>
<trkpt lat="44.8957362" lon="5.3695792">
<ele>1051.98</ele>
<time>2019-07-25T13:09:25Z</time>
</trkpt>
<trkpt lat="44.8957360" lon="5.3695791">
<ele>1051.98</ele>
<time>2019-07-25T13:09:26Z</time>
</trkpt>
<trkpt lat="44.8957358" lon="5.3695792">
<ele>1051.98</ele>
<time>2019-07-25T13:09:27Z</time>
</trkpt>
<trkpt lat="44.8957356" lon="5.3695792">
<ele>1051.99</ele>
<time>2019-07-25T13:09:28Z</time>
</trkpt>
<trkpt lat="44.8957358" lon="5.3695795">
<ele>1051.99</ele>
<time>2019-07-25T13:09:29Z</time>
</trkpt>
<trkpt lat="44.8957360" lon="5.3695800">
<ele>1052.00</ele>
<time>2019-07-25T13:09:30Z</time>
</trkpt>
<trkpt lat="44.8957367" lon="5.3695804">
<ele>1052.00</ele>
<time>2019-07-25T13:09:31Z</time>
</trkpt>
<trkpt lat="44.8957363" lon="5.3695807">
<ele>1052.00</ele>
<time>2019-07-25T13:09:32Z</time>
</trkpt>
<trkpt lat="44.8957364" lon="5.3695819">
<ele>1052.01</ele>
<time>2019-07-25T13:09:33Z</time>
</trkpt>
<trkpt lat="44.8957360" lon="5.3695819">
<ele>1052.01</ele>
<time>2019-07-25T13:09:34Z</time>
</trkpt>
<trkpt lat="44.8957360" lon="5.3695820">
<ele>1052.02</ele>
<time>2019-07-25T13:09:35Z</time>
</trkpt>
<trkpt lat="44.8957356" lon="5.3695822">
<ele>1052.02</ele>
<time>2019-07-25T13:09:36Z</time>
</trkpt>
<trkpt lat="44.8957359" lon="5.3695825">
<ele>1052.02</ele>
<time>2019-07-25T13:09:37Z</time>
</trkpt>
<trkpt lat="44.8957361" lon="5.3695827">
<ele>1052.03</ele>
<time>2019-07-25T13:09:38Z</time>
</trkpt>
<trkpt lat="44.8957360" lon="5.3695827">
<ele>1052.03</ele>
<time>2019-07-25T13:09:39Z</time>
</trkpt>
<trkpt lat="44.8957362" lon="5.3695829">
<ele>1052.04</ele>
<time>2019-07-25T13:09:40Z</time>
</trkpt>
<trkpt lat="44.8957360" lon="5.3695828">
<ele>1052.04</ele>
<time>2019-07-25T13:09:41Z</time>
</trkpt>
<trkpt lat="44.8957359" lon="5.3695830">
<ele>1052.04</ele>
<time>2019-07-25T13:09:42Z</time>
</trkpt>
<trkpt lat="44.8957357" lon="5.3695828">
<ele>1052.05</ele>
<time>2019-07-25T13:09:43Z</time>
</trkpt>
<trkpt lat="44.8957354" lon="5.3695829">
<ele>1052.05</ele>
<time>2019-07-25T13:09:44Z</time>
</trkpt>
<trkpt lat="44.8957358" lon="5.3695828">
<ele>1052.06</ele>
<time>2019-07-25T13:09:45Z</time>
</trkpt>
<trkpt lat="44.8957360" lon="5.3695828">
<ele>1052.06</ele>
<time>2019-07-25T13:09:46Z</time>
</trkpt>
<trkpt lat="44.8957364" lon="5.3695826">
<ele>1052.07</ele>
<time>2019-07-25T13:09:47Z</time>
</trkpt>
<trkpt lat="44.8957364" lon="5.3695827">
<ele>1052.07</ele>
<time>2019-07-25T13:09:48Z</time>
</trkpt>
<trkpt lat="44.8957364" lon="5.3695828">
<ele>1052.08</ele>
<time>2019-07-25T13:09:49Z</time>
</trkpt>
<trkpt lat="44.8957364" lon="5.3695828">
<ele>1052.08</ele>
<time>2019-07-25T13:09:50Z</time>
</trkpt>
<trkpt lat="44.8957363" lon="5.3695828">
<ele>1052.08</ele>
<time>2019-07-25T13:09:51Z</time>
</trkpt>
<trkpt lat="44.8957359" lon="5.3695827">
<ele>1052.09</ele>
<time>2019-07-25T13:09:52Z</time>
</trkpt>
<trkpt lat="44.8957360" lon="5.3695827">
<ele>1052.09</ele>
<time>2019-07-25T13:09:53Z</time>
</trkpt>
<trkpt lat="44.8957357" lon="5.3695826">
<ele>1052.10</ele>
<time>2019-07-25T13:09:54Z</time>
</trkpt>
<trkpt lat="44.8957359" lon="5.3695827">
<ele>1052.10</ele>
<time>2019-07-25T13:09:55Z</time>
</trkpt>
<trkpt lat="44.8957360" lon="5.3695826">
<ele>1052.11</ele>
<time>2019-07-25T13:09:56Z</time>
</trkpt>
<trkpt lat="44.8957361" lon="5.3695826">
<ele>1052.11</ele>
<time>2019-07-25T13:09:57Z</time>
</trkpt>
<trkpt lat="44.8957359" lon="5.3695827">
<ele>1052.12</ele>
<time>2019-07-25T13:09:58Z</time>
</trkpt>
<trkpt lat="44.8957358" lon="5.3695826">
<ele>1052.12</ele>
<time>2019-07-25T13:09:59Z</time>
</trkpt>
<trkpt lat="44.8957358" lon="5.3695826">
<ele>1052.12</ele>
<time>2019-07-25T13:10:00Z</time>
</trkpt>
<trkpt lat="44.8957352" lon="5.3695823">
<ele>1052.13</ele>
<time>2019-07-25T13:10:01Z</time>
</trkpt>
<trkpt lat="44.8957353" lon="5.3695823">
<ele>1052.13</ele>
<time>2019-07-25T13:10:02Z</time>
</trkpt>
<trkpt lat="44.8957353" lon="5.3695829">
<ele>1052.14</ele>
<time>2019-07-25T13:10:03Z</time>
</trkpt>
<trkpt lat="44.8957353" lon="5.3695830">
<ele>1052.14</ele>
<time>2019-07-25T13:10:04Z</time>
</trkpt>
<trkpt lat="44.8957360" lon="5.3695844">
<ele>1052.15</ele>
<time>2019-07-25T13:10:05Z</time>
</trkpt>
<trkpt lat="44.8957355" lon="5.3695843">
<ele>1052.15</ele>
<time>2019-07-25T13:10:06Z</time>
</trkpt>
<trkpt lat="44.8957353" lon="5.3695850">
<ele>1052.15</ele>
<time>2019-07-25T13:10:07Z</time>
</trkpt>
<trkpt lat="44.8957350" lon="5.3695852">
<ele>1052.16</ele>
<time>2019-07-25T13:10:08Z</time>
</trkpt>
<trkpt lat="44.8957350" lon="5.3695854">
<ele>1052.16</ele>
<time>2019-07-25T13:10:09Z</time>
</trkpt>
<trkpt lat="44.8957347" lon="5.3695853">
<ele>1052.16</ele>
<time>2019-07-25T13:10:10Z</time>
</trkpt>
<trkpt lat="44.8957351" lon="5.3695860">
<ele>1052.17</ele>
<time>2019-07-25T13:10:11Z</time>
</trkpt>
<trkpt lat="44.8957349" lon="5.3695860">
<ele>1052.17</ele>
<time>2019-07-25T13:10:12Z</time>
</trkpt>
<trkpt lat="44.8957348" lon="5.3695860">
<ele>1052.17</ele>
<time>2019-07-25T13:10:13Z</time>
</trkpt>
<trkpt lat="44.8957347" lon="5.3695860">
<ele>1052.18</ele>
<time>2019-07-25T13:10:14Z</time>
</trkpt>
<trkpt lat="44.8957345" lon="5.3695861">
<ele>1052.18</ele>
<time>2019-07-25T13:10:15Z</time>
</trkpt>
<trkpt lat="44.8957345" lon="5.3695862">
<ele>1052.18</ele>
<time>2019-07-25T13:10:16Z</time>
</trkpt>
<trkpt lat="44.8957347" lon="5.3695867">
<ele>1052.19</ele>
<time>2019-07-25T13:10:17Z</time>
</trkpt>
<trkpt lat="44.8957349" lon="5.3695868">
<ele>1052.19</ele>
<time>2019-07-25T13:10:18Z</time>
</trkpt>
<trkpt lat="44.8957349" lon="5.3695869">
<ele>1052.19</ele>
<time>2019-07-25T13:10:19Z</time>
</trkpt>
<trkpt lat="44.8957354" lon="5.3695875">
<ele>1052.19</ele>
<time>2019-07-25T13:10:20Z</time>
</trkpt>
<trkpt lat="44.8957361" lon="5.3695900">
<ele>1052.20</ele>
<time>2019-07-25T13:10:21Z</time>
</trkpt>
<trkpt lat="44.8957372" lon="5.3695925">
<ele>1052.20</ele>
<time>2019-07-25T13:10:22Z</time>
</trkpt>
<trkpt lat="44.8957370" lon="5.3695922">
<ele>1052.20</ele>
<time>2019-07-25T13:10:23Z</time>
</trkpt>
<trkpt lat="44.8957338" lon="5.3695898">
<ele>1052.21</ele>
<time>2019-07-25T13:10:24Z</time>
</trkpt>
<trkpt lat="44.8957352" lon="5.3695932">
<ele>1052.21</ele>
<time>2019-07-25T13:10:25Z</time>
</trkpt>
<trkpt lat="44.8957294" lon="5.3695924">
<ele>1052.21</ele>
<time>2019-07-25T13:10:26Z</time>
</trkpt>
<trkpt lat="44.8957303" lon="5.3695935">
<ele>1052.21</ele>
<time>2019-07-25T13:10:27Z</time>
</trkpt>
<trkpt lat="44.8957262" lon="5.3695860">
<ele>1052.22</ele>
<time>2019-07-25T13:10:28Z</time>
</trkpt>
<trkpt lat="44.8957272" lon="5.3695871">
<ele>1052.22</ele>
<time>2019-07-25T13:10:29Z</time>
</trkpt>
<trkpt lat="44.8957257" lon="5.3695845">
<ele>1052.22</ele>
<time>2019-07-25T13:10:30Z</time>
</trkpt>
<trkpt lat="44.8957264" lon="5.3695848">
<ele>1052.22</ele>
<time>2019-07-25T13:10:31Z</time>
</trkpt>
<trkpt lat="44.8957261" lon="5.3695846">
<ele>1052.22</ele>
<time>2019-07-25T13:10:32Z</time>
</trkpt>
<trkpt lat="44.8957262" lon="5.3695848">
<ele>1052.23</ele>
<time>2019-07-25T13:10:33Z</time>
</trkpt>
<trkpt lat="44.8957263" lon="5.3695848">
<ele>1052.23</ele>
<time>2019-07-25T13:10:34Z</time>
</trkpt>
<trkpt lat="44.8957264" lon="5.3695848">
<ele>1052.23</ele>
<time>2019-07-25T13:10:35Z</time>
</trkpt>
<trkpt lat="44.8957264" lon="5.3695847">
<ele>1052.23</ele>
<time>2019-07-25T13:10:36Z</time>
</trkpt>
<trkpt lat="44.8957267" lon="5.3695847">
<ele>1052.24</ele>
<time>2019-07-25T13:10:37Z</time>
</trkpt>
<trkpt lat="44.8957267" lon="5.3695846">
<ele>1052.24</ele>
<time>2019-07-25T13:10:38Z</time>
</trkpt>
<trkpt lat="44.8957266" lon="5.3695848">
<ele>1052.24</ele>
<time>2019-07-25T13:10:39Z</time>
</trkpt>
<trkpt lat="44.8957264" lon="5.3695853">
<ele>1052.24</ele>
<time>2019-07-25T13:10:40Z</time>
</trkpt>
<trkpt lat="44.8957261" lon="5.3695850">
<ele>1052.24</ele>
<time>2019-07-25T13:10:41Z</time>
</trkpt>
<trkpt lat="44.8957263" lon="5.3695854">
<ele>1052.25</ele>
<time>2019-07-25T13:10:42Z</time>
</trkpt>
<trkpt lat="44.8957263" lon="5.3695858">
<ele>1052.25</ele>
<time>2019-07-25T13:10:43Z</time>
</trkpt>
<trkpt lat="44.8957262" lon="5.3695861">
<ele>1052.25</ele>
<time>2019-07-25T13:10:44Z</time>
</trkpt>
<trkpt lat="44.8957263" lon="5.3695865">
<ele>1052.25</ele>
<time>2019-07-25T13:10:45Z</time>
</trkpt>
<trkpt lat="44.8957262" lon="5.3695870">
<ele>1052.26</ele>
<time>2019-07-25T13:10:46Z</time>
</trkpt>
<trkpt lat="44.8957260" lon="5.3695874">
<ele>1052.26</ele>
<time>2019-07-25T13:10:47Z</time>
</trkpt>
<trkpt lat="44.8957252" lon="5.3695878">
<ele>1052.26</ele>
<time>2019-07-25T13:10:48Z</time>
</trkpt>
<trkpt lat="44.8957255" lon="5.3695883">
<ele>1052.26</ele>
<time>2019-07-25T13:10:49Z</time>
</trkpt>
<trkpt lat="44.8957256" lon="5.3695884">
<ele>1052.26</ele>
<time>2019-07-25T13:10:50Z</time>
</trkpt>
<trkpt lat="44.8957255" lon="5.3695883">
<ele>1052.26</ele>
<time>2019-07-25T13:10:51Z</time>
</trkpt>
<trkpt lat="44.8957255" lon="5.3695886">
<ele>1052.27</ele>
<time>2019-07-25T13:10:52Z</time>
</trkpt>
<trkpt lat="44.8957257" lon="5.3695887">
<ele>1052.27</ele>
<time>2019-07-25T13:10:53Z</time>
</trkpt>
<trkpt lat="44.8957262" lon="5.3695892">
<ele>1052.27</ele>
<time>2019-07-25T13:10:54Z</time>
</trkpt>
<trkpt lat="44.8957262" lon="5.3695892">
<ele>1052.27</ele>
<time>2019-07-25T13:10:55Z</time>
</trkpt>
<trkpt lat="44.8957259" lon="5.3695892">
<ele>1052.27</ele>
<time>2019-07-25T13:10:56Z</time>
</trkpt>
<trkpt lat="44.8957257" lon="5.3695892">
<ele>1052.28</ele>
<time>2019-07-25T13:10:57Z</time>
</trkpt>
<trkpt lat="44.8957256" lon="5.3695893">
<ele>1052.28</ele>
<time>2019-07-25T13:10:58Z</time>
</trkpt>
<trkpt lat="44.8957255" lon="5.3695889">
<ele>1052.28</ele>
<time>2019-07-25T13:10:59Z</time>
</trkpt>
<trkpt lat="44.8957256" lon="5.3695888">
<ele>1052.28</ele>
<time>2019-07-25T13:11:00Z</time>
</trkpt>
<trkpt lat="44.8957258" lon="5.3695889">
<ele>1052.28</ele>
<time>2019-07-25T13:11:01Z</time>
</trkpt>
<trkpt lat="44.8957257" lon="5.3695887">
<ele>1052.28</ele>
<time>2019-07-25T13:11:02Z</time>
</trkpt>
<trkpt lat="44.8957253" lon="5.3695885">
<ele>1052.29</ele>
<time>2019-07-25T13:11:03Z</time>
</trkpt>
<trkpt lat="44.8957254" lon="5.3695883">
<ele>1052.29</ele>
<time>2019-07-25T13:11:04Z</time>
</trkpt>
<trkpt lat="44.8957254" lon="5.3695881">
<ele>1052.29</ele>
<time>2019-07-25T13:11:05Z</time>
</trkpt>
<trkpt lat="44.8957253" lon="5.3695880">
<ele>1052.29</ele>
<time>2019-07-25T13:11:06Z</time>
</trkpt>
<trkpt lat="44.8957254" lon="5.3695879">
<ele>1052.29</ele>
<time>2019-07-25T13:11:07Z</time>
</trkpt>
<trkpt lat="44.8957256" lon="5.3695861">
<ele>1052.29</ele>
<time>2019-07-25T13:11:08Z</time>
</trkpt>
<trkpt lat="44.8957254" lon="5.3695858">
<ele>1052.29</ele>
<time>2019-07-25T13:11:09Z</time>
</trkpt>
<trkpt lat="44.8957253" lon="5.3695857">
<ele>1052.30</ele>
<time>2019-07-25T13:11:10Z</time>
</trkpt>
<trkpt lat="44.8957251" lon="5.3695856">
<ele>1052.30</ele>
<time>2019-07-25T13:11:11Z</time>
</trkpt>
<trkpt lat="44.8957249" lon="5.3695852">
<ele>1052.30</ele>
<time>2019-07-25T13:11:12Z</time>
</trkpt>
<trkpt lat="44.8957249" lon="5.3695846">
<ele>1052.30</ele>
<time>2019-07-25T13:11:13Z</time>
</trkpt>
<trkpt lat="44.8957247" lon="5.3695838">
<ele>1052.30</ele>
<time>2019-07-25T13:11:14Z</time>
</trkpt>
<trkpt lat="44.8957242" lon="5.3695830">
<ele>1052.30</ele>
<time>2019-07-25T13:11:15Z</time>
</trkpt>
<trkpt lat="44.8957242" lon="5.3695830">
<ele>1052.30</ele>
<time>2019-07-25T13:11:16Z</time>
</trkpt>
<trkpt lat="44.8957242" lon="5.3695831">
<ele>1052.30</ele>
<time>2019-07-25T13:11:17Z</time>
</trkpt>
<trkpt lat="44.8957241" lon="5.3695829">
<ele>1052.31</ele>
<time>2019-07-25T13:11:18Z</time>
</trkpt>
<trkpt lat="44.8957241" lon="5.3695828">
<ele>1052.31</ele>
<time>2019-07-25T13:11:19Z</time>
</trkpt>
<trkpt lat="44.8957240" lon="5.3695828">
<ele>1052.31</ele>
<time>2019-07-25T13:11:20Z</time>
</trkpt>
<trkpt lat="44.8957238" lon="5.3695827">
<ele>1052.31</ele>
<time>2019-07-25T13:11:21Z</time>
</trkpt>
<trkpt lat="44.8957236" lon="5.3695828">
<ele>1052.31</ele>
<time>2019-07-25T13:11:22Z</time>
</trkpt>
<trkpt lat="44.8957235" lon="5.3695829">
<ele>1052.31</ele>
<time>2019-07-25T13:11:23Z</time>
</trkpt>
<trkpt lat="44.8957231" lon="5.3695830">
<ele>1052.31</ele>
<time>2019-07-25T13:11:24Z</time>
</trkpt>
<trkpt lat="44.8957241" lon="5.3695833">
<ele>1052.31</ele>
<time>2019-07-25T13:11:25Z</time>
</trkpt>
<trkpt lat="44.8957242" lon="5.3695836">
<ele>1052.31</ele>
<time>2019-07-25T13:11:26Z</time>
</trkpt>
<trkpt lat="44.8957244" lon="5.3695838">
<ele>1052.31</ele>
<time>2019-07-25T13:11:27Z</time>
</trkpt>
<trkpt lat="44.8957246" lon="5.3695839">
<ele>1052.31</ele>
<time>2019-07-25T13:11:28Z</time>
</trkpt>
<trkpt lat="44.8957246" lon="5.3695839">
<ele>1052.32</ele>
<time>2019-07-25T13:11:29Z</time>
</trkpt>
<trkpt lat="44.8957247" lon="5.3695839">
<ele>1052.32</ele>
<time>2019-07-25T13:11:30Z</time>
</trkpt>
<trkpt lat="44.8957246" lon="5.3695839">
<ele>1052.32</ele>
<time>2019-07-25T13:11:31Z</time>
</trkpt>
<trkpt lat="44.8957242" lon="5.3695839">
<ele>1052.32</ele>
<time>2019-07-25T13:11:32Z</time>
</trkpt>
<trkpt lat="44.8957243" lon="5.3695842">
<ele>1052.32</ele>
<time>2019-07-25T13:11:33Z</time>
</trkpt>
<trkpt lat="44.8957244" lon="5.3695841">
<ele>1052.32</ele>
<time>2019-07-25T13:11:34Z</time>
</trkpt>
<trkpt lat="44.8957244" lon="5.3695843">
<ele>1052.32</ele>
<time>2019-07-25T13:11:35Z</time>
</trkpt>
<trkpt lat="44.8957243" lon="5.3695843">
<ele>1052.32</ele>
<time>2019-07-25T13:11:36Z</time>
</trkpt>
<trkpt lat="44.8957241" lon="5.3695840">
<ele>1052.32</ele>
<time>2019-07-25T13:11:37Z</time>
</trkpt>
<trkpt lat="44.8957242" lon="5.3695842">
<ele>1052.32</ele>
<time>2019-07-25T13:11:38Z</time>
</trkpt>
<trkpt lat="44.8957240" lon="5.3695842">
<ele>1052.32</ele>
<time>2019-07-25T13:11:39Z</time>
</trkpt>
<trkpt lat="44.8957239" lon="5.3695843">
<ele>1052.33</ele>
<time>2019-07-25T13:11:40Z</time>
</trkpt>
<trkpt lat="44.8957236" lon="5.3695842">
<ele>1052.33</ele>
<time>2019-07-25T13:11:41Z</time>
</trkpt>
<trkpt lat="44.8957237" lon="5.3695842">
<ele>1052.33</ele>
<time>2019-07-25T13:11:42Z</time>
</trkpt>
<trkpt lat="44.8957238" lon="5.3695839">
<ele>1052.33</ele>
<time>2019-07-25T13:11:43Z</time>
</trkpt>
<trkpt lat="44.8957241" lon="5.3695837">
<ele>1052.33</ele>
<time>2019-07-25T13:11:44Z</time>
</trkpt>
<trkpt lat="44.8957242" lon="5.3695835">
<ele>1052.33</ele>
<time>2019-07-25T13:11:45Z</time>
</trkpt>
<trkpt lat="44.8957242" lon="5.3695827">
<ele>1052.33</ele>
<time>2019-07-25T13:11:46Z</time>
</trkpt>
<trkpt lat="44.8957244" lon="5.3695826">
<ele>1052.33</ele>
<time>2019-07-25T13:11:47Z</time>
</trkpt>
<trkpt lat="44.8957244" lon="5.3695825">
<ele>1052.33</ele>
<time>2019-07-25T13:11:48Z</time>
</trkpt>
<trkpt lat="44.8957247" lon="5.3695825">
<ele>1052.33</ele>
<time>2019-07-25T13:11:49Z</time>
</trkpt>
<trkpt lat="44.8957246" lon="5.3695825">
<ele>1052.33</ele>
<time>2019-07-25T13:11:50Z</time>
</trkpt>
<trkpt lat="44.8957245" lon="5.3695829">
<ele>1052.33</ele>
<time>2019-07-25T13:11:51Z</time>
</trkpt>
<trkpt lat="44.8957248" lon="5.3695831">
<ele>1052.33</ele>
<time>2019-07-25T13:11:52Z</time>
</trkpt>
<trkpt lat="44.8957249" lon="5.3695829">
<ele>1052.33</ele>
<time>2019-07-25T13:11:53Z</time>
</trkpt>
<trkpt lat="44.8957252" lon="5.3695829">
<ele>1052.34</ele>
<time>2019-07-25T13:11:54Z</time>
</trkpt>
<trkpt lat="44.8957252" lon="5.3695827">
<ele>1052.34</ele>
<time>2019-07-25T13:11:55Z</time>
</trkpt>
<trkpt lat="44.8957256" lon="5.3695827">
<ele>1052.34</ele>
<time>2019-07-25T13:11:56Z</time>
</trkpt>
<trkpt lat="44.8957261" lon="5.3695830">
<ele>1052.34</ele>
<time>2019-07-25T13:11:57Z</time>
</trkpt>
<trkpt lat="44.8957258" lon="5.3695827">
<ele>1052.34</ele>
<time>2019-07-25T13:11:58Z</time>
</trkpt>
<trkpt lat="44.8957259" lon="5.3695828">
<ele>1052.34</ele>
<time>2019-07-25T13:11:59Z</time>
</trkpt>
<trkpt lat="44.8957263" lon="5.3695832">
<ele>1052.34</ele>
<time>2019-07-25T13:12:00Z</time>
</trkpt>
<trkpt lat="44.8957264" lon="5.3695833">
<ele>1052.34</ele>
<time>2019-07-25T13:12:01Z</time>
</trkpt>
<trkpt lat="44.8957267" lon="5.3695843">
<ele>1052.34</ele>
<time>2019-07-25T13:12:02Z</time>
</trkpt>
<trkpt lat="44.8957266" lon="5.3695845">
<ele>1052.34</ele>
<time>2019-07-25T13:12:03Z</time>
</trkpt>
<trkpt lat="44.8957282" lon="5.3695871">
<ele>1052.34</ele>
<time>2019-07-25T13:12:04Z</time>
</trkpt>
<trkpt lat="44.8957282" lon="5.3695870">
<ele>1052.34</ele>
<time>2019-07-25T13:12:05Z</time>
</trkpt>
<trkpt lat="44.8957281" lon="5.3695872">
<ele>1052.34</ele>
<time>2019-07-25T13:12:06Z</time>
</trkpt>
<trkpt lat="44.8957284" lon="5.3695869">
<ele>1052.34</ele>
<time>2019-07-25T13:12:07Z</time>
</trkpt>
<trkpt lat="44.8957282" lon="5.3695871">
<ele>1052.34</ele>
<time>2019-07-25T13:12:08Z</time>
</trkpt>
<trkpt lat="44.8957284" lon="5.3695875">
<ele>1052.34</ele>
<time>2019-07-25T13:12:09Z</time>
</trkpt>
<trkpt lat="44.8957300" lon="5.3695897">
<ele>1052.34</ele>
<time>2019-07-25T13:12:10Z</time>
</trkpt>
<trkpt lat="44.8957301" lon="5.3695892">
<ele>1052.34</ele>
<time>2019-07-25T13:12:11Z</time>
</trkpt>
<trkpt lat="44.8957313" lon="5.3695902">
<ele>1052.34</ele>
<time>2019-07-25T13:12:12Z</time>
</trkpt>
<trkpt lat="44.8957316" lon="5.3695907">
<ele>1052.34</ele>
<time>2019-07-25T13:12:13Z</time>
</trkpt>
<trkpt lat="44.8957319" lon="5.3695906">
<ele>1052.34</ele>
<time>2019-07-25T13:12:14Z</time>
</trkpt>
<trkpt lat="44.8957319" lon="5.3695906">
<ele>1052.34</ele>
<time>2019-07-25T13:12:15Z</time>
</trkpt>
<trkpt lat="44.8957321" lon="5.3695906">
<ele>1052.34</ele>
<time>2019-07-25T13:12:16Z</time>
</trkpt>
<trkpt lat="44.8957323" lon="5.3695907">
<ele>1052.34</ele>
<time>2019-07-25T13:12:17Z</time>
</trkpt>
<trkpt lat="44.8957316" lon="5.3695901">
<ele>1052.34</ele>
<time>2019-07-25T13:12:18Z</time>
</trkpt>
<trkpt lat="44.8957315" lon="5.3695898">
<ele>1052.34</ele>
<time>2019-07-25T13:12:19Z</time>
</trkpt>
<trkpt lat="44.8957314" lon="5.3695895">
<ele>1052.34</ele>
<time>2019-07-25T13:12:20Z</time>
</trkpt>
<trkpt lat="44.8957321" lon="5.3695893">
<ele>1052.34</ele>
<time>2019-07-25T13:12:21Z</time>
</trkpt>
<trkpt lat="44.8957315" lon="5.3695889">
<ele>1052.34</ele>
<time>2019-07-25T13:12:22Z</time>
</trkpt>
<trkpt lat="44.8957317" lon="5.3695888">
<ele>1052.34</ele>
<time>2019-07-25T13:12:23Z</time>
</trkpt>
<trkpt lat="44.8957329" lon="5.3695899">
<ele>1052.34</ele>
<time>2019-07-25T13:12:24Z</time>
</trkpt>
<trkpt lat="44.8957288" lon="5.3695871">
<ele>1052.34</ele>
<time>2019-07-25T13:12:25Z</time>
</trkpt>
<trkpt lat="44.8957285" lon="5.3695871">
<ele>1052.34</ele>
<time>2019-07-25T13:12:26Z</time>
</trkpt>
<trkpt lat="44.8957287" lon="5.3695871">
<ele>1052.34</ele>
<time>2019-07-25T13:12:27Z</time>
</trkpt>
<trkpt lat="44.8957281" lon="5.3695869">
<ele>1052.34</ele>
<time>2019-07-25T13:12:28Z</time>
</trkpt>
<trkpt lat="44.8957280" lon="5.3695870">
<ele>1052.35</ele>
<time>2019-07-25T13:12:29Z</time>
</trkpt>
<trkpt lat="44.8957278" lon="5.3695870">
<ele>1052.35</ele>
<time>2019-07-25T13:12:30Z</time>
</trkpt>
<trkpt lat="44.8957272" lon="5.3695870">
<ele>1052.35</ele>
<time>2019-07-25T13:12:31Z</time>
</trkpt>
<trkpt lat="44.8957277" lon="5.3695871">
<ele>1052.35</ele>
<time>2019-07-25T13:12:32Z</time>
</trkpt>
<trkpt lat="44.8957277" lon="5.3695866">
<ele>1052.35</ele>
<time>2019-07-25T13:12:33Z</time>
</trkpt>
<trkpt lat="44.8957276" lon="5.3695867">
<ele>1052.35</ele>
<time>2019-07-25T13:12:34Z</time>
</trkpt>
<trkpt lat="44.8957279" lon="5.3695869">
<ele>1052.35</ele>
<time>2019-07-25T13:12:35Z</time>
</trkpt>
<trkpt lat="44.8957277" lon="5.3695872">
<ele>1052.35</ele>
<time>2019-07-25T13:12:36Z</time>
</trkpt>
<trkpt lat="44.8957275" lon="5.3695875">
<ele>1052.35</ele>
<time>2019-07-25T13:12:37Z</time>
</trkpt>
<trkpt lat="44.8957271" lon="5.3695883">
<ele>1052.35</ele>
<time>2019-07-25T13:12:38Z</time>
</trkpt>
<trkpt lat="44.8957266" lon="5.3695883">
<ele>1052.35</ele>
<time>2019-07-25T13:12:39Z</time>
</trkpt>
<trkpt lat="44.8957260" lon="5.3695886">
<ele>1052.35</ele>
<time>2019-07-25T13:12:40Z</time>
</trkpt>
<trkpt lat="44.8957257" lon="5.3695889">
<ele>1052.35</ele>
<time>2019-07-25T13:12:41Z</time>
</trkpt>
<trkpt lat="44.8957253" lon="5.3695887">
<ele>1052.35</ele>
<time>2019-07-25T13:12:42Z</time>
</trkpt>
<trkpt lat="44.8957256" lon="5.3695890">
<ele>1052.36</ele>
<time>2019-07-25T13:12:43Z</time>
</trkpt>
<trkpt lat="44.8957255" lon="5.3695891">
<ele>1052.36</ele>
<time>2019-07-25T13:12:44Z</time>
</trkpt>
<trkpt lat="44.8957254" lon="5.3695894">
<ele>1052.36</ele>
<time>2019-07-25T13:12:45Z</time>
</trkpt>
<trkpt lat="44.8957252" lon="5.3695899">
<ele>1052.36</ele>
<time>2019-07-25T13:12:46Z</time>
</trkpt>
<trkpt lat="44.8957256" lon="5.3695921">
<ele>1052.36</ele>
<time>2019-07-25T13:12:47Z</time>
</trkpt>
<trkpt lat="44.8957251" lon="5.3695924">
<ele>1052.36</ele>
<time>2019-07-25T13:12:48Z</time>
</trkpt>
<trkpt lat="44.8957244" lon="5.3695925">
<ele>1052.36</ele>
<time>2019-07-25T13:12:49Z</time>
</trkpt>
<trkpt lat="44.8957246" lon="5.3695928">
<ele>1052.36</ele>
<time>2019-07-25T13:12:50Z</time>
</trkpt>
<trkpt lat="44.8957248" lon="5.3695931">
<ele>1052.36</ele>
<time>2019-07-25T13:12:51Z</time>
</trkpt>
<trkpt lat="44.8957246" lon="5.3695934">
<ele>1052.36</ele>
<time>2019-07-25T13:12:52Z</time>
</trkpt>
<trkpt lat="44.8957243" lon="5.3695930">
<ele>1052.36</ele>
<time>2019-07-25T13:12:53Z</time>
</trkpt>
<trkpt lat="44.8957243" lon="5.3695925">
<ele>1052.36</ele>
<time>2019-07-25T13:12:54Z</time>
</trkpt>
<trkpt lat="44.8957247" lon="5.3695926">
<ele>1052.36</ele>
<time>2019-07-25T13:12:55Z</time>
</trkpt>
<trkpt lat="44.8957246" lon="5.3695922">
<ele>1052.36</ele>
<time>2019-07-25T13:12:56Z</time>
</trkpt>
<trkpt lat="44.8957243" lon="5.3695918">
<ele>1052.36</ele>
<time>2019-07-25T13:12:57Z</time>
</trkpt>
<trkpt lat="44.8957245" lon="5.3695918">
<ele>1052.37</ele>
<time>2019-07-25T13:12:58Z</time>
</trkpt>
<trkpt lat="44.8957246" lon="5.3695914">
<ele>1052.37</ele>
<time>2019-07-25T13:12:59Z</time>
</trkpt>
<trkpt lat="44.8957247" lon="5.3695915">
<ele>1052.37</ele>
<time>2019-07-25T13:13:00Z</time>
</trkpt>
<trkpt lat="44.8957244" lon="5.3695915">
<ele>1052.37</ele>
<time>2019-07-25T13:13:01Z</time>
</trkpt>
<trkpt lat="44.8957240" lon="5.3695912">
<ele>1052.37</ele>
<time>2019-07-25T13:13:02Z</time>
</trkpt>
<trkpt lat="44.8957240" lon="5.3695914">
<ele>1052.37</ele>
<time>2019-07-25T13:13:03Z</time>
</trkpt>
<trkpt lat="44.8957238" lon="5.3695916">
<ele>1052.37</ele>
<time>2019-07-25T13:13:04Z</time>
</trkpt>
<trkpt lat="44.8957234" lon="5.3695915">
<ele>1052.37</ele>
<time>2019-07-25T13:13:05Z</time>
</trkpt>
<trkpt lat="44.8957232" lon="5.3695915">
<ele>1052.37</ele>
<time>2019-07-25T13:13:06Z</time>
</trkpt>
<trkpt lat="44.8957230" lon="5.3695911">
<ele>1052.36</ele>
<time>2019-07-25T13:13:07Z</time>
</trkpt>
<trkpt lat="44.8957220" lon="5.3695905">
<ele>1052.36</ele>
<time>2019-07-25T13:13:08Z</time>
</trkpt>
<trkpt lat="44.8957223" lon="5.3695915">
<ele>1052.36</ele>
<time>2019-07-25T13:13:09Z</time>
</trkpt>
<trkpt lat="44.8957225" lon="5.3695916">
<ele>1052.36</ele>
<time>2019-07-25T13:13:10Z</time>
</trkpt>
<trkpt lat="44.8957236" lon="5.3695925">
<ele>1052.36</ele>
<time>2019-07-25T13:13:11Z</time>
</trkpt>
<trkpt lat="44.8957233" lon="5.3695921">
<ele>1052.36</ele>
<time>2019-07-25T13:13:12Z</time>
</trkpt>
<trkpt lat="44.8957242" lon="5.3695927">
<ele>1052.36</ele>
<time>2019-07-25T13:13:13Z</time>
</trkpt>
<trkpt lat="44.8957231" lon="5.3695911">
<ele>1052.36</ele>
<time>2019-07-25T13:13:14Z</time>
</trkpt>
<trkpt lat="44.8957335" lon="5.3695930">
<ele>1052.36</ele>
<time>2019-07-25T13:13:15Z</time>
</trkpt>
<trkpt lat="44.8957414" lon="5.3695938">
<ele>1052.36</ele>
<time>2019-07-25T13:13:16Z</time>
</trkpt>
<trkpt lat="44.8957422" lon="5.3695937">
<ele>1052.37</ele>
<time>2019-07-25T13:13:17Z</time>
</trkpt>
<trkpt lat="44.8957415" lon="5.3695939">
<ele>1052.37</ele>
<time>2019-07-25T13:13:18Z</time>
</trkpt>
<trkpt lat="44.8957417" lon="5.3695942">
<ele>1052.37</ele>
<time>2019-07-25T13:13:19Z</time>
</trkpt>
<trkpt lat="44.8957417" lon="5.3695942">
<ele>1052.37</ele>
<time>2019-07-25T13:13:20Z</time>
</trkpt>
<trkpt lat="44.8957415" lon="5.3695942">
<ele>1052.37</ele>
<time>2019-07-25T13:13:21Z</time>
</trkpt>
<trkpt lat="44.8957411" lon="5.3695945">
<ele>1052.37</ele>
<time>2019-07-25T13:13:22Z</time>
</trkpt>
<trkpt lat="44.8957410" lon="5.3695945">
<ele>1052.37</ele>
<time>2019-07-25T13:13:23Z</time>
</trkpt>
<trkpt lat="44.8957471" lon="5.3695962">
<ele>1052.37</ele>
<time>2019-07-25T13:13:24Z</time>
</trkpt>
<trkpt lat="44.8957494" lon="5.3695968">
<ele>1052.37</ele>
<time>2019-07-25T13:13:25Z</time>
</trkpt>
<trkpt lat="44.8957520" lon="5.3695959">
<ele>1052.37</ele>
<time>2019-07-25T13:13:26Z</time>
</trkpt>
<trkpt lat="44.8957521" lon="5.3695961">
<ele>1052.37</ele>
<time>2019-07-25T13:13:27Z</time>
</trkpt>
<trkpt lat="44.8957519" lon="5.3695959">
<ele>1052.37</ele>
<time>2019-07-25T13:13:28Z</time>
</trkpt>
<trkpt lat="44.8957525" lon="5.3695961">
<ele>1052.38</ele>
<time>2019-07-25T13:13:29Z</time>
</trkpt>
<trkpt lat="44.8957521" lon="5.3695959">
<ele>1052.38</ele>
<time>2019-07-25T13:13:30Z</time>
</trkpt>
<trkpt lat="44.8957525" lon="5.3695962">
<ele>1052.38</ele>
<time>2019-07-25T13:13:31Z</time>
</trkpt>
<trkpt lat="44.8957525" lon="5.3695960">
<ele>1052.38</ele>
<time>2019-07-25T13:13:32Z</time>
</trkpt>
<trkpt lat="44.8957510" lon="5.3695933">
<ele>1052.38</ele>
<time>2019-07-25T13:13:33Z</time>
</trkpt>
<trkpt lat="44.8957494" lon="5.3695964">
<ele>1052.39</ele>
<time>2019-07-25T13:13:34Z</time>
</trkpt>
<trkpt lat="44.8957476" lon="5.3695977">
<ele>1052.39</ele>
<time>2019-07-25T13:13:35Z</time>
</trkpt>
<trkpt lat="44.8957475" lon="5.3695973">
<ele>1052.39</ele>
<time>2019-07-25T13:13:36Z</time>
</trkpt>
<trkpt lat="44.8957470" lon="5.3695959">
<ele>1052.39</ele>
<time>2019-07-25T13:13:37Z</time>
</trkpt>
<trkpt lat="44.8957461" lon="5.3695956">
<ele>1052.40</ele>
<time>2019-07-25T13:13:38Z</time>
</trkpt>
<trkpt lat="44.8957452" lon="5.3695952">
<ele>1052.40</ele>
<time>2019-07-25T13:13:39Z</time>
</trkpt>
<trkpt lat="44.8957441" lon="5.3695943">
<ele>1052.40</ele>
<time>2019-07-25T13:13:40Z</time>
</trkpt>
<trkpt lat="44.8957440" lon="5.3695938">
<ele>1052.40</ele>
<time>2019-07-25T13:13:41Z</time>
</trkpt>
<trkpt lat="44.8957428" lon="5.3695926">
<ele>1052.41</ele>
<time>2019-07-25T13:13:42Z</time>
</trkpt>
<trkpt lat="44.8957430" lon="5.3695934">
<ele>1052.41</ele>
<time>2019-07-25T13:13:43Z</time>
</trkpt>
<trkpt lat="44.8957425" lon="5.3695929">
<ele>1052.42</ele>
<time>2019-07-25T13:13:44Z</time>
</trkpt>
<trkpt lat="44.8957425" lon="5.3695928">
<ele>1052.42</ele>
<time>2019-07-25T13:13:45Z</time>
</trkpt>
<trkpt lat="44.8957424" lon="5.3695926">
<ele>1052.42</ele>
<time>2019-07-25T13:13:46Z</time>
</trkpt>
<trkpt lat="44.8957422" lon="5.3695926">
<ele>1052.43</ele>
<time>2019-07-25T13:13:47Z</time>
</trkpt>
<trkpt lat="44.8957416" lon="5.3695925">
<ele>1052.43</ele>
<time>2019-07-25T13:13:48Z</time>
</trkpt>
<trkpt lat="44.8957411" lon="5.3695922">
<ele>1052.44</ele>
<time>2019-07-25T13:13:49Z</time>
</trkpt>
<trkpt lat="44.8957408" lon="5.3695915">
<ele>1052.44</ele>
<time>2019-07-25T13:13:50Z</time>
</trkpt>
<trkpt lat="44.8957402" lon="5.3695913">
<ele>1052.44</ele>
<time>2019-07-25T13:13:51Z</time>
</trkpt>
<trkpt lat="44.8957402" lon="5.3695905">
<ele>1052.45</ele>
<time>2019-07-25T13:13:52Z</time>
</trkpt>
<trkpt lat="44.8957393" lon="5.3695905">
<ele>1052.45</ele>
<time>2019-07-25T13:13:53Z</time>
</trkpt>
<trkpt lat="44.8957385" lon="5.3695904">
<ele>1052.45</ele>
<time>2019-07-25T13:13:54Z</time>
</trkpt>
<trkpt lat="44.8957377" lon="5.3695902">
<ele>1052.46</ele>
<time>2019-07-25T13:13:55Z</time>
</trkpt>
<trkpt lat="44.8957377" lon="5.3695904">
<ele>1052.46</ele>
<time>2019-07-25T13:13:56Z</time>
</trkpt>
<trkpt lat="44.8957375" lon="5.3695907">
<ele>1052.47</ele>
<time>2019-07-25T13:13:57Z</time>
</trkpt>
<trkpt lat="44.8957369" lon="5.3695906">
<ele>1052.47</ele>
<time>2019-07-25T13:13:58Z</time>
</trkpt>
<trkpt lat="44.8957366" lon="5.3695906">
<ele>1052.47</ele>
<time>2019-07-25T13:13:59Z</time>
</trkpt>
<trkpt lat="44.8957360" lon="5.3695907">
<ele>1052.48</ele>
<time>2019-07-25T13:14:00Z</time>
</trkpt>
<trkpt lat="44.8957353" lon="5.3695906">
<ele>1052.48</ele>
<time>2019-07-25T13:14:01Z</time>
</trkpt>
<trkpt lat="44.8957348" lon="5.3695905">
<ele>1052.49</ele>
<time>2019-07-25T13:14:02Z</time>
</trkpt>
<trkpt lat="44.8957340" lon="5.3695901">
<ele>1052.49</ele>
<time>2019-07-25T13:14:03Z</time>
</trkpt>
<trkpt lat="44.8957344" lon="5.3695909">
<ele>1052.49</ele>
<time>2019-07-25T13:14:04Z</time>
</trkpt>
<trkpt lat="44.8957344" lon="5.3695913">
<ele>1052.50</ele>
<time>2019-07-25T13:14:05Z</time>
</trkpt>
<trkpt lat="44.8957348" lon="5.3695920">
<ele>1052.50</ele>
<time>2019-07-25T13:14:06Z</time>
</trkpt>
<trkpt lat="44.8957344" lon="5.3695919">
<ele>1052.50</ele>
<time>2019-07-25T13:14:07Z</time>
</trkpt>
<trkpt lat="44.8957321" lon="5.3695895">
<ele>1052.51</ele>
<time>2019-07-25T13:14:08Z</time>
</trkpt>
<trkpt lat="44.8957294" lon="5.3695889">
<ele>1052.51</ele>
<time>2019-07-25T13:14:09Z</time>
</trkpt>
<trkpt lat="44.8957354" lon="5.3695921">
<ele>1052.52</ele>
<time>2019-07-25T13:14:10Z</time>
</trkpt>
<trkpt lat="44.8957339" lon="5.3695921">
<ele>1052.52</ele>
<time>2019-07-25T13:14:11Z</time>
</trkpt>
<trkpt lat="44.8957335" lon="5.3695919">
<ele>1052.52</ele>
<time>2019-07-25T13:14:12Z</time>
</trkpt>
<trkpt lat="44.8957333" lon="5.3695918">
<ele>1052.53</ele>
<time>2019-07-25T13:14:13Z</time>
</trkpt>
<trkpt lat="44.8957312" lon="5.3695911">
<ele>1052.53</ele>
<time>2019-07-25T13:14:14Z</time>
</trkpt>
<trkpt lat="44.8957313" lon="5.3695914">
<ele>1052.54</ele>
<time>2019-07-25T13:14:15Z</time>
</trkpt>
<trkpt lat="44.8957313" lon="5.3695914">
<ele>1052.54</ele>
<time>2019-07-25T13:14:16Z</time>
</trkpt>
<trkpt lat="44.8957312" lon="5.3695912">
<ele>1052.54</ele>
<time>2019-07-25T13:14:17Z</time>
</trkpt>
<trkpt lat="44.8957307" lon="5.3695908">
<ele>1052.55</ele>
<time>2019-07-25T13:14:18Z</time>
</trkpt>
<trkpt lat="44.8957307" lon="5.3695905">
<ele>1052.55</ele>
<time>2019-07-25T13:14:19Z</time>
</trkpt>
<trkpt lat="44.8957308" lon="5.3695903">
<ele>1052.56</ele>
<time>2019-07-25T13:14:20Z</time>
</trkpt>
<trkpt lat="44.8957313" lon="5.3695903">
<ele>1052.56</ele>
<time>2019-07-25T13:14:21Z</time>
</trkpt>
<trkpt lat="44.8957318" lon="5.3695900">
<ele>1052.56</ele>
<time>2019-07-25T13:14:22Z</time>
</trkpt>
<trkpt lat="44.8957320" lon="5.3695900">
<ele>1052.57</ele>
<time>2019-07-25T13:14:23Z</time>
</trkpt>
<trkpt lat="44.8957319" lon="5.3695898">
<ele>1052.57</ele>
<time>2019-07-25T13:14:24Z</time>
</trkpt>
<trkpt lat="44.8957317" lon="5.3695894">
<ele>1052.58</ele>
<time>2019-07-25T13:14:25Z</time>
</trkpt>
<trkpt lat="44.8957318" lon="5.3695895">
<ele>1052.58</ele>
<time>2019-07-25T13:14:26Z</time>
</trkpt>
<trkpt lat="44.8957321" lon="5.3695896">
<ele>1052.58</ele>
<time>2019-07-25T13:14:27Z</time>
</trkpt>
<trkpt lat="44.8957322" lon="5.3695895">
<ele>1052.59</ele>
<time>2019-07-25T13:14:28Z</time>
</trkpt>
<trkpt lat="44.8957324" lon="5.3695895">
<ele>1052.59</ele>
<time>2019-07-25T13:14:29Z</time>
</trkpt>
<trkpt lat="44.8957326" lon="5.3695894">
<ele>1052.60</ele>
<time>2019-07-25T13:14:30Z</time>
</trkpt>
<trkpt lat="44.8957331" lon="5.3695893">
<ele>1052.60</ele>
<time>2019-07-25T13:14:31Z</time>
</trkpt>
<trkpt lat="44.8957331" lon="5.3695892">
<ele>1052.60</ele>
<time>2019-07-25T13:14:32Z</time>
</trkpt>
<trkpt lat="44.8957332" lon="5.3695892">
<ele>1052.61</ele>
<time>2019-07-25T13:14:33Z</time>
</trkpt>
<trkpt lat="44.8957328" lon="5.3695889">
<ele>1052.61</ele>
<time>2019-07-25T13:14:34Z</time>
</trkpt>
<trkpt lat="44.8957327" lon="5.3695890">
<ele>1052.62</ele>
<time>2019-07-25T13:14:35Z</time>
</trkpt>
<trkpt lat="44.8957328" lon="5.3695891">
<ele>1052.62</ele>
<time>2019-07-25T13:14:36Z</time>
</trkpt>
<trkpt lat="44.8957331" lon="5.3695893">
<ele>1052.62</ele>
<time>2019-07-25T13:14:37Z</time>
</trkpt>
<trkpt lat="44.8957334" lon="5.3695895">
<ele>1052.63</ele>
<time>2019-07-25T13:14:38Z</time>
</trkpt>
<trkpt lat="44.8957333" lon="5.3695895">
<ele>1052.63</ele>
<time>2019-07-25T13:14:39Z</time>
</trkpt>
<trkpt lat="44.8957335" lon="5.3695894">
<ele>1052.64</ele>
<time>2019-07-25T13:14:40Z</time>
</trkpt>
<trkpt lat="44.8957343" lon="5.3695895">
<ele>1052.64</ele>
<time>2019-07-25T13:14:41Z</time>
</trkpt>
<trkpt lat="44.8957345" lon="5.3695895">
<ele>1052.64</ele>
<time>2019-07-25T13:14:42Z</time>
</trkpt>
<trkpt lat="44.8957290" lon="5.3695864">
<ele>1052.65</ele>
<time>2019-07-25T13:14:43Z</time>
</trkpt>
<trkpt lat="44.8957266" lon="5.3695852">
<ele>1052.65</ele>
<time>2019-07-25T13:14:44Z</time>
</trkpt>
<trkpt lat="44.8957207" lon="5.3695820">
<ele>1052.65</ele>
<time>2019-07-25T13:14:45Z</time>
</trkpt>
<trkpt lat="44.8957205" lon="5.3695818">
<ele>1052.66</ele>
<time>2019-07-25T13:14:46Z</time>
</trkpt>
<trkpt lat="44.8957208" lon="5.3695819">
<ele>1052.66</ele>
<time>2019-07-25T13:14:47Z</time>
</trkpt>
<trkpt lat="44.8957208" lon="5.3695819">
<ele>1052.66</ele>
<time>2019-07-25T13:14:48Z</time>
</trkpt>
<trkpt lat="44.8957208" lon="5.3695819">
<ele>1052.67</ele>
<time>2019-07-25T13:14:49Z</time>
</trkpt>
<trkpt lat="44.8957205" lon="5.3695817">
<ele>1052.67</ele>
<time>2019-07-25T13:14:50Z</time>
</trkpt>
<trkpt lat="44.8957202" lon="5.3695816">
<ele>1052.67</ele>
<time>2019-07-25T13:14:51Z</time>
</trkpt>
<trkpt lat="44.8957198" lon="5.3695815">
<ele>1052.68</ele>
<time>2019-07-25T13:14:52Z</time>
</trkpt>
<trkpt lat="44.8957196" lon="5.3695814">
<ele>1052.68</ele>
<time>2019-07-25T13:14:53Z</time>
</trkpt>
<trkpt lat="44.8957196" lon="5.3695813">
<ele>1052.68</ele>
<time>2019-07-25T13:14:54Z</time>
</trkpt>
<trkpt lat="44.8957189" lon="5.3695811">
<ele>1052.69</ele>
<time>2019-07-25T13:14:55Z</time>
</trkpt>
<trkpt lat="44.8957184" lon="5.3695809">
<ele>1052.69</ele>
<time>2019-07-25T13:14:56Z</time>
</trkpt>
<trkpt lat="44.8957184" lon="5.3695809">
<ele>1052.69</ele>
<time>2019-07-25T13:14:57Z</time>
</trkpt>
<trkpt lat="44.8957180" lon="5.3695809">
<ele>1052.69</ele>
<time>2019-07-25T13:14:58Z</time>
</trkpt>
<trkpt lat="44.8957178" lon="5.3695809">
<ele>1052.70</ele>
<time>2019-07-25T13:14:59Z</time>
</trkpt>
<trkpt lat="44.8957174" lon="5.3695809">
<ele>1052.70</ele>
<time>2019-07-25T13:15:00Z</time>
</trkpt>
<trkpt lat="44.8957172" lon="5.3695808">
<ele>1052.70</ele>
<time>2019-07-25T13:15:01Z</time>
</trkpt>
<trkpt lat="44.8957165" lon="5.3695804">
<ele>1052.71</ele>
<time>2019-07-25T13:15:02Z</time>
</trkpt>
<trkpt lat="44.8957164" lon="5.3695804">
<ele>1052.71</ele>
<time>2019-07-25T13:15:03Z</time>
</trkpt>
<trkpt lat="44.8957162" lon="5.3695808">
<ele>1052.71</ele>
<time>2019-07-25T13:15:04Z</time>
</trkpt>
<trkpt lat="44.8957162" lon="5.3695810">
<ele>1052.71</ele>
<time>2019-07-25T13:15:05Z</time>
</trkpt>
<trkpt lat="44.8957162" lon="5.3695812">
<ele>1052.72</ele>
<time>2019-07-25T13:15:06Z</time>
</trkpt>
<trkpt lat="44.8957161" lon="5.3695812">
<ele>1052.72</ele>
<time>2019-07-25T13:15:07Z</time>
</trkpt>
<trkpt lat="44.8957156" lon="5.3695813">
<ele>1052.72</ele>
<time>2019-07-25T13:15:08Z</time>
</trkpt>
<trkpt lat="44.8957157" lon="5.3695816">
<ele>1052.72</ele>
<time>2019-07-25T13:15:09Z</time>
</trkpt>
<trkpt lat="44.8957144" lon="5.3695808">
<ele>1052.73</ele>
<time>2019-07-25T13:15:10Z</time>
</trkpt>
<trkpt lat="44.8957119" lon="5.3695801">
<ele>1052.75</ele>
<time>2019-07-25T13:15:11Z</time>
</trkpt>
<trkpt lat="44.8957063" lon="5.3695750">
<ele>1052.77</ele>
<time>2019-07-25T13:15:12Z</time>
</trkpt>
<trkpt lat="44.8957055" lon="5.3695750">
<ele>1052.78</ele>
<time>2019-07-25T13:15:13Z</time>
</trkpt>
<trkpt lat="44.8957056" lon="5.3695751">
<ele>1052.78</ele>
<time>2019-07-25T13:15:14Z</time>
</trkpt>
<trkpt lat="44.8957059" lon="5.3695757">
<ele>1052.78</ele>
<time>2019-07-25T13:15:15Z</time>
</trkpt>
<trkpt lat="44.8957064" lon="5.3695758">
<ele>1052.78</ele>
<time>2019-07-25T13:15:16Z</time>
</trkpt>
<trkpt lat="44.8957077" lon="5.3695772">
<ele>1052.79</ele>
<time>2019-07-25T13:15:17Z</time>
</trkpt>
<trkpt lat="44.8957079" lon="5.3695775">
<ele>1052.79</ele>
<time>2019-07-25T13:15:18Z</time>
</trkpt>
<trkpt lat="44.8957081" lon="5.3695775">
<ele>1052.79</ele>
<time>2019-07-25T13:15:19Z</time>
</trkpt>
<trkpt lat="44.8957088" lon="5.3695779">
<ele>1052.79</ele>
<time>2019-07-25T13:15:20Z</time>
</trkpt>
<trkpt lat="44.8957091" lon="5.3695780">
<ele>1052.79</ele>
<time>2019-07-25T13:15:21Z</time>
</trkpt>
<trkpt lat="44.8957091" lon="5.3695781">
<ele>1052.79</ele>
<time>2019-07-25T13:15:22Z</time>
</trkpt>
<trkpt lat="44.8957096" lon="5.3695783">
<ele>1052.79</ele>
<time>2019-07-25T13:15:23Z</time>
</trkpt>
<trkpt lat="44.8957100" lon="5.3695789">
<ele>1052.80</ele>
<time>2019-07-25T13:15:24Z</time>
</trkpt>
<trkpt lat="44.8957099" lon="5.3695793">
<ele>1052.80</ele>
<time>2019-07-25T13:15:25Z</time>
</trkpt>
<trkpt lat="44.8957099" lon="5.3695796">
<ele>1052.80</ele>
<time>2019-07-25T13:15:26Z</time>
</trkpt>
<trkpt lat="44.8957098" lon="5.3695796">
<ele>1052.80</ele>
<time>2019-07-25T13:15:27Z</time>
</trkpt>
<trkpt lat="44.8957099" lon="5.3695799">
<ele>1052.80</ele>
<time>2019-07-25T13:15:28Z</time>
</trkpt>
<trkpt lat="44.8957101" lon="5.3695801">
<ele>1052.80</ele>
<time>2019-07-25T13:15:29Z</time>
</trkpt>
<trkpt lat="44.8957100" lon="5.3695801">
<ele>1052.80</ele>
<time>2019-07-25T13:15:30Z</time>
</trkpt>
<trkpt lat="44.8957100" lon="5.3695802">
<ele>1052.80</ele>
<time>2019-07-25T13:15:31Z</time>
</trkpt>
<trkpt lat="44.8957099" lon="5.3695802">
<ele>1052.80</ele>
<time>2019-07-25T13:15:32Z</time>
</trkpt>
<trkpt lat="44.8957101" lon="5.3695804">
<ele>1052.80</ele>
<time>2019-07-25T13:15:33Z</time>
</trkpt>
<trkpt lat="44.8957103" lon="5.3695809">
<ele>1052.80</ele>
<time>2019-07-25T13:15:34Z</time>
</trkpt>
<trkpt lat="44.8957106" lon="5.3695812">
<ele>1052.81</ele>
<time>2019-07-25T13:15:35Z</time>
</trkpt>
<trkpt lat="44.8957103" lon="5.3695812">
<ele>1052.81</ele>
<time>2019-07-25T13:15:36Z</time>
</trkpt>
<trkpt lat="44.8957103" lon="5.3695814">
<ele>1052.81</ele>
<time>2019-07-25T13:15:37Z</time>
</trkpt>
<trkpt lat="44.8957104" lon="5.3695814">
<ele>1052.81</ele>
<time>2019-07-25T13:15:38Z</time>
</trkpt>
<trkpt lat="44.8957147" lon="5.3695857">
<ele>1052.81</ele>
<time>2019-07-25T13:15:39Z</time>
</trkpt>
<trkpt lat="44.8957157" lon="5.3695868">
<ele>1052.81</ele>
<time>2019-07-25T13:15:40Z</time>
</trkpt>
<trkpt lat="44.8957182" lon="5.3695884">
<ele>1052.81</ele>
<time>2019-07-25T13:15:41Z</time>
</trkpt>
<trkpt lat="44.8957179" lon="5.3695893">
<ele>1052.81</ele>
<time>2019-07-25T13:15:42Z</time>
</trkpt>
<trkpt lat="44.8957183" lon="5.3695894">
<ele>1052.81</ele>
<time>2019-07-25T13:15:43Z</time>
</trkpt>
<trkpt lat="44.8957180" lon="5.3695894">
<ele>1052.80</ele>
<time>2019-07-25T13:15:44Z</time>
</trkpt>
<trkpt lat="44.8957179" lon="5.3695898">
<ele>1052.80</ele>
<time>2019-07-25T13:15:45Z</time>
</trkpt>
<trkpt lat="44.8957180" lon="5.3695898">
<ele>1052.80</ele>
<time>2019-07-25T13:15:46Z</time>
</trkpt>
<trkpt lat="44.8957178" lon="5.3695893">
<ele>1052.80</ele>
<time>2019-07-25T13:15:47Z</time>
</trkpt>
<trkpt lat="44.8957179" lon="5.3695894">
<ele>1052.80</ele>
<time>2019-07-25T13:15:48Z</time>
</trkpt>
<trkpt lat="44.8957178" lon="5.3695892">
<ele>1052.80</ele>
<time>2019-07-25T13:15:49Z</time>
</trkpt>
<trkpt lat="44.8957181" lon="5.3695892">
<ele>1052.80</ele>
<time>2019-07-25T13:15:50Z</time>
</trkpt>
<trkpt lat="44.8957180" lon="5.3695890">
<ele>1052.80</ele>
<time>2019-07-25T13:15:51Z</time>
</trkpt>
<trkpt lat="44.8957185" lon="5.3695893">
<ele>1052.80</ele>
<time>2019-07-25T13:15:52Z</time>
</trkpt>
<trkpt lat="44.8957188" lon="5.3695888">
<ele>1052.80</ele>
<time>2019-07-25T13:15:53Z</time>
</trkpt>
<trkpt lat="44.8957188" lon="5.3695890">
<ele>1052.80</ele>
<time>2019-07-25T13:15:54Z</time>
</trkpt>
<trkpt lat="44.8957188" lon="5.3695891">
<ele>1052.79</ele>
<time>2019-07-25T13:15:55Z</time>
</trkpt>
<trkpt lat="44.8957188" lon="5.3695892">
<ele>1052.79</ele>
<time>2019-07-25T13:15:56Z</time>
</trkpt>
<trkpt lat="44.8957186" lon="5.3695892">
<ele>1052.79</ele>
<time>2019-07-25T13:15:57Z</time>
</trkpt>
<trkpt lat="44.8957182" lon="5.3695888">
<ele>1052.79</ele>
<time>2019-07-25T13:15:58Z</time>
</trkpt>
<trkpt lat="44.8957185" lon="5.3695890">
<ele>1052.79</ele>
<time>2019-07-25T13:15:59Z</time>
</trkpt>
<trkpt lat="44.8957185" lon="5.3695889">
<ele>1052.79</ele>
<time>2019-07-25T13:16:00Z</time>
</trkpt>
<trkpt lat="44.8957184" lon="5.3695888">
<ele>1052.78</ele>
<time>2019-07-25T13:16:01Z</time>
</trkpt>
<trkpt lat="44.8957185" lon="5.3695886">
<ele>1052.78</ele>
<time>2019-07-25T13:16:02Z</time>
</trkpt>
<trkpt lat="44.8957185" lon="5.3695884">
<ele>1052.78</ele>
<time>2019-07-25T13:16:03Z</time>
</trkpt>
<trkpt lat="44.8957183" lon="5.3695883">
<ele>1052.78</ele>
<time>2019-07-25T13:16:04Z</time>
</trkpt>
<trkpt lat="44.8957182" lon="5.3695883">
<ele>1052.77</ele>
<time>2019-07-25T13:16:05Z</time>
</trkpt>
<trkpt lat="44.8957180" lon="5.3695882">
<ele>1052.77</ele>
<time>2019-07-25T13:16:06Z</time>
</trkpt>
<trkpt lat="44.8957180" lon="5.3695881">
<ele>1052.77</ele>
<time>2019-07-25T13:16:07Z</time>
</trkpt>
<trkpt lat="44.8957181" lon="5.3695881">
<ele>1052.77</ele>
<time>2019-07-25T13:16:08Z</time>
</trkpt>
<trkpt lat="44.8957182" lon="5.3695879">
<ele>1052.76</ele>
<time>2019-07-25T13:16:09Z</time>
</trkpt>
<trkpt lat="44.8957185" lon="5.3695882">
<ele>1052.76</ele>
<time>2019-07-25T13:16:10Z</time>
</trkpt>
<trkpt lat="44.8957184" lon="5.3695877">
<ele>1052.76</ele>
<time>2019-07-25T13:16:11Z</time>
</trkpt>
<trkpt lat="44.8957187" lon="5.3695876">
<ele>1052.75</ele>
<time>2019-07-25T13:16:12Z</time>
</trkpt>
<trkpt lat="44.8957188" lon="5.3695876">
<ele>1052.75</ele>
<time>2019-07-25T13:16:13Z</time>
</trkpt>
<trkpt lat="44.8957187" lon="5.3695873">
<ele>1052.75</ele>
<time>2019-07-25T13:16:14Z</time>
</trkpt>
<trkpt lat="44.8957189" lon="5.3695875">
<ele>1052.74</ele>
<time>2019-07-25T13:16:15Z</time>
</trkpt>
<trkpt lat="44.8957179" lon="5.3695862">
<ele>1052.74</ele>
<time>2019-07-25T13:16:16Z</time>
</trkpt>
<trkpt lat="44.8957180" lon="5.3695860">
<ele>1052.74</ele>
<time>2019-07-25T13:16:17Z</time>
</trkpt>
<trkpt lat="44.8957183" lon="5.3695860">
<ele>1052.73</ele>
<time>2019-07-25T13:16:18Z</time>
</trkpt>
<trkpt lat="44.8957184" lon="5.3695862">
<ele>1052.73</ele>
<time>2019-07-25T13:16:19Z</time>
</trkpt>
<trkpt lat="44.8957184" lon="5.3695865">
<ele>1052.72</ele>
<time>2019-07-25T13:16:20Z</time>
</trkpt>
<trkpt lat="44.8957183" lon="5.3695866">
<ele>1052.72</ele>
<time>2019-07-25T13:16:21Z</time>
</trkpt>
<trkpt lat="44.8957182" lon="5.3695867">
<ele>1052.72</ele>
<time>2019-07-25T13:16:22Z</time>
</trkpt>
<trkpt lat="44.8957182" lon="5.3695866">
<ele>1052.71</ele>
<time>2019-07-25T13:16:23Z</time>
</trkpt>
<trkpt lat="44.8957179" lon="5.3695868">
<ele>1052.71</ele>
<time>2019-07-25T13:16:24Z</time>
</trkpt>
<trkpt lat="44.8957179" lon="5.3695866">
<ele>1052.71</ele>
<time>2019-07-25T13:16:25Z</time>
</trkpt>
<trkpt lat="44.8957181" lon="5.3695869">
<ele>1052.70</ele>
<time>2019-07-25T13:16:26Z</time>
</trkpt>
<trkpt lat="44.8957183" lon="5.3695871">
<ele>1052.70</ele>
<time>2019-07-25T13:16:27Z</time>
</trkpt>
<trkpt lat="44.8957186" lon="5.3695874">
<ele>1052.69</ele>
<time>2019-07-25T13:16:28Z</time>
</trkpt>
<trkpt lat="44.8957188" lon="5.3695874">
<ele>1052.69</ele>
<time>2019-07-25T13:16:29Z</time>
</trkpt>
<trkpt lat="44.8957188" lon="5.3695876">
<ele>1052.69</ele>
<time>2019-07-25T13:16:30Z</time>
</trkpt>
<trkpt lat="44.8957190" lon="5.3695878">
<ele>1052.68</ele>
<time>2019-07-25T13:16:31Z</time>
</trkpt>
<trkpt lat="44.8957191" lon="5.3695882">
<ele>1052.68</ele>
<time>2019-07-25T13:16:32Z</time>
</trkpt>
<trkpt lat="44.8957190" lon="5.3695881">
<ele>1052.67</ele>
<time>2019-07-25T13:16:33Z</time>
</trkpt>
<trkpt lat="44.8957206" lon="5.3695899">
<ele>1052.67</ele>
<time>2019-07-25T13:16:34Z</time>
</trkpt>
<trkpt lat="44.8957207" lon="5.3695894">
<ele>1052.67</ele>
<time>2019-07-25T13:16:35Z</time>
</trkpt>
<trkpt lat="44.8957207" lon="5.3695894">
<ele>1052.66</ele>
<time>2019-07-25T13:16:36Z</time>
</trkpt>
<trkpt lat="44.8957210" lon="5.3695895">
<ele>1052.66</ele>
<time>2019-07-25T13:16:37Z</time>
</trkpt>
<trkpt lat="44.8957214" lon="5.3695897">
<ele>1052.65</ele>
<time>2019-07-25T13:16:38Z</time>
</trkpt>
<trkpt lat="44.8957215" lon="5.3695895">
<ele>1052.65</ele>
<time>2019-07-25T13:16:39Z</time>
</trkpt>
<trkpt lat="44.8957221" lon="5.3695898">
<ele>1052.65</ele>
<time>2019-07-25T13:16:40Z</time>
</trkpt>
<trkpt lat="44.8957223" lon="5.3695895">
<ele>1052.64</ele>
<time>2019-07-25T13:16:41Z</time>
</trkpt>
<trkpt lat="44.8957223" lon="5.3695891">
<ele>1052.64</ele>
<time>2019-07-25T13:16:42Z</time>
</trkpt>
<trkpt lat="44.8957224" lon="5.3695888">
<ele>1052.64</ele>
<time>2019-07-25T13:16:43Z</time>
</trkpt>
<trkpt lat="44.8957227" lon="5.3695887">
<ele>1052.63</ele>
<time>2019-07-25T13:16:44Z</time>
</trkpt>
<trkpt lat="44.8957230" lon="5.3695882">
<ele>1052.63</ele>
<time>2019-07-25T13:16:45Z</time>
</trkpt>
<trkpt lat="44.8957231" lon="5.3695881">
<ele>1052.63</ele>
<time>2019-07-25T13:16:46Z</time>
</trkpt>
<trkpt lat="44.8957231" lon="5.3695878">
<ele>1052.62</ele>
<time>2019-07-25T13:16:47Z</time>
</trkpt>
<trkpt lat="44.8957232" lon="5.3695872">
<ele>1052.62</ele>
<time>2019-07-25T13:16:48Z</time>
</trkpt>
<trkpt lat="44.8957239" lon="5.3695873">
<ele>1052.62</ele>
<time>2019-07-25T13:16:49Z</time>
</trkpt>
<trkpt lat="44.8957240" lon="5.3695866">
<ele>1052.61</ele>
<time>2019-07-25T13:16:50Z</time>
</trkpt>
<trkpt lat="44.8957242" lon="5.3695864">
<ele>1052.61</ele>
<time>2019-07-25T13:16:51Z</time>
</trkpt>
<trkpt lat="44.8957244" lon="5.3695861">
<ele>1052.61</ele>
<time>2019-07-25T13:16:52Z</time>
</trkpt>
<trkpt lat="44.8957249" lon="5.3695858">
<ele>1052.61</ele>
<time>2019-07-25T13:16:53Z</time>
</trkpt>
<trkpt lat="44.8957252" lon="5.3695851">
<ele>1052.60</ele>
<time>2019-07-25T13:16:54Z</time>
</trkpt>
<trkpt lat="44.8957252" lon="5.3695846">
<ele>1052.60</ele>
<time>2019-07-25T13:16:55Z</time>
</trkpt>
<trkpt lat="44.8957251" lon="5.3695842">
<ele>1052.60</ele>
<time>2019-07-25T13:16:56Z</time>
</trkpt>
<trkpt lat="44.8957253" lon="5.3695842">
<ele>1052.59</ele>
<time>2019-07-25T13:16:57Z</time>
</trkpt>
<trkpt lat="44.8957255" lon="5.3695841">
<ele>1052.59</ele>
<time>2019-07-25T13:16:58Z</time>
</trkpt>
<trkpt lat="44.8957255" lon="5.3695833">
<ele>1052.59</ele>
<time>2019-07-25T13:16:59Z</time>
</trkpt>
<trkpt lat="44.8957259" lon="5.3695832">
<ele>1052.59</ele>
<time>2019-07-25T13:17:00Z</time>
</trkpt>
<trkpt lat="44.8957260" lon="5.3695829">
<ele>1052.58</ele>
<time>2019-07-25T13:17:01Z</time>
</trkpt>
<trkpt lat="44.8957260" lon="5.3695826">
<ele>1052.58</ele>
<time>2019-07-25T13:17:02Z</time>
</trkpt>
<trkpt lat="44.8957257" lon="5.3695821">
<ele>1052.58</ele>
<time>2019-07-25T13:17:03Z</time>
</trkpt>
<trkpt lat="44.8957255" lon="5.3695815">
<ele>1052.58</ele>
<time>2019-07-25T13:17:04Z</time>
</trkpt>
<trkpt lat="44.8957257" lon="5.3695804">
<ele>1052.57</ele>
<time>2019-07-25T13:17:05Z</time>
</trkpt>
<trkpt lat="44.8957258" lon="5.3695805">
<ele>1052.57</ele>
<time>2019-07-25T13:17:06Z</time>
</trkpt>
<trkpt lat="44.8957257" lon="5.3695795">
<ele>1052.57</ele>
<time>2019-07-25T13:17:07Z</time>
</trkpt>
<trkpt lat="44.8957258" lon="5.3695795">
<ele>1052.57</ele>
<time>2019-07-25T13:17:08Z</time>
</trkpt>
<trkpt lat="44.8957260" lon="5.3695794">
<ele>1052.57</ele>
<time>2019-07-25T13:17:09Z</time>
</trkpt>
<trkpt lat="44.8957259" lon="5.3695789">
<ele>1052.56</ele>
<time>2019-07-25T13:17:10Z</time>
</trkpt>
<trkpt lat="44.8957263" lon="5.3695791">
<ele>1052.56</ele>
<time>2019-07-25T13:17:11Z</time>
</trkpt>
<trkpt lat="44.8957264" lon="5.3695790">
<ele>1052.56</ele>
<time>2019-07-25T13:17:12Z</time>
</trkpt>
<trkpt lat="44.8957256" lon="5.3695785">
<ele>1052.56</ele>
<time>2019-07-25T13:17:13Z</time>
</trkpt>
<trkpt lat="44.8957253" lon="5.3695785">
<ele>1052.55</ele>
<time>2019-07-25T13:17:14Z</time>
</trkpt>
<trkpt lat="44.8957252" lon="5.3695786">
<ele>1052.55</ele>
<time>2019-07-25T13:17:15Z</time>
</trkpt>
<trkpt lat="44.8957249" lon="5.3695782">
<ele>1052.55</ele>
<time>2019-07-25T13:17:16Z</time>
</trkpt>
<trkpt lat="44.8957249" lon="5.3695781">
<ele>1052.55</ele>
<time>2019-07-25T13:17:17Z</time>
</trkpt>
<trkpt lat="44.8957249" lon="5.3695782">
<ele>1052.55</ele>
<time>2019-07-25T13:17:18Z</time>
</trkpt>
<trkpt lat="44.8957243" lon="5.3695775">
<ele>1052.54</ele>
<time>2019-07-25T13:17:19Z</time>
</trkpt>
<trkpt lat="44.8957241" lon="5.3695773">
<ele>1052.54</ele>
<time>2019-07-25T13:17:20Z</time>
</trkpt>
<trkpt lat="44.8957241" lon="5.3695773">
<ele>1052.54</ele>
<time>2019-07-25T13:17:21Z</time>
</trkpt>
<trkpt lat="44.8957230" lon="5.3695769">
<ele>1052.54</ele>
<time>2019-07-25T13:17:22Z</time>
</trkpt>
<trkpt lat="44.8957221" lon="5.3695761">
<ele>1052.53</ele>
<time>2019-07-25T13:17:23Z</time>
</trkpt>
<trkpt lat="44.8957216" lon="5.3695755">
<ele>1052.53</ele>
<time>2019-07-25T13:17:24Z</time>
</trkpt>
<trkpt lat="44.8957213" lon="5.3695756">
<ele>1052.53</ele>
<time>2019-07-25T13:17:25Z</time>
</trkpt>
<trkpt lat="44.8957212" lon="5.3695755">
<ele>1052.53</ele>
<time>2019-07-25T13:17:26Z</time>
</trkpt>
<trkpt lat="44.8957205" lon="5.3695749">
<ele>1052.52</ele>
<time>2019-07-25T13:17:27Z</time>
</trkpt>
<trkpt lat="44.8957204" lon="5.3695747">
<ele>1052.52</ele>
<time>2019-07-25T13:17:28Z</time>
</trkpt>
<trkpt lat="44.8957204" lon="5.3695748">
<ele>1052.52</ele>
<time>2019-07-25T13:17:29Z</time>
</trkpt>
<trkpt lat="44.8957200" lon="5.3695746">
<ele>1052.52</ele>
<time>2019-07-25T13:17:30Z</time>
</trkpt>
<trkpt lat="44.8957197" lon="5.3695746">
<ele>1052.51</ele>
<time>2019-07-25T13:17:31Z</time>
</trkpt>
<trkpt lat="44.8957194" lon="5.3695747">
<ele>1052.51</ele>
<time>2019-07-25T13:17:32Z</time>
</trkpt>
<trkpt lat="44.8957193" lon="5.3695747">
<ele>1052.51</ele>
<time>2019-07-25T13:17:33Z</time>
</trkpt>
<trkpt lat="44.8957191" lon="5.3695747">
<ele>1052.51</ele>
<time>2019-07-25T13:17:34Z</time>
</trkpt>
<trkpt lat="44.8957185" lon="5.3695743">
<ele>1052.50</ele>
<time>2019-07-25T13:17:35Z</time>
</trkpt>
<trkpt lat="44.8957182" lon="5.3695739">
<ele>1052.50</ele>
<time>2019-07-25T13:17:36Z</time>
</trkpt>
<trkpt lat="44.8957182" lon="5.3695740">
<ele>1052.50</ele>
<time>2019-07-25T13:17:37Z</time>
</trkpt>
<trkpt lat="44.8957178" lon="5.3695742">
<ele>1052.49</ele>
<time>2019-07-25T13:17:38Z</time>
</trkpt>
<trkpt lat="44.8957172" lon="5.3695738">
<ele>1052.49</ele>
<time>2019-07-25T13:17:39Z</time>
</trkpt>
<trkpt lat="44.8957175" lon="5.3695740">
<ele>1052.49</ele>
<time>2019-07-25T13:17:40Z</time>
</trkpt>
<trkpt lat="44.8957171" lon="5.3695739">
<ele>1052.49</ele>
<time>2019-07-25T13:17:41Z</time>
</trkpt>
<trkpt lat="44.8957170" lon="5.3695738">
<ele>1052.48</ele>
<time>2019-07-25T13:17:42Z</time>
</trkpt>
<trkpt lat="44.8957169" lon="5.3695740">
<ele>1052.48</ele>
<time>2019-07-25T13:17:43Z</time>
</trkpt>
<trkpt lat="44.8957165" lon="5.3695739">
<ele>1052.48</ele>
<time>2019-07-25T13:17:44Z</time>
</trkpt>
<trkpt lat="44.8957160" lon="5.3695744">
<ele>1052.47</ele>
<time>2019-07-25T13:17:45Z</time>
</trkpt>
<trkpt lat="44.8957155" lon="5.3695750">
<ele>1052.47</ele>
<time>2019-07-25T13:17:46Z</time>
</trkpt>
<trkpt lat="44.8957148" lon="5.3695748">
<ele>1052.47</ele>
<time>2019-07-25T13:17:47Z</time>
</trkpt>
<trkpt lat="44.8957144" lon="5.3695750">
<ele>1052.46</ele>
<time>2019-07-25T13:17:48Z</time>
</trkpt>
<trkpt lat="44.8957142" lon="5.3695752">
<ele>1052.46</ele>
<time>2019-07-25T13:17:49Z</time>
</trkpt>
<trkpt lat="44.8957138" lon="5.3695761">
<ele>1052.46</ele>
<time>2019-07-25T13:17:50Z</time>
</trkpt>
<trkpt lat="44.8957102" lon="5.3695770">
<ele>1052.45</ele>
<time>2019-07-25T13:17:51Z</time>
</trkpt>
<trkpt lat="44.8957073" lon="5.3695791">
<ele>1052.45</ele>
<time>2019-07-25T13:17:52Z</time>
</trkpt>
<trkpt lat="44.8957073" lon="5.3695827">
<ele>1052.42</ele>
<time>2019-07-25T13:17:53Z</time>
</trkpt>
<trkpt lat="44.8957078" lon="5.3695839">
<ele>1052.42</ele>
<time>2019-07-25T13:17:54Z</time>
</trkpt>
<trkpt lat="44.8957075" lon="5.3695840">
<ele>1052.41</ele>
<time>2019-07-25T13:17:55Z</time>
</trkpt>
<trkpt lat="44.8957073" lon="5.3695841">
<ele>1052.41</ele>
<time>2019-07-25T13:17:56Z</time>
</trkpt>
<trkpt lat="44.8957070" lon="5.3695843">
<ele>1052.41</ele>
<time>2019-07-25T13:17:57Z</time>
</trkpt>
<trkpt lat="44.8957067" lon="5.3695843">
<ele>1052.40</ele>
<time>2019-07-25T13:17:58Z</time>
</trkpt>
<trkpt lat="44.8957063" lon="5.3695842">
<ele>1052.40</ele>
<time>2019-07-25T13:17:59Z</time>
</trkpt>
<trkpt lat="44.8957059" lon="5.3695844">
<ele>1052.39</ele>
<time>2019-07-25T13:18:00Z</time>
</trkpt>
<trkpt lat="44.8957055" lon="5.3695847">
<ele>1052.39</ele>
<time>2019-07-25T13:18:01Z</time>
</trkpt>
<trkpt lat="44.8957054" lon="5.3695850">
<ele>1052.39</ele>
<time>2019-07-25T13:18:02Z</time>
</trkpt>
<trkpt lat="44.8957051" lon="5.3695855">
<ele>1052.38</ele>
<time>2019-07-25T13:18:03Z</time>
</trkpt>
<trkpt lat="44.8957050" lon="5.3695854">
<ele>1052.38</ele>
<time>2019-07-25T13:18:04Z</time>
</trkpt>
<trkpt lat="44.8957051" lon="5.3695859">
<ele>1052.37</ele>
<time>2019-07-25T13:18:05Z</time>
</trkpt>
<trkpt lat="44.8957050" lon="5.3695860">
<ele>1052.37</ele>
<time>2019-07-25T13:18:06Z</time>
</trkpt>
<trkpt lat="44.8957047" lon="5.3695861">
<ele>1052.37</ele>
<time>2019-07-25T13:18:07Z</time>
</trkpt>
<trkpt lat="44.8957044" lon="5.3695869">
<ele>1052.36</ele>
<time>2019-07-25T13:18:08Z</time>
</trkpt>
<trkpt lat="44.8957042" lon="5.3695876">
<ele>1052.36</ele>
<time>2019-07-25T13:18:09Z</time>
</trkpt>
<trkpt lat="44.8957039" lon="5.3695878">
<ele>1052.35</ele>
<time>2019-07-25T13:18:10Z</time>
</trkpt>
<trkpt lat="44.8957038" lon="5.3695879">
<ele>1052.35</ele>
<time>2019-07-25T13:18:11Z</time>
</trkpt>
<trkpt lat="44.8957036" lon="5.3695883">
<ele>1052.34</ele>
<time>2019-07-25T13:18:12Z</time>
</trkpt>
<trkpt lat="44.8957032" lon="5.3695885">
<ele>1052.34</ele>
<time>2019-07-25T13:18:13Z</time>
</trkpt>
<trkpt lat="44.8957031" lon="5.3695887">
<ele>1052.34</ele>
<time>2019-07-25T13:18:14Z</time>
</trkpt>
<trkpt lat="44.8957026" lon="5.3695892">
<ele>1052.33</ele>
<time>2019-07-25T13:18:15Z</time>
</trkpt>
<trkpt lat="44.8957021" lon="5.3695898">
<ele>1052.33</ele>
<time>2019-07-25T13:18:16Z</time>
</trkpt>
<trkpt lat="44.8957016" lon="5.3695900">
<ele>1052.32</ele>
<time>2019-07-25T13:18:17Z</time>
</trkpt>
<trkpt lat="44.8957013" lon="5.3695904">
<ele>1052.32</ele>
<time>2019-07-25T13:18:18Z</time>
</trkpt>
<trkpt lat="44.8957006" lon="5.3695906">
<ele>1052.31</ele>
<time>2019-07-25T13:18:19Z</time>
</trkpt>
<trkpt lat="44.8957005" lon="5.3695910">
<ele>1052.31</ele>
<time>2019-07-25T13:18:20Z</time>
</trkpt>
<trkpt lat="44.8957003" lon="5.3695913">
<ele>1052.30</ele>
<time>2019-07-25T13:18:21Z</time>
</trkpt>
<trkpt lat="44.8956999" lon="5.3695919">
<ele>1052.30</ele>
<time>2019-07-25T13:18:22Z</time>
</trkpt>
<trkpt lat="44.8956996" lon="5.3695926">
<ele>1052.30</ele>
<time>2019-07-25T13:18:23Z</time>
</trkpt>
<trkpt lat="44.8956988" lon="5.3695931">
<ele>1052.29</ele>
<time>2019-07-25T13:18:24Z</time>
</trkpt>
<trkpt lat="44.8956986" lon="5.3695939">
<ele>1052.29</ele>
<time>2019-07-25T13:18:25Z</time>
</trkpt>
<trkpt lat="44.8956982" lon="5.3695941">
<ele>1052.28</ele>
<time>2019-07-25T13:18:26Z</time>
</trkpt>
<trkpt lat="44.8956977" lon="5.3695965">
<ele>1052.28</ele>
<time>2019-07-25T13:18:27Z</time>
</trkpt>
<trkpt lat="44.8956968" lon="5.3695979">
<ele>1052.27</ele>
<time>2019-07-25T13:18:28Z</time>
</trkpt>
<trkpt lat="44.8956966" lon="5.3695985">
<ele>1052.27</ele>
<time>2019-07-25T13:18:29Z</time>
</trkpt>
<trkpt lat="44.8956963" lon="5.3695987">
<ele>1052.26</ele>
<time>2019-07-25T13:18:30Z</time>
</trkpt>
<trkpt lat="44.8956960" lon="5.3695991">
<ele>1052.26</ele>
<time>2019-07-25T13:18:31Z</time>
</trkpt>
<trkpt lat="44.8956950" lon="5.3696015">
<ele>1052.25</ele>
<time>2019-07-25T13:18:32Z</time>
</trkpt>
<trkpt lat="44.8956943" lon="5.3696017">
<ele>1052.25</ele>
<time>2019-07-25T13:18:33Z</time>
</trkpt>
<trkpt lat="44.8956940" lon="5.3696022">
<ele>1052.24</ele>
<time>2019-07-25T13:18:34Z</time>
</trkpt>
<trkpt lat="44.8956936" lon="5.3696030">
<ele>1052.24</ele>
<time>2019-07-25T13:18:35Z</time>
</trkpt>
<trkpt lat="44.8956932" lon="5.3696030">
<ele>1052.24</ele>
<time>2019-07-25T13:18:36Z</time>
</trkpt>
<trkpt lat="44.8956928" lon="5.3696036">
<ele>1052.23</ele>
<time>2019-07-25T13:18:37Z</time>
</trkpt>
<trkpt lat="44.8956924" lon="5.3696043">
<ele>1052.23</ele>
<time>2019-07-25T13:18:38Z</time>
</trkpt>
<trkpt lat="44.8956923" lon="5.3696046">
<ele>1052.22</ele>
<time>2019-07-25T13:18:39Z</time>
</trkpt>
<trkpt lat="44.8956915" lon="5.3696050">
<ele>1052.22</ele>
<time>2019-07-25T13:18:40Z</time>
</trkpt>
<trkpt lat="44.8956913" lon="5.3696051">
<ele>1052.21</ele>
<time>2019-07-25T13:18:41Z</time>
</trkpt>
<trkpt lat="44.8956909" lon="5.3696055">
<ele>1052.21</ele>
<time>2019-07-25T13:18:42Z</time>
</trkpt>
<trkpt lat="44.8956909" lon="5.3696058">
<ele>1052.20</ele>
<time>2019-07-25T13:18:43Z</time>
</trkpt>
<trkpt lat="44.8956909" lon="5.3696060">
<ele>1052.20</ele>
<time>2019-07-25T13:18:44Z</time>
</trkpt>
<trkpt lat="44.8956911" lon="5.3696061">
<ele>1052.20</ele>
<time>2019-07-25T13:18:45Z</time>
</trkpt>
<trkpt lat="44.8956910" lon="5.3696059">
<ele>1052.19</ele>
<time>2019-07-25T13:18:46Z</time>
</trkpt>
<trkpt lat="44.8956911" lon="5.3696059">
<ele>1052.19</ele>
<time>2019-07-25T13:18:47Z</time>
</trkpt>
<trkpt lat="44.8956912" lon="5.3696062">
<ele>1052.18</ele>
<time>2019-07-25T13:18:48Z</time>
</trkpt>
<trkpt lat="44.8956922" lon="5.3696062">
<ele>1052.18</ele>
<time>2019-07-25T13:18:49Z</time>
</trkpt>
<trkpt lat="44.8956923" lon="5.3696061">
<ele>1052.17</ele>
<time>2019-07-25T13:18:50Z</time>
</trkpt>
<trkpt lat="44.8956926" lon="5.3696064">
<ele>1052.17</ele>
<time>2019-07-25T13:18:51Z</time>
</trkpt>
<trkpt lat="44.8956936" lon="5.3696069">
<ele>1052.17</ele>
<time>2019-07-25T13:18:52Z</time>
</trkpt>
<trkpt lat="44.8956934" lon="5.3696070">
<ele>1052.16</ele>
<time>2019-07-25T13:18:53Z</time>
</trkpt>
<trkpt lat="44.8956933" lon="5.3696069">
<ele>1052.16</ele>
<time>2019-07-25T13:18:54Z</time>
</trkpt>
<trkpt lat="44.8956932" lon="5.3696070">
<ele>1052.15</ele>
<time>2019-07-25T13:18:55Z</time>
</trkpt>
<trkpt lat="44.8956932" lon="5.3696071">
<ele>1052.15</ele>
<time>2019-07-25T13:18:56Z</time>
</trkpt>
<trkpt lat="44.8956932" lon="5.3696073">
<ele>1052.15</ele>
<time>2019-07-25T13:18:57Z</time>
</trkpt>
<trkpt lat="44.8956933" lon="5.3696075">
<ele>1052.14</ele>
<time>2019-07-25T13:18:58Z</time>
</trkpt>
<trkpt lat="44.8956929" lon="5.3696078">
<ele>1052.14</ele>
<time>2019-07-25T13:18:59Z</time>
</trkpt>
<trkpt lat="44.8956922" lon="5.3696086">
<ele>1052.14</ele>
<time>2019-07-25T13:19:00Z</time>
</trkpt>
<trkpt lat="44.8956925" lon="5.3696087">
<ele>1052.13</ele>
<time>2019-07-25T13:19:01Z</time>
</trkpt>
<trkpt lat="44.8956927" lon="5.3696088">
<ele>1052.13</ele>
<time>2019-07-25T13:19:02Z</time>
</trkpt>
<trkpt lat="44.8956928" lon="5.3696088">
<ele>1052.12</ele>
<time>2019-07-25T13:19:03Z</time>
</trkpt>
<trkpt lat="44.8956933" lon="5.3696089">
<ele>1052.12</ele>
<time>2019-07-25T13:19:04Z</time>
</trkpt>
<trkpt lat="44.8956931" lon="5.3696087">
<ele>1052.12</ele>
<time>2019-07-25T13:19:05Z</time>
</trkpt>
<trkpt lat="44.8956928" lon="5.3696084">
<ele>1052.11</ele>
<time>2019-07-25T13:19:06Z</time>
</trkpt>
<trkpt lat="44.8956926" lon="5.3696082">
<ele>1052.11</ele>
<time>2019-07-25T13:19:07Z</time>
</trkpt>
<trkpt lat="44.8956924" lon="5.3696078">
<ele>1052.10</ele>
<time>2019-07-25T13:19:08Z</time>
</trkpt>
<trkpt lat="44.8956922" lon="5.3696077">
<ele>1052.10</ele>
<time>2019-07-25T13:19:09Z</time>
</trkpt>
<trkpt lat="44.8956910" lon="5.3696064">
<ele>1052.10</ele>
<time>2019-07-25T13:19:10Z</time>
</trkpt>
<trkpt lat="44.8956911" lon="5.3696063">
<ele>1052.09</ele>
<time>2019-07-25T13:19:11Z</time>
</trkpt>
<trkpt lat="44.8956907" lon="5.3696057">
<ele>1052.09</ele>
<time>2019-07-25T13:19:12Z</time>
</trkpt>
<trkpt lat="44.8956911" lon="5.3696049">
<ele>1052.08</ele>
<time>2019-07-25T13:19:13Z</time>
</trkpt>
<trkpt lat="44.8956921" lon="5.3696043">
<ele>1052.08</ele>
<time>2019-07-25T13:19:14Z</time>
</trkpt>
<trkpt lat="44.8956922" lon="5.3696032">
<ele>1052.08</ele>
<time>2019-07-25T13:19:15Z</time>
</trkpt>
<trkpt lat="44.8956960" lon="5.3696039">
<ele>1052.07</ele>
<time>2019-07-25T13:19:16Z</time>
</trkpt>
<trkpt lat="44.8956964" lon="5.3696035">
<ele>1052.07</ele>
<time>2019-07-25T13:19:17Z</time>
</trkpt>
<trkpt lat="44.8956964" lon="5.3696033">
<ele>1052.06</ele>
<time>2019-07-25T13:19:18Z</time>
</trkpt>
<trkpt lat="44.8956964" lon="5.3696029">
<ele>1052.06</ele>
<time>2019-07-25T13:19:19Z</time>
</trkpt>
<trkpt lat="44.8956971" lon="5.3696027">
<ele>1052.06</ele>
<time>2019-07-25T13:19:20Z</time>
</trkpt>
<trkpt lat="44.8956972" lon="5.3696023">
<ele>1052.05</ele>
<time>2019-07-25T13:19:21Z</time>
</trkpt>
<trkpt lat="44.8956973" lon="5.3696021">
<ele>1052.05</ele>
<time>2019-07-25T13:19:22Z</time>
</trkpt>
<trkpt lat="44.8956976" lon="5.3696018">
<ele>1052.04</ele>
<time>2019-07-25T13:19:23Z</time>
</trkpt>
<trkpt lat="44.8956974" lon="5.3696017">
<ele>1052.04</ele>
<time>2019-07-25T13:19:24Z</time>
</trkpt>
<trkpt lat="44.8956973" lon="5.3696016">
<ele>1052.04</ele>
<time>2019-07-25T13:19:25Z</time>
</trkpt>
<trkpt lat="44.8956969" lon="5.3696013">
<ele>1052.03</ele>
<time>2019-07-25T13:19:26Z</time>
</trkpt>
<trkpt lat="44.8956968" lon="5.3696013">
<ele>1052.03</ele>
<time>2019-07-25T13:19:27Z</time>
</trkpt>
<trkpt lat="44.8956965" lon="5.3696011">
<ele>1052.02</ele>
<time>2019-07-25T13:19:28Z</time>
</trkpt>
<trkpt lat="44.8956963" lon="5.3696009">
<ele>1052.02</ele>
<time>2019-07-25T13:19:29Z</time>
</trkpt>
<trkpt lat="44.8956965" lon="5.3696010">
<ele>1052.02</ele>
<time>2019-07-25T13:19:30Z</time>
</trkpt>
<trkpt lat="44.8956962" lon="5.3696007">
<ele>1052.01</ele>
<time>2019-07-25T13:19:31Z</time>
</trkpt>
<trkpt lat="44.8956962" lon="5.3696008">
<ele>1052.01</ele>
<time>2019-07-25T13:19:32Z</time>
</trkpt>
<trkpt lat="44.8956956" lon="5.3696005">
<ele>1052.00</ele>
<time>2019-07-25T13:19:33Z</time>
</trkpt>
<trkpt lat="44.8956948" lon="5.3696000">
<ele>1052.00</ele>
<time>2019-07-25T13:19:34Z</time>
</trkpt>
<trkpt lat="44.8956953" lon="5.3696003">
<ele>1051.99</ele>
<time>2019-07-25T13:19:35Z</time>
</trkpt>
<trkpt lat="44.8956962" lon="5.3696008">
<ele>1051.99</ele>
<time>2019-07-25T13:19:36Z</time>
</trkpt>
<trkpt lat="44.8956971" lon="5.3696012">
<ele>1051.98</ele>
<time>2019-07-25T13:19:37Z</time>
</trkpt>
<trkpt lat="44.8956971" lon="5.3696013">
<ele>1051.98</ele>
<time>2019-07-25T13:19:38Z</time>
</trkpt>
<trkpt lat="44.8956967" lon="5.3696011">
<ele>1051.97</ele>
<time>2019-07-25T13:19:39Z</time>
</trkpt>
<trkpt lat="44.8956968" lon="5.3696007">
<ele>1051.97</ele>
<time>2019-07-25T13:19:40Z</time>
</trkpt>
<trkpt lat="44.8956971" lon="5.3696005">
<ele>1051.96</ele>
<time>2019-07-25T13:19:41Z</time>
</trkpt>
<trkpt lat="44.8956973" lon="5.3696002">
<ele>1051.96</ele>
<time>2019-07-25T13:19:42Z</time>
</trkpt>
<trkpt lat="44.8956976" lon="5.3695989">
<ele>1051.96</ele>
<time>2019-07-25T13:19:43Z</time>
</trkpt>
<trkpt lat="44.8956978" lon="5.3695980">
<ele>1051.95</ele>
<time>2019-07-25T13:19:44Z</time>
</trkpt>
<trkpt lat="44.8956979" lon="5.3695966">
<ele>1051.95</ele>
<time>2019-07-25T13:19:45Z</time>
</trkpt>
<trkpt lat="44.8956980" lon="5.3695959">
<ele>1051.94</ele>
<time>2019-07-25T13:19:46Z</time>
</trkpt>
<trkpt lat="44.8956981" lon="5.3695958">
<ele>1051.94</ele>
<time>2019-07-25T13:19:47Z</time>
</trkpt>
<trkpt lat="44.8956983" lon="5.3695951">
<ele>1051.94</ele>
<time>2019-07-25T13:19:48Z</time>
</trkpt>
<trkpt lat="44.8956988" lon="5.3695942">
<ele>1051.93</ele>
<time>2019-07-25T13:19:49Z</time>
</trkpt>
<trkpt lat="44.8956987" lon="5.3695942">
<ele>1051.93</ele>
<time>2019-07-25T13:19:50Z</time>
</trkpt>
<trkpt lat="44.8956989" lon="5.3695943">
<ele>1051.93</ele>
<time>2019-07-25T13:19:51Z</time>
</trkpt>
<trkpt lat="44.8956986" lon="5.3695942">
<ele>1051.93</ele>
<time>2019-07-25T13:19:52Z</time>
</trkpt>
<trkpt lat="44.8956988" lon="5.3695943">
<ele>1051.92</ele>
<time>2019-07-25T13:19:53Z</time>
</trkpt>
<trkpt lat="44.8956984" lon="5.3695937">
<ele>1051.92</ele>
<time>2019-07-25T13:19:54Z</time>
</trkpt>
<trkpt lat="44.8956983" lon="5.3695937">
<ele>1051.92</ele>
<time>2019-07-25T13:19:55Z</time>
</trkpt>
<trkpt lat="44.8956982" lon="5.3695937">
<ele>1051.91</ele>
<time>2019-07-25T13:19:56Z</time>
</trkpt>
<trkpt lat="44.8956982" lon="5.3695936">
<ele>1051.91</ele>
<time>2019-07-25T13:19:57Z</time>
</trkpt>
<trkpt lat="44.8956984" lon="5.3695937">
<ele>1051.90</ele>
<time>2019-07-25T13:19:58Z</time>
</trkpt>
<trkpt lat="44.8956983" lon="5.3695936">
<ele>1051.90</ele>
<time>2019-07-25T13:19:59Z</time>
</trkpt>
<trkpt lat="44.8956981" lon="5.3695934">
<ele>1051.90</ele>
<time>2019-07-25T13:20:00Z</time>
</trkpt>
<trkpt lat="44.8956980" lon="5.3695932">
<ele>1051.89</ele>
<time>2019-07-25T13:20:01Z</time>
</trkpt>
<trkpt lat="44.8956979" lon="5.3695931">
<ele>1051.89</ele>
<time>2019-07-25T13:20:02Z</time>
</trkpt>
<trkpt lat="44.8956975" lon="5.3695930">
<ele>1051.88</ele>
<time>2019-07-25T13:20:03Z</time>
</trkpt>
<trkpt lat="44.8956975" lon="5.3695931">
<ele>1051.88</ele>
<time>2019-07-25T13:20:04Z</time>
</trkpt>
<trkpt lat="44.8956975" lon="5.3695932">
<ele>1051.87</ele>
<time>2019-07-25T13:20:05Z</time>
</trkpt>
<trkpt lat="44.8956975" lon="5.3695932">
<ele>1051.87</ele>
<time>2019-07-25T13:20:06Z</time>
</trkpt>
<trkpt lat="44.8956975" lon="5.3695933">
<ele>1051.86</ele>
<time>2019-07-25T13:20:07Z</time>
</trkpt>
<trkpt lat="44.8956973" lon="5.3695931">
<ele>1051.86</ele>
<time>2019-07-25T13:20:08Z</time>
</trkpt>
<trkpt lat="44.8956975" lon="5.3695934">
<ele>1051.85</ele>
<time>2019-07-25T13:20:09Z</time>
</trkpt>
<trkpt lat="44.8956973" lon="5.3695934">
<ele>1051.85</ele>
<time>2019-07-25T13:20:10Z</time>
</trkpt>
<trkpt lat="44.8956971" lon="5.3695933">
<ele>1051.84</ele>
<time>2019-07-25T13:20:11Z</time>
</trkpt>
<trkpt lat="44.8956971" lon="5.3695931">
<ele>1051.84</ele>
<time>2019-07-25T13:20:12Z</time>
</trkpt>
<trkpt lat="44.8956970" lon="5.3695928">
<ele>1051.83</ele>
<time>2019-07-25T13:20:13Z</time>
</trkpt>
<trkpt lat="44.8956972" lon="5.3695929">
<ele>1051.83</ele>
<time>2019-07-25T13:20:14Z</time>
</trkpt>
<trkpt lat="44.8956939" lon="5.3695903">
<ele>1051.82</ele>
<time>2019-07-25T13:20:15Z</time>
</trkpt>
<trkpt lat="44.8956927" lon="5.3695888">
<ele>1051.81</ele>
<time>2019-07-25T13:20:16Z</time>
</trkpt>
<trkpt lat="44.8956907" lon="5.3695875">
<ele>1051.81</ele>
<time>2019-07-25T13:20:17Z</time>
</trkpt>
<trkpt lat="44.8956907" lon="5.3695875">
<ele>1051.80</ele>
<time>2019-07-25T13:20:18Z</time>
</trkpt>
<trkpt lat="44.8956908" lon="5.3695875">
<ele>1051.80</ele>
<time>2019-07-25T13:20:19Z</time>
</trkpt>
<trkpt lat="44.8956906" lon="5.3695874">
<ele>1051.79</ele>
<time>2019-07-25T13:20:20Z</time>
</trkpt>
<trkpt lat="44.8956908" lon="5.3695875">
<ele>1051.79</ele>
<time>2019-07-25T13:20:21Z</time>
</trkpt>
<trkpt lat="44.8956908" lon="5.3695872">
<ele>1051.78</ele>
<time>2019-07-25T13:20:22Z</time>
</trkpt>
<trkpt lat="44.8956907" lon="5.3695870">
<ele>1051.78</ele>
<time>2019-07-25T13:20:23Z</time>
</trkpt>
<trkpt lat="44.8956907" lon="5.3695869">
<ele>1051.77</ele>
<time>2019-07-25T13:20:24Z</time>
</trkpt>
<trkpt lat="44.8956912" lon="5.3695879">
<ele>1051.76</ele>
<time>2019-07-25T13:20:25Z</time>
</trkpt>
<trkpt lat="44.8956916" lon="5.3695883">
<ele>1051.76</ele>
<time>2019-07-25T13:20:26Z</time>
</trkpt>
<trkpt lat="44.8956917" lon="5.3695884">
<ele>1051.75</ele>
<time>2019-07-25T13:20:27Z</time>
</trkpt>
<trkpt lat="44.8956918" lon="5.3695885">
<ele>1051.75</ele>
<time>2019-07-25T13:20:28Z</time>
</trkpt>
<trkpt lat="44.8956919" lon="5.3695888">
<ele>1051.74</ele>
<time>2019-07-25T13:20:29Z</time>
</trkpt>
<trkpt lat="44.8956922" lon="5.3695887">
<ele>1051.74</ele>
<time>2019-07-25T13:20:30Z</time>
</trkpt>
<trkpt lat="44.8956923" lon="5.3695887">
<ele>1051.73</ele>
<time>2019-07-25T13:20:31Z</time>
</trkpt>
<trkpt lat="44.8956924" lon="5.3695887">
<ele>1051.73</ele>
<time>2019-07-25T13:20:32Z</time>
</trkpt>
<trkpt lat="44.8956926" lon="5.3695886">
<ele>1051.72</ele>
<time>2019-07-25T13:20:33Z</time>
</trkpt>
<trkpt lat="44.8956929" lon="5.3695885">
<ele>1051.72</ele>
<time>2019-07-25T13:20:34Z</time>
</trkpt>
<trkpt lat="44.8956931" lon="5.3695883">
<ele>1051.71</ele>
<time>2019-07-25T13:20:35Z</time>
</trkpt>
<trkpt lat="44.8956930" lon="5.3695882">
<ele>1051.71</ele>
<time>2019-07-25T13:20:36Z</time>
</trkpt>
<trkpt lat="44.8956932" lon="5.3695887">
<ele>1051.70</ele>
<time>2019-07-25T13:20:37Z</time>
</trkpt>
<trkpt lat="44.8956933" lon="5.3695893">
<ele>1051.70</ele>
<time>2019-07-25T13:20:38Z</time>
</trkpt>
<trkpt lat="44.8956934" lon="5.3695894">
<ele>1051.69</ele>
<time>2019-07-25T13:20:39Z</time>
</trkpt>
<trkpt lat="44.8956933" lon="5.3695893">
<ele>1051.69</ele>
<time>2019-07-25T13:20:40Z</time>
</trkpt>
<trkpt lat="44.8956934" lon="5.3695894">
<ele>1051.68</ele>
<time>2019-07-25T13:20:41Z</time>
</trkpt>
<trkpt lat="44.8956935" lon="5.3695893">
<ele>1051.68</ele>
<time>2019-07-25T13:20:42Z</time>
</trkpt>
<trkpt lat="44.8956938" lon="5.3695891">
<ele>1051.68</ele>
<time>2019-07-25T13:20:43Z</time>
</trkpt>
<trkpt lat="44.8956938" lon="5.3695891">
<ele>1051.67</ele>
<time>2019-07-25T13:20:44Z</time>
</trkpt>
<trkpt lat="44.8956940" lon="5.3695887">
<ele>1051.67</ele>
<time>2019-07-25T13:20:45Z</time>
</trkpt>
<trkpt lat="44.8956940" lon="5.3695885">
<ele>1051.66</ele>
<time>2019-07-25T13:20:46Z</time>
</trkpt>
<trkpt lat="44.8956943" lon="5.3695878">
<ele>1051.66</ele>
<time>2019-07-25T13:20:47Z</time>
</trkpt>
<trkpt lat="44.8956948" lon="5.3695876">
<ele>1051.66</ele>
<time>2019-07-25T13:20:48Z</time>
</trkpt>
<trkpt lat="44.8956950" lon="5.3695876">
<ele>1051.65</ele>
<time>2019-07-25T13:20:49Z</time>
</trkpt>
<trkpt lat="44.8956956" lon="5.3695881">
<ele>1051.65</ele>
<time>2019-07-25T13:20:50Z</time>
</trkpt>
<trkpt lat="44.8956958" lon="5.3695884">
<ele>1051.65</ele>
<time>2019-07-25T13:20:51Z</time>
</trkpt>
<trkpt lat="44.8956957" lon="5.3695883">
<ele>1051.64</ele>
<time>2019-07-25T13:20:52Z</time>
</trkpt>
<trkpt lat="44.8956957" lon="5.3695884">
<ele>1051.64</ele>
<time>2019-07-25T13:20:53Z</time>
</trkpt>
<trkpt lat="44.8956955" lon="5.3695881">
<ele>1051.64</ele>
<time>2019-07-25T13:20:54Z</time>
</trkpt>
<trkpt lat="44.8956952" lon="5.3695874">
<ele>1051.63</ele>
<time>2019-07-25T13:20:55Z</time>
</trkpt>
<trkpt lat="44.8956951" lon="5.3695872">
<ele>1051.63</ele>
<time>2019-07-25T13:20:56Z</time>
</trkpt>
<trkpt lat="44.8956952" lon="5.3695873">
<ele>1051.63</ele>
<time>2019-07-25T13:20:57Z</time>
</trkpt>
<trkpt lat="44.8956950" lon="5.3695866">
<ele>1051.62</ele>
<time>2019-07-25T13:20:58Z</time>
</trkpt>
<trkpt lat="44.8956953" lon="5.3695860">
<ele>1051.62</ele>
<time>2019-07-25T13:20:59Z</time>
</trkpt>
<trkpt lat="44.8956952" lon="5.3695860">
<ele>1051.62</ele>
<time>2019-07-25T13:21:00Z</time>
</trkpt>
<trkpt lat="44.8956947" lon="5.3695859">
<ele>1051.61</ele>
<time>2019-07-25T13:21:01Z</time>
</trkpt>
<trkpt lat="44.8956945" lon="5.3695862">
<ele>1051.61</ele>
<time>2019-07-25T13:21:02Z</time>
</trkpt>
<trkpt lat="44.8956945" lon="5.3695862">
<ele>1051.61</ele>
<time>2019-07-25T13:21:03Z</time>
</trkpt>
<trkpt lat="44.8956943" lon="5.3695860">
<ele>1051.60</ele>
<time>2019-07-25T13:21:04Z</time>
</trkpt>
<trkpt lat="44.8956942" lon="5.3695859">
<ele>1051.60</ele>
<time>2019-07-25T13:21:05Z</time>
</trkpt>
<trkpt lat="44.8956942" lon="5.3695861">
<ele>1051.59</ele>
<time>2019-07-25T13:21:06Z</time>
</trkpt>
<trkpt lat="44.8956941" lon="5.3695863">
<ele>1051.59</ele>
<time>2019-07-25T13:21:07Z</time>
</trkpt>
<trkpt lat="44.8956939" lon="5.3695862">
<ele>1051.59</ele>
<time>2019-07-25T13:21:08Z</time>
</trkpt>
<trkpt lat="44.8956937" lon="5.3695861">
<ele>1051.58</ele>
<time>2019-07-25T13:21:09Z</time>
</trkpt>
<trkpt lat="44.8956935" lon="5.3695866">
<ele>1051.58</ele>
<time>2019-07-25T13:21:10Z</time>
</trkpt>
<trkpt lat="44.8956935" lon="5.3695867">
<ele>1051.58</ele>
<time>2019-07-25T13:21:11Z</time>
</trkpt>
<trkpt lat="44.8956930" lon="5.3695855">
<ele>1051.57</ele>
<time>2019-07-25T13:21:12Z</time>
</trkpt>
<trkpt lat="44.8956930" lon="5.3695852">
<ele>1051.57</ele>
<time>2019-07-25T13:21:13Z</time>
</trkpt>
<trkpt lat="44.8956930" lon="5.3695849">
<ele>1051.57</ele>
<time>2019-07-25T13:21:14Z</time>
</trkpt>
<trkpt lat="44.8956928" lon="5.3695854">
<ele>1051.56</ele>
<time>2019-07-25T13:21:15Z</time>
</trkpt>
<trkpt lat="44.8956926" lon="5.3695861">
<ele>1051.56</ele>
<time>2019-07-25T13:21:16Z</time>
</trkpt>
<trkpt lat="44.8956925" lon="5.3695859">
<ele>1051.56</ele>
<time>2019-07-25T13:21:17Z</time>
</trkpt>
<trkpt lat="44.8956924" lon="5.3695858">
<ele>1051.55</ele>
<time>2019-07-25T13:21:18Z</time>
</trkpt>
<trkpt lat="44.8956924" lon="5.3695861">
<ele>1051.55</ele>
<time>2019-07-25T13:21:19Z</time>
</trkpt>
<trkpt lat="44.8956919" lon="5.3695857">
<ele>1051.55</ele>
<time>2019-07-25T13:21:20Z</time>
</trkpt>
<trkpt lat="44.8956917" lon="5.3695859">
<ele>1051.54</ele>
<time>2019-07-25T13:21:21Z</time>
</trkpt>
<trkpt lat="44.8956916" lon="5.3695860">
<ele>1051.54</ele>
<time>2019-07-25T13:21:22Z</time>
</trkpt>
<trkpt lat="44.8956909" lon="5.3695854">
<ele>1051.53</ele>
<time>2019-07-25T13:21:23Z</time>
</trkpt>
<trkpt lat="44.8956911" lon="5.3695857">
<ele>1051.53</ele>
<time>2019-07-25T13:21:24Z</time>
</trkpt>
<trkpt lat="44.8956911" lon="5.3695857">
<ele>1051.53</ele>
<time>2019-07-25T13:21:25Z</time>
</trkpt>
<trkpt lat="44.8956905" lon="5.3695849">
<ele>1051.52</ele>
<time>2019-07-25T13:21:26Z</time>
</trkpt>
<trkpt lat="44.8956904" lon="5.3695854">
<ele>1051.52</ele>
<time>2019-07-25T13:21:27Z</time>
</trkpt>
<trkpt lat="44.8956904" lon="5.3695853">
<ele>1051.52</ele>
<time>2019-07-25T13:21:28Z</time>
</trkpt>
<trkpt lat="44.8956903" lon="5.3695852">
<ele>1051.51</ele>
<time>2019-07-25T13:21:29Z</time>
</trkpt>
<trkpt lat="44.8956900" lon="5.3695848">
<ele>1051.51</ele>
<time>2019-07-25T13:21:30Z</time>
</trkpt>
<trkpt lat="44.8956899" lon="5.3695848">
<ele>1051.51</ele>
<time>2019-07-25T13:21:31Z</time>
</trkpt>
<trkpt lat="44.8956900" lon="5.3695849">
<ele>1051.50</ele>
<time>2019-07-25T13:21:32Z</time>
</trkpt>
<trkpt lat="44.8956896" lon="5.3695844">
<ele>1051.50</ele>
<time>2019-07-25T13:21:33Z</time>
</trkpt>
<trkpt lat="44.8956897" lon="5.3695846">
<ele>1051.49</ele>
<time>2019-07-25T13:21:34Z</time>
</trkpt>
<trkpt lat="44.8956896" lon="5.3695845">
<ele>1051.49</ele>
<time>2019-07-25T13:21:35Z</time>
</trkpt>
<trkpt lat="44.8956893" lon="5.3695842">
<ele>1051.49</ele>
<time>2019-07-25T13:21:36Z</time>
</trkpt>
<trkpt lat="44.8956893" lon="5.3695843">
<ele>1051.48</ele>
<time>2019-07-25T13:21:37Z</time>
</trkpt>
<trkpt lat="44.8956894" lon="5.3695842">
<ele>1051.48</ele>
<time>2019-07-25T13:21:38Z</time>
</trkpt>
<trkpt lat="44.8956892" lon="5.3695841">
<ele>1051.48</ele>
<time>2019-07-25T13:21:39Z</time>
</trkpt>
<trkpt lat="44.8956892" lon="5.3695840">
<ele>1051.47</ele>
<time>2019-07-25T13:21:40Z</time>
</trkpt>
<trkpt lat="44.8956891" lon="5.3695838">
<ele>1051.47</ele>
<time>2019-07-25T13:21:41Z</time>
</trkpt>
<trkpt lat="44.8956892" lon="5.3695838">
<ele>1051.47</ele>
<time>2019-07-25T13:21:42Z</time>
</trkpt>
<trkpt lat="44.8956893" lon="5.3695839">
<ele>1051.46</ele>
<time>2019-07-25T13:21:43Z</time>
</trkpt>
<trkpt lat="44.8956891" lon="5.3695838">
<ele>1051.46</ele>
<time>2019-07-25T13:21:44Z</time>
</trkpt>
<trkpt lat="44.8956889" lon="5.3695838">
<ele>1051.45</ele>
<time>2019-07-25T13:21:45Z</time>
</trkpt>
<trkpt lat="44.8956886" lon="5.3695836">
<ele>1051.45</ele>
<time>2019-07-25T13:21:46Z</time>
</trkpt>
<trkpt lat="44.8956885" lon="5.3695836">
<ele>1051.45</ele>
<time>2019-07-25T13:21:47Z</time>
</trkpt>
<trkpt lat="44.8956885" lon="5.3695834">
<ele>1051.44</ele>
<time>2019-07-25T13:21:48Z</time>
</trkpt>
<trkpt lat="44.8956886" lon="5.3695834">
<ele>1051.44</ele>
<time>2019-07-25T13:21:49Z</time>
</trkpt>
<trkpt lat="44.8956886" lon="5.3695833">
<ele>1051.44</ele>
<time>2019-07-25T13:21:50Z</time>
</trkpt>
<trkpt lat="44.8956886" lon="5.3695832">
<ele>1051.43</ele>
<time>2019-07-25T13:21:51Z</time>
</trkpt>
<trkpt lat="44.8956887" lon="5.3695831">
<ele>1051.43</ele>
<time>2019-07-25T13:21:52Z</time>
</trkpt>
<trkpt lat="44.8956886" lon="5.3695831">
<ele>1051.42</ele>
<time>2019-07-25T13:21:53Z</time>
</trkpt>
<trkpt lat="44.8956887" lon="5.3695831">
<ele>1051.42</ele>
<time>2019-07-25T13:21:54Z</time>
</trkpt>
<trkpt lat="44.8956888" lon="5.3695831">
<ele>1051.42</ele>
<time>2019-07-25T13:21:55Z</time>
</trkpt>
<trkpt lat="44.8956889" lon="5.3695829">
<ele>1051.41</ele>
<time>2019-07-25T13:21:56Z</time>
</trkpt>
<trkpt lat="44.8956890" lon="5.3695829">
<ele>1051.41</ele>
<time>2019-07-25T13:21:57Z</time>
</trkpt>
<trkpt lat="44.8956889" lon="5.3695829">
<ele>1051.40</ele>
<time>2019-07-25T13:21:58Z</time>
</trkpt>
<trkpt lat="44.8956888" lon="5.3695827">
<ele>1051.40</ele>
<time>2019-07-25T13:21:59Z</time>
</trkpt>
<trkpt lat="44.8956888" lon="5.3695826">
<ele>1051.40</ele>
<time>2019-07-25T13:22:00Z</time>
</trkpt>
<trkpt lat="44.8956890" lon="5.3695827">
<ele>1051.39</ele>
<time>2019-07-25T13:22:01Z</time>
</trkpt>
<trkpt lat="44.8956894" lon="5.3695830">
<ele>1051.39</ele>
<time>2019-07-25T13:22:02Z</time>
</trkpt>
<trkpt lat="44.8956898" lon="5.3695831">
<ele>1051.39</ele>
<time>2019-07-25T13:22:03Z</time>
</trkpt>
<trkpt lat="44.8956899" lon="5.3695833">
<ele>1051.38</ele>
<time>2019-07-25T13:22:04Z</time>
</trkpt>
<trkpt lat="44.8956900" lon="5.3695833">
<ele>1051.38</ele>
<time>2019-07-25T13:22:05Z</time>
</trkpt>
<trkpt lat="44.8956903" lon="5.3695832">
<ele>1051.37</ele>
<time>2019-07-25T13:22:06Z</time>
</trkpt>
<trkpt lat="44.8956904" lon="5.3695831">
<ele>1051.37</ele>
<time>2019-07-25T13:22:07Z</time>
</trkpt>
<trkpt lat="44.8956903" lon="5.3695831">
<ele>1051.37</ele>
<time>2019-07-25T13:22:08Z</time>
</trkpt>
<trkpt lat="44.8956901" lon="5.3695831">
<ele>1051.36</ele>
<time>2019-07-25T13:22:09Z</time>
</trkpt>
<trkpt lat="44.8956901" lon="5.3695828">
<ele>1051.36</ele>
<time>2019-07-25T13:22:10Z</time>
</trkpt>
<trkpt lat="44.8956902" lon="5.3695828">
<ele>1051.36</ele>
<time>2019-07-25T13:22:11Z</time>
</trkpt>
<trkpt lat="44.8956904" lon="5.3695822">
<ele>1051.35</ele>
<time>2019-07-25T13:22:12Z</time>
</trkpt>
<trkpt lat="44.8956906" lon="5.3695821">
<ele>1051.35</ele>
<time>2019-07-25T13:22:13Z</time>
</trkpt>
<trkpt lat="44.8956904" lon="5.3695819">
<ele>1051.34</ele>
<time>2019-07-25T13:22:14Z</time>
</trkpt>
<trkpt lat="44.8956905" lon="5.3695817">
<ele>1051.34</ele>
<time>2019-07-25T13:22:15Z</time>
</trkpt>
<trkpt lat="44.8956905" lon="5.3695816">
<ele>1051.34</ele>
<time>2019-07-25T13:22:16Z</time>
</trkpt>
<trkpt lat="44.8956908" lon="5.3695817">
<ele>1051.33</ele>
<time>2019-07-25T13:22:17Z</time>
</trkpt>
<trkpt lat="44.8956909" lon="5.3695815">
<ele>1051.33</ele>
<time>2019-07-25T13:22:18Z</time>
</trkpt>
<trkpt lat="44.8956910" lon="5.3695815">
<ele>1051.32</ele>
<time>2019-07-25T13:22:19Z</time>
</trkpt>
<trkpt lat="44.8956910" lon="5.3695814">
<ele>1051.32</ele>
<time>2019-07-25T13:22:20Z</time>
</trkpt>
<trkpt lat="44.8956910" lon="5.3695813">
<ele>1051.32</ele>
<time>2019-07-25T13:22:21Z</time>
</trkpt>
<trkpt lat="44.8956910" lon="5.3695812">
<ele>1051.31</ele>
<time>2019-07-25T13:22:22Z</time>
</trkpt>
<trkpt lat="44.8956910" lon="5.3695815">
<ele>1051.31</ele>
<time>2019-07-25T13:22:23Z</time>
</trkpt>
<trkpt lat="44.8956909" lon="5.3695813">
<ele>1051.30</ele>
<time>2019-07-25T13:22:24Z</time>
</trkpt>
<trkpt lat="44.8956908" lon="5.3695813">
<ele>1051.30</ele>
<time>2019-07-25T13:22:25Z</time>
</trkpt>
<trkpt lat="44.8956906" lon="5.3695810">
<ele>1051.30</ele>
<time>2019-07-25T13:22:26Z</time>
</trkpt>
<trkpt lat="44.8956905" lon="5.3695810">
<ele>1051.29</ele>
<time>2019-07-25T13:22:27Z</time>
</trkpt>
<trkpt lat="44.8956901" lon="5.3695804">
<ele>1051.29</ele>
<time>2019-07-25T13:22:28Z</time>
</trkpt>
<trkpt lat="44.8956901" lon="5.3695803">
<ele>1051.28</ele>
<time>2019-07-25T13:22:29Z</time>
</trkpt>
<trkpt lat="44.8956900" lon="5.3695803">
<ele>1051.28</ele>
<time>2019-07-25T13:22:30Z</time>
</trkpt>
<trkpt lat="44.8956900" lon="5.3695801">
<ele>1051.28</ele>
<time>2019-07-25T13:22:31Z</time>
</trkpt>
<trkpt lat="44.8956902" lon="5.3695801">
<ele>1051.27</ele>
<time>2019-07-25T13:22:32Z</time>
</trkpt>
<trkpt lat="44.8956906" lon="5.3695803">
<ele>1051.27</ele>
<time>2019-07-25T13:22:33Z</time>
</trkpt>
<trkpt lat="44.8956905" lon="5.3695801">
<ele>1051.27</ele>
<time>2019-07-25T13:22:34Z</time>
</trkpt>
<trkpt lat="44.8956906" lon="5.3695803">
<ele>1051.26</ele>
<time>2019-07-25T13:22:35Z</time>
</trkpt>
<trkpt lat="44.8956906" lon="5.3695803">
<ele>1051.26</ele>
<time>2019-07-25T13:22:36Z</time>
</trkpt>
<trkpt lat="44.8956907" lon="5.3695804">
<ele>1051.26</ele>
<time>2019-07-25T13:22:37Z</time>
</trkpt>
<trkpt lat="44.8956906" lon="5.3695805">
<ele>1051.25</ele>
<time>2019-07-25T13:22:38Z</time>
</trkpt>
<trkpt lat="44.8956905" lon="5.3695804">
<ele>1051.25</ele>
<time>2019-07-25T13:22:39Z</time>
</trkpt>
<trkpt lat="44.8956906" lon="5.3695804">
<ele>1051.25</ele>
<time>2019-07-25T13:22:40Z</time>
</trkpt>
<trkpt lat="44.8956910" lon="5.3695807">
<ele>1051.24</ele>
<time>2019-07-25T13:22:41Z</time>
</trkpt>
<trkpt lat="44.8956908" lon="5.3695807">
<ele>1051.24</ele>
<time>2019-07-25T13:22:42Z</time>
</trkpt>
<trkpt lat="44.8956909" lon="5.3695807">
<ele>1051.23</ele>
<time>2019-07-25T13:22:43Z</time>
</trkpt>
<trkpt lat="44.8956910" lon="5.3695808">
<ele>1051.23</ele>
<time>2019-07-25T13:22:44Z</time>
</trkpt>
<trkpt lat="44.8956911" lon="5.3695808">
<ele>1051.23</ele>
<time>2019-07-25T13:22:45Z</time>
</trkpt>
<trkpt lat="44.8956911" lon="5.3695808">
<ele>1051.22</ele>
<time>2019-07-25T13:22:46Z</time>
</trkpt>
<trkpt lat="44.8956913" lon="5.3695810">
<ele>1051.22</ele>
<time>2019-07-25T13:22:47Z</time>
</trkpt>
<trkpt lat="44.8956913" lon="5.3695815">
<ele>1051.22</ele>
<time>2019-07-25T13:22:48Z</time>
</trkpt>
<trkpt lat="44.8956913" lon="5.3695811">
<ele>1051.21</ele>
<time>2019-07-25T13:22:49Z</time>
</trkpt>
<trkpt lat="44.8956912" lon="5.3695811">
<ele>1051.21</ele>
<time>2019-07-25T13:22:50Z</time>
</trkpt>
<trkpt lat="44.8956911" lon="5.3695806">
<ele>1051.21</ele>
<time>2019-07-25T13:22:51Z</time>
</trkpt>
<trkpt lat="44.8956912" lon="5.3695804">
<ele>1051.20</ele>
<time>2019-07-25T13:22:52Z</time>
</trkpt>
<trkpt lat="44.8956911" lon="5.3695797">
<ele>1051.20</ele>
<time>2019-07-25T13:22:53Z</time>
</trkpt>
<trkpt lat="44.8956911" lon="5.3695797">
<ele>1051.20</ele>
<time>2019-07-25T13:22:54Z</time>
</trkpt>
<trkpt lat="44.8956914" lon="5.3695798">
<ele>1051.19</ele>
<time>2019-07-25T13:22:55Z</time>
</trkpt>
<trkpt lat="44.8956913" lon="5.3695796">
<ele>1051.19</ele>
<time>2019-07-25T13:22:56Z</time>
</trkpt>
<trkpt lat="44.8956911" lon="5.3695794">
<ele>1051.18</ele>
<time>2019-07-25T13:22:57Z</time>
</trkpt>
<trkpt lat="44.8956909" lon="5.3695791">
<ele>1051.18</ele>
<time>2019-07-25T13:22:58Z</time>
</trkpt>
<trkpt lat="44.8956908" lon="5.3695790">
<ele>1051.18</ele>
<time>2019-07-25T13:22:59Z</time>
</trkpt>
<trkpt lat="44.8956908" lon="5.3695786">
<ele>1051.17</ele>
<time>2019-07-25T13:23:00Z</time>
</trkpt>
<trkpt lat="44.8956907" lon="5.3695783">
<ele>1051.17</ele>
<time>2019-07-25T13:23:01Z</time>
</trkpt>
<trkpt lat="44.8956905" lon="5.3695781">
<ele>1051.17</ele>
<time>2019-07-25T13:23:02Z</time>
</trkpt>
<trkpt lat="44.8956904" lon="5.3695779">
<ele>1051.16</ele>
<time>2019-07-25T13:23:03Z</time>
</trkpt>
<trkpt lat="44.8956905" lon="5.3695780">
<ele>1051.16</ele>
<time>2019-07-25T13:23:04Z</time>
</trkpt>
<trkpt lat="44.8956903" lon="5.3695778">
<ele>1051.16</ele>
<time>2019-07-25T13:23:05Z</time>
</trkpt>
<trkpt lat="44.8956896" lon="5.3695773">
<ele>1051.15</ele>
<time>2019-07-25T13:23:06Z</time>
</trkpt>
<trkpt lat="44.8956896" lon="5.3695772">
<ele>1051.15</ele>
<time>2019-07-25T13:23:07Z</time>
</trkpt>
<trkpt lat="44.8956895" lon="5.3695771">
<ele>1051.15</ele>
<time>2019-07-25T13:23:08Z</time>
</trkpt>
<trkpt lat="44.8956895" lon="5.3695769">
<ele>1051.14</ele>
<time>2019-07-25T13:23:09Z</time>
</trkpt>
<trkpt lat="44.8956897" lon="5.3695768">
<ele>1051.14</ele>
<time>2019-07-25T13:23:10Z</time>
</trkpt>
<trkpt lat="44.8956897" lon="5.3695766">
<ele>1051.14</ele>
<time>2019-07-25T13:23:11Z</time>
</trkpt>
<trkpt lat="44.8956897" lon="5.3695764">
<ele>1051.13</ele>
<time>2019-07-25T13:23:12Z</time>
</trkpt>
<trkpt lat="44.8956899" lon="5.3695765">
<ele>1051.13</ele>
<time>2019-07-25T13:23:13Z</time>
</trkpt>
<trkpt lat="44.8956898" lon="5.3695764">
<ele>1051.13</ele>
<time>2019-07-25T13:23:14Z</time>
</trkpt>
<trkpt lat="44.8956898" lon="5.3695763">
<ele>1051.12</ele>
<time>2019-07-25T13:23:15Z</time>
</trkpt>
<trkpt lat="44.8956901" lon="5.3695763">
<ele>1051.12</ele>
<time>2019-07-25T13:23:16Z</time>
</trkpt>
<trkpt lat="44.8956902" lon="5.3695762">
<ele>1051.12</ele>
<time>2019-07-25T13:23:17Z</time>
</trkpt>
<trkpt lat="44.8956903" lon="5.3695762">
<ele>1051.11</ele>
<time>2019-07-25T13:23:18Z</time>
</trkpt>
<trkpt lat="44.8956906" lon="5.3695763">
<ele>1051.11</ele>
<time>2019-07-25T13:23:19Z</time>
</trkpt>
<trkpt lat="44.8956908" lon="5.3695759">
<ele>1051.11</ele>
<time>2019-07-25T13:23:20Z</time>
</trkpt>
<trkpt lat="44.8956910" lon="5.3695759">
<ele>1051.10</ele>
<time>2019-07-25T13:23:21Z</time>
</trkpt>
<trkpt lat="44.8956910" lon="5.3695759">
<ele>1051.10</ele>
<time>2019-07-25T13:23:22Z</time>
</trkpt>
<trkpt lat="44.8956910" lon="5.3695759">
<ele>1051.10</ele>
<time>2019-07-25T13:23:23Z</time>
</trkpt>
<trkpt lat="44.8956910" lon="5.3695758">
<ele>1051.09</ele>
<time>2019-07-25T13:23:24Z</time>
</trkpt>
<trkpt lat="44.8956910" lon="5.3695759">
<ele>1051.09</ele>
<time>2019-07-25T13:23:25Z</time>
</trkpt>
<trkpt lat="44.8956913" lon="5.3695759">
<ele>1051.08</ele>
<time>2019-07-25T13:23:26Z</time>
</trkpt>
<trkpt lat="44.8956912" lon="5.3695758">
<ele>1051.08</ele>
<time>2019-07-25T13:23:27Z</time>
</trkpt>
<trkpt lat="44.8956915" lon="5.3695760">
<ele>1051.08</ele>
<time>2019-07-25T13:23:28Z</time>
</trkpt>
<trkpt lat="44.8956915" lon="5.3695760">
<ele>1051.07</ele>
<time>2019-07-25T13:23:29Z</time>
</trkpt>
<trkpt lat="44.8956915" lon="5.3695760">
<ele>1051.07</ele>
<time>2019-07-25T13:23:30Z</time>
</trkpt>
<trkpt lat="44.8956916" lon="5.3695760">
<ele>1051.07</ele>
<time>2019-07-25T13:23:31Z</time>
</trkpt>
<trkpt lat="44.8956916" lon="5.3695760">
<ele>1051.06</ele>
<time>2019-07-25T13:23:32Z</time>
</trkpt>
<trkpt lat="44.8956917" lon="5.3695761">
<ele>1051.06</ele>
<time>2019-07-25T13:23:33Z</time>
</trkpt>
<trkpt lat="44.8956916" lon="5.3695760">
<ele>1051.06</ele>
<time>2019-07-25T13:23:34Z</time>
</trkpt>
<trkpt lat="44.8956916" lon="5.3695761">
<ele>1051.05</ele>
<time>2019-07-25T13:23:35Z</time>
</trkpt>
<trkpt lat="44.8956916" lon="5.3695760">
<ele>1051.05</ele>
<time>2019-07-25T13:23:36Z</time>
</trkpt>
<trkpt lat="44.8956921" lon="5.3695756">
<ele>1051.05</ele>
<time>2019-07-25T13:23:37Z</time>
</trkpt>
<trkpt lat="44.8956977" lon="5.3695780">
<ele>1051.00</ele>
<time>2019-07-25T13:23:38Z</time>
</trkpt>
<trkpt lat="44.8956968" lon="5.3695766">
<ele>1051.00</ele>
<time>2019-07-25T13:23:39Z</time>
</trkpt>
<trkpt lat="44.8957001" lon="5.3695780">
<ele>1050.96</ele>
<time>2019-07-25T13:23:40Z</time>
</trkpt>
<trkpt lat="44.8957087" lon="5.3695804">
<ele>1050.92</ele>
<time>2019-07-25T13:23:41Z</time>
</trkpt>
<trkpt lat="44.8957171" lon="5.3695830">
<ele>1050.88</ele>
<time>2019-07-25T13:23:42Z</time>
</trkpt>
<trkpt lat="44.8957166" lon="5.3695826">
<ele>1050.88</ele>
<time>2019-07-25T13:23:43Z</time>
</trkpt>
<trkpt lat="44.8957153" lon="5.3695820">
<ele>1050.87</ele>
<time>2019-07-25T13:23:44Z</time>
</trkpt>
<trkpt lat="44.8957131" lon="5.3695810">
<ele>1050.87</ele>
<time>2019-07-25T13:23:45Z</time>
</trkpt>
<trkpt lat="44.8957129" lon="5.3695809">
<ele>1050.86</ele>
<time>2019-07-25T13:23:46Z</time>
</trkpt>
<trkpt lat="44.8957133" lon="5.3695810">
<ele>1050.86</ele>
<time>2019-07-25T13:23:47Z</time>
</trkpt>
<trkpt lat="44.8957140" lon="5.3695813">
<ele>1050.86</ele>
<time>2019-07-25T13:23:48Z</time>
</trkpt>
<trkpt lat="44.8957141" lon="5.3695813">
<ele>1050.85</ele>
<time>2019-07-25T13:23:49Z</time>
</trkpt>
<trkpt lat="44.8957142" lon="5.3695813">
<ele>1050.85</ele>
<time>2019-07-25T13:23:50Z</time>
</trkpt>
<trkpt lat="44.8957144" lon="5.3695814">
<ele>1050.85</ele>
<time>2019-07-25T13:23:51Z</time>
</trkpt>
<trkpt lat="44.8957143" lon="5.3695813">
<ele>1050.84</ele>
<time>2019-07-25T13:23:52Z</time>
</trkpt>
<trkpt lat="44.8957140" lon="5.3695811">
<ele>1050.84</ele>
<time>2019-07-25T13:23:53Z</time>
</trkpt>
<trkpt lat="44.8957136" lon="5.3695810">
<ele>1050.83</ele>
<time>2019-07-25T13:23:54Z</time>
</trkpt>
<trkpt lat="44.8957128" lon="5.3695804">
<ele>1050.83</ele>
<time>2019-07-25T13:23:55Z</time>
</trkpt>
<trkpt lat="44.8957114" lon="5.3695798">
<ele>1050.83</ele>
<time>2019-07-25T13:23:56Z</time>
</trkpt>
<trkpt lat="44.8957113" lon="5.3695798">
<ele>1050.82</ele>
<time>2019-07-25T13:23:57Z</time>
</trkpt>
<trkpt lat="44.8957126" lon="5.3695804">
<ele>1050.82</ele>
<time>2019-07-25T13:23:58Z</time>
</trkpt>
<trkpt lat="44.8957123" lon="5.3695802">
<ele>1050.82</ele>
<time>2019-07-25T13:23:59Z</time>
</trkpt>
<trkpt lat="44.8957123" lon="5.3695802">
<ele>1050.81</ele>
<time>2019-07-25T13:24:00Z</time>
</trkpt>
<trkpt lat="44.8957128" lon="5.3695804">
<ele>1050.81</ele>
<time>2019-07-25T13:24:01Z</time>
</trkpt>
<trkpt lat="44.8957125" lon="5.3695802">
<ele>1050.80</ele>
<time>2019-07-25T13:24:02Z</time>
</trkpt>
<trkpt lat="44.8957137" lon="5.3695808">
<ele>1050.80</ele>
<time>2019-07-25T13:24:03Z</time>
</trkpt>
<trkpt lat="44.8957139" lon="5.3695808">
<ele>1050.80</ele>
<time>2019-07-25T13:24:04Z</time>
</trkpt>
<trkpt lat="44.8957142" lon="5.3695809">
<ele>1050.79</ele>
<time>2019-07-25T13:24:05Z</time>
</trkpt>
<trkpt lat="44.8957142" lon="5.3695809">
<ele>1050.79</ele>
<time>2019-07-25T13:24:06Z</time>
</trkpt>
<trkpt lat="44.8957142" lon="5.3695810">
<ele>1050.79</ele>
<time>2019-07-25T13:24:07Z</time>
</trkpt>
<trkpt lat="44.8957141" lon="5.3695808">
<ele>1050.78</ele>
<time>2019-07-25T13:24:08Z</time>
</trkpt>
<trkpt lat="44.8957144" lon="5.3695810">
<ele>1050.78</ele>
<time>2019-07-25T13:24:09Z</time>
</trkpt>
<trkpt lat="44.8957146" lon="5.3695810">
<ele>1050.77</ele>
<time>2019-07-25T13:24:10Z</time>
</trkpt>
<trkpt lat="44.8957144" lon="5.3695809">
<ele>1050.77</ele>
<time>2019-07-25T13:24:11Z</time>
</trkpt>
<trkpt lat="44.8957143" lon="5.3695809">
<ele>1050.77</ele>
<time>2019-07-25T13:24:12Z</time>
</trkpt>
<trkpt lat="44.8957141" lon="5.3695808">
<ele>1050.76</ele>
<time>2019-07-25T13:24:13Z</time>
</trkpt>
<trkpt lat="44.8957139" lon="5.3695806">
<ele>1050.76</ele>
<time>2019-07-25T13:24:14Z</time>
</trkpt>
<trkpt lat="44.8957136" lon="5.3695806">
<ele>1050.76</ele>
<time>2019-07-25T13:24:15Z</time>
</trkpt>
<trkpt lat="44.8957137" lon="5.3695807">
<ele>1050.75</ele>
<time>2019-07-25T13:24:16Z</time>
</trkpt>
<trkpt lat="44.8957138" lon="5.3695807">
<ele>1050.75</ele>
<time>2019-07-25T13:24:17Z</time>
</trkpt>
<trkpt lat="44.8957138" lon="5.3695807">
<ele>1050.74</ele>
<time>2019-07-25T13:24:18Z</time>
</trkpt>
<trkpt lat="44.8957136" lon="5.3695806">
<ele>1050.74</ele>
<time>2019-07-25T13:24:19Z</time>
</trkpt>
<trkpt lat="44.8957136" lon="5.3695806">
<ele>1050.74</ele>
<time>2019-07-25T13:24:20Z</time>
</trkpt>
<trkpt lat="44.8957136" lon="5.3695806">
<ele>1050.73</ele>
<time>2019-07-25T13:24:21Z</time>
</trkpt>
<trkpt lat="44.8957135" lon="5.3695806">
<ele>1050.73</ele>
<time>2019-07-25T13:24:22Z</time>
</trkpt>
<trkpt lat="44.8957125" lon="5.3695801">
<ele>1050.72</ele>
<time>2019-07-25T13:24:23Z</time>
</trkpt>
<trkpt lat="44.8957102" lon="5.3695789">
<ele>1050.72</ele>
<time>2019-07-25T13:24:24Z</time>
</trkpt>
<trkpt lat="44.8957086" lon="5.3695782">
<ele>1050.71</ele>
<time>2019-07-25T13:24:25Z</time>
</trkpt>
<trkpt lat="44.8957086" lon="5.3695782">
<ele>1050.71</ele>
<time>2019-07-25T13:24:26Z</time>
</trkpt>
<trkpt lat="44.8957084" lon="5.3695781">
<ele>1050.71</ele>
<time>2019-07-25T13:24:27Z</time>
</trkpt>
<trkpt lat="44.8957087" lon="5.3695783">
<ele>1050.70</ele>
<time>2019-07-25T13:24:28Z</time>
</trkpt>
<trkpt lat="44.8957083" lon="5.3695782">
<ele>1050.70</ele>
<time>2019-07-25T13:24:29Z</time>
</trkpt>
<trkpt lat="44.8957082" lon="5.3695781">
<ele>1050.69</ele>
<time>2019-07-25T13:24:30Z</time>
</trkpt>
<trkpt lat="44.8957083" lon="5.3695783">
<ele>1050.69</ele>
<time>2019-07-25T13:24:31Z</time>
</trkpt>
<trkpt lat="44.8957082" lon="5.3695783">
<ele>1050.68</ele>
<time>2019-07-25T13:24:32Z</time>
</trkpt>
<trkpt lat="44.8957053" lon="5.3695768">
<ele>1050.68</ele>
<time>2019-07-25T13:24:33Z</time>
</trkpt>
<trkpt lat="44.8957053" lon="5.3695768">
<ele>1050.67</ele>
<time>2019-07-25T13:24:34Z</time>
</trkpt>
<trkpt lat="44.8957053" lon="5.3695768">
<ele>1050.67</ele>
<time>2019-07-25T13:24:35Z</time>
</trkpt>
<trkpt lat="44.8957051" lon="5.3695768">
<ele>1050.67</ele>
<time>2019-07-25T13:24:36Z</time>
</trkpt>
<trkpt lat="44.8957044" lon="5.3695766">
<ele>1050.66</ele>
<time>2019-07-25T13:24:37Z</time>
</trkpt>
<trkpt lat="44.8957023" lon="5.3695752">
<ele>1050.66</ele>
<time>2019-07-25T13:24:38Z</time>
</trkpt>
<trkpt lat="44.8957025" lon="5.3695754">
<ele>1050.65</ele>
<time>2019-07-25T13:24:39Z</time>
</trkpt>
<trkpt lat="44.8957023" lon="5.3695754">
<ele>1050.65</ele>
<time>2019-07-25T13:24:40Z</time>
</trkpt>
<trkpt lat="44.8957002" lon="5.3695742">
<ele>1050.65</ele>
<time>2019-07-25T13:24:41Z</time>
</trkpt>
<trkpt lat="44.8957003" lon="5.3695742">
<ele>1050.64</ele>
<time>2019-07-25T13:24:42Z</time>
</trkpt>
<trkpt lat="44.8957006" lon="5.3695743">
<ele>1050.64</ele>
<time>2019-07-25T13:24:43Z</time>
</trkpt>
<trkpt lat="44.8957011" lon="5.3695747">
<ele>1050.64</ele>
<time>2019-07-25T13:24:44Z</time>
</trkpt>
<trkpt lat="44.8957016" lon="5.3695748">
<ele>1050.63</ele>
<time>2019-07-25T13:24:45Z</time>
</trkpt>
<trkpt lat="44.8957019" lon="5.3695750">
<ele>1050.63</ele>
<time>2019-07-25T13:24:46Z</time>
</trkpt>
<trkpt lat="44.8957026" lon="5.3695754">
<ele>1050.62</ele>
<time>2019-07-25T13:24:47Z</time>
</trkpt>
<trkpt lat="44.8957027" lon="5.3695755">
<ele>1050.62</ele>
<time>2019-07-25T13:24:48Z</time>
</trkpt>
<trkpt lat="44.8957030" lon="5.3695756">
<ele>1050.62</ele>
<time>2019-07-25T13:24:49Z</time>
</trkpt>
<trkpt lat="44.8957028" lon="5.3695756">
<ele>1050.61</ele>
<time>2019-07-25T13:24:50Z</time>
</trkpt>
<trkpt lat="44.8957030" lon="5.3695760">
<ele>1050.61</ele>
<time>2019-07-25T13:24:51Z</time>
</trkpt>
<trkpt lat="44.8957037" lon="5.3695765">
<ele>1050.61</ele>
<time>2019-07-25T13:24:52Z</time>
</trkpt>
<trkpt lat="44.8957042" lon="5.3695768">
<ele>1050.60</ele>
<time>2019-07-25T13:24:53Z</time>
</trkpt>
<trkpt lat="44.8957043" lon="5.3695768">
<ele>1050.60</ele>
<time>2019-07-25T13:24:54Z</time>
</trkpt>
<trkpt lat="44.8957042" lon="5.3695769">
<ele>1050.60</ele>
<time>2019-07-25T13:24:55Z</time>
</trkpt>
<trkpt lat="44.8957044" lon="5.3695769">
<ele>1050.59</ele>
<time>2019-07-25T13:24:56Z</time>
</trkpt>
<trkpt lat="44.8957042" lon="5.3695767">
<ele>1050.59</ele>
<time>2019-07-25T13:24:57Z</time>
</trkpt>
<trkpt lat="44.8957032" lon="5.3695762">
<ele>1050.59</ele>
<time>2019-07-25T13:24:58Z</time>
</trkpt>
<trkpt lat="44.8957031" lon="5.3695762">
<ele>1050.58</ele>
<time>2019-07-25T13:24:59Z</time>
</trkpt>
<trkpt lat="44.8957035" lon="5.3695764">
<ele>1050.58</ele>
<time>2019-07-25T13:25:00Z</time>
</trkpt>
<trkpt lat="44.8957038" lon="5.3695767">
<ele>1050.58</ele>
<time>2019-07-25T13:25:01Z</time>
</trkpt>
<trkpt lat="44.8957038" lon="5.3695767">
<ele>1050.57</ele>
<time>2019-07-25T13:25:02Z</time>
</trkpt>
<trkpt lat="44.8957041" lon="5.3695769">
<ele>1050.57</ele>
<time>2019-07-25T13:25:03Z</time>
</trkpt>
<trkpt lat="44.8957046" lon="5.3695772">
<ele>1050.57</ele>
<time>2019-07-25T13:25:04Z</time>
</trkpt>
<trkpt lat="44.8957046" lon="5.3695772">
<ele>1050.56</ele>
<time>2019-07-25T13:25:05Z</time>
</trkpt>
<trkpt lat="44.8957046" lon="5.3695772">
<ele>1050.56</ele>
<time>2019-07-25T13:25:06Z</time>
</trkpt>
<trkpt lat="44.8957046" lon="5.3695772">
<ele>1050.56</ele>
<time>2019-07-25T13:25:07Z</time>
</trkpt>
<trkpt lat="44.8957048" lon="5.3695774">
<ele>1050.55</ele>
<time>2019-07-25T13:25:08Z</time>
</trkpt>
<trkpt lat="44.8957048" lon="5.3695774">
<ele>1050.55</ele>
<time>2019-07-25T13:25:09Z</time>
</trkpt>
<trkpt lat="44.8957048" lon="5.3695775">
<ele>1050.55</ele>
<time>2019-07-25T13:25:10Z</time>
</trkpt>
<trkpt lat="44.8957047" lon="5.3695774">
<ele>1050.54</ele>
<time>2019-07-25T13:25:11Z</time>
</trkpt>
<trkpt lat="44.8957027" lon="5.3695762">
<ele>1050.54</ele>
<time>2019-07-25T13:25:12Z</time>
</trkpt>
<trkpt lat="44.8957024" lon="5.3695761">
<ele>1050.54</ele>
<time>2019-07-25T13:25:13Z</time>
</trkpt>
<trkpt lat="44.8957027" lon="5.3695763">
<ele>1050.53</ele>
<time>2019-07-25T13:25:14Z</time>
</trkpt>
<trkpt lat="44.8957030" lon="5.3695765">
<ele>1050.53</ele>
<time>2019-07-25T13:25:15Z</time>
</trkpt>
<trkpt lat="44.8957031" lon="5.3695766">
<ele>1050.53</ele>
<time>2019-07-25T13:25:16Z</time>
</trkpt>
<trkpt lat="44.8957033" lon="5.3695768">
<ele>1050.52</ele>
<time>2019-07-25T13:25:17Z</time>
</trkpt>
<trkpt lat="44.8957034" lon="5.3695768">
<ele>1050.52</ele>
<time>2019-07-25T13:25:18Z</time>
</trkpt>
<trkpt lat="44.8957033" lon="5.3695768">
<ele>1050.52</ele>
<time>2019-07-25T13:25:19Z</time>
</trkpt>
<trkpt lat="44.8957033" lon="5.3695768">
<ele>1050.51</ele>
<time>2019-07-25T13:25:20Z</time>
</trkpt>
<trkpt lat="44.8957034" lon="5.3695769">
<ele>1050.51</ele>
<time>2019-07-25T13:25:21Z</time>
</trkpt>
<trkpt lat="44.8957033" lon="5.3695768">
<ele>1050.51</ele>
<time>2019-07-25T13:25:22Z</time>
</trkpt>
<trkpt lat="44.8957034" lon="5.3695769">
<ele>1050.50</ele>
<time>2019-07-25T13:25:23Z</time>
</trkpt>
<trkpt lat="44.8957034" lon="5.3695769">
<ele>1050.50</ele>
<time>2019-07-25T13:25:24Z</time>
</trkpt>
<trkpt lat="44.8957034" lon="5.3695768">
<ele>1050.50</ele>
<time>2019-07-25T13:25:25Z</time>
</trkpt>
<trkpt lat="44.8957028" lon="5.3695766">
<ele>1050.49</ele>
<time>2019-07-25T13:25:26Z</time>
</trkpt>
<trkpt lat="44.8957028" lon="5.3695766">
<ele>1050.49</ele>
<time>2019-07-25T13:25:27Z</time>
</trkpt>
<trkpt lat="44.8957027" lon="5.3695765">
<ele>1050.49</ele>
<time>2019-07-25T13:25:28Z</time>
</trkpt>
<trkpt lat="44.8957026" lon="5.3695765">
<ele>1050.48</ele>
<time>2019-07-25T13:25:29Z</time>
</trkpt>
<trkpt lat="44.8957023" lon="5.3695764">
<ele>1050.48</ele>
<time>2019-07-25T13:25:30Z</time>
</trkpt>
<trkpt lat="44.8957023" lon="5.3695765">
<ele>1050.47</ele>
<time>2019-07-25T13:25:31Z</time>
</trkpt>
<trkpt lat="44.8957022" lon="5.3695765">
<ele>1050.47</ele>
<time>2019-07-25T13:25:32Z</time>
</trkpt>
<trkpt lat="44.8957023" lon="5.3695766">
<ele>1050.47</ele>
<time>2019-07-25T13:25:33Z</time>
</trkpt>
<trkpt lat="44.8957021" lon="5.3695765">
<ele>1050.46</ele>
<time>2019-07-25T13:25:34Z</time>
</trkpt>
<trkpt lat="44.8957017" lon="5.3695763">
<ele>1050.46</ele>
<time>2019-07-25T13:25:35Z</time>
</trkpt>
<trkpt lat="44.8957012" lon="5.3695761">
<ele>1050.46</ele>
<time>2019-07-25T13:25:36Z</time>
</trkpt>
<trkpt lat="44.8957009" lon="5.3695759">
<ele>1050.46</ele>
<time>2019-07-25T13:25:37Z</time>
</trkpt>
<trkpt lat="44.8957007" lon="5.3695758">
<ele>1050.45</ele>
<time>2019-07-25T13:25:38Z</time>
</trkpt>
<trkpt lat="44.8956993" lon="5.3695750">
<ele>1050.45</ele>
<time>2019-07-25T13:25:39Z</time>
</trkpt>
<trkpt lat="44.8956976" lon="5.3695740">
<ele>1050.45</ele>
<time>2019-07-25T13:25:40Z</time>
</trkpt>
<trkpt lat="44.8956966" lon="5.3695735">
<ele>1050.44</ele>
<time>2019-07-25T13:25:41Z</time>
</trkpt>
<trkpt lat="44.8956955" lon="5.3695729">
<ele>1050.44</ele>
<time>2019-07-25T13:25:42Z</time>
</trkpt>
<trkpt lat="44.8956951" lon="5.3695726">
<ele>1050.44</ele>
<time>2019-07-25T13:25:43Z</time>
</trkpt>
<trkpt lat="44.8956946" lon="5.3695722">
<ele>1050.43</ele>
<time>2019-07-25T13:25:44Z</time>
</trkpt>
<trkpt lat="44.8956935" lon="5.3695714">
<ele>1050.43</ele>
<time>2019-07-25T13:25:45Z</time>
</trkpt>
<trkpt lat="44.8956929" lon="5.3695708">
<ele>1050.43</ele>
<time>2019-07-25T13:25:46Z</time>
</trkpt>
<trkpt lat="44.8956923" lon="5.3695700">
<ele>1050.42</ele>
<time>2019-07-25T13:25:47Z</time>
</trkpt>
<trkpt lat="44.8956922" lon="5.3695700">
<ele>1050.42</ele>
<time>2019-07-25T13:25:48Z</time>
</trkpt>
<trkpt lat="44.8956926" lon="5.3695701">
<ele>1050.42</ele>
<time>2019-07-25T13:25:49Z</time>
</trkpt>
<trkpt lat="44.8956923" lon="5.3695697">
<ele>1050.41</ele>
<time>2019-07-25T13:25:50Z</time>
</trkpt>
<trkpt lat="44.8956918" lon="5.3695694">
<ele>1050.41</ele>
<time>2019-07-25T13:25:51Z</time>
</trkpt>
<trkpt lat="44.8956914" lon="5.3695692">
<ele>1050.41</ele>
<time>2019-07-25T13:25:52Z</time>
</trkpt>
<trkpt lat="44.8956915" lon="5.3695695">
<ele>1050.41</ele>
<time>2019-07-25T13:25:53Z</time>
</trkpt>
<trkpt lat="44.8956916" lon="5.3695696">
<ele>1050.40</ele>
<time>2019-07-25T13:25:54Z</time>
</trkpt>
<trkpt lat="44.8956916" lon="5.3695696">
<ele>1050.40</ele>
<time>2019-07-25T13:25:55Z</time>
</trkpt>
<trkpt lat="44.8956916" lon="5.3695696">
<ele>1050.40</ele>
<time>2019-07-25T13:25:56Z</time>
</trkpt>
<trkpt lat="44.8956914" lon="5.3695696">
<ele>1050.40</ele>
<time>2019-07-25T13:25:57Z</time>
</trkpt>
<trkpt lat="44.8956917" lon="5.3695698">
<ele>1050.39</ele>
<time>2019-07-25T13:25:58Z</time>
</trkpt>
<trkpt lat="44.8956919" lon="5.3695699">
<ele>1050.39</ele>
<time>2019-07-25T13:25:59Z</time>
</trkpt>
<trkpt lat="44.8956919" lon="5.3695699">
<ele>1050.39</ele>
<time>2019-07-25T13:26:00Z</time>
</trkpt>
<trkpt lat="44.8956922" lon="5.3695701">
<ele>1050.39</ele>
<time>2019-07-25T13:26:01Z</time>
</trkpt>
<trkpt lat="44.8956922" lon="5.3695701">
<ele>1050.39</ele>
<time>2019-07-25T13:26:02Z</time>
</trkpt>
<trkpt lat="44.8956924" lon="5.3695705">
<ele>1050.39</ele>
<time>2019-07-25T13:26:03Z</time>
</trkpt>
<trkpt lat="44.8956920" lon="5.3695702">
<ele>1050.39</ele>
<time>2019-07-25T13:26:04Z</time>
</trkpt>
<trkpt lat="44.8956921" lon="5.3695703">
<ele>1050.39</ele>
<time>2019-07-25T13:26:05Z</time>
</trkpt>
<trkpt lat="44.8956922" lon="5.3695705">
<ele>1050.39</ele>
<time>2019-07-25T13:26:06Z</time>
</trkpt>
<trkpt lat="44.8956928" lon="5.3695709">
<ele>1050.39</ele>
<time>2019-07-25T13:26:07Z</time>
</trkpt>
<trkpt lat="44.8956926" lon="5.3695708">
<ele>1050.39</ele>
<time>2019-07-25T13:26:08Z</time>
</trkpt>
<trkpt lat="44.8956922" lon="5.3695706">
<ele>1050.38</ele>
<time>2019-07-25T13:26:09Z</time>
</trkpt>
<trkpt lat="44.8956936" lon="5.3695714">
<ele>1050.38</ele>
<time>2019-07-25T13:26:10Z</time>
</trkpt>
<trkpt lat="44.8956939" lon="5.3695715">
<ele>1050.38</ele>
<time>2019-07-25T13:26:11Z</time>
</trkpt>
<trkpt lat="44.8956939" lon="5.3695714">
<ele>1050.38</ele>
<time>2019-07-25T13:26:12Z</time>
</trkpt>
<trkpt lat="44.8956937" lon="5.3695712">
<ele>1050.38</ele>
<time>2019-07-25T13:26:13Z</time>
</trkpt>
<trkpt lat="44.8956938" lon="5.3695712">
<ele>1050.38</ele>
<time>2019-07-25T13:26:14Z</time>
</trkpt>
<trkpt lat="44.8956937" lon="5.3695711">
<ele>1050.38</ele>
<time>2019-07-25T13:26:15Z</time>
</trkpt>
<trkpt lat="44.8956937" lon="5.3695713">
<ele>1050.38</ele>
<time>2019-07-25T13:26:16Z</time>
</trkpt>
<trkpt lat="44.8956938" lon="5.3695714">
<ele>1050.38</ele>
<time>2019-07-25T13:26:17Z</time>
</trkpt>
<trkpt lat="44.8956941" lon="5.3695715">
<ele>1050.38</ele>
<time>2019-07-25T13:26:18Z</time>
</trkpt>
<trkpt lat="44.8956940" lon="5.3695714">
<ele>1050.38</ele>
<time>2019-07-25T13:26:19Z</time>
</trkpt>
<trkpt lat="44.8956935" lon="5.3695710">
<ele>1050.38</ele>
<time>2019-07-25T13:26:20Z</time>
</trkpt>
<trkpt lat="44.8956935" lon="5.3695709">
<ele>1050.38</ele>
<time>2019-07-25T13:26:21Z</time>
</trkpt>
<trkpt lat="44.8956937" lon="5.3695709">
<ele>1050.37</ele>
<time>2019-07-25T13:26:22Z</time>
</trkpt>
<trkpt lat="44.8956941" lon="5.3695712">
<ele>1050.37</ele>
<time>2019-07-25T13:26:23Z</time>
</trkpt>
<trkpt lat="44.8956943" lon="5.3695711">
<ele>1050.37</ele>
<time>2019-07-25T13:26:24Z</time>
</trkpt>
<trkpt lat="44.8956947" lon="5.3695714">
<ele>1050.37</ele>
<time>2019-07-25T13:26:25Z</time>
</trkpt>
<trkpt lat="44.8956957" lon="5.3695722">
<ele>1050.37</ele>
<time>2019-07-25T13:26:26Z</time>
</trkpt>
<trkpt lat="44.8956968" lon="5.3695723">
<ele>1050.37</ele>
<time>2019-07-25T13:26:27Z</time>
</trkpt>
<trkpt lat="44.8956974" lon="5.3695727">
<ele>1050.36</ele>
<time>2019-07-25T13:26:28Z</time>
</trkpt>
<trkpt lat="44.8956968" lon="5.3695725">
<ele>1050.36</ele>
<time>2019-07-25T13:26:29Z</time>
</trkpt>
<trkpt lat="44.8956972" lon="5.3695725">
<ele>1050.36</ele>
<time>2019-07-25T13:26:30Z</time>
</trkpt>
<trkpt lat="44.8956970" lon="5.3695722">
<ele>1050.36</ele>
<time>2019-07-25T13:26:31Z</time>
</trkpt>
<trkpt lat="44.8956977" lon="5.3695725">
<ele>1050.35</ele>
<time>2019-07-25T13:26:32Z</time>
</trkpt>
<trkpt lat="44.8956978" lon="5.3695724">
<ele>1050.35</ele>
<time>2019-07-25T13:26:33Z</time>
</trkpt>
<trkpt lat="44.8956975" lon="5.3695724">
<ele>1050.35</ele>
<time>2019-07-25T13:26:34Z</time>
</trkpt>
<trkpt lat="44.8957025" lon="5.3695741">
<ele>1050.32</ele>
<time>2019-07-25T13:26:35Z</time>
</trkpt>
<trkpt lat="44.8957015" lon="5.3695738">
<ele>1050.32</ele>
<time>2019-07-25T13:26:36Z</time>
</trkpt>
<trkpt lat="44.8957022" lon="5.3695732">
<ele>1050.32</ele>
<time>2019-07-25T13:26:37Z</time>
</trkpt>
<trkpt lat="44.8957026" lon="5.3695729">
<ele>1050.32</ele>
<time>2019-07-25T13:26:38Z</time>
</trkpt>
<trkpt lat="44.8957026" lon="5.3695730">
<ele>1050.31</ele>
<time>2019-07-25T13:26:39Z</time>
</trkpt>
<trkpt lat="44.8957027" lon="5.3695730">
<ele>1050.31</ele>
<time>2019-07-25T13:26:40Z</time>
</trkpt>
<trkpt lat="44.8957021" lon="5.3695728">
<ele>1050.31</ele>
<time>2019-07-25T13:26:41Z</time>
</trkpt>
<trkpt lat="44.8957022" lon="5.3695729">
<ele>1050.30</ele>
<time>2019-07-25T13:26:42Z</time>
</trkpt>
<trkpt lat="44.8957031" lon="5.3695730">
<ele>1050.30</ele>
<time>2019-07-25T13:26:43Z</time>
</trkpt>
<trkpt lat="44.8957029" lon="5.3695730">
<ele>1050.30</ele>
<time>2019-07-25T13:26:44Z</time>
</trkpt>
<trkpt lat="44.8957035" lon="5.3695741">
<ele>1050.29</ele>
<time>2019-07-25T13:26:45Z</time>
</trkpt>
<trkpt lat="44.8957033" lon="5.3695741">
<ele>1050.29</ele>
<time>2019-07-25T13:26:46Z</time>
</trkpt>
<trkpt lat="44.8957032" lon="5.3695743">
<ele>1050.29</ele>
<time>2019-07-25T13:26:47Z</time>
</trkpt>
<trkpt lat="44.8957031" lon="5.3695742">
<ele>1050.29</ele>
<time>2019-07-25T13:26:48Z</time>
</trkpt>
<trkpt lat="44.8957036" lon="5.3695738">
<ele>1050.28</ele>
<time>2019-07-25T13:26:49Z</time>
</trkpt>
<trkpt lat="44.8957036" lon="5.3695738">
<ele>1050.28</ele>
<time>2019-07-25T13:26:50Z</time>
</trkpt>
<trkpt lat="44.8957033" lon="5.3695736">
<ele>1050.28</ele>
<time>2019-07-25T13:26:51Z</time>
</trkpt>
<trkpt lat="44.8957035" lon="5.3695736">
<ele>1050.27</ele>
<time>2019-07-25T13:26:52Z</time>
</trkpt>
<trkpt lat="44.8957039" lon="5.3695735">
<ele>1050.27</ele>
<time>2019-07-25T13:26:53Z</time>
</trkpt>
<trkpt lat="44.8957039" lon="5.3695728">
<ele>1050.27</ele>
<time>2019-07-25T13:26:54Z</time>
</trkpt>
<trkpt lat="44.8957035" lon="5.3695724">
<ele>1050.27</ele>
<time>2019-07-25T13:26:55Z</time>
</trkpt>
<trkpt lat="44.8957031" lon="5.3695722">
<ele>1050.26</ele>
<time>2019-07-25T13:26:56Z</time>
</trkpt>
<trkpt lat="44.8957031" lon="5.3695712">
<ele>1050.26</ele>
<time>2019-07-25T13:26:57Z</time>
</trkpt>
<trkpt lat="44.8957028" lon="5.3695711">
<ele>1050.26</ele>
<time>2019-07-25T13:26:58Z</time>
</trkpt>
<trkpt lat="44.8957029" lon="5.3695706">
<ele>1050.25</ele>
<time>2019-07-25T13:26:59Z</time>
</trkpt>
<trkpt lat="44.8957027" lon="5.3695702">
<ele>1050.25</ele>
<time>2019-07-25T13:27:00Z</time>
</trkpt>
<trkpt lat="44.8957033" lon="5.3695682">
<ele>1050.25</ele>
<time>2019-07-25T13:27:01Z</time>
</trkpt>
<trkpt lat="44.8957030" lon="5.3695673">
<ele>1050.25</ele>
<time>2019-07-25T13:27:02Z</time>
</trkpt>
<trkpt lat="44.8957027" lon="5.3695666">
<ele>1050.24</ele>
<time>2019-07-25T13:27:03Z</time>
</trkpt>
<trkpt lat="44.8957024" lon="5.3695664">
<ele>1050.24</ele>
<time>2019-07-25T13:27:04Z</time>
</trkpt>
<trkpt lat="44.8957015" lon="5.3695660">
<ele>1050.24</ele>
<time>2019-07-25T13:27:05Z</time>
</trkpt>
<trkpt lat="44.8957015" lon="5.3695660">
<ele>1050.24</ele>
<time>2019-07-25T13:27:06Z</time>
</trkpt>
<trkpt lat="44.8957017" lon="5.3695660">
<ele>1050.23</ele>
<time>2019-07-25T13:27:07Z</time>
</trkpt>
<trkpt lat="44.8957016" lon="5.3695660">
<ele>1050.23</ele>
<time>2019-07-25T13:27:08Z</time>
</trkpt>
<trkpt lat="44.8957015" lon="5.3695658">
<ele>1050.23</ele>
<time>2019-07-25T13:27:09Z</time>
</trkpt>
<trkpt lat="44.8957013" lon="5.3695656">
<ele>1050.23</ele>
<time>2019-07-25T13:27:10Z</time>
</trkpt>
<trkpt lat="44.8957024" lon="5.3695665">
<ele>1050.23</ele>
<time>2019-07-25T13:27:11Z</time>
</trkpt>
<trkpt lat="44.8957020" lon="5.3695664">
<ele>1050.22</ele>
<time>2019-07-25T13:27:12Z</time>
</trkpt>
<trkpt lat="44.8957020" lon="5.3695665">
<ele>1050.22</ele>
<time>2019-07-25T13:27:13Z</time>
</trkpt>
<trkpt lat="44.8957018" lon="5.3695664">
<ele>1050.22</ele>
<time>2019-07-25T13:27:14Z</time>
</trkpt>
<trkpt lat="44.8957019" lon="5.3695664">
<ele>1050.22</ele>
<time>2019-07-25T13:27:15Z</time>
</trkpt>
<trkpt lat="44.8957037" lon="5.3695671">
<ele>1050.22</ele>
<time>2019-07-25T13:27:16Z</time>
</trkpt>
<trkpt lat="44.8957041" lon="5.3695673">
<ele>1050.21</ele>
<time>2019-07-25T13:27:17Z</time>
</trkpt>
<trkpt lat="44.8957045" lon="5.3695675">
<ele>1050.21</ele>
<time>2019-07-25T13:27:18Z</time>
</trkpt>
<trkpt lat="44.8957045" lon="5.3695674">
<ele>1050.21</ele>
<time>2019-07-25T13:27:19Z</time>
</trkpt>
<trkpt lat="44.8957044" lon="5.3695673">
<ele>1050.21</ele>
<time>2019-07-25T13:27:20Z</time>
</trkpt>
<trkpt lat="44.8957042" lon="5.3695674">
<ele>1050.21</ele>
<time>2019-07-25T13:27:21Z</time>
</trkpt>
<trkpt lat="44.8957039" lon="5.3695676">
<ele>1050.20</ele>
<time>2019-07-25T13:27:22Z</time>
</trkpt>
<trkpt lat="44.8957033" lon="5.3695674">
<ele>1050.20</ele>
<time>2019-07-25T13:27:23Z</time>
</trkpt>
<trkpt lat="44.8957025" lon="5.3695672">
<ele>1050.20</ele>
<time>2019-07-25T13:27:24Z</time>
</trkpt>
<trkpt lat="44.8957021" lon="5.3695671">
<ele>1050.20</ele>
<time>2019-07-25T13:27:25Z</time>
</trkpt>
<trkpt lat="44.8957017" lon="5.3695658">
<ele>1050.20</ele>
<time>2019-07-25T13:27:26Z</time>
</trkpt>
<trkpt lat="44.8957015" lon="5.3695658">
<ele>1050.19</ele>
<time>2019-07-25T13:27:27Z</time>
</trkpt>
<trkpt lat="44.8957013" lon="5.3695664">
<ele>1050.19</ele>
<time>2019-07-25T13:27:28Z</time>
</trkpt>
<trkpt lat="44.8957008" lon="5.3695661">
<ele>1050.19</ele>
<time>2019-07-25T13:27:29Z</time>
</trkpt>
<trkpt lat="44.8957010" lon="5.3695662">
<ele>1050.18</ele>
<time>2019-07-25T13:27:30Z</time>
</trkpt>
<trkpt lat="44.8957010" lon="5.3695661">
<ele>1050.18</ele>
<time>2019-07-25T13:27:31Z</time>
</trkpt>
<trkpt lat="44.8956995" lon="5.3695657">
<ele>1050.18</ele>
<time>2019-07-25T13:27:32Z</time>
</trkpt>
<trkpt lat="44.8957002" lon="5.3695666">
<ele>1050.18</ele>
<time>2019-07-25T13:27:33Z</time>
</trkpt>
<trkpt lat="44.8956995" lon="5.3695666">
<ele>1050.17</ele>
<time>2019-07-25T13:27:34Z</time>
</trkpt>
<trkpt lat="44.8956999" lon="5.3695672">
<ele>1050.17</ele>
<time>2019-07-25T13:27:35Z</time>
</trkpt>
<trkpt lat="44.8956993" lon="5.3695676">
<ele>1050.17</ele>
<time>2019-07-25T13:27:36Z</time>
</trkpt>
<trkpt lat="44.8956995" lon="5.3695675">
<ele>1050.16</ele>
<time>2019-07-25T13:27:37Z</time>
</trkpt>
<trkpt lat="44.8956980" lon="5.3695673">
<ele>1050.16</ele>
<time>2019-07-25T13:27:38Z</time>
</trkpt>
<trkpt lat="44.8956989" lon="5.3695679">
<ele>1050.16</ele>
<time>2019-07-25T13:27:39Z</time>
</trkpt>
<trkpt lat="44.8956997" lon="5.3695684">
<ele>1050.15</ele>
<time>2019-07-25T13:27:40Z</time>
</trkpt>
<trkpt lat="44.8956994" lon="5.3695693">
<ele>1050.15</ele>
<time>2019-07-25T13:27:41Z</time>
</trkpt>
<trkpt lat="44.8957011" lon="5.3695697">
<ele>1050.14</ele>
<time>2019-07-25T13:27:42Z</time>
</trkpt>
<trkpt lat="44.8957047" lon="5.3695669">
<ele>1050.14</ele>
<time>2019-07-25T13:27:43Z</time>
</trkpt>
<trkpt lat="44.8957082" lon="5.3695695">
<ele>1050.14</ele>
<time>2019-07-25T13:27:44Z</time>
</trkpt>
<trkpt lat="44.8957137" lon="5.3695691">
<ele>1050.09</ele>
<time>2019-07-25T13:27:45Z</time>
</trkpt>
<trkpt lat="44.8957144" lon="5.3695699">
<ele>1050.09</ele>
<time>2019-07-25T13:27:46Z</time>
</trkpt>
<trkpt lat="44.8957151" lon="5.3695696">
<ele>1050.08</ele>
<time>2019-07-25T13:27:47Z</time>
</trkpt>
<trkpt lat="44.8957142" lon="5.3695691">
<ele>1050.08</ele>
<time>2019-07-25T13:27:48Z</time>
</trkpt>
<trkpt lat="44.8957144" lon="5.3695699">
<ele>1050.08</ele>
<time>2019-07-25T13:27:49Z</time>
</trkpt>
<trkpt lat="44.8957139" lon="5.3695699">
<ele>1050.07</ele>
<time>2019-07-25T13:27:50Z</time>
</trkpt>
<trkpt lat="44.8957135" lon="5.3695700">
<ele>1050.07</ele>
<time>2019-07-25T13:27:51Z</time>
</trkpt>
<trkpt lat="44.8957142" lon="5.3695707">
<ele>1050.06</ele>
<time>2019-07-25T13:27:52Z</time>
</trkpt>
<trkpt lat="44.8957146" lon="5.3695696">
<ele>1050.06</ele>
<time>2019-07-25T13:27:53Z</time>
</trkpt>
<trkpt lat="44.8957143" lon="5.3695698">
<ele>1050.05</ele>
<time>2019-07-25T13:27:54Z</time>
</trkpt>
<trkpt lat="44.8957142" lon="5.3695699">
<ele>1050.05</ele>
<time>2019-07-25T13:27:55Z</time>
</trkpt>
<trkpt lat="44.8957145" lon="5.3695699">
<ele>1050.04</ele>
<time>2019-07-25T13:27:56Z</time>
</trkpt>
<trkpt lat="44.8957151" lon="5.3695700">
<ele>1050.04</ele>
<time>2019-07-25T13:27:57Z</time>
</trkpt>
<trkpt lat="44.8957151" lon="5.3695698">
<ele>1050.03</ele>
<time>2019-07-25T13:27:58Z</time>
</trkpt>
<trkpt lat="44.8957150" lon="5.3695697">
<ele>1050.02</ele>
<time>2019-07-25T13:27:59Z</time>
</trkpt>
<trkpt lat="44.8957148" lon="5.3695697">
<ele>1050.02</ele>
<time>2019-07-25T13:28:00Z</time>
</trkpt>
<trkpt lat="44.8957147" lon="5.3695696">
<ele>1050.01</ele>
<time>2019-07-25T13:28:01Z</time>
</trkpt>
<trkpt lat="44.8957149" lon="5.3695696">
<ele>1050.01</ele>
<time>2019-07-25T13:28:02Z</time>
</trkpt>
<trkpt lat="44.8957146" lon="5.3695696">
<ele>1050.00</ele>
<time>2019-07-25T13:28:03Z</time>
</trkpt>
<trkpt lat="44.8957146" lon="5.3695694">
<ele>1050.00</ele>
<time>2019-07-25T13:28:04Z</time>
</trkpt>
<trkpt lat="44.8957145" lon="5.3695693">
<ele>1049.99</ele>
<time>2019-07-25T13:28:05Z</time>
</trkpt>
<trkpt lat="44.8957131" lon="5.3695688">
<ele>1049.99</ele>
<time>2019-07-25T13:28:06Z</time>
</trkpt>
<trkpt lat="44.8957136" lon="5.3695693">
<ele>1049.98</ele>
<time>2019-07-25T13:28:07Z</time>
</trkpt>
<trkpt lat="44.8957135" lon="5.3695692">
<ele>1049.97</ele>
<time>2019-07-25T13:28:08Z</time>
</trkpt>
<trkpt lat="44.8957131" lon="5.3695693">
<ele>1049.97</ele>
<time>2019-07-25T13:28:09Z</time>
</trkpt>
<trkpt lat="44.8957124" lon="5.3695696">
<ele>1049.96</ele>
<time>2019-07-25T13:28:10Z</time>
</trkpt>
<trkpt lat="44.8957107" lon="5.3695691">
<ele>1049.96</ele>
<time>2019-07-25T13:28:11Z</time>
</trkpt>
<trkpt lat="44.8957110" lon="5.3695716">
<ele>1049.95</ele>
<time>2019-07-25T13:28:12Z</time>
</trkpt>
<trkpt lat="44.8957046" lon="5.3695693">
<ele>1049.95</ele>
<time>2019-07-25T13:28:13Z</time>
</trkpt>
<trkpt lat="44.8957031" lon="5.3695698">
<ele>1049.90</ele>
<time>2019-07-25T13:28:14Z</time>
</trkpt>
<trkpt lat="44.8957028" lon="5.3695698">
<ele>1049.89</ele>
<time>2019-07-25T13:28:15Z</time>
</trkpt>
<trkpt lat="44.8957022" lon="5.3695700">
<ele>1049.89</ele>
<time>2019-07-25T13:28:16Z</time>
</trkpt>
<trkpt lat="44.8957020" lon="5.3695700">
<ele>1049.88</ele>
<time>2019-07-25T13:28:17Z</time>
</trkpt>
<trkpt lat="44.8957019" lon="5.3695704">
<ele>1049.88</ele>
<time>2019-07-25T13:28:18Z</time>
</trkpt>
<trkpt lat="44.8957016" lon="5.3695705">
<ele>1049.88</ele>
<time>2019-07-25T13:28:19Z</time>
</trkpt>
<trkpt lat="44.8957007" lon="5.3695705">
<ele>1049.87</ele>
<time>2019-07-25T13:28:20Z</time>
</trkpt>
<trkpt lat="44.8957008" lon="5.3695708">
<ele>1049.87</ele>
<time>2019-07-25T13:28:21Z</time>
</trkpt>
<trkpt lat="44.8957020" lon="5.3695717">
<ele>1049.86</ele>
<time>2019-07-25T13:28:22Z</time>
</trkpt>
<trkpt lat="44.8957015" lon="5.3695717">
<ele>1049.86</ele>
<time>2019-07-25T13:28:23Z</time>
</trkpt>
<trkpt lat="44.8957011" lon="5.3695718">
<ele>1049.86</ele>
<time>2019-07-25T13:28:24Z</time>
</trkpt>
<trkpt lat="44.8957010" lon="5.3695718">
<ele>1049.85</ele>
<time>2019-07-25T13:28:25Z</time>
</trkpt>
<trkpt lat="44.8957009" lon="5.3695717">
<ele>1049.85</ele>
<time>2019-07-25T13:28:26Z</time>
</trkpt>
<trkpt lat="44.8957010" lon="5.3695717">
<ele>1049.85</ele>
<time>2019-07-25T13:28:27Z</time>
</trkpt>
<trkpt lat="44.8957011" lon="5.3695718">
<ele>1049.84</ele>
<time>2019-07-25T13:28:28Z</time>
</trkpt>
<trkpt lat="44.8957011" lon="5.3695719">
<ele>1049.84</ele>
<time>2019-07-25T13:28:29Z</time>
</trkpt>
<trkpt lat="44.8957012" lon="5.3695719">
<ele>1049.83</ele>
<time>2019-07-25T13:28:30Z</time>
</trkpt>
<trkpt lat="44.8957010" lon="5.3695719">
<ele>1049.83</ele>
<time>2019-07-25T13:28:31Z</time>
</trkpt>
<trkpt lat="44.8957012" lon="5.3695720">
<ele>1049.83</ele>
<time>2019-07-25T13:28:32Z</time>
</trkpt>
<trkpt lat="44.8957008" lon="5.3695718">
<ele>1049.82</ele>
<time>2019-07-25T13:28:33Z</time>
</trkpt>
<trkpt lat="44.8957007" lon="5.3695719">
<ele>1049.82</ele>
<time>2019-07-25T13:28:34Z</time>
</trkpt>
<trkpt lat="44.8957003" lon="5.3695720">
<ele>1049.82</ele>
<time>2019-07-25T13:28:35Z</time>
</trkpt>
<trkpt lat="44.8957000" lon="5.3695721">
<ele>1049.81</ele>
<time>2019-07-25T13:28:36Z</time>
</trkpt>
<trkpt lat="44.8956999" lon="5.3695724">
<ele>1049.81</ele>
<time>2019-07-25T13:28:37Z</time>
</trkpt>
<trkpt lat="44.8956995" lon="5.3695726">
<ele>1049.80</ele>
<time>2019-07-25T13:28:38Z</time>
</trkpt>
<trkpt lat="44.8956993" lon="5.3695729">
<ele>1049.80</ele>
<time>2019-07-25T13:28:39Z</time>
</trkpt>
<trkpt lat="44.8956992" lon="5.3695730">
<ele>1049.80</ele>
<time>2019-07-25T13:28:40Z</time>
</trkpt>
<trkpt lat="44.8956989" lon="5.3695736">
<ele>1049.79</ele>
<time>2019-07-25T13:28:41Z</time>
</trkpt>
<trkpt lat="44.8956987" lon="5.3695739">
<ele>1049.79</ele>
<time>2019-07-25T13:28:42Z</time>
</trkpt>
<trkpt lat="44.8956984" lon="5.3695744">
<ele>1049.79</ele>
<time>2019-07-25T13:28:43Z</time>
</trkpt>
<trkpt lat="44.8956970" lon="5.3695740">
<ele>1049.79</ele>
<time>2019-07-25T13:28:44Z</time>
</trkpt>
<trkpt lat="44.8956967" lon="5.3695740">
<ele>1049.78</ele>
<time>2019-07-25T13:28:45Z</time>
</trkpt>
<trkpt lat="44.8956967" lon="5.3695740">
<ele>1049.78</ele>
<time>2019-07-25T13:28:46Z</time>
</trkpt>
<trkpt lat="44.8956969" lon="5.3695744">
<ele>1049.78</ele>
<time>2019-07-25T13:28:47Z</time>
</trkpt>
<trkpt lat="44.8956973" lon="5.3695747">
<ele>1049.77</ele>
<time>2019-07-25T13:28:48Z</time>
</trkpt>
<trkpt lat="44.8956972" lon="5.3695748">
<ele>1049.77</ele>
<time>2019-07-25T13:28:49Z</time>
</trkpt>
<trkpt lat="44.8956970" lon="5.3695749">
<ele>1049.77</ele>
<time>2019-07-25T13:28:50Z</time>
</trkpt>
<trkpt lat="44.8956969" lon="5.3695750">
<ele>1049.76</ele>
<time>2019-07-25T13:28:51Z</time>
</trkpt>
<trkpt lat="44.8956966" lon="5.3695750">
<ele>1049.76</ele>
<time>2019-07-25T13:28:52Z</time>
</trkpt>
<trkpt lat="44.8956967" lon="5.3695751">
<ele>1049.76</ele>
<time>2019-07-25T13:28:53Z</time>
</trkpt>
<trkpt lat="44.8956968" lon="5.3695751">
<ele>1049.75</ele>
<time>2019-07-25T13:28:54Z</time>
</trkpt>
<trkpt lat="44.8956968" lon="5.3695751">
<ele>1049.75</ele>
<time>2019-07-25T13:28:55Z</time>
</trkpt>
<trkpt lat="44.8956971" lon="5.3695752">
<ele>1049.74</ele>
<time>2019-07-25T13:28:56Z</time>
</trkpt>
<trkpt lat="44.8956975" lon="5.3695754">
<ele>1049.74</ele>
<time>2019-07-25T13:28:57Z</time>
</trkpt>
<trkpt lat="44.8956985" lon="5.3695757">
<ele>1049.74</ele>
<time>2019-07-25T13:28:58Z</time>
</trkpt>
<trkpt lat="44.8956985" lon="5.3695756">
<ele>1049.73</ele>
<time>2019-07-25T13:28:59Z</time>
</trkpt>
<trkpt lat="44.8956983" lon="5.3695756">
<ele>1049.73</ele>
<time>2019-07-25T13:29:00Z</time>
</trkpt>
<trkpt lat="44.8956980" lon="5.3695754">
<ele>1049.72</ele>
<time>2019-07-25T13:29:01Z</time>
</trkpt>
<trkpt lat="44.8956980" lon="5.3695755">
<ele>1049.72</ele>
<time>2019-07-25T13:29:02Z</time>
</trkpt>
<trkpt lat="44.8956979" lon="5.3695755">
<ele>1049.72</ele>
<time>2019-07-25T13:29:03Z</time>
</trkpt>
<trkpt lat="44.8956985" lon="5.3695753">
<ele>1049.71</ele>
<time>2019-07-25T13:29:04Z</time>
</trkpt>
<trkpt lat="44.8956977" lon="5.3695752">
<ele>1049.71</ele>
<time>2019-07-25T13:29:05Z</time>
</trkpt>
<trkpt lat="44.8956977" lon="5.3695751">
<ele>1049.70</ele>
<time>2019-07-25T13:29:06Z</time>
</trkpt>
<trkpt lat="44.8956975" lon="5.3695750">
<ele>1049.70</ele>
<time>2019-07-25T13:29:07Z</time>
</trkpt>
<trkpt lat="44.8956977" lon="5.3695751">
<ele>1049.69</ele>
<time>2019-07-25T13:29:08Z</time>
</trkpt>
<trkpt lat="44.8957002" lon="5.3695758">
<ele>1049.69</ele>
<time>2019-07-25T13:29:09Z</time>
</trkpt>
<trkpt lat="44.8956995" lon="5.3695750">
<ele>1049.69</ele>
<time>2019-07-25T13:29:10Z</time>
</trkpt>
<trkpt lat="44.8956997" lon="5.3695752">
<ele>1049.68</ele>
<time>2019-07-25T13:29:11Z</time>
</trkpt>
<trkpt lat="44.8956998" lon="5.3695752">
<ele>1049.68</ele>
<time>2019-07-25T13:29:12Z</time>
</trkpt>
<trkpt lat="44.8956997" lon="5.3695752">
<ele>1049.67</ele>
<time>2019-07-25T13:29:13Z</time>
</trkpt>
<trkpt lat="44.8956992" lon="5.3695753">
<ele>1049.67</ele>
<time>2019-07-25T13:29:14Z</time>
</trkpt>
<trkpt lat="44.8956992" lon="5.3695749">
<ele>1049.66</ele>
<time>2019-07-25T13:29:15Z</time>
</trkpt>
<trkpt lat="44.8956990" lon="5.3695748">
<ele>1049.66</ele>
<time>2019-07-25T13:29:16Z</time>
</trkpt>
<trkpt lat="44.8956986" lon="5.3695748">
<ele>1049.66</ele>
<time>2019-07-25T13:29:17Z</time>
</trkpt>
<trkpt lat="44.8956971" lon="5.3695737">
<ele>1049.65</ele>
<time>2019-07-25T13:29:18Z</time>
</trkpt>
<trkpt lat="44.8956970" lon="5.3695738">
<ele>1049.65</ele>
<time>2019-07-25T13:29:19Z</time>
</trkpt>
<trkpt lat="44.8956971" lon="5.3695740">
<ele>1049.64</ele>
<time>2019-07-25T13:29:20Z</time>
</trkpt>
<trkpt lat="44.8956966" lon="5.3695738">
<ele>1049.64</ele>
<time>2019-07-25T13:29:21Z</time>
</trkpt>
<trkpt lat="44.8956966" lon="5.3695738">
<ele>1049.63</ele>
<time>2019-07-25T13:29:22Z</time>
</trkpt>
<trkpt lat="44.8956969" lon="5.3695739">
<ele>1049.63</ele>
<time>2019-07-25T13:29:23Z</time>
</trkpt>
<trkpt lat="44.8956969" lon="5.3695739">
<ele>1049.63</ele>
<time>2019-07-25T13:29:24Z</time>
</trkpt>
<trkpt lat="44.8956971" lon="5.3695739">
<ele>1049.62</ele>
<time>2019-07-25T13:29:25Z</time>
</trkpt>
<trkpt lat="44.8956969" lon="5.3695737">
<ele>1049.62</ele>
<time>2019-07-25T13:29:26Z</time>
</trkpt>
<trkpt lat="44.8956971" lon="5.3695738">
<ele>1049.61</ele>
<time>2019-07-25T13:29:27Z</time>
</trkpt>
<trkpt lat="44.8956974" lon="5.3695738">
<ele>1049.61</ele>
<time>2019-07-25T13:29:28Z</time>
</trkpt>
<trkpt lat="44.8956973" lon="5.3695738">
<ele>1049.60</ele>
<time>2019-07-25T13:29:29Z</time>
</trkpt>
<trkpt lat="44.8956969" lon="5.3695739">
<ele>1049.60</ele>
<time>2019-07-25T13:29:30Z</time>
</trkpt>
<trkpt lat="44.8956965" lon="5.3695737">
<ele>1049.60</ele>
<time>2019-07-25T13:29:31Z</time>
</trkpt>
<trkpt lat="44.8956960" lon="5.3695736">
<ele>1049.59</ele>
<time>2019-07-25T13:29:32Z</time>
</trkpt>
<trkpt lat="44.8956953" lon="5.3695732">
<ele>1049.59</ele>
<time>2019-07-25T13:29:33Z</time>
</trkpt>
<trkpt lat="44.8956956" lon="5.3695733">
<ele>1049.58</ele>
<time>2019-07-25T13:29:34Z</time>
</trkpt>
<trkpt lat="44.8956953" lon="5.3695732">
<ele>1049.58</ele>
<time>2019-07-25T13:29:35Z</time>
</trkpt>
<trkpt lat="44.8956949" lon="5.3695732">
<ele>1049.57</ele>
<time>2019-07-25T13:29:36Z</time>
</trkpt>
<trkpt lat="44.8956942" lon="5.3695743">
<ele>1049.57</ele>
<time>2019-07-25T13:29:37Z</time>
</trkpt>
<trkpt lat="44.8956935" lon="5.3695741">
<ele>1049.56</ele>
<time>2019-07-25T13:29:38Z</time>
</trkpt>
<trkpt lat="44.8956932" lon="5.3695742">
<ele>1049.56</ele>
<time>2019-07-25T13:29:39Z</time>
</trkpt>
<trkpt lat="44.8956925" lon="5.3695740">
<ele>1049.55</ele>
<time>2019-07-25T13:29:40Z</time>
</trkpt>
<trkpt lat="44.8956928" lon="5.3695739">
<ele>1049.55</ele>
<time>2019-07-25T13:29:41Z</time>
</trkpt>
<trkpt lat="44.8956898" lon="5.3695742">
<ele>1049.54</ele>
<time>2019-07-25T13:29:42Z</time>
</trkpt>
<trkpt lat="44.8956898" lon="5.3695747">
<ele>1049.54</ele>
<time>2019-07-25T13:29:43Z</time>
</trkpt>
<trkpt lat="44.8956894" lon="5.3695746">
<ele>1049.53</ele>
<time>2019-07-25T13:29:44Z</time>
</trkpt>
<trkpt lat="44.8956884" lon="5.3695752">
<ele>1049.53</ele>
<time>2019-07-25T13:29:45Z</time>
</trkpt>
<trkpt lat="44.8956882" lon="5.3695754">
<ele>1049.52</ele>
<time>2019-07-25T13:29:46Z</time>
</trkpt>
<trkpt lat="44.8956872" lon="5.3695752">
<ele>1049.52</ele>
<time>2019-07-25T13:29:47Z</time>
</trkpt>
<trkpt lat="44.8957019" lon="5.3695837">
<ele>1049.47</ele>
<time>2019-07-25T13:29:48Z</time>
</trkpt>
<trkpt lat="44.8957012" lon="5.3695854">
<ele>1049.41</ele>
<time>2019-07-25T13:29:49Z</time>
</trkpt>
<trkpt lat="44.8957032" lon="5.3695880">
<ele>1049.36</ele>
<time>2019-07-25T13:29:50Z</time>
</trkpt>
<trkpt lat="44.8957028" lon="5.3695884">
<ele>1049.36</ele>
<time>2019-07-25T13:29:51Z</time>
</trkpt>
<trkpt lat="44.8957014" lon="5.3695895">
<ele>1049.35</ele>
<time>2019-07-25T13:29:52Z</time>
</trkpt>
<trkpt lat="44.8957012" lon="5.3695894">
<ele>1049.35</ele>
<time>2019-07-25T13:29:53Z</time>
</trkpt>
<trkpt lat="44.8957012" lon="5.3695908">
<ele>1049.34</ele>
<time>2019-07-25T13:29:54Z</time>
</trkpt>
<trkpt lat="44.8957012" lon="5.3695908">
<ele>1049.33</ele>
<time>2019-07-25T13:29:55Z</time>
</trkpt>
<trkpt lat="44.8957013" lon="5.3695908">
<ele>1049.33</ele>
<time>2019-07-25T13:29:56Z</time>
</trkpt>
<trkpt lat="44.8957013" lon="5.3695913">
<ele>1049.32</ele>
<time>2019-07-25T13:29:57Z</time>
</trkpt>
<trkpt lat="44.8957004" lon="5.3695920">
<ele>1049.32</ele>
<time>2019-07-25T13:29:58Z</time>
</trkpt>
<trkpt lat="44.8956996" lon="5.3695918">
<ele>1049.31</ele>
<time>2019-07-25T13:29:59Z</time>
</trkpt>
<trkpt lat="44.8956994" lon="5.3695917">
<ele>1049.30</ele>
<time>2019-07-25T13:30:00Z</time>
</trkpt>
<trkpt lat="44.8956985" lon="5.3695919">
<ele>1049.30</ele>
<time>2019-07-25T13:30:01Z</time>
</trkpt>
<trkpt lat="44.8956977" lon="5.3695918">
<ele>1049.29</ele>
<time>2019-07-25T13:30:02Z</time>
</trkpt>
<trkpt lat="44.8956981" lon="5.3695960">
<ele>1049.23</ele>
<time>2019-07-25T13:30:03Z</time>
</trkpt>
<trkpt lat="44.8956971" lon="5.3695994">
<ele>1049.17</ele>
<time>2019-07-25T13:30:04Z</time>
</trkpt>
<trkpt lat="44.8956918" lon="5.3695968">
<ele>1049.11</ele>
<time>2019-07-25T13:30:05Z</time>
</trkpt>
<trkpt lat="44.8956912" lon="5.3695966">
<ele>1049.10</ele>
<time>2019-07-25T13:30:06Z</time>
</trkpt>
<trkpt lat="44.8956922" lon="5.3695974">
<ele>1049.09</ele>
<time>2019-07-25T13:30:07Z</time>
</trkpt>
<trkpt lat="44.8956935" lon="5.3695977">
<ele>1049.09</ele>
<time>2019-07-25T13:30:08Z</time>
</trkpt>
<trkpt lat="44.8956939" lon="5.3695983">
<ele>1049.08</ele>
<time>2019-07-25T13:30:09Z</time>
</trkpt>
<trkpt lat="44.8956943" lon="5.3695984">
<ele>1049.08</ele>
<time>2019-07-25T13:30:10Z</time>
</trkpt>
<trkpt lat="44.8956949" lon="5.3695982">
<ele>1049.07</ele>
<time>2019-07-25T13:30:11Z</time>
</trkpt>
<trkpt lat="44.8956950" lon="5.3695976">
<ele>1049.06</ele>
<time>2019-07-25T13:30:12Z</time>
</trkpt>
<trkpt lat="44.8956947" lon="5.3695972">
<ele>1049.06</ele>
<time>2019-07-25T13:30:13Z</time>
</trkpt>
<trkpt lat="44.8956944" lon="5.3695976">
<ele>1049.05</ele>
<time>2019-07-25T13:30:14Z</time>
</trkpt>
<trkpt lat="44.8956931" lon="5.3695971">
<ele>1049.04</ele>
<time>2019-07-25T13:30:15Z</time>
</trkpt>
<trkpt lat="44.8956934" lon="5.3695979">
<ele>1049.04</ele>
<time>2019-07-25T13:30:16Z</time>
</trkpt>
<trkpt lat="44.8956935" lon="5.3695979">
<ele>1049.03</ele>
<time>2019-07-25T13:30:17Z</time>
</trkpt>
<trkpt lat="44.8956925" lon="5.3695973">
<ele>1049.02</ele>
<time>2019-07-25T13:30:18Z</time>
</trkpt>
<trkpt lat="44.8956931" lon="5.3695970">
<ele>1049.02</ele>
<time>2019-07-25T13:30:19Z</time>
</trkpt>
<trkpt lat="44.8957000" lon="5.3695911">
<ele>1049.01</ele>
<time>2019-07-25T13:30:20Z</time>
</trkpt>
<trkpt lat="44.8957068" lon="5.3695916">
<ele>1049.00</ele>
<time>2019-07-25T13:30:21Z</time>
</trkpt>
<trkpt lat="44.8957041" lon="5.3695920">
<ele>1049.00</ele>
<time>2019-07-25T13:30:22Z</time>
</trkpt>
<trkpt lat="44.8957040" lon="5.3695926">
<ele>1048.99</ele>
<time>2019-07-25T13:30:23Z</time>
</trkpt>
<trkpt lat="44.8956943" lon="5.3695882">
<ele>1048.98</ele>
<time>2019-07-25T13:30:24Z</time>
</trkpt>
<trkpt lat="44.8956858" lon="5.3695850">
<ele>1048.91</ele>
<time>2019-07-25T13:30:25Z</time>
</trkpt>
<trkpt lat="44.8956915" lon="5.3695850">
<ele>1048.91</ele>
<time>2019-07-25T13:30:26Z</time>
</trkpt>
<trkpt lat="44.8956933" lon="5.3695855">
<ele>1048.90</ele>
<time>2019-07-25T13:30:27Z</time>
</trkpt>
<trkpt lat="44.8956953" lon="5.3695878">
<ele>1048.89</ele>
<time>2019-07-25T13:30:28Z</time>
</trkpt>
<trkpt lat="44.8956957" lon="5.3695939">
<ele>1048.88</ele>
<time>2019-07-25T13:30:29Z</time>
</trkpt>
<trkpt lat="44.8956976" lon="5.3695949">
<ele>1048.88</ele>
<time>2019-07-25T13:30:30Z</time>
</trkpt>
<trkpt lat="44.8956976" lon="5.3695951">
<ele>1048.87</ele>
<time>2019-07-25T13:30:31Z</time>
</trkpt>
<trkpt lat="44.8956972" lon="5.3695947">
<ele>1048.86</ele>
<time>2019-07-25T13:30:32Z</time>
</trkpt>
<trkpt lat="44.8956974" lon="5.3695951">
<ele>1048.86</ele>
<time>2019-07-25T13:30:33Z</time>
</trkpt>
<trkpt lat="44.8956984" lon="5.3695953">
<ele>1048.85</ele>
<time>2019-07-25T13:30:34Z</time>
</trkpt>
<trkpt lat="44.8956992" lon="5.3695952">
<ele>1048.84</ele>
<time>2019-07-25T13:30:35Z</time>
</trkpt>
<trkpt lat="44.8957002" lon="5.3695951">
<ele>1048.84</ele>
<time>2019-07-25T13:30:36Z</time>
</trkpt>
<trkpt lat="44.8957012" lon="5.3695965">
<ele>1048.83</ele>
<time>2019-07-25T13:30:37Z</time>
</trkpt>
<trkpt lat="44.8957011" lon="5.3695961">
<ele>1048.82</ele>
<time>2019-07-25T13:30:38Z</time>
</trkpt>
<trkpt lat="44.8957012" lon="5.3695970">
<ele>1048.82</ele>
<time>2019-07-25T13:30:39Z</time>
</trkpt>
<trkpt lat="44.8956992" lon="5.3695953">
<ele>1048.81</ele>
<time>2019-07-25T13:30:40Z</time>
</trkpt>
<trkpt lat="44.8956994" lon="5.3695955">
<ele>1048.80</ele>
<time>2019-07-25T13:30:41Z</time>
</trkpt>
<trkpt lat="44.8957000" lon="5.3695958">
<ele>1048.80</ele>
<time>2019-07-25T13:30:42Z</time>
</trkpt>
<trkpt lat="44.8957009" lon="5.3695970">
<ele>1048.79</ele>
<time>2019-07-25T13:30:43Z</time>
</trkpt>
<trkpt lat="44.8957012" lon="5.3695990">
<ele>1048.78</ele>
<time>2019-07-25T13:30:44Z</time>
</trkpt>
<trkpt lat="44.8957010" lon="5.3695987">
<ele>1048.78</ele>
<time>2019-07-25T13:30:45Z</time>
</trkpt>
<trkpt lat="44.8957007" lon="5.3695988">
<ele>1048.77</ele>
<time>2019-07-25T13:30:46Z</time>
</trkpt>
<trkpt lat="44.8957010" lon="5.3695990">
<ele>1048.76</ele>
<time>2019-07-25T13:30:47Z</time>
</trkpt>
<trkpt lat="44.8957011" lon="5.3695993">
<ele>1048.76</ele>
<time>2019-07-25T13:30:48Z</time>
</trkpt>
<trkpt lat="44.8957009" lon="5.3695994">
<ele>1048.75</ele>
<time>2019-07-25T13:30:49Z</time>
</trkpt>
<trkpt lat="44.8957006" lon="5.3695993">
<ele>1048.75</ele>
<time>2019-07-25T13:30:50Z</time>
</trkpt>
<trkpt lat="44.8957010" lon="5.3695996">
<ele>1048.74</ele>
<time>2019-07-25T13:30:51Z</time>
</trkpt>
<trkpt lat="44.8957008" lon="5.3695992">
<ele>1048.73</ele>
<time>2019-07-25T13:30:52Z</time>
</trkpt>
<trkpt lat="44.8957013" lon="5.3695995">
<ele>1048.73</ele>
<time>2019-07-25T13:30:53Z</time>
</trkpt>
<trkpt lat="44.8957013" lon="5.3695997">
<ele>1048.72</ele>
<time>2019-07-25T13:30:54Z</time>
</trkpt>
<trkpt lat="44.8957011" lon="5.3695996">
<ele>1048.72</ele>
<time>2019-07-25T13:30:55Z</time>
</trkpt>
<trkpt lat="44.8957011" lon="5.3695995">
<ele>1048.71</ele>
<time>2019-07-25T13:30:56Z</time>
</trkpt>
<trkpt lat="44.8957010" lon="5.3695996">
<ele>1048.71</ele>
<time>2019-07-25T13:30:57Z</time>
</trkpt>
<trkpt lat="44.8957014" lon="5.3695998">
<ele>1048.70</ele>
<time>2019-07-25T13:30:58Z</time>
</trkpt>
<trkpt lat="44.8957012" lon="5.3695998">
<ele>1048.70</ele>
<time>2019-07-25T13:30:59Z</time>
</trkpt>
<trkpt lat="44.8957005" lon="5.3695994">
<ele>1048.69</ele>
<time>2019-07-25T13:31:00Z</time>
</trkpt>
<trkpt lat="44.8957009" lon="5.3696001">
<ele>1048.69</ele>
<time>2019-07-25T13:31:01Z</time>
</trkpt>
<trkpt lat="44.8957013" lon="5.3695996">
<ele>1048.69</ele>
<time>2019-07-25T13:31:02Z</time>
</trkpt>
<trkpt lat="44.8957014" lon="5.3695995">
<ele>1048.68</ele>
<time>2019-07-25T13:31:03Z</time>
</trkpt>
<trkpt lat="44.8957011" lon="5.3695994">
<ele>1048.68</ele>
<time>2019-07-25T13:31:04Z</time>
</trkpt>
<trkpt lat="44.8957010" lon="5.3695994">
<ele>1048.67</ele>
<time>2019-07-25T13:31:05Z</time>
</trkpt>
<trkpt lat="44.8957000" lon="5.3695990">
<ele>1048.67</ele>
<time>2019-07-25T13:31:06Z</time>
</trkpt>
<trkpt lat="44.8956992" lon="5.3695987">
<ele>1048.67</ele>
<time>2019-07-25T13:31:07Z</time>
</trkpt>
<trkpt lat="44.8956992" lon="5.3695987">
<ele>1048.66</ele>
<time>2019-07-25T13:31:08Z</time>
</trkpt>
<trkpt lat="44.8956984" lon="5.3695983">
<ele>1048.66</ele>
<time>2019-07-25T13:31:09Z</time>
</trkpt>
<trkpt lat="44.8956988" lon="5.3695984">
<ele>1048.66</ele>
<time>2019-07-25T13:31:10Z</time>
</trkpt>
<trkpt lat="44.8956992" lon="5.3695984">
<ele>1048.66</ele>
<time>2019-07-25T13:31:11Z</time>
</trkpt>
<trkpt lat="44.8956993" lon="5.3695986">
<ele>1048.65</ele>
<time>2019-07-25T13:31:12Z</time>
</trkpt>
<trkpt lat="44.8956995" lon="5.3695990">
<ele>1048.65</ele>
<time>2019-07-25T13:31:13Z</time>
</trkpt>
<trkpt lat="44.8956991" lon="5.3695988">
<ele>1048.65</ele>
<time>2019-07-25T13:31:14Z</time>
</trkpt>
<trkpt lat="44.8956987" lon="5.3695985">
<ele>1048.65</ele>
<time>2019-07-25T13:31:15Z</time>
</trkpt>
<trkpt lat="44.8956979" lon="5.3695984">
<ele>1048.64</ele>
<time>2019-07-25T13:31:16Z</time>
</trkpt>
<trkpt lat="44.8956980" lon="5.3695990">
<ele>1048.64</ele>
<time>2019-07-25T13:31:17Z</time>
</trkpt>
<trkpt lat="44.8956981" lon="5.3695988">
<ele>1048.64</ele>
<time>2019-07-25T13:31:18Z</time>
</trkpt>
<trkpt lat="44.8956981" lon="5.3695988">
<ele>1048.64</ele>
<time>2019-07-25T13:31:19Z</time>
</trkpt>
<trkpt lat="44.8956991" lon="5.3695989">
<ele>1048.64</ele>
<time>2019-07-25T13:31:20Z</time>
</trkpt>
<trkpt lat="44.8957009" lon="5.3695998">
<ele>1048.63</ele>
<time>2019-07-25T13:31:21Z</time>
</trkpt>
<trkpt lat="44.8957020" lon="5.3696000">
<ele>1048.63</ele>
<time>2019-07-25T13:31:22Z</time>
</trkpt>
<trkpt lat="44.8957070" lon="5.3696012">
<ele>1048.63</ele>
<time>2019-07-25T13:31:23Z</time>
</trkpt>
<trkpt lat="44.8957021" lon="5.3695994">
<ele>1048.63</ele>
<time>2019-07-25T13:31:24Z</time>
</trkpt>
<trkpt lat="44.8957049" lon="5.3695993">
<ele>1048.63</ele>
<time>2019-07-25T13:31:25Z</time>
</trkpt>
<trkpt lat="44.8957050" lon="5.3695994">
<ele>1048.62</ele>
<time>2019-07-25T13:31:26Z</time>
</trkpt>
<trkpt lat="44.8957037" lon="5.3695994">
<ele>1048.62</ele>
<time>2019-07-25T13:31:27Z</time>
</trkpt>
<trkpt lat="44.8957057" lon="5.3695992">
<ele>1048.62</ele>
<time>2019-07-25T13:31:28Z</time>
</trkpt>
<trkpt lat="44.8957114" lon="5.3696019">
<ele>1048.62</ele>
<time>2019-07-25T13:31:29Z</time>
</trkpt>
<trkpt lat="44.8957168" lon="5.3696099">
<ele>1048.59</ele>
<time>2019-07-25T13:31:30Z</time>
</trkpt>
<trkpt lat="44.8957180" lon="5.3696104">
<ele>1048.59</ele>
<time>2019-07-25T13:31:31Z</time>
</trkpt>
<trkpt lat="44.8957176" lon="5.3696096">
<ele>1048.58</ele>
<time>2019-07-25T13:31:32Z</time>
</trkpt>
<trkpt lat="44.8957176" lon="5.3696096">
<ele>1048.58</ele>
<time>2019-07-25T13:31:33Z</time>
</trkpt>
<trkpt lat="44.8957176" lon="5.3696096">
<ele>1048.58</ele>
<time>2019-07-25T13:31:34Z</time>
</trkpt>
<trkpt lat="44.8957188" lon="5.3696103">
<ele>1048.58</ele>
<time>2019-07-25T13:31:35Z</time>
</trkpt>
<trkpt lat="44.8957188" lon="5.3696102">
<ele>1048.57</ele>
<time>2019-07-25T13:31:36Z</time>
</trkpt>
<trkpt lat="44.8957191" lon="5.3696108">
<ele>1048.57</ele>
<time>2019-07-25T13:31:37Z</time>
</trkpt>
<trkpt lat="44.8957189" lon="5.3696106">
<ele>1048.57</ele>
<time>2019-07-25T13:31:38Z</time>
</trkpt>
<trkpt lat="44.8957187" lon="5.3696105">
<ele>1048.56</ele>
<time>2019-07-25T13:31:39Z</time>
</trkpt>
<trkpt lat="44.8957183" lon="5.3696100">
<ele>1048.56</ele>
<time>2019-07-25T13:31:40Z</time>
</trkpt>
<trkpt lat="44.8957189" lon="5.3696104">
<ele>1048.56</ele>
<time>2019-07-25T13:31:41Z</time>
</trkpt>
<trkpt lat="44.8957180" lon="5.3696095">
<ele>1048.56</ele>
<time>2019-07-25T13:31:42Z</time>
</trkpt>
<trkpt lat="44.8957186" lon="5.3696096">
<ele>1048.55</ele>
<time>2019-07-25T13:31:43Z</time>
</trkpt>
<trkpt lat="44.8957183" lon="5.3696090">
<ele>1048.55</ele>
<time>2019-07-25T13:31:44Z</time>
</trkpt>
<trkpt lat="44.8957186" lon="5.3696091">
<ele>1048.55</ele>
<time>2019-07-25T13:31:45Z</time>
</trkpt>
<trkpt lat="44.8957187" lon="5.3696090">
<ele>1048.55</ele>
<time>2019-07-25T13:31:46Z</time>
</trkpt>
<trkpt lat="44.8957144" lon="5.3696077">
<ele>1048.55</ele>
<time>2019-07-25T13:31:47Z</time>
</trkpt>
<trkpt lat="44.8957139" lon="5.3696064">
<ele>1048.54</ele>
<time>2019-07-25T13:31:48Z</time>
</trkpt>
<trkpt lat="44.8957165" lon="5.3696087">
<ele>1048.54</ele>
<time>2019-07-25T13:31:49Z</time>
</trkpt>
<trkpt lat="44.8957165" lon="5.3696086">
<ele>1048.54</ele>
<time>2019-07-25T13:31:50Z</time>
</trkpt>
<trkpt lat="44.8957161" lon="5.3696082">
<ele>1048.54</ele>
<time>2019-07-25T13:31:51Z</time>
</trkpt>
<trkpt lat="44.8957159" lon="5.3696081">
<ele>1048.54</ele>
<time>2019-07-25T13:31:52Z</time>
</trkpt>
<trkpt lat="44.8957126" lon="5.3696040">
<ele>1048.54</ele>
<time>2019-07-25T13:31:53Z</time>
</trkpt>
<trkpt lat="44.8957165" lon="5.3696041">
<ele>1048.54</ele>
<time>2019-07-25T13:31:54Z</time>
</trkpt>
<trkpt lat="44.8957143" lon="5.3696022">
<ele>1048.54</ele>
<time>2019-07-25T13:31:55Z</time>
</trkpt>
<trkpt lat="44.8957113" lon="5.3696005">
<ele>1048.54</ele>
<time>2019-07-25T13:31:56Z</time>
</trkpt>
<trkpt lat="44.8957113" lon="5.3696003">
<ele>1048.54</ele>
<time>2019-07-25T13:31:57Z</time>
</trkpt>
<trkpt lat="44.8957112" lon="5.3695996">
<ele>1048.53</ele>
<time>2019-07-25T13:31:58Z</time>
</trkpt>
<trkpt lat="44.8957108" lon="5.3695992">
<ele>1048.53</ele>
<time>2019-07-25T13:31:59Z</time>
</trkpt>
<trkpt lat="44.8957110" lon="5.3695992">
<ele>1048.53</ele>
<time>2019-07-25T13:32:00Z</time>
</trkpt>
<trkpt lat="44.8957098" lon="5.3695952">
<ele>1048.53</ele>
<time>2019-07-25T13:32:01Z</time>
</trkpt>
<trkpt lat="44.8957034" lon="5.3695911">
<ele>1048.52</ele>
<time>2019-07-25T13:32:02Z</time>
</trkpt>
<trkpt lat="44.8957013" lon="5.3695918">
<ele>1048.51</ele>
<time>2019-07-25T13:32:03Z</time>
</trkpt>
<trkpt lat="44.8957045" lon="5.3695931">
<ele>1048.51</ele>
<time>2019-07-25T13:32:04Z</time>
</trkpt>
<trkpt lat="44.8956996" lon="5.3695913">
<ele>1048.50</ele>
<time>2019-07-25T13:32:05Z</time>
</trkpt>
<trkpt lat="44.8956992" lon="5.3695909">
<ele>1048.50</ele>
<time>2019-07-25T13:32:06Z</time>
</trkpt>
<trkpt lat="44.8956973" lon="5.3695902">
<ele>1048.50</ele>
<time>2019-07-25T13:32:07Z</time>
</trkpt>
<trkpt lat="44.8957061" lon="5.3695950">
<ele>1048.49</ele>
<time>2019-07-25T13:32:08Z</time>
</trkpt>
<trkpt lat="44.8957036" lon="5.3695939">
<ele>1048.48</ele>
<time>2019-07-25T13:32:09Z</time>
</trkpt>
<trkpt lat="44.8957017" lon="5.3695944">
<ele>1048.48</ele>
<time>2019-07-25T13:32:10Z</time>
</trkpt>
<trkpt lat="44.8957040" lon="5.3695958">
<ele>1048.48</ele>
<time>2019-07-25T13:32:11Z</time>
</trkpt>
<trkpt lat="44.8957051" lon="5.3695962">
<ele>1048.48</ele>
<time>2019-07-25T13:32:12Z</time>
</trkpt>
<trkpt lat="44.8957042" lon="5.3695958">
<ele>1048.47</ele>
<time>2019-07-25T13:32:13Z</time>
</trkpt>
<trkpt lat="44.8957029" lon="5.3695956">
<ele>1048.47</ele>
<time>2019-07-25T13:32:14Z</time>
</trkpt>
<trkpt lat="44.8957031" lon="5.3695953">
<ele>1048.47</ele>
<time>2019-07-25T13:32:15Z</time>
</trkpt>
<trkpt lat="44.8957031" lon="5.3695961">
<ele>1048.47</ele>
<time>2019-07-25T13:32:16Z</time>
</trkpt>
<trkpt lat="44.8956990" lon="5.3695956">
<ele>1048.47</ele>
<time>2019-07-25T13:32:17Z</time>
</trkpt>
<trkpt lat="44.8957006" lon="5.3695932">
<ele>1048.45</ele>
<time>2019-07-25T13:32:18Z</time>
</trkpt>
<trkpt lat="44.8956941" lon="5.3695881">
<ele>1048.45</ele>
<time>2019-07-25T13:32:19Z</time>
</trkpt>
<trkpt lat="44.8956949" lon="5.3695865">
<ele>1048.44</ele>
<time>2019-07-25T13:32:20Z</time>
</trkpt>
<trkpt lat="44.8956982" lon="5.3695855">
<ele>1048.43</ele>
<time>2019-07-25T13:32:21Z</time>
</trkpt>
<trkpt lat="44.8957001" lon="5.3695830">
<ele>1048.43</ele>
<time>2019-07-25T13:32:22Z</time>
</trkpt>
<trkpt lat="44.8957014" lon="5.3695737">
<ele>1048.43</ele>
<time>2019-07-25T13:32:23Z</time>
</trkpt>
<trkpt lat="44.8956959" lon="5.3695642">
<ele>1048.42</ele>
<time>2019-07-25T13:32:24Z</time>
</trkpt>
<trkpt lat="44.8956888" lon="5.3695720">
<ele>1048.42</ele>
<time>2019-07-25T13:32:25Z</time>
</trkpt>
<trkpt lat="44.8956888" lon="5.3695710">
<ele>1048.42</ele>
<time>2019-07-25T13:32:26Z</time>
</trkpt>
<trkpt lat="44.8956899" lon="5.3695728">
<ele>1048.41</ele>
<time>2019-07-25T13:32:27Z</time>
</trkpt>
<trkpt lat="44.8956898" lon="5.3695724">
<ele>1048.41</ele>
<time>2019-07-25T13:32:28Z</time>
</trkpt>
<trkpt lat="44.8956898" lon="5.3695725">
<ele>1048.41</ele>
<time>2019-07-25T13:32:29Z</time>
</trkpt>
<trkpt lat="44.8956898" lon="5.3695725">
<ele>1048.41</ele>
<time>2019-07-25T13:32:30Z</time>
</trkpt>
<trkpt lat="44.8956899" lon="5.3695727">
<ele>1048.41</ele>
<time>2019-07-25T13:32:31Z</time>
</trkpt>
<trkpt lat="44.8956896" lon="5.3695727">
<ele>1048.40</ele>
<time>2019-07-25T13:32:32Z</time>
</trkpt>
<trkpt lat="44.8956894" lon="5.3695728">
<ele>1048.40</ele>
<time>2019-07-25T13:32:33Z</time>
</trkpt>
<trkpt lat="44.8956892" lon="5.3695730">
<ele>1048.40</ele>
<time>2019-07-25T13:32:34Z</time>
</trkpt>
<trkpt lat="44.8956893" lon="5.3695732">
<ele>1048.40</ele>
<time>2019-07-25T13:32:35Z</time>
</trkpt>
<trkpt lat="44.8956893" lon="5.3695735">
<ele>1048.39</ele>
<time>2019-07-25T13:32:36Z</time>
</trkpt>
<trkpt lat="44.8956891" lon="5.3695735">
<ele>1048.39</ele>
<time>2019-07-25T13:32:37Z</time>
</trkpt>
<trkpt lat="44.8956890" lon="5.3695736">
<ele>1048.39</ele>
<time>2019-07-25T13:32:38Z</time>
</trkpt>
<trkpt lat="44.8956887" lon="5.3695736">
<ele>1048.38</ele>
<time>2019-07-25T13:32:39Z</time>
</trkpt>
<trkpt lat="44.8956887" lon="5.3695737">
<ele>1048.38</ele>
<time>2019-07-25T13:32:40Z</time>
</trkpt>
<trkpt lat="44.8956884" lon="5.3695737">
<ele>1048.37</ele>
<time>2019-07-25T13:32:41Z</time>
</trkpt>
<trkpt lat="44.8956882" lon="5.3695737">
<ele>1048.37</ele>
<time>2019-07-25T13:32:42Z</time>
</trkpt>
<trkpt lat="44.8956880" lon="5.3695737">
<ele>1048.37</ele>
<time>2019-07-25T13:32:43Z</time>
</trkpt>
<trkpt lat="44.8956876" lon="5.3695738">
<ele>1048.36</ele>
<time>2019-07-25T13:32:44Z</time>
</trkpt>
<trkpt lat="44.8956874" lon="5.3695740">
<ele>1048.36</ele>
<time>2019-07-25T13:32:45Z</time>
</trkpt>
<trkpt lat="44.8956874" lon="5.3695743">
<ele>1048.35</ele>
<time>2019-07-25T13:32:46Z</time>
</trkpt>
<trkpt lat="44.8956872" lon="5.3695745">
<ele>1048.35</ele>
<time>2019-07-25T13:32:47Z</time>
</trkpt>
<trkpt lat="44.8956871" lon="5.3695748">
<ele>1048.34</ele>
<time>2019-07-25T13:32:48Z</time>
</trkpt>
<trkpt lat="44.8956868" lon="5.3695750">
<ele>1048.34</ele>
<time>2019-07-25T13:32:49Z</time>
</trkpt>
<trkpt lat="44.8956863" lon="5.3695751">
<ele>1048.33</ele>
<time>2019-07-25T13:32:50Z</time>
</trkpt>
<trkpt lat="44.8956861" lon="5.3695754">
<ele>1048.33</ele>
<time>2019-07-25T13:32:51Z</time>
</trkpt>
<trkpt lat="44.8956860" lon="5.3695756">
<ele>1048.33</ele>
<time>2019-07-25T13:32:52Z</time>
</trkpt>
<trkpt lat="44.8956858" lon="5.3695757">
<ele>1048.32</ele>
<time>2019-07-25T13:32:53Z</time>
</trkpt>
<trkpt lat="44.8956856" lon="5.3695759">
<ele>1048.32</ele>
<time>2019-07-25T13:32:54Z</time>
</trkpt>
<trkpt lat="44.8956853" lon="5.3695761">
<ele>1048.31</ele>
<time>2019-07-25T13:32:55Z</time>
</trkpt>
<trkpt lat="44.8956850" lon="5.3695762">
<ele>1048.31</ele>
<time>2019-07-25T13:32:56Z</time>
</trkpt>
<trkpt lat="44.8956849" lon="5.3695764">
<ele>1048.31</ele>
<time>2019-07-25T13:32:57Z</time>
</trkpt>
<trkpt lat="44.8956846" lon="5.3695765">
<ele>1048.30</ele>
<time>2019-07-25T13:32:58Z</time>
</trkpt>
<trkpt lat="44.8956844" lon="5.3695767">
<ele>1048.30</ele>
<time>2019-07-25T13:32:59Z</time>
</trkpt>
<trkpt lat="44.8956842" lon="5.3695769">
<ele>1048.30</ele>
<time>2019-07-25T13:33:00Z</time>
</trkpt>
<trkpt lat="44.8956840" lon="5.3695770">
<ele>1048.30</ele>
<time>2019-07-25T13:33:01Z</time>
</trkpt>
<trkpt lat="44.8956838" lon="5.3695772">
<ele>1048.29</ele>
<time>2019-07-25T13:33:02Z</time>
</trkpt>
<trkpt lat="44.8956836" lon="5.3695773">
<ele>1048.29</ele>
<time>2019-07-25T13:33:03Z</time>
</trkpt>
<trkpt lat="44.8956835" lon="5.3695775">
<ele>1048.29</ele>
<time>2019-07-25T13:33:04Z</time>
</trkpt>
<trkpt lat="44.8956833" lon="5.3695777">
<ele>1048.29</ele>
<time>2019-07-25T13:33:05Z</time>
</trkpt>
<trkpt lat="44.8956832" lon="5.3695779">
<ele>1048.29</ele>
<time>2019-07-25T13:33:06Z</time>
</trkpt>
<trkpt lat="44.8956830" lon="5.3695781">
<ele>1048.28</ele>
<time>2019-07-25T13:33:07Z</time>
</trkpt>
<trkpt lat="44.8956829" lon="5.3695782">
<ele>1048.28</ele>
<time>2019-07-25T13:33:08Z</time>
</trkpt>
<trkpt lat="44.8956827" lon="5.3695783">
<ele>1048.28</ele>
<time>2019-07-25T13:33:09Z</time>
</trkpt>
<trkpt lat="44.8956825" lon="5.3695785">
<ele>1048.28</ele>
<time>2019-07-25T13:33:10Z</time>
</trkpt>
<trkpt lat="44.8956824" lon="5.3695786">
<ele>1048.28</ele>
<time>2019-07-25T13:33:11Z</time>
</trkpt>
<trkpt lat="44.8956821" lon="5.3695787">
<ele>1048.28</ele>
<time>2019-07-25T13:33:12Z</time>
</trkpt>
<trkpt lat="44.8956820" lon="5.3695789">
<ele>1048.28</ele>
<time>2019-07-25T13:33:13Z</time>
</trkpt>
<trkpt lat="44.8956819" lon="5.3695792">
<ele>1048.28</ele>
<time>2019-07-25T13:33:14Z</time>
</trkpt>
<trkpt lat="44.8956818" lon="5.3695794">
<ele>1048.28</ele>
<time>2019-07-25T13:33:15Z</time>
</trkpt>
<trkpt lat="44.8956817" lon="5.3695797">
<ele>1048.28</ele>
<time>2019-07-25T13:33:16Z</time>
</trkpt>
<trkpt lat="44.8956819" lon="5.3695802">
<ele>1048.28</ele>
<time>2019-07-25T13:33:17Z</time>
</trkpt>
<trkpt lat="44.8956818" lon="5.3695804">
<ele>1048.28</ele>
<time>2019-07-25T13:33:18Z</time>
</trkpt>
<trkpt lat="44.8956816" lon="5.3695805">
<ele>1048.28</ele>
<time>2019-07-25T13:33:19Z</time>
</trkpt>
<trkpt lat="44.8956813" lon="5.3695807">
<ele>1048.28</ele>
<time>2019-07-25T13:33:20Z</time>
</trkpt>
<trkpt lat="44.8956811" lon="5.3695809">
<ele>1048.28</ele>
<time>2019-07-25T13:33:21Z</time>
</trkpt>
<trkpt lat="44.8956809" lon="5.3695813">
<ele>1048.28</ele>
<time>2019-07-25T13:33:22Z</time>
</trkpt>
<trkpt lat="44.8956807" lon="5.3695820">
<ele>1048.28</ele>
<time>2019-07-25T13:33:23Z</time>
</trkpt>
<trkpt lat="44.8956805" lon="5.3695824">
<ele>1048.28</ele>
<time>2019-07-25T13:33:24Z</time>
</trkpt>
<trkpt lat="44.8956802" lon="5.3695830">
<ele>1048.29</ele>
<time>2019-07-25T13:33:25Z</time>
</trkpt>
<trkpt lat="44.8956802" lon="5.3695836">
<ele>1048.29</ele>
<time>2019-07-25T13:33:26Z</time>
</trkpt>
<trkpt lat="44.8956801" lon="5.3695842">
<ele>1048.29</ele>
<time>2019-07-25T13:33:27Z</time>
</trkpt>
<trkpt lat="44.8956802" lon="5.3695846">
<ele>1048.29</ele>
<time>2019-07-25T13:33:28Z</time>
</trkpt>
<trkpt lat="44.8956803" lon="5.3695852">
<ele>1048.29</ele>
<time>2019-07-25T13:33:29Z</time>
</trkpt>
<trkpt lat="44.8956805" lon="5.3695857">
<ele>1048.29</ele>
<time>2019-07-25T13:33:30Z</time>
</trkpt>
<trkpt lat="44.8956805" lon="5.3695861">
<ele>1048.29</ele>
<time>2019-07-25T13:33:31Z</time>
</trkpt>
<trkpt lat="44.8956806" lon="5.3695864">
<ele>1048.29</ele>
<time>2019-07-25T13:33:32Z</time>
</trkpt>
<trkpt lat="44.8956805" lon="5.3695866">
<ele>1048.29</ele>
<time>2019-07-25T13:33:33Z</time>
</trkpt>
<trkpt lat="44.8956804" lon="5.3695868">
<ele>1048.29</ele>
<time>2019-07-25T13:33:34Z</time>
</trkpt>
<trkpt lat="44.8956806" lon="5.3695871">
<ele>1048.29</ele>
<time>2019-07-25T13:33:35Z</time>
</trkpt>
<trkpt lat="44.8956808" lon="5.3695874">
<ele>1048.29</ele>
<time>2019-07-25T13:33:36Z</time>
</trkpt>
<trkpt lat="44.8956808" lon="5.3695875">
<ele>1048.30</ele>
<time>2019-07-25T13:33:37Z</time>
</trkpt>
<trkpt lat="44.8956808" lon="5.3695878">
<ele>1048.30</ele>
<time>2019-07-25T13:33:38Z</time>
</trkpt>
<trkpt lat="44.8956808" lon="5.3695878">
<ele>1048.30</ele>
<time>2019-07-25T13:33:39Z</time>
</trkpt>
<trkpt lat="44.8956808" lon="5.3695880">
<ele>1048.30</ele>
<time>2019-07-25T13:33:40Z</time>
</trkpt>
<trkpt lat="44.8956809" lon="5.3695882">
<ele>1048.30</ele>
<time>2019-07-25T13:33:41Z</time>
</trkpt>
<trkpt lat="44.8956809" lon="5.3695884">
<ele>1048.31</ele>
<time>2019-07-25T13:33:42Z</time>
</trkpt>
<trkpt lat="44.8956810" lon="5.3695886">
<ele>1048.31</ele>
<time>2019-07-25T13:33:43Z</time>
</trkpt>
<trkpt lat="44.8956810" lon="5.3695887">
<ele>1048.31</ele>
<time>2019-07-25T13:33:44Z</time>
</trkpt>
<trkpt lat="44.8956811" lon="5.3695889">
<ele>1048.32</ele>
<time>2019-07-25T13:33:45Z</time>
</trkpt>
<trkpt lat="44.8956811" lon="5.3695891">
<ele>1048.32</ele>
<time>2019-07-25T13:33:46Z</time>
</trkpt>
<trkpt lat="44.8956811" lon="5.3695891">
<ele>1048.33</ele>
<time>2019-07-25T13:33:47Z</time>
</trkpt>
<trkpt lat="44.8956809" lon="5.3695890">
<ele>1048.33</ele>
<time>2019-07-25T13:33:48Z</time>
</trkpt>
<trkpt lat="44.8956809" lon="5.3695892">
<ele>1048.34</ele>
<time>2019-07-25T13:33:49Z</time>
</trkpt>
<trkpt lat="44.8956810" lon="5.3695894">
<ele>1048.34</ele>
<time>2019-07-25T13:33:50Z</time>
</trkpt>
<trkpt lat="44.8956810" lon="5.3695896">
<ele>1048.35</ele>
<time>2019-07-25T13:33:51Z</time>
</trkpt>
<trkpt lat="44.8956810" lon="5.3695897">
<ele>1048.35</ele>
<time>2019-07-25T13:33:52Z</time>
</trkpt>
<trkpt lat="44.8956808" lon="5.3695896">
<ele>1048.36</ele>
<time>2019-07-25T13:33:53Z</time>
</trkpt>
<trkpt lat="44.8956807" lon="5.3695897">
<ele>1048.37</ele>
<time>2019-07-25T13:33:54Z</time>
</trkpt>
<trkpt lat="44.8956805" lon="5.3695897">
<ele>1048.37</ele>
<time>2019-07-25T13:33:55Z</time>
</trkpt>
<trkpt lat="44.8956802" lon="5.3695895">
<ele>1048.38</ele>
<time>2019-07-25T13:33:56Z</time>
</trkpt>
<trkpt lat="44.8956800" lon="5.3695894">
<ele>1048.39</ele>
<time>2019-07-25T13:33:57Z</time>
</trkpt>
<trkpt lat="44.8956794" lon="5.3695890">
<ele>1048.39</ele>
<time>2019-07-25T13:33:58Z</time>
</trkpt>
<trkpt lat="44.8956793" lon="5.3695890">
<ele>1048.40</ele>
<time>2019-07-25T13:33:59Z</time>
</trkpt>
<trkpt lat="44.8956792" lon="5.3695890">
<ele>1048.41</ele>
<time>2019-07-25T13:34:00Z</time>
</trkpt>
<trkpt lat="44.8956789" lon="5.3695888">
<ele>1048.42</ele>
<time>2019-07-25T13:34:01Z</time>
</trkpt>
<trkpt lat="44.8956787" lon="5.3695888">
<ele>1048.43</ele>
<time>2019-07-25T13:34:02Z</time>
</trkpt>
<trkpt lat="44.8956788" lon="5.3695889">
<ele>1048.44</ele>
<time>2019-07-25T13:34:03Z</time>
</trkpt>
<trkpt lat="44.8956788" lon="5.3695890">
<ele>1048.45</ele>
<time>2019-07-25T13:34:04Z</time>
</trkpt>
<trkpt lat="44.8956788" lon="5.3695891">
<ele>1048.46</ele>
<time>2019-07-25T13:34:05Z</time>
</trkpt>
<trkpt lat="44.8956787" lon="5.3695891">
<ele>1048.47</ele>
<time>2019-07-25T13:34:06Z</time>
</trkpt>
<trkpt lat="44.8956785" lon="5.3695889">
<ele>1048.48</ele>
<time>2019-07-25T13:34:07Z</time>
</trkpt>
<trkpt lat="44.8956783" lon="5.3695887">
<ele>1048.49</ele>
<time>2019-07-25T13:34:08Z</time>
</trkpt>
<trkpt lat="44.8956782" lon="5.3695887">
<ele>1048.50</ele>
<time>2019-07-25T13:34:09Z</time>
</trkpt>
<trkpt lat="44.8956782" lon="5.3695887">
<ele>1048.51</ele>
<time>2019-07-25T13:34:10Z</time>
</trkpt>
<trkpt lat="44.8956771" lon="5.3695877">
<ele>1048.51</ele>
<time>2019-07-25T13:34:11Z</time>
</trkpt>
<trkpt lat="44.8956772" lon="5.3695878">
<ele>1048.52</ele>
<time>2019-07-25T13:34:12Z</time>
</trkpt>
<trkpt lat="44.8956769" lon="5.3695877">
<ele>1048.53</ele>
<time>2019-07-25T13:34:13Z</time>
</trkpt>
<trkpt lat="44.8956828" lon="5.3695968">
<ele>1048.63</ele>
<time>2019-07-25T13:34:14Z</time>
</trkpt>
<trkpt lat="44.8956933" lon="5.3696034">
<ele>1048.72</ele>
<time>2019-07-25T13:34:15Z</time>
</trkpt>
<trkpt lat="44.8956953" lon="5.3696014">
<ele>1048.80</ele>
<time>2019-07-25T13:34:16Z</time>
</trkpt>
<trkpt lat="44.8956984" lon="5.3696040">
<ele>1048.88</ele>
<time>2019-07-25T13:34:17Z</time>
</trkpt>
<trkpt lat="44.8957053" lon="5.3696115">
<ele>1048.96</ele>
<time>2019-07-25T13:34:18Z</time>
</trkpt>
<trkpt lat="44.8957068" lon="5.3696127">
<ele>1048.97</ele>
<time>2019-07-25T13:34:19Z</time>
</trkpt>
<trkpt lat="44.8957067" lon="5.3696126">
<ele>1048.97</ele>
<time>2019-07-25T13:34:20Z</time>
</trkpt>
<trkpt lat="44.8957067" lon="5.3696127">
<ele>1048.98</ele>
<time>2019-07-25T13:34:21Z</time>
</trkpt>
<trkpt lat="44.8957064" lon="5.3696126">
<ele>1048.99</ele>
<time>2019-07-25T13:34:22Z</time>
</trkpt>
<trkpt lat="44.8957067" lon="5.3696126">
<ele>1048.99</ele>
<time>2019-07-25T13:34:23Z</time>
</trkpt>
<trkpt lat="44.8957069" lon="5.3696125">
<ele>1049.00</ele>
<time>2019-07-25T13:34:24Z</time>
</trkpt>
<trkpt lat="44.8957067" lon="5.3696125">
<ele>1049.01</ele>
<time>2019-07-25T13:34:25Z</time>
</trkpt>
<trkpt lat="44.8957066" lon="5.3696124">
<ele>1049.01</ele>
<time>2019-07-25T13:34:26Z</time>
</trkpt>
<trkpt lat="44.8957064" lon="5.3696124">
<ele>1049.02</ele>
<time>2019-07-25T13:34:27Z</time>
</trkpt>
<trkpt lat="44.8957062" lon="5.3696122">
<ele>1049.03</ele>
<time>2019-07-25T13:34:28Z</time>
</trkpt>
<trkpt lat="44.8957062" lon="5.3696122">
<ele>1049.03</ele>
<time>2019-07-25T13:34:29Z</time>
</trkpt>
<trkpt lat="44.8957066" lon="5.3696124">
<ele>1049.04</ele>
<time>2019-07-25T13:34:30Z</time>
</trkpt>
<trkpt lat="44.8957067" lon="5.3696124">
<ele>1049.04</ele>
<time>2019-07-25T13:34:31Z</time>
</trkpt>
<trkpt lat="44.8957067" lon="5.3696124">
<ele>1049.05</ele>
<time>2019-07-25T13:34:32Z</time>
</trkpt>
<trkpt lat="44.8957066" lon="5.3696124">
<ele>1049.05</ele>
<time>2019-07-25T13:34:33Z</time>
</trkpt>
<trkpt lat="44.8957066" lon="5.3696124">
<ele>1049.06</ele>
<time>2019-07-25T13:34:34Z</time>
</trkpt>
<trkpt lat="44.8957067" lon="5.3696125">
<ele>1049.07</ele>
<time>2019-07-25T13:34:35Z</time>
</trkpt>
<trkpt lat="44.8957067" lon="5.3696126">
<ele>1049.07</ele>
<time>2019-07-25T13:34:36Z</time>
</trkpt>
<trkpt lat="44.8957071" lon="5.3696128">
<ele>1049.08</ele>
<time>2019-07-25T13:34:37Z</time>
</trkpt>
<trkpt lat="44.8957071" lon="5.3696128">
<ele>1049.08</ele>
<time>2019-07-25T13:34:38Z</time>
</trkpt>
<trkpt lat="44.8957069" lon="5.3696128">
<ele>1049.09</ele>
<time>2019-07-25T13:34:39Z</time>
</trkpt>
<trkpt lat="44.8957067" lon="5.3696127">
<ele>1049.09</ele>
<time>2019-07-25T13:34:40Z</time>
</trkpt>
<trkpt lat="44.8957064" lon="5.3696126">
<ele>1049.10</ele>
<time>2019-07-25T13:34:41Z</time>
</trkpt>
<trkpt lat="44.8957063" lon="5.3696126">
<ele>1049.10</ele>
<time>2019-07-25T13:34:42Z</time>
</trkpt>
<trkpt lat="44.8957062" lon="5.3696126">
<ele>1049.10</ele>
<time>2019-07-25T13:34:43Z</time>
</trkpt>
<trkpt lat="44.8957063" lon="5.3696126">
<ele>1049.11</ele>
<time>2019-07-25T13:34:44Z</time>
</trkpt>
<trkpt lat="44.8957062" lon="5.3696126">
<ele>1049.11</ele>
<time>2019-07-25T13:34:45Z</time>
</trkpt>
<trkpt lat="44.8957061" lon="5.3696126">
<ele>1049.12</ele>
<time>2019-07-25T13:34:46Z</time>
</trkpt>
<trkpt lat="44.8957057" lon="5.3696124">
<ele>1049.12</ele>
<time>2019-07-25T13:34:47Z</time>
</trkpt>
<trkpt lat="44.8957055" lon="5.3696123">
<ele>1049.12</ele>
<time>2019-07-25T13:34:48Z</time>
</trkpt>
<trkpt lat="44.8957056" lon="5.3696124">
<ele>1049.13</ele>
<time>2019-07-25T13:34:49Z</time>
</trkpt>
<trkpt lat="44.8957060" lon="5.3696127">
<ele>1049.13</ele>
<time>2019-07-25T13:34:50Z</time>
</trkpt>
<trkpt lat="44.8957065" lon="5.3696129">
<ele>1049.13</ele>
<time>2019-07-25T13:34:51Z</time>
</trkpt>
<trkpt lat="44.8957073" lon="5.3696134">
<ele>1049.13</ele>
<time>2019-07-25T13:34:52Z</time>
</trkpt>
<trkpt lat="44.8957085" lon="5.3696143">
<ele>1049.14</ele>
<time>2019-07-25T13:34:53Z</time>
</trkpt>
<trkpt lat="44.8957085" lon="5.3696144">
<ele>1049.14</ele>
<time>2019-07-25T13:34:54Z</time>
</trkpt>
<trkpt lat="44.8957083" lon="5.3696142">
<ele>1049.14</ele>
<time>2019-07-25T13:34:55Z</time>
</trkpt>
<trkpt lat="44.8957084" lon="5.3696143">
<ele>1049.14</ele>
<time>2019-07-25T13:34:56Z</time>
</trkpt>
<trkpt lat="44.8957090" lon="5.3696147">
<ele>1049.14</ele>
<time>2019-07-25T13:34:57Z</time>
</trkpt>
<trkpt lat="44.8957091" lon="5.3696147">
<ele>1049.14</ele>
<time>2019-07-25T13:34:58Z</time>
</trkpt>
<trkpt lat="44.8957087" lon="5.3696145">
<ele>1049.15</ele>
<time>2019-07-25T13:34:59Z</time>
</trkpt>
<trkpt lat="44.8957081" lon="5.3696142">
<ele>1049.15</ele>
<time>2019-07-25T13:35:00Z</time>
</trkpt>
<trkpt lat="44.8957082" lon="5.3696144">
<ele>1049.15</ele>
<time>2019-07-25T13:35:01Z</time>
</trkpt>
<trkpt lat="44.8957081" lon="5.3696144">
<ele>1049.15</ele>
<time>2019-07-25T13:35:02Z</time>
</trkpt>
<trkpt lat="44.8957082" lon="5.3696145">
<ele>1049.15</ele>
<time>2019-07-25T13:35:03Z</time>
</trkpt>
<trkpt lat="44.8957081" lon="5.3696145">
<ele>1049.15</ele>
<time>2019-07-25T13:35:04Z</time>
</trkpt>
<trkpt lat="44.8957067" lon="5.3696138">
<ele>1049.14</ele>
<time>2019-07-25T13:35:05Z</time>
</trkpt>
<trkpt lat="44.8957061" lon="5.3696134">
<ele>1049.14</ele>
<time>2019-07-25T13:35:06Z</time>
</trkpt>
<trkpt lat="44.8957056" lon="5.3696131">
<ele>1049.14</ele>
<time>2019-07-25T13:35:07Z</time>
</trkpt>
<trkpt lat="44.8957051" lon="5.3696128">
<ele>1049.14</ele>
<time>2019-07-25T13:35:08Z</time>
</trkpt>
<trkpt lat="44.8957049" lon="5.3696127">
<ele>1049.14</ele>
<time>2019-07-25T13:35:09Z</time>
</trkpt>
<trkpt lat="44.8957047" lon="5.3696127">
<ele>1049.14</ele>
<time>2019-07-25T13:35:10Z</time>
</trkpt>
<trkpt lat="44.8957047" lon="5.3696127">
<ele>1049.14</ele>
<time>2019-07-25T13:35:11Z</time>
</trkpt>
<trkpt lat="44.8957049" lon="5.3696128">
<ele>1049.14</ele>
<time>2019-07-25T13:35:12Z</time>
</trkpt>
<trkpt lat="44.8957052" lon="5.3696131">
<ele>1049.13</ele>
<time>2019-07-25T13:35:13Z</time>
</trkpt>
<trkpt lat="44.8957055" lon="5.3696132">
<ele>1049.13</ele>
<time>2019-07-25T13:35:14Z</time>
</trkpt>
<trkpt lat="44.8957060" lon="5.3696136">
<ele>1049.13</ele>
<time>2019-07-25T13:35:15Z</time>
</trkpt>
<trkpt lat="44.8957063" lon="5.3696139">
<ele>1049.13</ele>
<time>2019-07-25T13:35:16Z</time>
</trkpt>
<trkpt lat="44.8957069" lon="5.3696142">
<ele>1049.13</ele>
<time>2019-07-25T13:35:17Z</time>
</trkpt>
<trkpt lat="44.8957074" lon="5.3696145">
<ele>1049.13</ele>
<time>2019-07-25T13:35:18Z</time>
</trkpt>
<trkpt lat="44.8957080" lon="5.3696149">
<ele>1049.12</ele>
<time>2019-07-25T13:35:19Z</time>
</trkpt>
<trkpt lat="44.8957084" lon="5.3696152">
<ele>1049.12</ele>
<time>2019-07-25T13:35:20Z</time>
</trkpt>
<trkpt lat="44.8957089" lon="5.3696154">
<ele>1049.12</ele>
<time>2019-07-25T13:35:21Z</time>
</trkpt>
<trkpt lat="44.8957094" lon="5.3696156">
<ele>1049.12</ele>
<time>2019-07-25T13:35:22Z</time>
</trkpt>
<trkpt lat="44.8957098" lon="5.3696159">
<ele>1049.12</ele>
<time>2019-07-25T13:35:23Z</time>
</trkpt>
<trkpt lat="44.8957102" lon="5.3696161">
<ele>1049.12</ele>
<time>2019-07-25T13:35:24Z</time>
</trkpt>
<trkpt lat="44.8957106" lon="5.3696162">
<ele>1049.12</ele>
<time>2019-07-25T13:35:25Z</time>
</trkpt>
<trkpt lat="44.8957103" lon="5.3696160">
<ele>1049.12</ele>
<time>2019-07-25T13:35:26Z</time>
</trkpt>
<trkpt lat="44.8957105" lon="5.3696161">
<ele>1049.12</ele>
<time>2019-07-25T13:35:27Z</time>
</trkpt>
<trkpt lat="44.8957103" lon="5.3696161">
<ele>1049.12</ele>
<time>2019-07-25T13:35:28Z</time>
</trkpt>
<trkpt lat="44.8957103" lon="5.3696161">
<ele>1049.12</ele>
<time>2019-07-25T13:35:29Z</time>
</trkpt>
<trkpt lat="44.8957105" lon="5.3696162">
<ele>1049.12</ele>
<time>2019-07-25T13:35:30Z</time>
</trkpt>
<trkpt lat="44.8957108" lon="5.3696164">
<ele>1049.12</ele>
<time>2019-07-25T13:35:31Z</time>
</trkpt>
<trkpt lat="44.8957115" lon="5.3696168">
<ele>1049.13</ele>
<time>2019-07-25T13:35:32Z</time>
</trkpt>
<trkpt lat="44.8957116" lon="5.3696169">
<ele>1049.13</ele>
<time>2019-07-25T13:35:33Z</time>
</trkpt>
<trkpt lat="44.8957119" lon="5.3696171">
<ele>1049.13</ele>
<time>2019-07-25T13:35:34Z</time>
</trkpt>
<trkpt lat="44.8957118" lon="5.3696171">
<ele>1049.13</ele>
<time>2019-07-25T13:35:35Z</time>
</trkpt>
<trkpt lat="44.8957118" lon="5.3696171">
<ele>1049.12</ele>
<time>2019-07-25T13:35:36Z</time>
</trkpt>
<trkpt lat="44.8957115" lon="5.3696171">
<ele>1049.12</ele>
<time>2019-07-25T13:35:37Z</time>
</trkpt>
<trkpt lat="44.8957111" lon="5.3696170">
<ele>1049.12</ele>
<time>2019-07-25T13:35:38Z</time>
</trkpt>
<trkpt lat="44.8957110" lon="5.3696170">
<ele>1049.12</ele>
<time>2019-07-25T13:35:39Z</time>
</trkpt>
<trkpt lat="44.8957108" lon="5.3696170">
<ele>1049.12</ele>
<time>2019-07-25T13:35:40Z</time>
</trkpt>
<trkpt lat="44.8957107" lon="5.3696170">
<ele>1049.12</ele>
<time>2019-07-25T13:35:41Z</time>
</trkpt>
<trkpt lat="44.8957104" lon="5.3696170">
<ele>1049.12</ele>
<time>2019-07-25T13:35:42Z</time>
</trkpt>
<trkpt lat="44.8957103" lon="5.3696169">
<ele>1049.12</ele>
<time>2019-07-25T13:35:43Z</time>
</trkpt>
<trkpt lat="44.8957102" lon="5.3696170">
<ele>1049.12</ele>
<time>2019-07-25T13:35:44Z</time>
</trkpt>
<trkpt lat="44.8957102" lon="5.3696171">
<ele>1049.12</ele>
<time>2019-07-25T13:35:45Z</time>
</trkpt>
<trkpt lat="44.8957101" lon="5.3696170">
<ele>1049.12</ele>
<time>2019-07-25T13:35:46Z</time>
</trkpt>
<trkpt lat="44.8957098" lon="5.3696169">
<ele>1049.11</ele>
<time>2019-07-25T13:35:47Z</time>
</trkpt>
<trkpt lat="44.8957091" lon="5.3696165">
<ele>1049.11</ele>
<time>2019-07-25T13:35:48Z</time>
</trkpt>
<trkpt lat="44.8957092" lon="5.3696166">
<ele>1049.11</ele>
<time>2019-07-25T13:35:49Z</time>
</trkpt>
<trkpt lat="44.8957088" lon="5.3696164">
<ele>1049.11</ele>
<time>2019-07-25T13:35:50Z</time>
</trkpt>
<trkpt lat="44.8957085" lon="5.3696163">
<ele>1049.11</ele>
<time>2019-07-25T13:35:51Z</time>
</trkpt>
<trkpt lat="44.8957078" lon="5.3696159">
<ele>1049.11</ele>
<time>2019-07-25T13:35:52Z</time>
</trkpt>
<trkpt lat="44.8957078" lon="5.3696159">
<ele>1049.10</ele>
<time>2019-07-25T13:35:53Z</time>
</trkpt>
<trkpt lat="44.8957075" lon="5.3696157">
<ele>1049.10</ele>
<time>2019-07-25T13:35:54Z</time>
</trkpt>
<trkpt lat="44.8957070" lon="5.3696154">
<ele>1049.10</ele>
<time>2019-07-25T13:35:55Z</time>
</trkpt>
<trkpt lat="44.8957066" lon="5.3696152">
<ele>1049.10</ele>
<time>2019-07-25T13:35:56Z</time>
</trkpt>
<trkpt lat="44.8957066" lon="5.3696152">
<ele>1049.10</ele>
<time>2019-07-25T13:35:57Z</time>
</trkpt>
<trkpt lat="44.8957063" lon="5.3696150">
<ele>1049.09</ele>
<time>2019-07-25T13:35:58Z</time>
</trkpt>
<trkpt lat="44.8957061" lon="5.3696149">
<ele>1049.09</ele>
<time>2019-07-25T13:35:59Z</time>
</trkpt>
<trkpt lat="44.8957057" lon="5.3696147">
<ele>1049.09</ele>
<time>2019-07-25T13:36:00Z</time>
</trkpt>
<trkpt lat="44.8957058" lon="5.3696146">
<ele>1049.09</ele>
<time>2019-07-25T13:36:01Z</time>
</trkpt>
<trkpt lat="44.8957061" lon="5.3696148">
<ele>1049.09</ele>
<time>2019-07-25T13:36:02Z</time>
</trkpt>
<trkpt lat="44.8957064" lon="5.3696149">
<ele>1049.09</ele>
<time>2019-07-25T13:36:03Z</time>
</trkpt>
<trkpt lat="44.8957062" lon="5.3696148">
<ele>1049.08</ele>
<time>2019-07-25T13:36:04Z</time>
</trkpt>
<trkpt lat="44.8957061" lon="5.3696147">
<ele>1049.08</ele>
<time>2019-07-25T13:36:05Z</time>
</trkpt>
<trkpt lat="44.8957061" lon="5.3696147">
<ele>1049.08</ele>
<time>2019-07-25T13:36:06Z</time>
</trkpt>
<trkpt lat="44.8957059" lon="5.3696146">
<ele>1049.08</ele>
<time>2019-07-25T13:36:07Z</time>
</trkpt>
<trkpt lat="44.8957058" lon="5.3696145">
<ele>1049.08</ele>
<time>2019-07-25T13:36:08Z</time>
</trkpt>
<trkpt lat="44.8957057" lon="5.3696143">
<ele>1049.08</ele>
<time>2019-07-25T13:36:09Z</time>
</trkpt>
<trkpt lat="44.8957057" lon="5.3696142">
<ele>1049.07</ele>
<time>2019-07-25T13:36:10Z</time>
</trkpt>
<trkpt lat="44.8957053" lon="5.3696140">
<ele>1049.07</ele>
<time>2019-07-25T13:36:11Z</time>
</trkpt>
<trkpt lat="44.8957052" lon="5.3696138">
<ele>1049.07</ele>
<time>2019-07-25T13:36:12Z</time>
</trkpt>
<trkpt lat="44.8957051" lon="5.3696137">
<ele>1049.07</ele>
<time>2019-07-25T13:36:13Z</time>
</trkpt>
<trkpt lat="44.8957049" lon="5.3696135">
<ele>1049.06</ele>
<time>2019-07-25T13:36:14Z</time>
</trkpt>
<trkpt lat="44.8957047" lon="5.3696132">
<ele>1049.06</ele>
<time>2019-07-25T13:36:15Z</time>
</trkpt>
<trkpt lat="44.8957045" lon="5.3696130">
<ele>1049.06</ele>
<time>2019-07-25T13:36:16Z</time>
</trkpt>
<trkpt lat="44.8957038" lon="5.3696126">
<ele>1049.06</ele>
<time>2019-07-25T13:36:17Z</time>
</trkpt>
<trkpt lat="44.8957034" lon="5.3696123">
<ele>1049.06</ele>
<time>2019-07-25T13:36:18Z</time>
</trkpt>
<trkpt lat="44.8957030" lon="5.3696121">
<ele>1049.06</ele>
<time>2019-07-25T13:36:19Z</time>
</trkpt>
<trkpt lat="44.8957028" lon="5.3696121">
<ele>1049.05</ele>
<time>2019-07-25T13:36:20Z</time>
</trkpt>
<trkpt lat="44.8957029" lon="5.3696122">
<ele>1049.05</ele>
<time>2019-07-25T13:36:21Z</time>
</trkpt>
<trkpt lat="44.8957027" lon="5.3696122">
<ele>1049.05</ele>
<time>2019-07-25T13:36:22Z</time>
</trkpt>
<trkpt lat="44.8957021" lon="5.3696120">
<ele>1049.05</ele>
<time>2019-07-25T13:36:23Z</time>
</trkpt>
<trkpt lat="44.8957002" lon="5.3696110">
<ele>1049.05</ele>
<time>2019-07-25T13:36:24Z</time>
</trkpt>
<trkpt lat="44.8956999" lon="5.3696110">
<ele>1049.05</ele>
<time>2019-07-25T13:36:25Z</time>
</trkpt>
<trkpt lat="44.8956995" lon="5.3696110">
<ele>1049.05</ele>
<time>2019-07-25T13:36:26Z</time>
</trkpt>
<trkpt lat="44.8956988" lon="5.3696109">
<ele>1049.05</ele>
<time>2019-07-25T13:36:27Z</time>
</trkpt>
<trkpt lat="44.8956979" lon="5.3696108">
<ele>1049.05</ele>
<time>2019-07-25T13:36:28Z</time>
</trkpt>
<trkpt lat="44.8956966" lon="5.3696103">
<ele>1049.05</ele>
<time>2019-07-25T13:36:29Z</time>
</trkpt>
<trkpt lat="44.8956956" lon="5.3696098">
<ele>1049.05</ele>
<time>2019-07-25T13:36:30Z</time>
</trkpt>
<trkpt lat="44.8956923" lon="5.3696088">
<ele>1049.05</ele>
<time>2019-07-25T13:36:31Z</time>
</trkpt>
<trkpt lat="44.8956917" lon="5.3696088">
<ele>1049.05</ele>
<time>2019-07-25T13:36:32Z</time>
</trkpt>
<trkpt lat="44.8956913" lon="5.3696089">
<ele>1049.05</ele>
<time>2019-07-25T13:36:33Z</time>
</trkpt>
<trkpt lat="44.8956908" lon="5.3696087">
<ele>1049.05</ele>
<time>2019-07-25T13:36:34Z</time>
</trkpt>
<trkpt lat="44.8956899" lon="5.3696085">
<ele>1049.04</ele>
<time>2019-07-25T13:36:35Z</time>
</trkpt>
<trkpt lat="44.8956891" lon="5.3696084">
<ele>1049.04</ele>
<time>2019-07-25T13:36:36Z</time>
</trkpt>
<trkpt lat="44.8956886" lon="5.3696085">
<ele>1049.04</ele>
<time>2019-07-25T13:36:37Z</time>
</trkpt>
<trkpt lat="44.8956881" lon="5.3696084">
<ele>1049.04</ele>
<time>2019-07-25T13:36:38Z</time>
</trkpt>
<trkpt lat="44.8956880" lon="5.3696086">
<ele>1049.04</ele>
<time>2019-07-25T13:36:39Z</time>
</trkpt>
<trkpt lat="44.8956869" lon="5.3696084">
<ele>1049.04</ele>
<time>2019-07-25T13:36:40Z</time>
</trkpt>
<trkpt lat="44.8956861" lon="5.3696084">
<ele>1049.04</ele>
<time>2019-07-25T13:36:41Z</time>
</trkpt>
<trkpt lat="44.8956851" lon="5.3696086">
<ele>1049.04</ele>
<time>2019-07-25T13:36:42Z</time>
</trkpt>
<trkpt lat="44.8956845" lon="5.3696085">
<ele>1049.04</ele>
<time>2019-07-25T13:36:43Z</time>
</trkpt>
<trkpt lat="44.8956831" lon="5.3696085">
<ele>1049.04</ele>
<time>2019-07-25T13:36:44Z</time>
</trkpt>
<trkpt lat="44.8956812" lon="5.3696081">
<ele>1049.04</ele>
<time>2019-07-25T13:36:45Z</time>
</trkpt>
<trkpt lat="44.8956784" lon="5.3696073">
<ele>1049.04</ele>
<time>2019-07-25T13:36:46Z</time>
</trkpt>
<trkpt lat="44.8955385" lon="5.3696732">
<ele>1048.10</ele>
<time>2019-07-25T13:37:00Z</time>
</trkpt>
<trkpt lat="44.8955389" lon="5.3696730">
<ele>1048.09</ele>
<time>2019-07-25T13:37:01Z</time>
</trkpt>
<trkpt lat="44.8955396" lon="5.3696728">
<ele>1048.08</ele>
<time>2019-07-25T13:37:02Z</time>
</trkpt>
<trkpt lat="44.8955412" lon="5.3696732">
<ele>1048.06</ele>
<time>2019-07-25T13:37:03Z</time>
</trkpt>
<trkpt lat="44.8955430" lon="5.3696739">
<ele>1048.05</ele>
<time>2019-07-25T13:37:04Z</time>
</trkpt>
<trkpt lat="44.8955455" lon="5.3696745">
<ele>1048.04</ele>
<time>2019-07-25T13:37:05Z</time>
</trkpt>
<trkpt lat="44.8955478" lon="5.3696753">
<ele>1048.02</ele>
<time>2019-07-25T13:37:06Z</time>
</trkpt>
<trkpt lat="44.8955514" lon="5.3696752">
<ele>1048.01</ele>
<time>2019-07-25T13:37:07Z</time>
</trkpt>
<trkpt lat="44.8955549" lon="5.3696804">
<ele>1048.00</ele>
<time>2019-07-25T13:37:08Z</time>
</trkpt>
<trkpt lat="44.8955354" lon="5.3696780">
<ele>1047.87</ele>
<time>2019-07-25T13:37:09Z</time>
</trkpt>
<trkpt lat="44.8955383" lon="5.3696865">
<ele>1047.74</ele>
<time>2019-07-25T13:37:10Z</time>
</trkpt>
<trkpt lat="44.8955427" lon="5.3696960">
<ele>1047.62</ele>
<time>2019-07-25T13:37:11Z</time>
</trkpt>
<trkpt lat="44.8955505" lon="5.3697093">
<ele>1047.50</ele>
<time>2019-07-25T13:37:12Z</time>
</trkpt>
<trkpt lat="44.8955551" lon="5.3697151">
<ele>1047.39</ele>
<time>2019-07-25T13:37:13Z</time>
</trkpt>
<trkpt lat="44.8955576" lon="5.3697172">
<ele>1047.28</ele>
<time>2019-07-25T13:37:14Z</time>
</trkpt>
<trkpt lat="44.8955561" lon="5.3697159">
<ele>1047.27</ele>
<time>2019-07-25T13:37:15Z</time>
</trkpt>
<trkpt lat="44.8955570" lon="5.3697144">
<ele>1047.26</ele>
<time>2019-07-25T13:37:16Z</time>
</trkpt>
<trkpt lat="44.8955576" lon="5.3697112">
<ele>1047.25</ele>
<time>2019-07-25T13:37:17Z</time>
</trkpt>
<trkpt lat="44.8955576" lon="5.3697088">
<ele>1047.24</ele>
<time>2019-07-25T13:37:18Z</time>
</trkpt>
<trkpt lat="44.8955573" lon="5.3697070">
<ele>1047.23</ele>
<time>2019-07-25T13:37:19Z</time>
</trkpt>
<trkpt lat="44.8955578" lon="5.3697062">
<ele>1047.22</ele>
<time>2019-07-25T13:37:20Z</time>
</trkpt>
<trkpt lat="44.8955584" lon="5.3697018">
<ele>1047.21</ele>
<time>2019-07-25T13:37:21Z</time>
</trkpt>
<trkpt lat="44.8955588" lon="5.3696957">
<ele>1047.21</ele>
<time>2019-07-25T13:37:22Z</time>
</trkpt>
<trkpt lat="44.8955575" lon="5.3696932">
<ele>1047.20</ele>
<time>2019-07-25T13:37:23Z</time>
</trkpt>
<trkpt lat="44.8955520" lon="5.3696898">
<ele>1047.19</ele>
<time>2019-07-25T13:37:24Z</time>
</trkpt>
<trkpt lat="44.8955537" lon="5.3696861">
<ele>1047.18</ele>
<time>2019-07-25T13:37:25Z</time>
</trkpt>
<trkpt lat="44.8955548" lon="5.3696846">
<ele>1047.17</ele>
<time>2019-07-25T13:37:26Z</time>
</trkpt>
<trkpt lat="44.8955550" lon="5.3696838">
<ele>1047.16</ele>
<time>2019-07-25T13:37:27Z</time>
</trkpt>
<trkpt lat="44.8955579" lon="5.3696762">
<ele>1047.16</ele>
<time>2019-07-25T13:37:28Z</time>
</trkpt>
<trkpt lat="44.8955665" lon="5.3696691">
<ele>1047.15</ele>
<time>2019-07-25T13:37:29Z</time>
</trkpt>
<trkpt lat="44.8955656" lon="5.3696686">
<ele>1047.14</ele>
<time>2019-07-25T13:37:30Z</time>
</trkpt>
<trkpt lat="44.8955658" lon="5.3696683">
<ele>1047.13</ele>
<time>2019-07-25T13:37:31Z</time>
</trkpt>
<trkpt lat="44.8955661" lon="5.3696682">
<ele>1047.13</ele>
<time>2019-07-25T13:37:32Z</time>
</trkpt>
<trkpt lat="44.8955664" lon="5.3696680">
<ele>1047.12</ele>
<time>2019-07-25T13:37:33Z</time>
</trkpt>
<trkpt lat="44.8955666" lon="5.3696678">
<ele>1047.11</ele>
<time>2019-07-25T13:37:34Z</time>
</trkpt>
<trkpt lat="44.8955667" lon="5.3696677">
<ele>1047.10</ele>
<time>2019-07-25T13:37:35Z</time>
</trkpt>
<trkpt lat="44.8955671" lon="5.3696675">
<ele>1047.10</ele>
<time>2019-07-25T13:37:36Z</time>
</trkpt>
<trkpt lat="44.8955672" lon="5.3696673">
<ele>1047.09</ele>
<time>2019-07-25T13:37:37Z</time>
</trkpt>
<trkpt lat="44.8955664" lon="5.3696664">
<ele>1047.08</ele>
<time>2019-07-25T13:37:38Z</time>
</trkpt>
<trkpt lat="44.8955636" lon="5.3696647">
<ele>1047.08</ele>
<time>2019-07-25T13:37:39Z</time>
</trkpt>
<trkpt lat="44.8955614" lon="5.3696635">
<ele>1047.07</ele>
<time>2019-07-25T13:37:40Z</time>
</trkpt>
<trkpt lat="44.8955587" lon="5.3696621">
<ele>1047.07</ele>
<time>2019-07-25T13:37:41Z</time>
</trkpt>
<trkpt lat="44.8955556" lon="5.3696607">
<ele>1047.06</ele>
<time>2019-07-25T13:37:42Z</time>
</trkpt>
<trkpt lat="44.8955508" lon="5.3696586">
<ele>1047.05</ele>
<time>2019-07-25T13:37:43Z</time>
</trkpt>
<trkpt lat="44.8955510" lon="5.3696584">
<ele>1047.05</ele>
<time>2019-07-25T13:37:44Z</time>
</trkpt>
<trkpt lat="44.8955496" lon="5.3696576">
<ele>1047.04</ele>
<time>2019-07-25T13:37:45Z</time>
</trkpt>
<trkpt lat="44.8955501" lon="5.3696574">
<ele>1047.04</ele>
<time>2019-07-25T13:37:46Z</time>
</trkpt>
<trkpt lat="44.8955503" lon="5.3696572">
<ele>1047.03</ele>
<time>2019-07-25T13:37:47Z</time>
</trkpt>
<trkpt lat="44.8955505" lon="5.3696570">
<ele>1047.03</ele>
<time>2019-07-25T13:37:48Z</time>
</trkpt>
<trkpt lat="44.8955504" lon="5.3696567">
<ele>1047.02</ele>
<time>2019-07-25T13:37:49Z</time>
</trkpt>
<trkpt lat="44.8955493" lon="5.3696561">
<ele>1047.01</ele>
<time>2019-07-25T13:37:50Z</time>
</trkpt>
<trkpt lat="44.8955495" lon="5.3696561">
<ele>1047.01</ele>
<time>2019-07-25T13:37:51Z</time>
</trkpt>
<trkpt lat="44.8955483" lon="5.3696556">
<ele>1047.00</ele>
<time>2019-07-25T13:37:52Z</time>
</trkpt>
<trkpt lat="44.8955474" lon="5.3696552">
<ele>1046.99</ele>
<time>2019-07-25T13:37:53Z</time>
</trkpt>
<trkpt lat="44.8955470" lon="5.3696549">
<ele>1046.99</ele>
<time>2019-07-25T13:37:54Z</time>
</trkpt>
<trkpt lat="44.8955473" lon="5.3696548">
<ele>1046.98</ele>
<time>2019-07-25T13:37:55Z</time>
</trkpt>
<trkpt lat="44.8955476" lon="5.3696547">
<ele>1046.97</ele>
<time>2019-07-25T13:37:56Z</time>
</trkpt>
<trkpt lat="44.8955477" lon="5.3696546">
<ele>1046.97</ele>
<time>2019-07-25T13:37:57Z</time>
</trkpt>
<trkpt lat="44.8955472" lon="5.3696544">
<ele>1046.96</ele>
<time>2019-07-25T13:37:58Z</time>
</trkpt>
<trkpt lat="44.8955472" lon="5.3696542">
<ele>1046.95</ele>
<time>2019-07-25T13:37:59Z</time>
</trkpt>
<trkpt lat="44.8955475" lon="5.3696541">
<ele>1046.95</ele>
<time>2019-07-25T13:38:00Z</time>
</trkpt>
<trkpt lat="44.8955476" lon="5.3696539">
<ele>1046.94</ele>
<time>2019-07-25T13:38:01Z</time>
</trkpt>
<trkpt lat="44.8955478" lon="5.3696532">
<ele>1046.93</ele>
<time>2019-07-25T13:38:02Z</time>
</trkpt>
<trkpt lat="44.8955479" lon="5.3696528">
<ele>1046.93</ele>
<time>2019-07-25T13:38:03Z</time>
</trkpt>
<trkpt lat="44.8955477" lon="5.3696525">
<ele>1046.92</ele>
<time>2019-07-25T13:38:04Z</time>
</trkpt>
<trkpt lat="44.8955467" lon="5.3696519">
<ele>1046.92</ele>
<time>2019-07-25T13:38:05Z</time>
</trkpt>
<trkpt lat="44.8955452" lon="5.3696511">
<ele>1046.91</ele>
<time>2019-07-25T13:38:06Z</time>
</trkpt>
<trkpt lat="44.8955396" lon="5.3696493">
<ele>1046.90</ele>
<time>2019-07-25T13:38:07Z</time>
</trkpt>
<trkpt lat="44.8955372" lon="5.3696479">
<ele>1046.90</ele>
<time>2019-07-25T13:38:08Z</time>
</trkpt>
<trkpt lat="44.8955323" lon="5.3696459">
<ele>1046.89</ele>
<time>2019-07-25T13:38:09Z</time>
</trkpt>
<trkpt lat="44.8955323" lon="5.3696452">
<ele>1046.89</ele>
<time>2019-07-25T13:38:10Z</time>
</trkpt>
<trkpt lat="44.8955326" lon="5.3696448">
<ele>1046.88</ele>
<time>2019-07-25T13:38:11Z</time>
</trkpt>
<trkpt lat="44.8955325" lon="5.3696443">
<ele>1046.87</ele>
<time>2019-07-25T13:38:12Z</time>
</trkpt>
<trkpt lat="44.8955329" lon="5.3696439">
<ele>1046.87</ele>
<time>2019-07-25T13:38:13Z</time>
</trkpt>
<trkpt lat="44.8955331" lon="5.3696435">
<ele>1046.86</ele>
<time>2019-07-25T13:38:14Z</time>
</trkpt>
<trkpt lat="44.8955334" lon="5.3696433">
<ele>1046.86</ele>
<time>2019-07-25T13:38:15Z</time>
</trkpt>
<trkpt lat="44.8955335" lon="5.3696432">
<ele>1046.85</ele>
<time>2019-07-25T13:38:16Z</time>
</trkpt>
<trkpt lat="44.8955333" lon="5.3696428">
<ele>1046.84</ele>
<time>2019-07-25T13:38:17Z</time>
</trkpt>
<trkpt lat="44.8955321" lon="5.3696424">
<ele>1046.84</ele>
<time>2019-07-25T13:38:18Z</time>
</trkpt>
<trkpt lat="44.8955266" lon="5.3696410">
<ele>1046.83</ele>
<time>2019-07-25T13:38:19Z</time>
</trkpt>
<trkpt lat="44.8955265" lon="5.3696408">
<ele>1046.83</ele>
<time>2019-07-25T13:38:20Z</time>
</trkpt>
<trkpt lat="44.8955268" lon="5.3696407">
<ele>1046.82</ele>
<time>2019-07-25T13:38:21Z</time>
</trkpt>
<trkpt lat="44.8955264" lon="5.3696403">
<ele>1046.82</ele>
<time>2019-07-25T13:38:22Z</time>
</trkpt>
<trkpt lat="44.8955265" lon="5.3696400">
<ele>1046.81</ele>
<time>2019-07-25T13:38:23Z</time>
</trkpt>
<trkpt lat="44.8955265" lon="5.3696398">
<ele>1046.81</ele>
<time>2019-07-25T13:38:24Z</time>
</trkpt>
<trkpt lat="44.8955249" lon="5.3696392">
<ele>1046.80</ele>
<time>2019-07-25T13:38:25Z</time>
</trkpt>
<trkpt lat="44.8955249" lon="5.3696390">
<ele>1046.80</ele>
<time>2019-07-25T13:38:26Z</time>
</trkpt>
<trkpt lat="44.8955252" lon="5.3696389">
<ele>1046.79</ele>
<time>2019-07-25T13:38:27Z</time>
</trkpt>
<trkpt lat="44.8955251" lon="5.3696387">
<ele>1046.79</ele>
<time>2019-07-25T13:38:28Z</time>
</trkpt>
<trkpt lat="44.8955252" lon="5.3696385">
<ele>1046.78</ele>
<time>2019-07-25T13:38:29Z</time>
</trkpt>
<trkpt lat="44.8955250" lon="5.3696382">
<ele>1046.78</ele>
<time>2019-07-25T13:38:30Z</time>
</trkpt>
<trkpt lat="44.8955236" lon="5.3696376">
<ele>1046.77</ele>
<time>2019-07-25T13:38:31Z</time>
</trkpt>
<trkpt lat="44.8955224" lon="5.3696371">
<ele>1046.77</ele>
<time>2019-07-25T13:38:32Z</time>
</trkpt>
<trkpt lat="44.8955206" lon="5.3696363">
<ele>1046.77</ele>
<time>2019-07-25T13:38:33Z</time>
</trkpt>
<trkpt lat="44.8955168" lon="5.3696352">
<ele>1046.76</ele>
<time>2019-07-25T13:38:34Z</time>
</trkpt>
<trkpt lat="44.8955148" lon="5.3696344">
<ele>1046.76</ele>
<time>2019-07-25T13:38:35Z</time>
</trkpt>
<trkpt lat="44.8955093" lon="5.3696326">
<ele>1046.76</ele>
<time>2019-07-25T13:38:36Z</time>
</trkpt>
<trkpt lat="44.8955053" lon="5.3696312">
<ele>1046.75</ele>
<time>2019-07-25T13:38:37Z</time>
</trkpt>
<trkpt lat="44.8955009" lon="5.3696305">
<ele>1046.75</ele>
<time>2019-07-25T13:38:38Z</time>
</trkpt>
<trkpt lat="44.8954914" lon="5.3696310">
<ele>1046.75</ele>
<time>2019-07-25T13:38:39Z</time>
</trkpt>
<trkpt lat="44.8954871" lon="5.3696311">
<ele>1046.75</ele>
<time>2019-07-25T13:38:40Z</time>
</trkpt>
<trkpt lat="44.8954852" lon="5.3696313">
<ele>1046.75</ele>
<time>2019-07-25T13:38:41Z</time>
</trkpt>
<trkpt lat="44.8954855" lon="5.3696311">
<ele>1046.74</ele>
<time>2019-07-25T13:38:42Z</time>
</trkpt>
<trkpt lat="44.8954858" lon="5.3696309">
<ele>1046.74</ele>
<time>2019-07-25T13:38:43Z</time>
</trkpt>
<trkpt lat="44.8954857" lon="5.3696308">
<ele>1046.74</ele>
<time>2019-07-25T13:38:44Z</time>
</trkpt>
<trkpt lat="44.8954853" lon="5.3696307">
<ele>1046.74</ele>
<time>2019-07-25T13:38:45Z</time>
</trkpt>
<trkpt lat="44.8954846" lon="5.3696307">
<ele>1046.74</ele>
<time>2019-07-25T13:38:46Z</time>
</trkpt>
<trkpt lat="44.8954826" lon="5.3696310">
<ele>1046.73</ele>
<time>2019-07-25T13:38:47Z</time>
</trkpt>
<trkpt lat="44.8954799" lon="5.3696315">
<ele>1046.73</ele>
<time>2019-07-25T13:38:48Z</time>
</trkpt>
<trkpt lat="44.8954793" lon="5.3696315">
<ele>1046.73</ele>
<time>2019-07-25T13:38:49Z</time>
</trkpt>
<trkpt lat="44.8954782" lon="5.3696317">
<ele>1046.73</ele>
<time>2019-07-25T13:38:50Z</time>
</trkpt>
<trkpt lat="44.8954771" lon="5.3696318">
<ele>1046.73</ele>
<time>2019-07-25T13:38:51Z</time>
</trkpt>
<trkpt lat="44.8954773" lon="5.3696317">
<ele>1046.73</ele>
<time>2019-07-25T13:38:52Z</time>
</trkpt>
<trkpt lat="44.8954764" lon="5.3696318">
<ele>1046.72</ele>
<time>2019-07-25T13:38:53Z</time>
</trkpt>
<trkpt lat="44.8954750" lon="5.3696320">
<ele>1046.72</ele>
<time>2019-07-25T13:38:54Z</time>
</trkpt>
<trkpt lat="44.8954731" lon="5.3696325">
<ele>1046.72</ele>
<time>2019-07-25T13:38:55Z</time>
</trkpt>
<trkpt lat="44.8954702" lon="5.3696327">
<ele>1046.72</ele>
<time>2019-07-25T13:38:56Z</time>
</trkpt>
<trkpt lat="44.8954703" lon="5.3696326">
<ele>1046.72</ele>
<time>2019-07-25T13:38:57Z</time>
</trkpt>
<trkpt lat="44.8954696" lon="5.3696326">
<ele>1046.72</ele>
<time>2019-07-25T13:38:58Z</time>
</trkpt>
<trkpt lat="44.8954683" lon="5.3696326">
<ele>1046.72</ele>
<time>2019-07-25T13:38:59Z</time>
</trkpt>
<trkpt lat="44.8954665" lon="5.3696325">
<ele>1046.71</ele>
<time>2019-07-25T13:39:00Z</time>
</trkpt>
<trkpt lat="44.8954647" lon="5.3696327">
<ele>1046.71</ele>
<time>2019-07-25T13:39:01Z</time>
</trkpt>
<trkpt lat="44.8954626" lon="5.3696330">
<ele>1046.71</ele>
<time>2019-07-25T13:39:02Z</time>
</trkpt>
<trkpt lat="44.8954627" lon="5.3696328">
<ele>1046.71</ele>
<time>2019-07-25T13:39:03Z</time>
</trkpt>
<trkpt lat="44.8954631" lon="5.3696328">
<ele>1046.71</ele>
<time>2019-07-25T13:39:04Z</time>
</trkpt>
<trkpt lat="44.8954633" lon="5.3696327">
<ele>1046.71</ele>
<time>2019-07-25T13:39:05Z</time>
</trkpt>
<trkpt lat="44.8954663" lon="5.3696316">
<ele>1046.71</ele>
<time>2019-07-25T13:39:06Z</time>
</trkpt>
<trkpt lat="44.8954665" lon="5.3696314">
<ele>1046.71</ele>
<time>2019-07-25T13:39:07Z</time>
</trkpt>
<trkpt lat="44.8954824" lon="5.3696275">
<ele>1046.70</ele>
<time>2019-07-25T13:39:08Z</time>
</trkpt>
<trkpt lat="44.8955040" lon="5.3696119">
<ele>1046.70</ele>
<time>2019-07-25T13:39:09Z</time>
</trkpt>
<trkpt lat="44.8955250" lon="5.3696024">
<ele>1046.68</ele>
<time>2019-07-25T13:39:10Z</time>
</trkpt>
<trkpt lat="44.8955248" lon="5.3696022">
<ele>1046.68</ele>
<time>2019-07-25T13:39:11Z</time>
</trkpt>
<trkpt lat="44.8955242" lon="5.3696022">
<ele>1046.68</ele>
<time>2019-07-25T13:39:12Z</time>
</trkpt>
<trkpt lat="44.8955465" lon="5.3696043">
<ele>1046.67</ele>
<time>2019-07-25T13:39:13Z</time>
</trkpt>
<trkpt lat="44.8955542" lon="5.3696027">
<ele>1046.67</ele>
<time>2019-07-25T13:39:14Z</time>
</trkpt>
<trkpt lat="44.8955644" lon="5.3696009">
<ele>1046.67</ele>
<time>2019-07-25T13:39:15Z</time>
</trkpt>
<trkpt lat="44.8955650" lon="5.3696012">
<ele>1046.67</ele>
<time>2019-07-25T13:39:16Z</time>
</trkpt>
<trkpt lat="44.8955653" lon="5.3696010">
<ele>1046.66</ele>
<time>2019-07-25T13:39:17Z</time>
</trkpt>
<trkpt lat="44.8955656" lon="5.3696011">
<ele>1046.66</ele>
<time>2019-07-25T13:39:18Z</time>
</trkpt>
<trkpt lat="44.8955661" lon="5.3696010">
<ele>1046.66</ele>
<time>2019-07-25T13:39:19Z</time>
</trkpt>
<trkpt lat="44.8955659" lon="5.3696010">
<ele>1046.66</ele>
<time>2019-07-25T13:39:20Z</time>
</trkpt>
<trkpt lat="44.8955707" lon="5.3696043">
<ele>1046.66</ele>
<time>2019-07-25T13:39:21Z</time>
</trkpt>
<trkpt lat="44.8955826" lon="5.3696035">
<ele>1046.65</ele>
<time>2019-07-25T13:39:22Z</time>
</trkpt>
<trkpt lat="44.8955841" lon="5.3696065">
<ele>1046.65</ele>
<time>2019-07-25T13:39:23Z</time>
</trkpt>
<trkpt lat="44.8955916" lon="5.3696094">
<ele>1046.65</ele>
<time>2019-07-25T13:39:24Z</time>
</trkpt>
<trkpt lat="44.8955973" lon="5.3696056">
<ele>1046.65</ele>
<time>2019-07-25T13:39:25Z</time>
</trkpt>
<trkpt lat="44.8955970" lon="5.3696058">
<ele>1046.64</ele>
<time>2019-07-25T13:39:26Z</time>
</trkpt>
<trkpt lat="44.8955968" lon="5.3696058">
<ele>1046.64</ele>
<time>2019-07-25T13:39:27Z</time>
</trkpt>
<trkpt lat="44.8955979" lon="5.3696058">
<ele>1046.64</ele>
<time>2019-07-25T13:39:28Z</time>
</trkpt>
<trkpt lat="44.8956088" lon="5.3696035">
<ele>1046.64</ele>
<time>2019-07-25T13:39:29Z</time>
</trkpt>
<trkpt lat="44.8956132" lon="5.3696034">
<ele>1046.63</ele>
<time>2019-07-25T13:39:30Z</time>
</trkpt>
<trkpt lat="44.8956186" lon="5.3695990">
<ele>1046.63</ele>
<time>2019-07-25T13:39:31Z</time>
</trkpt>
<trkpt lat="44.8956185" lon="5.3695991">
<ele>1046.63</ele>
<time>2019-07-25T13:39:32Z</time>
</trkpt>
<trkpt lat="44.8956187" lon="5.3695992">
<ele>1046.63</ele>
<time>2019-07-25T13:39:33Z</time>
</trkpt>
<trkpt lat="44.8956169" lon="5.3695999">
<ele>1046.63</ele>
<time>2019-07-25T13:39:34Z</time>
</trkpt>
<trkpt lat="44.8956172" lon="5.3695999">
<ele>1046.62</ele>
<time>2019-07-25T13:39:35Z</time>
</trkpt>
<trkpt lat="44.8956148" lon="5.3696010">
<ele>1046.62</ele>
<time>2019-07-25T13:39:36Z</time>
</trkpt>
<trkpt lat="44.8956151" lon="5.3696011">
<ele>1046.62</ele>
<time>2019-07-25T13:39:37Z</time>
</trkpt>
<trkpt lat="44.8956162" lon="5.3696041">
<ele>1046.62</ele>
<time>2019-07-25T13:39:38Z</time>
</trkpt>
<trkpt lat="44.8956129" lon="5.3696056">
<ele>1046.62</ele>
<time>2019-07-25T13:39:39Z</time>
</trkpt>
<trkpt lat="44.8956113" lon="5.3696078">
<ele>1046.60</ele>
<time>2019-07-25T13:39:40Z</time>
</trkpt>
<trkpt lat="44.8956145" lon="5.3696069">
<ele>1046.60</ele>
<time>2019-07-25T13:39:41Z</time>
</trkpt>
<trkpt lat="44.8956145" lon="5.3696080">
<ele>1046.60</ele>
<time>2019-07-25T13:39:42Z</time>
</trkpt>
<trkpt lat="44.8956148" lon="5.3696092">
<ele>1046.60</ele>
<time>2019-07-25T13:39:43Z</time>
</trkpt>
<trkpt lat="44.8956134" lon="5.3696103">
<ele>1046.59</ele>
<time>2019-07-25T13:39:44Z</time>
</trkpt>
<trkpt lat="44.8956149" lon="5.3696081">
<ele>1046.58</ele>
<time>2019-07-25T13:39:45Z</time>
</trkpt>
<trkpt lat="44.8956150" lon="5.3696063">
<ele>1046.57</ele>
<time>2019-07-25T13:39:46Z</time>
</trkpt>
<trkpt lat="44.8956155" lon="5.3696061">
<ele>1046.57</ele>
<time>2019-07-25T13:39:47Z</time>
</trkpt>
<trkpt lat="44.8956154" lon="5.3696078">
<ele>1046.57</ele>
<time>2019-07-25T13:39:48Z</time>
</trkpt>
<trkpt lat="44.8956147" lon="5.3696083">
<ele>1046.57</ele>
<time>2019-07-25T13:39:49Z</time>
</trkpt>
<trkpt lat="44.8956149" lon="5.3696082">
<ele>1046.57</ele>
<time>2019-07-25T13:39:50Z</time>
</trkpt>
<trkpt lat="44.8956150" lon="5.3696081">
<ele>1046.57</ele>
<time>2019-07-25T13:39:51Z</time>
</trkpt>
<trkpt lat="44.8956148" lon="5.3696083">
<ele>1046.57</ele>
<time>2019-07-25T13:39:52Z</time>
</trkpt>
<trkpt lat="44.8956150" lon="5.3696082">
<ele>1046.57</ele>
<time>2019-07-25T13:39:53Z</time>
</trkpt>
<trkpt lat="44.8956150" lon="5.3696083">
<ele>1046.57</ele>
<time>2019-07-25T13:39:54Z</time>
</trkpt>
<trkpt lat="44.8956152" lon="5.3696082">
<ele>1046.58</ele>
<time>2019-07-25T13:39:55Z</time>
</trkpt>
<trkpt lat="44.8956150" lon="5.3696083">
<ele>1046.58</ele>
<time>2019-07-25T13:39:56Z</time>
</trkpt>
<trkpt lat="44.8956151" lon="5.3696083">
<ele>1046.58</ele>
<time>2019-07-25T13:39:57Z</time>
</trkpt>
<trkpt lat="44.8956151" lon="5.3696083">
<ele>1046.58</ele>
<time>2019-07-25T13:39:58Z</time>
</trkpt>
<trkpt lat="44.8956152" lon="5.3696082">
<ele>1046.58</ele>
<time>2019-07-25T13:39:59Z</time>
</trkpt>
<trkpt lat="44.8956153" lon="5.3696083">
<ele>1046.59</ele>
<time>2019-07-25T13:40:00Z</time>
</trkpt>
<trkpt lat="44.8956154" lon="5.3696083">
<ele>1046.59</ele>
<time>2019-07-25T13:40:01Z</time>
</trkpt>
<trkpt lat="44.8956157" lon="5.3696082">
<ele>1046.59</ele>
<time>2019-07-25T13:40:02Z</time>
</trkpt>
<trkpt lat="44.8956156" lon="5.3696083">
<ele>1046.59</ele>
<time>2019-07-25T13:40:03Z</time>
</trkpt>
<trkpt lat="44.8956157" lon="5.3696082">
<ele>1046.60</ele>
<time>2019-07-25T13:40:04Z</time>
</trkpt>
<trkpt lat="44.8956157" lon="5.3696081">
<ele>1046.60</ele>
<time>2019-07-25T13:40:05Z</time>
</trkpt>
<trkpt lat="44.8956158" lon="5.3696080">
<ele>1046.61</ele>
<time>2019-07-25T13:40:06Z</time>
</trkpt>
<trkpt lat="44.8956159" lon="5.3696079">
<ele>1046.61</ele>
<time>2019-07-25T13:40:07Z</time>
</trkpt>
<trkpt lat="44.8956158" lon="5.3696080">
<ele>1046.62</ele>
<time>2019-07-25T13:40:08Z</time>
</trkpt>
<trkpt lat="44.8956159" lon="5.3696079">
<ele>1046.62</ele>
<time>2019-07-25T13:40:09Z</time>
</trkpt>
<trkpt lat="44.8956161" lon="5.3696078">
<ele>1046.63</ele>
<time>2019-07-25T13:40:10Z</time>
</trkpt>
<trkpt lat="44.8956157" lon="5.3696085">
<ele>1046.63</ele>
<time>2019-07-25T13:40:11Z</time>
</trkpt>
<trkpt lat="44.8956154" lon="5.3696091">
<ele>1046.64</ele>
<time>2019-07-25T13:40:12Z</time>
</trkpt>
<trkpt lat="44.8956154" lon="5.3696090">
<ele>1046.64</ele>
<time>2019-07-25T13:40:13Z</time>
</trkpt>
<trkpt lat="44.8956153" lon="5.3696092">
<ele>1046.65</ele>
<time>2019-07-25T13:40:14Z</time>
</trkpt>
<trkpt lat="44.8956154" lon="5.3696091">
<ele>1046.66</ele>
<time>2019-07-25T13:40:15Z</time>
</trkpt>
<trkpt lat="44.8956154" lon="5.3696091">
<ele>1046.66</ele>
<time>2019-07-25T13:40:16Z</time>
</trkpt>
<trkpt lat="44.8956155" lon="5.3696089">
<ele>1046.67</ele>
<time>2019-07-25T13:40:17Z</time>
</trkpt>
<trkpt lat="44.8956155" lon="5.3696089">
<ele>1046.68</ele>
<time>2019-07-25T13:40:18Z</time>
</trkpt>
<trkpt lat="44.8956156" lon="5.3696086">
<ele>1046.69</ele>
<time>2019-07-25T13:40:19Z</time>
</trkpt>
<trkpt lat="44.8956157" lon="5.3696085">
<ele>1046.69</ele>
<time>2019-07-25T13:40:20Z</time>
</trkpt>
<trkpt lat="44.8956157" lon="5.3696083">
<ele>1046.70</ele>
<time>2019-07-25T13:40:21Z</time>
</trkpt>
<trkpt lat="44.8956158" lon="5.3696081">
<ele>1046.71</ele>
<time>2019-07-25T13:40:22Z</time>
</trkpt>
<trkpt lat="44.8956158" lon="5.3696080">
<ele>1046.72</ele>
<time>2019-07-25T13:40:23Z</time>
</trkpt>
<trkpt lat="44.8956159" lon="5.3696079">
<ele>1046.73</ele>
<time>2019-07-25T13:40:24Z</time>
</trkpt>
<trkpt lat="44.8956160" lon="5.3696076">
<ele>1046.74</ele>
<time>2019-07-25T13:40:25Z</time>
</trkpt>
<trkpt lat="44.8956160" lon="5.3696076">
<ele>1046.75</ele>
<time>2019-07-25T13:40:26Z</time>
</trkpt>
<trkpt lat="44.8956162" lon="5.3696074">
<ele>1046.76</ele>
<time>2019-07-25T13:40:27Z</time>
</trkpt>
<trkpt lat="44.8956162" lon="5.3696073">
<ele>1046.77</ele>
<time>2019-07-25T13:40:28Z</time>
</trkpt>
<trkpt lat="44.8956163" lon="5.3696072">
<ele>1046.78</ele>
<time>2019-07-25T13:40:29Z</time>
</trkpt>
<trkpt lat="44.8956164" lon="5.3696070">
<ele>1046.79</ele>
<time>2019-07-25T13:40:30Z</time>
</trkpt>
<trkpt lat="44.8956165" lon="5.3696068">
<ele>1046.80</ele>
<time>2019-07-25T13:40:31Z</time>
</trkpt>
<trkpt lat="44.8956166" lon="5.3696066">
<ele>1046.81</ele>
<time>2019-07-25T13:40:32Z</time>
</trkpt>
<trkpt lat="44.8956166" lon="5.3696066">
<ele>1046.83</ele>
<time>2019-07-25T13:40:33Z</time>
</trkpt>
<trkpt lat="44.8956167" lon="5.3696064">
<ele>1046.84</ele>
<time>2019-07-25T13:40:34Z</time>
</trkpt>
<trkpt lat="44.8956168" lon="5.3696062">
<ele>1046.85</ele>
<time>2019-07-25T13:40:35Z</time>
</trkpt>
<trkpt lat="44.8956167" lon="5.3696064">
<ele>1046.86</ele>
<time>2019-07-25T13:40:36Z</time>
</trkpt>
<trkpt lat="44.8956169" lon="5.3696062">
<ele>1046.88</ele>
<time>2019-07-25T13:40:37Z</time>
</trkpt>
<trkpt lat="44.8956170" lon="5.3696061">
<ele>1046.89</ele>
<time>2019-07-25T13:40:38Z</time>
</trkpt>
<trkpt lat="44.8956171" lon="5.3696060">
<ele>1046.90</ele>
<time>2019-07-25T13:40:39Z</time>
</trkpt>
<trkpt lat="44.8956172" lon="5.3696058">
<ele>1046.92</ele>
<time>2019-07-25T13:40:40Z</time>
</trkpt>
<trkpt lat="44.8956174" lon="5.3696057">
<ele>1046.93</ele>
<time>2019-07-25T13:40:41Z</time>
</trkpt>
<trkpt lat="44.8956174" lon="5.3696057">
<ele>1046.95</ele>
<time>2019-07-25T13:40:42Z</time>
</trkpt>
<trkpt lat="44.8956175" lon="5.3696058">
<ele>1046.96</ele>
<time>2019-07-25T13:40:43Z</time>
</trkpt>
<trkpt lat="44.8956176" lon="5.3696057">
<ele>1046.98</ele>
<time>2019-07-25T13:40:44Z</time>
</trkpt>
<trkpt lat="44.8956177" lon="5.3696056">
<ele>1046.99</ele>
<time>2019-07-25T13:40:45Z</time>
</trkpt>
<trkpt lat="44.8956177" lon="5.3696057">
<ele>1047.00</ele>
<time>2019-07-25T13:40:46Z</time>
</trkpt>
<trkpt lat="44.8956177" lon="5.3696057">
<ele>1047.02</ele>
<time>2019-07-25T13:40:47Z</time>
</trkpt>
<trkpt lat="44.8956177" lon="5.3696058">
<ele>1047.03</ele>
<time>2019-07-25T13:40:48Z</time>
</trkpt>
<trkpt lat="44.8956177" lon="5.3696058">
<ele>1047.05</ele>
<time>2019-07-25T13:40:49Z</time>
</trkpt>
<trkpt lat="44.8956177" lon="5.3696058">
<ele>1047.06</ele>
<time>2019-07-25T13:40:50Z</time>
</trkpt>
<trkpt lat="44.8956177" lon="5.3696057">
<ele>1047.08</ele>
<time>2019-07-25T13:40:51Z</time>
</trkpt>
<trkpt lat="44.8956178" lon="5.3696057">
<ele>1047.10</ele>
<time>2019-07-25T13:40:52Z</time>
</trkpt>
<trkpt lat="44.8956179" lon="5.3696056">
<ele>1047.11</ele>
<time>2019-07-25T13:40:53Z</time>
</trkpt>
<trkpt lat="44.8956180" lon="5.3696056">
<ele>1047.13</ele>
<time>2019-07-25T13:40:54Z</time>
</trkpt>
<trkpt lat="44.8956178" lon="5.3696057">
<ele>1047.14</ele>
<time>2019-07-25T13:40:55Z</time>
</trkpt>
<trkpt lat="44.8956177" lon="5.3696059">
<ele>1047.16</ele>
<time>2019-07-25T13:40:56Z</time>
</trkpt>
<trkpt lat="44.8956177" lon="5.3696059">
<ele>1047.17</ele>
<time>2019-07-25T13:40:57Z</time>
</trkpt>
<trkpt lat="44.8956178" lon="5.3696058">
<ele>1047.19</ele>
<time>2019-07-25T13:40:58Z</time>
</trkpt>
<trkpt lat="44.8956185" lon="5.3696052">
<ele>1047.21</ele>
<time>2019-07-25T13:40:59Z</time>
</trkpt>
<trkpt lat="44.8956188" lon="5.3695977">
<ele>1047.22</ele>
<time>2019-07-25T13:41:00Z</time>
</trkpt>
<trkpt lat="44.8956241" lon="5.3695925">
<ele>1047.24</ele>
<time>2019-07-25T13:41:01Z</time>
</trkpt>
<trkpt lat="44.8956228" lon="5.3695900">
<ele>1047.41</ele>
<time>2019-07-25T13:41:02Z</time>
</trkpt>
<trkpt lat="44.8956206" lon="5.3695917">
<ele>1047.43</ele>
<time>2019-07-25T13:41:03Z</time>
</trkpt>
<trkpt lat="44.8956207" lon="5.3695915">
<ele>1047.44</ele>
<time>2019-07-25T13:41:04Z</time>
</trkpt>
<trkpt lat="44.8956208" lon="5.3695912">
<ele>1047.46</ele>
<time>2019-07-25T13:41:05Z</time>
</trkpt>
<trkpt lat="44.8956213" lon="5.3695906">
<ele>1047.48</ele>
<time>2019-07-25T13:41:06Z</time>
</trkpt>
<trkpt lat="44.8956216" lon="5.3695903">
<ele>1047.49</ele>
<time>2019-07-25T13:41:07Z</time>
</trkpt>
<trkpt lat="44.8956216" lon="5.3695904">
<ele>1047.51</ele>
<time>2019-07-25T13:41:08Z</time>
</trkpt>
<trkpt lat="44.8956216" lon="5.3695904">
<ele>1047.53</ele>
<time>2019-07-25T13:41:09Z</time>
</trkpt>
<trkpt lat="44.8956213" lon="5.3695907">
<ele>1047.55</ele>
<time>2019-07-25T13:41:10Z</time>
</trkpt>
<trkpt lat="44.8956212" lon="5.3695907">
<ele>1047.56</ele>
<time>2019-07-25T13:41:11Z</time>
</trkpt>
<trkpt lat="44.8956213" lon="5.3695907">
<ele>1047.58</ele>
<time>2019-07-25T13:41:12Z</time>
</trkpt>
<trkpt lat="44.8956214" lon="5.3695906">
<ele>1049.38</ele>
<time>2019-07-25T13:41:13Z</time>
</trkpt>
<trkpt lat="44.8956214" lon="5.3695904">
<ele>1049.40</ele>
<time>2019-07-25T13:41:14Z</time>
</trkpt>
<trkpt lat="44.8956216" lon="5.3695903">
<ele>1049.41</ele>
<time>2019-07-25T13:41:15Z</time>
</trkpt>
<trkpt lat="44.8956216" lon="5.3695900">
<ele>1049.43</ele>
<time>2019-07-25T13:41:16Z</time>
</trkpt>
<trkpt lat="44.8956216" lon="5.3695899">
<ele>1049.44</ele>
<time>2019-07-25T13:41:17Z</time>
</trkpt>
<trkpt lat="44.8956216" lon="5.3695899">
<ele>1049.46</ele>
<time>2019-07-25T13:41:18Z</time>
</trkpt>
<trkpt lat="44.8956216" lon="5.3695898">
<ele>1049.48</ele>
<time>2019-07-25T13:41:19Z</time>
</trkpt>
<trkpt lat="44.8956218" lon="5.3695897">
<ele>1049.49</ele>
<time>2019-07-25T13:41:20Z</time>
</trkpt>
<trkpt lat="44.8956219" lon="5.3695897">
<ele>1049.51</ele>
<time>2019-07-25T13:41:21Z</time>
</trkpt>
<trkpt lat="44.8956218" lon="5.3695897">
<ele>1049.53</ele>
<time>2019-07-25T13:41:22Z</time>
</trkpt>
<trkpt lat="44.8956217" lon="5.3695898">
<ele>1049.54</ele>
<time>2019-07-25T13:41:23Z</time>
</trkpt>
<trkpt lat="44.8956219" lon="5.3695897">
<ele>1049.56</ele>
<time>2019-07-25T13:41:24Z</time>
</trkpt>
<trkpt lat="44.8956219" lon="5.3695898">
<ele>1049.58</ele>
<time>2019-07-25T13:41:25Z</time>
</trkpt>
<trkpt lat="44.8956225" lon="5.3695894">
<ele>1049.59</ele>
<time>2019-07-25T13:41:26Z</time>
</trkpt>
<trkpt lat="44.8956226" lon="5.3695894">
<ele>1049.61</ele>
<time>2019-07-25T13:41:27Z</time>
</trkpt>
<trkpt lat="44.8956244" lon="5.3695891">
<ele>1049.63</ele>
<time>2019-07-25T13:41:28Z</time>
</trkpt>
<trkpt lat="44.8956248" lon="5.3695887">
<ele>1049.65</ele>
<time>2019-07-25T13:41:29Z</time>
</trkpt>
<trkpt lat="44.8956249" lon="5.3695886">
<ele>1049.67</ele>
<time>2019-07-25T13:41:30Z</time>
</trkpt>
<trkpt lat="44.8956247" lon="5.3695887">
<ele>1049.68</ele>
<time>2019-07-25T13:41:31Z</time>
</trkpt>
<trkpt lat="44.8956247" lon="5.3695889">
<ele>1049.70</ele>
<time>2019-07-25T13:41:32Z</time>
</trkpt>
<trkpt lat="44.8956246" lon="5.3695890">
<ele>1049.72</ele>
<time>2019-07-25T13:41:33Z</time>
</trkpt>
<trkpt lat="44.8956246" lon="5.3695890">
<ele>1049.74</ele>
<time>2019-07-25T13:41:34Z</time>
</trkpt>
<trkpt lat="44.8956245" lon="5.3695890">
<ele>1049.76</ele>
<time>2019-07-25T13:41:35Z</time>
</trkpt>
<trkpt lat="44.8956246" lon="5.3695890">
<ele>1049.78</ele>
<time>2019-07-25T13:41:36Z</time>
</trkpt>
<trkpt lat="44.8956244" lon="5.3695892">
<ele>1049.80</ele>
<time>2019-07-25T13:41:37Z</time>
</trkpt>
<trkpt lat="44.8956246" lon="5.3695892">
<ele>1049.82</ele>
<time>2019-07-25T13:41:38Z</time>
</trkpt>
<trkpt lat="44.8956248" lon="5.3695891">
<ele>1049.84</ele>
<time>2019-07-25T13:41:39Z</time>
</trkpt>
<trkpt lat="44.8956248" lon="5.3695889">
<ele>1049.86</ele>
<time>2019-07-25T13:41:40Z</time>
</trkpt>
<trkpt lat="44.8956250" lon="5.3695888">
<ele>1049.88</ele>
<time>2019-07-25T13:41:41Z</time>
</trkpt>
<trkpt lat="44.8956251" lon="5.3695887">
<ele>1049.90</ele>
<time>2019-07-25T13:41:42Z</time>
</trkpt>
<trkpt lat="44.8956250" lon="5.3695887">
<ele>1049.91</ele>
<time>2019-07-25T13:41:43Z</time>
</trkpt>
<trkpt lat="44.8956248" lon="5.3695889">
<ele>1049.93</ele>
<time>2019-07-25T13:41:44Z</time>
</trkpt>
<trkpt lat="44.8956247" lon="5.3695889">
<ele>1049.95</ele>
<time>2019-07-25T13:41:45Z</time>
</trkpt>
<trkpt lat="44.8956244" lon="5.3695891">
<ele>1049.97</ele>
<time>2019-07-25T13:41:46Z</time>
</trkpt>
<trkpt lat="44.8956243" lon="5.3695889">
<ele>1049.99</ele>
<time>2019-07-25T13:41:47Z</time>
</trkpt>
<trkpt lat="44.8956244" lon="5.3695888">
<ele>1050.01</ele>
<time>2019-07-25T13:41:48Z</time>
</trkpt>
<trkpt lat="44.8956248" lon="5.3695891">
<ele>1050.03</ele>
<time>2019-07-25T13:41:49Z</time>
</trkpt>
<trkpt lat="44.8956248" lon="5.3695891">
<ele>1050.05</ele>
<time>2019-07-25T13:41:50Z</time>
</trkpt>
<trkpt lat="44.8956251" lon="5.3695896">
<ele>1050.07</ele>
<time>2019-07-25T13:41:51Z</time>
</trkpt>
<trkpt lat="44.8956256" lon="5.3695895">
<ele>1050.09</ele>
<time>2019-07-25T13:41:52Z</time>
</trkpt>
<trkpt lat="44.8956264" lon="5.3695911">
<ele>1050.11</ele>
<time>2019-07-25T13:41:53Z</time>
</trkpt>
<trkpt lat="44.8956262" lon="5.3695915">
<ele>1050.13</ele>
<time>2019-07-25T13:41:54Z</time>
</trkpt>
<trkpt lat="44.8956259" lon="5.3695923">
<ele>1050.15</ele>
<time>2019-07-25T13:41:55Z</time>
</trkpt>
<trkpt lat="44.8956257" lon="5.3695926">
<ele>1050.17</ele>
<time>2019-07-25T13:41:56Z</time>
</trkpt>
<trkpt lat="44.8956255" lon="5.3695940">
<ele>1050.19</ele>
<time>2019-07-25T13:41:57Z</time>
</trkpt>
<trkpt lat="44.8956256" lon="5.3695943">
<ele>1050.21</ele>
<time>2019-07-25T13:41:58Z</time>
</trkpt>
<trkpt lat="44.8956250" lon="5.3695945">
<ele>1050.24</ele>
<time>2019-07-25T13:41:59Z</time>
</trkpt>
<trkpt lat="44.8956228" lon="5.3695976">
<ele>1050.26</ele>
<time>2019-07-25T13:42:00Z</time>
</trkpt>
<trkpt lat="44.8956182" lon="5.3696013">
<ele>1050.28</ele>
<time>2019-07-25T13:42:01Z</time>
</trkpt>
<trkpt lat="44.8956133" lon="5.3696072">
<ele>1050.30</ele>
<time>2019-07-25T13:42:02Z</time>
</trkpt>
<trkpt lat="44.8956112" lon="5.3696080">
<ele>1050.32</ele>
<time>2019-07-25T13:42:03Z</time>
</trkpt>
<trkpt lat="44.8956079" lon="5.3696052">
<ele>1050.34</ele>
<time>2019-07-25T13:42:04Z</time>
</trkpt>
<trkpt lat="44.8956115" lon="5.3696057">
<ele>1050.36</ele>
<time>2019-07-25T13:42:05Z</time>
</trkpt>
<trkpt lat="44.8956070" lon="5.3696051">
<ele>1050.38</ele>
<time>2019-07-25T13:42:06Z</time>
</trkpt>
<trkpt lat="44.8956094" lon="5.3696019">
<ele>1050.40</ele>
<time>2019-07-25T13:42:07Z</time>
</trkpt>
<trkpt lat="44.8956046" lon="5.3696025">
<ele>1050.42</ele>
<time>2019-07-25T13:42:08Z</time>
</trkpt>
<trkpt lat="44.8956103" lon="5.3696055">
<ele>1050.44</ele>
<time>2019-07-25T13:42:09Z</time>
</trkpt>
<trkpt lat="44.8956061" lon="5.3696048">
<ele>1050.46</ele>
<time>2019-07-25T13:42:10Z</time>
</trkpt>
<trkpt lat="44.8955987" lon="5.3696074">
<ele>1050.48</ele>
<time>2019-07-25T13:42:11Z</time>
</trkpt>
<trkpt lat="44.8956025" lon="5.3696063">
<ele>1050.50</ele>
<time>2019-07-25T13:42:12Z</time>
</trkpt>
<trkpt lat="44.8956045" lon="5.3696080">
<ele>1050.52</ele>
<time>2019-07-25T13:42:13Z</time>
</trkpt>
<trkpt lat="44.8956060" lon="5.3696086">
<ele>1050.54</ele>
<time>2019-07-25T13:42:14Z</time>
</trkpt>
<trkpt lat="44.8956022" lon="5.3696100">
<ele>1050.56</ele>
<time>2019-07-25T13:42:15Z</time>
</trkpt>
<trkpt lat="44.8956017" lon="5.3696088">
<ele>1050.58</ele>
<time>2019-07-25T13:42:16Z</time>
</trkpt>
<trkpt lat="44.8956016" lon="5.3696090">
<ele>1050.60</ele>
<time>2019-07-25T13:42:17Z</time>
</trkpt>
<trkpt lat="44.8956075" lon="5.3696057">
<ele>1050.62</ele>
<time>2019-07-25T13:42:18Z</time>
</trkpt>
<trkpt lat="44.8956035" lon="5.3696045">
<ele>1050.83</ele>
<time>2019-07-25T13:42:19Z</time>
</trkpt>
<trkpt lat="44.8956059" lon="5.3696040">
<ele>1050.86</ele>
<time>2019-07-25T13:42:20Z</time>
</trkpt>
<trkpt lat="44.8956053" lon="5.3696043">
<ele>1050.88</ele>
<time>2019-07-25T13:42:21Z</time>
</trkpt>
<trkpt lat="44.8956067" lon="5.3696042">
<ele>1050.90</ele>
<time>2019-07-25T13:42:22Z</time>
</trkpt>
<trkpt lat="44.8956077" lon="5.3696033">
<ele>1050.92</ele>
<time>2019-07-25T13:42:23Z</time>
</trkpt>
<trkpt lat="44.8956085" lon="5.3696013">
<ele>1050.94</ele>
<time>2019-07-25T13:42:24Z</time>
</trkpt>
<trkpt lat="44.8956036" lon="5.3696016">
<ele>1051.16</ele>
<time>2019-07-25T13:42:25Z</time>
</trkpt>
<trkpt lat="44.8956042" lon="5.3696015">
<ele>1051.18</ele>
<time>2019-07-25T13:42:26Z</time>
</trkpt>
<trkpt lat="44.8956052" lon="5.3696017">
<ele>1051.20</ele>
<time>2019-07-25T13:42:27Z</time>
</trkpt>
<trkpt lat="44.8956095" lon="5.3696000">
<ele>1051.22</ele>
<time>2019-07-25T13:42:28Z</time>
</trkpt>
<trkpt lat="44.8956113" lon="5.3696029">
<ele>1051.24</ele>
<time>2019-07-25T13:42:29Z</time>
</trkpt>
<trkpt lat="44.8956123" lon="5.3696018">
<ele>1051.26</ele>
<time>2019-07-25T13:42:30Z</time>
</trkpt>
<trkpt lat="44.8956061" lon="5.3696022">
<ele>1051.28</ele>
<time>2019-07-25T13:42:31Z</time>
</trkpt>
<trkpt lat="44.8956066" lon="5.3695998">
<ele>1051.50</ele>
<time>2019-07-25T13:42:32Z</time>
</trkpt>
<trkpt lat="44.8956061" lon="5.3695989">
<ele>1051.53</ele>
<time>2019-07-25T13:42:33Z</time>
</trkpt>
<trkpt lat="44.8956046" lon="5.3695983">
<ele>1051.55</ele>
<time>2019-07-25T13:42:34Z</time>
</trkpt>
<trkpt lat="44.8956054" lon="5.3695985">
<ele>1051.57</ele>
<time>2019-07-25T13:42:35Z</time>
</trkpt>
<trkpt lat="44.8956109" lon="5.3695979">
<ele>1051.59</ele>
<time>2019-07-25T13:42:36Z</time>
</trkpt>
<trkpt lat="44.8956112" lon="5.3695919">
<ele>1051.61</ele>
<time>2019-07-25T13:42:37Z</time>
</trkpt>
<trkpt lat="44.8956225" lon="5.3695930">
<ele>1051.64</ele>
<time>2019-07-25T13:42:38Z</time>
</trkpt>
<trkpt lat="44.8956220" lon="5.3695929">
<ele>1051.66</ele>
<time>2019-07-25T13:42:39Z</time>
</trkpt>
<trkpt lat="44.8956308" lon="5.3696007">
<ele>1051.88</ele>
<time>2019-07-25T13:42:40Z</time>
</trkpt>
<trkpt lat="44.8956309" lon="5.3695962">
<ele>1051.91</ele>
<time>2019-07-25T13:42:41Z</time>
</trkpt>
<trkpt lat="44.8956295" lon="5.3695903">
<ele>1052.13</ele>
<time>2019-07-25T13:42:42Z</time>
</trkpt>
<trkpt lat="44.8956292" lon="5.3695908">
<ele>1052.15</ele>
<time>2019-07-25T13:42:43Z</time>
</trkpt>
<trkpt lat="44.8956295" lon="5.3695910">
<ele>1052.17</ele>
<time>2019-07-25T13:42:44Z</time>
</trkpt>
<trkpt lat="44.8956333" lon="5.3695929">
<ele>1052.19</ele>
<time>2019-07-25T13:42:45Z</time>
</trkpt>
<trkpt lat="44.8956334" lon="5.3695952">
<ele>1052.42</ele>
<time>2019-07-25T13:42:46Z</time>
</trkpt>
<trkpt lat="44.8956384" lon="5.3695996">
<ele>1052.44</ele>
<time>2019-07-25T13:42:47Z</time>
</trkpt>
<trkpt lat="44.8956409" lon="5.3696063">
<ele>1052.47</ele>
<time>2019-07-25T13:42:48Z</time>
</trkpt>
<trkpt lat="44.8956449" lon="5.3696124">
<ele>1052.70</ele>
<time>2019-07-25T13:42:49Z</time>
</trkpt>
<trkpt lat="44.8956480" lon="5.3696166">
<ele>1052.93</ele>
<time>2019-07-25T13:42:50Z</time>
</trkpt>
<trkpt lat="44.8956474" lon="5.3696163">
<ele>1052.95</ele>
<time>2019-07-25T13:42:51Z</time>
</trkpt>
<trkpt lat="44.8956461" lon="5.3696156">
<ele>1052.98</ele>
<time>2019-07-25T13:42:52Z</time>
</trkpt>
<trkpt lat="44.8956458" lon="5.3696155">
<ele>1053.00</ele>
<time>2019-07-25T13:42:53Z</time>
</trkpt>
<trkpt lat="44.8956457" lon="5.3696156">
<ele>1053.02</ele>
<time>2019-07-25T13:42:54Z</time>
</trkpt>
<trkpt lat="44.8956457" lon="5.3696157">
<ele>1053.05</ele>
<time>2019-07-25T13:42:55Z</time>
</trkpt>
<trkpt lat="44.8956462" lon="5.3696164">
<ele>1053.07</ele>
<time>2019-07-25T13:42:56Z</time>
</trkpt>
<trkpt lat="44.8956461" lon="5.3696165">
<ele>1053.09</ele>
<time>2019-07-25T13:42:57Z</time>
</trkpt>
<trkpt lat="44.8956460" lon="5.3696167">
<ele>1053.12</ele>
<time>2019-07-25T13:42:58Z</time>
</trkpt>
<trkpt lat="44.8956459" lon="5.3696173">
<ele>1053.14</ele>
<time>2019-07-25T13:42:59Z</time>
</trkpt>
<trkpt lat="44.8956458" lon="5.3696174">
<ele>1053.16</ele>
<time>2019-07-25T13:43:00Z</time>
</trkpt>
<trkpt lat="44.8956458" lon="5.3696178">
<ele>1053.19</ele>
<time>2019-07-25T13:43:01Z</time>
</trkpt>
<trkpt lat="44.8956462" lon="5.3696183">
<ele>1053.21</ele>
<time>2019-07-25T13:43:02Z</time>
</trkpt>
<trkpt lat="44.8956471" lon="5.3696191">
<ele>1053.23</ele>
<time>2019-07-25T13:43:03Z</time>
</trkpt>
<trkpt lat="44.8956469" lon="5.3696193">
<ele>1053.26</ele>
<time>2019-07-25T13:43:04Z</time>
</trkpt>
<trkpt lat="44.8956461" lon="5.3696190">
<ele>1053.28</ele>
<time>2019-07-25T13:43:05Z</time>
</trkpt>
<trkpt lat="44.8956460" lon="5.3696192">
<ele>1053.30</ele>
<time>2019-07-25T13:43:06Z</time>
</trkpt>
<trkpt lat="44.8956459" lon="5.3696193">
<ele>1053.33</ele>
<time>2019-07-25T13:43:07Z</time>
</trkpt>
<trkpt lat="44.8956454" lon="5.3696191">
<ele>1053.35</ele>
<time>2019-07-25T13:43:08Z</time>
</trkpt>
<trkpt lat="44.8956430" lon="5.3696180">
<ele>1053.37</ele>
<time>2019-07-25T13:43:09Z</time>
</trkpt>
<trkpt lat="44.8956429" lon="5.3696181">
<ele>1053.39</ele>
<time>2019-07-25T13:43:10Z</time>
</trkpt>
<trkpt lat="44.8956426" lon="5.3696181">
<ele>1053.41</ele>
<time>2019-07-25T13:43:11Z</time>
</trkpt>
<trkpt lat="44.8956429" lon="5.3696184">
<ele>1053.44</ele>
<time>2019-07-25T13:43:12Z</time>
</trkpt>
<trkpt lat="44.8956359" lon="5.3696184">
<ele>1053.65</ele>
<time>2019-07-25T13:43:13Z</time>
</trkpt>
<trkpt lat="44.8956360" lon="5.3696200">
<ele>1053.67</ele>
<time>2019-07-25T13:43:14Z</time>
</trkpt>
<trkpt lat="44.8956346" lon="5.3696197">
<ele>1053.69</ele>
<time>2019-07-25T13:43:15Z</time>
</trkpt>
<trkpt lat="44.8956339" lon="5.3696174">
<ele>1053.72</ele>
<time>2019-07-25T13:43:16Z</time>
</trkpt>
<trkpt lat="44.8956332" lon="5.3696169">
<ele>1053.74</ele>
<time>2019-07-25T13:43:17Z</time>
</trkpt>
<trkpt lat="44.8956337" lon="5.3696167">
<ele>1053.76</ele>
<time>2019-07-25T13:43:18Z</time>
</trkpt>
<trkpt lat="44.8956313" lon="5.3696156">
<ele>1053.78</ele>
<time>2019-07-25T13:43:19Z</time>
</trkpt>
<trkpt lat="44.8956302" lon="5.3696173">
<ele>1053.79</ele>
<time>2019-07-25T13:43:20Z</time>
</trkpt>
<trkpt lat="44.8956191" lon="5.3696173">
<ele>1053.81</ele>
<time>2019-07-25T13:43:21Z</time>
</trkpt>
<trkpt lat="44.8956146" lon="5.3696191">
<ele>1053.83</ele>
<time>2019-07-25T13:43:22Z</time>
</trkpt>
<trkpt lat="44.8956075" lon="5.3696197">
<ele>1054.01</ele>
<time>2019-07-25T13:43:23Z</time>
</trkpt>
<trkpt lat="44.8956043" lon="5.3696228">
<ele>1054.02</ele>
<time>2019-07-25T13:43:24Z</time>
</trkpt>
<trkpt lat="44.8956050" lon="5.3696255">
<ele>1054.04</ele>
<time>2019-07-25T13:43:25Z</time>
</trkpt>
<trkpt lat="44.8956112" lon="5.3696406">
<ele>1054.20</ele>
<time>2019-07-25T13:43:26Z</time>
</trkpt>
<trkpt lat="44.8956122" lon="5.3696418">
<ele>1054.22</ele>
<time>2019-07-25T13:43:27Z</time>
</trkpt>
<trkpt lat="44.8956114" lon="5.3696424">
<ele>1054.23</ele>
<time>2019-07-25T13:43:28Z</time>
</trkpt>
<trkpt lat="44.8956128" lon="5.3696427">
<ele>1054.25</ele>
<time>2019-07-25T13:43:29Z</time>
</trkpt>
<trkpt lat="44.8956142" lon="5.3696450">
<ele>1054.26</ele>
<time>2019-07-25T13:43:30Z</time>
</trkpt>
<trkpt lat="44.8956163" lon="5.3696481">
<ele>1054.28</ele>
<time>2019-07-25T13:43:31Z</time>
</trkpt>
<trkpt lat="44.8956164" lon="5.3696475">
<ele>1054.29</ele>
<time>2019-07-25T13:43:32Z</time>
</trkpt>
<trkpt lat="44.8956166" lon="5.3696485">
<ele>1054.30</ele>
<time>2019-07-25T13:43:33Z</time>
</trkpt>
<trkpt lat="44.8956165" lon="5.3696484">
<ele>1054.32</ele>
<time>2019-07-25T13:43:34Z</time>
</trkpt>
<trkpt lat="44.8956166" lon="5.3696479">
<ele>1054.33</ele>
<time>2019-07-25T13:43:35Z</time>
</trkpt>
<trkpt lat="44.8956160" lon="5.3696463">
<ele>1054.34</ele>
<time>2019-07-25T13:43:36Z</time>
</trkpt>
<trkpt lat="44.8956161" lon="5.3696453">
<ele>1054.36</ele>
<time>2019-07-25T13:43:37Z</time>
</trkpt>
<trkpt lat="44.8956154" lon="5.3696427">
<ele>1054.37</ele>
<time>2019-07-25T13:43:38Z</time>
</trkpt>
<trkpt lat="44.8956159" lon="5.3696427">
<ele>1054.38</ele>
<time>2019-07-25T13:43:39Z</time>
</trkpt>
<trkpt lat="44.8956167" lon="5.3696425">
<ele>1054.39</ele>
<time>2019-07-25T13:43:40Z</time>
</trkpt>
<trkpt lat="44.8956164" lon="5.3696419">
<ele>1054.41</ele>
<time>2019-07-25T13:43:41Z</time>
</trkpt>
<trkpt lat="44.8956168" lon="5.3696407">
<ele>1054.42</ele>
<time>2019-07-25T13:43:42Z</time>
</trkpt>
<trkpt lat="44.8956167" lon="5.3696402">
<ele>1054.43</ele>
<time>2019-07-25T13:43:43Z</time>
</trkpt>
<trkpt lat="44.8956170" lon="5.3696388">
<ele>1054.44</ele>
<time>2019-07-25T13:43:44Z</time>
</trkpt>
<trkpt lat="44.8956174" lon="5.3696386">
<ele>1054.46</ele>
<time>2019-07-25T13:43:45Z</time>
</trkpt>
<trkpt lat="44.8956184" lon="5.3696388">
<ele>1054.47</ele>
<time>2019-07-25T13:43:46Z</time>
</trkpt>
<trkpt lat="44.8956181" lon="5.3696382">
<ele>1054.48</ele>
<time>2019-07-25T13:43:47Z</time>
</trkpt>
<trkpt lat="44.8956168" lon="5.3696357">
<ele>1054.49</ele>
<time>2019-07-25T13:43:48Z</time>
</trkpt>
<trkpt lat="44.8956167" lon="5.3696350">
<ele>1054.51</ele>
<time>2019-07-25T13:43:49Z</time>
</trkpt>
<trkpt lat="44.8956168" lon="5.3696354">
<ele>1054.52</ele>
<time>2019-07-25T13:43:50Z</time>
</trkpt>
<trkpt lat="44.8956158" lon="5.3696339">
<ele>1054.53</ele>
<time>2019-07-25T13:43:51Z</time>
</trkpt>
<trkpt lat="44.8956150" lon="5.3696325">
<ele>1054.54</ele>
<time>2019-07-25T13:43:52Z</time>
</trkpt>
<trkpt lat="44.8956146" lon="5.3696309">
<ele>1054.55</ele>
<time>2019-07-25T13:43:53Z</time>
</trkpt>
<trkpt lat="44.8956180" lon="5.3696313">
<ele>1054.67</ele>
<time>2019-07-25T13:43:54Z</time>
</trkpt>
<trkpt lat="44.8956135" lon="5.3696267">
<ele>1054.68</ele>
<time>2019-07-25T13:43:55Z</time>
</trkpt>
<trkpt lat="44.8956091" lon="5.3696206">
<ele>1054.69</ele>
<time>2019-07-25T13:43:56Z</time>
</trkpt>
<trkpt lat="44.8956078" lon="5.3696165">
<ele>1054.71</ele>
<time>2019-07-25T13:43:57Z</time>
</trkpt>
<trkpt lat="44.8956074" lon="5.3696150">
<ele>1054.72</ele>
<time>2019-07-25T13:43:58Z</time>
</trkpt>
<trkpt lat="44.8956072" lon="5.3696146">
<ele>1054.73</ele>
<time>2019-07-25T13:43:59Z</time>
</trkpt>
<trkpt lat="44.8956077" lon="5.3696140">
<ele>1054.74</ele>
<time>2019-07-25T13:44:00Z</time>
</trkpt>
<trkpt lat="44.8956090" lon="5.3696139">
<ele>1054.75</ele>
<time>2019-07-25T13:44:01Z</time>
</trkpt>
<trkpt lat="44.8956091" lon="5.3696125">
<ele>1054.77</ele>
<time>2019-07-25T13:44:02Z</time>
</trkpt>
<trkpt lat="44.8956092" lon="5.3696123">
<ele>1054.78</ele>
<time>2019-07-25T13:44:03Z</time>
</trkpt>
<trkpt lat="44.8956091" lon="5.3696114">
<ele>1054.79</ele>
<time>2019-07-25T13:44:04Z</time>
</trkpt>
<trkpt lat="44.8956089" lon="5.3696106">
<ele>1054.81</ele>
<time>2019-07-25T13:44:05Z</time>
</trkpt>
<trkpt lat="44.8956089" lon="5.3696094">
<ele>1054.82</ele>
<time>2019-07-25T13:44:06Z</time>
</trkpt>
<trkpt lat="44.8956088" lon="5.3696102">
<ele>1054.83</ele>
<time>2019-07-25T13:44:07Z</time>
</trkpt>
<trkpt lat="44.8956096" lon="5.3696095">
<ele>1054.85</ele>
<time>2019-07-25T13:44:08Z</time>
</trkpt>
<trkpt lat="44.8956111" lon="5.3696095">
<ele>1054.86</ele>
<time>2019-07-25T13:44:09Z</time>
</trkpt>
<trkpt lat="44.8956119" lon="5.3696094">
<ele>1054.88</ele>
<time>2019-07-25T13:44:10Z</time>
</trkpt>
<trkpt lat="44.8956112" lon="5.3696087">
<ele>1054.89</ele>
<time>2019-07-25T13:44:11Z</time>
</trkpt>
<trkpt lat="44.8956112" lon="5.3696093">
<ele>1054.90</ele>
<time>2019-07-25T13:44:12Z</time>
</trkpt>
<trkpt lat="44.8956138" lon="5.3696106">
<ele>1054.92</ele>
<time>2019-07-25T13:44:13Z</time>
</trkpt>
<trkpt lat="44.8956180" lon="5.3696103">
<ele>1054.93</ele>
<time>2019-07-25T13:44:14Z</time>
</trkpt>
<trkpt lat="44.8956226" lon="5.3696173">
<ele>1054.94</ele>
<time>2019-07-25T13:44:15Z</time>
</trkpt>
<trkpt lat="44.8956307" lon="5.3696261">
<ele>1054.96</ele>
<time>2019-07-25T13:44:16Z</time>
</trkpt>
<trkpt lat="44.8956315" lon="5.3696245">
<ele>1054.97</ele>
<time>2019-07-25T13:44:17Z</time>
</trkpt>
<trkpt lat="44.8956319" lon="5.3696240">
<ele>1054.98</ele>
<time>2019-07-25T13:44:18Z</time>
</trkpt>
<trkpt lat="44.8956324" lon="5.3696238">
<ele>1055.00</ele>
<time>2019-07-25T13:44:19Z</time>
</trkpt>
<trkpt lat="44.8956321" lon="5.3696235">
<ele>1055.01</ele>
<time>2019-07-25T13:44:20Z</time>
</trkpt>
<trkpt lat="44.8956329" lon="5.3696241">
<ele>1055.02</ele>
<time>2019-07-25T13:44:21Z</time>
</trkpt>
<trkpt lat="44.8956333" lon="5.3696233">
<ele>1055.03</ele>
<time>2019-07-25T13:44:22Z</time>
</trkpt>
<trkpt lat="44.8956346" lon="5.3696243">
<ele>1055.05</ele>
<time>2019-07-25T13:44:23Z</time>
</trkpt>
<trkpt lat="44.8956346" lon="5.3696256">
<ele>1055.06</ele>
<time>2019-07-25T13:44:24Z</time>
</trkpt>
<trkpt lat="44.8956334" lon="5.3696248">
<ele>1055.07</ele>
<time>2019-07-25T13:44:25Z</time>
</trkpt>
<trkpt lat="44.8956319" lon="5.3696225">
<ele>1055.08</ele>
<time>2019-07-25T13:44:26Z</time>
</trkpt>
<trkpt lat="44.8956317" lon="5.3696219">
<ele>1055.10</ele>
<time>2019-07-25T13:44:27Z</time>
</trkpt>
<trkpt lat="44.8956312" lon="5.3696219">
<ele>1055.11</ele>
<time>2019-07-25T13:44:28Z</time>
</trkpt>
<trkpt lat="44.8956331" lon="5.3696246">
<ele>1055.12</ele>
<time>2019-07-25T13:44:29Z</time>
</trkpt>
<trkpt lat="44.8956311" lon="5.3696180">
<ele>1055.23</ele>
<time>2019-07-25T13:44:30Z</time>
</trkpt>
<trkpt lat="44.8956234" lon="5.3696042">
<ele>1055.33</ele>
<time>2019-07-25T13:44:31Z</time>
</trkpt>
<trkpt lat="44.8956193" lon="5.3695964">
<ele>1055.43</ele>
<time>2019-07-25T13:44:32Z</time>
</trkpt>
<trkpt lat="44.8956202" lon="5.3695917">
<ele>1055.44</ele>
<time>2019-07-25T13:44:33Z</time>
</trkpt>
<trkpt lat="44.8956196" lon="5.3695911">
<ele>1055.45</ele>
<time>2019-07-25T13:44:34Z</time>
</trkpt>
<trkpt lat="44.8956241" lon="5.3695901">
<ele>1055.46</ele>
<time>2019-07-25T13:44:35Z</time>
</trkpt>
<trkpt lat="44.8956151" lon="5.3695676">
<ele>1055.56</ele>
<time>2019-07-25T13:44:36Z</time>
</trkpt>
<trkpt lat="44.8956127" lon="5.3695598">
<ele>1055.57</ele>
<time>2019-07-25T13:44:37Z</time>
</trkpt>
<trkpt lat="44.8956116" lon="5.3695532">
<ele>1055.58</ele>
<time>2019-07-25T13:44:38Z</time>
</trkpt>
<trkpt lat="44.8956115" lon="5.3695524">
<ele>1055.59</ele>
<time>2019-07-25T13:44:39Z</time>
</trkpt>
<trkpt lat="44.8956075" lon="5.3695369">
<ele>1055.60</ele>
<time>2019-07-25T13:44:40Z</time>
</trkpt>
<trkpt lat="44.8956090" lon="5.3695495">
<ele>1055.61</ele>
<time>2019-07-25T13:44:41Z</time>
</trkpt>
<trkpt lat="44.8956083" lon="5.3695517">
<ele>1055.62</ele>
<time>2019-07-25T13:44:42Z</time>
</trkpt>
<trkpt lat="44.8956076" lon="5.3695480">
<ele>1055.63</ele>
<time>2019-07-25T13:44:43Z</time>
</trkpt>
<trkpt lat="44.8956090" lon="5.3695533">
<ele>1055.65</ele>
<time>2019-07-25T13:44:44Z</time>
</trkpt>
<trkpt lat="44.8956050" lon="5.3695386">
<ele>1055.66</ele>
<time>2019-07-25T13:44:45Z</time>
</trkpt>
<trkpt lat="44.8956013" lon="5.3695236">
<ele>1055.67</ele>
<time>2019-07-25T13:44:46Z</time>
</trkpt>
<trkpt lat="44.8955995" lon="5.3695169">
<ele>1055.69</ele>
<time>2019-07-25T13:44:47Z</time>
</trkpt>
<trkpt lat="44.8955993" lon="5.3695165">
<ele>1055.70</ele>
<time>2019-07-25T13:44:48Z</time>
</trkpt>
<trkpt lat="44.8955989" lon="5.3695152">
<ele>1055.71</ele>
<time>2019-07-25T13:44:49Z</time>
</trkpt>
<trkpt lat="44.8955991" lon="5.3695142">
<ele>1055.73</ele>
<time>2019-07-25T13:44:50Z</time>
</trkpt>
<trkpt lat="44.8955989" lon="5.3695147">
<ele>1055.74</ele>
<time>2019-07-25T13:44:51Z</time>
</trkpt>
<trkpt lat="44.8955988" lon="5.3695136">
<ele>1055.76</ele>
<time>2019-07-25T13:44:52Z</time>
</trkpt>
<trkpt lat="44.8955984" lon="5.3695132">
<ele>1055.77</ele>
<time>2019-07-25T13:44:53Z</time>
</trkpt>
<trkpt lat="44.8955944" lon="5.3695272">
<ele>1055.93</ele>
<time>2019-07-25T13:44:54Z</time>
</trkpt>
<trkpt lat="44.8955922" lon="5.3695188">
<ele>1056.08</ele>
<time>2019-07-25T13:44:55Z</time>
</trkpt>
<trkpt lat="44.8955862" lon="5.3695159">
<ele>1056.10</ele>
<time>2019-07-25T13:44:56Z</time>
</trkpt>
<trkpt lat="44.8955819" lon="5.3695080">
<ele>1056.12</ele>
<time>2019-07-25T13:44:57Z</time>
</trkpt>
<trkpt lat="44.8955766" lon="5.3695092">
<ele>1056.13</ele>
<time>2019-07-25T13:44:58Z</time>
</trkpt>
<trkpt lat="44.8955761" lon="5.3695109">
<ele>1056.30</ele>
<time>2019-07-25T13:44:59Z</time>
</trkpt>
<trkpt lat="44.8955733" lon="5.3695059">
<ele>1056.32</ele>
<time>2019-07-25T13:45:00Z</time>
</trkpt>
<trkpt lat="44.8955725" lon="5.3695068">
<ele>1056.34</ele>
<time>2019-07-25T13:45:01Z</time>
</trkpt>
<trkpt lat="44.8955693" lon="5.3695132">
<ele>1056.35</ele>
<time>2019-07-25T13:45:02Z</time>
</trkpt>
<trkpt lat="44.8955699" lon="5.3695103">
<ele>1056.37</ele>
<time>2019-07-25T13:45:03Z</time>
</trkpt>
<trkpt lat="44.8955641" lon="5.3695042">
<ele>1056.39</ele>
<time>2019-07-25T13:45:04Z</time>
</trkpt>
<trkpt lat="44.8955640" lon="5.3695039">
<ele>1056.41</ele>
<time>2019-07-25T13:45:05Z</time>
</trkpt>
<trkpt lat="44.8955595" lon="5.3694991">
<ele>1056.43</ele>
<time>2019-07-25T13:45:06Z</time>
</trkpt>
<trkpt lat="44.8955592" lon="5.3694958">
<ele>1056.45</ele>
<time>2019-07-25T13:45:07Z</time>
</trkpt>
<trkpt lat="44.8955590" lon="5.3694990">
<ele>1056.47</ele>
<time>2019-07-25T13:45:08Z</time>
</trkpt>
<trkpt lat="44.8955580" lon="5.3695025">
<ele>1056.49</ele>
<time>2019-07-25T13:45:09Z</time>
</trkpt>
<trkpt lat="44.8955578" lon="5.3695003">
<ele>1056.51</ele>
<time>2019-07-25T13:45:10Z</time>
</trkpt>
<trkpt lat="44.8955593" lon="5.3695001">
<ele>1056.71</ele>
<time>2019-07-25T13:45:11Z</time>
</trkpt>
<trkpt lat="44.8955560" lon="5.3695003">
<ele>1056.91</ele>
<time>2019-07-25T13:45:12Z</time>
</trkpt>
<trkpt lat="44.8955578" lon="5.3695069">
<ele>1057.10</ele>
<time>2019-07-25T13:45:13Z</time>
</trkpt>
<trkpt lat="44.8955574" lon="5.3695125">
<ele>1057.30</ele>
<time>2019-07-25T13:45:14Z</time>
</trkpt>
<trkpt lat="44.8955553" lon="5.3695068">
<ele>1057.49</ele>
<time>2019-07-25T13:45:15Z</time>
</trkpt>
<trkpt lat="44.8955520" lon="5.3695054">
<ele>1057.68</ele>
<time>2019-07-25T13:45:16Z</time>
</trkpt>
<trkpt lat="44.8955516" lon="5.3695119">
<ele>1057.70</ele>
<time>2019-07-25T13:45:17Z</time>
</trkpt>
<trkpt lat="44.8955514" lon="5.3695119">
<ele>1057.72</ele>
<time>2019-07-25T13:45:18Z</time>
</trkpt>
<trkpt lat="44.8955508" lon="5.3695107">
<ele>1057.74</ele>
<time>2019-07-25T13:45:19Z</time>
</trkpt>
<trkpt lat="44.8955506" lon="5.3695099">
<ele>1057.76</ele>
<time>2019-07-25T13:45:20Z</time>
</trkpt>
<trkpt lat="44.8955484" lon="5.3695075">
<ele>1057.78</ele>
<time>2019-07-25T13:45:21Z</time>
</trkpt>
<trkpt lat="44.8955462" lon="5.3694975">
<ele>1057.80</ele>
<time>2019-07-25T13:45:22Z</time>
</trkpt>
<trkpt lat="44.8955454" lon="5.3694988">
<ele>1057.82</ele>
<time>2019-07-25T13:45:23Z</time>
</trkpt>
<trkpt lat="44.8955451" lon="5.3694984">
<ele>1057.84</ele>
<time>2019-07-25T13:45:24Z</time>
</trkpt>
<trkpt lat="44.8955417" lon="5.3694878">
<ele>1057.86</ele>
<time>2019-07-25T13:45:25Z</time>
</trkpt>
<trkpt lat="44.8955403" lon="5.3694893">
<ele>1057.89</ele>
<time>2019-07-25T13:45:26Z</time>
</trkpt>
<trkpt lat="44.8955374" lon="5.3694885">
<ele>1058.11</ele>
<time>2019-07-25T13:45:27Z</time>
</trkpt>
<trkpt lat="44.8955372" lon="5.3694841">
<ele>1058.14</ele>
<time>2019-07-25T13:45:28Z</time>
</trkpt>
<trkpt lat="44.8955356" lon="5.3694733">
<ele>1058.16</ele>
<time>2019-07-25T13:45:29Z</time>
</trkpt>
<trkpt lat="44.8955313" lon="5.3694685">
<ele>1058.18</ele>
<time>2019-07-25T13:45:30Z</time>
</trkpt>
<trkpt lat="44.8955291" lon="5.3694596">
<ele>1058.21</ele>
<time>2019-07-25T13:45:31Z</time>
</trkpt>
<trkpt lat="44.8955267" lon="5.3694693">
<ele>1058.44</ele>
<time>2019-07-25T13:45:32Z</time>
</trkpt>
<trkpt lat="44.8955266" lon="5.3694754">
<ele>1058.46</ele>
<time>2019-07-25T13:45:33Z</time>
</trkpt>
<trkpt lat="44.8955262" lon="5.3694741">
<ele>1058.49</ele>
<time>2019-07-25T13:45:34Z</time>
</trkpt>
<trkpt lat="44.8955259" lon="5.3694728">
<ele>1058.51</ele>
<time>2019-07-25T13:45:35Z</time>
</trkpt>
<trkpt lat="44.8955257" lon="5.3694703">
<ele>1058.54</ele>
<time>2019-07-25T13:45:36Z</time>
</trkpt>
<trkpt lat="44.8955259" lon="5.3694700">
<ele>1058.56</ele>
<time>2019-07-25T13:45:37Z</time>
</trkpt>
<trkpt lat="44.8955259" lon="5.3694840">
<ele>1058.58</ele>
<time>2019-07-25T13:45:38Z</time>
</trkpt>
<trkpt lat="44.8955279" lon="5.3694879">
<ele>1058.61</ele>
<time>2019-07-25T13:45:39Z</time>
</trkpt>
<trkpt lat="44.8955261" lon="5.3694829">
<ele>1058.63</ele>
<time>2019-07-25T13:45:40Z</time>
</trkpt>
<trkpt lat="44.8955243" lon="5.3694846">
<ele>1058.66</ele>
<time>2019-07-25T13:45:41Z</time>
</trkpt>
<trkpt lat="44.8955246" lon="5.3694925">
<ele>1058.90</ele>
<time>2019-07-25T13:45:42Z</time>
</trkpt>
<trkpt lat="44.8955275" lon="5.3694981">
<ele>1059.14</ele>
<time>2019-07-25T13:45:43Z</time>
</trkpt>
<trkpt lat="44.8955276" lon="5.3694997">
<ele>1059.17</ele>
<time>2019-07-25T13:45:44Z</time>
</trkpt>
<trkpt lat="44.8955291" lon="5.3695010">
<ele>1059.19</ele>
<time>2019-07-25T13:45:45Z</time>
</trkpt>
<trkpt lat="44.8955343" lon="5.3695130">
<ele>1059.21</ele>
<time>2019-07-25T13:45:46Z</time>
</trkpt>
<trkpt lat="44.8955429" lon="5.3695271">
<ele>1059.24</ele>
<time>2019-07-25T13:45:47Z</time>
</trkpt>
<trkpt lat="44.8955431" lon="5.3695273">
<ele>1059.26</ele>
<time>2019-07-25T13:45:48Z</time>
</trkpt>
<trkpt lat="44.8955432" lon="5.3695275">
<ele>1059.28</ele>
<time>2019-07-25T13:45:49Z</time>
</trkpt>
<trkpt lat="44.8955433" lon="5.3695277">
<ele>1059.31</ele>
<time>2019-07-25T13:45:50Z</time>
</trkpt>
<trkpt lat="44.8955435" lon="5.3695280">
<ele>1059.33</ele>
<time>2019-07-25T13:45:51Z</time>
</trkpt>
<trkpt lat="44.8955436" lon="5.3695280">
<ele>1059.35</ele>
<time>2019-07-25T13:45:52Z</time>
</trkpt>
<trkpt lat="44.8955437" lon="5.3695281">
<ele>1059.38</ele>
<time>2019-07-25T13:45:53Z</time>
</trkpt>
<trkpt lat="44.8955438" lon="5.3695284">
<ele>1059.40</ele>
<time>2019-07-25T13:45:54Z</time>
</trkpt>
<trkpt lat="44.8955439" lon="5.3695289">
<ele>1059.42</ele>
<time>2019-07-25T13:45:55Z</time>
</trkpt>
<trkpt lat="44.8955441" lon="5.3695293">
<ele>1059.44</ele>
<time>2019-07-25T13:45:56Z</time>
</trkpt>
<trkpt lat="44.8955441" lon="5.3695296">
<ele>1059.46</ele>
<time>2019-07-25T13:45:57Z</time>
</trkpt>
<trkpt lat="44.8955442" lon="5.3695297">
<ele>1059.49</ele>
<time>2019-07-25T13:45:58Z</time>
</trkpt>
<trkpt lat="44.8955442" lon="5.3695295">
<ele>1059.51</ele>
<time>2019-07-25T13:45:59Z</time>
</trkpt>
<trkpt lat="44.8955544" lon="5.3695358">
<ele>1059.53</ele>
<time>2019-07-25T13:46:00Z</time>
</trkpt>
<trkpt lat="44.8955543" lon="5.3695355">
<ele>1059.55</ele>
<time>2019-07-25T13:46:01Z</time>
</trkpt>
<trkpt lat="44.8955546" lon="5.3695368">
<ele>1059.57</ele>
<time>2019-07-25T13:46:02Z</time>
</trkpt>
<trkpt lat="44.8955546" lon="5.3695368">
<ele>1059.60</ele>
<time>2019-07-25T13:46:03Z</time>
</trkpt>
<trkpt lat="44.8955546" lon="5.3695369">
<ele>1059.62</ele>
<time>2019-07-25T13:46:04Z</time>
</trkpt>
<trkpt lat="44.8955544" lon="5.3695361">
<ele>1059.64</ele>
<time>2019-07-25T13:46:05Z</time>
</trkpt>
<trkpt lat="44.8955545" lon="5.3695360">
<ele>1059.66</ele>
<time>2019-07-25T13:46:06Z</time>
</trkpt>
<trkpt lat="44.8955546" lon="5.3695362">
<ele>1059.68</ele>
<time>2019-07-25T13:46:07Z</time>
</trkpt>
<trkpt lat="44.8955546" lon="5.3695365">
<ele>1059.70</ele>
<time>2019-07-25T13:46:08Z</time>
</trkpt>
<trkpt lat="44.8955547" lon="5.3695373">
<ele>1059.72</ele>
<time>2019-07-25T13:46:09Z</time>
</trkpt>
<trkpt lat="44.8955550" lon="5.3695369">
<ele>1059.92</ele>
<time>2019-07-25T13:46:10Z</time>
</trkpt>
<trkpt lat="44.8955551" lon="5.3695381">
<ele>1059.94</ele>
<time>2019-07-25T13:46:11Z</time>
</trkpt>
<trkpt lat="44.8955552" lon="5.3695381">
<ele>1059.96</ele>
<time>2019-07-25T13:46:12Z</time>
</trkpt>
<trkpt lat="44.8955553" lon="5.3695384">
<ele>1059.98</ele>
<time>2019-07-25T13:46:13Z</time>
</trkpt>
<trkpt lat="44.8955553" lon="5.3695388">
<ele>1060.00</ele>
<time>2019-07-25T13:46:14Z</time>
</trkpt>
<trkpt lat="44.8955553" lon="5.3695394">
<ele>1060.02</ele>
<time>2019-07-25T13:46:15Z</time>
</trkpt>
<trkpt lat="44.8955554" lon="5.3695397">
<ele>1060.04</ele>
<time>2019-07-25T13:46:16Z</time>
</trkpt>
<trkpt lat="44.8955554" lon="5.3695404">
<ele>1060.06</ele>
<time>2019-07-25T13:46:17Z</time>
</trkpt>
<trkpt lat="44.8955555" lon="5.3695408">
<ele>1060.08</ele>
<time>2019-07-25T13:46:18Z</time>
</trkpt>
<trkpt lat="44.8955555" lon="5.3695410">
<ele>1060.11</ele>
<time>2019-07-25T13:46:19Z</time>
</trkpt>
<trkpt lat="44.8955556" lon="5.3695412">
<ele>1060.13</ele>
<time>2019-07-25T13:46:20Z</time>
</trkpt>
<trkpt lat="44.8955557" lon="5.3695416">
<ele>1060.15</ele>
<time>2019-07-25T13:46:21Z</time>
</trkpt>
<trkpt lat="44.8955557" lon="5.3695429">
<ele>1060.17</ele>
<time>2019-07-25T13:46:22Z</time>
</trkpt>
<trkpt lat="44.8955755" lon="5.3695787">
<ele>1060.19</ele>
<time>2019-07-25T13:46:23Z</time>
</trkpt>
<trkpt lat="44.8955757" lon="5.3695789">
<ele>1060.22</ele>
<time>2019-07-25T13:46:24Z</time>
</trkpt>
<trkpt lat="44.8955761" lon="5.3695785">
<ele>1060.24</ele>
<time>2019-07-25T13:46:25Z</time>
</trkpt>
<trkpt lat="44.8955763" lon="5.3695785">
<ele>1060.26</ele>
<time>2019-07-25T13:46:26Z</time>
</trkpt>
<trkpt lat="44.8955764" lon="5.3695785">
<ele>1060.28</ele>
<time>2019-07-25T13:46:27Z</time>
</trkpt>
<trkpt lat="44.8955766" lon="5.3695785">
<ele>1060.30</ele>
<time>2019-07-25T13:46:28Z</time>
</trkpt>
<trkpt lat="44.8955772" lon="5.3695778">
<ele>1060.32</ele>
<time>2019-07-25T13:46:29Z</time>
</trkpt>
<trkpt lat="44.8955727" lon="5.3695734">
<ele>1060.50</ele>
<time>2019-07-25T13:46:30Z</time>
</trkpt>
<trkpt lat="44.8955656" lon="5.3695710">
<ele>1060.68</ele>
<time>2019-07-25T13:46:31Z</time>
</trkpt>
<trkpt lat="44.8955707" lon="5.3695659">
<ele>1060.70</ele>
<time>2019-07-25T13:46:32Z</time>
</trkpt>
<trkpt lat="44.8955764" lon="5.3695634">
<ele>1060.71</ele>
<time>2019-07-25T13:46:33Z</time>
</trkpt>
<trkpt lat="44.8955792" lon="5.3695611">
<ele>1060.73</ele>
<time>2019-07-25T13:46:34Z</time>
</trkpt>
<trkpt lat="44.8955813" lon="5.3695623">
<ele>1060.75</ele>
<time>2019-07-25T13:46:35Z</time>
</trkpt>
<trkpt lat="44.8955763" lon="5.3695640">
<ele>1060.90</ele>
<time>2019-07-25T13:46:36Z</time>
</trkpt>
<trkpt lat="44.8955701" lon="5.3695617">
<ele>1060.92</ele>
<time>2019-07-25T13:46:37Z</time>
</trkpt>
<trkpt lat="44.8955756" lon="5.3695550">
<ele>1060.93</ele>
<time>2019-07-25T13:46:38Z</time>
</trkpt>
<trkpt lat="44.8955737" lon="5.3695465">
<ele>1060.95</ele>
<time>2019-07-25T13:46:39Z</time>
</trkpt>
<trkpt lat="44.8955788" lon="5.3695351">
<ele>1060.96</ele>
<time>2019-07-25T13:46:40Z</time>
</trkpt>
<trkpt lat="44.8955787" lon="5.3695346">
<ele>1060.97</ele>
<time>2019-07-25T13:46:41Z</time>
</trkpt>
<trkpt lat="44.8955776" lon="5.3695338">
<ele>1060.98</ele>
<time>2019-07-25T13:46:42Z</time>
</trkpt>
<trkpt lat="44.8955766" lon="5.3695281">
<ele>1061.00</ele>
<time>2019-07-25T13:46:43Z</time>
</trkpt>
<trkpt lat="44.8955748" lon="5.3695239">
<ele>1061.01</ele>
<time>2019-07-25T13:46:44Z</time>
</trkpt>
<trkpt lat="44.8955704" lon="5.3695236">
<ele>1061.12</ele>
<time>2019-07-25T13:46:45Z</time>
</trkpt>
<trkpt lat="44.8955696" lon="5.3695240">
<ele>1061.13</ele>
<time>2019-07-25T13:46:46Z</time>
</trkpt>
<trkpt lat="44.8955694" lon="5.3695238">
<ele>1061.14</ele>
<time>2019-07-25T13:46:47Z</time>
</trkpt>
<trkpt lat="44.8955689" lon="5.3695237">
<ele>1061.15</ele>
<time>2019-07-25T13:46:48Z</time>
</trkpt>
<trkpt lat="44.8955676" lon="5.3695231">
<ele>1061.16</ele>
<time>2019-07-25T13:46:49Z</time>
</trkpt>
<trkpt lat="44.8955679" lon="5.3695220">
<ele>1061.17</ele>
<time>2019-07-25T13:46:50Z</time>
</trkpt>
<trkpt lat="44.8955682" lon="5.3695198">
<ele>1061.28</ele>
<time>2019-07-25T13:46:51Z</time>
</trkpt>
<trkpt lat="44.8955680" lon="5.3695198">
<ele>1061.29</ele>
<time>2019-07-25T13:46:52Z</time>
</trkpt>
<trkpt lat="44.8955710" lon="5.3695193">
<ele>1061.30</ele>
<time>2019-07-25T13:46:53Z</time>
</trkpt>
<trkpt lat="44.8955701" lon="5.3695193">
<ele>1061.31</ele>
<time>2019-07-25T13:46:54Z</time>
</trkpt>
<trkpt lat="44.8955689" lon="5.3695318">
<ele>1061.42</ele>
<time>2019-07-25T13:46:55Z</time>
</trkpt>
<trkpt lat="44.8955698" lon="5.3695332">
<ele>1061.53</ele>
<time>2019-07-25T13:46:56Z</time>
</trkpt>
<trkpt lat="44.8955671" lon="5.3695277">
<ele>1061.54</ele>
<time>2019-07-25T13:46:57Z</time>
</trkpt>
<trkpt lat="44.8955670" lon="5.3695275">
<ele>1061.55</ele>
<time>2019-07-25T13:46:58Z</time>
</trkpt>
<trkpt lat="44.8955669" lon="5.3695278">
<ele>1061.56</ele>
<time>2019-07-25T13:46:59Z</time>
</trkpt>
<trkpt lat="44.8955651" lon="5.3695291">
<ele>1061.57</ele>
<time>2019-07-25T13:47:00Z</time>
</trkpt>
<trkpt lat="44.8955682" lon="5.3695322">
<ele>1061.58</ele>
<time>2019-07-25T13:47:01Z</time>
</trkpt>
<trkpt lat="44.8955641" lon="5.3695319">
<ele>1061.66</ele>
<time>2019-07-25T13:47:02Z</time>
</trkpt>
<trkpt lat="44.8955636" lon="5.3695334">
<ele>1061.67</ele>
<time>2019-07-25T13:47:03Z</time>
</trkpt>
<trkpt lat="44.8955637" lon="5.3695329">
<ele>1061.68</ele>
<time>2019-07-25T13:47:04Z</time>
</trkpt>
<trkpt lat="44.8955636" lon="5.3695330">
<ele>1061.69</ele>
<time>2019-07-25T13:47:05Z</time>
</trkpt>
<trkpt lat="44.8955636" lon="5.3695329">
<ele>1061.69</ele>
<time>2019-07-25T13:47:06Z</time>
</trkpt>
<trkpt lat="44.8955636" lon="5.3695329">
<ele>1061.70</ele>
<time>2019-07-25T13:47:07Z</time>
</trkpt>
<trkpt lat="44.8955637" lon="5.3695329">
<ele>1061.71</ele>
<time>2019-07-25T13:47:08Z</time>
</trkpt>
<trkpt lat="44.8955638" lon="5.3695327">
<ele>1061.71</ele>
<time>2019-07-25T13:47:09Z</time>
</trkpt>
<trkpt lat="44.8955637" lon="5.3695333">
<ele>1061.72</ele>
<time>2019-07-25T13:47:10Z</time>
</trkpt>
<trkpt lat="44.8955637" lon="5.3695332">
<ele>1061.73</ele>
<time>2019-07-25T13:47:11Z</time>
</trkpt>
<trkpt lat="44.8955637" lon="5.3695331">
<ele>1061.73</ele>
<time>2019-07-25T13:47:12Z</time>
</trkpt>
<trkpt lat="44.8955636" lon="5.3695333">
<ele>1061.74</ele>
<time>2019-07-25T13:47:13Z</time>
</trkpt>
<trkpt lat="44.8955636" lon="5.3695334">
<ele>1061.74</ele>
<time>2019-07-25T13:47:14Z</time>
</trkpt>
<trkpt lat="44.8955634" lon="5.3695327">
<ele>1061.75</ele>
<time>2019-07-25T13:47:15Z</time>
</trkpt>
<trkpt lat="44.8955634" lon="5.3695329">
<ele>1061.75</ele>
<time>2019-07-25T13:47:16Z</time>
</trkpt>
<trkpt lat="44.8955633" lon="5.3695329">
<ele>1061.76</ele>
<time>2019-07-25T13:47:17Z</time>
</trkpt>
<trkpt lat="44.8955633" lon="5.3695331">
<ele>1061.76</ele>
<time>2019-07-25T13:47:18Z</time>
</trkpt>
<trkpt lat="44.8955631" lon="5.3695333">
<ele>1061.76</ele>
<time>2019-07-25T13:47:19Z</time>
</trkpt>
<trkpt lat="44.8955632" lon="5.3695338">
<ele>1061.77</ele>
<time>2019-07-25T13:47:20Z</time>
</trkpt>
<trkpt lat="44.8955631" lon="5.3695339">
<ele>1061.77</ele>
<time>2019-07-25T13:47:21Z</time>
</trkpt>
<trkpt lat="44.8955628" lon="5.3695331">
<ele>1061.77</ele>
<time>2019-07-25T13:47:22Z</time>
</trkpt>
<trkpt lat="44.8955627" lon="5.3695333">
<ele>1061.78</ele>
<time>2019-07-25T13:47:23Z</time>
</trkpt>
<trkpt lat="44.8955629" lon="5.3695336">
<ele>1061.78</ele>
<time>2019-07-25T13:47:24Z</time>
</trkpt>
<trkpt lat="44.8955628" lon="5.3695341">
<ele>1061.78</ele>
<time>2019-07-25T13:47:25Z</time>
</trkpt>
<trkpt lat="44.8955628" lon="5.3695342">
<ele>1061.78</ele>
<time>2019-07-25T13:47:26Z</time>
</trkpt>
<trkpt lat="44.8955629" lon="5.3695341">
<ele>1061.79</ele>
<time>2019-07-25T13:47:27Z</time>
</trkpt>
<trkpt lat="44.8955628" lon="5.3695341">
<ele>1061.79</ele>
<time>2019-07-25T13:47:28Z</time>
</trkpt>
<trkpt lat="44.8955628" lon="5.3695343">
<ele>1061.79</ele>
<time>2019-07-25T13:47:29Z</time>
</trkpt>
<trkpt lat="44.8955629" lon="5.3695346">
<ele>1061.79</ele>
<time>2019-07-25T13:47:30Z</time>
</trkpt>
<trkpt lat="44.8955630" lon="5.3695350">
<ele>1061.79</ele>
<time>2019-07-25T13:47:31Z</time>
</trkpt>
<trkpt lat="44.8955630" lon="5.3695352">
<ele>1061.79</ele>
<time>2019-07-25T13:47:32Z</time>
</trkpt>
<trkpt lat="44.8955631" lon="5.3695353">
<ele>1061.79</ele>
<time>2019-07-25T13:47:33Z</time>
</trkpt>
<trkpt lat="44.8955631" lon="5.3695353">
<ele>1061.79</ele>
<time>2019-07-25T13:47:34Z</time>
</trkpt>
<trkpt lat="44.8955630" lon="5.3695352">
<ele>1061.79</ele>
<time>2019-07-25T13:47:35Z</time>
</trkpt>
<trkpt lat="44.8955632" lon="5.3695350">
<ele>1061.79</ele>
<time>2019-07-25T13:47:36Z</time>
</trkpt>
<trkpt lat="44.8955632" lon="5.3695352">
<ele>1061.79</ele>
<time>2019-07-25T13:47:37Z</time>
</trkpt>
<trkpt lat="44.8955633" lon="5.3695353">
<ele>1061.79</ele>
<time>2019-07-25T13:47:38Z</time>
</trkpt>
<trkpt lat="44.8955632" lon="5.3695348">
<ele>1061.79</ele>
<time>2019-07-25T13:47:39Z</time>
</trkpt>
<trkpt lat="44.8955632" lon="5.3695348">
<ele>1061.79</ele>
<time>2019-07-25T13:47:40Z</time>
</trkpt>
<trkpt lat="44.8955633" lon="5.3695350">
<ele>1061.78</ele>
<time>2019-07-25T13:47:41Z</time>
</trkpt>
<trkpt lat="44.8955634" lon="5.3695351">
<ele>1061.78</ele>
<time>2019-07-25T13:47:42Z</time>
</trkpt>
<trkpt lat="44.8955634" lon="5.3695350">
<ele>1061.78</ele>
<time>2019-07-25T13:47:43Z</time>
</trkpt>
<trkpt lat="44.8955607" lon="5.3695324">
<ele>1061.78</ele>
<time>2019-07-25T13:47:44Z</time>
</trkpt>
<trkpt lat="44.8955654" lon="5.3695333">
<ele>1061.75</ele>
<time>2019-07-25T13:47:45Z</time>
</trkpt>
<trkpt lat="44.8955674" lon="5.3695330">
<ele>1061.72</ele>
<time>2019-07-25T13:47:46Z</time>
</trkpt>
<trkpt lat="44.8955695" lon="5.3695334">
<ele>1061.70</ele>
<time>2019-07-25T13:47:47Z</time>
</trkpt>
<trkpt lat="44.8955694" lon="5.3695350">
<ele>1061.67</ele>
<time>2019-07-25T13:47:48Z</time>
</trkpt>
<trkpt lat="44.8955698" lon="5.3695362">
<ele>1061.67</ele>
<time>2019-07-25T13:47:49Z</time>
</trkpt>
<trkpt lat="44.8955710" lon="5.3695374">
<ele>1061.67</ele>
<time>2019-07-25T13:47:50Z</time>
</trkpt>
<trkpt lat="44.8955756" lon="5.3695402">
<ele>1061.64</ele>
<time>2019-07-25T13:47:51Z</time>
</trkpt>
<trkpt lat="44.8955751" lon="5.3695384">
<ele>1061.62</ele>
<time>2019-07-25T13:47:52Z</time>
</trkpt>
<trkpt lat="44.8955766" lon="5.3695478">
<ele>1061.59</ele>
<time>2019-07-25T13:47:53Z</time>
</trkpt>
<trkpt lat="44.8955762" lon="5.3695506">
<ele>1061.57</ele>
<time>2019-07-25T13:47:54Z</time>
</trkpt>
<trkpt lat="44.8955765" lon="5.3695539">
<ele>1061.56</ele>
<time>2019-07-25T13:47:55Z</time>
</trkpt>
<trkpt lat="44.8955761" lon="5.3695585">
<ele>1061.54</ele>
<time>2019-07-25T13:47:56Z</time>
</trkpt>
<trkpt lat="44.8955769" lon="5.3695625">
<ele>1061.52</ele>
<time>2019-07-25T13:47:57Z</time>
</trkpt>
<trkpt lat="44.8955780" lon="5.3695673">
<ele>1061.52</ele>
<time>2019-07-25T13:47:58Z</time>
</trkpt>
<trkpt lat="44.8955780" lon="5.3695673">
<ele>1061.52</ele>
<time>2019-07-25T13:47:59Z</time>
</trkpt>
<trkpt lat="44.8955781" lon="5.3695672">
<ele>1061.51</ele>
<time>2019-07-25T13:48:00Z</time>
</trkpt>
<trkpt lat="44.8955763" lon="5.3695705">
<ele>1061.50</ele>
<time>2019-07-25T13:48:01Z</time>
</trkpt>
<trkpt lat="44.8955840" lon="5.3695787">
<ele>1061.50</ele>
<time>2019-07-25T13:48:02Z</time>
</trkpt>
<trkpt lat="44.8955841" lon="5.3695788">
<ele>1061.50</ele>
<time>2019-07-25T13:48:03Z</time>
</trkpt>
<trkpt lat="44.8955835" lon="5.3695783">
<ele>1061.50</ele>
<time>2019-07-25T13:48:04Z</time>
</trkpt>
<trkpt lat="44.8955832" lon="5.3695781">
<ele>1061.50</ele>
<time>2019-07-25T13:48:05Z</time>
</trkpt>
<trkpt lat="44.8955836" lon="5.3695784">
<ele>1061.50</ele>
<time>2019-07-25T13:48:06Z</time>
</trkpt>
<trkpt lat="44.8955864" lon="5.3695778">
<ele>1061.50</ele>
<time>2019-07-25T13:48:07Z</time>
</trkpt>
<trkpt lat="44.8955839" lon="5.3695882">
<ele>1061.51</ele>
<time>2019-07-25T13:48:08Z</time>
</trkpt>
<trkpt lat="44.8955765" lon="5.3695959">
<ele>1061.51</ele>
<time>2019-07-25T13:48:09Z</time>
</trkpt>
<trkpt lat="44.8955716" lon="5.3696005">
<ele>1061.52</ele>
<time>2019-07-25T13:48:10Z</time>
</trkpt>
<trkpt lat="44.8955732" lon="5.3696012">
<ele>1061.52</ele>
<time>2019-07-25T13:48:11Z</time>
</trkpt>
<trkpt lat="44.8955732" lon="5.3696016">
<ele>1061.52</ele>
<time>2019-07-25T13:48:12Z</time>
</trkpt>
<trkpt lat="44.8955731" lon="5.3696021">
<ele>1061.52</ele>
<time>2019-07-25T13:48:13Z</time>
</trkpt>
<trkpt lat="44.8955729" lon="5.3696023">
<ele>1061.52</ele>
<time>2019-07-25T13:48:14Z</time>
</trkpt>
<trkpt lat="44.8955729" lon="5.3696028">
<ele>1061.51</ele>
<time>2019-07-25T13:48:15Z</time>
</trkpt>
<trkpt lat="44.8955745" lon="5.3696029">
<ele>1061.51</ele>
<time>2019-07-25T13:48:16Z</time>
</trkpt>
<trkpt lat="44.8955900" lon="5.3695974">
<ele>1061.51</ele>
<time>2019-07-25T13:48:17Z</time>
</trkpt>
<trkpt lat="44.8956008" lon="5.3695924">
<ele>1061.50</ele>
<time>2019-07-25T13:48:18Z</time>
</trkpt>
<trkpt lat="44.8956081" lon="5.3695896">
<ele>1061.45</ele>
<time>2019-07-25T13:48:19Z</time>
</trkpt>
<trkpt lat="44.8956152" lon="5.3695859">
<ele>1061.40</ele>
<time>2019-07-25T13:48:20Z</time>
</trkpt>
<trkpt lat="44.8956188" lon="5.3695826">
<ele>1061.35</ele>
<time>2019-07-25T13:48:21Z</time>
</trkpt>
<trkpt lat="44.8956242" lon="5.3695797">
<ele>1061.29</ele>
<time>2019-07-25T13:48:22Z</time>
</trkpt>
<trkpt lat="44.8956241" lon="5.3695806">
<ele>1061.29</ele>
<time>2019-07-25T13:48:23Z</time>
</trkpt>
<trkpt lat="44.8956235" lon="5.3695840">
<ele>1061.28</ele>
<time>2019-07-25T13:48:24Z</time>
</trkpt>
<trkpt lat="44.8956053" lon="5.3695979">
<ele>1061.20</ele>
<time>2019-07-25T13:48:25Z</time>
</trkpt>
<trkpt lat="44.8956191" lon="5.3696038">
<ele>1061.19</ele>
<time>2019-07-25T13:48:26Z</time>
</trkpt>
<trkpt lat="44.8956098" lon="5.3696053">
<ele>1061.18</ele>
<time>2019-07-25T13:48:27Z</time>
</trkpt>
<trkpt lat="44.8956104" lon="5.3696047">
<ele>1061.17</ele>
<time>2019-07-25T13:48:28Z</time>
</trkpt>
<trkpt lat="44.8956107" lon="5.3696046">
<ele>1061.16</ele>
<time>2019-07-25T13:48:29Z</time>
</trkpt>
<trkpt lat="44.8956120" lon="5.3696039">
<ele>1061.14</ele>
<time>2019-07-25T13:48:30Z</time>
</trkpt>
<trkpt lat="44.8956121" lon="5.3696036">
<ele>1061.13</ele>
<time>2019-07-25T13:48:31Z</time>
</trkpt>
<trkpt lat="44.8956138" lon="5.3696049">
<ele>1061.12</ele>
<time>2019-07-25T13:48:32Z</time>
</trkpt>
<trkpt lat="44.8956143" lon="5.3696045">
<ele>1061.11</ele>
<time>2019-07-25T13:48:33Z</time>
</trkpt>
<trkpt lat="44.8956149" lon="5.3696044">
<ele>1061.09</ele>
<time>2019-07-25T13:48:34Z</time>
</trkpt>
<trkpt lat="44.8956159" lon="5.3696046">
<ele>1061.08</ele>
<time>2019-07-25T13:48:35Z</time>
</trkpt>
<trkpt lat="44.8956160" lon="5.3696049">
<ele>1061.06</ele>
<time>2019-07-25T13:48:36Z</time>
</trkpt>
<trkpt lat="44.8956165" lon="5.3696043">
<ele>1061.04</ele>
<time>2019-07-25T13:48:37Z</time>
</trkpt>
<trkpt lat="44.8956170" lon="5.3696037">
<ele>1061.03</ele>
<time>2019-07-25T13:48:38Z</time>
</trkpt>
<trkpt lat="44.8956175" lon="5.3696036">
<ele>1061.01</ele>
<time>2019-07-25T13:48:39Z</time>
</trkpt>
<trkpt lat="44.8956182" lon="5.3696034">
<ele>1061.00</ele>
<time>2019-07-25T13:48:40Z</time>
</trkpt>
<trkpt lat="44.8956192" lon="5.3696023">
<ele>1060.98</ele>
<time>2019-07-25T13:48:41Z</time>
</trkpt>
<trkpt lat="44.8956196" lon="5.3696020">
<ele>1060.96</ele>
<time>2019-07-25T13:48:42Z</time>
</trkpt>
<trkpt lat="44.8956199" lon="5.3696014">
<ele>1060.95</ele>
<time>2019-07-25T13:48:43Z</time>
</trkpt>
<trkpt lat="44.8956194" lon="5.3696012">
<ele>1060.93</ele>
<time>2019-07-25T13:48:44Z</time>
</trkpt>
<trkpt lat="44.8956190" lon="5.3696011">
<ele>1060.91</ele>
<time>2019-07-25T13:48:45Z</time>
</trkpt>
<trkpt lat="44.8956216" lon="5.3695998">
<ele>1060.90</ele>
<time>2019-07-25T13:48:46Z</time>
</trkpt>
<trkpt lat="44.8956216" lon="5.3695997">
<ele>1060.88</ele>
<time>2019-07-25T13:48:47Z</time>
</trkpt>
<trkpt lat="44.8956216" lon="5.3695997">
<ele>1060.86</ele>
<time>2019-07-25T13:48:48Z</time>
</trkpt>
<trkpt lat="44.8956213" lon="5.3695999">
<ele>1060.85</ele>
<time>2019-07-25T13:48:49Z</time>
</trkpt>
<trkpt lat="44.8956215" lon="5.3695997">
<ele>1060.83</ele>
<time>2019-07-25T13:48:50Z</time>
</trkpt>
<trkpt lat="44.8956221" lon="5.3695992">
<ele>1060.81</ele>
<time>2019-07-25T13:48:51Z</time>
</trkpt>
<trkpt lat="44.8956221" lon="5.3695992">
<ele>1060.79</ele>
<time>2019-07-25T13:48:52Z</time>
</trkpt>
<trkpt lat="44.8956218" lon="5.3695993">
<ele>1060.78</ele>
<time>2019-07-25T13:48:53Z</time>
</trkpt>
<trkpt lat="44.8956220" lon="5.3695990">
<ele>1060.76</ele>
<time>2019-07-25T13:48:54Z</time>
</trkpt>
<trkpt lat="44.8956223" lon="5.3695983">
<ele>1060.74</ele>
<time>2019-07-25T13:48:55Z</time>
</trkpt>
<trkpt lat="44.8956225" lon="5.3695979">
<ele>1060.72</ele>
<time>2019-07-25T13:48:56Z</time>
</trkpt>
<trkpt lat="44.8956226" lon="5.3695977">
<ele>1060.71</ele>
<time>2019-07-25T13:48:57Z</time>
</trkpt>
<trkpt lat="44.8956226" lon="5.3695976">
<ele>1060.69</ele>
<time>2019-07-25T13:48:58Z</time>
</trkpt>
<trkpt lat="44.8956227" lon="5.3695975">
<ele>1060.67</ele>
<time>2019-07-25T13:48:59Z</time>
</trkpt>
<trkpt lat="44.8956227" lon="5.3695975">
<ele>1060.65</ele>
<time>2019-07-25T13:49:00Z</time>
</trkpt>
<trkpt lat="44.8956227" lon="5.3695978">
<ele>1060.64</ele>
<time>2019-07-25T13:49:01Z</time>
</trkpt>
<trkpt lat="44.8956226" lon="5.3695976">
<ele>1060.62</ele>
<time>2019-07-25T13:49:02Z</time>
</trkpt>
<trkpt lat="44.8956223" lon="5.3695981">
<ele>1060.60</ele>
<time>2019-07-25T13:49:03Z</time>
</trkpt>
<trkpt lat="44.8956222" lon="5.3695982">
<ele>1060.58</ele>
<time>2019-07-25T13:49:04Z</time>
</trkpt>
<trkpt lat="44.8956221" lon="5.3695982">
<ele>1060.57</ele>
<time>2019-07-25T13:49:05Z</time>
</trkpt>
<trkpt lat="44.8956220" lon="5.3695983">
<ele>1060.55</ele>
<time>2019-07-25T13:49:06Z</time>
</trkpt>
<trkpt lat="44.8956217" lon="5.3695988">
<ele>1060.53</ele>
<time>2019-07-25T13:49:07Z</time>
</trkpt>
<trkpt lat="44.8956202" lon="5.3695995">
<ele>1060.51</ele>
<time>2019-07-25T13:49:08Z</time>
</trkpt>
<trkpt lat="44.8956202" lon="5.3695995">
<ele>1060.50</ele>
<time>2019-07-25T13:49:09Z</time>
</trkpt>
<trkpt lat="44.8956203" lon="5.3695994">
<ele>1060.48</ele>
<time>2019-07-25T13:49:10Z</time>
</trkpt>
<trkpt lat="44.8956207" lon="5.3695993">
<ele>1060.46</ele>
<time>2019-07-25T13:49:11Z</time>
</trkpt>
<trkpt lat="44.8956228" lon="5.3695977">
<ele>1060.44</ele>
<time>2019-07-25T13:49:12Z</time>
</trkpt>
<trkpt lat="44.8956233" lon="5.3695973">
<ele>1060.42</ele>
<time>2019-07-25T13:49:13Z</time>
</trkpt>
<trkpt lat="44.8956231" lon="5.3695972">
<ele>1060.41</ele>
<time>2019-07-25T13:49:14Z</time>
</trkpt>
<trkpt lat="44.8956231" lon="5.3695973">
<ele>1060.39</ele>
<time>2019-07-25T13:49:15Z</time>
</trkpt>
<trkpt lat="44.8956230" lon="5.3695972">
<ele>1060.37</ele>
<time>2019-07-25T13:49:16Z</time>
</trkpt>
<trkpt lat="44.8956234" lon="5.3695966">
<ele>1060.36</ele>
<time>2019-07-25T13:49:17Z</time>
</trkpt>
<trkpt lat="44.8956235" lon="5.3695960">
<ele>1060.34</ele>
<time>2019-07-25T13:49:18Z</time>
</trkpt>
<trkpt lat="44.8956233" lon="5.3695961">
<ele>1060.32</ele>
<time>2019-07-25T13:49:19Z</time>
</trkpt>
<trkpt lat="44.8956233" lon="5.3695960">
<ele>1060.31</ele>
<time>2019-07-25T13:49:20Z</time>
</trkpt>
<trkpt lat="44.8956237" lon="5.3695956">
<ele>1060.29</ele>
<time>2019-07-25T13:49:21Z</time>
</trkpt>
<trkpt lat="44.8956241" lon="5.3695952">
<ele>1060.28</ele>
<time>2019-07-25T13:49:22Z</time>
</trkpt>
<trkpt lat="44.8956240" lon="5.3695951">
<ele>1060.26</ele>
<time>2019-07-25T13:49:23Z</time>
</trkpt>
<trkpt lat="44.8956238" lon="5.3695949">
<ele>1060.25</ele>
<time>2019-07-25T13:49:24Z</time>
</trkpt>
<trkpt lat="44.8956237" lon="5.3695947">
<ele>1060.23</ele>
<time>2019-07-25T13:49:25Z</time>
</trkpt>
<trkpt lat="44.8956238" lon="5.3695946">
<ele>1060.22</ele>
<time>2019-07-25T13:49:26Z</time>
</trkpt>
<trkpt lat="44.8956235" lon="5.3695947">
<ele>1060.21</ele>
<time>2019-07-25T13:49:27Z</time>
</trkpt>
<trkpt lat="44.8956231" lon="5.3695947">
<ele>1060.20</ele>
<time>2019-07-25T13:49:28Z</time>
</trkpt>
<trkpt lat="44.8956231" lon="5.3695946">
<ele>1060.19</ele>
<time>2019-07-25T13:49:29Z</time>
</trkpt>
<trkpt lat="44.8956231" lon="5.3695943">
<ele>1060.17</ele>
<time>2019-07-25T13:49:30Z</time>
</trkpt>
<trkpt lat="44.8956228" lon="5.3695940">
<ele>1060.16</ele>
<time>2019-07-25T13:49:31Z</time>
</trkpt>
<trkpt lat="44.8956222" lon="5.3695939">
<ele>1060.15</ele>
<time>2019-07-25T13:49:32Z</time>
</trkpt>
<trkpt lat="44.8956216" lon="5.3695940">
<ele>1060.14</ele>
<time>2019-07-25T13:49:33Z</time>
</trkpt>
<trkpt lat="44.8956214" lon="5.3695939">
<ele>1060.14</ele>
<time>2019-07-25T13:49:34Z</time>
</trkpt>
<trkpt lat="44.8956213" lon="5.3695937">
<ele>1060.13</ele>
<time>2019-07-25T13:49:35Z</time>
</trkpt>
<trkpt lat="44.8956209" lon="5.3695936">
<ele>1060.12</ele>
<time>2019-07-25T13:49:36Z</time>
</trkpt>
<trkpt lat="44.8956205" lon="5.3695935">
<ele>1060.11</ele>
<time>2019-07-25T13:49:37Z</time>
</trkpt>
<trkpt lat="44.8956207" lon="5.3695932">
<ele>1060.10</ele>
<time>2019-07-25T13:49:38Z</time>
</trkpt>
<trkpt lat="44.8956205" lon="5.3695932">
<ele>1060.09</ele>
<time>2019-07-25T13:49:39Z</time>
</trkpt>
<trkpt lat="44.8956207" lon="5.3695928">
<ele>1060.08</ele>
<time>2019-07-25T13:49:40Z</time>
</trkpt>
<trkpt lat="44.8956205" lon="5.3695929">
<ele>1060.08</ele>
<time>2019-07-25T13:49:41Z</time>
</trkpt>
<trkpt lat="44.8956205" lon="5.3695929">
<ele>1060.07</ele>
<time>2019-07-25T13:49:42Z</time>
</trkpt>
<trkpt lat="44.8956206" lon="5.3695926">
<ele>1060.06</ele>
<time>2019-07-25T13:49:43Z</time>
</trkpt>
<trkpt lat="44.8956201" lon="5.3695926">
<ele>1060.05</ele>
<time>2019-07-25T13:49:44Z</time>
</trkpt>
<trkpt lat="44.8956201" lon="5.3695924">
<ele>1060.04</ele>
<time>2019-07-25T13:49:45Z</time>
</trkpt>
<trkpt lat="44.8956182" lon="5.3695910">
<ele>1060.04</ele>
<time>2019-07-25T13:49:46Z</time>
</trkpt>
<trkpt lat="44.8956178" lon="5.3695905">
<ele>1060.03</ele>
<time>2019-07-25T13:49:47Z</time>
</trkpt>
<trkpt lat="44.8956167" lon="5.3695900">
<ele>1060.02</ele>
<time>2019-07-25T13:49:48Z</time>
</trkpt>
<trkpt lat="44.8956167" lon="5.3695883">
<ele>1060.02</ele>
<time>2019-07-25T13:49:49Z</time>
</trkpt>
<trkpt lat="44.8956168" lon="5.3695874">
<ele>1060.01</ele>
<time>2019-07-25T13:49:50Z</time>
</trkpt>
<trkpt lat="44.8956163" lon="5.3695877">
<ele>1060.01</ele>
<time>2019-07-25T13:49:51Z</time>
</trkpt>
<trkpt lat="44.8956155" lon="5.3695888">
<ele>1060.00</ele>
<time>2019-07-25T13:49:52Z</time>
</trkpt>
<trkpt lat="44.8956151" lon="5.3695891">
<ele>1060.00</ele>
<time>2019-07-25T13:49:53Z</time>
</trkpt>
<trkpt lat="44.8956148" lon="5.3695892">
<ele>1059.99</ele>
<time>2019-07-25T13:49:54Z</time>
</trkpt>
<trkpt lat="44.8956145" lon="5.3695899">
<ele>1059.99</ele>
<time>2019-07-25T13:49:55Z</time>
</trkpt>
<trkpt lat="44.8956140" lon="5.3695900">
<ele>1059.98</ele>
<time>2019-07-25T13:49:56Z</time>
</trkpt>
<trkpt lat="44.8956138" lon="5.3695899">
<ele>1059.98</ele>
<time>2019-07-25T13:49:57Z</time>
</trkpt>
<trkpt lat="44.8956140" lon="5.3695894">
<ele>1059.98</ele>
<time>2019-07-25T13:49:58Z</time>
</trkpt>
<trkpt lat="44.8956139" lon="5.3695897">
<ele>1059.97</ele>
<time>2019-07-25T13:49:59Z</time>
</trkpt>
<trkpt lat="44.8956138" lon="5.3695897">
<ele>1059.97</ele>
<time>2019-07-25T13:50:00Z</time>
</trkpt>
<trkpt lat="44.8956137" lon="5.3695898">
<ele>1059.97</ele>
<time>2019-07-25T13:50:01Z</time>
</trkpt>
<trkpt lat="44.8956136" lon="5.3695900">
<ele>1059.97</ele>
<time>2019-07-25T13:50:02Z</time>
</trkpt>
<trkpt lat="44.8956144" lon="5.3695888">
<ele>1059.96</ele>
<time>2019-07-25T13:50:03Z</time>
</trkpt>
<trkpt lat="44.8956142" lon="5.3695892">
<ele>1059.96</ele>
<time>2019-07-25T13:50:04Z</time>
</trkpt>
<trkpt lat="44.8956141" lon="5.3695892">
<ele>1059.96</ele>
<time>2019-07-25T13:50:05Z</time>
</trkpt>
<trkpt lat="44.8956143" lon="5.3695891">
<ele>1059.96</ele>
<time>2019-07-25T13:50:06Z</time>
</trkpt>
<trkpt lat="44.8956143" lon="5.3695892">
<ele>1059.95</ele>
<time>2019-07-25T13:50:07Z</time>
</trkpt>
<trkpt lat="44.8956142" lon="5.3695892">
<ele>1059.95</ele>
<time>2019-07-25T13:50:08Z</time>
</trkpt>
<trkpt lat="44.8956144" lon="5.3695890">
<ele>1059.95</ele>
<time>2019-07-25T13:50:09Z</time>
</trkpt>
<trkpt lat="44.8956143" lon="5.3695890">
<ele>1059.95</ele>
<time>2019-07-25T13:50:10Z</time>
</trkpt>
<trkpt lat="44.8956142" lon="5.3695891">
<ele>1059.95</ele>
<time>2019-07-25T13:50:11Z</time>
</trkpt>
<trkpt lat="44.8956142" lon="5.3695891">
<ele>1059.95</ele>
<time>2019-07-25T13:50:12Z</time>
</trkpt>
<trkpt lat="44.8956142" lon="5.3695892">
<ele>1059.95</ele>
<time>2019-07-25T13:50:13Z</time>
</trkpt>
<trkpt lat="44.8956143" lon="5.3695892">
<ele>1059.94</ele>
<time>2019-07-25T13:50:14Z</time>
</trkpt>
<trkpt lat="44.8956142" lon="5.3695893">
<ele>1059.94</ele>
<time>2019-07-25T13:50:15Z</time>
</trkpt>
<trkpt lat="44.8956142" lon="5.3695893">
<ele>1059.94</ele>
<time>2019-07-25T13:50:16Z</time>
</trkpt>
<trkpt lat="44.8956142" lon="5.3695894">
<ele>1059.94</ele>
<time>2019-07-25T13:50:17Z</time>
</trkpt>
<trkpt lat="44.8956141" lon="5.3695892">
<ele>1059.94</ele>
<time>2019-07-25T13:50:18Z</time>
</trkpt>
<trkpt lat="44.8956143" lon="5.3695892">
<ele>1059.94</ele>
<time>2019-07-25T13:50:19Z</time>
</trkpt>
<trkpt lat="44.8956146" lon="5.3695888">
<ele>1059.94</ele>
<time>2019-07-25T13:50:20Z</time>
</trkpt>
<trkpt lat="44.8956178" lon="5.3695870">
<ele>1059.94</ele>
<time>2019-07-25T13:50:21Z</time>
</trkpt>
<trkpt lat="44.8956166" lon="5.3695871">
<ele>1059.93</ele>
<time>2019-07-25T13:50:22Z</time>
</trkpt>
<trkpt lat="44.8956176" lon="5.3695907">
<ele>1059.93</ele>
<time>2019-07-25T13:50:23Z</time>
</trkpt>
<trkpt lat="44.8956160" lon="5.3695912">
<ele>1059.93</ele>
<time>2019-07-25T13:50:24Z</time>
</trkpt>
<trkpt lat="44.8956168" lon="5.3695895">
<ele>1059.93</ele>
<time>2019-07-25T13:50:25Z</time>
</trkpt>
<trkpt lat="44.8956173" lon="5.3695916">
<ele>1059.93</ele>
<time>2019-07-25T13:50:26Z</time>
</trkpt>
<trkpt lat="44.8956181" lon="5.3695904">
<ele>1059.93</ele>
<time>2019-07-25T13:50:27Z</time>
</trkpt>
<trkpt lat="44.8956196" lon="5.3695901">
<ele>1059.93</ele>
<time>2019-07-25T13:50:28Z</time>
</trkpt>
<trkpt lat="44.8956172" lon="5.3695878">
<ele>1059.92</ele>
<time>2019-07-25T13:50:29Z</time>
</trkpt>
<trkpt lat="44.8956163" lon="5.3695890">
<ele>1059.92</ele>
<time>2019-07-25T13:50:30Z</time>
</trkpt>
<trkpt lat="44.8956166" lon="5.3695887">
<ele>1059.92</ele>
<time>2019-07-25T13:50:31Z</time>
</trkpt>
<trkpt lat="44.8956168" lon="5.3695880">
<ele>1059.92</ele>
<time>2019-07-25T13:50:32Z</time>
</trkpt>
<trkpt lat="44.8956165" lon="5.3695878">
<ele>1059.92</ele>
<time>2019-07-25T13:50:33Z</time>
</trkpt>
<trkpt lat="44.8956165" lon="5.3695879">
<ele>1059.92</ele>
<time>2019-07-25T13:50:34Z</time>
</trkpt>
<trkpt lat="44.8956172" lon="5.3695875">
<ele>1059.92</ele>
<time>2019-07-25T13:50:35Z</time>
</trkpt>
<trkpt lat="44.8956173" lon="5.3695879">
<ele>1059.92</ele>
<time>2019-07-25T13:50:36Z</time>
</trkpt>
<trkpt lat="44.8956176" lon="5.3695870">
<ele>1059.92</ele>
<time>2019-07-25T13:50:37Z</time>
</trkpt>
<trkpt lat="44.8956204" lon="5.3695851">
<ele>1059.94</ele>
<time>2019-07-25T13:50:38Z</time>
</trkpt>
<trkpt lat="44.8956214" lon="5.3695944">
<ele>1059.94</ele>
<time>2019-07-25T13:50:39Z</time>
</trkpt>
<trkpt lat="44.8956185" lon="5.3695905">
<ele>1059.95</ele>
<time>2019-07-25T13:50:40Z</time>
</trkpt>
<trkpt lat="44.8956195" lon="5.3695909">
<ele>1059.96</ele>
<time>2019-07-25T13:50:41Z</time>
</trkpt>
<trkpt lat="44.8956187" lon="5.3695918">
<ele>1059.96</ele>
<time>2019-07-25T13:50:42Z</time>
</trkpt>
<trkpt lat="44.8956203" lon="5.3695889">
<ele>1059.96</ele>
<time>2019-07-25T13:50:43Z</time>
</trkpt>
<trkpt lat="44.8956237" lon="5.3695866">
<ele>1059.96</ele>
<time>2019-07-25T13:50:44Z</time>
</trkpt>
<trkpt lat="44.8956218" lon="5.3695932">
<ele>1059.98</ele>
<time>2019-07-25T13:50:45Z</time>
</trkpt>
<trkpt lat="44.8956234" lon="5.3695872">
<ele>1059.98</ele>
<time>2019-07-25T13:50:46Z</time>
</trkpt>
<trkpt lat="44.8956275" lon="5.3695790">
<ele>1060.00</ele>
<time>2019-07-25T13:50:47Z</time>
</trkpt>
<trkpt lat="44.8956355" lon="5.3695717">
<ele>1060.00</ele>
<time>2019-07-25T13:50:48Z</time>
</trkpt>
<trkpt lat="44.8956358" lon="5.3695716">
<ele>1060.00</ele>
<time>2019-07-25T13:50:49Z</time>
</trkpt>
<trkpt lat="44.8956358" lon="5.3695716">
<ele>1060.00</ele>
<time>2019-07-25T13:50:50Z</time>
</trkpt>
<trkpt lat="44.8956369" lon="5.3695707">
<ele>1060.01</ele>
<time>2019-07-25T13:50:51Z</time>
</trkpt>
<trkpt lat="44.8956366" lon="5.3695710">
<ele>1060.01</ele>
<time>2019-07-25T13:50:52Z</time>
</trkpt>
<trkpt lat="44.8956366" lon="5.3695712">
<ele>1060.01</ele>
<time>2019-07-25T13:50:53Z</time>
</trkpt>
<trkpt lat="44.8956367" lon="5.3695712">
<ele>1060.01</ele>
<time>2019-07-25T13:50:54Z</time>
</trkpt>
<trkpt lat="44.8956365" lon="5.3695715">
<ele>1060.02</ele>
<time>2019-07-25T13:50:55Z</time>
</trkpt>
<trkpt lat="44.8956366" lon="5.3695714">
<ele>1060.02</ele>
<time>2019-07-25T13:50:56Z</time>
</trkpt>
<trkpt lat="44.8956365" lon="5.3695714">
<ele>1060.02</ele>
<time>2019-07-25T13:50:57Z</time>
</trkpt>
<trkpt lat="44.8956365" lon="5.3695715">
<ele>1060.02</ele>
<time>2019-07-25T13:50:58Z</time>
</trkpt>
<trkpt lat="44.8956364" lon="5.3695714">
<ele>1060.03</ele>
<time>2019-07-25T13:50:59Z</time>
</trkpt>
<trkpt lat="44.8956365" lon="5.3695714">
<ele>1060.03</ele>
<time>2019-07-25T13:51:00Z</time>
</trkpt>
<trkpt lat="44.8956365" lon="5.3695714">
<ele>1060.03</ele>
<time>2019-07-25T13:51:01Z</time>
</trkpt>
<trkpt lat="44.8956365" lon="5.3695713">
<ele>1060.03</ele>
<time>2019-07-25T13:51:02Z</time>
</trkpt>
<trkpt lat="44.8956363" lon="5.3695717">
<ele>1060.04</ele>
<time>2019-07-25T13:51:03Z</time>
</trkpt>
<trkpt lat="44.8956363" lon="5.3695716">
<ele>1060.04</ele>
<time>2019-07-25T13:51:04Z</time>
</trkpt>
<trkpt lat="44.8956364" lon="5.3695714">
<ele>1060.04</ele>
<time>2019-07-25T13:51:05Z</time>
</trkpt>
<trkpt lat="44.8956365" lon="5.3695714">
<ele>1060.05</ele>
<time>2019-07-25T13:51:06Z</time>
</trkpt>
<trkpt lat="44.8956364" lon="5.3695716">
<ele>1060.05</ele>
<time>2019-07-25T13:51:07Z</time>
</trkpt>
<trkpt lat="44.8956362" lon="5.3695720">
<ele>1060.05</ele>
<time>2019-07-25T13:51:08Z</time>
</trkpt>
<trkpt lat="44.8956364" lon="5.3695721">
<ele>1060.06</ele>
<time>2019-07-25T13:51:09Z</time>
</trkpt>
<trkpt lat="44.8956365" lon="5.3695721">
<ele>1060.06</ele>
<time>2019-07-25T13:51:10Z</time>
</trkpt>
<trkpt lat="44.8956366" lon="5.3695720">
<ele>1060.06</ele>
<time>2019-07-25T13:51:11Z</time>
</trkpt>
<trkpt lat="44.8956367" lon="5.3695720">
<ele>1060.07</ele>
<time>2019-07-25T13:51:12Z</time>
</trkpt>
<trkpt lat="44.8956370" lon="5.3695719">
<ele>1060.07</ele>
<time>2019-07-25T13:51:13Z</time>
</trkpt>
<trkpt lat="44.8956371" lon="5.3695719">
<ele>1060.07</ele>
<time>2019-07-25T13:51:14Z</time>
</trkpt>
<trkpt lat="44.8956373" lon="5.3695716">
<ele>1060.07</ele>
<time>2019-07-25T13:51:15Z</time>
</trkpt>
<trkpt lat="44.8956374" lon="5.3695716">
<ele>1060.08</ele>
<time>2019-07-25T13:51:16Z</time>
</trkpt>
<trkpt lat="44.8956379" lon="5.3695710">
<ele>1060.08</ele>
<time>2019-07-25T13:51:17Z</time>
</trkpt>
<trkpt lat="44.8956378" lon="5.3695711">
<ele>1060.08</ele>
<time>2019-07-25T13:51:18Z</time>
</trkpt>
<trkpt lat="44.8956377" lon="5.3695713">
<ele>1060.08</ele>
<time>2019-07-25T13:51:19Z</time>
</trkpt>
<trkpt lat="44.8956377" lon="5.3695713">
<ele>1060.08</ele>
<time>2019-07-25T13:51:20Z</time>
</trkpt>
<trkpt lat="44.8956381" lon="5.3695712">
<ele>1060.08</ele>
<time>2019-07-25T13:51:21Z</time>
</trkpt>
<trkpt lat="44.8956387" lon="5.3695712">
<ele>1060.08</ele>
<time>2019-07-25T13:51:22Z</time>
</trkpt>
<trkpt lat="44.8956385" lon="5.3695713">
<ele>1060.08</ele>
<time>2019-07-25T13:51:23Z</time>
</trkpt>
<trkpt lat="44.8956382" lon="5.3695716">
<ele>1060.08</ele>
<time>2019-07-25T13:51:24Z</time>
</trkpt>
<trkpt lat="44.8956384" lon="5.3695718">
<ele>1060.08</ele>
<time>2019-07-25T13:51:25Z</time>
</trkpt>
<trkpt lat="44.8956375" lon="5.3695724">
<ele>1060.08</ele>
<time>2019-07-25T13:51:26Z</time>
</trkpt>
<trkpt lat="44.8956372" lon="5.3695725">
<ele>1060.08</ele>
<time>2019-07-25T13:51:27Z</time>
</trkpt>
<trkpt lat="44.8956371" lon="5.3695725">
<ele>1060.08</ele>
<time>2019-07-25T13:51:28Z</time>
</trkpt>
<trkpt lat="44.8956369" lon="5.3695727">
<ele>1060.08</ele>
<time>2019-07-25T13:51:29Z</time>
</trkpt>
<trkpt lat="44.8956370" lon="5.3695726">
<ele>1060.08</ele>
<time>2019-07-25T13:51:30Z</time>
</trkpt>
<trkpt lat="44.8956366" lon="5.3695727">
<ele>1060.08</ele>
<time>2019-07-25T13:51:31Z</time>
</trkpt>
<trkpt lat="44.8956358" lon="5.3695732">
<ele>1060.08</ele>
<time>2019-07-25T13:51:32Z</time>
</trkpt>
<trkpt lat="44.8956358" lon="5.3695732">
<ele>1060.08</ele>
<time>2019-07-25T13:51:33Z</time>
</trkpt>
<trkpt lat="44.8956354" lon="5.3695736">
<ele>1060.07</ele>
<time>2019-07-25T13:51:34Z</time>
</trkpt>
<trkpt lat="44.8956354" lon="5.3695736">
<ele>1060.07</ele>
<time>2019-07-25T13:51:35Z</time>
</trkpt>
<trkpt lat="44.8956356" lon="5.3695734">
<ele>1060.07</ele>
<time>2019-07-25T13:51:36Z</time>
</trkpt>
<trkpt lat="44.8956353" lon="5.3695735">
<ele>1060.07</ele>
<time>2019-07-25T13:51:37Z</time>
</trkpt>
<trkpt lat="44.8956357" lon="5.3695734">
<ele>1060.07</ele>
<time>2019-07-25T13:51:38Z</time>
</trkpt>
<trkpt lat="44.8956364" lon="5.3695729">
<ele>1060.08</ele>
<time>2019-07-25T13:51:39Z</time>
</trkpt>
<trkpt lat="44.8956372" lon="5.3695720">
<ele>1060.08</ele>
<time>2019-07-25T13:51:40Z</time>
</trkpt>
<trkpt lat="44.8956375" lon="5.3695716">
<ele>1060.08</ele>
<time>2019-07-25T13:51:41Z</time>
</trkpt>
<trkpt lat="44.8956376" lon="5.3695716">
<ele>1060.08</ele>
<time>2019-07-25T13:51:42Z</time>
</trkpt>
<trkpt lat="44.8956379" lon="5.3695717">
<ele>1060.07</ele>
<time>2019-07-25T13:51:43Z</time>
</trkpt>
<trkpt lat="44.8956392" lon="5.3695716">
<ele>1060.07</ele>
<time>2019-07-25T13:51:44Z</time>
</trkpt>
<trkpt lat="44.8956426" lon="5.3695707">
<ele>1060.07</ele>
<time>2019-07-25T13:51:45Z</time>
</trkpt>
<trkpt lat="44.8956443" lon="5.3695705">
<ele>1060.07</ele>
<time>2019-07-25T13:51:46Z</time>
</trkpt>
<trkpt lat="44.8956465" lon="5.3695700">
<ele>1060.07</ele>
<time>2019-07-25T13:51:47Z</time>
</trkpt>
<trkpt lat="44.8956481" lon="5.3695695">
<ele>1060.02</ele>
<time>2019-07-25T13:51:48Z</time>
</trkpt>
<trkpt lat="44.8956497" lon="5.3695692">
<ele>1060.02</ele>
<time>2019-07-25T13:51:49Z</time>
</trkpt>
<trkpt lat="44.8956518" lon="5.3695694">
<ele>1060.02</ele>
<time>2019-07-25T13:51:50Z</time>
</trkpt>
<trkpt lat="44.8956521" lon="5.3695694">
<ele>1060.02</ele>
<time>2019-07-25T13:51:51Z</time>
</trkpt>
<trkpt lat="44.8956521" lon="5.3695695">
<ele>1060.02</ele>
<time>2019-07-25T13:51:52Z</time>
</trkpt>
<trkpt lat="44.8956521" lon="5.3695698">
<ele>1060.02</ele>
<time>2019-07-25T13:51:53Z</time>
</trkpt>
<trkpt lat="44.8956525" lon="5.3695700">
<ele>1060.02</ele>
<time>2019-07-25T13:51:54Z</time>
</trkpt>
<trkpt lat="44.8956530" lon="5.3695699">
<ele>1060.02</ele>
<time>2019-07-25T13:51:55Z</time>
</trkpt>
<trkpt lat="44.8956531" lon="5.3695701">
<ele>1060.02</ele>
<time>2019-07-25T13:51:56Z</time>
</trkpt>
<trkpt lat="44.8956530" lon="5.3695702">
<ele>1060.02</ele>
<time>2019-07-25T13:51:57Z</time>
</trkpt>
<trkpt lat="44.8956527" lon="5.3695705">
<ele>1060.01</ele>
<time>2019-07-25T13:51:58Z</time>
</trkpt>
<trkpt lat="44.8956492" lon="5.3695717">
<ele>1060.01</ele>
<time>2019-07-25T13:51:59Z</time>
</trkpt>
<trkpt lat="44.8956486" lon="5.3695765">
<ele>1060.00</ele>
<time>2019-07-25T13:52:00Z</time>
</trkpt>
<trkpt lat="44.8956479" lon="5.3695741">
<ele>1059.98</ele>
<time>2019-07-25T13:52:01Z</time>
</trkpt>
<trkpt lat="44.8956537" lon="5.3695683">
<ele>1059.96</ele>
<time>2019-07-25T13:52:02Z</time>
</trkpt>
<trkpt lat="44.8956531" lon="5.3695683">
<ele>1059.96</ele>
<time>2019-07-25T13:52:03Z</time>
</trkpt>
<trkpt lat="44.8956481" lon="5.3695758">
<ele>1059.94</ele>
<time>2019-07-25T13:52:04Z</time>
</trkpt>
<trkpt lat="44.8956475" lon="5.3695766">
<ele>1059.94</ele>
<time>2019-07-25T13:52:05Z</time>
</trkpt>
<trkpt lat="44.8956472" lon="5.3695766">
<ele>1059.94</ele>
<time>2019-07-25T13:52:06Z</time>
</trkpt>
<trkpt lat="44.8956469" lon="5.3695762">
<ele>1059.94</ele>
<time>2019-07-25T13:52:07Z</time>
</trkpt>
<trkpt lat="44.8956466" lon="5.3695749">
<ele>1059.94</ele>
<time>2019-07-25T13:52:08Z</time>
</trkpt>
<trkpt lat="44.8956465" lon="5.3695760">
<ele>1059.93</ele>
<time>2019-07-25T13:52:09Z</time>
</trkpt>
<trkpt lat="44.8956376" lon="5.3695712">
<ele>1059.92</ele>
<time>2019-07-25T13:52:10Z</time>
</trkpt>
<trkpt lat="44.8956345" lon="5.3695932">
<ele>1059.91</ele>
<time>2019-07-25T13:52:11Z</time>
</trkpt>
<trkpt lat="44.8956355" lon="5.3695779">
<ele>1059.91</ele>
<time>2019-07-25T13:52:12Z</time>
</trkpt>
<trkpt lat="44.8956436" lon="5.3695812">
<ele>1059.90</ele>
<time>2019-07-25T13:52:13Z</time>
</trkpt>
<trkpt lat="44.8956323" lon="5.3695886">
<ele>1059.90</ele>
<time>2019-07-25T13:52:14Z</time>
</trkpt>
<trkpt lat="44.8956306" lon="5.3695981">
<ele>1059.86</ele>
<time>2019-07-25T13:52:15Z</time>
</trkpt>
<trkpt lat="44.8956284" lon="5.3695888">
<ele>1059.82</ele>
<time>2019-07-25T13:52:16Z</time>
</trkpt>
<trkpt lat="44.8956255" lon="5.3695784">
<ele>1059.78</ele>
<time>2019-07-25T13:52:17Z</time>
</trkpt>
<trkpt lat="44.8956303" lon="5.3695792">
<ele>1059.77</ele>
<time>2019-07-25T13:52:18Z</time>
</trkpt>
<trkpt lat="44.8956190" lon="5.3695748">
<ele>1059.73</ele>
<time>2019-07-25T13:52:19Z</time>
</trkpt>
<trkpt lat="44.8955940" lon="5.3695795">
<ele>1059.69</ele>
<time>2019-07-25T13:52:20Z</time>
</trkpt>
<trkpt lat="44.8955918" lon="5.3695805">
<ele>1059.68</ele>
<time>2019-07-25T13:52:21Z</time>
</trkpt>
<trkpt lat="44.8955920" lon="5.3695814">
<ele>1059.68</ele>
<time>2019-07-25T13:52:22Z</time>
</trkpt>
<trkpt lat="44.8955941" lon="5.3695814">
<ele>1059.67</ele>
<time>2019-07-25T13:52:23Z</time>
</trkpt>
<trkpt lat="44.8955951" lon="5.3695837">
<ele>1059.67</ele>
<time>2019-07-25T13:52:24Z</time>
</trkpt>
<trkpt lat="44.8955965" lon="5.3695874">
<ele>1059.67</ele>
<time>2019-07-25T13:52:25Z</time>
</trkpt>
<trkpt lat="44.8955966" lon="5.3695879">
<ele>1059.66</ele>
<time>2019-07-25T13:52:26Z</time>
</trkpt>
<trkpt lat="44.8955963" lon="5.3695901">
<ele>1059.66</ele>
<time>2019-07-25T13:52:27Z</time>
</trkpt>
<trkpt lat="44.8956034" lon="5.3696031">
<ele>1059.65</ele>
<time>2019-07-25T13:52:28Z</time>
</trkpt>
<trkpt lat="44.8956081" lon="5.3696117">
<ele>1059.64</ele>
<time>2019-07-25T13:52:29Z</time>
</trkpt>
<trkpt lat="44.8956054" lon="5.3696140">
<ele>1059.58</ele>
<time>2019-07-25T13:52:30Z</time>
</trkpt>
<trkpt lat="44.8956165" lon="5.3696270">
<ele>1059.52</ele>
<time>2019-07-25T13:52:31Z</time>
</trkpt>
<trkpt lat="44.8956142" lon="5.3696321">
<ele>1059.46</ele>
<time>2019-07-25T13:52:32Z</time>
</trkpt>
<trkpt lat="44.8956083" lon="5.3696165">
<ele>1059.41</ele>
<time>2019-07-25T13:52:33Z</time>
</trkpt>
<trkpt lat="44.8956100" lon="5.3696169">
<ele>1059.36</ele>
<time>2019-07-25T13:52:34Z</time>
</trkpt>
<trkpt lat="44.8956136" lon="5.3696151">
<ele>1059.36</ele>
<time>2019-07-25T13:52:35Z</time>
</trkpt>
<trkpt lat="44.8956175" lon="5.3696297">
<ele>1059.32</ele>
<time>2019-07-25T13:52:36Z</time>
</trkpt>
<trkpt lat="44.8956194" lon="5.3696494">
<ele>1059.29</ele>
<time>2019-07-25T13:52:37Z</time>
</trkpt>
<trkpt lat="44.8956202" lon="5.3696516">
<ele>1059.29</ele>
<time>2019-07-25T13:52:38Z</time>
</trkpt>
<trkpt lat="44.8956104" lon="5.3696493">
<ele>1059.29</ele>
<time>2019-07-25T13:52:39Z</time>
</trkpt>
<trkpt lat="44.8956165" lon="5.3696606">
<ele>1059.28</ele>
<time>2019-07-25T13:52:40Z</time>
</trkpt>
<trkpt lat="44.8956102" lon="5.3696640">
<ele>1059.26</ele>
<time>2019-07-25T13:52:41Z</time>
</trkpt>
<trkpt lat="44.8956097" lon="5.3696622">
<ele>1059.26</ele>
<time>2019-07-25T13:52:42Z</time>
</trkpt>
<trkpt lat="44.8956142" lon="5.3696644">
<ele>1059.25</ele>
<time>2019-07-25T13:52:43Z</time>
</trkpt>
<trkpt lat="44.8956070" lon="5.3696641">
<ele>1059.23</ele>
<time>2019-07-25T13:52:44Z</time>
</trkpt>
<trkpt lat="44.8956204" lon="5.3696828">
<ele>1059.23</ele>
<time>2019-07-25T13:52:45Z</time>
</trkpt>
<trkpt lat="44.8956166" lon="5.3696697">
<ele>1059.23</ele>
<time>2019-07-25T13:52:46Z</time>
</trkpt>
<trkpt lat="44.8956155" lon="5.3696522">
<ele>1059.23</ele>
<time>2019-07-25T13:52:47Z</time>
</trkpt>
<trkpt lat="44.8956074" lon="5.3696527">
<ele>1059.23</ele>
<time>2019-07-25T13:52:48Z</time>
</trkpt>
<trkpt lat="44.8956085" lon="5.3696622">
<ele>1059.23</ele>
<time>2019-07-25T13:52:49Z</time>
</trkpt>
<trkpt lat="44.8956131" lon="5.3696556">
<ele>1059.23</ele>
<time>2019-07-25T13:52:50Z</time>
</trkpt>
<trkpt lat="44.8956132" lon="5.3696537">
<ele>1059.23</ele>
<time>2019-07-25T13:52:51Z</time>
</trkpt>
<trkpt lat="44.8956149" lon="5.3696559">
<ele>1059.23</ele>
<time>2019-07-25T13:52:52Z</time>
</trkpt>
<trkpt lat="44.8956150" lon="5.3696582">
<ele>1059.23</ele>
<time>2019-07-25T13:52:53Z</time>
</trkpt>
<trkpt lat="44.8956151" lon="5.3696587">
<ele>1059.23</ele>
<time>2019-07-25T13:52:54Z</time>
</trkpt>
<trkpt lat="44.8956156" lon="5.3696582">
<ele>1059.23</ele>
<time>2019-07-25T13:52:55Z</time>
</trkpt>
<trkpt lat="44.8956178" lon="5.3696513">
<ele>1059.23</ele>
<time>2019-07-25T13:52:56Z</time>
</trkpt>
<trkpt lat="44.8956167" lon="5.3696507">
<ele>1059.23</ele>
<time>2019-07-25T13:52:57Z</time>
</trkpt>
<trkpt lat="44.8956149" lon="5.3696475">
<ele>1059.23</ele>
<time>2019-07-25T13:52:58Z</time>
</trkpt>
<trkpt lat="44.8956169" lon="5.3696475">
<ele>1059.23</ele>
<time>2019-07-25T13:52:59Z</time>
</trkpt>
<trkpt lat="44.8956169" lon="5.3696476">
<ele>1059.24</ele>
<time>2019-07-25T13:53:00Z</time>
</trkpt>
<trkpt lat="44.8956158" lon="5.3696418">
<ele>1059.24</ele>
<time>2019-07-25T13:53:01Z</time>
</trkpt>
<trkpt lat="44.8956117" lon="5.3696371">
<ele>1059.24</ele>
<time>2019-07-25T13:53:02Z</time>
</trkpt>
<trkpt lat="44.8956157" lon="5.3696359">
<ele>1059.26</ele>
<time>2019-07-25T13:53:03Z</time>
</trkpt>
<trkpt lat="44.8956154" lon="5.3696389">
<ele>1059.28</ele>
<time>2019-07-25T13:53:04Z</time>
</trkpt>
<trkpt lat="44.8956155" lon="5.3696389">
<ele>1059.28</ele>
<time>2019-07-25T13:53:05Z</time>
</trkpt>
<trkpt lat="44.8956145" lon="5.3696355">
<ele>1059.29</ele>
<time>2019-07-25T13:53:06Z</time>
</trkpt>
<trkpt lat="44.8956161" lon="5.3696337">
<ele>1059.31</ele>
<time>2019-07-25T13:53:07Z</time>
</trkpt>
<trkpt lat="44.8956195" lon="5.3696373">
<ele>1059.35</ele>
<time>2019-07-25T13:53:08Z</time>
</trkpt>
<trkpt lat="44.8955957" lon="5.3696278">
<ele>1059.38</ele>
<time>2019-07-25T13:53:09Z</time>
</trkpt>
<trkpt lat="44.8955921" lon="5.3696219">
<ele>1059.41</ele>
<time>2019-07-25T13:53:10Z</time>
</trkpt>
<trkpt lat="44.8955836" lon="5.3696211">
<ele>1059.43</ele>
<time>2019-07-25T13:53:11Z</time>
</trkpt>
<trkpt lat="44.8955656" lon="5.3696200">
<ele>1059.44</ele>
<time>2019-07-25T13:53:12Z</time>
</trkpt>
<trkpt lat="44.8955568" lon="5.3696067">
<ele>1059.47</ele>
<time>2019-07-25T13:53:13Z</time>
</trkpt>
<trkpt lat="44.8955453" lon="5.3696091">
<ele>1059.47</ele>
<time>2019-07-25T13:53:14Z</time>
</trkpt>
<trkpt lat="44.8955454" lon="5.3696107">
<ele>1059.47</ele>
<time>2019-07-25T13:53:15Z</time>
</trkpt>
<trkpt lat="44.8955464" lon="5.3696132">
<ele>1059.47</ele>
<time>2019-07-25T13:53:16Z</time>
</trkpt>
<trkpt lat="44.8955464" lon="5.3696130">
<ele>1059.48</ele>
<time>2019-07-25T13:53:17Z</time>
</trkpt>
<trkpt lat="44.8955470" lon="5.3696130">
<ele>1059.48</ele>
<time>2019-07-25T13:53:18Z</time>
</trkpt>
<trkpt lat="44.8955499" lon="5.3696074">
<ele>1059.48</ele>
<time>2019-07-25T13:53:19Z</time>
</trkpt>
<trkpt lat="44.8955578" lon="5.3696090">
<ele>1059.49</ele>
<time>2019-07-25T13:53:20Z</time>
</trkpt>
<trkpt lat="44.8955633" lon="5.3696113">
<ele>1059.53</ele>
<time>2019-07-25T13:53:21Z</time>
</trkpt>
<trkpt lat="44.8955680" lon="5.3696080">
<ele>1059.53</ele>
<time>2019-07-25T13:53:22Z</time>
</trkpt>
<trkpt lat="44.8955676" lon="5.3695980">
<ele>1059.54</ele>
<time>2019-07-25T13:53:23Z</time>
</trkpt>
<trkpt lat="44.8955744" lon="5.3695969">
<ele>1059.58</ele>
<time>2019-07-25T13:53:24Z</time>
</trkpt>
<trkpt lat="44.8955778" lon="5.3695970">
<ele>1059.59</ele>
<time>2019-07-25T13:53:25Z</time>
</trkpt>
<trkpt lat="44.8955856" lon="5.3695801">
<ele>1059.64</ele>
<time>2019-07-25T13:53:26Z</time>
</trkpt>
<trkpt lat="44.8955969" lon="5.3695633">
<ele>1059.64</ele>
<time>2019-07-25T13:53:27Z</time>
</trkpt>
<trkpt lat="44.8956137" lon="5.3695633">
<ele>1059.69</ele>
<time>2019-07-25T13:53:28Z</time>
</trkpt>
<trkpt lat="44.8956407" lon="5.3695620">
<ele>1059.70</ele>
<time>2019-07-25T13:53:29Z</time>
</trkpt>
<trkpt lat="44.8956590" lon="5.3695550">
<ele>1059.70</ele>
<time>2019-07-25T13:53:30Z</time>
</trkpt>
<trkpt lat="44.8956923" lon="5.3695550">
<ele>1059.71</ele>
<time>2019-07-25T13:53:31Z</time>
</trkpt>
<trkpt lat="44.8956759" lon="5.3695510">
<ele>1059.71</ele>
<time>2019-07-25T13:53:32Z</time>
</trkpt>
<trkpt lat="44.8956759" lon="5.3695526">
<ele>1059.72</ele>
<time>2019-07-25T13:53:33Z</time>
</trkpt>
<trkpt lat="44.8956758" lon="5.3695536">
<ele>1059.72</ele>
<time>2019-07-25T13:53:34Z</time>
</trkpt>
<trkpt lat="44.8956685" lon="5.3695622">
<ele>1059.72</ele>
<time>2019-07-25T13:53:35Z</time>
</trkpt>
<trkpt lat="44.8956714" lon="5.3695685">
<ele>1059.73</ele>
<time>2019-07-25T13:53:36Z</time>
</trkpt>
<trkpt lat="44.8956760" lon="5.3695752">
<ele>1059.73</ele>
<time>2019-07-25T13:53:37Z</time>
</trkpt>
<trkpt lat="44.8956765" lon="5.3695756">
<ele>1059.73</ele>
<time>2019-07-25T13:53:38Z</time>
</trkpt>
<trkpt lat="44.8956768" lon="5.3695766">
<ele>1059.73</ele>
<time>2019-07-25T13:53:39Z</time>
</trkpt>
<trkpt lat="44.8956766" lon="5.3695776">
<ele>1059.74</ele>
<time>2019-07-25T13:53:40Z</time>
</trkpt>
<trkpt lat="44.8956775" lon="5.3695790">
<ele>1059.74</ele>
<time>2019-07-25T13:53:41Z</time>
</trkpt>
<trkpt lat="44.8956775" lon="5.3695877">
<ele>1059.77</ele>
<time>2019-07-25T13:53:42Z</time>
</trkpt>
<trkpt lat="44.8956867" lon="5.3695861">
<ele>1059.78</ele>
<time>2019-07-25T13:53:43Z</time>
</trkpt>
<trkpt lat="44.8956910" lon="5.3695912">
<ele>1059.78</ele>
<time>2019-07-25T13:53:44Z</time>
</trkpt>
<trkpt lat="44.8956922" lon="5.3695925">
<ele>1059.78</ele>
<time>2019-07-25T13:53:45Z</time>
</trkpt>
<trkpt lat="44.8956921" lon="5.3695922">
<ele>1059.78</ele>
<time>2019-07-25T13:53:46Z</time>
</trkpt>
<trkpt lat="44.8956987" lon="5.3695879">
<ele>1059.79</ele>
<time>2019-07-25T13:53:47Z</time>
</trkpt>
<trkpt lat="44.8956981" lon="5.3695739">
<ele>1059.79</ele>
<time>2019-07-25T13:53:48Z</time>
</trkpt>
<trkpt lat="44.8956969" lon="5.3695792">
<ele>1059.79</ele>
<time>2019-07-25T13:53:49Z</time>
</trkpt>
<trkpt lat="44.8956969" lon="5.3695798">
<ele>1059.80</ele>
<time>2019-07-25T13:53:50Z</time>
</trkpt>
<trkpt lat="44.8956967" lon="5.3695784">
<ele>1059.80</ele>
<time>2019-07-25T13:53:51Z</time>
</trkpt>
<trkpt lat="44.8956950" lon="5.3695821">
<ele>1059.83</ele>
<time>2019-07-25T13:53:52Z</time>
</trkpt>
<trkpt lat="44.8956923" lon="5.3695934">
<ele>1059.83</ele>
<time>2019-07-25T13:53:53Z</time>
</trkpt>
<trkpt lat="44.8956907" lon="5.3696012">
<ele>1059.83</ele>
<time>2019-07-25T13:53:54Z</time>
</trkpt>
<trkpt lat="44.8956903" lon="5.3696038">
<ele>1059.83</ele>
<time>2019-07-25T13:53:55Z</time>
</trkpt>
<trkpt lat="44.8956891" lon="5.3696107">
<ele>1059.85</ele>
<time>2019-07-25T13:53:56Z</time>
</trkpt>
<trkpt lat="44.8956878" lon="5.3696245">
<ele>1059.87</ele>
<time>2019-07-25T13:53:57Z</time>
</trkpt>
<trkpt lat="44.8956861" lon="5.3696366">
<ele>1059.89</ele>
<time>2019-07-25T13:53:58Z</time>
</trkpt>
<trkpt lat="44.8956859" lon="5.3696374">
<ele>1059.89</ele>
<time>2019-07-25T13:53:59Z</time>
</trkpt>
<trkpt lat="44.8956855" lon="5.3696376">
<ele>1059.89</ele>
<time>2019-07-25T13:54:00Z</time>
</trkpt>
<trkpt lat="44.8956799" lon="5.3696424">
<ele>1059.89</ele>
<time>2019-07-25T13:54:01Z</time>
</trkpt>
<trkpt lat="44.8956810" lon="5.3696398">
<ele>1059.90</ele>
<time>2019-07-25T13:54:02Z</time>
</trkpt>
<trkpt lat="44.8956799" lon="5.3696310">
<ele>1059.90</ele>
<time>2019-07-25T13:54:03Z</time>
</trkpt>
<trkpt lat="44.8956799" lon="5.3696310">
<ele>1059.90</ele>
<time>2019-07-25T13:54:04Z</time>
</trkpt>
<trkpt lat="44.8956805" lon="5.3696295">
<ele>1059.90</ele>
<time>2019-07-25T13:54:05Z</time>
</trkpt>
<trkpt lat="44.8956805" lon="5.3696223">
<ele>1059.91</ele>
<time>2019-07-25T13:54:06Z</time>
</trkpt>
<trkpt lat="44.8956795" lon="5.3696330">
<ele>1059.91</ele>
<time>2019-07-25T13:54:07Z</time>
</trkpt>
<trkpt lat="44.8956822" lon="5.3696395">
<ele>1059.91</ele>
<time>2019-07-25T13:54:08Z</time>
</trkpt>
<trkpt lat="44.8956829" lon="5.3696418">
<ele>1059.91</ele>
<time>2019-07-25T13:54:09Z</time>
</trkpt>
<trkpt lat="44.8956845" lon="5.3696423">
<ele>1059.92</ele>
<time>2019-07-25T13:54:10Z</time>
</trkpt>
<trkpt lat="44.8956844" lon="5.3696421">
<ele>1059.92</ele>
<time>2019-07-25T13:54:11Z</time>
</trkpt>
<trkpt lat="44.8956850" lon="5.3696395">
<ele>1059.92</ele>
<time>2019-07-25T13:54:12Z</time>
</trkpt>
<trkpt lat="44.8956852" lon="5.3696395">
<ele>1059.93</ele>
<time>2019-07-25T13:54:13Z</time>
</trkpt>
<trkpt lat="44.8956856" lon="5.3696372">
<ele>1059.93</ele>
<time>2019-07-25T13:54:14Z</time>
</trkpt>
<trkpt lat="44.8956856" lon="5.3696366">
<ele>1059.94</ele>
<time>2019-07-25T13:54:15Z</time>
</trkpt>
<trkpt lat="44.8956868" lon="5.3696363">
<ele>1059.94</ele>
<time>2019-07-25T13:54:16Z</time>
</trkpt>
<trkpt lat="44.8956872" lon="5.3696356">
<ele>1059.95</ele>
<time>2019-07-25T13:54:17Z</time>
</trkpt>
<trkpt lat="44.8956876" lon="5.3696350">
<ele>1059.95</ele>
<time>2019-07-25T13:54:18Z</time>
</trkpt>
<trkpt lat="44.8956884" lon="5.3696273">
<ele>1059.96</ele>
<time>2019-07-25T13:54:19Z</time>
</trkpt>
<trkpt lat="44.8956902" lon="5.3696259">
<ele>1059.96</ele>
<time>2019-07-25T13:54:20Z</time>
</trkpt>
<trkpt lat="44.8956903" lon="5.3696281">
<ele>1059.97</ele>
<time>2019-07-25T13:54:21Z</time>
</trkpt>
<trkpt lat="44.8956901" lon="5.3696294">
<ele>1059.97</ele>
<time>2019-07-25T13:54:22Z</time>
</trkpt>
<trkpt lat="44.8956897" lon="5.3696294">
<ele>1059.98</ele>
<time>2019-07-25T13:54:23Z</time>
</trkpt>
<trkpt lat="44.8956894" lon="5.3696296">
<ele>1059.99</ele>
<time>2019-07-25T13:54:24Z</time>
</trkpt>
<trkpt lat="44.8956889" lon="5.3696294">
<ele>1059.99</ele>
<time>2019-07-25T13:54:25Z</time>
</trkpt>
<trkpt lat="44.8956890" lon="5.3696291">
<ele>1060.00</ele>
<time>2019-07-25T13:54:26Z</time>
</trkpt>
<trkpt lat="44.8956890" lon="5.3696286">
<ele>1060.00</ele>
<time>2019-07-25T13:54:27Z</time>
</trkpt>
<trkpt lat="44.8956887" lon="5.3696274">
<ele>1060.01</ele>
<time>2019-07-25T13:54:28Z</time>
</trkpt>
<trkpt lat="44.8956746" lon="5.3696301">
<ele>1060.06</ele>
<time>2019-07-25T13:54:29Z</time>
</trkpt>
<trkpt lat="44.8956757" lon="5.3696073">
<ele>1060.11</ele>
<time>2019-07-25T13:54:30Z</time>
</trkpt>
<trkpt lat="44.8956737" lon="5.3696052">
<ele>1060.15</ele>
<time>2019-07-25T13:54:31Z</time>
</trkpt>
<trkpt lat="44.8956674" lon="5.3695873">
<ele>1060.20</ele>
<time>2019-07-25T13:54:32Z</time>
</trkpt>
<trkpt lat="44.8956657" lon="5.3695839">
<ele>1060.24</ele>
<time>2019-07-25T13:54:33Z</time>
</trkpt>
<trkpt lat="44.8956700" lon="5.3695962">
<ele>1060.29</ele>
<time>2019-07-25T13:54:34Z</time>
</trkpt>
<trkpt lat="44.8956744" lon="5.3696049">
<ele>1060.29</ele>
<time>2019-07-25T13:54:35Z</time>
</trkpt>
<trkpt lat="44.8956751" lon="5.3696056">
<ele>1060.30</ele>
<time>2019-07-25T13:54:36Z</time>
</trkpt>
<trkpt lat="44.8956705" lon="5.3696130">
<ele>1060.34</ele>
<time>2019-07-25T13:54:37Z</time>
</trkpt>
<trkpt lat="44.8956796" lon="5.3696089">
<ele>1060.35</ele>
<time>2019-07-25T13:54:38Z</time>
</trkpt>
<trkpt lat="44.8956732" lon="5.3696142">
<ele>1060.35</ele>
<time>2019-07-25T13:54:39Z</time>
</trkpt>
<trkpt lat="44.8956747" lon="5.3696108">
<ele>1060.36</ele>
<time>2019-07-25T13:54:40Z</time>
</trkpt>
<trkpt lat="44.8956782" lon="5.3696039">
<ele>1060.36</ele>
<time>2019-07-25T13:54:41Z</time>
</trkpt>
<trkpt lat="44.8956781" lon="5.3696041">
<ele>1060.36</ele>
<time>2019-07-25T13:54:42Z</time>
</trkpt>
<trkpt lat="44.8956785" lon="5.3696044">
<ele>1060.37</ele>
<time>2019-07-25T13:54:43Z</time>
</trkpt>
<trkpt lat="44.8956788" lon="5.3696046">
<ele>1060.37</ele>
<time>2019-07-25T13:54:44Z</time>
</trkpt>
<trkpt lat="44.8956792" lon="5.3696042">
<ele>1060.38</ele>
<time>2019-07-25T13:54:45Z</time>
</trkpt>
<trkpt lat="44.8956793" lon="5.3696044">
<ele>1060.38</ele>
<time>2019-07-25T13:54:46Z</time>
</trkpt>
<trkpt lat="44.8956790" lon="5.3696042">
<ele>1060.39</ele>
<time>2019-07-25T13:54:47Z</time>
</trkpt>
<trkpt lat="44.8956791" lon="5.3696037">
<ele>1060.39</ele>
<time>2019-07-25T13:54:48Z</time>
</trkpt>
<trkpt lat="44.8956796" lon="5.3696063">
<ele>1060.40</ele>
<time>2019-07-25T13:54:49Z</time>
</trkpt>
<trkpt lat="44.8956860" lon="5.3695987">
<ele>1060.40</ele>
<time>2019-07-25T13:54:50Z</time>
</trkpt>
<trkpt lat="44.8956851" lon="5.3695999">
<ele>1060.41</ele>
<time>2019-07-25T13:54:51Z</time>
</trkpt>
<trkpt lat="44.8956894" lon="5.3695956">
<ele>1060.41</ele>
<time>2019-07-25T13:54:52Z</time>
</trkpt>
<trkpt lat="44.8956897" lon="5.3695983">
<ele>1060.42</ele>
<time>2019-07-25T13:54:53Z</time>
</trkpt>
<trkpt lat="44.8956886" lon="5.3696014">
<ele>1060.42</ele>
<time>2019-07-25T13:54:54Z</time>
</trkpt>
<trkpt lat="44.8956887" lon="5.3696048">
<ele>1060.43</ele>
<time>2019-07-25T13:54:55Z</time>
</trkpt>
<trkpt lat="44.8956888" lon="5.3696064">
<ele>1060.44</ele>
<time>2019-07-25T13:54:56Z</time>
</trkpt>
<trkpt lat="44.8956885" lon="5.3696068">
<ele>1060.44</ele>
<time>2019-07-25T13:54:57Z</time>
</trkpt>
<trkpt lat="44.8956908" lon="5.3696001">
<ele>1060.45</ele>
<time>2019-07-25T13:54:58Z</time>
</trkpt>
<trkpt lat="44.8956899" lon="5.3695995">
<ele>1060.51</ele>
<time>2019-07-25T13:54:59Z</time>
</trkpt>
<trkpt lat="44.8956893" lon="5.3695925">
<ele>1060.52</ele>
<time>2019-07-25T13:55:00Z</time>
</trkpt>
<trkpt lat="44.8956871" lon="5.3695847">
<ele>1060.53</ele>
<time>2019-07-25T13:55:01Z</time>
</trkpt>
<trkpt lat="44.8956864" lon="5.3695831">
<ele>1060.53</ele>
<time>2019-07-25T13:55:02Z</time>
</trkpt>
<trkpt lat="44.8956848" lon="5.3695744">
<ele>1060.54</ele>
<time>2019-07-25T13:55:03Z</time>
</trkpt>
<trkpt lat="44.8956843" lon="5.3695748">
<ele>1060.55</ele>
<time>2019-07-25T13:55:04Z</time>
</trkpt>
<trkpt lat="44.8956830" lon="5.3695739">
<ele>1060.56</ele>
<time>2019-07-25T13:55:05Z</time>
</trkpt>
<trkpt lat="44.8956822" lon="5.3695820">
<ele>1060.62</ele>
<time>2019-07-25T13:55:06Z</time>
</trkpt>
<trkpt lat="44.8956806" lon="5.3695882">
<ele>1060.69</ele>
<time>2019-07-25T13:55:07Z</time>
</trkpt>
<trkpt lat="44.8956812" lon="5.3695893">
<ele>1060.69</ele>
<time>2019-07-25T13:55:08Z</time>
</trkpt>
<trkpt lat="44.8956809" lon="5.3695989">
<ele>1060.70</ele>
<time>2019-07-25T13:55:09Z</time>
</trkpt>
<trkpt lat="44.8956813" lon="5.3695995">
<ele>1060.76</ele>
<time>2019-07-25T13:55:10Z</time>
</trkpt>
<trkpt lat="44.8956797" lon="5.3696031">
<ele>1060.77</ele>
<time>2019-07-25T13:55:11Z</time>
</trkpt>
<trkpt lat="44.8956768" lon="5.3696019">
<ele>1060.77</ele>
<time>2019-07-25T13:55:12Z</time>
</trkpt>
<trkpt lat="44.8956767" lon="5.3696024">
<ele>1060.78</ele>
<time>2019-07-25T13:55:13Z</time>
</trkpt>
<trkpt lat="44.8956754" lon="5.3695976">
<ele>1060.78</ele>
<time>2019-07-25T13:55:14Z</time>
</trkpt>
<trkpt lat="44.8956749" lon="5.3695977">
<ele>1060.79</ele>
<time>2019-07-25T13:55:15Z</time>
</trkpt>
<trkpt lat="44.8956743" lon="5.3696022">
<ele>1060.85</ele>
<time>2019-07-25T13:55:16Z</time>
</trkpt>
<trkpt lat="44.8956778" lon="5.3695926">
<ele>1060.85</ele>
<time>2019-07-25T13:55:17Z</time>
</trkpt>
<trkpt lat="44.8956824" lon="5.3695808">
<ele>1060.90</ele>
<time>2019-07-25T13:55:18Z</time>
</trkpt>
<trkpt lat="44.8956816" lon="5.3695803">
<ele>1060.95</ele>
<time>2019-07-25T13:55:19Z</time>
</trkpt>
<trkpt lat="44.8956794" lon="5.3695841">
<ele>1061.00</ele>
<time>2019-07-25T13:55:20Z</time>
</trkpt>
<trkpt lat="44.8956744" lon="5.3695900">
<ele>1061.04</ele>
<time>2019-07-25T13:55:21Z</time>
</trkpt>
<trkpt lat="44.8956750" lon="5.3695863">
<ele>1061.05</ele>
<time>2019-07-25T13:55:22Z</time>
</trkpt>
<trkpt lat="44.8956733" lon="5.3695902">
<ele>1061.05</ele>
<time>2019-07-25T13:55:23Z</time>
</trkpt>
<trkpt lat="44.8956713" lon="5.3695941">
<ele>1061.09</ele>
<time>2019-07-25T13:55:24Z</time>
</trkpt>
<trkpt lat="44.8956728" lon="5.3695918">
<ele>1061.14</ele>
<time>2019-07-25T13:55:25Z</time>
</trkpt>
<trkpt lat="44.8956715" lon="5.3695955">
<ele>1061.18</ele>
<time>2019-07-25T13:55:26Z</time>
</trkpt>
<trkpt lat="44.8956703" lon="5.3695980">
<ele>1061.22</ele>
<time>2019-07-25T13:55:27Z</time>
</trkpt>
<trkpt lat="44.8956704" lon="5.3696040">
<ele>1061.26</ele>
<time>2019-07-25T13:55:28Z</time>
</trkpt>
<trkpt lat="44.8956737" lon="5.3696062">
<ele>1061.29</ele>
<time>2019-07-25T13:55:29Z</time>
</trkpt>
<trkpt lat="44.8956773" lon="5.3696111">
<ele>1061.32</ele>
<time>2019-07-25T13:55:30Z</time>
</trkpt>
<trkpt lat="44.8956797" lon="5.3696131">
<ele>1061.36</ele>
<time>2019-07-25T13:55:31Z</time>
</trkpt>
<trkpt lat="44.8956839" lon="5.3696122">
<ele>1061.38</ele>
<time>2019-07-25T13:55:32Z</time>
</trkpt>
<trkpt lat="44.8956843" lon="5.3696084">
<ele>1061.39</ele>
<time>2019-07-25T13:55:33Z</time>
</trkpt>
<trkpt lat="44.8956825" lon="5.3696063">
<ele>1061.39</ele>
<time>2019-07-25T13:55:34Z</time>
</trkpt>
<trkpt lat="44.8956820" lon="5.3696053">
<ele>1061.39</ele>
<time>2019-07-25T13:55:35Z</time>
</trkpt>
<trkpt lat="44.8956803" lon="5.3696059">
<ele>1061.40</ele>
<time>2019-07-25T13:55:36Z</time>
</trkpt>
<trkpt lat="44.8956814" lon="5.3696066">
<ele>1061.40</ele>
<time>2019-07-25T13:55:37Z</time>
</trkpt>
<trkpt lat="44.8956753" lon="5.3696059">
<ele>1061.41</ele>
<time>2019-07-25T13:55:38Z</time>
</trkpt>
<trkpt lat="44.8956719" lon="5.3696114">
<ele>1061.46</ele>
<time>2019-07-25T13:55:39Z</time>
</trkpt>
<trkpt lat="44.8956731" lon="5.3696089">
<ele>1061.52</ele>
<time>2019-07-25T13:55:40Z</time>
</trkpt>
<trkpt lat="44.8956706" lon="5.3696096">
<ele>1061.53</ele>
<time>2019-07-25T13:55:41Z</time>
</trkpt>
<trkpt lat="44.8956625" lon="5.3696132">
<ele>1061.54</ele>
<time>2019-07-25T13:55:42Z</time>
</trkpt>
<trkpt lat="44.8956621" lon="5.3696247">
<ele>1061.59</ele>
<time>2019-07-25T13:55:43Z</time>
</trkpt>
<trkpt lat="44.8956625" lon="5.3696273">
<ele>1061.64</ele>
<time>2019-07-25T13:55:44Z</time>
</trkpt>
<trkpt lat="44.8956647" lon="5.3696408">
<ele>1061.69</ele>
<time>2019-07-25T13:55:45Z</time>
</trkpt>
<trkpt lat="44.8956656" lon="5.3696420">
<ele>1061.74</ele>
<time>2019-07-25T13:55:46Z</time>
</trkpt>
<trkpt lat="44.8956670" lon="5.3696401">
<ele>1061.74</ele>
<time>2019-07-25T13:55:47Z</time>
</trkpt>
<trkpt lat="44.8956673" lon="5.3696410">
<ele>1061.75</ele>
<time>2019-07-25T13:55:48Z</time>
</trkpt>
<trkpt lat="44.8956676" lon="5.3696420">
<ele>1061.75</ele>
<time>2019-07-25T13:55:49Z</time>
</trkpt>
<trkpt lat="44.8956726" lon="5.3696571">
<ele>1061.76</ele>
<time>2019-07-25T13:55:50Z</time>
</trkpt>
<trkpt lat="44.8956723" lon="5.3696476">
<ele>1061.80</ele>
<time>2019-07-25T13:55:51Z</time>
</trkpt>
<trkpt lat="44.8956720" lon="5.3696481">
<ele>1061.83</ele>
<time>2019-07-25T13:55:52Z</time>
</trkpt>
<trkpt lat="44.8956734" lon="5.3696613">
<ele>1061.87</ele>
<time>2019-07-25T13:55:53Z</time>
</trkpt>
<trkpt lat="44.8956681" lon="5.3696792">
<ele>1061.90</ele>
<time>2019-07-25T13:55:54Z</time>
</trkpt>
<trkpt lat="44.8956646" lon="5.3696922">
<ele>1061.92</ele>
<time>2019-07-25T13:55:55Z</time>
</trkpt>
<trkpt lat="44.8956613" lon="5.3696975">
<ele>1061.94</ele>
<time>2019-07-25T13:55:56Z</time>
</trkpt>
<trkpt lat="44.8956544" lon="5.3697027">
<ele>1061.96</ele>
<time>2019-07-25T13:55:57Z</time>
</trkpt>
<trkpt lat="44.8956555" lon="5.3697232">
<ele>1061.98</ele>
<time>2019-07-25T13:55:58Z</time>
</trkpt>
<trkpt lat="44.8956525" lon="5.3697272">
<ele>1062.00</ele>
<time>2019-07-25T13:55:59Z</time>
</trkpt>
<trkpt lat="44.8956557" lon="5.3697224">
<ele>1062.01</ele>
<time>2019-07-25T13:56:00Z</time>
</trkpt>
<trkpt lat="44.8956602" lon="5.3697225">
<ele>1062.03</ele>
<time>2019-07-25T13:56:01Z</time>
</trkpt>
<trkpt lat="44.8956661" lon="5.3697296">
<ele>1062.04</ele>
<time>2019-07-25T13:56:02Z</time>
</trkpt>
<trkpt lat="44.8956685" lon="5.3697355">
<ele>1062.06</ele>
<time>2019-07-25T13:56:03Z</time>
</trkpt>
<trkpt lat="44.8956739" lon="5.3697436">
<ele>1062.07</ele>
<time>2019-07-25T13:56:04Z</time>
</trkpt>
<trkpt lat="44.8956755" lon="5.3697469">
<ele>1062.07</ele>
<time>2019-07-25T13:56:05Z</time>
</trkpt>
<trkpt lat="44.8956653" lon="5.3697325">
<ele>1062.07</ele>
<time>2019-07-25T13:56:06Z</time>
</trkpt>
<trkpt lat="44.8956603" lon="5.3697309">
<ele>1062.07</ele>
<time>2019-07-25T13:56:07Z</time>
</trkpt>
<trkpt lat="44.8956600" lon="5.3697310">
<ele>1062.07</ele>
<time>2019-07-25T13:56:08Z</time>
</trkpt>
<trkpt lat="44.8956647" lon="5.3697409">
<ele>1062.07</ele>
<time>2019-07-25T13:56:09Z</time>
</trkpt>
<trkpt lat="44.8956669" lon="5.3697452">
<ele>1062.07</ele>
<time>2019-07-25T13:56:10Z</time>
</trkpt>
<trkpt lat="44.8956606" lon="5.3697446">
<ele>1062.05</ele>
<time>2019-07-25T13:56:11Z</time>
</trkpt>
<trkpt lat="44.8956519" lon="5.3697440">
<ele>1062.05</ele>
<time>2019-07-25T13:56:12Z</time>
</trkpt>
<trkpt lat="44.8956499" lon="5.3697454">
<ele>1062.02</ele>
<time>2019-07-25T13:56:13Z</time>
</trkpt>
<trkpt lat="44.8956460" lon="5.3697417">
<ele>1061.99</ele>
<time>2019-07-25T13:56:14Z</time>
</trkpt>
<trkpt lat="44.8956465" lon="5.3697448">
<ele>1061.99</ele>
<time>2019-07-25T13:56:15Z</time>
</trkpt>
<trkpt lat="44.8956464" lon="5.3697453">
<ele>1061.99</ele>
<time>2019-07-25T13:56:16Z</time>
</trkpt>
<trkpt lat="44.8956471" lon="5.3697454">
<ele>1061.98</ele>
<time>2019-07-25T13:56:17Z</time>
</trkpt>
<trkpt lat="44.8956477" lon="5.3697470">
<ele>1061.98</ele>
<time>2019-07-25T13:56:18Z</time>
</trkpt>
<trkpt lat="44.8956453" lon="5.3697510">
<ele>1061.95</ele>
<time>2019-07-25T13:56:19Z</time>
</trkpt>
<trkpt lat="44.8956469" lon="5.3697542">
<ele>1061.95</ele>
<time>2019-07-25T13:56:20Z</time>
</trkpt>
<trkpt lat="44.8956473" lon="5.3697558">
<ele>1061.95</ele>
<time>2019-07-25T13:56:21Z</time>
</trkpt>
<trkpt lat="44.8956469" lon="5.3697550">
<ele>1061.94</ele>
<time>2019-07-25T13:56:22Z</time>
</trkpt>
<trkpt lat="44.8956460" lon="5.3697550">
<ele>1061.94</ele>
<time>2019-07-25T13:56:23Z</time>
</trkpt>
<trkpt lat="44.8956447" lon="5.3697549">
<ele>1061.94</ele>
<time>2019-07-25T13:56:24Z</time>
</trkpt>
<trkpt lat="44.8956439" lon="5.3697531">
<ele>1061.94</ele>
<time>2019-07-25T13:56:25Z</time>
</trkpt>
<trkpt lat="44.8956425" lon="5.3697545">
<ele>1061.91</ele>
<time>2019-07-25T13:56:26Z</time>
</trkpt>
<trkpt lat="44.8956398" lon="5.3697511">
<ele>1061.91</ele>
<time>2019-07-25T13:56:27Z</time>
</trkpt>
<trkpt lat="44.8956375" lon="5.3697470">
<ele>1061.89</ele>
<time>2019-07-25T13:56:28Z</time>
</trkpt>
<trkpt lat="44.8956361" lon="5.3697442">
<ele>1061.87</ele>
<time>2019-07-25T13:56:29Z</time>
</trkpt>
<trkpt lat="44.8956363" lon="5.3697457">
<ele>1061.87</ele>
<time>2019-07-25T13:56:30Z</time>
</trkpt>
<trkpt lat="44.8956351" lon="5.3697451">
<ele>1061.86</ele>
<time>2019-07-25T13:56:31Z</time>
</trkpt>
<trkpt lat="44.8956338" lon="5.3697437">
<ele>1061.85</ele>
<time>2019-07-25T13:56:32Z</time>
</trkpt>
<trkpt lat="44.8956343" lon="5.3697451">
<ele>1061.83</ele>
<time>2019-07-25T13:56:33Z</time>
</trkpt>
<trkpt lat="44.8956394" lon="5.3697495">
<ele>1061.83</ele>
<time>2019-07-25T13:56:34Z</time>
</trkpt>
<trkpt lat="44.8956401" lon="5.3697465">
<ele>1061.83</ele>
<time>2019-07-25T13:56:35Z</time>
</trkpt>
<trkpt lat="44.8956429" lon="5.3697430">
<ele>1061.82</ele>
<time>2019-07-25T13:56:36Z</time>
</trkpt>
<trkpt lat="44.8956424" lon="5.3697430">
<ele>1061.82</ele>
<time>2019-07-25T13:56:37Z</time>
</trkpt>
<trkpt lat="44.8956437" lon="5.3697515">
<ele>1061.83</ele>
<time>2019-07-25T13:56:38Z</time>
</trkpt>
<trkpt lat="44.8956439" lon="5.3697536">
<ele>1061.83</ele>
<time>2019-07-25T13:56:39Z</time>
</trkpt>
<trkpt lat="44.8956452" lon="5.3697567">
<ele>1061.83</ele>
<time>2019-07-25T13:56:40Z</time>
</trkpt>
<trkpt lat="44.8956457" lon="5.3697575">
<ele>1061.83</ele>
<time>2019-07-25T13:56:41Z</time>
</trkpt>
<trkpt lat="44.8956449" lon="5.3697488">
<ele>1061.83</ele>
<time>2019-07-25T13:56:42Z</time>
</trkpt>
<trkpt lat="44.8956452" lon="5.3697471">
<ele>1061.83</ele>
<time>2019-07-25T13:56:43Z</time>
</trkpt>
<trkpt lat="44.8956436" lon="5.3697379">
<ele>1061.83</ele>
<time>2019-07-25T13:56:44Z</time>
</trkpt>
<trkpt lat="44.8956373" lon="5.3697228">
<ele>1061.84</ele>
<time>2019-07-25T13:56:45Z</time>
</trkpt>
<trkpt lat="44.8956402" lon="5.3697227">
<ele>1061.84</ele>
<time>2019-07-25T13:56:46Z</time>
</trkpt>
<trkpt lat="44.8956447" lon="5.3697361">
<ele>1061.84</ele>
<time>2019-07-25T13:56:47Z</time>
</trkpt>
<trkpt lat="44.8956432" lon="5.3697314">
<ele>1061.85</ele>
<time>2019-07-25T13:56:48Z</time>
</trkpt>
<trkpt lat="44.8956454" lon="5.3697331">
<ele>1061.85</ele>
<time>2019-07-25T13:56:49Z</time>
</trkpt>
<trkpt lat="44.8956491" lon="5.3697321">
<ele>1061.86</ele>
<time>2019-07-25T13:56:50Z</time>
</trkpt>
<trkpt lat="44.8956472" lon="5.3697335">
<ele>1061.87</ele>
<time>2019-07-25T13:56:51Z</time>
</trkpt>
<trkpt lat="44.8956402" lon="5.3697276">
<ele>1061.87</ele>
<time>2019-07-25T13:56:52Z</time>
</trkpt>
<trkpt lat="44.8956361" lon="5.3697268">
<ele>1061.88</ele>
<time>2019-07-25T13:56:53Z</time>
</trkpt>
<trkpt lat="44.8956366" lon="5.3697280">
<ele>1061.88</ele>
<time>2019-07-25T13:56:54Z</time>
</trkpt>
<trkpt lat="44.8956368" lon="5.3697280">
<ele>1061.88</ele>
<time>2019-07-25T13:56:55Z</time>
</trkpt>
<trkpt lat="44.8956373" lon="5.3697289">
<ele>1061.88</ele>
<time>2019-07-25T13:56:56Z</time>
</trkpt>
<trkpt lat="44.8956391" lon="5.3697300">
<ele>1061.89</ele>
<time>2019-07-25T13:56:57Z</time>
</trkpt>
<trkpt lat="44.8956410" lon="5.3697343">
<ele>1061.89</ele>
<time>2019-07-25T13:56:58Z</time>
</trkpt>
<trkpt lat="44.8956465" lon="5.3697420">
<ele>1061.93</ele>
<time>2019-07-25T13:56:59Z</time>
</trkpt>
<trkpt lat="44.8956517" lon="5.3697533">
<ele>1061.97</ele>
<time>2019-07-25T13:57:00Z</time>
</trkpt>
<trkpt lat="44.8956483" lon="5.3697523">
<ele>1061.98</ele>
<time>2019-07-25T13:57:01Z</time>
</trkpt>
<trkpt lat="44.8956558" lon="5.3697623">
<ele>1062.02</ele>
<time>2019-07-25T13:57:02Z</time>
</trkpt>
<trkpt lat="44.8956637" lon="5.3697721">
<ele>1062.03</ele>
<time>2019-07-25T13:57:03Z</time>
</trkpt>
<trkpt lat="44.8956647" lon="5.3697739">
<ele>1062.03</ele>
<time>2019-07-25T13:57:04Z</time>
</trkpt>
<trkpt lat="44.8956618" lon="5.3697679">
<ele>1062.04</ele>
<time>2019-07-25T13:57:05Z</time>
</trkpt>
<trkpt lat="44.8956608" lon="5.3697623">
<ele>1062.04</ele>
<time>2019-07-25T13:57:06Z</time>
</trkpt>
<trkpt lat="44.8956529" lon="5.3697690">
<ele>1062.08</ele>
<time>2019-07-25T13:57:07Z</time>
</trkpt>
<trkpt lat="44.8956678" lon="5.3697657">
<ele>1062.11</ele>
<time>2019-07-25T13:57:08Z</time>
</trkpt>
<trkpt lat="44.8956756" lon="5.3697715">
<ele>1062.15</ele>
<time>2019-07-25T13:57:09Z</time>
</trkpt>
<trkpt lat="44.8956653" lon="5.3697774">
<ele>1062.15</ele>
<time>2019-07-25T13:57:10Z</time>
</trkpt>
<trkpt lat="44.8956626" lon="5.3697765">
<ele>1062.16</ele>
<time>2019-07-25T13:57:11Z</time>
</trkpt>
<trkpt lat="44.8956711" lon="5.3697796">
<ele>1062.16</ele>
<time>2019-07-25T13:57:12Z</time>
</trkpt>
<trkpt lat="44.8956700" lon="5.3697832">
<ele>1062.16</ele>
<time>2019-07-25T13:57:13Z</time>
</trkpt>
<trkpt lat="44.8956781" lon="5.3697887">
<ele>1062.17</ele>
<time>2019-07-25T13:57:14Z</time>
</trkpt>
<trkpt lat="44.8956783" lon="5.3697896">
<ele>1062.17</ele>
<time>2019-07-25T13:57:15Z</time>
</trkpt>
<trkpt lat="44.8956785" lon="5.3697898">
<ele>1062.17</ele>
<time>2019-07-25T13:57:16Z</time>
</trkpt>
<trkpt lat="44.8956786" lon="5.3697899">
<ele>1062.17</ele>
<time>2019-07-25T13:57:17Z</time>
</trkpt>
<trkpt lat="44.8956787" lon="5.3697903">
<ele>1062.18</ele>
<time>2019-07-25T13:57:18Z</time>
</trkpt>
<trkpt lat="44.8956791" lon="5.3697916">
<ele>1062.18</ele>
<time>2019-07-25T13:57:19Z</time>
</trkpt>
<trkpt lat="44.8956792" lon="5.3697975">
<ele>1062.18</ele>
<time>2019-07-25T13:57:20Z</time>
</trkpt>
<trkpt lat="44.8956816" lon="5.3698079">
<ele>1062.18</ele>
<time>2019-07-25T13:57:21Z</time>
</trkpt>
<trkpt lat="44.8956842" lon="5.3698071">
<ele>1062.18</ele>
<time>2019-07-25T13:57:22Z</time>
</trkpt>
<trkpt lat="44.8956846" lon="5.3698066">
<ele>1062.18</ele>
<time>2019-07-25T13:57:23Z</time>
</trkpt>
<trkpt lat="44.8956857" lon="5.3698081">
<ele>1062.18</ele>
<time>2019-07-25T13:57:24Z</time>
</trkpt>
<trkpt lat="44.8956868" lon="5.3698089">
<ele>1062.18</ele>
<time>2019-07-25T13:57:25Z</time>
</trkpt>
<trkpt lat="44.8956868" lon="5.3697996">
<ele>1062.19</ele>
<time>2019-07-25T13:57:26Z</time>
</trkpt>
<trkpt lat="44.8956851" lon="5.3697963">
<ele>1062.19</ele>
<time>2019-07-25T13:57:27Z</time>
</trkpt>
<trkpt lat="44.8956854" lon="5.3697910">
<ele>1062.19</ele>
<time>2019-07-25T13:57:28Z</time>
</trkpt>
<trkpt lat="44.8956871" lon="5.3697892">
<ele>1062.20</ele>
<time>2019-07-25T13:57:29Z</time>
</trkpt>
<trkpt lat="44.8956867" lon="5.3697891">
<ele>1062.20</ele>
<time>2019-07-25T13:57:30Z</time>
</trkpt>
<trkpt lat="44.8956868" lon="5.3697919">
<ele>1062.20</ele>
<time>2019-07-25T13:57:31Z</time>
</trkpt>
<trkpt lat="44.8956853" lon="5.3697845">
<ele>1062.20</ele>
<time>2019-07-25T13:57:32Z</time>
</trkpt>
<trkpt lat="44.8956886" lon="5.3697821">
<ele>1062.22</ele>
<time>2019-07-25T13:57:33Z</time>
</trkpt>
<trkpt lat="44.8956886" lon="5.3697830">
<ele>1062.22</ele>
<time>2019-07-25T13:57:34Z</time>
</trkpt>
<trkpt lat="44.8956887" lon="5.3697824">
<ele>1062.22</ele>
<time>2019-07-25T13:57:35Z</time>
</trkpt>
<trkpt lat="44.8956889" lon="5.3697823">
<ele>1062.23</ele>
<time>2019-07-25T13:57:36Z</time>
</trkpt>
<trkpt lat="44.8956892" lon="5.3697840">
<ele>1062.23</ele>
<time>2019-07-25T13:57:37Z</time>
</trkpt>
<trkpt lat="44.8956892" lon="5.3697842">
<ele>1062.23</ele>
<time>2019-07-25T13:57:38Z</time>
</trkpt>
<trkpt lat="44.8956898" lon="5.3697862">
<ele>1062.23</ele>
<time>2019-07-25T13:57:39Z</time>
</trkpt>
<trkpt lat="44.8956901" lon="5.3697843">
<ele>1062.24</ele>
<time>2019-07-25T13:57:40Z</time>
</trkpt>
<trkpt lat="44.8956886" lon="5.3697746">
<ele>1062.24</ele>
<time>2019-07-25T13:57:41Z</time>
</trkpt>
<trkpt lat="44.8956944" lon="5.3697888">
<ele>1062.27</ele>
<time>2019-07-25T13:57:42Z</time>
</trkpt>
<trkpt lat="44.8956910" lon="5.3697851">
<ele>1062.27</ele>
<time>2019-07-25T13:57:43Z</time>
</trkpt>
<trkpt lat="44.8956845" lon="5.3697817">
<ele>1062.27</ele>
<time>2019-07-25T13:57:44Z</time>
</trkpt>
<trkpt lat="44.8956866" lon="5.3697829">
<ele>1062.30</ele>
<time>2019-07-25T13:57:45Z</time>
</trkpt>
<trkpt lat="44.8956836" lon="5.3697816">
<ele>1062.32</ele>
<time>2019-07-25T13:57:46Z</time>
</trkpt>
<trkpt lat="44.8956802" lon="5.3697807">
<ele>1062.34</ele>
<time>2019-07-25T13:57:47Z</time>
</trkpt>
<trkpt lat="44.8956790" lon="5.3697742">
<ele>1062.37</ele>
<time>2019-07-25T13:57:48Z</time>
</trkpt>
<trkpt lat="44.8956735" lon="5.3697635">
<ele>1062.39</ele>
<time>2019-07-25T13:57:49Z</time>
</trkpt>
<trkpt lat="44.8956644" lon="5.3697623">
<ele>1062.42</ele>
<time>2019-07-25T13:57:50Z</time>
</trkpt>
<trkpt lat="44.8956522" lon="5.3697677">
<ele>1062.44</ele>
<time>2019-07-25T13:57:51Z</time>
</trkpt>
<trkpt lat="44.8956521" lon="5.3697649">
<ele>1062.46</ele>
<time>2019-07-25T13:57:52Z</time>
</trkpt>
<trkpt lat="44.8956472" lon="5.3697696">
<ele>1062.48</ele>
<time>2019-07-25T13:57:53Z</time>
</trkpt>
<trkpt lat="44.8956383" lon="5.3697697">
<ele>1062.50</ele>
<time>2019-07-25T13:57:54Z</time>
</trkpt>
<trkpt lat="44.8956325" lon="5.3697689">
<ele>1062.51</ele>
<time>2019-07-25T13:57:55Z</time>
</trkpt>
<trkpt lat="44.8956266" lon="5.3697744">
<ele>1062.52</ele>
<time>2019-07-25T13:57:56Z</time>
</trkpt>
<trkpt lat="44.8956155" lon="5.3697814">
<ele>1062.53</ele>
<time>2019-07-25T13:57:57Z</time>
</trkpt>
<trkpt lat="44.8956040" lon="5.3697882">
<ele>1062.53</ele>
<time>2019-07-25T13:57:58Z</time>
</trkpt>
<trkpt lat="44.8955926" lon="5.3697974">
<ele>1062.53</ele>
<time>2019-07-25T13:57:59Z</time>
</trkpt>
<trkpt lat="44.8955898" lon="5.3698002">
<ele>1062.53</ele>
<time>2019-07-25T13:58:00Z</time>
</trkpt>
<trkpt lat="44.8955835" lon="5.3698050">
<ele>1062.52</ele>
<time>2019-07-25T13:58:01Z</time>
</trkpt>
<trkpt lat="44.8955723" lon="5.3698146">
<ele>1062.52</ele>
<time>2019-07-25T13:58:02Z</time>
</trkpt>
<trkpt lat="44.8955608" lon="5.3698199">
<ele>1062.52</ele>
<time>2019-07-25T13:58:03Z</time>
</trkpt>
<trkpt lat="44.8955526" lon="5.3698228">
<ele>1062.51</ele>
<time>2019-07-25T13:58:04Z</time>
</trkpt>
<trkpt lat="44.8955466" lon="5.3698271">
<ele>1062.50</ele>
<time>2019-07-25T13:58:05Z</time>
</trkpt>
<trkpt lat="44.8955400" lon="5.3698320">
<ele>1062.50</ele>
<time>2019-07-25T13:58:06Z</time>
</trkpt>
<trkpt lat="44.8955254" lon="5.3698431">
<ele>1062.49</ele>
<time>2019-07-25T13:58:07Z</time>
</trkpt>
<trkpt lat="44.8955216" lon="5.3698485">
<ele>1062.48</ele>
<time>2019-07-25T13:58:08Z</time>
</trkpt>
<trkpt lat="44.8955150" lon="5.3698581">
<ele>1062.46</ele>
<time>2019-07-25T13:58:09Z</time>
</trkpt>
<trkpt lat="44.8955092" lon="5.3698683">
<ele>1062.44</ele>
<time>2019-07-25T13:58:10Z</time>
</trkpt>
<trkpt lat="44.8955047" lon="5.3698806">
<ele>1062.42</ele>
<time>2019-07-25T13:58:11Z</time>
</trkpt>
<trkpt lat="44.8955067" lon="5.3698813">
<ele>1062.39</ele>
<time>2019-07-25T13:58:12Z</time>
</trkpt>
<trkpt lat="44.8955042" lon="5.3698909">
<ele>1062.35</ele>
<time>2019-07-25T13:58:13Z</time>
</trkpt>
<trkpt lat="44.8954997" lon="5.3698997">
<ele>1062.32</ele>
<time>2019-07-25T13:58:14Z</time>
</trkpt>
<trkpt lat="44.8954936" lon="5.3699040">
<ele>1062.28</ele>
<time>2019-07-25T13:58:15Z</time>
</trkpt>
<trkpt lat="44.8954861" lon="5.3699009">
<ele>1062.24</ele>
<time>2019-07-25T13:58:16Z</time>
</trkpt>
<trkpt lat="44.8954830" lon="5.3698986">
<ele>1062.24</ele>
<time>2019-07-25T13:58:17Z</time>
</trkpt>
<trkpt lat="44.8954837" lon="5.3698975">
<ele>1062.23</ele>
<time>2019-07-25T13:58:18Z</time>
</trkpt>
<trkpt lat="44.8954826" lon="5.3699004">
<ele>1062.23</ele>
<time>2019-07-25T13:58:19Z</time>
</trkpt>
<trkpt lat="44.8954827" lon="5.3699009">
<ele>1062.22</ele>
<time>2019-07-25T13:58:20Z</time>
</trkpt>
<trkpt lat="44.8954828" lon="5.3699007">
<ele>1062.21</ele>
<time>2019-07-25T13:58:21Z</time>
</trkpt>
<trkpt lat="44.8954827" lon="5.3699003">
<ele>1062.21</ele>
<time>2019-07-25T13:58:22Z</time>
</trkpt>
<trkpt lat="44.8954844" lon="5.3699001">
<ele>1062.20</ele>
<time>2019-07-25T13:58:23Z</time>
</trkpt>
<trkpt lat="44.8954787" lon="5.3699057">
<ele>1062.20</ele>
<time>2019-07-25T13:58:24Z</time>
</trkpt>
<trkpt lat="44.8954704" lon="5.3699162">
<ele>1062.13</ele>
<time>2019-07-25T13:58:25Z</time>
</trkpt>
<trkpt lat="44.8954700" lon="5.3699178">
<ele>1062.12</ele>
<time>2019-07-25T13:58:26Z</time>
</trkpt>
<trkpt lat="44.8954702" lon="5.3699173">
<ele>1062.11</ele>
<time>2019-07-25T13:58:27Z</time>
</trkpt>
<trkpt lat="44.8954713" lon="5.3699167">
<ele>1062.11</ele>
<time>2019-07-25T13:58:28Z</time>
</trkpt>
<trkpt lat="44.8954717" lon="5.3699155">
<ele>1062.10</ele>
<time>2019-07-25T13:58:29Z</time>
</trkpt>
<trkpt lat="44.8954706" lon="5.3699175">
<ele>1062.09</ele>
<time>2019-07-25T13:58:30Z</time>
</trkpt>
<trkpt lat="44.8954698" lon="5.3699191">
<ele>1062.09</ele>
<time>2019-07-25T13:58:31Z</time>
</trkpt>
<trkpt lat="44.8954696" lon="5.3699195">
<ele>1062.08</ele>
<time>2019-07-25T13:58:32Z</time>
</trkpt>
<trkpt lat="44.8954690" lon="5.3699202">
<ele>1062.07</ele>
<time>2019-07-25T13:58:33Z</time>
</trkpt>
<trkpt lat="44.8954689" lon="5.3699210">
<ele>1062.06</ele>
<time>2019-07-25T13:58:34Z</time>
</trkpt>
<trkpt lat="44.8954684" lon="5.3699212">
<ele>1062.06</ele>
<time>2019-07-25T13:58:35Z</time>
</trkpt>
<trkpt lat="44.8954662" lon="5.3699218">
<ele>1062.05</ele>
<time>2019-07-25T13:58:36Z</time>
</trkpt>
<trkpt lat="44.8954661" lon="5.3699213">
<ele>1062.04</ele>
<time>2019-07-25T13:58:37Z</time>
</trkpt>
<trkpt lat="44.8954661" lon="5.3699206">
<ele>1062.03</ele>
<time>2019-07-25T13:58:38Z</time>
</trkpt>
<trkpt lat="44.8954656" lon="5.3699203">
<ele>1062.02</ele>
<time>2019-07-25T13:58:39Z</time>
</trkpt>
<trkpt lat="44.8954656" lon="5.3699172">
<ele>1062.02</ele>
<time>2019-07-25T13:58:40Z</time>
</trkpt>
<trkpt lat="44.8954656" lon="5.3699169">
<ele>1062.01</ele>
<time>2019-07-25T13:58:41Z</time>
</trkpt>
<trkpt lat="44.8954652" lon="5.3699157">
<ele>1062.01</ele>
<time>2019-07-25T13:58:42Z</time>
</trkpt>
<trkpt lat="44.8954652" lon="5.3699154">
<ele>1062.00</ele>
<time>2019-07-25T13:58:43Z</time>
</trkpt>
<trkpt lat="44.8954650" lon="5.3699148">
<ele>1061.99</ele>
<time>2019-07-25T13:58:44Z</time>
</trkpt>
<trkpt lat="44.8954651" lon="5.3699143">
<ele>1061.99</ele>
<time>2019-07-25T13:58:45Z</time>
</trkpt>
<trkpt lat="44.8954652" lon="5.3699142">
<ele>1061.98</ele>
<time>2019-07-25T13:58:46Z</time>
</trkpt>
<trkpt lat="44.8954656" lon="5.3699135">
<ele>1061.98</ele>
<time>2019-07-25T13:58:47Z</time>
</trkpt>
<trkpt lat="44.8954661" lon="5.3699120">
<ele>1061.97</ele>
<time>2019-07-25T13:58:48Z</time>
</trkpt>
<trkpt lat="44.8954657" lon="5.3699102">
<ele>1061.97</ele>
<time>2019-07-25T13:58:49Z</time>
</trkpt>
<trkpt lat="44.8954656" lon="5.3699101">
<ele>1061.96</ele>
<time>2019-07-25T13:58:50Z</time>
</trkpt>
<trkpt lat="44.8954657" lon="5.3699099">
<ele>1061.95</ele>
<time>2019-07-25T13:58:51Z</time>
</trkpt>
<trkpt lat="44.8954659" lon="5.3699096">
<ele>1061.95</ele>
<time>2019-07-25T13:58:52Z</time>
</trkpt>
<trkpt lat="44.8954661" lon="5.3699091">
<ele>1061.94</ele>
<time>2019-07-25T13:58:53Z</time>
</trkpt>
<trkpt lat="44.8954661" lon="5.3699090">
<ele>1061.94</ele>
<time>2019-07-25T13:58:54Z</time>
</trkpt>
<trkpt lat="44.8954662" lon="5.3699090">
<ele>1061.93</ele>
<time>2019-07-25T13:58:55Z</time>
</trkpt>
<trkpt lat="44.8954663" lon="5.3699089">
<ele>1061.93</ele>
<time>2019-07-25T13:58:56Z</time>
</trkpt>
<trkpt lat="44.8954665" lon="5.3699087">
<ele>1061.93</ele>
<time>2019-07-25T13:58:57Z</time>
</trkpt>
<trkpt lat="44.8954664" lon="5.3699088">
<ele>1061.92</ele>
<time>2019-07-25T13:58:58Z</time>
</trkpt>
<trkpt lat="44.8954662" lon="5.3699089">
<ele>1061.92</ele>
<time>2019-07-25T13:58:59Z</time>
</trkpt>
<trkpt lat="44.8954667" lon="5.3699080">
<ele>1061.92</ele>
<time>2019-07-25T13:59:00Z</time>
</trkpt>
<trkpt lat="44.8954663" lon="5.3699085">
<ele>1061.91</ele>
<time>2019-07-25T13:59:01Z</time>
</trkpt>
<trkpt lat="44.8954732" lon="5.3699052">
<ele>1061.89</ele>
<time>2019-07-25T13:59:02Z</time>
</trkpt>
<trkpt lat="44.8954849" lon="5.3699030">
<ele>1061.86</ele>
<time>2019-07-25T13:59:03Z</time>
</trkpt>
<trkpt lat="44.8955008" lon="5.3699029">
<ele>1061.84</ele>
<time>2019-07-25T13:59:04Z</time>
</trkpt>
<trkpt lat="44.8954979" lon="5.3699040">
<ele>1061.84</ele>
<time>2019-07-25T13:59:05Z</time>
</trkpt>
<trkpt lat="44.8954977" lon="5.3699042">
<ele>1061.83</ele>
<time>2019-07-25T13:59:06Z</time>
</trkpt>
<trkpt lat="44.8954979" lon="5.3699038">
<ele>1061.83</ele>
<time>2019-07-25T13:59:07Z</time>
</trkpt>
<trkpt lat="44.8954980" lon="5.3699040">
<ele>1061.83</ele>
<time>2019-07-25T13:59:08Z</time>
</trkpt>
<trkpt lat="44.8954987" lon="5.3699037">
<ele>1061.83</ele>
<time>2019-07-25T13:59:09Z</time>
</trkpt>
<trkpt lat="44.8955030" lon="5.3699028">
<ele>1061.83</ele>
<time>2019-07-25T13:59:10Z</time>
</trkpt>
<trkpt lat="44.8955039" lon="5.3699024">
<ele>1061.83</ele>
<time>2019-07-25T13:59:11Z</time>
</trkpt>
<trkpt lat="44.8955044" lon="5.3699019">
<ele>1061.83</ele>
<time>2019-07-25T13:59:12Z</time>
</trkpt>
<trkpt lat="44.8955039" lon="5.3699027">
<ele>1061.83</ele>
<time>2019-07-25T13:59:13Z</time>
</trkpt>
<trkpt lat="44.8955021" lon="5.3699035">
<ele>1061.83</ele>
<time>2019-07-25T13:59:14Z</time>
</trkpt>
<trkpt lat="44.8955016" lon="5.3699049">
<ele>1061.83</ele>
<time>2019-07-25T13:59:15Z</time>
</trkpt>
<trkpt lat="44.8954995" lon="5.3699043">
<ele>1061.83</ele>
<time>2019-07-25T13:59:16Z</time>
</trkpt>
<trkpt lat="44.8954979" lon="5.3699036">
<ele>1061.83</ele>
<time>2019-07-25T13:59:17Z</time>
</trkpt>
<trkpt lat="44.8954980" lon="5.3699036">
<ele>1061.84</ele>
<time>2019-07-25T13:59:18Z</time>
</trkpt>
<trkpt lat="44.8954978" lon="5.3699040">
<ele>1061.84</ele>
<time>2019-07-25T13:59:19Z</time>
</trkpt>
<trkpt lat="44.8954997" lon="5.3699055">
<ele>1061.84</ele>
<time>2019-07-25T13:59:20Z</time>
</trkpt>
<trkpt lat="44.8955012" lon="5.3699040">
<ele>1061.85</ele>
<time>2019-07-25T13:59:21Z</time>
</trkpt>
<trkpt lat="44.8955119" lon="5.3698842">
<ele>1061.86</ele>
<time>2019-07-25T13:59:22Z</time>
</trkpt>
<trkpt lat="44.8955179" lon="5.3698651">
<ele>1061.87</ele>
<time>2019-07-25T13:59:23Z</time>
</trkpt>
<trkpt lat="44.8955148" lon="5.3698472">
<ele>1061.88</ele>
<time>2019-07-25T13:59:24Z</time>
</trkpt>
<trkpt lat="44.8954987" lon="5.3698386">
<ele>1061.88</ele>
<time>2019-07-25T13:59:25Z</time>
</trkpt>
<trkpt lat="44.8954830" lon="5.3698398">
<ele>1061.88</ele>
<time>2019-07-25T13:59:26Z</time>
</trkpt>
<trkpt lat="44.8954623" lon="5.3698378">
<ele>1061.88</ele>
<time>2019-07-25T13:59:27Z</time>
</trkpt>
<trkpt lat="44.8954450" lon="5.3698349">
<ele>1061.87</ele>
<time>2019-07-25T13:59:28Z</time>
</trkpt>
<trkpt lat="44.8954237" lon="5.3698383">
<ele>1061.86</ele>
<time>2019-07-25T13:59:29Z</time>
</trkpt>
<trkpt lat="44.8954021" lon="5.3698573">
<ele>1061.85</ele>
<time>2019-07-25T13:59:30Z</time>
</trkpt>
<trkpt lat="44.8953860" lon="5.3698818">
<ele>1061.83</ele>
<time>2019-07-25T13:59:31Z</time>
</trkpt>
<trkpt lat="44.8953781" lon="5.3699174">
<ele>1061.81</ele>
<time>2019-07-25T13:59:32Z</time>
</trkpt>
<trkpt lat="44.8953742" lon="5.3699569">
<ele>1061.80</ele>
<time>2019-07-25T13:59:33Z</time>
</trkpt>
<trkpt lat="44.8953747" lon="5.3700108">
<ele>1061.78</ele>
<time>2019-07-25T13:59:34Z</time>
</trkpt>
<trkpt lat="44.8953792" lon="5.3700668">
<ele>1061.77</ele>
<time>2019-07-25T13:59:35Z</time>
</trkpt>
<trkpt lat="44.8953827" lon="5.3701197">
<ele>1061.75</ele>
<time>2019-07-25T13:59:36Z</time>
</trkpt>
<trkpt lat="44.8953874" lon="5.3701783">
<ele>1061.73</ele>
<time>2019-07-25T13:59:37Z</time>
</trkpt>
<trkpt lat="44.8953910" lon="5.3702178">
<ele>1061.72</ele>
<time>2019-07-25T13:59:38Z</time>
</trkpt>
<trkpt lat="44.8953938" lon="5.3702609">
<ele>1061.70</ele>
<time>2019-07-25T13:59:39Z</time>
</trkpt>
<trkpt lat="44.8953963" lon="5.3702948">
<ele>1061.69</ele>
<time>2019-07-25T13:59:40Z</time>
</trkpt>
<trkpt lat="44.8953988" lon="5.3703309">
<ele>1061.67</ele>
<time>2019-07-25T13:59:41Z</time>
</trkpt>
<trkpt lat="44.8954021" lon="5.3703667">
<ele>1061.66</ele>
<time>2019-07-25T13:59:42Z</time>
</trkpt>
<trkpt lat="44.8954056" lon="5.3704043">
<ele>1061.64</ele>
<time>2019-07-25T13:59:43Z</time>
</trkpt>
<trkpt lat="44.8954085" lon="5.3704258">
<ele>1061.62</ele>
<time>2019-07-25T13:59:44Z</time>
</trkpt>
<trkpt lat="44.8954099" lon="5.3704288">
<ele>1061.62</ele>
<time>2019-07-25T13:59:45Z</time>
</trkpt>
<trkpt lat="44.8954092" lon="5.3704376">
<ele>1061.61</ele>
<time>2019-07-25T13:59:46Z</time>
</trkpt>
<trkpt lat="44.8954101" lon="5.3704179">
<ele>1061.59</ele>
<time>2019-07-25T13:59:47Z</time>
</trkpt>
<trkpt lat="44.8954084" lon="5.3704187">
<ele>1061.56</ele>
<time>2019-07-25T13:59:48Z</time>
</trkpt>
<trkpt lat="44.8954168" lon="5.3704153">
<ele>1061.56</ele>
<time>2019-07-25T13:59:49Z</time>
</trkpt>
<trkpt lat="44.8954174" lon="5.3704155">
<ele>1061.55</ele>
<time>2019-07-25T13:59:50Z</time>
</trkpt>
<trkpt lat="44.8954177" lon="5.3704161">
<ele>1061.55</ele>
<time>2019-07-25T13:59:51Z</time>
</trkpt>
<trkpt lat="44.8954176" lon="5.3704183">
<ele>1061.55</ele>
<time>2019-07-25T13:59:52Z</time>
</trkpt>
<trkpt lat="44.8954177" lon="5.3704183">
<ele>1061.54</ele>
<time>2019-07-25T13:59:53Z</time>
</trkpt>
<trkpt lat="44.8954175" lon="5.3704183">
<ele>1061.54</ele>
<time>2019-07-25T13:59:54Z</time>
</trkpt>
<trkpt lat="44.8954171" lon="5.3704190">
<ele>1061.53</ele>
<time>2019-07-25T13:59:55Z</time>
</trkpt>
<trkpt lat="44.8954179" lon="5.3704206">
<ele>1061.53</ele>
<time>2019-07-25T13:59:56Z</time>
</trkpt>
<trkpt lat="44.8954175" lon="5.3704216">
<ele>1061.52</ele>
<time>2019-07-25T13:59:57Z</time>
</trkpt>
<trkpt lat="44.8954172" lon="5.3704222">
<ele>1061.52</ele>
<time>2019-07-25T13:59:58Z</time>
</trkpt>
<trkpt lat="44.8954170" lon="5.3704222">
<ele>1061.51</ele>
<time>2019-07-25T13:59:59Z</time>
</trkpt>
<trkpt lat="44.8954165" lon="5.3704224">
<ele>1061.50</ele>
<time>2019-07-25T14:00:00Z</time>
</trkpt>
<trkpt lat="44.8954167" lon="5.3704210">
<ele>1061.49</ele>
<time>2019-07-25T14:00:01Z</time>
</trkpt>
<trkpt lat="44.8954167" lon="5.3704209">
<ele>1061.48</ele>
<time>2019-07-25T14:00:02Z</time>
</trkpt>
<trkpt lat="44.8954163" lon="5.3704215">
<ele>1061.47</ele>
<time>2019-07-25T14:00:03Z</time>
</trkpt>
<trkpt lat="44.8954158" lon="5.3704214">
<ele>1061.46</ele>
<time>2019-07-25T14:00:04Z</time>
</trkpt>
<trkpt lat="44.8954158" lon="5.3704214">
<ele>1061.45</ele>
<time>2019-07-25T14:00:05Z</time>
</trkpt>
<trkpt lat="44.8954160" lon="5.3704213">
<ele>1061.44</ele>
<time>2019-07-25T14:00:06Z</time>
</trkpt>
<trkpt lat="44.8954159" lon="5.3704211">
<ele>1061.43</ele>
<time>2019-07-25T14:00:07Z</time>
</trkpt>
<trkpt lat="44.8954159" lon="5.3704207">
<ele>1061.42</ele>
<time>2019-07-25T14:00:08Z</time>
</trkpt>
<trkpt lat="44.8954159" lon="5.3704205">
<ele>1061.41</ele>
<time>2019-07-25T14:00:09Z</time>
</trkpt>
<trkpt lat="44.8954158" lon="5.3704214">
<ele>1061.40</ele>
<time>2019-07-25T14:00:10Z</time>
</trkpt>
<trkpt lat="44.8954147" lon="5.3704216">
<ele>1061.39</ele>
<time>2019-07-25T14:00:11Z</time>
</trkpt>
<trkpt lat="44.8954147" lon="5.3704313">
<ele>1061.28</ele>
<time>2019-07-25T14:00:12Z</time>
</trkpt>
<trkpt lat="44.8954116" lon="5.3704502">
<ele>1061.17</ele>
<time>2019-07-25T14:00:13Z</time>
</trkpt>
<trkpt lat="44.8954074" lon="5.3704723">
<ele>1061.07</ele>
<time>2019-07-25T14:00:14Z</time>
</trkpt>
<trkpt lat="44.8954036" lon="5.3705056">
<ele>1060.96</ele>
<time>2019-07-25T14:00:15Z</time>
</trkpt>
<trkpt lat="44.8954009" lon="5.3705406">
<ele>1060.86</ele>
<time>2019-07-25T14:00:16Z</time>
</trkpt>
<trkpt lat="44.8953939" lon="5.3705816">
<ele>1060.75</ele>
<time>2019-07-25T14:00:17Z</time>
</trkpt>
<trkpt lat="44.8953831" lon="5.3706194">
<ele>1060.65</ele>
<time>2019-07-25T14:00:18Z</time>
</trkpt>
<trkpt lat="44.8953671" lon="5.3706527">
<ele>1060.54</ele>
<time>2019-07-25T14:00:19Z</time>
</trkpt>
<trkpt lat="44.8953531" lon="5.3706868">
<ele>1060.44</ele>
<time>2019-07-25T14:00:20Z</time>
</trkpt>
<trkpt lat="44.8953436" lon="5.3707185">
<ele>1060.34</ele>
<time>2019-07-25T14:00:21Z</time>
</trkpt>
<trkpt lat="44.8953329" lon="5.3707465">
<ele>1060.24</ele>
<time>2019-07-25T14:00:22Z</time>
</trkpt>
<trkpt lat="44.8953176" lon="5.3707804">
<ele>1060.14</ele>
<time>2019-07-25T14:00:23Z</time>
</trkpt>
<trkpt lat="44.8953040" lon="5.3708139">
<ele>1060.04</ele>
<time>2019-07-25T14:00:24Z</time>
</trkpt>
<trkpt lat="44.8952913" lon="5.3708437">
<ele>1059.94</ele>
<time>2019-07-25T14:00:25Z</time>
</trkpt>
<trkpt lat="44.8952789" lon="5.3708765">
<ele>1059.85</ele>
<time>2019-07-25T14:00:26Z</time>
</trkpt>
<trkpt lat="44.8952678" lon="5.3709062">
<ele>1059.75</ele>
<time>2019-07-25T14:00:27Z</time>
</trkpt>
<trkpt lat="44.8952530" lon="5.3709428">
<ele>1059.66</ele>
<time>2019-07-25T14:00:28Z</time>
</trkpt>
<trkpt lat="44.8952398" lon="5.3709765">
<ele>1059.57</ele>
<time>2019-07-25T14:00:29Z</time>
</trkpt>
<trkpt lat="44.8952258" lon="5.3710136">
<ele>1059.47</ele>
<time>2019-07-25T14:00:30Z</time>
</trkpt>
<trkpt lat="44.8952127" lon="5.3710457">
<ele>1059.37</ele>
<time>2019-07-25T14:00:31Z</time>
</trkpt>
<trkpt lat="44.8951986" lon="5.3710811">
<ele>1059.27</ele>
<time>2019-07-25T14:00:32Z</time>
</trkpt>
<trkpt lat="44.8951825" lon="5.3711154">
<ele>1059.17</ele>
<time>2019-07-25T14:00:33Z</time>
</trkpt>
<trkpt lat="44.8951644" lon="5.3711521">
<ele>1059.08</ele>
<time>2019-07-25T14:00:34Z</time>
</trkpt>
<trkpt lat="44.8951479" lon="5.3711856">
<ele>1058.98</ele>
<time>2019-07-25T14:00:35Z</time>
</trkpt>
<trkpt lat="44.8951315" lon="5.3712114">
<ele>1058.90</ele>
<time>2019-07-25T14:00:36Z</time>
</trkpt>
<trkpt lat="44.8951187" lon="5.3712277">
<ele>1058.81</ele>
<time>2019-07-25T14:00:37Z</time>
</trkpt>
<trkpt lat="44.8951049" lon="5.3712482">
<ele>1058.73</ele>
<time>2019-07-25T14:00:38Z</time>
</trkpt>
<trkpt lat="44.8950954" lon="5.3712655">
<ele>1058.65</ele>
<time>2019-07-25T14:00:39Z</time>
</trkpt>
<trkpt lat="44.8950929" lon="5.3712828">
<ele>1058.58</ele>
<time>2019-07-25T14:00:40Z</time>
</trkpt>
<trkpt lat="44.8950982" lon="5.3712994">
<ele>1058.50</ele>
<time>2019-07-25T14:00:41Z</time>
</trkpt>
<trkpt lat="44.8951121" lon="5.3712981">
<ele>1058.42</ele>
<time>2019-07-25T14:00:42Z</time>
</trkpt>
<trkpt lat="44.8951250" lon="5.3712776">
<ele>1058.34</ele>
<time>2019-07-25T14:00:43Z</time>
</trkpt>
<trkpt lat="44.8951375" lon="5.3712452">
<ele>1058.27</ele>
<time>2019-07-25T14:00:44Z</time>
</trkpt>
<trkpt lat="44.8951438" lon="5.3712217">
<ele>1058.20</ele>
<time>2019-07-25T14:00:45Z</time>
</trkpt>
<trkpt lat="44.8951513" lon="5.3711907">
<ele>1058.14</ele>
<time>2019-07-25T14:00:46Z</time>
</trkpt>
<trkpt lat="44.8951669" lon="5.3711557">
<ele>1058.08</ele>
<time>2019-07-25T14:00:47Z</time>
</trkpt>
<trkpt lat="44.8951844" lon="5.3711190">
<ele>1058.03</ele>
<time>2019-07-25T14:00:48Z</time>
</trkpt>
<trkpt lat="44.8951982" lon="5.3710826">
<ele>1057.98</ele>
<time>2019-07-25T14:00:49Z</time>
</trkpt>
<trkpt lat="44.8952099" lon="5.3710348">
<ele>1057.93</ele>
<time>2019-07-25T14:00:50Z</time>
</trkpt>
<trkpt lat="44.8952256" lon="5.3709968">
<ele>1057.88</ele>
<time>2019-07-25T14:00:51Z</time>
</trkpt>
<trkpt lat="44.8952316" lon="5.3709735">
<ele>1057.85</ele>
<time>2019-07-25T14:00:52Z</time>
</trkpt>
<trkpt lat="44.8952423" lon="5.3709552">
<ele>1057.82</ele>
<time>2019-07-25T14:00:53Z</time>
</trkpt>
<trkpt lat="44.8952574" lon="5.3709382">
<ele>1057.79</ele>
<time>2019-07-25T14:00:54Z</time>
</trkpt>
<trkpt lat="44.8952649" lon="5.3709140">
<ele>1057.77</ele>
<time>2019-07-25T14:00:55Z</time>
</trkpt>
<trkpt lat="44.8952653" lon="5.3708875">
<ele>1057.75</ele>
<time>2019-07-25T14:00:56Z</time>
</trkpt>
<trkpt lat="44.8952618" lon="5.3708537">
<ele>1057.74</ele>
<time>2019-07-25T14:00:57Z</time>
</trkpt>
<trkpt lat="44.8952601" lon="5.3708209">
<ele>1057.73</ele>
<time>2019-07-25T14:00:58Z</time>
</trkpt>
<trkpt lat="44.8952487" lon="5.3707940">
<ele>1057.71</ele>
<time>2019-07-25T14:00:59Z</time>
</trkpt>
<trkpt lat="44.8952384" lon="5.3707736">
<ele>1057.71</ele>
<time>2019-07-25T14:01:00Z</time>
</trkpt>
<trkpt lat="44.8952336" lon="5.3707622">
<ele>1057.70</ele>
<time>2019-07-25T14:01:01Z</time>
</trkpt>
<trkpt lat="44.8952148" lon="5.3707449">
<ele>1057.70</ele>
<time>2019-07-25T14:01:02Z</time>
</trkpt>
<trkpt lat="44.8951854" lon="5.3707313">
<ele>1057.69</ele>
<time>2019-07-25T14:01:03Z</time>
</trkpt>
<trkpt lat="44.8951586" lon="5.3707341">
<ele>1057.68</ele>
<time>2019-07-25T14:01:04Z</time>
</trkpt>
<trkpt lat="44.8951360" lon="5.3707377">
<ele>1057.67</ele>
<time>2019-07-25T14:01:05Z</time>
</trkpt>
<trkpt lat="44.8951123" lon="5.3707417">
<ele>1057.67</ele>
<time>2019-07-25T14:01:06Z</time>
</trkpt>
<trkpt lat="44.8950893" lon="5.3707429">
<ele>1057.66</ele>
<time>2019-07-25T14:01:07Z</time>
</trkpt>
<trkpt lat="44.8950730" lon="5.3707329">
<ele>1057.65</ele>
<time>2019-07-25T14:01:08Z</time>
</trkpt>
<trkpt lat="44.8950495" lon="5.3707286">
<ele>1057.65</ele>
<time>2019-07-25T14:01:09Z</time>
</trkpt>
<trkpt lat="44.8950316" lon="5.3707326">
<ele>1057.64</ele>
<time>2019-07-25T14:01:10Z</time>
</trkpt>
<trkpt lat="44.8950101" lon="5.3707388">
<ele>1057.64</ele>
<time>2019-07-25T14:01:11Z</time>
</trkpt>
<trkpt lat="44.8949875" lon="5.3707439">
<ele>1057.64</ele>
<time>2019-07-25T14:01:12Z</time>
</trkpt>
<trkpt lat="44.8949638" lon="5.3707492">
<ele>1057.65</ele>
<time>2019-07-25T14:01:13Z</time>
</trkpt>
<trkpt lat="44.8949383" lon="5.3707537">
<ele>1057.65</ele>
<time>2019-07-25T14:01:14Z</time>
</trkpt>
<trkpt lat="44.8949067" lon="5.3707522">
<ele>1057.65</ele>
<time>2019-07-25T14:01:15Z</time>
</trkpt>
<trkpt lat="44.8948726" lon="5.3707551">
<ele>1057.65</ele>
<time>2019-07-25T14:01:16Z</time>
</trkpt>
<trkpt lat="44.8948381" lon="5.3707594">
<ele>1057.68</ele>
<time>2019-07-25T14:01:17Z</time>
</trkpt>
<trkpt lat="44.8948027" lon="5.3707590">
<ele>1057.69</ele>
<time>2019-07-25T14:01:18Z</time>
</trkpt>
<trkpt lat="44.8947689" lon="5.3707626">
<ele>1057.69</ele>
<time>2019-07-25T14:01:19Z</time>
</trkpt>
<trkpt lat="44.8947325" lon="5.3707665">
<ele>1057.69</ele>
<time>2019-07-25T14:01:20Z</time>
</trkpt>
<trkpt lat="44.8947010" lon="5.3707620">
<ele>1057.69</ele>
<time>2019-07-25T14:01:21Z</time>
</trkpt>
<trkpt lat="44.8946685" lon="5.3707627">
<ele>1057.68</ele>
<time>2019-07-25T14:01:22Z</time>
</trkpt>
<trkpt lat="44.8946348" lon="5.3707609">
<ele>1057.68</ele>
<time>2019-07-25T14:01:23Z</time>
</trkpt>
<trkpt lat="44.8946055" lon="5.3707673">
<ele>1057.67</ele>
<time>2019-07-25T14:01:24Z</time>
</trkpt>
<trkpt lat="44.8945759" lon="5.3707744">
<ele>1057.67</ele>
<time>2019-07-25T14:01:25Z</time>
</trkpt>
<trkpt lat="44.8945492" lon="5.3707798">
<ele>1057.66</ele>
<time>2019-07-25T14:01:26Z</time>
</trkpt>
<trkpt lat="44.8945198" lon="5.3707815">
<ele>1057.65</ele>
<time>2019-07-25T14:01:27Z</time>
</trkpt>
<trkpt lat="44.8944968" lon="5.3707839">
<ele>1057.64</ele>
<time>2019-07-25T14:01:28Z</time>
</trkpt>
<trkpt lat="44.8944704" lon="5.3707845">
<ele>1057.62</ele>
<time>2019-07-25T14:01:29Z</time>
</trkpt>
<trkpt lat="44.8944478" lon="5.3707850">
<ele>1057.61</ele>
<time>2019-07-25T14:01:30Z</time>
</trkpt>
<trkpt lat="44.8944248" lon="5.3707826">
<ele>1057.59</ele>
<time>2019-07-25T14:01:31Z</time>
</trkpt>
<trkpt lat="44.8944089" lon="5.3707806">
<ele>1057.56</ele>
<time>2019-07-25T14:01:32Z</time>
</trkpt>
<trkpt lat="44.8943948" lon="5.3707779">
<ele>1057.54</ele>
<time>2019-07-25T14:01:33Z</time>
</trkpt>
<trkpt lat="44.8943771" lon="5.3707670">
<ele>1057.51</ele>
<time>2019-07-25T14:01:34Z</time>
</trkpt>
<trkpt lat="44.8943496" lon="5.3707666">
<ele>1057.48</ele>
<time>2019-07-25T14:01:35Z</time>
</trkpt>
<trkpt lat="44.8943227" lon="5.3707640">
<ele>1057.46</ele>
<time>2019-07-25T14:01:36Z</time>
</trkpt>
<trkpt lat="44.8942985" lon="5.3707585">
<ele>1057.43</ele>
<time>2019-07-25T14:01:37Z</time>
</trkpt>
<trkpt lat="44.8942777" lon="5.3707525">
<ele>1057.39</ele>
<time>2019-07-25T14:01:38Z</time>
</trkpt>
<trkpt lat="44.8942560" lon="5.3707491">
<ele>1057.35</ele>
<time>2019-07-25T14:01:39Z</time>
</trkpt>
<trkpt lat="44.8942343" lon="5.3707459">
<ele>1057.31</ele>
<time>2019-07-25T14:01:40Z</time>
</trkpt>
<trkpt lat="44.8942090" lon="5.3707421">
<ele>1057.27</ele>
<time>2019-07-25T14:01:41Z</time>
</trkpt>
<trkpt lat="44.8941809" lon="5.3707361">
<ele>1057.23</ele>
<time>2019-07-25T14:01:42Z</time>
</trkpt>
<trkpt lat="44.8941548" lon="5.3707334">
<ele>1057.18</ele>
<time>2019-07-25T14:01:43Z</time>
</trkpt>
<trkpt lat="44.8941269" lon="5.3707322">
<ele>1057.14</ele>
<time>2019-07-25T14:01:44Z</time>
</trkpt>
<trkpt lat="44.8941049" lon="5.3707283">
<ele>1057.09</ele>
<time>2019-07-25T14:01:45Z</time>
</trkpt>
<trkpt lat="44.8940852" lon="5.3707246">
<ele>1057.04</ele>
<time>2019-07-25T14:01:46Z</time>
</trkpt>
<trkpt lat="44.8940660" lon="5.3707159">
<ele>1057.00</ele>
<time>2019-07-25T14:01:47Z</time>
</trkpt>
<trkpt lat="44.8940377" lon="5.3707145">
<ele>1056.95</ele>
<time>2019-07-25T14:01:48Z</time>
</trkpt>
<trkpt lat="44.8940101" lon="5.3707088">
<ele>1056.90</ele>
<time>2019-07-25T14:01:49Z</time>
</trkpt>
<trkpt lat="44.8939825" lon="5.3707036">
<ele>1056.86</ele>
<time>2019-07-25T14:01:50Z</time>
</trkpt>
<trkpt lat="44.8939571" lon="5.3706992">
<ele>1056.82</ele>
<time>2019-07-25T14:01:51Z</time>
</trkpt>
<trkpt lat="44.8939289" lon="5.3706962">
<ele>1056.78</ele>
<time>2019-07-25T14:01:52Z</time>
</trkpt>
<trkpt lat="44.8939032" lon="5.3706907">
<ele>1056.74</ele>
<time>2019-07-25T14:01:53Z</time>
</trkpt>
<trkpt lat="44.8938765" lon="5.3706874">
<ele>1056.71</ele>
<time>2019-07-25T14:01:54Z</time>
</trkpt>
<trkpt lat="44.8938474" lon="5.3706750">
<ele>1056.68</ele>
<time>2019-07-25T14:01:55Z</time>
</trkpt>
<trkpt lat="44.8938236" lon="5.3706709">
<ele>1056.64</ele>
<time>2019-07-25T14:01:56Z</time>
</trkpt>
<trkpt lat="44.8938038" lon="5.3706663">
<ele>1056.61</ele>
<time>2019-07-25T14:01:57Z</time>
</trkpt>
<trkpt lat="44.8937797" lon="5.3706632">
<ele>1056.58</ele>
<time>2019-07-25T14:01:58Z</time>
</trkpt>
<trkpt lat="44.8937472" lon="5.3706574">
<ele>1056.55</ele>
<time>2019-07-25T14:01:59Z</time>
</trkpt>
<trkpt lat="44.8937214" lon="5.3706537">
<ele>1056.52</ele>
<time>2019-07-25T14:02:00Z</time>
</trkpt>
<trkpt lat="44.8936920" lon="5.3706477">
<ele>1056.49</ele>
<time>2019-07-25T14:02:01Z</time>
</trkpt>
<trkpt lat="44.8936567" lon="5.3706397">
<ele>1056.46</ele>
<time>2019-07-25T14:02:02Z</time>
</trkpt>
<trkpt lat="44.8936257" lon="5.3706305">
<ele>1056.42</ele>
<time>2019-07-25T14:02:03Z</time>
</trkpt>
<trkpt lat="44.8935960" lon="5.3706230">
<ele>1056.38</ele>
<time>2019-07-25T14:02:04Z</time>
</trkpt>
<trkpt lat="44.8935697" lon="5.3706148">
<ele>1056.33</ele>
<time>2019-07-25T14:02:05Z</time>
</trkpt>
<trkpt lat="44.8935378" lon="5.3706132">
<ele>1056.29</ele>
<time>2019-07-25T14:02:06Z</time>
</trkpt>
<trkpt lat="44.8935043" lon="5.3706127">
<ele>1056.24</ele>
<time>2019-07-25T14:02:07Z</time>
</trkpt>
<trkpt lat="44.8934734" lon="5.3706098">
<ele>1056.20</ele>
<time>2019-07-25T14:02:08Z</time>
</trkpt>
<trkpt lat="44.8934350" lon="5.3705993">
<ele>1056.15</ele>
<time>2019-07-25T14:02:09Z</time>
</trkpt>
<trkpt lat="44.8934045" lon="5.3705897">
<ele>1056.12</ele>
<time>2019-07-25T14:02:10Z</time>
</trkpt>
<trkpt lat="44.8933729" lon="5.3705804">
<ele>1056.08</ele>
<time>2019-07-25T14:02:11Z</time>
</trkpt>
<trkpt lat="44.8933401" lon="5.3705711">
<ele>1056.04</ele>
<time>2019-07-25T14:02:12Z</time>
</trkpt>
<trkpt lat="44.8933089" lon="5.3705610">
<ele>1056.01</ele>
<time>2019-07-25T14:02:13Z</time>
</trkpt>
<trkpt lat="44.8932769" lon="5.3705523">
<ele>1055.96</ele>
<time>2019-07-25T14:02:14Z</time>
</trkpt>
<trkpt lat="44.8932436" lon="5.3705417">
<ele>1055.92</ele>
<time>2019-07-25T14:02:15Z</time>
</trkpt>
<trkpt lat="44.8932162" lon="5.3705311">
<ele>1055.87</ele>
<time>2019-07-25T14:02:16Z</time>
</trkpt>
<trkpt lat="44.8931877" lon="5.3705246">
<ele>1055.83</ele>
<time>2019-07-25T14:02:17Z</time>
</trkpt>
<trkpt lat="44.8931575" lon="5.3705190">
<ele>1055.78</ele>
<time>2019-07-25T14:02:18Z</time>
</trkpt>
<trkpt lat="44.8931244" lon="5.3705136">
<ele>1055.72</ele>
<time>2019-07-25T14:02:19Z</time>
</trkpt>
<trkpt lat="44.8930919" lon="5.3705102">
<ele>1055.67</ele>
<time>2019-07-25T14:02:20Z</time>
</trkpt>
<trkpt lat="44.8930605" lon="5.3705080">
<ele>1055.61</ele>
<time>2019-07-25T14:02:21Z</time>
</trkpt>
<trkpt lat="44.8930307" lon="5.3705059">
<ele>1055.55</ele>
<time>2019-07-25T14:02:22Z</time>
</trkpt>
<trkpt lat="44.8930017" lon="5.3705015">
<ele>1055.50</ele>
<time>2019-07-25T14:02:23Z</time>
</trkpt>
<trkpt lat="44.8929714" lon="5.3704951">
<ele>1055.46</ele>
<time>2019-07-25T14:02:24Z</time>
</trkpt>
<trkpt lat="44.8929420" lon="5.3704902">
<ele>1055.42</ele>
<time>2019-07-25T14:02:25Z</time>
</trkpt>
<trkpt lat="44.8929093" lon="5.3704874">
<ele>1055.39</ele>
<time>2019-07-25T14:02:26Z</time>
</trkpt>
<trkpt lat="44.8928731" lon="5.3704837">
<ele>1055.36</ele>
<time>2019-07-25T14:02:27Z</time>
</trkpt>
<trkpt lat="44.8928391" lon="5.3704742">
<ele>1055.34</ele>
<time>2019-07-25T14:02:28Z</time>
</trkpt>
<trkpt lat="44.8928069" lon="5.3704661">
<ele>1055.31</ele>
<time>2019-07-25T14:02:29Z</time>
</trkpt>
<trkpt lat="44.8927741" lon="5.3704576">
<ele>1055.29</ele>
<time>2019-07-25T14:02:30Z</time>
</trkpt>
<trkpt lat="44.8927413" lon="5.3704468">
<ele>1055.27</ele>
<time>2019-07-25T14:02:31Z</time>
</trkpt>
<trkpt lat="44.8927051" lon="5.3704400">
<ele>1055.26</ele>
<time>2019-07-25T14:02:32Z</time>
</trkpt>
<trkpt lat="44.8926715" lon="5.3704305">
<ele>1055.25</ele>
<time>2019-07-25T14:02:33Z</time>
</trkpt>
<trkpt lat="44.8926415" lon="5.3704220">
<ele>1055.24</ele>
<time>2019-07-25T14:02:34Z</time>
</trkpt>
<trkpt lat="44.8926079" lon="5.3704132">
<ele>1055.23</ele>
<time>2019-07-25T14:02:35Z</time>
</trkpt>
<trkpt lat="44.8925752" lon="5.3704060">
<ele>1055.23</ele>
<time>2019-07-25T14:02:36Z</time>
</trkpt>
<trkpt lat="44.8925412" lon="5.3704004">
<ele>1055.23</ele>
<time>2019-07-25T14:02:37Z</time>
</trkpt>
<trkpt lat="44.8925038" lon="5.3703957">
<ele>1055.22</ele>
<time>2019-07-25T14:02:38Z</time>
</trkpt>
<trkpt lat="44.8924653" lon="5.3703883">
<ele>1055.22</ele>
<time>2019-07-25T14:02:39Z</time>
</trkpt>
<trkpt lat="44.8924318" lon="5.3703850">
<ele>1055.22</ele>
<time>2019-07-25T14:02:40Z</time>
</trkpt>
<trkpt lat="44.8923973" lon="5.3703768">
<ele>1055.22</ele>
<time>2019-07-25T14:02:41Z</time>
</trkpt>
<trkpt lat="44.8923663" lon="5.3703640">
<ele>1055.21</ele>
<time>2019-07-25T14:02:42Z</time>
</trkpt>
<trkpt lat="44.8923329" lon="5.3703528">
<ele>1055.21</ele>
<time>2019-07-25T14:02:43Z</time>
</trkpt>
<trkpt lat="44.8923010" lon="5.3703374">
<ele>1055.21</ele>
<time>2019-07-25T14:02:44Z</time>
</trkpt>
<trkpt lat="44.8922710" lon="5.3703305">
<ele>1055.20</ele>
<time>2019-07-25T14:02:45Z</time>
</trkpt>
<trkpt lat="44.8922397" lon="5.3703223">
<ele>1055.20</ele>
<time>2019-07-25T14:02:46Z</time>
</trkpt>
<trkpt lat="44.8922086" lon="5.3703151">
<ele>1055.20</ele>
<time>2019-07-25T14:02:47Z</time>
</trkpt>
<trkpt lat="44.8921752" lon="5.3703138">
<ele>1055.19</ele>
<time>2019-07-25T14:02:48Z</time>
</trkpt>
<trkpt lat="44.8921422" lon="5.3703059">
<ele>1055.18</ele>
<time>2019-07-25T14:02:49Z</time>
</trkpt>
<trkpt lat="44.8921084" lon="5.3703030">
<ele>1055.18</ele>
<time>2019-07-25T14:02:50Z</time>
</trkpt>
<trkpt lat="44.8920720" lon="5.3702959">
<ele>1055.16</ele>
<time>2019-07-25T14:02:51Z</time>
</trkpt>
<trkpt lat="44.8920426" lon="5.3702856">
<ele>1055.15</ele>
<time>2019-07-25T14:02:52Z</time>
</trkpt>
<trkpt lat="44.8920131" lon="5.3702823">
<ele>1055.14</ele>
<time>2019-07-25T14:02:53Z</time>
</trkpt>
<trkpt lat="44.8919799" lon="5.3702762">
<ele>1055.12</ele>
<time>2019-07-25T14:02:54Z</time>
</trkpt>
<trkpt lat="44.8919504" lon="5.3702697">
<ele>1055.10</ele>
<time>2019-07-25T14:02:55Z</time>
</trkpt>
<trkpt lat="44.8919180" lon="5.3702616">
<ele>1055.08</ele>
<time>2019-07-25T14:02:56Z</time>
</trkpt>
<trkpt lat="44.8918879" lon="5.3702546">
<ele>1055.06</ele>
<time>2019-07-25T14:02:57Z</time>
</trkpt>
<trkpt lat="44.8918525" lon="5.3702537">
<ele>1055.05</ele>
<time>2019-07-25T14:02:58Z</time>
</trkpt>
<trkpt lat="44.8918189" lon="5.3702520">
<ele>1055.03</ele>
<time>2019-07-25T14:02:59Z</time>
</trkpt>
<trkpt lat="44.8917871" lon="5.3702481">
<ele>1055.01</ele>
<time>2019-07-25T14:03:00Z</time>
</trkpt>
<trkpt lat="44.8917545" lon="5.3702468">
<ele>1054.98</ele>
<time>2019-07-25T14:03:01Z</time>
</trkpt>
<trkpt lat="44.8917265" lon="5.3702408">
<ele>1054.96</ele>
<time>2019-07-25T14:03:02Z</time>
</trkpt>
<trkpt lat="44.8916910" lon="5.3702332">
<ele>1054.93</ele>
<time>2019-07-25T14:03:03Z</time>
</trkpt>
<trkpt lat="44.8916614" lon="5.3702269">
<ele>1054.91</ele>
<time>2019-07-25T14:03:04Z</time>
</trkpt>
<trkpt lat="44.8916329" lon="5.3702220">
<ele>1054.88</ele>
<time>2019-07-25T14:03:05Z</time>
</trkpt>
<trkpt lat="44.8916013" lon="5.3702183">
<ele>1054.85</ele>
<time>2019-07-25T14:03:06Z</time>
</trkpt>
<trkpt lat="44.8915696" lon="5.3702174">
<ele>1054.82</ele>
<time>2019-07-25T14:03:07Z</time>
</trkpt>
<trkpt lat="44.8915356" lon="5.3702141">
<ele>1054.80</ele>
<time>2019-07-25T14:03:08Z</time>
</trkpt>
<trkpt lat="44.8915069" lon="5.3702054">
<ele>1054.77</ele>
<time>2019-07-25T14:03:09Z</time>
</trkpt>
<trkpt lat="44.8914770" lon="5.3701984">
<ele>1054.75</ele>
<time>2019-07-25T14:03:10Z</time>
</trkpt>
<trkpt lat="44.8914441" lon="5.3701935">
<ele>1054.73</ele>
<time>2019-07-25T14:03:11Z</time>
</trkpt>
<trkpt lat="44.8914121" lon="5.3701932">
<ele>1054.71</ele>
<time>2019-07-25T14:03:12Z</time>
</trkpt>
<trkpt lat="44.8913792" lon="5.3701963">
<ele>1054.69</ele>
<time>2019-07-25T14:03:13Z</time>
</trkpt>
<trkpt lat="44.8913489" lon="5.3701983">
<ele>1054.67</ele>
<time>2019-07-25T14:03:14Z</time>
</trkpt>
<trkpt lat="44.8913143" lon="5.3702025">
<ele>1054.65</ele>
<time>2019-07-25T14:03:15Z</time>
</trkpt>
<trkpt lat="44.8912758" lon="5.3702052">
<ele>1054.63</ele>
<time>2019-07-25T14:03:16Z</time>
</trkpt>
<trkpt lat="44.8912366" lon="5.3702067">
<ele>1054.61</ele>
<time>2019-07-25T14:03:17Z</time>
</trkpt>
<trkpt lat="44.8912036" lon="5.3702092">
<ele>1054.60</ele>
<time>2019-07-25T14:03:18Z</time>
</trkpt>
<trkpt lat="44.8911700" lon="5.3702137">
<ele>1054.58</ele>
<time>2019-07-25T14:03:19Z</time>
</trkpt>
<trkpt lat="44.8911339" lon="5.3702163">
<ele>1054.57</ele>
<time>2019-07-25T14:03:20Z</time>
</trkpt>
<trkpt lat="44.8910970" lon="5.3702178">
<ele>1054.55</ele>
<time>2019-07-25T14:03:21Z</time>
</trkpt>
<trkpt lat="44.8910592" lon="5.3702172">
<ele>1054.54</ele>
<time>2019-07-25T14:03:22Z</time>
</trkpt>
<trkpt lat="44.8910278" lon="5.3702181">
<ele>1054.53</ele>
<time>2019-07-25T14:03:23Z</time>
</trkpt>
<trkpt lat="44.8909905" lon="5.3702257">
<ele>1054.52</ele>
<time>2019-07-25T14:03:24Z</time>
</trkpt>
<trkpt lat="44.8909535" lon="5.3702285">
<ele>1054.52</ele>
<time>2019-07-25T14:03:25Z</time>
</trkpt>
<trkpt lat="44.8909155" lon="5.3702295">
<ele>1054.51</ele>
<time>2019-07-25T14:03:26Z</time>
</trkpt>
<trkpt lat="44.8908781" lon="5.3702303">
<ele>1054.51</ele>
<time>2019-07-25T14:03:27Z</time>
</trkpt>
<trkpt lat="44.8908399" lon="5.3702317">
<ele>1054.48</ele>
<time>2019-07-25T14:03:28Z</time>
</trkpt>
<trkpt lat="44.8908012" lon="5.3702336">
<ele>1054.45</ele>
<time>2019-07-25T14:03:29Z</time>
</trkpt>
<trkpt lat="44.8907604" lon="5.3702327">
<ele>1054.43</ele>
<time>2019-07-25T14:03:30Z</time>
</trkpt>
<trkpt lat="44.8907183" lon="5.3702310">
<ele>1054.42</ele>
<time>2019-07-25T14:03:31Z</time>
</trkpt>
<trkpt lat="44.8906821" lon="5.3702278">
<ele>1054.41</ele>
<time>2019-07-25T14:03:32Z</time>
</trkpt>
<trkpt lat="44.8906464" lon="5.3702270">
<ele>1054.34</ele>
<time>2019-07-25T14:03:33Z</time>
</trkpt>
<trkpt lat="44.8906050" lon="5.3702242">
<ele>1054.27</ele>
<time>2019-07-25T14:03:34Z</time>
</trkpt>
<trkpt lat="44.8905652" lon="5.3702233">
<ele>1054.19</ele>
<time>2019-07-25T14:03:35Z</time>
</trkpt>
<trkpt lat="44.8905246" lon="5.3702212">
<ele>1054.11</ele>
<time>2019-07-25T14:03:36Z</time>
</trkpt>
<trkpt lat="44.8904852" lon="5.3702199">
<ele>1054.05</ele>
<time>2019-07-25T14:03:37Z</time>
</trkpt>
<trkpt lat="44.8904475" lon="5.3702176">
<ele>1054.02</ele>
<time>2019-07-25T14:03:38Z</time>
</trkpt>
<trkpt lat="44.8904071" lon="5.3702146">
<ele>1054.00</ele>
<time>2019-07-25T14:03:39Z</time>
</trkpt>
<trkpt lat="44.8903698" lon="5.3702135">
<ele>1054.00</ele>
<time>2019-07-25T14:03:40Z</time>
</trkpt>
<trkpt lat="44.8903318" lon="5.3702079">
<ele>1054.00</ele>
<time>2019-07-25T14:03:41Z</time>
</trkpt>
<trkpt lat="44.8902925" lon="5.3702059">
<ele>1054.00</ele>
<time>2019-07-25T14:03:42Z</time>
</trkpt>
<trkpt lat="44.8902590" lon="5.3702063">
<ele>1054.03</ele>
<time>2019-07-25T14:03:43Z</time>
</trkpt>
<trkpt lat="44.8902229" lon="5.3701964">
<ele>1054.03</ele>
<time>2019-07-25T14:03:44Z</time>
</trkpt>
<trkpt lat="44.8901845" lon="5.3701852">
<ele>1054.04</ele>
<time>2019-07-25T14:03:45Z</time>
</trkpt>
<trkpt lat="44.8901525" lon="5.3701808">
<ele>1054.04</ele>
<time>2019-07-25T14:03:46Z</time>
</trkpt>
<trkpt lat="44.8901176" lon="5.3701767">
<ele>1054.05</ele>
<time>2019-07-25T14:03:47Z</time>
</trkpt>
<trkpt lat="44.8900785" lon="5.3701791">
<ele>1054.10</ele>
<time>2019-07-25T14:03:48Z</time>
</trkpt>
<trkpt lat="44.8900426" lon="5.3701788">
<ele>1054.11</ele>
<time>2019-07-25T14:03:49Z</time>
</trkpt>
<trkpt lat="44.8900072" lon="5.3701788">
<ele>1054.12</ele>
<time>2019-07-25T14:03:50Z</time>
</trkpt>
<trkpt lat="44.8899709" lon="5.3701694">
<ele>1054.12</ele>
<time>2019-07-25T14:03:51Z</time>
</trkpt>
<trkpt lat="44.8899355" lon="5.3701595">
<ele>1054.13</ele>
<time>2019-07-25T14:03:52Z</time>
</trkpt>
<trkpt lat="44.8898980" lon="5.3701526">
<ele>1054.14</ele>
<time>2019-07-25T14:03:53Z</time>
</trkpt>
<trkpt lat="44.8898675" lon="5.3701409">
<ele>1054.15</ele>
<time>2019-07-25T14:03:54Z</time>
</trkpt>
<trkpt lat="44.8898296" lon="5.3701391">
<ele>1054.15</ele>
<time>2019-07-25T14:03:55Z</time>
</trkpt>
<trkpt lat="44.8897952" lon="5.3701373">
<ele>1054.16</ele>
<time>2019-07-25T14:03:56Z</time>
</trkpt>
<trkpt lat="44.8897613" lon="5.3701326">
<ele>1054.17</ele>
<time>2019-07-25T14:03:57Z</time>
</trkpt>
<trkpt lat="44.8897251" lon="5.3701300">
<ele>1054.18</ele>
<time>2019-07-25T14:03:58Z</time>
</trkpt>
<trkpt lat="44.8896856" lon="5.3701296">
<ele>1054.18</ele>
<time>2019-07-25T14:03:59Z</time>
</trkpt>
<trkpt lat="44.8896511" lon="5.3701250">
<ele>1054.19</ele>
<time>2019-07-25T14:04:00Z</time>
</trkpt>
<trkpt lat="44.8896206" lon="5.3701201">
<ele>1054.20</ele>
<time>2019-07-25T14:04:01Z</time>
</trkpt>
<trkpt lat="44.8895890" lon="5.3701135">
<ele>1054.21</ele>
<time>2019-07-25T14:04:02Z</time>
</trkpt>
<trkpt lat="44.8895568" lon="5.3701081">
<ele>1054.23</ele>
<time>2019-07-25T14:04:03Z</time>
</trkpt>
<trkpt lat="44.8895223" lon="5.3701034">
<ele>1054.24</ele>
<time>2019-07-25T14:04:04Z</time>
</trkpt>
<trkpt lat="44.8894946" lon="5.3700957">
<ele>1054.25</ele>
<time>2019-07-25T14:04:05Z</time>
</trkpt>
<trkpt lat="44.8894587" lon="5.3700917">
<ele>1054.27</ele>
<time>2019-07-25T14:04:06Z</time>
</trkpt>
<trkpt lat="44.8894290" lon="5.3700866">
<ele>1054.28</ele>
<time>2019-07-25T14:04:07Z</time>
</trkpt>
<trkpt lat="44.8893974" lon="5.3700828">
<ele>1054.30</ele>
<time>2019-07-25T14:04:08Z</time>
</trkpt>
<trkpt lat="44.8893639" lon="5.3700816">
<ele>1054.32</ele>
<time>2019-07-25T14:04:09Z</time>
</trkpt>
<trkpt lat="44.8893268" lon="5.3700787">
<ele>1054.34</ele>
<time>2019-07-25T14:04:10Z</time>
</trkpt>
<trkpt lat="44.8892944" lon="5.3700725">
<ele>1054.36</ele>
<time>2019-07-25T14:04:11Z</time>
</trkpt>
<trkpt lat="44.8892627" lon="5.3700679">
<ele>1054.37</ele>
<time>2019-07-25T14:04:12Z</time>
</trkpt>
<trkpt lat="44.8892314" lon="5.3700624">
<ele>1054.39</ele>
<time>2019-07-25T14:04:13Z</time>
</trkpt>
<trkpt lat="44.8892022" lon="5.3700597">
<ele>1054.41</ele>
<time>2019-07-25T14:04:14Z</time>
</trkpt>
<trkpt lat="44.8891692" lon="5.3700542">
<ele>1054.43</ele>
<time>2019-07-25T14:04:15Z</time>
</trkpt>
<trkpt lat="44.8891367" lon="5.3700511">
<ele>1054.45</ele>
<time>2019-07-25T14:04:16Z</time>
</trkpt>
<trkpt lat="44.8891020" lon="5.3700446">
<ele>1054.46</ele>
<time>2019-07-25T14:04:17Z</time>
</trkpt>
<trkpt lat="44.8890660" lon="5.3700418">
<ele>1054.48</ele>
<time>2019-07-25T14:04:18Z</time>
</trkpt>
<trkpt lat="44.8890302" lon="5.3700355">
<ele>1054.50</ele>
<time>2019-07-25T14:04:19Z</time>
</trkpt>
<trkpt lat="44.8889950" lon="5.3700301">
<ele>1054.52</ele>
<time>2019-07-25T14:04:20Z</time>
</trkpt>
<trkpt lat="44.8889571" lon="5.3700313">
<ele>1054.55</ele>
<time>2019-07-25T14:04:21Z</time>
</trkpt>
<trkpt lat="44.8889159" lon="5.3700346">
<ele>1054.57</ele>
<time>2019-07-25T14:04:22Z</time>
</trkpt>
<trkpt lat="44.8888809" lon="5.3700349">
<ele>1054.60</ele>
<time>2019-07-25T14:04:23Z</time>
</trkpt>
<trkpt lat="44.8888436" lon="5.3700390">
<ele>1054.62</ele>
<time>2019-07-25T14:04:24Z</time>
</trkpt>
<trkpt lat="44.8888069" lon="5.3700394">
<ele>1054.65</ele>
<time>2019-07-25T14:04:25Z</time>
</trkpt>
<trkpt lat="44.8887711" lon="5.3700425">
<ele>1054.67</ele>
<time>2019-07-25T14:04:26Z</time>
</trkpt>
<trkpt lat="44.8887353" lon="5.3700464">
<ele>1054.70</ele>
<time>2019-07-25T14:04:27Z</time>
</trkpt>
<trkpt lat="44.8887079" lon="5.3700562">
<ele>1054.72</ele>
<time>2019-07-25T14:04:28Z</time>
</trkpt>
<trkpt lat="44.8886794" lon="5.3700671">
<ele>1054.99</ele>
<time>2019-07-25T14:04:29Z</time>
</trkpt>
<trkpt lat="44.8886420" lon="5.3700844">
<ele>1055.17</ele>
<time>2019-07-25T14:04:30Z</time>
</trkpt>
<trkpt lat="44.8886067" lon="5.3701016">
<ele>1055.33</ele>
<time>2019-07-25T14:04:31Z</time>
</trkpt>
<trkpt lat="44.8885749" lon="5.3701174">
<ele>1055.47</ele>
<time>2019-07-25T14:04:32Z</time>
</trkpt>
<trkpt lat="44.8885453" lon="5.3701372">
<ele>1055.62</ele>
<time>2019-07-25T14:04:33Z</time>
</trkpt>
<trkpt lat="44.8885124" lon="5.3701634">
<ele>1055.75</ele>
<time>2019-07-25T14:04:34Z</time>
</trkpt>
<trkpt lat="44.8884774" lon="5.3701887">
<ele>1055.84</ele>
<time>2019-07-25T14:04:35Z</time>
</trkpt>
<trkpt lat="44.8884417" lon="5.3702190">
<ele>1055.93</ele>
<time>2019-07-25T14:04:36Z</time>
</trkpt>
<trkpt lat="44.8884099" lon="5.3702499">
<ele>1055.93</ele>
<time>2019-07-25T14:04:37Z</time>
</trkpt>
<trkpt lat="44.8883802" lon="5.3702800">
<ele>1056.01</ele>
<time>2019-07-25T14:04:38Z</time>
</trkpt>
<trkpt lat="44.8883485" lon="5.3703106">
<ele>1056.02</ele>
<time>2019-07-25T14:04:39Z</time>
</trkpt>
<trkpt lat="44.8883231" lon="5.3703361">
<ele>1056.03</ele>
<time>2019-07-25T14:04:40Z</time>
</trkpt>
<trkpt lat="44.8882969" lon="5.3703527">
<ele>1056.04</ele>
<time>2019-07-25T14:04:41Z</time>
</trkpt>
<trkpt lat="44.8882705" lon="5.3703686">
<ele>1056.05</ele>
<time>2019-07-25T14:04:42Z</time>
</trkpt>
<trkpt lat="44.8882430" lon="5.3703877">
<ele>1056.06</ele>
<time>2019-07-25T14:04:43Z</time>
</trkpt>
<trkpt lat="44.8882210" lon="5.3704143">
<ele>1056.07</ele>
<time>2019-07-25T14:04:44Z</time>
</trkpt>
<trkpt lat="44.8881965" lon="5.3704438">
<ele>1056.09</ele>
<time>2019-07-25T14:04:45Z</time>
</trkpt>
<trkpt lat="44.8881734" lon="5.3704720">
<ele>1056.10</ele>
<time>2019-07-25T14:04:46Z</time>
</trkpt>
<trkpt lat="44.8881464" lon="5.3704987">
<ele>1056.13</ele>
<time>2019-07-25T14:04:47Z</time>
</trkpt>
<trkpt lat="44.8881202" lon="5.3705254">
<ele>1056.15</ele>
<time>2019-07-25T14:04:48Z</time>
</trkpt>
<trkpt lat="44.8880915" lon="5.3705561">
<ele>1056.41</ele>
<time>2019-07-25T14:04:49Z</time>
</trkpt>
<trkpt lat="44.8880622" lon="5.3705898">
<ele>1056.43</ele>
<time>2019-07-25T14:04:50Z</time>
</trkpt>
<trkpt lat="44.8880372" lon="5.3706218">
<ele>1056.45</ele>
<time>2019-07-25T14:04:51Z</time>
</trkpt>
<trkpt lat="44.8880057" lon="5.3706710">
<ele>1056.49</ele>
<time>2019-07-25T14:04:52Z</time>
</trkpt>
<trkpt lat="44.8879758" lon="5.3707115">
<ele>1056.52</ele>
<time>2019-07-25T14:04:53Z</time>
</trkpt>
<trkpt lat="44.8879490" lon="5.3707379">
<ele>1056.56</ele>
<time>2019-07-25T14:04:54Z</time>
</trkpt>
<trkpt lat="44.8879207" lon="5.3707664">
<ele>1056.60</ele>
<time>2019-07-25T14:04:55Z</time>
</trkpt>
<trkpt lat="44.8878901" lon="5.3707911">
<ele>1056.65</ele>
<time>2019-07-25T14:04:56Z</time>
</trkpt>
<trkpt lat="44.8878619" lon="5.3708186">
<ele>1056.69</ele>
<time>2019-07-25T14:04:57Z</time>
</trkpt>
<trkpt lat="44.8878346" lon="5.3708444">
<ele>1056.74</ele>
<time>2019-07-25T14:04:58Z</time>
</trkpt>
<trkpt lat="44.8878049" lon="5.3708652">
<ele>1056.80</ele>
<time>2019-07-25T14:04:59Z</time>
</trkpt>
<trkpt lat="44.8877721" lon="5.3708912">
<ele>1056.85</ele>
<time>2019-07-25T14:05:00Z</time>
</trkpt>
<trkpt lat="44.8877435" lon="5.3709132">
<ele>1056.90</ele>
<time>2019-07-25T14:05:01Z</time>
</trkpt>
<trkpt lat="44.8877130" lon="5.3709358">
<ele>1056.96</ele>
<time>2019-07-25T14:05:02Z</time>
</trkpt>
<trkpt lat="44.8876816" lon="5.3709568">
<ele>1057.02</ele>
<time>2019-07-25T14:05:03Z</time>
</trkpt>
<trkpt lat="44.8876514" lon="5.3709750">
<ele>1057.07</ele>
<time>2019-07-25T14:05:04Z</time>
</trkpt>
<trkpt lat="44.8876229" lon="5.3709951">
<ele>1057.13</ele>
<time>2019-07-25T14:05:05Z</time>
</trkpt>
<trkpt lat="44.8875922" lon="5.3710134">
<ele>1057.19</ele>
<time>2019-07-25T14:05:06Z</time>
</trkpt>
<trkpt lat="44.8875581" lon="5.3710328">
<ele>1057.25</ele>
<time>2019-07-25T14:05:07Z</time>
</trkpt>
<trkpt lat="44.8875264" lon="5.3710527">
<ele>1057.32</ele>
<time>2019-07-25T14:05:08Z</time>
</trkpt>
<trkpt lat="44.8874941" lon="5.3710737">
<ele>1057.38</ele>
<time>2019-07-25T14:05:09Z</time>
</trkpt>
<trkpt lat="44.8874595" lon="5.3710944">
<ele>1057.44</ele>
<time>2019-07-25T14:05:10Z</time>
</trkpt>
<trkpt lat="44.8874244" lon="5.3711142">
<ele>1057.51</ele>
<time>2019-07-25T14:05:11Z</time>
</trkpt>
<trkpt lat="44.8873887" lon="5.3711289">
<ele>1057.57</ele>
<time>2019-07-25T14:05:12Z</time>
</trkpt>
<trkpt lat="44.8873564" lon="5.3711443">
<ele>1057.63</ele>
<time>2019-07-25T14:05:13Z</time>
</trkpt>
<trkpt lat="44.8873217" lon="5.3711582">
<ele>1057.70</ele>
<time>2019-07-25T14:05:14Z</time>
</trkpt>
<trkpt lat="44.8872870" lon="5.3711715">
<ele>1057.77</ele>
<time>2019-07-25T14:05:15Z</time>
</trkpt>
<trkpt lat="44.8872510" lon="5.3711895">
<ele>1057.83</ele>
<time>2019-07-25T14:05:16Z</time>
</trkpt>
<trkpt lat="44.8872174" lon="5.3712136">
<ele>1058.52</ele>
<time>2019-07-25T14:05:17Z</time>
</trkpt>
<trkpt lat="44.8871822" lon="5.3712332">
<ele>1058.58</ele>
<time>2019-07-25T14:05:18Z</time>
</trkpt>
<trkpt lat="44.8871507" lon="5.3712453">
<ele>1058.64</ele>
<time>2019-07-25T14:05:19Z</time>
</trkpt>
<trkpt lat="44.8871172" lon="5.3712533">
<ele>1058.69</ele>
<time>2019-07-25T14:05:20Z</time>
</trkpt>
<trkpt lat="44.8870830" lon="5.3712620">
<ele>1059.26</ele>
<time>2019-07-25T14:05:21Z</time>
</trkpt>
<trkpt lat="44.8870471" lon="5.3712724">
<ele>1059.72</ele>
<time>2019-07-25T14:05:22Z</time>
</trkpt>
<trkpt lat="44.8870102" lon="5.3712821">
<ele>1060.09</ele>
<time>2019-07-25T14:05:23Z</time>
</trkpt>
<trkpt lat="44.8869732" lon="5.3712908">
<ele>1060.12</ele>
<time>2019-07-25T14:05:24Z</time>
</trkpt>
<trkpt lat="44.8869386" lon="5.3712984">
<ele>1060.15</ele>
<time>2019-07-25T14:05:25Z</time>
</trkpt>
<trkpt lat="44.8869046" lon="5.3713075">
<ele>1060.48</ele>
<time>2019-07-25T14:05:26Z</time>
</trkpt>
<trkpt lat="44.8868671" lon="5.3713185">
<ele>1060.75</ele>
<time>2019-07-25T14:05:27Z</time>
</trkpt>
<trkpt lat="44.8868307" lon="5.3713318">
<ele>1060.99</ele>
<time>2019-07-25T14:05:28Z</time>
</trkpt>
<trkpt lat="44.8867907" lon="5.3713412">
<ele>1061.16</ele>
<time>2019-07-25T14:05:29Z</time>
</trkpt>
<trkpt lat="44.8867527" lon="5.3713498">
<ele>1061.35</ele>
<time>2019-07-25T14:05:30Z</time>
</trkpt>
<trkpt lat="44.8867123" lon="5.3713677">
<ele>1061.48</ele>
<time>2019-07-25T14:05:31Z</time>
</trkpt>
<trkpt lat="44.8866733" lon="5.3713819">
<ele>1061.49</ele>
<time>2019-07-25T14:05:32Z</time>
</trkpt>
<trkpt lat="44.8866364" lon="5.3713907">
<ele>1061.64</ele>
<time>2019-07-25T14:05:33Z</time>
</trkpt>
<trkpt lat="44.8865982" lon="5.3714007">
<ele>1061.75</ele>
<time>2019-07-25T14:05:34Z</time>
</trkpt>
<trkpt lat="44.8865601" lon="5.3714158">
<ele>1061.89</ele>
<time>2019-07-25T14:05:35Z</time>
</trkpt>
<trkpt lat="44.8865192" lon="5.3714289">
<ele>1062.06</ele>
<time>2019-07-25T14:05:36Z</time>
</trkpt>
<trkpt lat="44.8864766" lon="5.3714398">
<ele>1062.21</ele>
<time>2019-07-25T14:05:37Z</time>
</trkpt>
<trkpt lat="44.8864387" lon="5.3714503">
<ele>1062.22</ele>
<time>2019-07-25T14:05:38Z</time>
</trkpt>
<trkpt lat="44.8864005" lon="5.3714639">
<ele>1062.24</ele>
<time>2019-07-25T14:05:39Z</time>
</trkpt>
<trkpt lat="44.8863649" lon="5.3714771">
<ele>1062.26</ele>
<time>2019-07-25T14:05:40Z</time>
</trkpt>
<trkpt lat="44.8863290" lon="5.3714884">
<ele>1062.44</ele>
<time>2019-07-25T14:05:41Z</time>
</trkpt>
<trkpt lat="44.8862935" lon="5.3714999">
<ele>1062.46</ele>
<time>2019-07-25T14:05:42Z</time>
</trkpt>
<trkpt lat="44.8862549" lon="5.3715102">
<ele>1062.48</ele>
<time>2019-07-25T14:05:43Z</time>
</trkpt>
<trkpt lat="44.8862167" lon="5.3715261">
<ele>1062.50</ele>
<time>2019-07-25T14:05:44Z</time>
</trkpt>
<trkpt lat="44.8861784" lon="5.3715376">
<ele>1062.53</ele>
<time>2019-07-25T14:05:45Z</time>
</trkpt>
<trkpt lat="44.8861437" lon="5.3715531">
<ele>1062.56</ele>
<time>2019-07-25T14:05:46Z</time>
</trkpt>
<trkpt lat="44.8861075" lon="5.3715675">
<ele>1062.59</ele>
<time>2019-07-25T14:05:47Z</time>
</trkpt>
<trkpt lat="44.8860673" lon="5.3715846">
<ele>1062.93</ele>
<time>2019-07-25T14:05:48Z</time>
</trkpt>
<trkpt lat="44.8860262" lon="5.3716000">
<ele>1063.21</ele>
<time>2019-07-25T14:05:49Z</time>
</trkpt>
<trkpt lat="44.8859865" lon="5.3716161">
<ele>1063.45</ele>
<time>2019-07-25T14:05:50Z</time>
</trkpt>
<trkpt lat="44.8859443" lon="5.3716367">
<ele>1063.66</ele>
<time>2019-07-25T14:05:51Z</time>
</trkpt>
<trkpt lat="44.8859062" lon="5.3716533">
<ele>1063.87</ele>
<time>2019-07-25T14:05:52Z</time>
</trkpt>
<trkpt lat="44.8858677" lon="5.3716749">
<ele>1064.06</ele>
<time>2019-07-25T14:05:53Z</time>
</trkpt>
<trkpt lat="44.8858294" lon="5.3717011">
<ele>1064.22</ele>
<time>2019-07-25T14:05:54Z</time>
</trkpt>
<trkpt lat="44.8857909" lon="5.3717346">
<ele>1064.33</ele>
<time>2019-07-25T14:05:55Z</time>
</trkpt>
<trkpt lat="44.8857568" lon="5.3717773">
<ele>1064.43</ele>
<time>2019-07-25T14:05:56Z</time>
</trkpt>
<trkpt lat="44.8857257" lon="5.3718182">
<ele>1064.53</ele>
<time>2019-07-25T14:05:57Z</time>
</trkpt>
<trkpt lat="44.8856955" lon="5.3718628">
<ele>1064.62</ele>
<time>2019-07-25T14:05:58Z</time>
</trkpt>
<trkpt lat="44.8856654" lon="5.3719058">
<ele>1064.73</ele>
<time>2019-07-25T14:05:59Z</time>
</trkpt>
<trkpt lat="44.8856365" lon="5.3719508">
<ele>1064.85</ele>
<time>2019-07-25T14:06:00Z</time>
</trkpt>
<trkpt lat="44.8856083" lon="5.3719921">
<ele>1064.86</ele>
<time>2019-07-25T14:06:01Z</time>
</trkpt>
<trkpt lat="44.8855833" lon="5.3720348">
<ele>1064.96</ele>
<time>2019-07-25T14:06:02Z</time>
</trkpt>
<trkpt lat="44.8855661" lon="5.3720837">
<ele>1065.08</ele>
<time>2019-07-25T14:06:03Z</time>
</trkpt>
<trkpt lat="44.8855477" lon="5.3721366">
<ele>1065.23</ele>
<time>2019-07-25T14:06:04Z</time>
</trkpt>
<trkpt lat="44.8855226" lon="5.3721915">
<ele>1065.38</ele>
<time>2019-07-25T14:06:05Z</time>
</trkpt>
<trkpt lat="44.8854942" lon="5.3722429">
<ele>1065.49</ele>
<time>2019-07-25T14:06:06Z</time>
</trkpt>
<trkpt lat="44.8854768" lon="5.3722910">
<ele>1065.66</ele>
<time>2019-07-25T14:06:07Z</time>
</trkpt>
<trkpt lat="44.8854629" lon="5.3723484">
<ele>1065.82</ele>
<time>2019-07-25T14:06:08Z</time>
</trkpt>
<trkpt lat="44.8854480" lon="5.3723930">
<ele>1065.97</ele>
<time>2019-07-25T14:06:09Z</time>
</trkpt>
<trkpt lat="44.8854355" lon="5.3724401">
<ele>1065.99</ele>
<time>2019-07-25T14:06:10Z</time>
</trkpt>
<trkpt lat="44.8854228" lon="5.3724859">
<ele>1066.01</ele>
<time>2019-07-25T14:06:11Z</time>
</trkpt>
<trkpt lat="44.8854107" lon="5.3725311">
<ele>1066.19</ele>
<time>2019-07-25T14:06:12Z</time>
</trkpt>
<trkpt lat="44.8853943" lon="5.3725822">
<ele>1066.35</ele>
<time>2019-07-25T14:06:13Z</time>
</trkpt>
<trkpt lat="44.8853735" lon="5.3726307">
<ele>1066.53</ele>
<time>2019-07-25T14:06:14Z</time>
</trkpt>
<trkpt lat="44.8853543" lon="5.3726827">
<ele>1066.72</ele>
<time>2019-07-25T14:06:15Z</time>
</trkpt>
<trkpt lat="44.8853393" lon="5.3727433">
<ele>1066.85</ele>
<time>2019-07-25T14:06:16Z</time>
</trkpt>
<trkpt lat="44.8853251" lon="5.3727983">
<ele>1066.95</ele>
<time>2019-07-25T14:06:17Z</time>
</trkpt>
<trkpt lat="44.8853116" lon="5.3728476">
<ele>1067.06</ele>
<time>2019-07-25T14:06:18Z</time>
</trkpt>
<trkpt lat="44.8852986" lon="5.3729005">
<ele>1067.13</ele>
<time>2019-07-25T14:06:19Z</time>
</trkpt>
<trkpt lat="44.8852828" lon="5.3729606">
<ele>1067.20</ele>
<time>2019-07-25T14:06:20Z</time>
</trkpt>
<trkpt lat="44.8852702" lon="5.3730244">
<ele>1067.25</ele>
<time>2019-07-25T14:06:21Z</time>
</trkpt>
<trkpt lat="44.8852558" lon="5.3730845">
<ele>1067.29</ele>
<time>2019-07-25T14:06:22Z</time>
</trkpt>
<trkpt lat="44.8852357" lon="5.3731419">
<ele>1067.32</ele>
<time>2019-07-25T14:06:23Z</time>
</trkpt>
<trkpt lat="44.8852170" lon="5.3731970">
<ele>1067.38</ele>
<time>2019-07-25T14:06:24Z</time>
</trkpt>
<trkpt lat="44.8851983" lon="5.3732529">
<ele>1067.44</ele>
<time>2019-07-25T14:06:25Z</time>
</trkpt>
<trkpt lat="44.8851803" lon="5.3733097">
<ele>1067.50</ele>
<time>2019-07-25T14:06:26Z</time>
</trkpt>
<trkpt lat="44.8851639" lon="5.3733630">
<ele>1067.56</ele>
<time>2019-07-25T14:06:27Z</time>
</trkpt>
<trkpt lat="44.8851451" lon="5.3734177">
<ele>1067.59</ele>
<time>2019-07-25T14:06:28Z</time>
</trkpt>
<trkpt lat="44.8851268" lon="5.3734745">
<ele>1067.58</ele>
<time>2019-07-25T14:06:29Z</time>
</trkpt>
<trkpt lat="44.8851108" lon="5.3735262">
<ele>1067.59</ele>
<time>2019-07-25T14:06:30Z</time>
</trkpt>
<trkpt lat="44.8850945" lon="5.3735860">
<ele>1067.60</ele>
<time>2019-07-25T14:06:31Z</time>
</trkpt>
<trkpt lat="44.8850764" lon="5.3736397">
<ele>1067.63</ele>
<time>2019-07-25T14:06:32Z</time>
</trkpt>
<trkpt lat="44.8850569" lon="5.3736878">
<ele>1067.67</ele>
<time>2019-07-25T14:06:33Z</time>
</trkpt>
<trkpt lat="44.8850382" lon="5.3737399">
<ele>1067.75</ele>
<time>2019-07-25T14:06:34Z</time>
</trkpt>
<trkpt lat="44.8850198" lon="5.3737912">
<ele>1067.83</ele>
<time>2019-07-25T14:06:35Z</time>
</trkpt>
<trkpt lat="44.8850016" lon="5.3738397">
<ele>1067.88</ele>
<time>2019-07-25T14:06:36Z</time>
</trkpt>
<trkpt lat="44.8849791" lon="5.3738889">
<ele>1067.91</ele>
<time>2019-07-25T14:06:37Z</time>
</trkpt>
<trkpt lat="44.8849574" lon="5.3739331">
<ele>1067.96</ele>
<time>2019-07-25T14:06:38Z</time>
</trkpt>
<trkpt lat="44.8849324" lon="5.3739825">
<ele>1068.02</ele>
<time>2019-07-25T14:06:39Z</time>
</trkpt>
<trkpt lat="44.8849097" lon="5.3740224">
<ele>1068.09</ele>
<time>2019-07-25T14:06:40Z</time>
</trkpt>
<trkpt lat="44.8848828" lon="5.3740649">
<ele>1068.15</ele>
<time>2019-07-25T14:06:41Z</time>
</trkpt>
<trkpt lat="44.8848549" lon="5.3741104">
<ele>1068.22</ele>
<time>2019-07-25T14:06:42Z</time>
</trkpt>
<trkpt lat="44.8848280" lon="5.3741577">
<ele>1068.29</ele>
<time>2019-07-25T14:06:43Z</time>
</trkpt>
<trkpt lat="44.8848005" lon="5.3742060">
<ele>1068.35</ele>
<time>2019-07-25T14:06:44Z</time>
</trkpt>
<trkpt lat="44.8847721" lon="5.3742554">
<ele>1068.43</ele>
<time>2019-07-25T14:06:45Z</time>
</trkpt>
<trkpt lat="44.8847440" lon="5.3742958">
<ele>1068.49</ele>
<time>2019-07-25T14:06:46Z</time>
</trkpt>
<trkpt lat="44.8847161" lon="5.3743402">
<ele>1068.56</ele>
<time>2019-07-25T14:06:47Z</time>
</trkpt>
<trkpt lat="44.8846882" lon="5.3743845">
<ele>1068.62</ele>
<time>2019-07-25T14:06:48Z</time>
</trkpt>
<trkpt lat="44.8846596" lon="5.3744295">
<ele>1068.68</ele>
<time>2019-07-25T14:06:49Z</time>
</trkpt>
<trkpt lat="44.8846301" lon="5.3744703">
<ele>1068.74</ele>
<time>2019-07-25T14:06:50Z</time>
</trkpt>
<trkpt lat="44.8846030" lon="5.3745036">
<ele>1068.82</ele>
<time>2019-07-25T14:06:51Z</time>
</trkpt>
<trkpt lat="44.8845729" lon="5.3745393">
<ele>1068.89</ele>
<time>2019-07-25T14:06:52Z</time>
</trkpt>
<trkpt lat="44.8845420" lon="5.3745761">
<ele>1068.96</ele>
<time>2019-07-25T14:06:53Z</time>
</trkpt>
<trkpt lat="44.8845120" lon="5.3746189">
<ele>1069.02</ele>
<time>2019-07-25T14:06:54Z</time>
</trkpt>
<trkpt lat="44.8844848" lon="5.3746583">
<ele>1069.06</ele>
<time>2019-07-25T14:06:55Z</time>
</trkpt>
<trkpt lat="44.8844572" lon="5.3746981">
<ele>1069.09</ele>
<time>2019-07-25T14:06:56Z</time>
</trkpt>
<trkpt lat="44.8844306" lon="5.3747261">
<ele>1069.13</ele>
<time>2019-07-25T14:06:57Z</time>
</trkpt>
<trkpt lat="44.8843971" lon="5.3747581">
<ele>1069.13</ele>
<time>2019-07-25T14:06:58Z</time>
</trkpt>
<trkpt lat="44.8843685" lon="5.3747844">
<ele>1069.16</ele>
<time>2019-07-25T14:06:59Z</time>
</trkpt>
<trkpt lat="44.8843369" lon="5.3748171">
<ele>1069.23</ele>
<time>2019-07-25T14:07:00Z</time>
</trkpt>
<trkpt lat="44.8843052" lon="5.3748522">
<ele>1069.29</ele>
<time>2019-07-25T14:07:01Z</time>
</trkpt>
<trkpt lat="44.8842741" lon="5.3748853">
<ele>1069.38</ele>
<time>2019-07-25T14:07:02Z</time>
</trkpt>
<trkpt lat="44.8842430" lon="5.3749174">
<ele>1069.47</ele>
<time>2019-07-25T14:07:03Z</time>
</trkpt>
<trkpt lat="44.8842099" lon="5.3749556">
<ele>1069.57</ele>
<time>2019-07-25T14:07:04Z</time>
</trkpt>
<trkpt lat="44.8841788" lon="5.3749906">
<ele>1069.67</ele>
<time>2019-07-25T14:07:05Z</time>
</trkpt>
<trkpt lat="44.8841469" lon="5.3750241">
<ele>1069.76</ele>
<time>2019-07-25T14:07:06Z</time>
</trkpt>
<trkpt lat="44.8841118" lon="5.3750614">
<ele>1069.86</ele>
<time>2019-07-25T14:07:07Z</time>
</trkpt>
<trkpt lat="44.8840757" lon="5.3750965">
<ele>1069.96</ele>
<time>2019-07-25T14:07:08Z</time>
</trkpt>
<trkpt lat="44.8840425" lon="5.3751299">
<ele>1070.09</ele>
<time>2019-07-25T14:07:09Z</time>
</trkpt>
<trkpt lat="44.8840068" lon="5.3751609">
<ele>1070.21</ele>
<time>2019-07-25T14:07:10Z</time>
</trkpt>
<trkpt lat="44.8839721" lon="5.3751926">
<ele>1070.33</ele>
<time>2019-07-25T14:07:11Z</time>
</trkpt>
<trkpt lat="44.8839425" lon="5.3752194">
<ele>1070.48</ele>
<time>2019-07-25T14:07:12Z</time>
</trkpt>
<trkpt lat="44.8839107" lon="5.3752494">
<ele>1070.64</ele>
<time>2019-07-25T14:07:13Z</time>
</trkpt>
<trkpt lat="44.8838793" lon="5.3752777">
<ele>1070.84</ele>
<time>2019-07-25T14:07:14Z</time>
</trkpt>
<trkpt lat="44.8838462" lon="5.3753054">
<ele>1071.05</ele>
<time>2019-07-25T14:07:15Z</time>
</trkpt>
<trkpt lat="44.8838128" lon="5.3753320">
<ele>1071.27</ele>
<time>2019-07-25T14:07:16Z</time>
</trkpt>
<trkpt lat="44.8837825" lon="5.3753590">
<ele>1071.29</ele>
<time>2019-07-25T14:07:17Z</time>
</trkpt>
<trkpt lat="44.8837534" lon="5.3753910">
<ele>1071.32</ele>
<time>2019-07-25T14:07:18Z</time>
</trkpt>
<trkpt lat="44.8837253" lon="5.3754209">
<ele>1071.59</ele>
<time>2019-07-25T14:07:19Z</time>
</trkpt>
<trkpt lat="44.8836911" lon="5.3754539">
<ele>1071.85</ele>
<time>2019-07-25T14:07:20Z</time>
</trkpt>
<trkpt lat="44.8836591" lon="5.3754847">
<ele>1072.09</ele>
<time>2019-07-25T14:07:21Z</time>
</trkpt>
<trkpt lat="44.8836256" lon="5.3755173">
<ele>1072.34</ele>
<time>2019-07-25T14:07:22Z</time>
</trkpt>
<trkpt lat="44.8835955" lon="5.3755461">
<ele>1072.60</ele>
<time>2019-07-25T14:07:23Z</time>
</trkpt>
<trkpt lat="44.8835654" lon="5.3755745">
<ele>1072.87</ele>
<time>2019-07-25T14:07:24Z</time>
</trkpt>
<trkpt lat="44.8835289" lon="5.3756067">
<ele>1073.09</ele>
<time>2019-07-25T14:07:25Z</time>
</trkpt>
<trkpt lat="44.8834973" lon="5.3756390">
<ele>1073.30</ele>
<time>2019-07-25T14:07:26Z</time>
</trkpt>
<trkpt lat="44.8834653" lon="5.3756726">
<ele>1073.52</ele>
<time>2019-07-25T14:07:27Z</time>
</trkpt>
<trkpt lat="44.8834321" lon="5.3757038">
<ele>1073.73</ele>
<time>2019-07-25T14:07:28Z</time>
</trkpt>
<trkpt lat="44.8834009" lon="5.3757333">
<ele>1073.92</ele>
<time>2019-07-25T14:07:29Z</time>
</trkpt>
<trkpt lat="44.8833666" lon="5.3757630">
<ele>1074.12</ele>
<time>2019-07-25T14:07:30Z</time>
</trkpt>
<trkpt lat="44.8833350" lon="5.3757930">
<ele>1074.31</ele>
<time>2019-07-25T14:07:31Z</time>
</trkpt>
<trkpt lat="44.8833011" lon="5.3758249">
<ele>1074.51</ele>
<time>2019-07-25T14:07:32Z</time>
</trkpt>
<trkpt lat="44.8832651" lon="5.3758565">
<ele>1074.76</ele>
<time>2019-07-25T14:07:33Z</time>
</trkpt>
<trkpt lat="44.8832332" lon="5.3758870">
<ele>1074.98</ele>
<time>2019-07-25T14:07:34Z</time>
</trkpt>
<trkpt lat="44.8831999" lon="5.3759155">
<ele>1075.17</ele>
<time>2019-07-25T14:07:35Z</time>
</trkpt>
<trkpt lat="44.8831648" lon="5.3759445">
<ele>1075.34</ele>
<time>2019-07-25T14:07:36Z</time>
</trkpt>
<trkpt lat="44.8831302" lon="5.3759743">
<ele>1075.48</ele>
<time>2019-07-25T14:07:37Z</time>
</trkpt>
<trkpt lat="44.8830935" lon="5.3760075">
<ele>1075.59</ele>
<time>2019-07-25T14:07:38Z</time>
</trkpt>
<trkpt lat="44.8830588" lon="5.3760378">
<ele>1075.69</ele>
<time>2019-07-25T14:07:39Z</time>
</trkpt>
<trkpt lat="44.8830256" lon="5.3760684">
<ele>1075.76</ele>
<time>2019-07-25T14:07:40Z</time>
</trkpt>
<trkpt lat="44.8829912" lon="5.3760951">
<ele>1075.81</ele>
<time>2019-07-25T14:07:41Z</time>
</trkpt>
<trkpt lat="44.8829550" lon="5.3761164">
<ele>1075.86</ele>
<time>2019-07-25T14:07:42Z</time>
</trkpt>
<trkpt lat="44.8829206" lon="5.3761352">
<ele>1075.87</ele>
<time>2019-07-25T14:07:43Z</time>
</trkpt>
<trkpt lat="44.8828837" lon="5.3761568">
<ele>1075.87</ele>
<time>2019-07-25T14:07:44Z</time>
</trkpt>
<trkpt lat="44.8828490" lon="5.3761783">
<ele>1075.97</ele>
<time>2019-07-25T14:07:45Z</time>
</trkpt>
<trkpt lat="44.8828151" lon="5.3761999">
<ele>1075.98</ele>
<time>2019-07-25T14:07:46Z</time>
</trkpt>
<trkpt lat="44.8827796" lon="5.3762198">
<ele>1075.99</ele>
<time>2019-07-25T14:07:47Z</time>
</trkpt>
<trkpt lat="44.8827456" lon="5.3762382">
<ele>1076.00</ele>
<time>2019-07-25T14:07:48Z</time>
</trkpt>
<trkpt lat="44.8827068" lon="5.3762527">
<ele>1076.09</ele>
<time>2019-07-25T14:07:49Z</time>
</trkpt>
<trkpt lat="44.8826698" lon="5.3762661">
<ele>1076.17</ele>
<time>2019-07-25T14:07:50Z</time>
</trkpt>
<trkpt lat="44.8826307" lon="5.3762804">
<ele>1076.24</ele>
<time>2019-07-25T14:07:51Z</time>
</trkpt>
<trkpt lat="44.8825876" lon="5.3762980">
<ele>1076.32</ele>
<time>2019-07-25T14:07:52Z</time>
</trkpt>
<trkpt lat="44.8825426" lon="5.3763215">
<ele>1076.37</ele>
<time>2019-07-25T14:07:53Z</time>
</trkpt>
<trkpt lat="44.8824975" lon="5.3763407">
<ele>1076.42</ele>
<time>2019-07-25T14:07:54Z</time>
</trkpt>
<trkpt lat="44.8824537" lon="5.3763532">
<ele>1076.49</ele>
<time>2019-07-25T14:07:55Z</time>
</trkpt>
<trkpt lat="44.8824096" lon="5.3763683">
<ele>1076.58</ele>
<time>2019-07-25T14:07:56Z</time>
</trkpt>
<trkpt lat="44.8823633" lon="5.3763822">
<ele>1076.67</ele>
<time>2019-07-25T14:07:57Z</time>
</trkpt>
<trkpt lat="44.8823160" lon="5.3763940">
<ele>1076.75</ele>
<time>2019-07-25T14:07:58Z</time>
</trkpt>
<trkpt lat="44.8822709" lon="5.3764070">
<ele>1076.82</ele>
<time>2019-07-25T14:07:59Z</time>
</trkpt>
<trkpt lat="44.8822299" lon="5.3764158">
<ele>1076.90</ele>
<time>2019-07-25T14:08:00Z</time>
</trkpt>
<trkpt lat="44.8821869" lon="5.3764311">
<ele>1076.97</ele>
<time>2019-07-25T14:08:01Z</time>
</trkpt>
<trkpt lat="44.8821468" lon="5.3764415">
<ele>1077.01</ele>
<time>2019-07-25T14:08:02Z</time>
</trkpt>
<trkpt lat="44.8821066" lon="5.3764524">
<ele>1077.05</ele>
<time>2019-07-25T14:08:03Z</time>
</trkpt>
<trkpt lat="44.8820645" lon="5.3764694">
<ele>1077.10</ele>
<time>2019-07-25T14:08:04Z</time>
</trkpt>
<trkpt lat="44.8820260" lon="5.3764859">
<ele>1077.16</ele>
<time>2019-07-25T14:08:05Z</time>
</trkpt>
<trkpt lat="44.8819858" lon="5.3764963">
<ele>1077.20</ele>
<time>2019-07-25T14:08:06Z</time>
</trkpt>
<trkpt lat="44.8819443" lon="5.3765062">
<ele>1077.23</ele>
<time>2019-07-25T14:08:07Z</time>
</trkpt>
<trkpt lat="44.8819036" lon="5.3765196">
<ele>1077.24</ele>
<time>2019-07-25T14:08:08Z</time>
</trkpt>
<trkpt lat="44.8818664" lon="5.3765311">
<ele>1077.29</ele>
<time>2019-07-25T14:08:09Z</time>
</trkpt>
<trkpt lat="44.8818262" lon="5.3765428">
<ele>1077.32</ele>
<time>2019-07-25T14:08:10Z</time>
</trkpt>
<trkpt lat="44.8817829" lon="5.3765579">
<ele>1077.32</ele>
<time>2019-07-25T14:08:11Z</time>
</trkpt>
<trkpt lat="44.8817409" lon="5.3765721">
<ele>1077.31</ele>
<time>2019-07-25T14:08:12Z</time>
</trkpt>
<trkpt lat="44.8816998" lon="5.3765860">
<ele>1077.33</ele>
<time>2019-07-25T14:08:13Z</time>
</trkpt>
<trkpt lat="44.8816612" lon="5.3765988">
<ele>1077.35</ele>
<time>2019-07-25T14:08:14Z</time>
</trkpt>
<trkpt lat="44.8816183" lon="5.3766126">
<ele>1077.35</ele>
<time>2019-07-25T14:08:15Z</time>
</trkpt>
<trkpt lat="44.8815777" lon="5.3766257">
<ele>1077.40</ele>
<time>2019-07-25T14:08:16Z</time>
</trkpt>
<trkpt lat="44.8815402" lon="5.3766380">
<ele>1077.46</ele>
<time>2019-07-25T14:08:17Z</time>
</trkpt>
<trkpt lat="44.8814979" lon="5.3766530">
<ele>1077.51</ele>
<time>2019-07-25T14:08:18Z</time>
</trkpt>
<trkpt lat="44.8814588" lon="5.3766670">
<ele>1077.56</ele>
<time>2019-07-25T14:08:19Z</time>
</trkpt>
<trkpt lat="44.8814230" lon="5.3766811">
<ele>1077.66</ele>
<time>2019-07-25T14:08:20Z</time>
</trkpt>
<trkpt lat="44.8813839" lon="5.3766922">
<ele>1077.75</ele>
<time>2019-07-25T14:08:21Z</time>
</trkpt>
<trkpt lat="44.8813435" lon="5.3767031">
<ele>1077.81</ele>
<time>2019-07-25T14:08:22Z</time>
</trkpt>
<trkpt lat="44.8813056" lon="5.3767137">
<ele>1077.82</ele>
<time>2019-07-25T14:08:23Z</time>
</trkpt>
<trkpt lat="44.8812698" lon="5.3767230">
<ele>1077.82</ele>
<time>2019-07-25T14:08:24Z</time>
</trkpt>
<trkpt lat="44.8812326" lon="5.3767379">
<ele>1077.90</ele>
<time>2019-07-25T14:08:25Z</time>
</trkpt>
<trkpt lat="44.8811973" lon="5.3767479">
<ele>1077.91</ele>
<time>2019-07-25T14:08:26Z</time>
</trkpt>
<trkpt lat="44.8811661" lon="5.3767536">
<ele>1077.91</ele>
<time>2019-07-25T14:08:27Z</time>
</trkpt>
<trkpt lat="44.8811342" lon="5.3767591">
<ele>1077.92</ele>
<time>2019-07-25T14:08:28Z</time>
</trkpt>
<trkpt lat="44.8811052" lon="5.3767651">
<ele>1077.93</ele>
<time>2019-07-25T14:08:29Z</time>
</trkpt>
<trkpt lat="44.8810788" lon="5.3767666">
<ele>1077.93</ele>
<time>2019-07-25T14:08:30Z</time>
</trkpt>
<trkpt lat="44.8810575" lon="5.3767696">
<ele>1077.93</ele>
<time>2019-07-25T14:08:31Z</time>
</trkpt>
<trkpt lat="44.8810377" lon="5.3767722">
<ele>1077.93</ele>
<time>2019-07-25T14:08:32Z</time>
</trkpt>
<trkpt lat="44.8810208" lon="5.3767650">
<ele>1077.93</ele>
<time>2019-07-25T14:08:33Z</time>
</trkpt>
<trkpt lat="44.8810017" lon="5.3767638">
<ele>1077.92</ele>
<time>2019-07-25T14:08:34Z</time>
</trkpt>
<trkpt lat="44.8809757" lon="5.3767671">
<ele>1077.91</ele>
<time>2019-07-25T14:08:35Z</time>
</trkpt>
<trkpt lat="44.8809551" lon="5.3767684">
<ele>1077.90</ele>
<time>2019-07-25T14:08:36Z</time>
</trkpt>
<trkpt lat="44.8809404" lon="5.3767610">
<ele>1077.89</ele>
<time>2019-07-25T14:08:37Z</time>
</trkpt>
<trkpt lat="44.8809241" lon="5.3767503">
<ele>1077.88</ele>
<time>2019-07-25T14:08:38Z</time>
</trkpt>
<trkpt lat="44.8809125" lon="5.3767392">
<ele>1077.87</ele>
<time>2019-07-25T14:08:39Z</time>
</trkpt>
<trkpt lat="44.8809070" lon="5.3767251">
<ele>1077.87</ele>
<time>2019-07-25T14:08:40Z</time>
</trkpt>
<trkpt lat="44.8808925" lon="5.3767086">
<ele>1077.86</ele>
<time>2019-07-25T14:08:41Z</time>
</trkpt>
<trkpt lat="44.8808780" lon="5.3766921">
<ele>1077.86</ele>
<time>2019-07-25T14:08:42Z</time>
</trkpt>
<trkpt lat="44.8808663" lon="5.3766737">
<ele>1077.87</ele>
<time>2019-07-25T14:08:43Z</time>
</trkpt>
<trkpt lat="44.8808531" lon="5.3766513">
<ele>1077.88</ele>
<time>2019-07-25T14:08:44Z</time>
</trkpt>
<trkpt lat="44.8808393" lon="5.3766271">
<ele>1077.90</ele>
<time>2019-07-25T14:08:45Z</time>
</trkpt>
<trkpt lat="44.8808213" lon="5.3766055">
<ele>1077.92</ele>
<time>2019-07-25T14:08:46Z</time>
</trkpt>
<trkpt lat="44.8808051" lon="5.3765931">
<ele>1077.95</ele>
<time>2019-07-25T14:08:47Z</time>
</trkpt>
<trkpt lat="44.8807887" lon="5.3765732">
<ele>1077.98</ele>
<time>2019-07-25T14:08:48Z</time>
</trkpt>
<trkpt lat="44.8807771" lon="5.3765561">
<ele>1078.03</ele>
<time>2019-07-25T14:08:49Z</time>
</trkpt>
<trkpt lat="44.8807661" lon="5.3765300">
<ele>1078.07</ele>
<time>2019-07-25T14:08:50Z</time>
</trkpt>
<trkpt lat="44.8807536" lon="5.3764927">
<ele>1078.11</ele>
<time>2019-07-25T14:08:51Z</time>
</trkpt>
<trkpt lat="44.8807446" lon="5.3764713">
<ele>1078.15</ele>
<time>2019-07-25T14:08:52Z</time>
</trkpt>
<trkpt lat="44.8807341" lon="5.3764408">
<ele>1078.19</ele>
<time>2019-07-25T14:08:53Z</time>
</trkpt>
<trkpt lat="44.8807333" lon="5.3764134">
<ele>1078.24</ele>
<time>2019-07-25T14:08:54Z</time>
</trkpt>
<trkpt lat="44.8807334" lon="5.3763765">
<ele>1078.29</ele>
<time>2019-07-25T14:08:55Z</time>
</trkpt>
<trkpt lat="44.8807272" lon="5.3763411">
<ele>1078.34</ele>
<time>2019-07-25T14:08:56Z</time>
</trkpt>
<trkpt lat="44.8807093" lon="5.3763178">
<ele>1078.40</ele>
<time>2019-07-25T14:08:57Z</time>
</trkpt>
<trkpt lat="44.8806927" lon="5.3763041">
<ele>1078.46</ele>
<time>2019-07-25T14:08:58Z</time>
</trkpt>
<trkpt lat="44.8806825" lon="5.3762904">
<ele>1078.52</ele>
<time>2019-07-25T14:08:59Z</time>
</trkpt>
<trkpt lat="44.8806779" lon="5.3762827">
<ele>1078.58</ele>
<time>2019-07-25T14:09:00Z</time>
</trkpt>
<trkpt lat="44.8806760" lon="5.3762766">
<ele>1078.64</ele>
<time>2019-07-25T14:09:01Z</time>
</trkpt>
<trkpt lat="44.8806774" lon="5.3762797">
<ele>1078.70</ele>
<time>2019-07-25T14:09:02Z</time>
</trkpt>
<trkpt lat="44.8806762" lon="5.3762804">
<ele>1078.77</ele>
<time>2019-07-25T14:09:03Z</time>
</trkpt>
<trkpt lat="44.8806712" lon="5.3762765">
<ele>1078.83</ele>
<time>2019-07-25T14:09:04Z</time>
</trkpt>
<trkpt lat="44.8806685" lon="5.3762742">
<ele>1078.90</ele>
<time>2019-07-25T14:09:05Z</time>
</trkpt>
<trkpt lat="44.8806655" lon="5.3762763">
<ele>1078.90</ele>
<time>2019-07-25T14:09:06Z</time>
</trkpt>
<trkpt lat="44.8806604" lon="5.3762713">
<ele>1078.97</ele>
<time>2019-07-25T14:09:07Z</time>
</trkpt>
<trkpt lat="44.8806562" lon="5.3762743">
<ele>1078.97</ele>
<time>2019-07-25T14:09:08Z</time>
</trkpt>
<trkpt lat="44.8806560" lon="5.3762748">
<ele>1078.98</ele>
<time>2019-07-25T14:09:09Z</time>
</trkpt>
<trkpt lat="44.8806558" lon="5.3762745">
<ele>1078.99</ele>
<time>2019-07-25T14:09:10Z</time>
</trkpt>
<trkpt lat="44.8806555" lon="5.3762747">
<ele>1079.00</ele>
<time>2019-07-25T14:09:11Z</time>
</trkpt>
<trkpt lat="44.8806552" lon="5.3762743">
<ele>1079.00</ele>
<time>2019-07-25T14:09:12Z</time>
</trkpt>
<trkpt lat="44.8806553" lon="5.3762727">
<ele>1079.01</ele>
<time>2019-07-25T14:09:13Z</time>
</trkpt>
<trkpt lat="44.8806552" lon="5.3762734">
<ele>1079.02</ele>
<time>2019-07-25T14:09:14Z</time>
</trkpt>
<trkpt lat="44.8806548" lon="5.3762739">
<ele>1079.03</ele>
<time>2019-07-25T14:09:15Z</time>
</trkpt>
<trkpt lat="44.8806533" lon="5.3762737">
<ele>1079.04</ele>
<time>2019-07-25T14:09:16Z</time>
</trkpt>
<trkpt lat="44.8806530" lon="5.3762725">
<ele>1079.05</ele>
<time>2019-07-25T14:09:17Z</time>
</trkpt>
<trkpt lat="44.8806539" lon="5.3762731">
<ele>1079.06</ele>
<time>2019-07-25T14:09:18Z</time>
</trkpt>
<trkpt lat="44.8806554" lon="5.3762750">
<ele>1079.07</ele>
<time>2019-07-25T14:09:19Z</time>
</trkpt>
<trkpt lat="44.8806558" lon="5.3762738">
<ele>1079.08</ele>
<time>2019-07-25T14:09:20Z</time>
</trkpt>
<trkpt lat="44.8806559" lon="5.3762734">
<ele>1079.09</ele>
<time>2019-07-25T14:09:21Z</time>
</trkpt>
<trkpt lat="44.8806563" lon="5.3762735">
<ele>1079.10</ele>
<time>2019-07-25T14:09:22Z</time>
</trkpt>
<trkpt lat="44.8806564" lon="5.3762737">
<ele>1079.11</ele>
<time>2019-07-25T14:09:23Z</time>
</trkpt>
<trkpt lat="44.8806564" lon="5.3762737">
<ele>1079.12</ele>
<time>2019-07-25T14:09:24Z</time>
</trkpt>
<trkpt lat="44.8806572" lon="5.3762758">
<ele>1079.13</ele>
<time>2019-07-25T14:09:25Z</time>
</trkpt>
<trkpt lat="44.8806570" lon="5.3762758">
<ele>1079.14</ele>
<time>2019-07-25T14:09:26Z</time>
</trkpt>
<trkpt lat="44.8806570" lon="5.3762759">
<ele>1079.15</ele>
<time>2019-07-25T14:09:27Z</time>
</trkpt>
<trkpt lat="44.8806568" lon="5.3762764">
<ele>1079.16</ele>
<time>2019-07-25T14:09:28Z</time>
</trkpt>
<trkpt lat="44.8806551" lon="5.3762778">
<ele>1079.17</ele>
<time>2019-07-25T14:09:29Z</time>
</trkpt>
<trkpt lat="44.8806548" lon="5.3762785">
<ele>1079.18</ele>
<time>2019-07-25T14:09:30Z</time>
</trkpt>
<trkpt lat="44.8806537" lon="5.3762793">
<ele>1079.19</ele>
<time>2019-07-25T14:09:31Z</time>
</trkpt>
<trkpt lat="44.8806528" lon="5.3762799">
<ele>1079.20</ele>
<time>2019-07-25T14:09:32Z</time>
</trkpt>
<trkpt lat="44.8806520" lon="5.3762803">
<ele>1079.20</ele>
<time>2019-07-25T14:09:33Z</time>
</trkpt>
<trkpt lat="44.8806517" lon="5.3762806">
<ele>1079.21</ele>
<time>2019-07-25T14:09:34Z</time>
</trkpt>
<trkpt lat="44.8806514" lon="5.3762806">
<ele>1079.22</ele>
<time>2019-07-25T14:09:35Z</time>
</trkpt>
<trkpt lat="44.8806509" lon="5.3762807">
<ele>1079.23</ele>
<time>2019-07-25T14:09:36Z</time>
</trkpt>
<trkpt lat="44.8806508" lon="5.3762807">
<ele>1079.24</ele>
<time>2019-07-25T14:09:37Z</time>
</trkpt>
<trkpt lat="44.8806503" lon="5.3762808">
<ele>1079.25</ele>
<time>2019-07-25T14:09:38Z</time>
</trkpt>
<trkpt lat="44.8806499" lon="5.3762809">
<ele>1079.26</ele>
<time>2019-07-25T14:09:39Z</time>
</trkpt>
<trkpt lat="44.8806494" lon="5.3762811">
<ele>1079.27</ele>
<time>2019-07-25T14:09:40Z</time>
</trkpt>
<trkpt lat="44.8806494" lon="5.3762810">
<ele>1079.28</ele>
<time>2019-07-25T14:09:41Z</time>
</trkpt>
<trkpt lat="44.8806486" lon="5.3762814">
<ele>1079.29</ele>
<time>2019-07-25T14:09:42Z</time>
</trkpt>
<trkpt lat="44.8806482" lon="5.3762815">
<ele>1079.30</ele>
<time>2019-07-25T14:09:43Z</time>
</trkpt>
<trkpt lat="44.8806480" lon="5.3762818">
<ele>1079.31</ele>
<time>2019-07-25T14:09:44Z</time>
</trkpt>
<trkpt lat="44.8806471" lon="5.3762823">
<ele>1079.32</ele>
<time>2019-07-25T14:09:45Z</time>
</trkpt>
<trkpt lat="44.8806465" lon="5.3762827">
<ele>1079.32</ele>
<time>2019-07-25T14:09:46Z</time>
</trkpt>
<trkpt lat="44.8806455" lon="5.3762835">
<ele>1079.33</ele>
<time>2019-07-25T14:09:47Z</time>
</trkpt>
<trkpt lat="44.8806438" lon="5.3762847">
<ele>1079.34</ele>
<time>2019-07-25T14:09:48Z</time>
</trkpt>
<trkpt lat="44.8806437" lon="5.3762836">
<ele>1079.35</ele>
<time>2019-07-25T14:09:49Z</time>
</trkpt>
<trkpt lat="44.8806433" lon="5.3762838">
<ele>1079.36</ele>
<time>2019-07-25T14:09:50Z</time>
</trkpt>
<trkpt lat="44.8806429" lon="5.3762838">
<ele>1079.37</ele>
<time>2019-07-25T14:09:51Z</time>
</trkpt>
<trkpt lat="44.8806417" lon="5.3762851">
<ele>1079.38</ele>
<time>2019-07-25T14:09:52Z</time>
</trkpt>
<trkpt lat="44.8806415" lon="5.3762845">
<ele>1079.39</ele>
<time>2019-07-25T14:09:53Z</time>
</trkpt>
<trkpt lat="44.8806410" lon="5.3762850">
<ele>1079.40</ele>
<time>2019-07-25T14:09:54Z</time>
</trkpt>
<trkpt lat="44.8806400" lon="5.3762856">
<ele>1079.41</ele>
<time>2019-07-25T14:09:55Z</time>
</trkpt>
<trkpt lat="44.8806411" lon="5.3762839">
<ele>1079.42</ele>
<time>2019-07-25T14:09:56Z</time>
</trkpt>
<trkpt lat="44.8806409" lon="5.3762838">
<ele>1079.43</ele>
<time>2019-07-25T14:09:57Z</time>
</trkpt>
<trkpt lat="44.8806408" lon="5.3762838">
<ele>1079.44</ele>
<time>2019-07-25T14:09:58Z</time>
</trkpt>
<trkpt lat="44.8806407" lon="5.3762839">
<ele>1079.45</ele>
<time>2019-07-25T14:09:59Z</time>
</trkpt>
<trkpt lat="44.8806409" lon="5.3762837">
<ele>1079.46</ele>
<time>2019-07-25T14:10:00Z</time>
</trkpt>
<trkpt lat="44.8806411" lon="5.3762835">
<ele>1079.47</ele>
<time>2019-07-25T14:10:01Z</time>
</trkpt>
<trkpt lat="44.8806411" lon="5.3762836">
<ele>1079.48</ele>
<time>2019-07-25T14:10:02Z</time>
</trkpt>
<trkpt lat="44.8806410" lon="5.3762836">
<ele>1079.49</ele>
<time>2019-07-25T14:10:03Z</time>
</trkpt>
<trkpt lat="44.8806400" lon="5.3762845">
<ele>1079.50</ele>
<time>2019-07-25T14:10:04Z</time>
</trkpt>
<trkpt lat="44.8806397" lon="5.3762850">
<ele>1079.51</ele>
<time>2019-07-25T14:10:05Z</time>
</trkpt>
<trkpt lat="44.8806405" lon="5.3762843">
<ele>1079.52</ele>
<time>2019-07-25T14:10:06Z</time>
</trkpt>
<trkpt lat="44.8806411" lon="5.3762847">
<ele>1079.53</ele>
<time>2019-07-25T14:10:07Z</time>
</trkpt>
<trkpt lat="44.8806409" lon="5.3762852">
<ele>1079.54</ele>
<time>2019-07-25T14:10:08Z</time>
</trkpt>
<trkpt lat="44.8806404" lon="5.3762859">
<ele>1079.55</ele>
<time>2019-07-25T14:10:09Z</time>
</trkpt>
<trkpt lat="44.8806403" lon="5.3762861">
<ele>1079.56</ele>
<time>2019-07-25T14:10:10Z</time>
</trkpt>
<trkpt lat="44.8806410" lon="5.3762853">
<ele>1079.57</ele>
<time>2019-07-25T14:10:11Z</time>
</trkpt>
<trkpt lat="44.8806410" lon="5.3762857">
<ele>1079.58</ele>
<time>2019-07-25T14:10:12Z</time>
</trkpt>
<trkpt lat="44.8806409" lon="5.3762851">
<ele>1079.59</ele>
<time>2019-07-25T14:10:13Z</time>
</trkpt>
<trkpt lat="44.8806425" lon="5.3762842">
<ele>1079.61</ele>
<time>2019-07-25T14:10:14Z</time>
</trkpt>
<trkpt lat="44.8806425" lon="5.3762846">
<ele>1079.62</ele>
<time>2019-07-25T14:10:15Z</time>
</trkpt>
<trkpt lat="44.8806430" lon="5.3762857">
<ele>1079.63</ele>
<time>2019-07-25T14:10:16Z</time>
</trkpt>
<trkpt lat="44.8806432" lon="5.3762877">
<ele>1079.64</ele>
<time>2019-07-25T14:10:17Z</time>
</trkpt>
<trkpt lat="44.8806421" lon="5.3762891">
<ele>1079.65</ele>
<time>2019-07-25T14:10:18Z</time>
</trkpt>
<trkpt lat="44.8806417" lon="5.3762895">
<ele>1079.66</ele>
<time>2019-07-25T14:10:19Z</time>
</trkpt>
<trkpt lat="44.8806411" lon="5.3762901">
<ele>1079.67</ele>
<time>2019-07-25T14:10:20Z</time>
</trkpt>
<trkpt lat="44.8806410" lon="5.3762903">
<ele>1079.68</ele>
<time>2019-07-25T14:10:21Z</time>
</trkpt>
<trkpt lat="44.8806411" lon="5.3762903">
<ele>1079.69</ele>
<time>2019-07-25T14:10:22Z</time>
</trkpt>
<trkpt lat="44.8806411" lon="5.3762903">
<ele>1079.70</ele>
<time>2019-07-25T14:10:23Z</time>
</trkpt>
<trkpt lat="44.8806410" lon="5.3762906">
<ele>1079.71</ele>
<time>2019-07-25T14:10:24Z</time>
</trkpt>
<trkpt lat="44.8806412" lon="5.3762906">
<ele>1079.72</ele>
<time>2019-07-25T14:10:25Z</time>
</trkpt>
<trkpt lat="44.8806414" lon="5.3762906">
<ele>1079.74</ele>
<time>2019-07-25T14:10:26Z</time>
</trkpt>
<trkpt lat="44.8806413" lon="5.3762909">
<ele>1079.75</ele>
<time>2019-07-25T14:10:27Z</time>
</trkpt>
<trkpt lat="44.8806410" lon="5.3762915">
<ele>1079.76</ele>
<time>2019-07-25T14:10:28Z</time>
</trkpt>
<trkpt lat="44.8806405" lon="5.3762921">
<ele>1079.77</ele>
<time>2019-07-25T14:10:29Z</time>
</trkpt>
<trkpt lat="44.8806388" lon="5.3762939">
<ele>1079.78</ele>
<time>2019-07-25T14:10:30Z</time>
</trkpt>
<trkpt lat="44.8806387" lon="5.3762943">
<ele>1079.80</ele>
<time>2019-07-25T14:10:31Z</time>
</trkpt>
<trkpt lat="44.8806385" lon="5.3762945">
<ele>1079.81</ele>
<time>2019-07-25T14:10:32Z</time>
</trkpt>
<trkpt lat="44.8806385" lon="5.3762947">
<ele>1079.82</ele>
<time>2019-07-25T14:10:33Z</time>
</trkpt>
<trkpt lat="44.8806385" lon="5.3762946">
<ele>1079.83</ele>
<time>2019-07-25T14:10:34Z</time>
</trkpt>
<trkpt lat="44.8806385" lon="5.3762947">
<ele>1079.84</ele>
<time>2019-07-25T14:10:35Z</time>
</trkpt>
<trkpt lat="44.8806382" lon="5.3762949">
<ele>1079.85</ele>
<time>2019-07-25T14:10:36Z</time>
</trkpt>
<trkpt lat="44.8806384" lon="5.3762945">
<ele>1079.86</ele>
<time>2019-07-25T14:10:37Z</time>
</trkpt>
<trkpt lat="44.8806384" lon="5.3762941">
<ele>1079.87</ele>
<time>2019-07-25T14:10:38Z</time>
</trkpt>
<trkpt lat="44.8806390" lon="5.3762937">
<ele>1079.89</ele>
<time>2019-07-25T14:10:39Z</time>
</trkpt>
<trkpt lat="44.8806391" lon="5.3762948">
<ele>1079.90</ele>
<time>2019-07-25T14:10:40Z</time>
</trkpt>
<trkpt lat="44.8806391" lon="5.3762951">
<ele>1079.91</ele>
<time>2019-07-25T14:10:41Z</time>
</trkpt>
<trkpt lat="44.8806410" lon="5.3762918">
<ele>1079.92</ele>
<time>2019-07-25T14:10:42Z</time>
</trkpt>
<trkpt lat="44.8806408" lon="5.3762917">
<ele>1079.93</ele>
<time>2019-07-25T14:10:43Z</time>
</trkpt>
<trkpt lat="44.8806402" lon="5.3762919">
<ele>1079.94</ele>
<time>2019-07-25T14:10:44Z</time>
</trkpt>
<trkpt lat="44.8806406" lon="5.3762905">
<ele>1079.95</ele>
<time>2019-07-25T14:10:45Z</time>
</trkpt>
<trkpt lat="44.8806406" lon="5.3762904">
<ele>1079.96</ele>
<time>2019-07-25T14:10:46Z</time>
</trkpt>
<trkpt lat="44.8806421" lon="5.3762883">
<ele>1079.97</ele>
<time>2019-07-25T14:10:47Z</time>
</trkpt>
<trkpt lat="44.8806427" lon="5.3762913">
<ele>1079.99</ele>
<time>2019-07-25T14:10:48Z</time>
</trkpt>
<trkpt lat="44.8806423" lon="5.3762926">
<ele>1080.00</ele>
<time>2019-07-25T14:10:49Z</time>
</trkpt>
<trkpt lat="44.8806484" lon="5.3763043">
<ele>1080.11</ele>
<time>2019-07-25T14:10:50Z</time>
</trkpt>
<trkpt lat="44.8806524" lon="5.3762954">
<ele>1080.22</ele>
<time>2019-07-25T14:10:51Z</time>
</trkpt>
<trkpt lat="44.8806620" lon="5.3762920">
<ele>1080.32</ele>
<time>2019-07-25T14:10:52Z</time>
</trkpt>
<trkpt lat="44.8806634" lon="5.3762905">
<ele>1080.33</ele>
<time>2019-07-25T14:10:53Z</time>
</trkpt>
<trkpt lat="44.8806629" lon="5.3762916">
<ele>1080.35</ele>
<time>2019-07-25T14:10:54Z</time>
</trkpt>
<trkpt lat="44.8806629" lon="5.3762924">
<ele>1080.36</ele>
<time>2019-07-25T14:10:55Z</time>
</trkpt>
<trkpt lat="44.8806621" lon="5.3762932">
<ele>1080.37</ele>
<time>2019-07-25T14:10:56Z</time>
</trkpt>
<trkpt lat="44.8806611" lon="5.3762936">
<ele>1080.38</ele>
<time>2019-07-25T14:10:57Z</time>
</trkpt>
<trkpt lat="44.8806608" lon="5.3762939">
<ele>1080.39</ele>
<time>2019-07-25T14:10:58Z</time>
</trkpt>
<trkpt lat="44.8806601" lon="5.3762950">
<ele>1080.40</ele>
<time>2019-07-25T14:10:59Z</time>
</trkpt>
<trkpt lat="44.8806599" lon="5.3762956">
<ele>1080.41</ele>
<time>2019-07-25T14:11:00Z</time>
</trkpt>
<trkpt lat="44.8806596" lon="5.3762960">
<ele>1080.42</ele>
<time>2019-07-25T14:11:01Z</time>
</trkpt>
<trkpt lat="44.8806594" lon="5.3762966">
<ele>1080.43</ele>
<time>2019-07-25T14:11:02Z</time>
</trkpt>
<trkpt lat="44.8806593" lon="5.3762970">
<ele>1080.44</ele>
<time>2019-07-25T14:11:03Z</time>
</trkpt>
<trkpt lat="44.8806593" lon="5.3762965">
<ele>1080.45</ele>
<time>2019-07-25T14:11:04Z</time>
</trkpt>
<trkpt lat="44.8806594" lon="5.3762971">
<ele>1080.46</ele>
<time>2019-07-25T14:11:05Z</time>
</trkpt>
<trkpt lat="44.8806591" lon="5.3762975">
<ele>1080.47</ele>
<time>2019-07-25T14:11:06Z</time>
</trkpt>
<trkpt lat="44.8806589" lon="5.3762975">
<ele>1080.48</ele>
<time>2019-07-25T14:11:07Z</time>
</trkpt>
<trkpt lat="44.8806587" lon="5.3762976">
<ele>1080.48</ele>
<time>2019-07-25T14:11:08Z</time>
</trkpt>
<trkpt lat="44.8806585" lon="5.3762978">
<ele>1080.49</ele>
<time>2019-07-25T14:11:09Z</time>
</trkpt>
<trkpt lat="44.8806575" lon="5.3762996">
<ele>1080.50</ele>
<time>2019-07-25T14:11:10Z</time>
</trkpt>
<trkpt lat="44.8806576" lon="5.3762985">
<ele>1080.51</ele>
<time>2019-07-25T14:11:11Z</time>
</trkpt>
<trkpt lat="44.8806580" lon="5.3762975">
<ele>1080.52</ele>
<time>2019-07-25T14:11:12Z</time>
</trkpt>
<trkpt lat="44.8806582" lon="5.3762972">
<ele>1080.53</ele>
<time>2019-07-25T14:11:13Z</time>
</trkpt>
<trkpt lat="44.8806592" lon="5.3762948">
<ele>1080.54</ele>
<time>2019-07-25T14:11:14Z</time>
</trkpt>
<trkpt lat="44.8806589" lon="5.3762959">
<ele>1080.55</ele>
<time>2019-07-25T14:11:15Z</time>
</trkpt>
<trkpt lat="44.8806580" lon="5.3763003">
<ele>1080.56</ele>
<time>2019-07-25T14:11:16Z</time>
</trkpt>
<trkpt lat="44.8806570" lon="5.3763056">
<ele>1080.57</ele>
<time>2019-07-25T14:11:17Z</time>
</trkpt>
<trkpt lat="44.8806564" lon="5.3763093">
<ele>1080.58</ele>
<time>2019-07-25T14:11:18Z</time>
</trkpt>
<trkpt lat="44.8806561" lon="5.3763109">
<ele>1080.59</ele>
<time>2019-07-25T14:11:19Z</time>
</trkpt>
<trkpt lat="44.8806560" lon="5.3763116">
<ele>1080.60</ele>
<time>2019-07-25T14:11:20Z</time>
</trkpt>
<trkpt lat="44.8806559" lon="5.3763121">
<ele>1080.61</ele>
<time>2019-07-25T14:11:21Z</time>
</trkpt>
<trkpt lat="44.8806557" lon="5.3763130">
<ele>1080.63</ele>
<time>2019-07-25T14:11:22Z</time>
</trkpt>
<trkpt lat="44.8806555" lon="5.3763131">
<ele>1080.64</ele>
<time>2019-07-25T14:11:23Z</time>
</trkpt>
<trkpt lat="44.8806556" lon="5.3763119">
<ele>1080.65</ele>
<time>2019-07-25T14:11:24Z</time>
</trkpt>
<trkpt lat="44.8806556" lon="5.3763117">
<ele>1080.66</ele>
<time>2019-07-25T14:11:25Z</time>
</trkpt>
<trkpt lat="44.8806558" lon="5.3763103">
<ele>1080.68</ele>
<time>2019-07-25T14:11:26Z</time>
</trkpt>
<trkpt lat="44.8806559" lon="5.3763094">
<ele>1080.69</ele>
<time>2019-07-25T14:11:27Z</time>
</trkpt>
<trkpt lat="44.8806559" lon="5.3763089">
<ele>1080.70</ele>
<time>2019-07-25T14:11:28Z</time>
</trkpt>
<trkpt lat="44.8806558" lon="5.3763085">
<ele>1080.72</ele>
<time>2019-07-25T14:11:29Z</time>
</trkpt>
<trkpt lat="44.8806557" lon="5.3763086">
<ele>1080.73</ele>
<time>2019-07-25T14:11:30Z</time>
</trkpt>
<trkpt lat="44.8806556" lon="5.3763083">
<ele>1080.74</ele>
<time>2019-07-25T14:11:31Z</time>
</trkpt>
<trkpt lat="44.8806558" lon="5.3763083">
<ele>1080.75</ele>
<time>2019-07-25T14:11:32Z</time>
</trkpt>
<trkpt lat="44.8806558" lon="5.3763086">
<ele>1080.76</ele>
<time>2019-07-25T14:11:33Z</time>
</trkpt>
<trkpt lat="44.8806557" lon="5.3763082">
<ele>1080.77</ele>
<time>2019-07-25T14:11:34Z</time>
</trkpt>
<trkpt lat="44.8806555" lon="5.3763084">
<ele>1080.78</ele>
<time>2019-07-25T14:11:35Z</time>
</trkpt>
<trkpt lat="44.8806555" lon="5.3763084">
<ele>1080.79</ele>
<time>2019-07-25T14:11:36Z</time>
</trkpt>
<trkpt lat="44.8806554" lon="5.3763088">
<ele>1080.80</ele>
<time>2019-07-25T14:11:37Z</time>
</trkpt>
<trkpt lat="44.8806553" lon="5.3763091">
<ele>1080.81</ele>
<time>2019-07-25T14:11:38Z</time>
</trkpt>
<trkpt lat="44.8806552" lon="5.3763095">
<ele>1080.82</ele>
<time>2019-07-25T14:11:39Z</time>
</trkpt>
<trkpt lat="44.8806550" lon="5.3763104">
<ele>1080.83</ele>
<time>2019-07-25T14:11:40Z</time>
</trkpt>
<trkpt lat="44.8806546" lon="5.3763120">
<ele>1080.84</ele>
<time>2019-07-25T14:11:41Z</time>
</trkpt>
<trkpt lat="44.8806551" lon="5.3763114">
<ele>1080.85</ele>
<time>2019-07-25T14:11:42Z</time>
</trkpt>
<trkpt lat="44.8806551" lon="5.3763118">
<ele>1080.86</ele>
<time>2019-07-25T14:11:43Z</time>
</trkpt>
<trkpt lat="44.8806555" lon="5.3763110">
<ele>1080.87</ele>
<time>2019-07-25T14:11:44Z</time>
</trkpt>
<trkpt lat="44.8806555" lon="5.3763091">
<ele>1080.88</ele>
<time>2019-07-25T14:11:45Z</time>
</trkpt>
<trkpt lat="44.8806556" lon="5.3763089">
<ele>1080.89</ele>
<time>2019-07-25T14:11:46Z</time>
</trkpt>
<trkpt lat="44.8806549" lon="5.3763100">
<ele>1080.91</ele>
<time>2019-07-25T14:11:47Z</time>
</trkpt>
<trkpt lat="44.8806558" lon="5.3763037">
<ele>1081.02</ele>
<time>2019-07-25T14:11:48Z</time>
</trkpt>
<trkpt lat="44.8806593" lon="5.3762915">
<ele>1081.14</ele>
<time>2019-07-25T14:11:49Z</time>
</trkpt>
<trkpt lat="44.8806608" lon="5.3762906">
<ele>1081.26</ele>
<time>2019-07-25T14:11:50Z</time>
</trkpt>
<trkpt lat="44.8806694" lon="5.3762802">
<ele>1081.37</ele>
<time>2019-07-25T14:11:51Z</time>
</trkpt>
<trkpt lat="44.8806700" lon="5.3762793">
<ele>1081.38</ele>
<time>2019-07-25T14:11:52Z</time>
</trkpt>
<trkpt lat="44.8806696" lon="5.3762793">
<ele>1081.39</ele>
<time>2019-07-25T14:11:53Z</time>
</trkpt>
<trkpt lat="44.8806674" lon="5.3762824">
<ele>1081.40</ele>
<time>2019-07-25T14:11:54Z</time>
</trkpt>
<trkpt lat="44.8806674" lon="5.3762817">
<ele>1081.41</ele>
<time>2019-07-25T14:11:55Z</time>
</trkpt>
<trkpt lat="44.8806650" lon="5.3762843">
<ele>1081.52</ele>
<time>2019-07-25T14:11:56Z</time>
</trkpt>
<trkpt lat="44.8806626" lon="5.3762873">
<ele>1081.62</ele>
<time>2019-07-25T14:11:57Z</time>
</trkpt>
<trkpt lat="44.8806550" lon="5.3762909">
<ele>1081.72</ele>
<time>2019-07-25T14:11:58Z</time>
</trkpt>
<trkpt lat="44.8806452" lon="5.3762920">
<ele>1081.82</ele>
<time>2019-07-25T14:11:59Z</time>
</trkpt>
<trkpt lat="44.8806344" lon="5.3762908">
<ele>1081.91</ele>
<time>2019-07-25T14:12:00Z</time>
</trkpt>
<trkpt lat="44.8806275" lon="5.3762887">
<ele>1082.00</ele>
<time>2019-07-25T14:12:01Z</time>
</trkpt>
<trkpt lat="44.8806143" lon="5.3762826">
<ele>1082.08</ele>
<time>2019-07-25T14:12:02Z</time>
</trkpt>
<trkpt lat="44.8806016" lon="5.3762814">
<ele>1082.15</ele>
<time>2019-07-25T14:12:03Z</time>
</trkpt>
<trkpt lat="44.8805965" lon="5.3762905">
<ele>1082.22</ele>
<time>2019-07-25T14:12:04Z</time>
</trkpt>
<trkpt lat="44.8805993" lon="5.3762883">
<ele>1082.23</ele>
<time>2019-07-25T14:12:05Z</time>
</trkpt>
<trkpt lat="44.8805894" lon="5.3762905">
<ele>1082.29</ele>
<time>2019-07-25T14:12:06Z</time>
</trkpt>
<trkpt lat="44.8805886" lon="5.3762928">
<ele>1082.30</ele>
<time>2019-07-25T14:12:07Z</time>
</trkpt>
<trkpt lat="44.8805865" lon="5.3762877">
<ele>1082.30</ele>
<time>2019-07-25T14:12:08Z</time>
</trkpt>
<trkpt lat="44.8805835" lon="5.3762853">
<ele>1082.31</ele>
<time>2019-07-25T14:12:09Z</time>
</trkpt>
<trkpt lat="44.8805854" lon="5.3762855">
<ele>1082.36</ele>
<time>2019-07-25T14:12:10Z</time>
</trkpt>
<trkpt lat="44.8805954" lon="5.3762790">
<ele>1082.41</ele>
<time>2019-07-25T14:12:11Z</time>
</trkpt>
<trkpt lat="44.8805975" lon="5.3762842">
<ele>1082.41</ele>
<time>2019-07-25T14:12:12Z</time>
</trkpt>
<trkpt lat="44.8805967" lon="5.3762855">
<ele>1082.80</ele>
<time>2019-07-25T14:12:13Z</time>
</trkpt>
<trkpt lat="44.8805994" lon="5.3762826">
<ele>1082.83</ele>
<time>2019-07-25T14:12:14Z</time>
</trkpt>
<trkpt lat="44.8805991" lon="5.3762873">
<ele>1082.83</ele>
<time>2019-07-25T14:12:15Z</time>
</trkpt>
<trkpt lat="44.8805962" lon="5.3762993">
<ele>1082.86</ele>
<time>2019-07-25T14:12:16Z</time>
</trkpt>
<trkpt lat="44.8805974" lon="5.3762992">
<ele>1082.86</ele>
<time>2019-07-25T14:12:17Z</time>
</trkpt>
<trkpt lat="44.8805974" lon="5.3762989">
<ele>1082.86</ele>
<time>2019-07-25T14:12:18Z</time>
</trkpt>
<trkpt lat="44.8805925" lon="5.3762881">
<ele>1082.86</ele>
<time>2019-07-25T14:12:19Z</time>
</trkpt>
<trkpt lat="44.8806015" lon="5.3762909">
<ele>1082.87</ele>
<time>2019-07-25T14:12:20Z</time>
</trkpt>
<trkpt lat="44.8806005" lon="5.3762971">
<ele>1083.07</ele>
<time>2019-07-25T14:12:21Z</time>
</trkpt>
<trkpt lat="44.8806036" lon="5.3762955">
<ele>1083.24</ele>
<time>2019-07-25T14:12:22Z</time>
</trkpt>
<trkpt lat="44.8806092" lon="5.3762887">
<ele>1083.40</ele>
<time>2019-07-25T14:12:23Z</time>
</trkpt>
<trkpt lat="44.8806092" lon="5.3762886">
<ele>1083.51</ele>
<time>2019-07-25T14:12:24Z</time>
</trkpt>
<trkpt lat="44.8806093" lon="5.3762885">
<ele>1083.58</ele>
<time>2019-07-25T14:12:25Z</time>
</trkpt>
<trkpt lat="44.8806091" lon="5.3762884">
<ele>1083.59</ele>
<time>2019-07-25T14:12:26Z</time>
</trkpt>
<trkpt lat="44.8806088" lon="5.3762883">
<ele>1083.58</ele>
<time>2019-07-25T14:12:27Z</time>
</trkpt>
<trkpt lat="44.8806087" lon="5.3762878">
<ele>1083.56</ele>
<time>2019-07-25T14:12:28Z</time>
</trkpt>
<trkpt lat="44.8806089" lon="5.3762878">
<ele>1083.53</ele>
<time>2019-07-25T14:12:29Z</time>
</trkpt>
<trkpt lat="44.8806090" lon="5.3762881">
<ele>1083.49</ele>
<time>2019-07-25T14:12:30Z</time>
</trkpt>
<trkpt lat="44.8806092" lon="5.3762879">
<ele>1083.49</ele>
<time>2019-07-25T14:12:31Z</time>
</trkpt>
<trkpt lat="44.8806093" lon="5.3762878">
<ele>1083.50</ele>
<time>2019-07-25T14:12:32Z</time>
</trkpt>
<trkpt lat="44.8806092" lon="5.3762879">
<ele>1083.51</ele>
<time>2019-07-25T14:12:33Z</time>
</trkpt>
<trkpt lat="44.8806094" lon="5.3762879">
<ele>1083.51</ele>
<time>2019-07-25T14:12:34Z</time>
</trkpt>
<trkpt lat="44.8806100" lon="5.3762882">
<ele>1083.51</ele>
<time>2019-07-25T14:12:35Z</time>
</trkpt>
<trkpt lat="44.8806105" lon="5.3762890">
<ele>1083.51</ele>
<time>2019-07-25T14:12:36Z</time>
</trkpt>
<trkpt lat="44.8806107" lon="5.3762892">
<ele>1083.51</ele>
<time>2019-07-25T14:12:37Z</time>
</trkpt>
<trkpt lat="44.8806107" lon="5.3762892">
<ele>1083.51</ele>
<time>2019-07-25T14:12:38Z</time>
</trkpt>
<trkpt lat="44.8806109" lon="5.3762903">
<ele>1083.51</ele>
<time>2019-07-25T14:12:39Z</time>
</trkpt>
<trkpt lat="44.8806111" lon="5.3762903">
<ele>1083.51</ele>
<time>2019-07-25T14:12:40Z</time>
</trkpt>
<trkpt lat="44.8806115" lon="5.3762904">
<ele>1083.45</ele>
<time>2019-07-25T14:12:41Z</time>
</trkpt>
<trkpt lat="44.8806119" lon="5.3762902">
<ele>1083.40</ele>
<time>2019-07-25T14:12:41Z</time>
</trkpt>
<trkpt lat="44.8806118" lon="5.3762902">
<ele>1083.40</ele>
<time>2019-07-25T14:12:42Z</time>
</trkpt>
<trkpt lat="44.8806118" lon="5.3762902">
<ele>1083.39</ele>
<time>2019-07-25T14:12:43Z</time>
</trkpt>
<trkpt lat="44.8806122" lon="5.3762902">
<ele>1083.39</ele>
<time>2019-07-25T14:12:44Z</time>
</trkpt>
<trkpt lat="44.8806123" lon="5.3762901">
<ele>1083.39</ele>
<time>2019-07-25T14:12:45Z</time>
</trkpt>
<trkpt lat="44.8806118" lon="5.3762901">
<ele>1083.39</ele>
<time>2019-07-25T14:12:46Z</time>
</trkpt>
<trkpt lat="44.8806119" lon="5.3762900">
<ele>1083.39</ele>
<time>2019-07-25T14:12:47Z</time>
</trkpt>
<trkpt lat="44.8806119" lon="5.3762899">
<ele>1083.37</ele>
<time>2019-07-25T14:12:48Z</time>
</trkpt>
<trkpt lat="44.8806116" lon="5.3762897">
<ele>1083.38</ele>
<time>2019-07-25T14:12:49Z</time>
</trkpt>
<trkpt lat="44.8806110" lon="5.3762892">
<ele>1083.41</ele>
<time>2019-07-25T14:12:50Z</time>
</trkpt>
<trkpt lat="44.8806110" lon="5.3762891">
<ele>1083.41</ele>
<time>2019-07-25T14:12:51Z</time>
</trkpt>
<trkpt lat="44.8806111" lon="5.3762889">
<ele>1083.41</ele>
<time>2019-07-25T14:12:52Z</time>
</trkpt>
<trkpt lat="44.8806111" lon="5.3762888">
<ele>1083.42</ele>
<time>2019-07-25T14:12:53Z</time>
</trkpt>
<trkpt lat="44.8806118" lon="5.3762900">
<ele>1083.42</ele>
<time>2019-07-25T14:12:54Z</time>
</trkpt>
<trkpt lat="44.8806136" lon="5.3762932">
<ele>1083.42</ele>
<time>2019-07-25T14:12:55Z</time>
</trkpt>
<trkpt lat="44.8806145" lon="5.3762951">
<ele>1083.42</ele>
<time>2019-07-25T14:12:56Z</time>
</trkpt>
<trkpt lat="44.8806146" lon="5.3762955">
<ele>1083.42</ele>
<time>2019-07-25T14:12:57Z</time>
</trkpt>
<trkpt lat="44.8806148" lon="5.3762958">
<ele>1083.61</ele>
<time>2019-07-25T14:12:58Z</time>
</trkpt>
<trkpt lat="44.8806149" lon="5.3762963">
<ele>1083.75</ele>
<time>2019-07-25T14:12:59Z</time>
</trkpt>
<trkpt lat="44.8806152" lon="5.3762966">
<ele>1083.91</ele>
<time>2019-07-25T14:13:00Z</time>
</trkpt>
<trkpt lat="44.8806151" lon="5.3762968">
<ele>1084.03</ele>
<time>2019-07-25T14:13:01Z</time>
</trkpt>
<trkpt lat="44.8806150" lon="5.3762964">
<ele>1084.14</ele>
<time>2019-07-25T14:13:02Z</time>
</trkpt>
<trkpt lat="44.8806149" lon="5.3762962">
<ele>1084.27</ele>
<time>2019-07-25T14:13:03Z</time>
</trkpt>
<trkpt lat="44.8806147" lon="5.3762959">
<ele>1084.44</ele>
<time>2019-07-25T14:13:04Z</time>
</trkpt>
<trkpt lat="44.8806146" lon="5.3762958">
<ele>1084.61</ele>
<time>2019-07-25T14:13:05Z</time>
</trkpt>
<trkpt lat="44.8806146" lon="5.3762955">
<ele>1084.79</ele>
<time>2019-07-25T14:13:06Z</time>
</trkpt>
<trkpt lat="44.8806148" lon="5.3762950">
<ele>1084.79</ele>
<time>2019-07-25T14:13:07Z</time>
</trkpt>
<trkpt lat="44.8806146" lon="5.3762945">
<ele>1084.79</ele>
<time>2019-07-25T14:13:08Z</time>
</trkpt>
<trkpt lat="44.8806144" lon="5.3762945">
<ele>1084.79</ele>
<time>2019-07-25T14:13:09Z</time>
</trkpt>
<trkpt lat="44.8806142" lon="5.3762942">
<ele>1084.80</ele>
<time>2019-07-25T14:13:10Z</time>
</trkpt>
<trkpt lat="44.8806142" lon="5.3762941">
<ele>1084.80</ele>
<time>2019-07-25T14:13:11Z</time>
</trkpt>
<trkpt lat="44.8806140" lon="5.3762938">
<ele>1084.80</ele>
<time>2019-07-25T14:13:12Z</time>
</trkpt>
<trkpt lat="44.8806138" lon="5.3762934">
<ele>1084.80</ele>
<time>2019-07-25T14:13:13Z</time>
</trkpt>
<trkpt lat="44.8806134" lon="5.3762929">
<ele>1084.80</ele>
<time>2019-07-25T14:13:14Z</time>
</trkpt>
<trkpt lat="44.8806132" lon="5.3762922">
<ele>1084.80</ele>
<time>2019-07-25T14:13:15Z</time>
</trkpt>
<trkpt lat="44.8806129" lon="5.3762915">
<ele>1084.80</ele>
<time>2019-07-25T14:13:16Z</time>
</trkpt>
<trkpt lat="44.8806127" lon="5.3762911">
<ele>1084.80</ele>
<time>2019-07-25T14:13:17Z</time>
</trkpt>
<trkpt lat="44.8806126" lon="5.3762908">
<ele>1084.80</ele>
<time>2019-07-25T14:13:18Z</time>
</trkpt>
<trkpt lat="44.8806126" lon="5.3762905">
<ele>1084.80</ele>
<time>2019-07-25T14:13:19Z</time>
</trkpt>
<trkpt lat="44.8806125" lon="5.3762904">
<ele>1084.80</ele>
<time>2019-07-25T14:13:20Z</time>
</trkpt>
<trkpt lat="44.8806124" lon="5.3762904">
<ele>1084.80</ele>
<time>2019-07-25T14:13:21Z</time>
</trkpt>
<trkpt lat="44.8806124" lon="5.3762904">
<ele>1084.80</ele>
<time>2019-07-25T14:13:22Z</time>
</trkpt>
<trkpt lat="44.8806122" lon="5.3762905">
<ele>1084.80</ele>
<time>2019-07-25T14:13:23Z</time>
</trkpt>
<trkpt lat="44.8806123" lon="5.3762905">
<ele>1084.80</ele>
<time>2019-07-25T14:13:24Z</time>
</trkpt>
<trkpt lat="44.8806122" lon="5.3762906">
<ele>1084.80</ele>
<time>2019-07-25T14:13:25Z</time>
</trkpt>
<trkpt lat="44.8806121" lon="5.3762906">
<ele>1084.80</ele>
<time>2019-07-25T14:13:26Z</time>
</trkpt>
<trkpt lat="44.8806120" lon="5.3762908">
<ele>1084.80</ele>
<time>2019-07-25T14:13:27Z</time>
</trkpt>
<trkpt lat="44.8806119" lon="5.3762908">
<ele>1084.80</ele>
<time>2019-07-25T14:13:28Z</time>
</trkpt>
<trkpt lat="44.8806123" lon="5.3762912">
<ele>1084.80</ele>
<time>2019-07-25T14:13:29Z</time>
</trkpt>
<trkpt lat="44.8806123" lon="5.3762911">
<ele>1084.81</ele>
<time>2019-07-25T14:13:30Z</time>
</trkpt>
<trkpt lat="44.8806123" lon="5.3762910">
<ele>1084.81</ele>
<time>2019-07-25T14:13:31Z</time>
</trkpt>
<trkpt lat="44.8806122" lon="5.3762909">
<ele>1084.81</ele>
<time>2019-07-25T14:13:32Z</time>
</trkpt>
<trkpt lat="44.8806122" lon="5.3762909">
<ele>1084.81</ele>
<time>2019-07-25T14:13:33Z</time>
</trkpt>
<trkpt lat="44.8806121" lon="5.3762910">
<ele>1084.81</ele>
<time>2019-07-25T14:13:34Z</time>
</trkpt>
<trkpt lat="44.8806121" lon="5.3762907">
<ele>1084.81</ele>
<time>2019-07-25T14:13:35Z</time>
</trkpt>
<trkpt lat="44.8806119" lon="5.3762905">
<ele>1084.81</ele>
<time>2019-07-25T14:13:36Z</time>
</trkpt>
<trkpt lat="44.8806116" lon="5.3762904">
<ele>1084.81</ele>
<time>2019-07-25T14:13:37Z</time>
</trkpt>
<trkpt lat="44.8806114" lon="5.3762904">
<ele>1084.81</ele>
<time>2019-07-25T14:13:38Z</time>
</trkpt>
<trkpt lat="44.8806115" lon="5.3762899">
<ele>1084.81</ele>
<time>2019-07-25T14:13:39Z</time>
</trkpt>
<trkpt lat="44.8806114" lon="5.3762878">
<ele>1084.81</ele>
<time>2019-07-25T14:13:40Z</time>
</trkpt>
<trkpt lat="44.8806111" lon="5.3762857">
<ele>1084.81</ele>
<time>2019-07-25T14:13:41Z</time>
</trkpt>
<trkpt lat="44.8806111" lon="5.3762856">
<ele>1084.80</ele>
<time>2019-07-25T14:13:42Z</time>
</trkpt>
<trkpt lat="44.8806105" lon="5.3762816">
<ele>1084.80</ele>
<time>2019-07-25T14:13:43Z</time>
</trkpt>
<trkpt lat="44.8806097" lon="5.3762825">
<ele>1084.80</ele>
<time>2019-07-25T14:13:44Z</time>
</trkpt>
<trkpt lat="44.8806095" lon="5.3762849">
<ele>1084.80</ele>
<time>2019-07-25T14:13:45Z</time>
</trkpt>
<trkpt lat="44.8806091" lon="5.3762897">
<ele>1084.80</ele>
<time>2019-07-25T14:13:46Z</time>
</trkpt>
<trkpt lat="44.8806092" lon="5.3762922">
<ele>1084.75</ele>
<time>2019-07-25T14:13:47Z</time>
</trkpt>
<trkpt lat="44.8806090" lon="5.3762953">
<ele>1084.70</ele>
<time>2019-07-25T14:13:48Z</time>
</trkpt>
<trkpt lat="44.8806085" lon="5.3763007">
<ele>1084.64</ele>
<time>2019-07-25T14:13:49Z</time>
</trkpt>
<trkpt lat="44.8806083" lon="5.3763029">
<ele>1084.58</ele>
<time>2019-07-25T14:13:50Z</time>
</trkpt>
<trkpt lat="44.8806080" lon="5.3763060">
<ele>1084.51</ele>
<time>2019-07-25T14:13:51Z</time>
</trkpt>
<trkpt lat="44.8806077" lon="5.3763082">
<ele>1084.40</ele>
<time>2019-07-25T14:13:52Z</time>
</trkpt>
<trkpt lat="44.8806073" lon="5.3763103">
<ele>1084.29</ele>
<time>2019-07-25T14:13:53Z</time>
</trkpt>
<trkpt lat="44.8806070" lon="5.3763119">
<ele>1084.18</ele>
<time>2019-07-25T14:13:54Z</time>
</trkpt>
<trkpt lat="44.8806066" lon="5.3763145">
<ele>1084.10</ele>
<time>2019-07-25T14:13:55Z</time>
</trkpt>
<trkpt lat="44.8806066" lon="5.3763145">
<ele>1084.06</ele>
<time>2019-07-25T14:13:56Z</time>
</trkpt>
<trkpt lat="44.8806068" lon="5.3763133">
<ele>1084.06</ele>
<time>2019-07-25T14:13:57Z</time>
</trkpt>
<trkpt lat="44.8806069" lon="5.3763124">
<ele>1084.06</ele>
<time>2019-07-25T14:13:58Z</time>
</trkpt>
<trkpt lat="44.8806069" lon="5.3763115">
<ele>1084.06</ele>
<time>2019-07-25T14:13:59Z</time>
</trkpt>
<trkpt lat="44.8806069" lon="5.3763114">
<ele>1084.12</ele>
<time>2019-07-25T14:14:00Z</time>
</trkpt>
<trkpt lat="44.8806069" lon="5.3763112">
<ele>1084.20</ele>
<time>2019-07-25T14:14:01Z</time>
</trkpt>
<trkpt lat="44.8806070" lon="5.3763108">
<ele>1084.20</ele>
<time>2019-07-25T14:14:02Z</time>
</trkpt>
<trkpt lat="44.8806070" lon="5.3763104">
<ele>1084.20</ele>
<time>2019-07-25T14:14:03Z</time>
</trkpt>
<trkpt lat="44.8806069" lon="5.3763103">
<ele>1084.20</ele>
<time>2019-07-25T14:14:04Z</time>
</trkpt>
<trkpt lat="44.8806069" lon="5.3763109">
<ele>1084.20</ele>
<time>2019-07-25T14:14:05Z</time>
</trkpt>
<trkpt lat="44.8806067" lon="5.3763117">
<ele>1084.32</ele>
<time>2019-07-25T14:14:06Z</time>
</trkpt>
<trkpt lat="44.8806066" lon="5.3763131">
<ele>1084.42</ele>
<time>2019-07-25T14:14:07Z</time>
</trkpt>
<trkpt lat="44.8806063" lon="5.3763148">
<ele>1084.42</ele>
<time>2019-07-25T14:14:08Z</time>
</trkpt>
<trkpt lat="44.8806062" lon="5.3763159">
<ele>1084.42</ele>
<time>2019-07-25T14:14:09Z</time>
</trkpt>
<trkpt lat="44.8806061" lon="5.3763172">
<ele>1084.42</ele>
<time>2019-07-25T14:14:10Z</time>
</trkpt>
<trkpt lat="44.8806058" lon="5.3763177">
<ele>1084.42</ele>
<time>2019-07-25T14:14:11Z</time>
</trkpt>
<trkpt lat="44.8806056" lon="5.3763179">
<ele>1084.42</ele>
<time>2019-07-25T14:14:12Z</time>
</trkpt>
<trkpt lat="44.8806056" lon="5.3763185">
<ele>1084.42</ele>
<time>2019-07-25T14:14:13Z</time>
</trkpt>
<trkpt lat="44.8806054" lon="5.3763215">
<ele>1084.42</ele>
<time>2019-07-25T14:14:14Z</time>
</trkpt>
<trkpt lat="44.8806051" lon="5.3763220">
<ele>1084.42</ele>
<time>2019-07-25T14:14:15Z</time>
</trkpt>
<trkpt lat="44.8806049" lon="5.3763234">
<ele>1084.42</ele>
<time>2019-07-25T14:14:16Z</time>
</trkpt>
<trkpt lat="44.8806044" lon="5.3763271">
<ele>1084.42</ele>
<time>2019-07-25T14:14:17Z</time>
</trkpt>
<trkpt lat="44.8806039" lon="5.3763273">
<ele>1084.26</ele>
<time>2019-07-25T14:14:18Z</time>
</trkpt>
<trkpt lat="44.8806039" lon="5.3763273">
<ele>1084.26</ele>
<time>2019-07-25T14:14:19Z</time>
</trkpt>
<trkpt lat="44.8806035" lon="5.3763289">
<ele>1084.26</ele>
<time>2019-07-25T14:14:20Z</time>
</trkpt>
<trkpt lat="44.8806032" lon="5.3763317">
<ele>1084.26</ele>
<time>2019-07-25T14:14:21Z</time>
</trkpt>
<trkpt lat="44.8806025" lon="5.3763326">
<ele>1084.25</ele>
<time>2019-07-25T14:14:22Z</time>
</trkpt>
<trkpt lat="44.8806020" lon="5.3763345">
<ele>1084.25</ele>
<time>2019-07-25T14:14:23Z</time>
</trkpt>
<trkpt lat="44.8806015" lon="5.3763361">
<ele>1084.25</ele>
<time>2019-07-25T14:14:24Z</time>
</trkpt>
<trkpt lat="44.8806010" lon="5.3763386">
<ele>1083.95</ele>
<time>2019-07-25T14:14:25Z</time>
</trkpt>
<trkpt lat="44.8806007" lon="5.3763399">
<ele>1083.70</ele>
<time>2019-07-25T14:14:26Z</time>
</trkpt>
<trkpt lat="44.8806001" lon="5.3763410">
<ele>1083.47</ele>
<time>2019-07-25T14:14:27Z</time>
</trkpt>
<trkpt lat="44.8805997" lon="5.3763424">
<ele>1083.25</ele>
<time>2019-07-25T14:14:28Z</time>
</trkpt>
<trkpt lat="44.8805990" lon="5.3763447">
<ele>1083.25</ele>
<time>2019-07-25T14:14:29Z</time>
</trkpt>
<trkpt lat="44.8805985" lon="5.3763434">
<ele>1083.25</ele>
<time>2019-07-25T14:14:30Z</time>
</trkpt>
<trkpt lat="44.8805991" lon="5.3763354">
<ele>1083.25</ele>
<time>2019-07-25T14:14:31Z</time>
</trkpt>
<trkpt lat="44.8806003" lon="5.3763294">
<ele>1083.25</ele>
<time>2019-07-25T14:14:32Z</time>
</trkpt>
<trkpt lat="44.8806008" lon="5.3763256">
<ele>1083.25</ele>
<time>2019-07-25T14:14:33Z</time>
</trkpt>
<trkpt lat="44.8806008" lon="5.3763256">
<ele>1083.25</ele>
<time>2019-07-25T14:14:34Z</time>
</trkpt>
<trkpt lat="44.8806000" lon="5.3763302">
<ele>1083.30</ele>
<time>2019-07-25T14:14:35Z</time>
</trkpt>
<trkpt lat="44.8805993" lon="5.3763341">
<ele>1083.33</ele>
<time>2019-07-25T14:14:36Z</time>
</trkpt>
<trkpt lat="44.8805985" lon="5.3763377">
<ele>1083.35</ele>
<time>2019-07-25T14:14:37Z</time>
</trkpt>
<trkpt lat="44.8805969" lon="5.3763470">
<ele>1083.37</ele>
<time>2019-07-25T14:14:38Z</time>
</trkpt>
<trkpt lat="44.8805963" lon="5.3763512">
<ele>1083.41</ele>
<time>2019-07-25T14:14:39Z</time>
</trkpt>
<trkpt lat="44.8805955" lon="5.3763525">
<ele>1083.41</ele>
<time>2019-07-25T14:14:40Z</time>
</trkpt>
<trkpt lat="44.8805944" lon="5.3763566">
<ele>1083.42</ele>
<time>2019-07-25T14:14:41Z</time>
</trkpt>
<trkpt lat="44.8805938" lon="5.3763561">
<ele>1083.42</ele>
<time>2019-07-25T14:14:42Z</time>
</trkpt>
<trkpt lat="44.8805935" lon="5.3763598">
<ele>1083.42</ele>
<time>2019-07-25T14:14:43Z</time>
</trkpt>
<trkpt lat="44.8805925" lon="5.3763603">
<ele>1083.41</ele>
<time>2019-07-25T14:14:44Z</time>
</trkpt>
<trkpt lat="44.8805921" lon="5.3763603">
<ele>1083.41</ele>
<time>2019-07-25T14:14:45Z</time>
</trkpt>
<trkpt lat="44.8805917" lon="5.3763632">
<ele>1083.41</ele>
<time>2019-07-25T14:14:46Z</time>
</trkpt>
<trkpt lat="44.8805916" lon="5.3763618">
<ele>1083.47</ele>
<time>2019-07-25T14:14:47Z</time>
</trkpt>
<trkpt lat="44.8805917" lon="5.3763593">
<ele>1083.56</ele>
<time>2019-07-25T14:14:48Z</time>
</trkpt>
<trkpt lat="44.8805917" lon="5.3763580">
<ele>1083.67</ele>
<time>2019-07-25T14:14:49Z</time>
</trkpt>
<trkpt lat="44.8805918" lon="5.3763567">
<ele>1083.74</ele>
<time>2019-07-25T14:14:50Z</time>
</trkpt>
<trkpt lat="44.8805928" lon="5.3763518">
<ele>1083.83</ele>
<time>2019-07-25T14:14:51Z</time>
</trkpt>
<trkpt lat="44.8805925" lon="5.3763505">
<ele>1083.91</ele>
<time>2019-07-25T14:14:52Z</time>
</trkpt>
<trkpt lat="44.8805928" lon="5.3763488">
<ele>1083.99</ele>
<time>2019-07-25T14:14:53Z</time>
</trkpt>
<trkpt lat="44.8805930" lon="5.3763475">
<ele>1084.07</ele>
<time>2019-07-25T14:14:54Z</time>
</trkpt>
<trkpt lat="44.8805913" lon="5.3763438">
<ele>1084.13</ele>
<time>2019-07-25T14:14:55Z</time>
</trkpt>
<trkpt lat="44.8805924" lon="5.3763412">
<ele>1084.21</ele>
<time>2019-07-25T14:14:56Z</time>
</trkpt>
<trkpt lat="44.8805924" lon="5.3763409">
<ele>1084.27</ele>
<time>2019-07-25T14:14:57Z</time>
</trkpt>
<trkpt lat="44.8805930" lon="5.3763383">
<ele>1084.33</ele>
<time>2019-07-25T14:14:58Z</time>
</trkpt>
<trkpt lat="44.8805930" lon="5.3763367">
<ele>1084.39</ele>
<time>2019-07-25T14:14:59Z</time>
</trkpt>
<trkpt lat="44.8805930" lon="5.3763362">
<ele>1084.44</ele>
<time>2019-07-25T14:15:00Z</time>
</trkpt>
<trkpt lat="44.8805933" lon="5.3763346">
<ele>1084.48</ele>
<time>2019-07-25T14:15:01Z</time>
</trkpt>
<trkpt lat="44.8805945" lon="5.3763315">
<ele>1084.52</ele>
<time>2019-07-25T14:15:02Z</time>
</trkpt>
<trkpt lat="44.8805950" lon="5.3763304">
<ele>1084.52</ele>
<time>2019-07-25T14:15:03Z</time>
</trkpt>
<trkpt lat="44.8805950" lon="5.3763311">
<ele>1084.52</ele>
<time>2019-07-25T14:15:04Z</time>
</trkpt>
<trkpt lat="44.8805943" lon="5.3763297">
<ele>1084.52</ele>
<time>2019-07-25T14:15:05Z</time>
</trkpt>
<trkpt lat="44.8805947" lon="5.3763299">
<ele>1084.52</ele>
<time>2019-07-25T14:15:06Z</time>
</trkpt>
<trkpt lat="44.8805944" lon="5.3763305">
<ele>1084.60</ele>
<time>2019-07-25T14:15:07Z</time>
</trkpt>
<trkpt lat="44.8805937" lon="5.3763304">
<ele>1084.60</ele>
<time>2019-07-25T14:15:08Z</time>
</trkpt>
<trkpt lat="44.8805941" lon="5.3763289">
<ele>1084.60</ele>
<time>2019-07-25T14:15:09Z</time>
</trkpt>
<trkpt lat="44.8805936" lon="5.3763274">
<ele>1084.60</ele>
<time>2019-07-25T14:15:10Z</time>
</trkpt>
<trkpt lat="44.8805995" lon="5.3763068">
<ele>1084.60</ele>
<time>2019-07-25T14:15:11Z</time>
</trkpt>
<trkpt lat="44.8805967" lon="5.3763048">
<ele>1084.60</ele>
<time>2019-07-25T14:15:12Z</time>
</trkpt>
<trkpt lat="44.8805992" lon="5.3762886">
<ele>1084.60</ele>
<time>2019-07-25T14:15:13Z</time>
</trkpt>
<trkpt lat="44.8805987" lon="5.3762890">
<ele>1084.60</ele>
<time>2019-07-25T14:15:14Z</time>
</trkpt>
<trkpt lat="44.8806016" lon="5.3762720">
<ele>1084.60</ele>
<time>2019-07-25T14:15:15Z</time>
</trkpt>
<trkpt lat="44.8806031" lon="5.3762743">
<ele>1084.60</ele>
<time>2019-07-25T14:15:16Z</time>
</trkpt>
<trkpt lat="44.8806113" lon="5.3762415">
<ele>1084.60</ele>
<time>2019-07-25T14:15:17Z</time>
</trkpt>
<trkpt lat="44.8806115" lon="5.3762445">
<ele>1084.60</ele>
<time>2019-07-25T14:15:18Z</time>
</trkpt>
<trkpt lat="44.8806114" lon="5.3762454">
<ele>1084.60</ele>
<time>2019-07-25T14:15:19Z</time>
</trkpt>
<trkpt lat="44.8806109" lon="5.3762426">
<ele>1084.52</ele>
<time>2019-07-25T14:15:20Z</time>
</trkpt>
<trkpt lat="44.8806102" lon="5.3762379">
<ele>1084.52</ele>
<time>2019-07-25T14:15:21Z</time>
</trkpt>
<trkpt lat="44.8806103" lon="5.3762378">
<ele>1084.52</ele>
<time>2019-07-25T14:15:22Z</time>
</trkpt>
<trkpt lat="44.8806102" lon="5.3762396">
<ele>1084.52</ele>
<time>2019-07-25T14:15:23Z</time>
</trkpt>
<trkpt lat="44.8806110" lon="5.3762457">
<ele>1084.51</ele>
<time>2019-07-25T14:15:24Z</time>
</trkpt>
<trkpt lat="44.8806037" lon="5.3762637">
<ele>1084.50</ele>
<time>2019-07-25T14:15:25Z</time>
</trkpt>
<trkpt lat="44.8806009" lon="5.3762611">
<ele>1084.48</ele>
<time>2019-07-25T14:15:26Z</time>
</trkpt>
<trkpt lat="44.8805913" lon="5.3762676">
<ele>1084.46</ele>
<time>2019-07-25T14:15:27Z</time>
</trkpt>
<trkpt lat="44.8805918" lon="5.3762666">
<ele>1084.46</ele>
<time>2019-07-25T14:15:28Z</time>
</trkpt>
<trkpt lat="44.8805929" lon="5.3762655">
<ele>1084.45</ele>
<time>2019-07-25T14:15:29Z</time>
</trkpt>
<trkpt lat="44.8805934" lon="5.3762649">
<ele>1084.45</ele>
<time>2019-07-25T14:15:30Z</time>
</trkpt>
<trkpt lat="44.8805937" lon="5.3762646">
<ele>1084.45</ele>
<time>2019-07-25T14:15:31Z</time>
</trkpt>
<trkpt lat="44.8805944" lon="5.3762647">
<ele>1084.45</ele>
<time>2019-07-25T14:15:32Z</time>
</trkpt>
<trkpt lat="44.8805973" lon="5.3762641">
<ele>1084.44</ele>
<time>2019-07-25T14:15:33Z</time>
</trkpt>
<trkpt lat="44.8806002" lon="5.3762596">
<ele>1084.44</ele>
<time>2019-07-25T14:15:34Z</time>
</trkpt>
<trkpt lat="44.8806067" lon="5.3762617">
<ele>1084.40</ele>
<time>2019-07-25T14:15:35Z</time>
</trkpt>
<trkpt lat="44.8806105" lon="5.3762640">
<ele>1084.36</ele>
<time>2019-07-25T14:15:36Z</time>
</trkpt>
<trkpt lat="44.8806212" lon="5.3762659">
<ele>1084.32</ele>
<time>2019-07-25T14:15:37Z</time>
</trkpt>
<trkpt lat="44.8806376" lon="5.3762805">
<ele>1084.28</ele>
<time>2019-07-25T14:15:38Z</time>
</trkpt>
<trkpt lat="44.8806353" lon="5.3763031">
<ele>1084.24</ele>
<time>2019-07-25T14:15:39Z</time>
</trkpt>
<trkpt lat="44.8806455" lon="5.3763067">
<ele>1084.19</ele>
<time>2019-07-25T14:15:40Z</time>
</trkpt>
<trkpt lat="44.8806593" lon="5.3763153">
<ele>1084.15</ele>
<time>2019-07-25T14:15:41Z</time>
</trkpt>
<trkpt lat="44.8806792" lon="5.3763072">
<ele>1084.10</ele>
<time>2019-07-25T14:15:42Z</time>
</trkpt>
<trkpt lat="44.8806828" lon="5.3763154">
<ele>1084.06</ele>
<time>2019-07-25T14:15:43Z</time>
</trkpt>
<trkpt lat="44.8806942" lon="5.3763267">
<ele>1084.02</ele>
<time>2019-07-25T14:15:44Z</time>
</trkpt>
<trkpt lat="44.8807088" lon="5.3763118">
<ele>1083.98</ele>
<time>2019-07-25T14:15:45Z</time>
</trkpt>
<trkpt lat="44.8807087" lon="5.3763140">
<ele>1083.94</ele>
<time>2019-07-25T14:15:46Z</time>
</trkpt>
<trkpt lat="44.8807210" lon="5.3762926">
<ele>1083.91</ele>
<time>2019-07-25T14:15:47Z</time>
</trkpt>
<trkpt lat="44.8807236" lon="5.3762880">
<ele>1083.87</ele>
<time>2019-07-25T14:15:48Z</time>
</trkpt>
<trkpt lat="44.8807279" lon="5.3762813">
<ele>1083.83</ele>
<time>2019-07-25T14:15:49Z</time>
</trkpt>
<trkpt lat="44.8807318" lon="5.3762764">
<ele>1083.80</ele>
<time>2019-07-25T14:15:50Z</time>
</trkpt>
<trkpt lat="44.8807355" lon="5.3762605">
<ele>1083.77</ele>
<time>2019-07-25T14:15:51Z</time>
</trkpt>
<trkpt lat="44.8807366" lon="5.3762253">
<ele>1083.73</ele>
<time>2019-07-25T14:15:52Z</time>
</trkpt>
<trkpt lat="44.8807404" lon="5.3761865">
<ele>1083.70</ele>
<time>2019-07-25T14:15:53Z</time>
</trkpt>
<trkpt lat="44.8807179" lon="5.3760896">
<ele>1083.67</ele>
<time>2019-07-25T14:15:54Z</time>
</trkpt>
<trkpt lat="44.8807069" lon="5.3760459">
<ele>1083.63</ele>
<time>2019-07-25T14:15:55Z</time>
</trkpt>
<trkpt lat="44.8807141" lon="5.3760356">
<ele>1083.60</ele>
<time>2019-07-25T14:15:56Z</time>
</trkpt>
<trkpt lat="44.8807207" lon="5.3760306">
<ele>1083.57</ele>
<time>2019-07-25T14:15:57Z</time>
</trkpt>
<trkpt lat="44.8807211" lon="5.3760398">
<ele>1083.57</ele>
<time>2019-07-25T14:15:58Z</time>
</trkpt>
<trkpt lat="44.8807230" lon="5.3760395">
<ele>1083.56</ele>
<time>2019-07-25T14:15:59Z</time>
</trkpt>
<trkpt lat="44.8807231" lon="5.3760406">
<ele>1083.56</ele>
<time>2019-07-25T14:16:00Z</time>
</trkpt>
<trkpt lat="44.8807237" lon="5.3760433">
<ele>1083.56</ele>
<time>2019-07-25T14:16:01Z</time>
</trkpt>
<trkpt lat="44.8807267" lon="5.3760411">
<ele>1083.53</ele>
<time>2019-07-25T14:16:02Z</time>
</trkpt>
<trkpt lat="44.8807308" lon="5.3760470">
<ele>1083.50</ele>
<time>2019-07-25T14:16:03Z</time>
</trkpt>
<trkpt lat="44.8807373" lon="5.3760503">
<ele>1083.50</ele>
<time>2019-07-25T14:16:04Z</time>
</trkpt>
<trkpt lat="44.8807409" lon="5.3760457">
<ele>1083.48</ele>
<time>2019-07-25T14:16:05Z</time>
</trkpt>
<trkpt lat="44.8807363" lon="5.3760480">
<ele>1083.45</ele>
<time>2019-07-25T14:16:06Z</time>
</trkpt>
<trkpt lat="44.8807277" lon="5.3760413">
<ele>1083.43</ele>
<time>2019-07-25T14:16:07Z</time>
</trkpt>
<trkpt lat="44.8807197" lon="5.3760330">
<ele>1083.40</ele>
<time>2019-07-25T14:16:08Z</time>
</trkpt>
<trkpt lat="44.8807162" lon="5.3760155">
<ele>1083.37</ele>
<time>2019-07-25T14:16:09Z</time>
</trkpt>
<trkpt lat="44.8807133" lon="5.3759979">
<ele>1083.34</ele>
<time>2019-07-25T14:16:10Z</time>
</trkpt>
<trkpt lat="44.8807106" lon="5.3759803">
<ele>1083.31</ele>
<time>2019-07-25T14:16:11Z</time>
</trkpt>
<trkpt lat="44.8807095" lon="5.3759583">
<ele>1083.28</ele>
<time>2019-07-25T14:16:12Z</time>
</trkpt>
<trkpt lat="44.8807081" lon="5.3759460">
<ele>1083.25</ele>
<time>2019-07-25T14:16:13Z</time>
</trkpt>
<trkpt lat="44.8807040" lon="5.3759355">
<ele>1083.22</ele>
<time>2019-07-25T14:16:14Z</time>
</trkpt>
<trkpt lat="44.8807001" lon="5.3759171">
<ele>1083.19</ele>
<time>2019-07-25T14:16:15Z</time>
</trkpt>
<trkpt lat="44.8806943" lon="5.3759065">
<ele>1083.16</ele>
<time>2019-07-25T14:16:16Z</time>
</trkpt>
<trkpt lat="44.8806902" lon="5.3758957">
<ele>1083.13</ele>
<time>2019-07-25T14:16:17Z</time>
</trkpt>
<trkpt lat="44.8806861" lon="5.3758749">
<ele>1083.11</ele>
<time>2019-07-25T14:16:18Z</time>
</trkpt>
<trkpt lat="44.8806809" lon="5.3758542">
<ele>1083.08</ele>
<time>2019-07-25T14:16:19Z</time>
</trkpt>
<trkpt lat="44.8806757" lon="5.3758446">
<ele>1083.05</ele>
<time>2019-07-25T14:16:20Z</time>
</trkpt>
<trkpt lat="44.8806711" lon="5.3758284">
<ele>1083.03</ele>
<time>2019-07-25T14:16:21Z</time>
</trkpt>
<trkpt lat="44.8806657" lon="5.3758087">
<ele>1083.00</ele>
<time>2019-07-25T14:16:22Z</time>
</trkpt>
<trkpt lat="44.8806626" lon="5.3757905">
<ele>1082.96</ele>
<time>2019-07-25T14:16:23Z</time>
</trkpt>
<trkpt lat="44.8806580" lon="5.3757742">
<ele>1082.93</ele>
<time>2019-07-25T14:16:24Z</time>
</trkpt>
<trkpt lat="44.8806512" lon="5.3757569">
<ele>1082.90</ele>
<time>2019-07-25T14:16:25Z</time>
</trkpt>
<trkpt lat="44.8806471" lon="5.3757444">
<ele>1082.86</ele>
<time>2019-07-25T14:16:26Z</time>
</trkpt>
<trkpt lat="44.8806439" lon="5.3757298">
<ele>1082.83</ele>
<time>2019-07-25T14:16:27Z</time>
</trkpt>
<trkpt lat="44.8806366" lon="5.3757120">
<ele>1082.79</ele>
<time>2019-07-25T14:16:28Z</time>
</trkpt>
<trkpt lat="44.8806260" lon="5.3756957">
<ele>1082.75</ele>
<time>2019-07-25T14:16:29Z</time>
</trkpt>
<trkpt lat="44.8806174" lon="5.3756851">
<ele>1082.72</ele>
<time>2019-07-25T14:16:30Z</time>
</trkpt>
<trkpt lat="44.8806075" lon="5.3756727">
<ele>1082.68</ele>
<time>2019-07-25T14:16:31Z</time>
</trkpt>
<trkpt lat="44.8805973" lon="5.3756616">
<ele>1082.65</ele>
<time>2019-07-25T14:16:32Z</time>
</trkpt>
<trkpt lat="44.8805887" lon="5.3756545">
<ele>1082.61</ele>
<time>2019-07-25T14:16:33Z</time>
</trkpt>
<trkpt lat="44.8805818" lon="5.3756466">
<ele>1082.58</ele>
<time>2019-07-25T14:16:34Z</time>
</trkpt>
<trkpt lat="44.8805782" lon="5.3756410">
<ele>1082.54</ele>
<time>2019-07-25T14:16:35Z</time>
</trkpt>
<trkpt lat="44.8805776" lon="5.3756400">
<ele>1082.51</ele>
<time>2019-07-25T14:16:36Z</time>
</trkpt>
<trkpt lat="44.8805811" lon="5.3756443">
<ele>1082.47</ele>
<time>2019-07-25T14:16:37Z</time>
</trkpt>
<trkpt lat="44.8805868" lon="5.3756546">
<ele>1082.44</ele>
<time>2019-07-25T14:16:38Z</time>
</trkpt>
<trkpt lat="44.8805887" lon="5.3756686">
<ele>1082.41</ele>
<time>2019-07-25T14:16:39Z</time>
</trkpt>
<trkpt lat="44.8805903" lon="5.3756786">
<ele>1082.37</ele>
<time>2019-07-25T14:16:40Z</time>
</trkpt>
<trkpt lat="44.8805898" lon="5.3756775">
<ele>1082.37</ele>
<time>2019-07-25T14:16:41Z</time>
</trkpt>
<trkpt lat="44.8805897" lon="5.3756792">
<ele>1082.37</ele>
<time>2019-07-25T14:16:42Z</time>
</trkpt>
<trkpt lat="44.8805891" lon="5.3756844">
<ele>1082.36</ele>
<time>2019-07-25T14:16:43Z</time>
</trkpt>
<trkpt lat="44.8805867" lon="5.3756717">
<ele>1082.33</ele>
<time>2019-07-25T14:16:44Z</time>
</trkpt>
<trkpt lat="44.8805816" lon="5.3756524">
<ele>1082.30</ele>
<time>2019-07-25T14:16:45Z</time>
</trkpt>
<trkpt lat="44.8805819" lon="5.3756536">
<ele>1082.27</ele>
<time>2019-07-25T14:16:46Z</time>
</trkpt>
</trkseg>
</trk>
</gpx>
